<?xml version='1.0' encoding='UTF-8'?><gpx version="1.1" creator="JPX - https://github.com/jenetics/jpx" xmlns="http://www.topografix.com/GPX/1/1"><trk><trkseg><trkpt lat="43.1467917" lon="13.3778433"><ele>288.0</ele><time>2026-04-18T08:46:12.859Z</time></trkpt><trkpt lat="43.14659" lon="13.3778817"><ele>288.0</ele><time>2026-04-18T08:46:14.359Z</time></trkpt><trkpt lat="43.1464533" lon="13.3779083"><ele>288.0</ele><time>2026-04-18T08:46:15.359Z</time></trkpt><trkpt lat="43.14619" lon="13.3779567"><ele>288.0</ele><time>2026-04-18T08:46:17.262Z</time></trkpt><trkpt lat="43.146045" lon="13.3779967"><ele>288.0</ele><time>2026-04-18T08:46:18.262Z</time></trkpt><trkpt lat="43.1458883" lon="13.37804"><ele>288.0</ele><time>2026-04-18T08:46:19.259Z</time></trkpt><trkpt lat="43.1457333" lon="13.3780767"><ele>289.0</ele><time>2026-04-18T08:46:20.259Z</time></trkpt><trkpt lat="43.14558" lon="13.3781"><ele>290.0</ele><time>2026-04-18T08:46:21.259Z</time></trkpt><trkpt lat="43.1454333" lon="13.3781317"><ele>291.0</ele><time>2026-04-18T08:46:22.259Z</time></trkpt><trkpt lat="43.145275" lon="13.3781483"><ele>291.0</ele><time>2026-04-18T08:46:23.259Z</time></trkpt><trkpt lat="43.1451317" lon="13.378175"><ele>291.0</ele><time>2026-04-18T08:46:24.259Z</time></trkpt><trkpt lat="43.144995" lon="13.378205"><ele>291.0</ele><time>2026-04-18T08:46:25.259Z</time></trkpt><trkpt lat="43.14485" lon="13.378225"><ele>291.0</ele><time>2026-04-18T08:46:26.259Z</time></trkpt><trkpt lat="43.1447083" lon="13.3782517"><ele>291.0</ele><time>2026-04-18T08:46:27.259Z</time></trkpt><trkpt lat="43.1445683" lon="13.3782733"><ele>291.0</ele><time>2026-04-18T08:46:28.258Z</time></trkpt><trkpt lat="43.1444267" lon="13.3782967"><ele>291.0</ele><time>2026-04-18T08:46:29.259Z</time></trkpt><trkpt lat="43.144285" lon="13.3783167"><ele>291.0</ele><time>2026-04-18T08:46:30.259Z</time></trkpt><trkpt lat="43.14415" lon="13.3783317"><ele>291.5</ele><time>2026-04-18T08:46:31.259Z</time></trkpt><trkpt lat="43.1440133" lon="13.3783467"><ele>292.0</ele><time>2026-04-18T08:46:32.259Z</time></trkpt><trkpt lat="43.1438783" lon="13.3783567"><ele>292.5</ele><time>2026-04-18T08:46:33.259Z</time></trkpt><trkpt lat="43.1437367" lon="13.3783667"><ele>293.0</ele><time>2026-04-18T08:46:34.259Z</time></trkpt><trkpt lat="43.1435983" lon="13.3783767"><ele>293.0</ele><time>2026-04-18T08:46:35.259Z</time></trkpt><trkpt lat="43.14345" lon="13.378405"><ele>293.0</ele><time>2026-04-18T08:46:36.259Z</time></trkpt><trkpt lat="43.1433017" lon="13.37843"><ele>293.0</ele><time>2026-04-18T08:46:37.259Z</time></trkpt><trkpt lat="43.1431517" lon="13.378455"><ele>293.0</ele><time>2026-04-18T08:46:38.259Z</time></trkpt><trkpt lat="43.143" lon="13.378495"><ele>293.0</ele><time>2026-04-18T08:46:39.259Z</time></trkpt><trkpt lat="43.142835" lon="13.3785533"><ele>293.0</ele><time>2026-04-18T08:46:40.259Z</time></trkpt><trkpt lat="43.14267" lon="13.37862"><ele>293.0</ele><time>2026-04-18T08:46:41.258Z</time></trkpt><trkpt lat="43.1425083" lon="13.3786967"><ele>293.0</ele><time>2026-04-18T08:46:42.259Z</time></trkpt><trkpt lat="43.1423567" lon="13.3787667"><ele>293.0</ele><time>2026-04-18T08:46:43.259Z</time></trkpt><trkpt lat="43.1422083" lon="13.378825"><ele>293.6666666666667</ele><time>2026-04-18T08:46:44.259Z</time></trkpt><trkpt lat="43.1420683" lon="13.3788883"><ele>294.3333333333333</ele><time>2026-04-18T08:46:45.259Z</time></trkpt><trkpt lat="43.1419183" lon="13.3789433"><ele>295.0</ele><time>2026-04-18T08:46:46.259Z</time></trkpt><trkpt lat="43.1417667" lon="13.3789933"><ele>295.0</ele><time>2026-04-18T08:46:47.259Z</time></trkpt><trkpt lat="43.1415967" lon="13.3790367"><ele>295.0</ele><time>2026-04-18T08:46:48.259Z</time></trkpt><trkpt lat="43.14143" lon="13.37908"><ele>295.0</ele><time>2026-04-18T08:46:49.259Z</time></trkpt><trkpt lat="43.1412633" lon="13.379125"><ele>296.0</ele><time>2026-04-18T08:46:50.259Z</time></trkpt><trkpt lat="43.14109" lon="13.37917"><ele>297.0</ele><time>2026-04-18T08:46:51.259Z</time></trkpt><trkpt lat="43.1409217" lon="13.3792167"><ele>298.0</ele><time>2026-04-18T08:46:52.258Z</time></trkpt><trkpt lat="43.1407517" lon="13.3792583"><ele>299.0</ele><time>2026-04-18T08:46:53.259Z</time></trkpt><trkpt lat="43.1405867" lon="13.379305"><ele>300.0</ele><time>2026-04-18T08:46:54.259Z</time></trkpt><trkpt lat="43.1404267" lon="13.3793333"><ele>301.0</ele><time>2026-04-18T08:46:55.259Z</time></trkpt><trkpt lat="43.1402683" lon="13.3793617"><ele>301.0</ele><time>2026-04-18T08:46:56.259Z</time></trkpt><trkpt lat="43.140105" lon="13.37937"><ele>301.0</ele><time>2026-04-18T08:46:57.259Z</time></trkpt><trkpt lat="43.139935" lon="13.3793567"><ele>301.0</ele><time>2026-04-18T08:46:58.259Z</time></trkpt><trkpt lat="43.1397617" lon="13.3793533"><ele>301.3333333333333</ele><time>2026-04-18T08:46:59.259Z</time></trkpt><trkpt lat="43.1395917" lon="13.379345"><ele>301.6666666666667</ele><time>2026-04-18T08:47:00.259Z</time></trkpt><trkpt lat="43.1394167" lon="13.3793467"><ele>302.0</ele><time>2026-04-18T08:47:01.259Z</time></trkpt><trkpt lat="43.1392417" lon="13.3793433"><ele>302.0</ele><time>2026-04-18T08:47:02.259Z</time></trkpt><trkpt lat="43.1390667" lon="13.37935"><ele>302.0</ele><time>2026-04-18T08:47:03.259Z</time></trkpt><trkpt lat="43.138885" lon="13.3793617"><ele>302.0</ele><time>2026-04-18T08:47:04.259Z</time></trkpt><trkpt lat="43.1387017" lon="13.379385"><ele>302.33333333333337</ele><time>2026-04-18T08:47:05.259Z</time></trkpt><trkpt lat="43.1385133" lon="13.37941"><ele>302.6666666666667</ele><time>2026-04-18T08:47:06.259Z</time></trkpt><trkpt lat="43.1383133" lon="13.3794333"><ele>303.0</ele><time>2026-04-18T08:47:07.259Z</time></trkpt><trkpt lat="43.13811" lon="13.3794633"><ele>304.0</ele><time>2026-04-18T08:47:08.259Z</time></trkpt><trkpt lat="43.1379033" lon="13.3794883"><ele>305.0</ele><time>2026-04-18T08:47:09.259Z</time></trkpt><trkpt lat="43.1376983" lon="13.3795117"><ele>306.0</ele><time>2026-04-18T08:47:10.259Z</time></trkpt><trkpt lat="43.137495" lon="13.3795383"><ele>306.6666666666667</ele><time>2026-04-18T08:47:11.259Z</time></trkpt><trkpt lat="43.137295" lon="13.3795667"><ele>307.33333333333337</ele><time>2026-04-18T08:47:12.259Z</time></trkpt><trkpt lat="43.1370983" lon="13.3795933"><ele>308.0</ele><time>2026-04-18T08:47:13.258Z</time></trkpt><trkpt lat="43.1369" lon="13.3796217"><ele>308.0</ele><time>2026-04-18T08:47:14.259Z</time></trkpt><trkpt lat="43.136705" lon="13.3796433"><ele>308.0</ele><time>2026-04-18T08:47:15.259Z</time></trkpt><trkpt lat="43.1365133" lon="13.37967"><ele>308.0</ele><time>2026-04-18T08:47:16.259Z</time></trkpt><trkpt lat="43.1363267" lon="13.379685"><ele>306.0</ele><time>2026-04-18T08:47:17.259Z</time></trkpt><trkpt lat="43.1361433" lon="13.3797083"><ele>304.0</ele><time>2026-04-18T08:47:18.259Z</time></trkpt><trkpt lat="43.1359567" lon="13.3797317"><ele>302.0</ele><time>2026-04-18T08:47:19.259Z</time></trkpt><trkpt lat="43.1357717" lon="13.3797517"><ele>302.33333333333337</ele><time>2026-04-18T08:47:20.259Z</time></trkpt><trkpt lat="43.1355817" lon="13.379775"><ele>302.6666666666667</ele><time>2026-04-18T08:47:21.259Z</time></trkpt><trkpt lat="43.1353833" lon="13.3798067"><ele>303.0</ele><time>2026-04-18T08:47:22.259Z</time></trkpt><trkpt lat="43.13518" lon="13.3798333"><ele>303.0</ele><time>2026-04-18T08:47:23.259Z</time></trkpt><trkpt lat="43.1349633" lon="13.3798583"><ele>303.0</ele><time>2026-04-18T08:47:24.259Z</time></trkpt><trkpt lat="43.1347417" lon="13.3798883"><ele>303.0</ele><time>2026-04-18T08:47:25.259Z</time></trkpt><trkpt lat="43.134515" lon="13.379915"><ele>303.0</ele><time>2026-04-18T08:47:26.259Z</time></trkpt><trkpt lat="43.1342967" lon="13.3799383"><ele>303.0</ele><time>2026-04-18T08:47:27.259Z</time></trkpt><trkpt lat="43.13407" lon="13.37997"><ele>303.0</ele><time>2026-04-18T08:47:28.259Z</time></trkpt><trkpt lat="43.1338517" lon="13.379995"><ele>302.3333333333333</ele><time>2026-04-18T08:47:29.259Z</time></trkpt><trkpt lat="43.1336333" lon="13.3800267"><ele>301.66666666666663</ele><time>2026-04-18T08:47:30.259Z</time></trkpt><trkpt lat="43.1334217" lon="13.380055"><ele>301.0</ele><time>2026-04-18T08:47:31.259Z</time></trkpt><trkpt lat="43.1332117" lon="13.38009"><ele>301.0</ele><time>2026-04-18T08:47:32.259Z</time></trkpt><trkpt lat="43.1330017" lon="13.380135"><ele>301.0</ele><time>2026-04-18T08:47:33.259Z</time></trkpt><trkpt lat="43.1328017" lon="13.3802033"><ele>301.0</ele><time>2026-04-18T08:47:34.259Z</time></trkpt><trkpt lat="43.1326033" lon="13.3802833"><ele>301.0</ele><time>2026-04-18T08:47:35.259Z</time></trkpt><trkpt lat="43.1324117" lon="13.3803733"><ele>301.0</ele><time>2026-04-18T08:47:36.259Z</time></trkpt><trkpt lat="43.1322317" lon="13.3804733"><ele>301.0</ele><time>2026-04-18T08:47:37.259Z</time></trkpt><trkpt lat="43.13205" lon="13.3805767"><ele>301.0</ele><time>2026-04-18T08:47:38.259Z</time></trkpt><trkpt lat="43.1318733" lon="13.3806767"><ele>301.0</ele><time>2026-04-18T08:47:39.259Z</time></trkpt><trkpt lat="43.1317017" lon="13.3807783"><ele>301.0</ele><time>2026-04-18T08:47:40.259Z</time></trkpt><trkpt lat="43.1315333" lon="13.3808733"><ele>301.0</ele><time>2026-04-18T08:47:41.259Z</time></trkpt><trkpt lat="43.1313667" lon="13.38097"><ele>301.0</ele><time>2026-04-18T08:47:42.259Z</time></trkpt><trkpt lat="43.1311983" lon="13.381065"><ele>301.0</ele><time>2026-04-18T08:47:43.259Z</time></trkpt><trkpt lat="43.1310333" lon="13.381165"><ele>301.0</ele><time>2026-04-18T08:47:44.259Z</time></trkpt><trkpt lat="43.1308733" lon="13.3812633"><ele>301.0</ele><time>2026-04-18T08:47:45.259Z</time></trkpt><trkpt lat="43.1307167" lon="13.3813567"><ele>301.0</ele><time>2026-04-18T08:47:46.259Z</time></trkpt><trkpt lat="43.1305683" lon="13.381445"><ele>301.0</ele><time>2026-04-18T08:47:47.259Z</time></trkpt><trkpt lat="43.1304233" lon="13.38153"><ele>301.0</ele><time>2026-04-18T08:47:48.259Z</time></trkpt><trkpt lat="43.1302883" lon="13.3816067"><ele>301.0</ele><time>2026-04-18T08:47:49.259Z</time></trkpt><trkpt lat="43.1301633" lon="13.3816883"><ele>301.0</ele><time>2026-04-18T08:47:50.259Z</time></trkpt><trkpt lat="43.1300383" lon="13.38176"><ele>301.0</ele><time>2026-04-18T08:47:51.259Z</time></trkpt><trkpt lat="43.1299217" lon="13.38184"><ele>301.0</ele><time>2026-04-18T08:47:52.259Z</time></trkpt><trkpt lat="43.12981" lon="13.3818967"><ele>301.0</ele><time>2026-04-18T08:47:53.259Z</time></trkpt><trkpt lat="43.1296983" lon="13.3819517"><ele>301.0</ele><time>2026-04-18T08:47:54.259Z</time></trkpt><trkpt lat="43.1295883" lon="13.3820017"><ele>302.6</ele><time>2026-04-18T08:47:55.259Z</time></trkpt><trkpt lat="43.1294917" lon="13.382025"><ele>304.20000000000005</ele><time>2026-04-18T08:47:56.259Z</time></trkpt><trkpt lat="43.1294067" lon="13.38204"><ele>305.79999999999995</ele><time>2026-04-18T08:47:57.258Z</time></trkpt><trkpt lat="43.1293133" lon="13.382055"><ele>307.4</ele><time>2026-04-18T08:47:58.259Z</time></trkpt><trkpt lat="43.129225" lon="13.38206"><ele>309.0</ele><time>2026-04-18T08:47:59.259Z</time></trkpt><trkpt lat="43.1291367" lon="13.382045"><ele>309.4</ele><time>2026-04-18T08:48:00.259Z</time></trkpt><trkpt lat="43.1290483" lon="13.3820183"><ele>309.79999999999995</ele><time>2026-04-18T08:48:01.259Z</time></trkpt><trkpt lat="43.1289533" lon="13.3819883"><ele>310.20000000000005</ele><time>2026-04-18T08:48:02.259Z</time></trkpt><trkpt lat="43.128855" lon="13.3819433"><ele>310.6</ele><time>2026-04-18T08:48:03.259Z</time></trkpt><trkpt lat="43.1287567" lon="13.3818867"><ele>311.0</ele><time>2026-04-18T08:48:04.259Z</time></trkpt><trkpt lat="43.12866" lon="13.3818283"><ele>311.0</ele><time>2026-04-18T08:48:05.259Z</time></trkpt><trkpt lat="43.1285533" lon="13.38176"><ele>311.0</ele><time>2026-04-18T08:48:06.259Z</time></trkpt><trkpt lat="43.12845" lon="13.3816917"><ele>311.0</ele><time>2026-04-18T08:48:07.259Z</time></trkpt><trkpt lat="43.128345" lon="13.3816083"><ele>311.0</ele><time>2026-04-18T08:48:08.259Z</time></trkpt><trkpt lat="43.12823" lon="13.3815183"><ele>311.5</ele><time>2026-04-18T08:48:09.259Z</time></trkpt><trkpt lat="43.12811" lon="13.3814233"><ele>312.0</ele><time>2026-04-18T08:48:10.259Z</time></trkpt><trkpt lat="43.1279767" lon="13.3813267"><ele>312.5</ele><time>2026-04-18T08:48:11.259Z</time></trkpt><trkpt lat="43.1278517" lon="13.381225"><ele>313.0</ele><time>2026-04-18T08:48:12.259Z</time></trkpt><trkpt lat="43.127735" lon="13.3811267"><ele>313.75</ele><time>2026-04-18T08:48:13.259Z</time></trkpt><trkpt lat="43.1276183" lon="13.381035"><ele>314.5</ele><time>2026-04-18T08:48:14.259Z</time></trkpt><trkpt lat="43.127505" lon="13.3809417"><ele>315.25</ele><time>2026-04-18T08:48:15.259Z</time></trkpt><trkpt lat="43.127385" lon="13.3808467"><ele>316.0</ele><time>2026-04-18T08:48:16.259Z</time></trkpt><trkpt lat="43.1272567" lon="13.380755"><ele>316.0</ele><time>2026-04-18T08:48:17.259Z</time></trkpt><trkpt lat="43.1271283" lon="13.3806533"><ele>316.0</ele><time>2026-04-18T08:48:18.259Z</time></trkpt><trkpt lat="43.1269967" lon="13.380555"><ele>316.0</ele><time>2026-04-18T08:48:19.259Z</time></trkpt><trkpt lat="43.1268617" lon="13.3804467"><ele>316.0</ele><time>2026-04-18T08:48:20.259Z</time></trkpt><trkpt lat="43.12672" lon="13.3803467"><ele>316.0</ele><time>2026-04-18T08:48:21.259Z</time></trkpt><trkpt lat="43.1265767" lon="13.380235"><ele>316.0</ele><time>2026-04-18T08:48:22.259Z</time></trkpt><trkpt lat="43.1264317" lon="13.3801217"><ele>317.0</ele><time>2026-04-18T08:48:23.259Z</time></trkpt><trkpt lat="43.1262883" lon="13.38001"><ele>318.0</ele><time>2026-04-18T08:48:24.259Z</time></trkpt><trkpt lat="43.1261467" lon="13.3799017"><ele>319.0</ele><time>2026-04-18T08:48:25.259Z</time></trkpt><trkpt lat="43.1260067" lon="13.379795"><ele>319.0</ele><time>2026-04-18T08:48:26.259Z</time></trkpt><trkpt lat="43.1258683" lon="13.3796883"><ele>319.0</ele><time>2026-04-18T08:48:27.259Z</time></trkpt><trkpt lat="43.125735" lon="13.3795833"><ele>319.0</ele><time>2026-04-18T08:48:28.259Z</time></trkpt><trkpt lat="43.125605" lon="13.3794817"><ele>319.5</ele><time>2026-04-18T08:48:29.259Z</time></trkpt><trkpt lat="43.1254733" lon="13.379385"><ele>320.0</ele><time>2026-04-18T08:48:30.259Z</time></trkpt><trkpt lat="43.12535" lon="13.3792867"><ele>320.5</ele><time>2026-04-18T08:48:31.259Z</time></trkpt><trkpt lat="43.125235" lon="13.3791933"><ele>321.0</ele><time>2026-04-18T08:48:32.259Z</time></trkpt><trkpt lat="43.1251217" lon="13.3791083"><ele>321.0</ele><time>2026-04-18T08:48:33.259Z</time></trkpt><trkpt lat="43.1250117" lon="13.3790283"><ele>321.0</ele><time>2026-04-18T08:48:34.259Z</time></trkpt><trkpt lat="43.1249133" lon="13.37895"><ele>321.0</ele><time>2026-04-18T08:48:35.259Z</time></trkpt><trkpt lat="43.12481" lon="13.3788717"><ele>321.0</ele><time>2026-04-18T08:48:36.259Z</time></trkpt><trkpt lat="43.1247167" lon="13.3788"><ele>321.20000000000005</ele><time>2026-04-18T08:48:37.259Z</time></trkpt><trkpt lat="43.1246383" lon="13.3787383"><ele>321.40000000000003</ele><time>2026-04-18T08:48:38.259Z</time></trkpt><trkpt lat="43.12458" lon="13.3786817"><ele>321.6</ele><time>2026-04-18T08:48:39.259Z</time></trkpt><trkpt lat="43.1245183" lon="13.3785367"><ele>321.8</ele><time>2026-04-18T08:48:41.259Z</time></trkpt><trkpt lat="43.124515" lon="13.3784017"><ele>322.0</ele><time>2026-04-18T08:48:43.259Z</time></trkpt><trkpt lat="43.1245117" lon="13.3782917"><ele>322.0</ele><time>2026-04-18T08:48:45.259Z</time></trkpt><trkpt lat="43.1245033" lon="13.3781183"><ele>322.0</ele><time>2026-04-18T08:52:31.259Z</time></trkpt><trkpt lat="43.12446" lon="13.3779433"><ele>322.0</ele><time>2026-04-18T08:52:33.259Z</time></trkpt><trkpt lat="43.1244367" lon="13.3778183"><ele>322.0</ele><time>2026-04-18T08:52:34.259Z</time></trkpt><trkpt lat="43.124425" lon="13.3776633"><ele>322.75</ele><time>2026-04-18T08:52:35.259Z</time></trkpt><trkpt lat="43.12441" lon="13.3774633"><ele>323.5</ele><time>2026-04-18T08:52:36.259Z</time></trkpt><trkpt lat="43.124395" lon="13.37725"><ele>324.25</ele><time>2026-04-18T08:52:37.258Z</time></trkpt><trkpt lat="43.1243833" lon="13.3770583"><ele>325.0</ele><time>2026-04-18T08:52:38.259Z</time></trkpt><trkpt lat="43.124375" lon="13.3768867"><ele>325.5</ele><time>2026-04-18T08:52:39.259Z</time></trkpt><trkpt lat="43.1243633" lon="13.3767267"><ele>326.0</ele><time>2026-04-18T08:52:40.259Z</time></trkpt><trkpt lat="43.1243317" lon="13.37655"><ele>326.5</ele><time>2026-04-18T08:52:41.259Z</time></trkpt><trkpt lat="43.1243" lon="13.376385"><ele>327.0</ele><time>2026-04-18T08:52:42.259Z</time></trkpt><trkpt lat="43.1242567" lon="13.376245"><ele>327.75</ele><time>2026-04-18T08:52:43.259Z</time></trkpt><trkpt lat="43.1241967" lon="13.3761183"><ele>328.5</ele><time>2026-04-18T08:52:44.259Z</time></trkpt><trkpt lat="43.124115" lon="13.3760133"><ele>329.25</ele><time>2026-04-18T08:52:45.259Z</time></trkpt><trkpt lat="43.1240117" lon="13.375905"><ele>330.0</ele><time>2026-04-18T08:52:46.259Z</time></trkpt><trkpt lat="43.123895" lon="13.3757917"><ele>332.6666666666667</ele><time>2026-04-18T08:52:47.259Z</time></trkpt><trkpt lat="43.1237717" lon="13.375675"><ele>335.33333333333337</ele><time>2026-04-18T08:52:48.259Z</time></trkpt><trkpt lat="43.12365" lon="13.3755533"><ele>338.0</ele><time>2026-04-18T08:52:49.259Z</time></trkpt><trkpt lat="43.1235283" lon="13.3754317"><ele>339.5</ele><time>2026-04-18T08:52:50.259Z</time></trkpt><trkpt lat="43.1234183" lon="13.37533"><ele>341.0</ele><time>2026-04-18T08:52:51.259Z</time></trkpt><trkpt lat="43.1233117" lon="13.375225"><ele>342.5</ele><time>2026-04-18T08:52:52.259Z</time></trkpt><trkpt lat="43.1232117" lon="13.3751217"><ele>344.0</ele><time>2026-04-18T08:52:53.259Z</time></trkpt><trkpt lat="43.123115" lon="13.3750083"><ele>344.0</ele><time>2026-04-18T08:52:54.259Z</time></trkpt><trkpt lat="43.1230283" lon="13.37488"><ele>344.0</ele><time>2026-04-18T08:52:55.259Z</time></trkpt><trkpt lat="43.12295" lon="13.3747283"><ele>344.0</ele><time>2026-04-18T08:52:56.259Z</time></trkpt><trkpt lat="43.122865" lon="13.3745617"><ele>344.0</ele><time>2026-04-18T08:52:57.259Z</time></trkpt><trkpt lat="43.12279" lon="13.37438"><ele>347.6666666666667</ele><time>2026-04-18T08:52:58.259Z</time></trkpt><trkpt lat="43.1227117" lon="13.3741917"><ele>351.3333333333333</ele><time>2026-04-18T08:52:59.259Z</time></trkpt><trkpt lat="43.1226333" lon="13.3740083"><ele>355.0</ele><time>2026-04-18T08:53:00.259Z</time></trkpt><trkpt lat="43.1225483" lon="13.3738283"><ele>357.0</ele><time>2026-04-18T08:53:01.259Z</time></trkpt><trkpt lat="43.1224567" lon="13.3736467"><ele>359.0</ele><time>2026-04-18T08:53:02.259Z</time></trkpt><trkpt lat="43.122355" lon="13.37347"><ele>361.0</ele><time>2026-04-18T08:53:03.259Z</time></trkpt><trkpt lat="43.12224" lon="13.373305"><ele>361.66666666666663</ele><time>2026-04-18T08:53:04.259Z</time></trkpt><trkpt lat="43.1221317" lon="13.3731433"><ele>362.3333333333333</ele><time>2026-04-18T08:53:05.259Z</time></trkpt><trkpt lat="43.1220267" lon="13.3729917"><ele>363.0</ele><time>2026-04-18T08:53:06.259Z</time></trkpt><trkpt lat="43.1219267" lon="13.372845"><ele>365.25</ele><time>2026-04-18T08:53:07.259Z</time></trkpt><trkpt lat="43.12183" lon="13.3726933"><ele>367.5</ele><time>2026-04-18T08:53:08.259Z</time></trkpt><trkpt lat="43.1217333" lon="13.3725567"><ele>369.75</ele><time>2026-04-18T08:53:09.259Z</time></trkpt><trkpt lat="43.1216383" lon="13.3724217"><ele>372.0</ele><time>2026-04-18T08:53:10.259Z</time></trkpt><trkpt lat="43.12154" lon="13.3722867"><ele>376.0</ele><time>2026-04-18T08:53:11.259Z</time></trkpt><trkpt lat="43.12144" lon="13.3721533"><ele>380.0</ele><time>2026-04-18T08:53:12.259Z</time></trkpt><trkpt lat="43.1213367" lon="13.3720267"><ele>384.0</ele><time>2026-04-18T08:53:13.259Z</time></trkpt><trkpt lat="43.1212333" lon="13.3718933"><ele>388.0</ele><time>2026-04-18T08:53:14.259Z</time></trkpt><trkpt lat="43.1211267" lon="13.371755"><ele>388.0</ele><time>2026-04-18T08:53:15.259Z</time></trkpt><trkpt lat="43.1210233" lon="13.3716067"><ele>388.0</ele><time>2026-04-18T08:53:16.259Z</time></trkpt><trkpt lat="43.1209217" lon="13.3714667"><ele>388.0</ele><time>2026-04-18T08:53:17.259Z</time></trkpt><trkpt lat="43.1208133" lon="13.3713333"><ele>388.0</ele><time>2026-04-18T08:53:18.259Z</time></trkpt><trkpt lat="43.12071" lon="13.3711983"><ele>389.75</ele><time>2026-04-18T08:53:19.259Z</time></trkpt><trkpt lat="43.1206183" lon="13.3710517"><ele>391.5</ele><time>2026-04-18T08:53:20.259Z</time></trkpt><trkpt lat="43.12054" lon="13.37089"><ele>393.25</ele><time>2026-04-18T08:53:21.259Z</time></trkpt><trkpt lat="43.120475" lon="13.3707283"><ele>395.0</ele><time>2026-04-18T08:53:22.259Z</time></trkpt><trkpt lat="43.120425" lon="13.3705667"><ele>398.25</ele><time>2026-04-18T08:53:23.259Z</time></trkpt><trkpt lat="43.1203867" lon="13.3704033"><ele>401.5</ele><time>2026-04-18T08:53:24.259Z</time></trkpt><trkpt lat="43.1203683" lon="13.3702483"><ele>404.75</ele><time>2026-04-18T08:53:25.259Z</time></trkpt><trkpt lat="43.1203567" lon="13.3700817"><ele>408.0</ele><time>2026-04-18T08:53:26.259Z</time></trkpt><trkpt lat="43.1203467" lon="13.3699167"><ele>408.0</ele><time>2026-04-18T08:53:27.259Z</time></trkpt><trkpt lat="43.1203433" lon="13.3697467"><ele>408.0</ele><time>2026-04-18T08:53:28.259Z</time></trkpt><trkpt lat="43.1203383" lon="13.36957"><ele>408.0</ele><time>2026-04-18T08:53:29.258Z</time></trkpt><trkpt lat="43.1203317" lon="13.369395"><ele>408.0</ele><time>2026-04-18T08:53:30.259Z</time></trkpt><trkpt lat="43.12032" lon="13.369215"><ele>409.75</ele><time>2026-04-18T08:53:31.259Z</time></trkpt><trkpt lat="43.1203117" lon="13.36903"><ele>411.5</ele><time>2026-04-18T08:53:32.259Z</time></trkpt><trkpt lat="43.1202967" lon="13.3688317"><ele>413.25</ele><time>2026-04-18T08:53:33.259Z</time></trkpt><trkpt lat="43.1202833" lon="13.3686267"><ele>415.0</ele><time>2026-04-18T08:53:34.259Z</time></trkpt><trkpt lat="43.1202733" lon="13.3684133"><ele>416.6666666666667</ele><time>2026-04-18T08:53:35.259Z</time></trkpt><trkpt lat="43.12026" lon="13.3682033"><ele>418.33333333333337</ele><time>2026-04-18T08:53:36.259Z</time></trkpt><trkpt lat="43.1202483" lon="13.367995"><ele>420.0</ele><time>2026-04-18T08:53:37.259Z</time></trkpt><trkpt lat="43.120235" lon="13.3677867"><ele>421.75</ele><time>2026-04-18T08:53:38.259Z</time></trkpt><trkpt lat="43.1202267" lon="13.367585"><ele>423.5</ele><time>2026-04-18T08:53:39.259Z</time></trkpt><trkpt lat="43.1202167" lon="13.3673817"><ele>425.25</ele><time>2026-04-18T08:53:40.259Z</time></trkpt><trkpt lat="43.1202083" lon="13.3671917"><ele>427.0</ele><time>2026-04-18T08:53:41.259Z</time></trkpt><trkpt lat="43.120205" lon="13.3669967"><ele>429.75</ele><time>2026-04-18T08:53:42.258Z</time></trkpt><trkpt lat="43.1201967" lon="13.3668133"><ele>432.5</ele><time>2026-04-18T08:53:43.259Z</time></trkpt><trkpt lat="43.12019" lon="13.3666233"><ele>435.25</ele><time>2026-04-18T08:53:44.259Z</time></trkpt><trkpt lat="43.1201883" lon="13.3664383"><ele>438.0</ele><time>2026-04-18T08:53:45.259Z</time></trkpt><trkpt lat="43.120185" lon="13.3662583"><ele>440.75</ele><time>2026-04-18T08:53:46.259Z</time></trkpt><trkpt lat="43.1201733" lon="13.366075"><ele>443.5</ele><time>2026-04-18T08:53:47.259Z</time></trkpt><trkpt lat="43.1201517" lon="13.3658867"><ele>446.25</ele><time>2026-04-18T08:53:48.259Z</time></trkpt><trkpt lat="43.1201217" lon="13.3657"><ele>449.0</ele><time>2026-04-18T08:53:49.259Z</time></trkpt><trkpt lat="43.1200867" lon="13.3655117"><ele>451.0</ele><time>2026-04-18T08:53:50.259Z</time></trkpt><trkpt lat="43.12005" lon="13.365315"><ele>453.0</ele><time>2026-04-18T08:53:51.259Z</time></trkpt><trkpt lat="43.1200167" lon="13.3651133"><ele>455.0</ele><time>2026-04-18T08:53:52.259Z</time></trkpt><trkpt lat="43.11999" lon="13.3649317"><ele>457.0</ele><time>2026-04-18T08:53:53.259Z</time></trkpt><trkpt lat="43.1199583" lon="13.3647583"><ele>459.5</ele><time>2026-04-18T08:53:54.259Z</time></trkpt><trkpt lat="43.1199322" lon="13.3645935"><ele>462.0</ele><time>2026-04-18T08:53:55.259Z</time></trkpt><trkpt lat="43.1199087" lon="13.3644261"><ele>464.5</ele><time>2026-04-18T08:53:56.259Z</time></trkpt><trkpt lat="43.1198805" lon="13.3642632"><ele>467.0</ele><time>2026-04-18T08:53:57.259Z</time></trkpt><trkpt lat="43.1198614" lon="13.3640995"><ele>467.0</ele><time>2026-04-18T08:53:58.259Z</time></trkpt><trkpt lat="43.119844" lon="13.3639428"><ele>467.00000000000006</ele><time>2026-04-18T08:53:59.259Z</time></trkpt><trkpt lat="43.119829" lon="13.3637889"><ele>467.00000000000006</ele><time>2026-04-18T08:54:00.259Z</time></trkpt><trkpt lat="43.1198151" lon="13.3636475"><ele>467.0</ele><time>2026-04-18T08:54:01.259Z</time></trkpt><trkpt lat="43.1197986" lon="13.3635157"><ele>467.0</ele><time>2026-04-18T08:54:02.259Z</time></trkpt><trkpt lat="43.1197791" lon="13.3633754"><ele>469.75</ele><time>2026-04-18T08:54:03.259Z</time></trkpt><trkpt lat="43.1197595" lon="13.3632283"><ele>472.5</ele><time>2026-04-18T08:54:04.259Z</time></trkpt><trkpt lat="43.1197381" lon="13.3630752"><ele>475.25</ele><time>2026-04-18T08:54:05.259Z</time></trkpt><trkpt lat="43.1197106" lon="13.3629185"><ele>478.0</ele><time>2026-04-18T08:54:06.259Z</time></trkpt><trkpt lat="43.119679" lon="13.3627726"><ele>479.59999999999997</ele><time>2026-04-18T08:54:07.258Z</time></trkpt><trkpt lat="43.1196422" lon="13.3626237"><ele>481.19999999999993</ele><time>2026-04-18T08:54:08.259Z</time></trkpt><trkpt lat="43.1196069" lon="13.3624873"><ele>482.8</ele><time>2026-04-18T08:54:09.259Z</time></trkpt><trkpt lat="43.1195725" lon="13.3623631"><ele>484.4</ele><time>2026-04-18T08:54:10.259Z</time></trkpt><trkpt lat="43.1195392" lon="13.362253"><ele>486.0</ele><time>2026-04-18T08:54:11.259Z</time></trkpt><trkpt lat="43.1195017" lon="13.3621488"><ele>487.6</ele><time>2026-04-18T08:54:12.259Z</time></trkpt><trkpt lat="43.1194616" lon="13.3620409"><ele>489.20000000000005</ele><time>2026-04-18T08:54:13.259Z</time></trkpt><trkpt lat="43.1194226" lon="13.3619244"><ele>490.79999999999995</ele><time>2026-04-18T08:54:14.259Z</time></trkpt><trkpt lat="43.1193761" lon="13.361792"><ele>492.4</ele><time>2026-04-18T08:54:15.259Z</time></trkpt><trkpt lat="43.1193239" lon="13.361647"><ele>494.0</ele><time>2026-04-18T08:54:16.258Z</time></trkpt><trkpt lat="43.1192672" lon="13.3614967"><ele>494.75</ele><time>2026-04-18T08:54:17.259Z</time></trkpt><trkpt lat="43.1192119" lon="13.3613394"><ele>495.5</ele><time>2026-04-18T08:54:18.259Z</time></trkpt><trkpt lat="43.1191567" lon="13.3611774"><ele>496.25</ele><time>2026-04-18T08:54:19.259Z</time></trkpt><trkpt lat="43.1190984" lon="13.3610225"><ele>497.0</ele><time>2026-04-18T08:54:20.259Z</time></trkpt><trkpt lat="43.1190386" lon="13.3608747"><ele>497.0</ele><time>2026-04-18T08:54:21.259Z</time></trkpt><trkpt lat="43.1189857" lon="13.3607344"><ele>497.00000000000006</ele><time>2026-04-18T08:54:22.259Z</time></trkpt><trkpt lat="43.118936" lon="13.3606007"><ele>497.00000000000006</ele><time>2026-04-18T08:54:23.259Z</time></trkpt><trkpt lat="43.118884" lon="13.3604723"><ele>497.0</ele><time>2026-04-18T08:54:24.259Z</time></trkpt><trkpt lat="43.1188329" lon="13.3603501"><ele>497.0</ele><time>2026-04-18T08:54:25.259Z</time></trkpt><trkpt lat="43.1187821" lon="13.360214"><ele>497.5</ele><time>2026-04-18T08:54:26.258Z</time></trkpt><trkpt lat="43.11873" lon="13.3600667"><ele>498.0</ele><time>2026-04-18T08:54:27.258Z</time></trkpt><trkpt lat="43.1186804" lon="13.3599133"><ele>498.5</ele><time>2026-04-18T08:54:28.258Z</time></trkpt><trkpt lat="43.1186337" lon="13.3597594"><ele>499.0</ele><time>2026-04-18T08:54:29.259Z</time></trkpt><trkpt lat="43.1185918" lon="13.3596099"><ele>499.0</ele><time>2026-04-18T08:54:30.259Z</time></trkpt><trkpt lat="43.1185589" lon="13.3594636"><ele>499.0</ele><time>2026-04-18T08:54:31.259Z</time></trkpt><trkpt lat="43.1185367" lon="13.3593102"><ele>499.0</ele><time>2026-04-18T08:54:32.259Z</time></trkpt><trkpt lat="43.1185277" lon="13.3591467"><ele>499.0</ele><time>2026-04-18T08:54:33.259Z</time></trkpt><trkpt lat="43.1185345" lon="13.3589802"><ele>499.75</ele><time>2026-04-18T08:54:34.259Z</time></trkpt><trkpt lat="43.1185519" lon="13.3588085"><ele>500.5</ele><time>2026-04-18T08:54:35.259Z</time></trkpt><trkpt lat="43.1185572" lon="13.3586277"><ele>501.25</ele><time>2026-04-18T08:54:36.259Z</time></trkpt><trkpt lat="43.1185427" lon="13.3584217"><ele>502.0</ele><time>2026-04-18T08:54:37.259Z</time></trkpt><trkpt lat="43.1185375" lon="13.3582173"><ele>503.5</ele><time>2026-04-18T08:54:38.259Z</time></trkpt><trkpt lat="43.1185535" lon="13.3580307"><ele>505.0</ele><time>2026-04-18T08:54:39.259Z</time></trkpt><trkpt lat="43.1185791" lon="13.3578672"><ele>506.5</ele><time>2026-04-18T08:54:40.259Z</time></trkpt><trkpt lat="43.1185846" lon="13.3577074"><ele>508.0</ele><time>2026-04-18T08:54:41.259Z</time></trkpt><trkpt lat="43.1185646" lon="13.3575472"><ele>508.0</ele><time>2026-04-18T08:54:42.259Z</time></trkpt><trkpt lat="43.1185291" lon="13.3573844"><ele>508.0</ele><time>2026-04-18T08:54:43.259Z</time></trkpt><trkpt lat="43.1184874" lon="13.3572135"><ele>508.0</ele><time>2026-04-18T08:54:44.259Z</time></trkpt><trkpt lat="43.1184431" lon="13.3570458"><ele>508.0</ele><time>2026-04-18T08:54:45.259Z</time></trkpt><trkpt lat="43.1183983" lon="13.3568913"><ele>509.59999999999997</ele><time>2026-04-18T08:54:46.259Z</time></trkpt><trkpt lat="43.1183553" lon="13.3567542"><ele>511.19999999999993</ele><time>2026-04-18T08:54:47.259Z</time></trkpt><trkpt lat="43.1183189" lon="13.3566274"><ele>512.8</ele><time>2026-04-18T08:54:48.259Z</time></trkpt><trkpt lat="43.1182895" lon="13.3565005"><ele>514.4</ele><time>2026-04-18T08:54:49.259Z</time></trkpt><trkpt lat="43.1182686" lon="13.3563635"><ele>516.0</ele><time>2026-04-18T08:54:50.259Z</time></trkpt><trkpt lat="43.1182544" lon="13.3562198"><ele>516.0</ele><time>2026-04-18T08:54:51.259Z</time></trkpt><trkpt lat="43.118257" lon="13.3560817"><ele>516.0</ele><time>2026-04-18T08:54:52.258Z</time></trkpt><trkpt lat="43.1182677" lon="13.3559574"><ele>516.0</ele><time>2026-04-18T08:54:53.259Z</time></trkpt><trkpt lat="43.1182633" lon="13.3558434"><ele>516.0</ele><time>2026-04-18T08:54:54.259Z</time></trkpt><trkpt lat="43.1182462" lon="13.3557394"><ele>516.0</ele><time>2026-04-18T08:54:55.259Z</time></trkpt><trkpt lat="43.1182296" lon="13.3556503"><ele>516.0</ele><time>2026-04-18T08:54:56.259Z</time></trkpt><trkpt lat="43.118212" lon="13.3555251"><ele>514.3333333333334</ele><time>2026-04-18T08:54:58.259Z</time></trkpt><trkpt lat="43.118205" lon="13.35543"><ele>512.6666666666666</ele><time>2026-04-18T08:55:00.259Z</time></trkpt><trkpt lat="43.11819" lon="13.3553233"><ele>511.0</ele><time>2026-04-18T08:55:03.259Z</time></trkpt><trkpt lat="43.1182083" lon="13.35524"><ele>509.3333333333333</ele><time>2026-04-18T08:55:06.259Z</time></trkpt><trkpt lat="43.11821" lon="13.3551483"><ele>507.66666666666663</ele><time>2026-04-18T08:55:11.258Z</time></trkpt><trkpt lat="43.11816" lon="13.3550133"><ele>506.0</ele><time>2026-04-18T08:55:13.259Z</time></trkpt><trkpt lat="43.1181" lon="13.3549183"><ele>506.0</ele><time>2026-04-18T08:55:14.259Z</time></trkpt><trkpt lat="43.11801" lon="13.354785"><ele>506.0</ele><time>2026-04-18T08:55:15.259Z</time></trkpt><trkpt lat="43.1179133" lon="13.3546517"><ele>506.0</ele><time>2026-04-18T08:55:16.258Z</time></trkpt><trkpt lat="43.117815" lon="13.3545133"><ele>506.0</ele><time>2026-04-18T08:55:17.259Z</time></trkpt><trkpt lat="43.1177067" lon="13.3543583"><ele>504.66666666666663</ele><time>2026-04-18T08:55:18.259Z</time></trkpt><trkpt lat="43.117595" lon="13.3541967"><ele>503.33333333333337</ele><time>2026-04-18T08:55:19.259Z</time></trkpt><trkpt lat="43.1174767" lon="13.3540367"><ele>502.0</ele><time>2026-04-18T08:55:20.259Z</time></trkpt><trkpt lat="43.1173617" lon="13.3538817"><ele>504.75</ele><time>2026-04-18T08:55:21.259Z</time></trkpt><trkpt lat="43.11725" lon="13.35374"><ele>507.5</ele><time>2026-04-18T08:55:22.259Z</time></trkpt><trkpt lat="43.1171483" lon="13.353615"><ele>510.25</ele><time>2026-04-18T08:55:23.259Z</time></trkpt><trkpt lat="43.1170567" lon="13.35351"><ele>513.0</ele><time>2026-04-18T08:55:24.259Z</time></trkpt><trkpt lat="43.1169717" lon="13.3534017"><ele>513.0</ele><time>2026-04-18T08:55:25.259Z</time></trkpt><trkpt lat="43.11689" lon="13.35329"><ele>513.0</ele><time>2026-04-18T08:55:26.259Z</time></trkpt><trkpt lat="43.1168017" lon="13.3531633"><ele>513.0</ele><time>2026-04-18T08:55:27.259Z</time></trkpt><trkpt lat="43.1167017" lon="13.353025"><ele>513.0</ele><time>2026-04-18T08:55:28.259Z</time></trkpt><trkpt lat="43.1166" lon="13.3528833"><ele>511.66666666666663</ele><time>2026-04-18T08:55:29.259Z</time></trkpt><trkpt lat="43.11649" lon="13.3527267"><ele>510.3333333333333</ele><time>2026-04-18T08:55:30.259Z</time></trkpt><trkpt lat="43.116375" lon="13.35258"><ele>509.0</ele><time>2026-04-18T08:55:31.259Z</time></trkpt><trkpt lat="43.1162517" lon="13.352435"><ele>509.0</ele><time>2026-04-18T08:55:32.259Z</time></trkpt><trkpt lat="43.1161233" lon="13.3522883"><ele>509.0</ele><time>2026-04-18T08:55:33.259Z</time></trkpt><trkpt lat="43.1160017" lon="13.3521317"><ele>509.0</ele><time>2026-04-18T08:55:34.259Z</time></trkpt><trkpt lat="43.1158817" lon="13.3519817"><ele>508.66666666666663</ele><time>2026-04-18T08:55:35.259Z</time></trkpt><trkpt lat="43.1157733" lon="13.3518267"><ele>508.33333333333337</ele><time>2026-04-18T08:55:36.259Z</time></trkpt><trkpt lat="43.1156683" lon="13.3516817"><ele>508.0</ele><time>2026-04-18T08:55:37.259Z</time></trkpt><trkpt lat="43.1155717" lon="13.3515233"><ele>508.25</ele><time>2026-04-18T08:55:38.259Z</time></trkpt><trkpt lat="43.115475" lon="13.3513717"><ele>508.5</ele><time>2026-04-18T08:55:39.259Z</time></trkpt><trkpt lat="43.1153733" lon="13.3512183"><ele>508.75</ele><time>2026-04-18T08:55:40.259Z</time></trkpt><trkpt lat="43.1152933" lon="13.35109"><ele>509.0</ele><time>2026-04-18T08:55:41.259Z</time></trkpt><trkpt lat="43.1152183" lon="13.35098"><ele>509.0</ele><time>2026-04-18T08:55:42.259Z</time></trkpt><trkpt lat="43.115145" lon="13.3509067"><ele>509.0</ele><time>2026-04-18T08:55:43.259Z</time></trkpt><trkpt lat="43.1150583" lon="13.3508767"><ele>509.0</ele><time>2026-04-18T08:55:44.259Z</time></trkpt><trkpt lat="43.11496" lon="13.350885"><ele>509.0</ele><time>2026-04-18T08:55:45.259Z</time></trkpt><trkpt lat="43.1148533" lon="13.3509267"><ele>509.0</ele><time>2026-04-18T08:55:46.259Z</time></trkpt><trkpt lat="43.1147317" lon="13.3509783"><ele>508.0</ele><time>2026-04-18T08:55:47.259Z</time></trkpt><trkpt lat="43.114595" lon="13.3510417"><ele>507.0</ele><time>2026-04-18T08:55:48.259Z</time></trkpt><trkpt lat="43.1144617" lon="13.3511067"><ele>506.0</ele><time>2026-04-18T08:55:49.259Z</time></trkpt><trkpt lat="43.114335" lon="13.3511767"><ele>505.0</ele><time>2026-04-18T08:55:50.259Z</time></trkpt><trkpt lat="43.11421" lon="13.351225"><ele>505.0</ele><time>2026-04-18T08:55:51.259Z</time></trkpt><trkpt lat="43.11409" lon="13.3512433"><ele>505.0</ele><time>2026-04-18T08:55:52.259Z</time></trkpt><trkpt lat="43.1139833" lon="13.3512117"><ele>505.0</ele><time>2026-04-18T08:55:53.259Z</time></trkpt><trkpt lat="43.1138933" lon="13.351115"><ele>505.0</ele><time>2026-04-18T08:55:54.259Z</time></trkpt><trkpt lat="43.113805" lon="13.350985"><ele>504.0</ele><time>2026-04-18T08:55:55.259Z</time></trkpt><trkpt lat="43.1136983" lon="13.3508383"><ele>503.0</ele><time>2026-04-18T08:55:56.259Z</time></trkpt><trkpt lat="43.11358" lon="13.3506967"><ele>502.0</ele><time>2026-04-18T08:55:57.259Z</time></trkpt><trkpt lat="43.1134667" lon="13.3505783"><ele>502.0</ele><time>2026-04-18T08:55:58.259Z</time></trkpt><trkpt lat="43.113365" lon="13.350475"><ele>502.0</ele><time>2026-04-18T08:55:59.259Z</time></trkpt><trkpt lat="43.1132683" lon="13.3503833"><ele>502.0</ele><time>2026-04-18T08:56:00.259Z</time></trkpt><trkpt lat="43.1131733" lon="13.350305"><ele>502.0</ele><time>2026-04-18T08:56:01.259Z</time></trkpt><trkpt lat="43.1130783" lon="13.3502217"><ele>502.0</ele><time>2026-04-18T08:56:02.259Z</time></trkpt><trkpt lat="43.11298" lon="13.35014"><ele>502.00000000000006</ele><time>2026-04-18T08:56:03.259Z</time></trkpt><trkpt lat="43.1128883" lon="13.3500617"><ele>502.00000000000006</ele><time>2026-04-18T08:56:04.259Z</time></trkpt><trkpt lat="43.1128" lon="13.34998"><ele>502.0</ele><time>2026-04-18T08:56:05.258Z</time></trkpt><trkpt lat="43.11272" lon="13.349905"><ele>502.0</ele><time>2026-04-18T08:56:06.259Z</time></trkpt><trkpt lat="43.112645" lon="13.3498183"><ele>502.5</ele><time>2026-04-18T08:56:07.259Z</time></trkpt><trkpt lat="43.1125833" lon="13.3497017"><ele>503.0</ele><time>2026-04-18T08:56:08.259Z</time></trkpt><trkpt lat="43.1125317" lon="13.34955"><ele>503.5</ele><time>2026-04-18T08:56:09.259Z</time></trkpt><trkpt lat="43.112485" lon="13.34937"><ele>504.0</ele><time>2026-04-18T08:56:10.259Z</time></trkpt><trkpt lat="43.1124333" lon="13.3491883"><ele>500.5</ele><time>2026-04-18T08:56:11.259Z</time></trkpt><trkpt lat="43.11239" lon="13.3490117"><ele>497.0</ele><time>2026-04-18T08:56:12.259Z</time></trkpt><trkpt lat="43.112335" lon="13.348835"><ele>493.5</ele><time>2026-04-18T08:56:13.259Z</time></trkpt><trkpt lat="43.1122767" lon="13.3486533"><ele>490.0</ele><time>2026-04-18T08:56:14.259Z</time></trkpt><trkpt lat="43.1122333" lon="13.3484917"><ele>490.0</ele><time>2026-04-18T08:56:15.259Z</time></trkpt><trkpt lat="43.1121783" lon="13.348335"><ele>490.0</ele><time>2026-04-18T08:56:16.259Z</time></trkpt><trkpt lat="43.1121367" lon="13.348195"><ele>490.0</ele><time>2026-04-18T08:56:17.259Z</time></trkpt><trkpt lat="43.1121067" lon="13.3480683"><ele>490.0</ele><time>2026-04-18T08:56:18.259Z</time></trkpt><trkpt lat="43.112095" lon="13.347945"><ele>490.0</ele><time>2026-04-18T08:56:19.259Z</time></trkpt><trkpt lat="43.112105" lon="13.3478267"><ele>489.4</ele><time>2026-04-18T08:56:20.259Z</time></trkpt><trkpt lat="43.1121267" lon="13.3477"><ele>488.8</ele><time>2026-04-18T08:56:21.259Z</time></trkpt><trkpt lat="43.1121683" lon="13.3475783"><ele>488.20000000000005</ele><time>2026-04-18T08:56:22.259Z</time></trkpt><trkpt lat="43.1122267" lon="13.34745"><ele>487.6</ele><time>2026-04-18T08:56:23.259Z</time></trkpt><trkpt lat="43.112295" lon="13.3473183"><ele>487.0</ele><time>2026-04-18T08:56:24.259Z</time></trkpt><trkpt lat="43.1123817" lon="13.3471933"><ele>491.75</ele><time>2026-04-18T08:56:25.259Z</time></trkpt><trkpt lat="43.11248" lon="13.3470717"><ele>496.5</ele><time>2026-04-18T08:56:26.259Z</time></trkpt><trkpt lat="43.1125767" lon="13.3469567"><ele>501.25</ele><time>2026-04-18T08:56:27.259Z</time></trkpt><trkpt lat="43.1126617" lon="13.346845"><ele>506.0</ele><time>2026-04-18T08:56:28.259Z</time></trkpt><trkpt lat="43.1127417" lon="13.34671"><ele>506.0</ele><time>2026-04-18T08:56:29.259Z</time></trkpt><trkpt lat="43.1128167" lon="13.3465567"><ele>506.0</ele><time>2026-04-18T08:56:30.259Z</time></trkpt><trkpt lat="43.11288" lon="13.3463983"><ele>506.0</ele><time>2026-04-18T08:56:31.259Z</time></trkpt><trkpt lat="43.11294" lon="13.3462533"><ele>506.0</ele><time>2026-04-18T08:56:32.259Z</time></trkpt><trkpt lat="43.1129917" lon="13.3461017"><ele>503.75</ele><time>2026-04-18T08:56:33.259Z</time></trkpt><trkpt lat="43.1130333" lon="13.34595"><ele>501.5</ele><time>2026-04-18T08:56:34.259Z</time></trkpt><trkpt lat="43.1130733" lon="13.345795"><ele>499.25</ele><time>2026-04-18T08:56:35.259Z</time></trkpt><trkpt lat="43.1131083" lon="13.345645"><ele>497.0</ele><time>2026-04-18T08:56:36.259Z</time></trkpt><trkpt lat="43.1131283" lon="13.34548"><ele>496.0</ele><time>2026-04-18T08:56:37.259Z</time></trkpt><trkpt lat="43.113135" lon="13.345315"><ele>495.0</ele><time>2026-04-18T08:56:38.259Z</time></trkpt><trkpt lat="43.1131133" lon="13.345155"><ele>494.0</ele><time>2026-04-18T08:56:39.259Z</time></trkpt><trkpt lat="43.1130667" lon="13.345005"><ele>493.0</ele><time>2026-04-18T08:56:40.259Z</time></trkpt><trkpt lat="43.11301" lon="13.344865"><ele>493.00000000000006</ele><time>2026-04-18T08:56:41.259Z</time></trkpt><trkpt lat="43.1129533" lon="13.344735"><ele>493.0</ele><time>2026-04-18T08:56:42.259Z</time></trkpt><trkpt lat="43.112905" lon="13.3446217"><ele>493.0</ele><time>2026-04-18T08:56:43.259Z</time></trkpt><trkpt lat="43.112865" lon="13.34452"><ele>493.0</ele><time>2026-04-18T08:56:44.259Z</time></trkpt><trkpt lat="43.1128333" lon="13.3444217"><ele>493.00000000000006</ele><time>2026-04-18T08:56:45.259Z</time></trkpt><trkpt lat="43.1128033" lon="13.344335"><ele>493.0</ele><time>2026-04-18T08:56:46.259Z</time></trkpt><trkpt lat="43.112755" lon="13.3442283"><ele>494.0</ele><time>2026-04-18T08:56:48.259Z</time></trkpt><trkpt lat="43.1126817" lon="13.3441217"><ele>494.99999999999994</ele><time>2026-04-18T08:57:02.259Z</time></trkpt><trkpt lat="43.1126" lon="13.3439783"><ele>495.99999999999994</ele><time>2026-04-18T08:57:04.259Z</time></trkpt><trkpt lat="43.112555" lon="13.3438783"><ele>497.0</ele><time>2026-04-18T08:57:05.259Z</time></trkpt><trkpt lat="43.1125083" lon="13.34377"><ele>498.0</ele><time>2026-04-18T08:57:06.259Z</time></trkpt><trkpt lat="43.1124617" lon="13.3436517"><ele>498.0</ele><time>2026-04-18T08:57:07.259Z</time></trkpt><trkpt lat="43.1124017" lon="13.3435083"><ele>498.0</ele><time>2026-04-18T08:57:08.259Z</time></trkpt><trkpt lat="43.1123383" lon="13.3433567"><ele>498.0</ele><time>2026-04-18T08:57:09.259Z</time></trkpt><trkpt lat="43.1122683" lon="13.3431883"><ele>498.0</ele><time>2026-04-18T08:57:10.259Z</time></trkpt><trkpt lat="43.112195" lon="13.343025"><ele>500.0</ele><time>2026-04-18T08:57:11.259Z</time></trkpt><trkpt lat="43.1121117" lon="13.3428417"><ele>502.0</ele><time>2026-04-18T08:57:12.259Z</time></trkpt><trkpt lat="43.1120233" lon="13.3426217"><ele>504.0</ele><time>2026-04-18T08:57:13.259Z</time></trkpt><trkpt lat="43.1119367" lon="13.3424167"><ele>505.66666666666663</ele><time>2026-04-18T08:57:14.259Z</time></trkpt><trkpt lat="43.11185" lon="13.3422117"><ele>507.3333333333333</ele><time>2026-04-18T08:57:15.259Z</time></trkpt><trkpt lat="43.111765" lon="13.3420067"><ele>509.0</ele><time>2026-04-18T08:57:16.259Z</time></trkpt><trkpt lat="43.1116867" lon="13.3418067"><ele>509.0</ele><time>2026-04-18T08:57:17.259Z</time></trkpt><trkpt lat="43.1115983" lon="13.3416117"><ele>509.0</ele><time>2026-04-18T08:57:18.259Z</time></trkpt><trkpt lat="43.11151" lon="13.34141"><ele>509.0</ele><time>2026-04-18T08:57:19.259Z</time></trkpt><trkpt lat="43.1114183" lon="13.3411983"><ele>510.3333333333333</ele><time>2026-04-18T08:57:20.259Z</time></trkpt><trkpt lat="43.1113183" lon="13.340995"><ele>511.66666666666663</ele><time>2026-04-18T08:57:21.259Z</time></trkpt><trkpt lat="43.111225" lon="13.340785"><ele>513.0</ele><time>2026-04-18T08:57:22.259Z</time></trkpt><trkpt lat="43.1111283" lon="13.3405667"><ele>515.3333333333334</ele><time>2026-04-18T08:57:23.259Z</time></trkpt><trkpt lat="43.1110333" lon="13.3403333"><ele>517.6666666666667</ele><time>2026-04-18T08:57:24.259Z</time></trkpt><trkpt lat="43.1109317" lon="13.3401"><ele>520.0</ele><time>2026-04-18T08:57:25.259Z</time></trkpt><trkpt lat="43.1108433" lon="13.3398817"><ele>521.3333333333334</ele><time>2026-04-18T08:57:26.259Z</time></trkpt><trkpt lat="43.1107533" lon="13.33967"><ele>522.6666666666666</ele><time>2026-04-18T08:57:27.259Z</time></trkpt><trkpt lat="43.1106667" lon="13.3394667"><ele>524.0</ele><time>2026-04-18T08:57:28.259Z</time></trkpt><trkpt lat="43.1105833" lon="13.339275"><ele>524.25</ele><time>2026-04-18T08:57:29.259Z</time></trkpt><trkpt lat="43.11051" lon="13.3391033"><ele>524.5</ele><time>2026-04-18T08:57:30.259Z</time></trkpt><trkpt lat="43.1104367" lon="13.3389433"><ele>524.75</ele><time>2026-04-18T08:57:31.259Z</time></trkpt><trkpt lat="43.1103817" lon="13.3387783"><ele>525.0</ele><time>2026-04-18T08:57:32.259Z</time></trkpt><trkpt lat="43.11035" lon="13.3386067"><ele>527.25</ele><time>2026-04-18T08:57:33.259Z</time></trkpt><trkpt lat="43.11034" lon="13.3384233"><ele>529.5</ele><time>2026-04-18T08:57:34.259Z</time></trkpt><trkpt lat="43.1103383" lon="13.338235"><ele>531.75</ele><time>2026-04-18T08:57:35.259Z</time></trkpt><trkpt lat="43.1103483" lon="13.338045"><ele>534.0</ele><time>2026-04-18T08:57:36.259Z</time></trkpt><trkpt lat="43.1103533" lon="13.337845"><ele>534.8</ele><time>2026-04-18T08:57:37.259Z</time></trkpt><trkpt lat="43.1103467" lon="13.3376617"><ele>535.5999999999999</ele><time>2026-04-18T08:57:38.259Z</time></trkpt><trkpt lat="43.1103317" lon="13.3375083"><ele>536.4</ele><time>2026-04-18T08:57:39.259Z</time></trkpt><trkpt lat="43.110305" lon="13.33736"><ele>537.1999999999999</ele><time>2026-04-18T08:57:40.259Z</time></trkpt><trkpt lat="43.1102817" lon="13.3372433"><ele>538.0</ele><time>2026-04-18T08:57:41.259Z</time></trkpt><trkpt lat="43.11026" lon="13.337145"><ele>538.0</ele><time>2026-04-18T08:57:42.259Z</time></trkpt><trkpt lat="43.1102467" lon="13.3370567"><ele>538.0</ele><time>2026-04-18T08:57:43.259Z</time></trkpt><trkpt lat="43.110275" lon="13.3369233"><ele>538.0</ele><time>2026-04-18T08:57:45.259Z</time></trkpt><trkpt lat="43.11035" lon="13.336795"><ele>538.0</ele><time>2026-04-18T08:57:47.259Z</time></trkpt><trkpt lat="43.11037" lon="13.3366483"><ele>538.0</ele><time>2026-04-18T08:57:49.259Z</time></trkpt><trkpt lat="43.1103" lon="13.3364933"><ele>538.0</ele><time>2026-04-18T08:57:51.259Z</time></trkpt><trkpt lat="43.1102417" lon="13.3364433"><ele>538.0</ele><time>2026-04-18T08:57:52.259Z</time></trkpt><trkpt lat="43.110175" lon="13.336385"><ele>538.0</ele><time>2026-04-18T08:57:53.259Z</time></trkpt><trkpt lat="43.1101117" lon="13.33632"><ele>538.0</ele><time>2026-04-18T08:57:54.259Z</time></trkpt><trkpt lat="43.1100367" lon="13.3362517"><ele>538.0</ele><time>2026-04-18T08:57:55.259Z</time></trkpt><trkpt lat="43.1099617" lon="13.3361733"><ele>538.0</ele><time>2026-04-18T08:57:56.259Z</time></trkpt><trkpt lat="43.1098967" lon="13.33609"><ele>538.5</ele><time>2026-04-18T08:57:57.259Z</time></trkpt><trkpt lat="43.1098433" lon="13.335995"><ele>539.0</ele><time>2026-04-18T08:57:58.259Z</time></trkpt><trkpt lat="43.1098117" lon="13.3358917"><ele>539.5</ele><time>2026-04-18T08:57:59.259Z</time></trkpt><trkpt lat="43.1097933" lon="13.335775"><ele>540.0</ele><time>2026-04-18T08:58:00.259Z</time></trkpt><trkpt lat="43.1097833" lon="13.335665"><ele>540.5</ele><time>2026-04-18T08:58:01.259Z</time></trkpt><trkpt lat="43.1097917" lon="13.33556"><ele>541.0</ele><time>2026-04-18T08:58:02.259Z</time></trkpt><trkpt lat="43.1098017" lon="13.335465"><ele>541.0</ele><time>2026-04-18T08:58:03.259Z</time></trkpt><trkpt lat="43.1098167" lon="13.33537"><ele>541.0</ele><time>2026-04-18T08:58:04.259Z</time></trkpt><trkpt lat="43.1098367" lon="13.3352483"><ele>541.0</ele><time>2026-04-18T08:58:05.259Z</time></trkpt><trkpt lat="43.109855" lon="13.3351033"><ele>541.0</ele><time>2026-04-18T08:58:06.259Z</time></trkpt><trkpt lat="43.109875" lon="13.334955"><ele>541.0</ele><time>2026-04-18T08:58:07.259Z</time></trkpt><trkpt lat="43.109885" lon="13.334795"><ele>542.25</ele><time>2026-04-18T08:58:08.259Z</time></trkpt><trkpt lat="43.1098933" lon="13.3346233"><ele>543.5</ele><time>2026-04-18T08:58:09.259Z</time></trkpt><trkpt lat="43.109895" lon="13.334435"><ele>544.75</ele><time>2026-04-18T08:58:10.259Z</time></trkpt><trkpt lat="43.109895" lon="13.334265"><ele>546.0</ele><time>2026-04-18T08:58:11.259Z</time></trkpt><trkpt lat="43.1098867" lon="13.334105"><ele>546.0</ele><time>2026-04-18T08:58:12.259Z</time></trkpt><trkpt lat="43.10987" lon="13.3339417"><ele>546.0</ele><time>2026-04-18T08:58:13.259Z</time></trkpt><trkpt lat="43.1098367" lon="13.3337817"><ele>546.0</ele><time>2026-04-18T08:58:14.258Z</time></trkpt><trkpt lat="43.109795" lon="13.3336083"><ele>546.0</ele><time>2026-04-18T08:58:15.259Z</time></trkpt><trkpt lat="43.1097533" lon="13.33343"><ele>546.0</ele><time>2026-04-18T08:58:16.259Z</time></trkpt><trkpt lat="43.1097317" lon="13.3332533"><ele>546.0</ele><time>2026-04-18T08:58:17.259Z</time></trkpt><trkpt lat="43.1097167" lon="13.3330733"><ele>546.0</ele><time>2026-04-18T08:58:18.259Z</time></trkpt><trkpt lat="43.1097217" lon="13.3329"><ele>546.0</ele><time>2026-04-18T08:58:19.259Z</time></trkpt><trkpt lat="43.109735" lon="13.3327433"><ele>546.0</ele><time>2026-04-18T08:58:20.259Z</time></trkpt><trkpt lat="43.109745" lon="13.3325933"><ele>546.0</ele><time>2026-04-18T08:58:21.259Z</time></trkpt><trkpt lat="43.10977" lon="13.3324633"><ele>546.0</ele><time>2026-04-18T08:58:22.259Z</time></trkpt><trkpt lat="43.1098133" lon="13.3323383"><ele>546.0</ele><time>2026-04-18T08:58:23.259Z</time></trkpt><trkpt lat="43.10988" lon="13.3322067"><ele>546.0</ele><time>2026-04-18T08:58:24.258Z</time></trkpt><trkpt lat="43.1099533" lon="13.3320817"><ele>541.6</ele><time>2026-04-18T08:58:25.259Z</time></trkpt><trkpt lat="43.1100183" lon="13.3319817"><ele>537.2</ele><time>2026-04-18T08:58:26.259Z</time></trkpt><trkpt lat="43.1100967" lon="13.3318767"><ele>532.8</ele><time>2026-04-18T08:58:27.259Z</time></trkpt><trkpt lat="43.1101833" lon="13.3318"><ele>528.4</ele><time>2026-04-18T08:58:28.259Z</time></trkpt><trkpt lat="43.1102817" lon="13.3317383"><ele>524.0</ele><time>2026-04-18T08:58:29.258Z</time></trkpt><trkpt lat="43.1103867" lon="13.331725"><ele>524.0</ele><time>2026-04-18T08:58:30.259Z</time></trkpt><trkpt lat="43.110505" lon="13.331725"><ele>524.0</ele><time>2026-04-18T08:58:31.259Z</time></trkpt><trkpt lat="43.1106167" lon="13.3317483"><ele>524.0</ele><time>2026-04-18T08:58:32.259Z</time></trkpt><trkpt lat="43.1107417" lon="13.331795"><ele>524.0</ele><time>2026-04-18T08:58:33.259Z</time></trkpt><trkpt lat="43.1108633" lon="13.3318583"><ele>520.25</ele><time>2026-04-18T08:58:34.259Z</time></trkpt><trkpt lat="43.110985" lon="13.3319483"><ele>516.5</ele><time>2026-04-18T08:58:35.259Z</time></trkpt><trkpt lat="43.111105" lon="13.3320433"><ele>512.75</ele><time>2026-04-18T08:58:36.259Z</time></trkpt><trkpt lat="43.11121" lon="13.332135"><ele>509.0</ele><time>2026-04-18T08:58:37.259Z</time></trkpt><trkpt lat="43.1113183" lon="13.33223"><ele>507.0</ele><time>2026-04-18T08:58:38.259Z</time></trkpt><trkpt lat="43.11142" lon="13.33232"><ele>505.0</ele><time>2026-04-18T08:58:39.259Z</time></trkpt><trkpt lat="43.1115133" lon="13.3324033"><ele>503.0</ele><time>2026-04-18T08:58:40.259Z</time></trkpt><trkpt lat="43.1116" lon="13.3324767"><ele>501.0</ele><time>2026-04-18T08:58:41.258Z</time></trkpt><trkpt lat="43.1116817" lon="13.3325283"><ele>499.0</ele><time>2026-04-18T08:58:42.259Z</time></trkpt><trkpt lat="43.1117783" lon="13.3325633"><ele>498.4</ele><time>2026-04-18T08:58:43.259Z</time></trkpt><trkpt lat="43.11187" lon="13.33257"><ele>497.79999999999995</ele><time>2026-04-18T08:58:44.259Z</time></trkpt><trkpt lat="43.111965" lon="13.3325467"><ele>497.20000000000005</ele><time>2026-04-18T08:58:45.259Z</time></trkpt><trkpt lat="43.1120433" lon="13.3324867"><ele>496.6</ele><time>2026-04-18T08:58:46.258Z</time></trkpt><trkpt lat="43.11211" lon="13.3324017"><ele>496.0</ele><time>2026-04-18T08:58:47.259Z</time></trkpt><trkpt lat="43.1121667" lon="13.33228"><ele>498.0</ele><time>2026-04-18T08:58:48.259Z</time></trkpt><trkpt lat="43.1122067" lon="13.33213"><ele>500.0</ele><time>2026-04-18T08:58:49.259Z</time></trkpt><trkpt lat="43.1122183" lon="13.3319733"><ele>502.0</ele><time>2026-04-18T08:58:50.259Z</time></trkpt><trkpt lat="43.112215" lon="13.3318167"><ele>504.0</ele><time>2026-04-18T08:58:51.259Z</time></trkpt><trkpt lat="43.1122183" lon="13.3316617"><ele>504.0</ele><time>2026-04-18T08:58:52.259Z</time></trkpt><trkpt lat="43.1122183" lon="13.33149"><ele>504.0</ele><time>2026-04-18T08:58:53.259Z</time></trkpt><trkpt lat="43.1122283" lon="13.3313183"><ele>504.0</ele><time>2026-04-18T08:58:54.259Z</time></trkpt><trkpt lat="43.1122433" lon="13.3311417"><ele>504.0</ele><time>2026-04-18T08:58:55.259Z</time></trkpt><trkpt lat="43.1122683" lon="13.3309783"><ele>504.2</ele><time>2026-04-18T08:58:56.259Z</time></trkpt><trkpt lat="43.112295" lon="13.3308267"><ele>504.4</ele><time>2026-04-18T08:58:57.259Z</time></trkpt><trkpt lat="43.1123217" lon="13.3306833"><ele>504.6</ele><time>2026-04-18T08:58:58.259Z</time></trkpt><trkpt lat="43.112345" lon="13.3305383"><ele>504.8</ele><time>2026-04-18T08:58:59.259Z</time></trkpt><trkpt lat="43.1123767" lon="13.3303967"><ele>505.0</ele><time>2026-04-18T08:59:00.259Z</time></trkpt><trkpt lat="43.112425" lon="13.33026"><ele>501.0</ele><time>2026-04-18T08:59:01.259Z</time></trkpt><trkpt lat="43.11249" lon="13.3301433"><ele>497.0</ele><time>2026-04-18T08:59:02.259Z</time></trkpt><trkpt lat="43.1125567" lon="13.3300183"><ele>493.0</ele><time>2026-04-18T08:59:03.258Z</time></trkpt><trkpt lat="43.1126183" lon="13.32988"><ele>489.0</ele><time>2026-04-18T08:59:04.259Z</time></trkpt><trkpt lat="43.112665" lon="13.329755"><ele>485.0</ele><time>2026-04-18T08:59:05.258Z</time></trkpt><trkpt lat="43.1127083" lon="13.32964"><ele>484.99999999999994</ele><time>2026-04-18T08:59:06.259Z</time></trkpt><trkpt lat="43.1127583" lon="13.329535"><ele>485.0</ele><time>2026-04-18T08:59:07.259Z</time></trkpt><trkpt lat="43.1128067" lon="13.329445"><ele>485.0</ele><time>2026-04-18T08:59:08.259Z</time></trkpt><trkpt lat="43.112865" lon="13.3293833"><ele>485.0</ele><time>2026-04-18T08:59:09.259Z</time></trkpt><trkpt lat="43.11297" lon="13.3293383"><ele>484.99999999999994</ele><time>2026-04-18T08:59:11.258Z</time></trkpt><trkpt lat="43.113045" lon="13.3294067"><ele>485.0</ele><time>2026-04-18T08:59:13.259Z</time></trkpt><trkpt lat="43.11307" lon="13.3295533"><ele>485.0</ele><time>2026-04-18T08:59:15.259Z</time></trkpt><trkpt lat="43.1130617" lon="13.3296483"><ele>485.0</ele><time>2026-04-18T08:59:16.259Z</time></trkpt><trkpt lat="43.1130283" lon="13.3297533"><ele>485.0</ele><time>2026-04-18T08:59:17.259Z</time></trkpt><trkpt lat="43.1129983" lon="13.3298783"><ele>485.0</ele><time>2026-04-18T08:59:18.259Z</time></trkpt><trkpt lat="43.1129583" lon="13.3300383"><ele>485.0</ele><time>2026-04-18T08:59:19.258Z</time></trkpt><trkpt lat="43.1129167" lon="13.3302217"><ele>484.5</ele><time>2026-04-18T08:59:20.259Z</time></trkpt><trkpt lat="43.11288" lon="13.33042"><ele>484.0</ele><time>2026-04-18T08:59:21.259Z</time></trkpt><trkpt lat="43.11285" lon="13.3306183"><ele>483.5</ele><time>2026-04-18T08:59:22.259Z</time></trkpt><trkpt lat="43.112815" lon="13.33081"><ele>483.0</ele><time>2026-04-18T08:59:23.259Z</time></trkpt><trkpt lat="43.1127917" lon="13.330975"><ele>481.5</ele><time>2026-04-18T08:59:24.259Z</time></trkpt><trkpt lat="43.1127667" lon="13.3311317"><ele>480.0</ele><time>2026-04-18T08:59:25.259Z</time></trkpt><trkpt lat="43.11277" lon="13.3312883"><ele>478.5</ele><time>2026-04-18T08:59:26.259Z</time></trkpt><trkpt lat="43.1127867" lon="13.331465"><ele>477.0</ele><time>2026-04-18T08:59:27.259Z</time></trkpt><trkpt lat="43.1128183" lon="13.3316433"><ele>477.0</ele><time>2026-04-18T08:59:28.259Z</time></trkpt><trkpt lat="43.1128617" lon="13.3318333"><ele>477.0</ele><time>2026-04-18T08:59:29.259Z</time></trkpt><trkpt lat="43.1128917" lon="13.332015"><ele>477.0</ele><time>2026-04-18T08:59:30.259Z</time></trkpt><trkpt lat="43.11292" lon="13.3321983"><ele>477.0</ele><time>2026-04-18T08:59:31.259Z</time></trkpt><trkpt lat="43.1129517" lon="13.3323833"><ele>475.25</ele><time>2026-04-18T08:59:32.259Z</time></trkpt><trkpt lat="43.112945" lon="13.3325667"><ele>473.5</ele><time>2026-04-18T08:59:33.259Z</time></trkpt><trkpt lat="43.1129483" lon="13.332755"><ele>471.75</ele><time>2026-04-18T08:59:34.259Z</time></trkpt><trkpt lat="43.11295" lon="13.3329533"><ele>470.0</ele><time>2026-04-18T08:59:35.259Z</time></trkpt><trkpt lat="43.11294" lon="13.33316"><ele>466.5</ele><time>2026-04-18T08:59:36.259Z</time></trkpt><trkpt lat="43.1129317" lon="13.3333667"><ele>463.0</ele><time>2026-04-18T08:59:37.259Z</time></trkpt><trkpt lat="43.11291" lon="13.33354"><ele>459.5</ele><time>2026-04-18T08:59:38.258Z</time></trkpt><trkpt lat="43.1129133" lon="13.3336833"><ele>456.0</ele><time>2026-04-18T08:59:39.259Z</time></trkpt><trkpt lat="43.1129083" lon="13.3338"><ele>454.3333333333333</ele><time>2026-04-18T08:59:40.259Z</time></trkpt><trkpt lat="43.1129217" lon="13.3339017"><ele>452.66666666666663</ele><time>2026-04-18T08:59:41.259Z</time></trkpt><trkpt lat="43.1129733" lon="13.3340533"><ele>451.0</ele><time>2026-04-18T08:59:43.259Z</time></trkpt><trkpt lat="43.1130367" lon="13.3340883"><ele>449.3333333333333</ele><time>2026-04-18T08:59:44.259Z</time></trkpt><trkpt lat="43.1131083" lon="13.3340883"><ele>447.66666666666663</ele><time>2026-04-18T08:59:45.258Z</time></trkpt><trkpt lat="43.1131883" lon="13.3340567"><ele>446.0</ele><time>2026-04-18T08:59:46.259Z</time></trkpt><trkpt lat="43.113265" lon="13.3339817"><ele>443.8333333333333</ele><time>2026-04-18T08:59:47.259Z</time></trkpt><trkpt lat="43.1133183" lon="13.3338967"><ele>441.66666666666663</ele><time>2026-04-18T08:59:48.259Z</time></trkpt><trkpt lat="43.1133683" lon="13.3337867"><ele>439.5</ele><time>2026-04-18T08:59:49.259Z</time></trkpt><trkpt lat="43.1134067" lon="13.3336717"><ele>437.33333333333337</ele><time>2026-04-18T08:59:50.259Z</time></trkpt><trkpt lat="43.1134467" lon="13.3335733"><ele>435.1666666666667</ele><time>2026-04-18T08:59:51.259Z</time></trkpt><trkpt lat="43.113505" lon="13.33349"><ele>433.0</ele><time>2026-04-18T08:59:52.259Z</time></trkpt><trkpt lat="43.1135733" lon="13.3334167"><ele>433.0</ele><time>2026-04-18T08:59:53.259Z</time></trkpt><trkpt lat="43.1136533" lon="13.333365"><ele>432.99999999999994</ele><time>2026-04-18T08:59:54.259Z</time></trkpt><trkpt lat="43.113755" lon="13.333335"><ele>432.99999999999994</ele><time>2026-04-18T08:59:55.258Z</time></trkpt><trkpt lat="43.11385" lon="13.3333333"><ele>433.0</ele><time>2026-04-18T08:59:56.259Z</time></trkpt><trkpt lat="43.1139417" lon="13.3333317"><ele>433.0</ele><time>2026-04-18T08:59:57.259Z</time></trkpt><trkpt lat="43.1140417" lon="13.333345"><ele>432.0</ele><time>2026-04-18T08:59:58.259Z</time></trkpt><trkpt lat="43.1141433" lon="13.3333533"><ele>430.99999999999994</ele><time>2026-04-18T08:59:59.259Z</time></trkpt><trkpt lat="43.1142533" lon="13.3333583"><ele>429.99999999999994</ele><time>2026-04-18T09:00:00.259Z</time></trkpt><trkpt lat="43.11435" lon="13.33336"><ele>429.0</ele><time>2026-04-18T09:00:01.259Z</time></trkpt><trkpt lat="43.1144483" lon="13.3333667"><ele>428.0</ele><time>2026-04-18T09:00:02.259Z</time></trkpt><trkpt lat="43.1145517" lon="13.3333767"><ele>427.99999999999994</ele><time>2026-04-18T09:00:03.259Z</time></trkpt><trkpt lat="43.114655" lon="13.3333833"><ele>428.0</ele><time>2026-04-18T09:00:04.259Z</time></trkpt><trkpt lat="43.1147533" lon="13.33339"><ele>428.0</ele><time>2026-04-18T09:00:05.259Z</time></trkpt><trkpt lat="43.11484" lon="13.3333933"><ele>428.0</ele><time>2026-04-18T09:00:06.259Z</time></trkpt><trkpt lat="43.1149217" lon="13.3333933"><ele>427.99999999999994</ele><time>2026-04-18T09:00:07.259Z</time></trkpt><trkpt lat="43.1149967" lon="13.3333883"><ele>428.0</ele><time>2026-04-18T09:00:08.259Z</time></trkpt><trkpt lat="43.1150733" lon="13.3333983"><ele>426.0</ele><time>2026-04-18T09:00:09.259Z</time></trkpt><trkpt lat="43.1151633" lon="13.33342"><ele>423.99999999999994</ele><time>2026-04-18T09:00:10.259Z</time></trkpt><trkpt lat="43.115265" lon="13.3334383"><ele>422.0</ele><time>2026-04-18T09:00:11.259Z</time></trkpt><trkpt lat="43.1153667" lon="13.33343"><ele>420.0</ele><time>2026-04-18T09:00:12.259Z</time></trkpt><trkpt lat="43.11547" lon="13.3334033"><ele>418.0</ele><time>2026-04-18T09:00:13.259Z</time></trkpt><trkpt lat="43.1155717" lon="13.3333733"><ele>418.0</ele><time>2026-04-18T09:00:14.259Z</time></trkpt><trkpt lat="43.1156733" lon="13.3333433"><ele>418.0</ele><time>2026-04-18T09:00:15.259Z</time></trkpt><trkpt lat="43.11577" lon="13.3333067"><ele>418.0</ele><time>2026-04-18T09:00:16.259Z</time></trkpt><trkpt lat="43.1158617" lon="13.3332717"><ele>418.0</ele><time>2026-04-18T09:00:17.259Z</time></trkpt><trkpt lat="43.11594" lon="13.3332367"><ele>418.0</ele><time>2026-04-18T09:00:18.259Z</time></trkpt><trkpt lat="43.1160167" lon="13.33319"><ele>416.50000000000006</ele><time>2026-04-18T09:00:19.259Z</time></trkpt><trkpt lat="43.1160867" lon="13.3331667"><ele>415.0</ele><time>2026-04-18T09:00:20.259Z</time></trkpt><trkpt lat="43.11616" lon="13.3331633"><ele>413.5</ele><time>2026-04-18T09:00:21.259Z</time></trkpt><trkpt lat="43.116245" lon="13.333185"><ele>412.0</ele><time>2026-04-18T09:00:22.259Z</time></trkpt><trkpt lat="43.11632" lon="13.3332267"><ele>410.50000000000006</ele><time>2026-04-18T09:00:23.259Z</time></trkpt><trkpt lat="43.1163883" lon="13.3332817"><ele>409.0</ele><time>2026-04-18T09:00:24.259Z</time></trkpt><trkpt lat="43.1164467" lon="13.3333483"><ele>409.0</ele><time>2026-04-18T09:00:25.259Z</time></trkpt><trkpt lat="43.1164983" lon="13.333435"><ele>409.0</ele><time>2026-04-18T09:00:26.259Z</time></trkpt><trkpt lat="43.1165467" lon="13.33353"><ele>409.0</ele><time>2026-04-18T09:00:27.259Z</time></trkpt><trkpt lat="43.1166017" lon="13.3336383"><ele>409.0</ele><time>2026-04-18T09:00:28.259Z</time></trkpt><trkpt lat="43.1166583" lon="13.333755"><ele>409.0</ele><time>2026-04-18T09:00:29.259Z</time></trkpt><trkpt lat="43.1167117" lon="13.33388"><ele>406.2</ele><time>2026-04-18T09:00:30.259Z</time></trkpt><trkpt lat="43.1167617" lon="13.334005"><ele>403.4</ele><time>2026-04-18T09:00:31.259Z</time></trkpt><trkpt lat="43.1168167" lon="13.334135"><ele>400.6</ele><time>2026-04-18T09:00:32.259Z</time></trkpt><trkpt lat="43.1168767" lon="13.334255"><ele>397.8</ele><time>2026-04-18T09:00:33.259Z</time></trkpt><trkpt lat="43.1169367" lon="13.3343783"><ele>395.0</ele><time>2026-04-18T09:00:34.259Z</time></trkpt><trkpt lat="43.1169967" lon="13.334505"><ele>395.0</ele><time>2026-04-18T09:00:35.259Z</time></trkpt><trkpt lat="43.117055" lon="13.3346317"><ele>395.0</ele><time>2026-04-18T09:00:36.259Z</time></trkpt><trkpt lat="43.1171117" lon="13.3347567"><ele>395.0</ele><time>2026-04-18T09:00:37.259Z</time></trkpt><trkpt lat="43.1171617" lon="13.334875"><ele>395.0</ele><time>2026-04-18T09:00:38.259Z</time></trkpt><trkpt lat="43.1172167" lon="13.3349867"><ele>395.0</ele><time>2026-04-18T09:00:39.259Z</time></trkpt><trkpt lat="43.1172783" lon="13.3350933"><ele>394.16666666666663</ele><time>2026-04-18T09:00:40.259Z</time></trkpt><trkpt lat="43.1173333" lon="13.33519"><ele>393.3333333333333</ele><time>2026-04-18T09:00:41.259Z</time></trkpt><trkpt lat="43.11739" lon="13.3352783"><ele>392.5</ele><time>2026-04-18T09:00:42.259Z</time></trkpt><trkpt lat="43.117455" lon="13.335345"><ele>391.66666666666663</ele><time>2026-04-18T09:00:43.259Z</time></trkpt><trkpt lat="43.11753" lon="13.335395"><ele>390.8333333333333</ele><time>2026-04-18T09:00:44.259Z</time></trkpt><trkpt lat="43.1176183" lon="13.3354183"><ele>390.0</ele><time>2026-04-18T09:00:45.258Z</time></trkpt><trkpt lat="43.1177267" lon="13.3354133"><ele>390.0</ele><time>2026-04-18T09:00:46.259Z</time></trkpt><trkpt lat="43.1178367" lon="13.3353883"><ele>390.0</ele><time>2026-04-18T09:00:47.258Z</time></trkpt><trkpt lat="43.11795" lon="13.3353567"><ele>390.0</ele><time>2026-04-18T09:00:48.259Z</time></trkpt><trkpt lat="43.1180517" lon="13.3353283"><ele>390.0</ele><time>2026-04-18T09:00:49.259Z</time></trkpt><trkpt lat="43.118155" lon="13.3353067"><ele>390.0</ele><time>2026-04-18T09:00:50.259Z</time></trkpt><trkpt lat="43.1182533" lon="13.3352867"><ele>389.0</ele><time>2026-04-18T09:00:51.259Z</time></trkpt><trkpt lat="43.1183517" lon="13.3352733"><ele>388.0</ele><time>2026-04-18T09:00:52.259Z</time></trkpt><trkpt lat="43.1184433" lon="13.3352583"><ele>387.0</ele><time>2026-04-18T09:00:53.259Z</time></trkpt><trkpt lat="43.1185367" lon="13.3352483"><ele>386.0</ele><time>2026-04-18T09:00:54.259Z</time></trkpt><trkpt lat="43.11863" lon="13.33524"><ele>385.0</ele><time>2026-04-18T09:00:55.259Z</time></trkpt><trkpt lat="43.118725" lon="13.3352417"><ele>385.0</ele><time>2026-04-18T09:00:56.259Z</time></trkpt><trkpt lat="43.11881" lon="13.335235"><ele>385.0</ele><time>2026-04-18T09:00:57.259Z</time></trkpt><trkpt lat="43.118895" lon="13.3352367"><ele>385.0</ele><time>2026-04-18T09:00:58.259Z</time></trkpt><trkpt lat="43.1189883" lon="13.3352433"><ele>385.0</ele><time>2026-04-18T09:00:59.259Z</time></trkpt><trkpt lat="43.119085" lon="13.3352433"><ele>385.0</ele><time>2026-04-18T09:01:00.259Z</time></trkpt><trkpt lat="43.1191767" lon="13.3352417"><ele>383.33333333333337</ele><time>2026-04-18T09:01:01.259Z</time></trkpt><trkpt lat="43.119265" lon="13.3352467"><ele>381.6666666666667</ele><time>2026-04-18T09:01:02.259Z</time></trkpt><trkpt lat="43.1193517" lon="13.3352483"><ele>380.0</ele><time>2026-04-18T09:01:03.259Z</time></trkpt><trkpt lat="43.1194283" lon="13.3352533"><ele>378.33333333333337</ele><time>2026-04-18T09:01:04.259Z</time></trkpt><trkpt lat="43.11951" lon="13.3352533"><ele>376.6666666666667</ele><time>2026-04-18T09:01:05.259Z</time></trkpt><trkpt lat="43.11958" lon="13.335255"><ele>375.0</ele><time>2026-04-18T09:01:06.259Z</time></trkpt><trkpt lat="43.119655" lon="13.33526"><ele>375.0</ele><time>2026-04-18T09:01:07.259Z</time></trkpt><trkpt lat="43.119725" lon="13.3352783"><ele>375.0</ele><time>2026-04-18T09:01:08.259Z</time></trkpt><trkpt lat="43.119795" lon="13.3353083"><ele>375.0</ele><time>2026-04-18T09:01:09.259Z</time></trkpt><trkpt lat="43.1198667" lon="13.335365"><ele>375.0</ele><time>2026-04-18T09:01:10.259Z</time></trkpt><trkpt lat="43.1199133" lon="13.335435"><ele>375.0</ele><time>2026-04-18T09:01:11.259Z</time></trkpt><trkpt lat="43.1199467" lon="13.335525"><ele>375.0</ele><time>2026-04-18T09:01:12.259Z</time></trkpt><trkpt lat="43.119965" lon="13.3356333"><ele>372.8</ele><time>2026-04-18T09:01:13.258Z</time></trkpt><trkpt lat="43.11996" lon="13.33575"><ele>370.6</ele><time>2026-04-18T09:01:14.259Z</time></trkpt><trkpt lat="43.1199317" lon="13.33587"><ele>368.4</ele><time>2026-04-18T09:01:15.259Z</time></trkpt><trkpt lat="43.1198883" lon="13.3359917"><ele>366.2</ele><time>2026-04-18T09:01:16.259Z</time></trkpt><trkpt lat="43.1198367" lon="13.3361217"><ele>364.0</ele><time>2026-04-18T09:01:17.258Z</time></trkpt><trkpt lat="43.1197917" lon="13.3362517"><ele>364.0</ele><time>2026-04-18T09:01:18.259Z</time></trkpt><trkpt lat="43.11975" lon="13.336375"><ele>364.0</ele><time>2026-04-18T09:01:19.259Z</time></trkpt><trkpt lat="43.1197117" lon="13.3364833"><ele>364.0</ele><time>2026-04-18T09:01:20.259Z</time></trkpt><trkpt lat="43.119675" lon="13.33659"><ele>364.0</ele><time>2026-04-18T09:01:21.259Z</time></trkpt><trkpt lat="43.1196433" lon="13.3366933"><ele>364.0</ele><time>2026-04-18T09:01:22.259Z</time></trkpt><trkpt lat="43.119615" lon="13.3367867"><ele>364.0</ele><time>2026-04-18T09:01:23.259Z</time></trkpt><trkpt lat="43.1195783" lon="13.3368717"><ele>363.16666666666663</ele><time>2026-04-18T09:01:24.259Z</time></trkpt><trkpt lat="43.1195333" lon="13.3369583"><ele>362.3333333333333</ele><time>2026-04-18T09:01:25.259Z</time></trkpt><trkpt lat="43.1194817" lon="13.3370367"><ele>361.5</ele><time>2026-04-18T09:01:26.259Z</time></trkpt><trkpt lat="43.1194167" lon="13.3371083"><ele>360.6666666666667</ele><time>2026-04-18T09:01:27.259Z</time></trkpt><trkpt lat="43.1193433" lon="13.337165"><ele>359.83333333333337</ele><time>2026-04-18T09:01:28.259Z</time></trkpt><trkpt lat="43.11927" lon="13.337215"><ele>359.0</ele><time>2026-04-18T09:01:29.259Z</time></trkpt><trkpt lat="43.1191917" lon="13.337265"><ele>358.6666666666667</ele><time>2026-04-18T09:01:30.259Z</time></trkpt><trkpt lat="43.1191067" lon="13.3373117"><ele>358.33333333333337</ele><time>2026-04-18T09:01:31.259Z</time></trkpt><trkpt lat="43.1190167" lon="13.337355"><ele>358.0</ele><time>2026-04-18T09:01:32.259Z</time></trkpt><trkpt lat="43.11893" lon="13.3373967"><ele>357.6666666666667</ele><time>2026-04-18T09:01:33.259Z</time></trkpt><trkpt lat="43.118855" lon="13.33745"><ele>357.3333333333333</ele><time>2026-04-18T09:01:34.259Z</time></trkpt><trkpt lat="43.1188" lon="13.33751"><ele>357.0</ele><time>2026-04-18T09:01:35.259Z</time></trkpt><trkpt lat="43.118755" lon="13.3375883"><ele>357.0</ele><time>2026-04-18T09:01:36.259Z</time></trkpt><trkpt lat="43.1187317" lon="13.33768"><ele>357.0</ele><time>2026-04-18T09:01:37.259Z</time></trkpt><trkpt lat="43.1187217" lon="13.3377733"><ele>357.0</ele><time>2026-04-18T09:01:38.259Z</time></trkpt><trkpt lat="43.118735" lon="13.33789"><ele>357.0</ele><time>2026-04-18T09:01:39.259Z</time></trkpt><trkpt lat="43.118765" lon="13.33801"><ele>357.0</ele><time>2026-04-18T09:01:40.259Z</time></trkpt><trkpt lat="43.1188133" lon="13.3381217"><ele>357.0</ele><time>2026-04-18T09:01:41.259Z</time></trkpt><trkpt lat="43.11887" lon="13.33823"><ele>357.20000000000005</ele><time>2026-04-18T09:01:42.259Z</time></trkpt><trkpt lat="43.1189267" lon="13.338355"><ele>357.4</ele><time>2026-04-18T09:01:43.259Z</time></trkpt><trkpt lat="43.1189867" lon="13.3384567"><ele>357.6</ele><time>2026-04-18T09:01:44.259Z</time></trkpt><trkpt lat="43.1190467" lon="13.3385333"><ele>357.79999999999995</ele><time>2026-04-18T09:01:45.259Z</time></trkpt><trkpt lat="43.1191133" lon="13.338615"><ele>358.0</ele><time>2026-04-18T09:01:46.259Z</time></trkpt><trkpt lat="43.1191933" lon="13.3386867"><ele>356.0</ele><time>2026-04-18T09:01:47.259Z</time></trkpt><trkpt lat="43.11928" lon="13.3387417"><ele>354.0</ele><time>2026-04-18T09:01:48.259Z</time></trkpt><trkpt lat="43.1193717" lon="13.3387833"><ele>352.0</ele><time>2026-04-18T09:01:49.259Z</time></trkpt><trkpt lat="43.1194783" lon="13.3388167"><ele>350.0</ele><time>2026-04-18T09:01:50.259Z</time></trkpt><trkpt lat="43.119585" lon="13.33885"><ele>348.0</ele><time>2026-04-18T09:01:51.259Z</time></trkpt><trkpt lat="43.1196917" lon="13.3388783"><ele>346.79999999999995</ele><time>2026-04-18T09:01:52.259Z</time></trkpt><trkpt lat="43.1197917" lon="13.3388967"><ele>345.6</ele><time>2026-04-18T09:01:53.259Z</time></trkpt><trkpt lat="43.1198867" lon="13.3389133"><ele>344.4</ele><time>2026-04-18T09:01:54.259Z</time></trkpt><trkpt lat="43.1199783" lon="13.3389267"><ele>343.20000000000005</ele><time>2026-04-18T09:01:55.259Z</time></trkpt><trkpt lat="43.120065" lon="13.338955"><ele>342.0</ele><time>2026-04-18T09:01:56.259Z</time></trkpt><trkpt lat="43.1201533" lon="13.3389817"><ele>342.0</ele><time>2026-04-18T09:01:57.259Z</time></trkpt><trkpt lat="43.1202333" lon="13.339005"><ele>342.0</ele><time>2026-04-18T09:01:58.259Z</time></trkpt><trkpt lat="43.1203167" lon="13.33902"><ele>342.0</ele><time>2026-04-18T09:01:59.259Z</time></trkpt><trkpt lat="43.1204033" lon="13.3390417"><ele>342.0</ele><time>2026-04-18T09:02:00.259Z</time></trkpt><trkpt lat="43.1204883" lon="13.3390517"><ele>342.0</ele><time>2026-04-18T09:02:01.259Z</time></trkpt><trkpt lat="43.12056" lon="13.339075"><ele>342.0</ele><time>2026-04-18T09:02:02.259Z</time></trkpt><trkpt lat="43.1206283" lon="13.3390917"><ele>342.0</ele><time>2026-04-18T09:02:03.259Z</time></trkpt><trkpt lat="43.1206933" lon="13.3391133"><ele>342.0</ele><time>2026-04-18T09:02:04.259Z</time></trkpt><trkpt lat="43.1207733" lon="13.3391283"><ele>342.0</ele><time>2026-04-18T09:02:05.259Z</time></trkpt><trkpt lat="43.1208517" lon="13.339155"><ele>342.0</ele><time>2026-04-18T09:02:06.259Z</time></trkpt><trkpt lat="43.120935" lon="13.3391733"><ele>342.0</ele><time>2026-04-18T09:02:07.259Z</time></trkpt><trkpt lat="43.121015" lon="13.339195"><ele>342.0</ele><time>2026-04-18T09:02:08.259Z</time></trkpt><trkpt lat="43.1210933" lon="13.3392167"><ele>340.40000000000003</ele><time>2026-04-18T09:02:09.259Z</time></trkpt><trkpt lat="43.1211783" lon="13.3392433"><ele>338.8</ele><time>2026-04-18T09:02:10.259Z</time></trkpt><trkpt lat="43.1212633" lon="13.339275"><ele>337.2</ele><time>2026-04-18T09:02:11.259Z</time></trkpt><trkpt lat="43.1213483" lon="13.339305"><ele>335.6</ele><time>2026-04-18T09:02:12.259Z</time></trkpt><trkpt lat="43.1214417" lon="13.3393283"><ele>334.0</ele><time>2026-04-18T09:02:13.259Z</time></trkpt><trkpt lat="43.1215383" lon="13.3393583"><ele>332.4</ele><time>2026-04-18T09:02:14.259Z</time></trkpt><trkpt lat="43.1216317" lon="13.3393933"><ele>330.79999999999995</ele><time>2026-04-18T09:02:15.259Z</time></trkpt><trkpt lat="43.1217217" lon="13.3394183"><ele>329.20000000000005</ele><time>2026-04-18T09:02:16.259Z</time></trkpt><trkpt lat="43.1218217" lon="13.3394417"><ele>327.6</ele><time>2026-04-18T09:02:17.259Z</time></trkpt><trkpt lat="43.12191" lon="13.3394683"><ele>326.0</ele><time>2026-04-18T09:02:18.259Z</time></trkpt><trkpt lat="43.121995" lon="13.3394917"><ele>326.0</ele><time>2026-04-18T09:02:19.258Z</time></trkpt><trkpt lat="43.1220883" lon="13.3395133"><ele>326.0</ele><time>2026-04-18T09:02:20.259Z</time></trkpt><trkpt lat="43.122185" lon="13.33954"><ele>326.0</ele><time>2026-04-18T09:02:21.259Z</time></trkpt><trkpt lat="43.1222833" lon="13.3395667"><ele>326.0</ele><time>2026-04-18T09:02:22.259Z</time></trkpt><trkpt lat="43.1223767" lon="13.3395933"><ele>326.0</ele><time>2026-04-18T09:02:23.259Z</time></trkpt><trkpt lat="43.122465" lon="13.3396183"><ele>325.33333333333337</ele><time>2026-04-18T09:02:24.259Z</time></trkpt><trkpt lat="43.1225467" lon="13.33964"><ele>324.6666666666667</ele><time>2026-04-18T09:02:25.259Z</time></trkpt><trkpt lat="43.1226267" lon="13.33967"><ele>324.0</ele><time>2026-04-18T09:02:26.259Z</time></trkpt><trkpt lat="43.1227" lon="13.3396917"><ele>323.3333333333333</ele><time>2026-04-18T09:02:27.259Z</time></trkpt><trkpt lat="43.12279" lon="13.3396983"><ele>322.66666666666663</ele><time>2026-04-18T09:02:28.259Z</time></trkpt><trkpt lat="43.1228883" lon="13.339705"><ele>322.0</ele><time>2026-04-18T09:02:29.259Z</time></trkpt><trkpt lat="43.1229933" lon="13.3397183"><ele>322.0</ele><time>2026-04-18T09:02:30.259Z</time></trkpt><trkpt lat="43.123115" lon="13.339745"><ele>322.0</ele><time>2026-04-18T09:02:31.259Z</time></trkpt><trkpt lat="43.1232433" lon="13.3397633"><ele>322.0</ele><time>2026-04-18T09:02:32.259Z</time></trkpt><trkpt lat="43.12336" lon="13.3397967"><ele>322.0</ele><time>2026-04-18T09:02:33.259Z</time></trkpt><trkpt lat="43.123455" lon="13.3398167"><ele>320.40000000000003</ele><time>2026-04-18T09:02:34.258Z</time></trkpt><trkpt lat="43.123545" lon="13.3398233"><ele>318.8</ele><time>2026-04-18T09:02:35.259Z</time></trkpt><trkpt lat="43.123645" lon="13.3398317"><ele>317.2</ele><time>2026-04-18T09:02:36.258Z</time></trkpt><trkpt lat="43.1237483" lon="13.3398083"><ele>315.6</ele><time>2026-04-18T09:02:37.259Z</time></trkpt><trkpt lat="43.1238617" lon="13.3397667"><ele>314.0</ele><time>2026-04-18T09:02:38.259Z</time></trkpt><trkpt lat="43.1239817" lon="13.3397017"><ele>312.75</ele><time>2026-04-18T09:02:39.259Z</time></trkpt><trkpt lat="43.124105" lon="13.33962"><ele>311.5</ele><time>2026-04-18T09:02:40.259Z</time></trkpt><trkpt lat="43.1242183" lon="13.3395167"><ele>310.25</ele><time>2026-04-18T09:02:41.259Z</time></trkpt><trkpt lat="43.1243317" lon="13.3394233"><ele>309.0</ele><time>2026-04-18T09:02:42.259Z</time></trkpt><trkpt lat="43.124425" lon="13.339335"><ele>309.0</ele><time>2026-04-18T09:02:43.259Z</time></trkpt><trkpt lat="43.1245233" lon="13.3392483"><ele>309.0</ele><time>2026-04-18T09:02:44.259Z</time></trkpt><trkpt lat="43.1246267" lon="13.3391567"><ele>309.0</ele><time>2026-04-18T09:02:45.258Z</time></trkpt><trkpt lat="43.124735" lon="13.339065"><ele>309.0</ele><time>2026-04-18T09:02:46.259Z</time></trkpt><trkpt lat="43.1248383" lon="13.3389817"><ele>308.75</ele><time>2026-04-18T09:02:47.259Z</time></trkpt><trkpt lat="43.124935" lon="13.3388917"><ele>308.5</ele><time>2026-04-18T09:02:48.259Z</time></trkpt><trkpt lat="43.1250317" lon="13.338795"><ele>308.25</ele><time>2026-04-18T09:02:49.259Z</time></trkpt><trkpt lat="43.12513" lon="13.338695"><ele>308.0</ele><time>2026-04-18T09:02:50.259Z</time></trkpt><trkpt lat="43.1252383" lon="13.338595"><ele>307.0</ele><time>2026-04-18T09:02:51.259Z</time></trkpt><trkpt lat="43.1253483" lon="13.3384983"><ele>306.0</ele><time>2026-04-18T09:02:52.259Z</time></trkpt><trkpt lat="43.1254567" lon="13.3384033"><ele>305.0</ele><time>2026-04-18T09:02:53.259Z</time></trkpt><trkpt lat="43.125565" lon="13.3383033"><ele>304.0</ele><time>2026-04-18T09:02:54.259Z</time></trkpt><trkpt lat="43.1256717" lon="13.3382"><ele>303.75</ele><time>2026-04-18T09:02:55.259Z</time></trkpt><trkpt lat="43.1257817" lon="13.3381"><ele>303.5</ele><time>2026-04-18T09:02:56.259Z</time></trkpt><trkpt lat="43.1258983" lon="13.3380017"><ele>303.25</ele><time>2026-04-18T09:02:57.259Z</time></trkpt><trkpt lat="43.1260117" lon="13.3379133"><ele>303.0</ele><time>2026-04-18T09:02:58.259Z</time></trkpt><trkpt lat="43.1261217" lon="13.337815"><ele>302.0</ele><time>2026-04-18T09:02:59.259Z</time></trkpt><trkpt lat="43.1262283" lon="13.3377233"><ele>301.0</ele><time>2026-04-18T09:03:00.259Z</time></trkpt><trkpt lat="43.1263367" lon="13.3376317"><ele>300.0</ele><time>2026-04-18T09:03:01.258Z</time></trkpt><trkpt lat="43.1264433" lon="13.33755"><ele>299.0</ele><time>2026-04-18T09:03:02.259Z</time></trkpt><trkpt lat="43.12654" lon="13.3374733"><ele>299.4</ele><time>2026-04-18T09:03:03.259Z</time></trkpt><trkpt lat="43.1266317" lon="13.3374033"><ele>299.79999999999995</ele><time>2026-04-18T09:03:04.259Z</time></trkpt><trkpt lat="43.1267183" lon="13.3373333"><ele>300.20000000000005</ele><time>2026-04-18T09:03:05.259Z</time></trkpt><trkpt lat="43.1267967" lon="13.3372667"><ele>300.6</ele><time>2026-04-18T09:03:06.259Z</time></trkpt><trkpt lat="43.126875" lon="13.3372133"><ele>301.0</ele><time>2026-04-18T09:03:07.259Z</time></trkpt><trkpt lat="43.126955" lon="13.3371617"><ele>300.16666666666663</ele><time>2026-04-18T09:03:08.259Z</time></trkpt><trkpt lat="43.1270333" lon="13.3371133"><ele>299.3333333333333</ele><time>2026-04-18T09:03:09.259Z</time></trkpt><trkpt lat="43.127105" lon="13.337065"><ele>298.5</ele><time>2026-04-18T09:03:10.259Z</time></trkpt><trkpt lat="43.1271817" lon="13.337015"><ele>297.6666666666667</ele><time>2026-04-18T09:03:11.259Z</time></trkpt><trkpt lat="43.12726" lon="13.3369617"><ele>296.83333333333337</ele><time>2026-04-18T09:03:12.259Z</time></trkpt><trkpt lat="43.127335" lon="13.3369083"><ele>296.0</ele><time>2026-04-18T09:03:13.258Z</time></trkpt><trkpt lat="43.1274133" lon="13.3368567"><ele>295.57142857142856</ele><time>2026-04-18T09:03:14.259Z</time></trkpt><trkpt lat="43.1274883" lon="13.3368017"><ele>295.1428571428571</ele><time>2026-04-18T09:03:15.259Z</time></trkpt><trkpt lat="43.12756" lon="13.3367583"><ele>294.71428571428567</ele><time>2026-04-18T09:03:16.259Z</time></trkpt><trkpt lat="43.1276333" lon="13.3367333"><ele>294.2857142857143</ele><time>2026-04-18T09:03:17.259Z</time></trkpt><trkpt lat="43.1276983" lon="13.3367167"><ele>293.85714285714283</ele><time>2026-04-18T09:03:18.259Z</time></trkpt><trkpt lat="43.1277667" lon="13.336715"><ele>293.4285714285714</ele><time>2026-04-18T09:03:19.259Z</time></trkpt><trkpt lat="43.127835" lon="13.3367067"><ele>293.0</ele><time>2026-04-18T09:03:20.259Z</time></trkpt><trkpt lat="43.12791" lon="13.3367133"><ele>293.0</ele><time>2026-04-18T09:03:21.259Z</time></trkpt><trkpt lat="43.1279767" lon="13.3367117"><ele>293.0</ele><time>2026-04-18T09:03:22.258Z</time></trkpt><trkpt lat="43.128055" lon="13.3367133"><ele>293.0</ele><time>2026-04-18T09:03:23.259Z</time></trkpt><trkpt lat="43.12814" lon="13.3367117"><ele>293.0</ele><time>2026-04-18T09:03:24.259Z</time></trkpt><trkpt lat="43.1282333" lon="13.3367"><ele>293.0</ele><time>2026-04-18T09:03:25.259Z</time></trkpt><trkpt lat="43.1283233" lon="13.3366867"><ele>293.0</ele><time>2026-04-18T09:03:26.259Z</time></trkpt><trkpt lat="43.1284133" lon="13.3366817"><ele>292.1666666666667</ele><time>2026-04-18T09:03:27.259Z</time></trkpt><trkpt lat="43.1284933" lon="13.336665"><ele>291.33333333333337</ele><time>2026-04-18T09:03:28.259Z</time></trkpt><trkpt lat="43.1285717" lon="13.3366467"><ele>290.5</ele><time>2026-04-18T09:03:29.259Z</time></trkpt><trkpt lat="43.128645" lon="13.336635"><ele>289.6666666666667</ele><time>2026-04-18T09:03:30.259Z</time></trkpt><trkpt lat="43.1287167" lon="13.3366317"><ele>288.8333333333333</ele><time>2026-04-18T09:03:31.259Z</time></trkpt><trkpt lat="43.1287917" lon="13.33662"><ele>288.0</ele><time>2026-04-18T09:03:32.259Z</time></trkpt><trkpt lat="43.1288633" lon="13.3366133"><ele>288.0</ele><time>2026-04-18T09:03:33.259Z</time></trkpt><trkpt lat="43.1289417" lon="13.3366017"><ele>288.0</ele><time>2026-04-18T09:03:34.259Z</time></trkpt><trkpt lat="43.1290217" lon="13.33659"><ele>288.0</ele><time>2026-04-18T09:03:35.259Z</time></trkpt><trkpt lat="43.1291" lon="13.3365833"><ele>288.0</ele><time>2026-04-18T09:03:36.259Z</time></trkpt><trkpt lat="43.1291883" lon="13.3365533"><ele>288.0</ele><time>2026-04-18T09:03:37.259Z</time></trkpt><trkpt lat="43.1292767" lon="13.33653"><ele>288.0</ele><time>2026-04-18T09:03:38.259Z</time></trkpt><trkpt lat="43.129375" lon="13.33651"><ele>287.0</ele><time>2026-04-18T09:03:39.258Z</time></trkpt><trkpt lat="43.1294933" lon="13.3364933"><ele>286.0</ele><time>2026-04-18T09:03:40.259Z</time></trkpt><trkpt lat="43.1296083" lon="13.3364817"><ele>285.0</ele><time>2026-04-18T09:03:41.259Z</time></trkpt><trkpt lat="43.1297067" lon="13.33647"><ele>284.0</ele><time>2026-04-18T09:03:42.259Z</time></trkpt><trkpt lat="43.1297933" lon="13.3364583"><ele>283.0</ele><time>2026-04-18T09:03:43.259Z</time></trkpt><trkpt lat="43.1298717" lon="13.3364517"><ele>282.3333333333333</ele><time>2026-04-18T09:03:44.259Z</time></trkpt><trkpt lat="43.1299467" lon="13.33644"><ele>281.66666666666663</ele><time>2026-04-18T09:03:45.259Z</time></trkpt><trkpt lat="43.1300217" lon="13.3364233"><ele>281.0</ele><time>2026-04-18T09:03:46.258Z</time></trkpt><trkpt lat="43.1301067" lon="13.336415"><ele>280.3333333333333</ele><time>2026-04-18T09:03:47.259Z</time></trkpt><trkpt lat="43.1301917" lon="13.3364033"><ele>279.6666666666667</ele><time>2026-04-18T09:03:48.259Z</time></trkpt><trkpt lat="43.13029" lon="13.33639"><ele>279.0</ele><time>2026-04-18T09:03:49.259Z</time></trkpt><trkpt lat="43.1304033" lon="13.3363717"><ele>279.8</ele><time>2026-04-18T09:03:50.259Z</time></trkpt><trkpt lat="43.1305133" lon="13.3363383"><ele>280.59999999999997</ele><time>2026-04-18T09:03:51.259Z</time></trkpt><trkpt lat="43.1306183" lon="13.336295"><ele>281.4</ele><time>2026-04-18T09:03:52.259Z</time></trkpt><trkpt lat="43.1307067" lon="13.3362417"><ele>282.2</ele><time>2026-04-18T09:03:53.259Z</time></trkpt><trkpt lat="43.1307867" lon="13.3361917"><ele>283.0</ele><time>2026-04-18T09:03:54.259Z</time></trkpt><trkpt lat="43.1308667" lon="13.3361467"><ele>283.0</ele><time>2026-04-18T09:03:55.259Z</time></trkpt><trkpt lat="43.1309467" lon="13.3360933"><ele>283.0</ele><time>2026-04-18T09:03:56.259Z</time></trkpt><trkpt lat="43.1310433" lon="13.3360417"><ele>283.0</ele><time>2026-04-18T09:03:57.259Z</time></trkpt><trkpt lat="43.1311417" lon="13.33599"><ele>283.0</ele><time>2026-04-18T09:03:58.259Z</time></trkpt><trkpt lat="43.1312417" lon="13.335945"><ele>283.0</ele><time>2026-04-18T09:03:59.259Z</time></trkpt><trkpt lat="43.1313267" lon="13.3358933"><ele>283.0</ele><time>2026-04-18T09:04:00.259Z</time></trkpt><trkpt lat="43.1314" lon="13.3358283"><ele>283.0</ele><time>2026-04-18T09:04:01.259Z</time></trkpt><trkpt lat="43.1314667" lon="13.3357533"><ele>283.0</ele><time>2026-04-18T09:04:02.259Z</time></trkpt><trkpt lat="43.1315317" lon="13.335675"><ele>283.0</ele><time>2026-04-18T09:04:03.259Z</time></trkpt><trkpt lat="43.131595" lon="13.335595"><ele>283.0</ele><time>2026-04-18T09:04:04.259Z</time></trkpt><trkpt lat="43.1316717" lon="13.33551"><ele>283.0</ele><time>2026-04-18T09:04:05.259Z</time></trkpt><trkpt lat="43.1317583" lon="13.33541"><ele>283.5</ele><time>2026-04-18T09:04:06.259Z</time></trkpt><trkpt lat="43.1318567" lon="13.3353017"><ele>284.0</ele><time>2026-04-18T09:04:07.259Z</time></trkpt><trkpt lat="43.131945" lon="13.3351933"><ele>284.5</ele><time>2026-04-18T09:04:08.259Z</time></trkpt><trkpt lat="43.13203" lon="13.3350933"><ele>285.0</ele><time>2026-04-18T09:04:09.259Z</time></trkpt><trkpt lat="43.132115" lon="13.3350133"><ele>285.0</ele><time>2026-04-18T09:04:10.259Z</time></trkpt><trkpt lat="43.13222" lon="13.3349033"><ele>285.0</ele><time>2026-04-18T09:04:11.259Z</time></trkpt><trkpt lat="43.13233" lon="13.3347983"><ele>285.0</ele><time>2026-04-18T09:04:12.259Z</time></trkpt><trkpt lat="43.132425" lon="13.3347117"><ele>285.0</ele><time>2026-04-18T09:04:13.259Z</time></trkpt><trkpt lat="43.1325183" lon="13.3346267"><ele>284.0</ele><time>2026-04-18T09:04:14.259Z</time></trkpt><trkpt lat="43.1326133" lon="13.3345167"><ele>283.0</ele><time>2026-04-18T09:04:15.259Z</time></trkpt><trkpt lat="43.1327033" lon="13.33441"><ele>282.0</ele><time>2026-04-18T09:04:16.259Z</time></trkpt><trkpt lat="43.1327783" lon="13.3343217"><ele>281.0</ele><time>2026-04-18T09:04:17.259Z</time></trkpt><trkpt lat="43.13285" lon="13.334245"><ele>280.0</ele><time>2026-04-18T09:04:18.258Z</time></trkpt><trkpt lat="43.1329133" lon="13.334175"><ele>280.0</ele><time>2026-04-18T09:04:19.259Z</time></trkpt><trkpt lat="43.1329833" lon="13.3341"><ele>280.0</ele><time>2026-04-18T09:04:20.259Z</time></trkpt><trkpt lat="43.13305" lon="13.33403"><ele>280.0</ele><time>2026-04-18T09:04:21.259Z</time></trkpt><trkpt lat="43.1331117" lon="13.3339633"><ele>280.0</ele><time>2026-04-18T09:04:22.259Z</time></trkpt><trkpt lat="43.1331733" lon="13.3338967"><ele>280.0</ele><time>2026-04-18T09:04:23.259Z</time></trkpt><trkpt lat="43.1332267" lon="13.3338233"><ele>280.0</ele><time>2026-04-18T09:04:24.258Z</time></trkpt><trkpt lat="43.1332883" lon="13.3337617"><ele>279.16666666666663</ele><time>2026-04-18T09:04:25.259Z</time></trkpt><trkpt lat="43.13335" lon="13.3336933"><ele>278.3333333333333</ele><time>2026-04-18T09:04:26.259Z</time></trkpt><trkpt lat="43.1334067" lon="13.3336267"><ele>277.5</ele><time>2026-04-18T09:04:27.259Z</time></trkpt><trkpt lat="43.1334617" lon="13.3335717"><ele>276.6666666666667</ele><time>2026-04-18T09:04:28.259Z</time></trkpt><trkpt lat="43.1335733" lon="13.33348"><ele>275.83333333333337</ele><time>2026-04-18T09:04:30.259Z</time></trkpt><trkpt lat="43.133635" lon="13.3334483"><ele>275.0</ele><time>2026-04-18T09:04:31.259Z</time></trkpt><trkpt lat="43.1337033" lon="13.3334433"><ele>275.0</ele><time>2026-04-18T09:04:32.259Z</time></trkpt><trkpt lat="43.1337733" lon="13.333455"><ele>275.0</ele><time>2026-04-18T09:04:33.259Z</time></trkpt><trkpt lat="43.13384" lon="13.3334683"><ele>275.0</ele><time>2026-04-18T09:04:34.259Z</time></trkpt><trkpt lat="43.133915" lon="13.3335117"><ele>275.0</ele><time>2026-04-18T09:04:35.259Z</time></trkpt><trkpt lat="43.1339983" lon="13.3335733"><ele>275.0</ele><time>2026-04-18T09:04:36.259Z</time></trkpt><trkpt lat="43.1340833" lon="13.333635"><ele>275.0</ele><time>2026-04-18T09:04:37.258Z</time></trkpt><trkpt lat="43.1341733" lon="13.3337017"><ele>273.8</ele><time>2026-04-18T09:04:38.259Z</time></trkpt><trkpt lat="43.1342683" lon="13.3337833"><ele>272.6</ele><time>2026-04-18T09:04:39.258Z</time></trkpt><trkpt lat="43.134365" lon="13.3338633"><ele>271.4</ele><time>2026-04-18T09:04:40.259Z</time></trkpt><trkpt lat="43.1344517" lon="13.33394"><ele>270.2</ele><time>2026-04-18T09:04:41.259Z</time></trkpt><trkpt lat="43.1345417" lon="13.3340083"><ele>269.0</ele><time>2026-04-18T09:04:42.259Z</time></trkpt><trkpt lat="43.13463" lon="13.3340767"><ele>268.8</ele><time>2026-04-18T09:04:43.259Z</time></trkpt><trkpt lat="43.1347167" lon="13.3341433"><ele>268.59999999999997</ele><time>2026-04-18T09:04:44.259Z</time></trkpt><trkpt lat="43.134795" lon="13.33421"><ele>268.4</ele><time>2026-04-18T09:04:45.259Z</time></trkpt><trkpt lat="43.1348683" lon="13.334265"><ele>268.2</ele><time>2026-04-18T09:04:46.259Z</time></trkpt><trkpt lat="43.1349483" lon="13.33432"><ele>268.0</ele><time>2026-04-18T09:04:47.259Z</time></trkpt><trkpt lat="43.13503" lon="13.33437"><ele>268.6</ele><time>2026-04-18T09:04:48.259Z</time></trkpt><trkpt lat="43.13511" lon="13.3344"><ele>269.20000000000005</ele><time>2026-04-18T09:04:49.259Z</time></trkpt><trkpt lat="43.13519" lon="13.3344083"><ele>269.8</ele><time>2026-04-18T09:04:50.259Z</time></trkpt><trkpt lat="43.1352833" lon="13.33439"><ele>270.40000000000003</ele><time>2026-04-18T09:04:51.259Z</time></trkpt><trkpt lat="43.13537" lon="13.33435"><ele>271.0</ele><time>2026-04-18T09:04:52.259Z</time></trkpt><trkpt lat="43.13547" lon="13.334305"><ele>271.0</ele><time>2026-04-18T09:04:53.259Z</time></trkpt><trkpt lat="43.1355667" lon="13.334255"><ele>271.0</ele><time>2026-04-18T09:04:54.259Z</time></trkpt><trkpt lat="43.135665" lon="13.3342017"><ele>271.0</ele><time>2026-04-18T09:04:55.259Z</time></trkpt><trkpt lat="43.135755" lon="13.3341467"><ele>271.0</ele><time>2026-04-18T09:04:56.259Z</time></trkpt><trkpt lat="43.1358567" lon="13.3340833"><ele>271.0</ele><time>2026-04-18T09:04:57.259Z</time></trkpt><trkpt lat="43.13596" lon="13.3340233"><ele>270.40000000000003</ele><time>2026-04-18T09:04:58.259Z</time></trkpt><trkpt lat="43.13607" lon="13.3339733"><ele>269.8</ele><time>2026-04-18T09:04:59.259Z</time></trkpt><trkpt lat="43.1361767" lon="13.33393"><ele>269.20000000000005</ele><time>2026-04-18T09:05:00.259Z</time></trkpt><trkpt lat="43.1362767" lon="13.333885"><ele>268.6</ele><time>2026-04-18T09:05:01.259Z</time></trkpt><trkpt lat="43.1363717" lon="13.3338467"><ele>268.0</ele><time>2026-04-18T09:05:02.259Z</time></trkpt><trkpt lat="43.1364583" lon="13.3338183"><ele>268.0</ele><time>2026-04-18T09:05:03.259Z</time></trkpt><trkpt lat="43.13655" lon="13.3337933"><ele>268.0</ele><time>2026-04-18T09:05:04.259Z</time></trkpt><trkpt lat="43.1366517" lon="13.3337733"><ele>268.0</ele><time>2026-04-18T09:05:05.258Z</time></trkpt><trkpt lat="43.1367467" lon="13.333775"><ele>268.0</ele><time>2026-04-18T09:05:06.259Z</time></trkpt><trkpt lat="43.1368367" lon="13.3337967"><ele>268.0</ele><time>2026-04-18T09:05:07.259Z</time></trkpt><trkpt lat="43.1369283" lon="13.3338267"><ele>267.2</ele><time>2026-04-18T09:05:08.259Z</time></trkpt><trkpt lat="43.1370267" lon="13.3338617"><ele>266.4</ele><time>2026-04-18T09:05:09.259Z</time></trkpt><trkpt lat="43.1371217" lon="13.3339033"><ele>265.59999999999997</ele><time>2026-04-18T09:05:10.259Z</time></trkpt><trkpt lat="43.1372083" lon="13.33394"><ele>264.8</ele><time>2026-04-18T09:05:11.259Z</time></trkpt><trkpt lat="43.1373083" lon="13.3339667"><ele>264.0</ele><time>2026-04-18T09:05:12.259Z</time></trkpt><trkpt lat="43.1374217" lon="13.333965"><ele>263.4</ele><time>2026-04-18T09:05:13.259Z</time></trkpt><trkpt lat="43.1375367" lon="13.3339467"><ele>262.79999999999995</ele><time>2026-04-18T09:05:14.259Z</time></trkpt><trkpt lat="43.1376283" lon="13.33392"><ele>262.20000000000005</ele><time>2026-04-18T09:05:15.259Z</time></trkpt><trkpt lat="43.1377167" lon="13.3339083"><ele>261.6</ele><time>2026-04-18T09:05:16.258Z</time></trkpt><trkpt lat="43.1378067" lon="13.3339033"><ele>261.0</ele><time>2026-04-18T09:05:17.258Z</time></trkpt><trkpt lat="43.1379" lon="13.333915"><ele>261.0</ele><time>2026-04-18T09:05:18.258Z</time></trkpt><trkpt lat="43.138" lon="13.3339333"><ele>261.0</ele><time>2026-04-18T09:05:19.258Z</time></trkpt><trkpt lat="43.1381117" lon="13.3339683"><ele>261.0</ele><time>2026-04-18T09:05:20.258Z</time></trkpt><trkpt lat="43.1382217" lon="13.3340067"><ele>261.0</ele><time>2026-04-18T09:05:21.258Z</time></trkpt><trkpt lat="43.13833" lon="13.3340367"><ele>261.0</ele><time>2026-04-18T09:05:22.258Z</time></trkpt><trkpt lat="43.1384367" lon="13.334055"><ele>260.8</ele><time>2026-04-18T09:05:23.258Z</time></trkpt><trkpt lat="43.13855" lon="13.334055"><ele>260.6</ele><time>2026-04-18T09:05:24.258Z</time></trkpt><trkpt lat="43.1386667" lon="13.3340367"><ele>260.4</ele><time>2026-04-18T09:05:25.258Z</time></trkpt><trkpt lat="43.1387667" lon="13.3339967"><ele>260.2</ele><time>2026-04-18T09:05:26.257Z</time></trkpt><trkpt lat="43.1388617" lon="13.3339383"><ele>260.0</ele><time>2026-04-18T09:05:27.258Z</time></trkpt><trkpt lat="43.13895" lon="13.3338533"><ele>259.2</ele><time>2026-04-18T09:05:28.258Z</time></trkpt><trkpt lat="43.13903" lon="13.3337583"><ele>258.4</ele><time>2026-04-18T09:05:29.258Z</time></trkpt><trkpt lat="43.1391083" lon="13.333665"><ele>257.6</ele><time>2026-04-18T09:05:30.258Z</time></trkpt><trkpt lat="43.139195" lon="13.33357"><ele>256.8</ele><time>2026-04-18T09:05:31.258Z</time></trkpt><trkpt lat="43.139275" lon="13.33347"><ele>256.0</ele><time>2026-04-18T09:05:32.258Z</time></trkpt><trkpt lat="43.139365" lon="13.3333833"><ele>256.0</ele><time>2026-04-18T09:05:33.258Z</time></trkpt><trkpt lat="43.139455" lon="13.3332983"><ele>256.0</ele><time>2026-04-18T09:05:34.258Z</time></trkpt><trkpt lat="43.1395467" lon="13.333215"><ele>256.0</ele><time>2026-04-18T09:05:35.258Z</time></trkpt><trkpt lat="43.139645" lon="13.3331467"><ele>256.0</ele><time>2026-04-18T09:05:36.258Z</time></trkpt><trkpt lat="43.1397633" lon="13.333105"><ele>256.0</ele><time>2026-04-18T09:05:37.258Z</time></trkpt><trkpt lat="43.1398817" lon="13.3330833"><ele>256.0</ele><time>2026-04-18T09:05:38.258Z</time></trkpt><trkpt lat="43.1400083" lon="13.3330717"><ele>256.0</ele><time>2026-04-18T09:05:39.258Z</time></trkpt><trkpt lat="43.14013" lon="13.3330667"><ele>256.0</ele><time>2026-04-18T09:05:40.258Z</time></trkpt><trkpt lat="43.1402583" lon="13.3330667"><ele>255.0</ele><time>2026-04-18T09:05:41.258Z</time></trkpt><trkpt lat="43.1403833" lon="13.333075"><ele>254.0</ele><time>2026-04-18T09:05:42.258Z</time></trkpt><trkpt lat="43.1405083" lon="13.3330817"><ele>253.0</ele><time>2026-04-18T09:05:43.258Z</time></trkpt><trkpt lat="43.1406417" lon="13.3330917"><ele>252.0</ele><time>2026-04-18T09:05:44.258Z</time></trkpt><trkpt lat="43.1407817" lon="13.3330983"><ele>251.75</ele><time>2026-04-18T09:05:45.258Z</time></trkpt><trkpt lat="43.1409317" lon="13.3331117"><ele>251.5</ele><time>2026-04-18T09:05:46.258Z</time></trkpt><trkpt lat="43.1410867" lon="13.3331167"><ele>251.25</ele><time>2026-04-18T09:05:47.258Z</time></trkpt><trkpt lat="43.1412267" lon="13.33313"><ele>251.0</ele><time>2026-04-18T09:05:48.258Z</time></trkpt><trkpt lat="43.141345" lon="13.33314"><ele>251.0</ele><time>2026-04-18T09:05:49.258Z</time></trkpt><trkpt lat="43.14146" lon="13.3331467"><ele>251.00000000000003</ele><time>2026-04-18T09:05:50.258Z</time></trkpt><trkpt lat="43.1415683" lon="13.3331567"><ele>251.00000000000003</ele><time>2026-04-18T09:05:51.258Z</time></trkpt><trkpt lat="43.1416783" lon="13.3331583"><ele>251.0</ele><time>2026-04-18T09:05:52.258Z</time></trkpt><trkpt lat="43.1417933" lon="13.3331667"><ele>251.0</ele><time>2026-04-18T09:05:53.258Z</time></trkpt><trkpt lat="43.1419033" lon="13.3331667"><ele>250.25</ele><time>2026-04-18T09:05:54.258Z</time></trkpt><trkpt lat="43.1420167" lon="13.333165"><ele>249.5</ele><time>2026-04-18T09:05:55.258Z</time></trkpt><trkpt lat="43.1421333" lon="13.3331667"><ele>248.75</ele><time>2026-04-18T09:05:56.258Z</time></trkpt><trkpt lat="43.1422567" lon="13.33317"><ele>248.0</ele><time>2026-04-18T09:05:57.258Z</time></trkpt><trkpt lat="43.1423783" lon="13.3331817"><ele>247.75</ele><time>2026-04-18T09:05:58.258Z</time></trkpt><trkpt lat="43.1425033" lon="13.3331933"><ele>247.5</ele><time>2026-04-18T09:05:59.258Z</time></trkpt><trkpt lat="43.14263" lon="13.3332033"><ele>247.25</ele><time>2026-04-18T09:06:00.258Z</time></trkpt><trkpt lat="43.1427433" lon="13.33321"><ele>247.0</ele><time>2026-04-18T09:06:01.258Z</time></trkpt><trkpt lat="43.1428433" lon="13.33322"><ele>247.0</ele><time>2026-04-18T09:06:02.258Z</time></trkpt><trkpt lat="43.1429333" lon="13.3332333"><ele>247.0</ele><time>2026-04-18T09:06:03.258Z</time></trkpt><trkpt lat="43.1430117" lon="13.3332317"><ele>247.0</ele><time>2026-04-18T09:06:04.258Z</time></trkpt><trkpt lat="43.143085" lon="13.33323"><ele>247.0</ele><time>2026-04-18T09:06:05.258Z</time></trkpt><trkpt lat="43.143185" lon="13.33315"><ele>247.0</ele><time>2026-04-18T09:06:07.258Z</time></trkpt><trkpt lat="43.1432317" lon="13.333005"><ele>247.16666666666666</ele><time>2026-04-18T09:06:09.258Z</time></trkpt><trkpt lat="43.14325" lon="13.3329083"><ele>247.33333333333331</ele><time>2026-04-18T09:06:10.258Z</time></trkpt><trkpt lat="43.14327" lon="13.3328017"><ele>247.5</ele><time>2026-04-18T09:06:11.258Z</time></trkpt><trkpt lat="43.143285" lon="13.3326883"><ele>247.66666666666669</ele><time>2026-04-18T09:06:12.258Z</time></trkpt><trkpt lat="43.1432983" lon="13.33257"><ele>247.83333333333334</ele><time>2026-04-18T09:06:13.258Z</time></trkpt><trkpt lat="43.1433083" lon="13.3324467"><ele>248.0</ele><time>2026-04-18T09:06:14.258Z</time></trkpt><trkpt lat="43.1433133" lon="13.3323233"><ele>250.0</ele><time>2026-04-18T09:06:15.258Z</time></trkpt><trkpt lat="43.1433067" lon="13.332195"><ele>252.0</ele><time>2026-04-18T09:06:16.258Z</time></trkpt><trkpt lat="43.14329" lon="13.332075"><ele>254.0</ele><time>2026-04-18T09:06:17.258Z</time></trkpt><trkpt lat="43.1432683" lon="13.3319567"><ele>256.0</ele><time>2026-04-18T09:06:18.258Z</time></trkpt><trkpt lat="43.1432367" lon="13.3318383"><ele>258.0</ele><time>2026-04-18T09:06:19.258Z</time></trkpt><trkpt lat="43.143185" lon="13.3317317"><ele>259.6</ele><time>2026-04-18T09:06:20.258Z</time></trkpt><trkpt lat="43.14312" lon="13.331635"><ele>261.20000000000005</ele><time>2026-04-18T09:06:21.258Z</time></trkpt><trkpt lat="43.14304" lon="13.331555"><ele>262.8</ele><time>2026-04-18T09:06:22.258Z</time></trkpt><trkpt lat="43.14296" lon="13.3314883"><ele>264.40000000000003</ele><time>2026-04-18T09:06:23.258Z</time></trkpt><trkpt lat="43.142885" lon="13.331425"><ele>266.0</ele><time>2026-04-18T09:06:24.258Z</time></trkpt><trkpt lat="43.14281" lon="13.331355"><ele>268.0</ele><time>2026-04-18T09:06:25.258Z</time></trkpt><trkpt lat="43.1427417" lon="13.3312817"><ele>270.0</ele><time>2026-04-18T09:06:26.258Z</time></trkpt><trkpt lat="43.1426733" lon="13.3312133"><ele>272.0</ele><time>2026-04-18T09:06:27.258Z</time></trkpt><trkpt lat="43.1426117" lon="13.33114"><ele>274.0</ele><time>2026-04-18T09:06:28.258Z</time></trkpt><trkpt lat="43.1425617" lon="13.3310567"><ele>276.0</ele><time>2026-04-18T09:06:29.258Z</time></trkpt><trkpt lat="43.142525" lon="13.33096"><ele>278.0</ele><time>2026-04-18T09:06:30.258Z</time></trkpt><trkpt lat="43.1424983" lon="13.3308583"><ele>278.0</ele><time>2026-04-18T09:06:31.258Z</time></trkpt><trkpt lat="43.1424883" lon="13.3307183"><ele>278.0</ele><time>2026-04-18T09:06:32.258Z</time></trkpt><trkpt lat="43.1424767" lon="13.3305633"><ele>278.0</ele><time>2026-04-18T09:06:33.257Z</time></trkpt><trkpt lat="43.1424667" lon="13.330395"><ele>278.0</ele><time>2026-04-18T09:06:34.258Z</time></trkpt><trkpt lat="43.1424567" lon="13.330225"><ele>279.5</ele><time>2026-04-18T09:06:35.258Z</time></trkpt><trkpt lat="43.1424467" lon="13.33006"><ele>281.0</ele><time>2026-04-18T09:06:36.258Z</time></trkpt><trkpt lat="43.1424367" lon="13.3298867"><ele>282.5</ele><time>2026-04-18T09:06:37.258Z</time></trkpt><trkpt lat="43.1424333" lon="13.3297083"><ele>284.0</ele><time>2026-04-18T09:06:38.258Z</time></trkpt><trkpt lat="43.1424317" lon="13.32954"><ele>285.5</ele><time>2026-04-18T09:06:39.258Z</time></trkpt><trkpt lat="43.142435" lon="13.3293817"><ele>287.0</ele><time>2026-04-18T09:06:40.258Z</time></trkpt><trkpt lat="43.14243" lon="13.32923"><ele>288.5</ele><time>2026-04-18T09:06:41.258Z</time></trkpt><trkpt lat="43.142415" lon="13.3290767"><ele>290.0</ele><time>2026-04-18T09:06:42.258Z</time></trkpt><trkpt lat="43.1424017" lon="13.3289233"><ele>290.0</ele><time>2026-04-18T09:06:43.258Z</time></trkpt><trkpt lat="43.1423817" lon="13.3287667"><ele>290.0</ele><time>2026-04-18T09:06:44.258Z</time></trkpt><trkpt lat="43.14236" lon="13.3286"><ele>290.0</ele><time>2026-04-18T09:06:45.257Z</time></trkpt><trkpt lat="43.1423433" lon="13.3284233"><ele>290.0</ele><time>2026-04-18T09:06:46.258Z</time></trkpt><trkpt lat="43.1423433" lon="13.3282333"><ele>290.5</ele><time>2026-04-18T09:06:47.258Z</time></trkpt><trkpt lat="43.1423517" lon="13.3280533"><ele>291.0</ele><time>2026-04-18T09:06:48.258Z</time></trkpt><trkpt lat="43.14236" lon="13.32789"><ele>291.5</ele><time>2026-04-18T09:06:49.258Z</time></trkpt><trkpt lat="43.142375" lon="13.3277467"><ele>292.0</ele><time>2026-04-18T09:06:50.258Z</time></trkpt><trkpt lat="43.1423933" lon="13.3276067"><ele>292.0</ele><time>2026-04-18T09:06:51.258Z</time></trkpt><trkpt lat="43.1424233" lon="13.3274767"><ele>292.0</ele><time>2026-04-18T09:06:52.257Z</time></trkpt><trkpt lat="43.1424483" lon="13.3273483"><ele>292.0</ele><time>2026-04-18T09:06:53.258Z</time></trkpt><trkpt lat="43.14246" lon="13.3272217"><ele>292.0</ele><time>2026-04-18T09:06:54.258Z</time></trkpt><trkpt lat="43.1424633" lon="13.3271183"><ele>292.0</ele><time>2026-04-18T09:06:55.258Z</time></trkpt><trkpt lat="43.14245" lon="13.327005"><ele>292.0</ele><time>2026-04-18T09:06:56.258Z</time></trkpt><trkpt lat="43.1424133" lon="13.3268917"><ele>292.2</ele><time>2026-04-18T09:06:57.258Z</time></trkpt><trkpt lat="43.1423617" lon="13.3267967"><ele>292.4</ele><time>2026-04-18T09:06:58.258Z</time></trkpt><trkpt lat="43.1422983" lon="13.3266917"><ele>292.6</ele><time>2026-04-18T09:06:59.258Z</time></trkpt><trkpt lat="43.1422267" lon="13.326575"><ele>292.8</ele><time>2026-04-18T09:07:00.258Z</time></trkpt><trkpt lat="43.142165" lon="13.3264717"><ele>293.0</ele><time>2026-04-18T09:07:01.257Z</time></trkpt><trkpt lat="43.1421233" lon="13.3263683"><ele>294.6666666666667</ele><time>2026-04-18T09:07:02.258Z</time></trkpt><trkpt lat="43.1420917" lon="13.326255"><ele>296.33333333333337</ele><time>2026-04-18T09:07:03.258Z</time></trkpt><trkpt lat="43.1420783" lon="13.3261433"><ele>298.0</ele><time>2026-04-18T09:07:04.258Z</time></trkpt><trkpt lat="43.14207" lon="13.3260317"><ele>299.6666666666667</ele><time>2026-04-18T09:07:05.258Z</time></trkpt><trkpt lat="43.1420683" lon="13.3259217"><ele>301.3333333333333</ele><time>2026-04-18T09:07:06.258Z</time></trkpt><trkpt lat="43.14208" lon="13.3258033"><ele>303.0</ele><time>2026-04-18T09:07:07.258Z</time></trkpt><trkpt lat="43.1421033" lon="13.3256867"><ele>303.8</ele><time>2026-04-18T09:07:08.258Z</time></trkpt><trkpt lat="43.142145" lon="13.32556"><ele>304.6</ele><time>2026-04-18T09:07:09.258Z</time></trkpt><trkpt lat="43.1421783" lon="13.32542"><ele>305.4</ele><time>2026-04-18T09:07:10.258Z</time></trkpt><trkpt lat="43.142215" lon="13.3252833"><ele>306.2</ele><time>2026-04-18T09:07:11.258Z</time></trkpt><trkpt lat="43.142265" lon="13.3251517"><ele>307.0</ele><time>2026-04-18T09:07:12.258Z</time></trkpt><trkpt lat="43.14232" lon="13.3250183"><ele>307.0</ele><time>2026-04-18T09:07:13.258Z</time></trkpt><trkpt lat="43.1423667" lon="13.3249017"><ele>307.0</ele><time>2026-04-18T09:07:14.258Z</time></trkpt><trkpt lat="43.1423967" lon="13.324785"><ele>307.0</ele><time>2026-04-18T09:07:15.258Z</time></trkpt><trkpt lat="43.142405" lon="13.324655"><ele>307.0</ele><time>2026-04-18T09:07:16.258Z</time></trkpt><trkpt lat="43.142405" lon="13.3245067"><ele>307.0</ele><time>2026-04-18T09:07:17.258Z</time></trkpt><trkpt lat="43.142395" lon="13.32432"><ele>311.75</ele><time>2026-04-18T09:07:18.258Z</time></trkpt><trkpt lat="43.1423983" lon="13.3241333"><ele>316.5</ele><time>2026-04-18T09:07:19.258Z</time></trkpt><trkpt lat="43.14241" lon="13.3239483"><ele>321.25</ele><time>2026-04-18T09:07:20.258Z</time></trkpt><trkpt lat="43.142415" lon="13.3237767"><ele>326.0</ele><time>2026-04-18T09:07:21.258Z</time></trkpt><trkpt lat="43.1424267" lon="13.3236433"><ele>326.0</ele><time>2026-04-18T09:07:22.258Z</time></trkpt><trkpt lat="43.142425" lon="13.3235267"><ele>326.0</ele><time>2026-04-18T09:07:23.258Z</time></trkpt><trkpt lat="43.1424133" lon="13.3234117"><ele>326.0</ele><time>2026-04-18T09:07:24.258Z</time></trkpt><trkpt lat="43.1423767" lon="13.32329"><ele>326.0</ele><time>2026-04-18T09:07:25.258Z</time></trkpt><trkpt lat="43.14233" lon="13.3231633"><ele>326.0</ele><time>2026-04-18T09:07:26.258Z</time></trkpt><trkpt lat="43.142285" lon="13.3230167"><ele>327.20000000000005</ele><time>2026-04-18T09:07:27.258Z</time></trkpt><trkpt lat="43.1422567" lon="13.3228667"><ele>328.40000000000003</ele><time>2026-04-18T09:07:28.258Z</time></trkpt><trkpt lat="43.1422567" lon="13.3227017"><ele>329.6</ele><time>2026-04-18T09:07:29.258Z</time></trkpt><trkpt lat="43.1422617" lon="13.322545"><ele>330.8</ele><time>2026-04-18T09:07:30.258Z</time></trkpt><trkpt lat="43.142265" lon="13.322415"><ele>332.0</ele><time>2026-04-18T09:07:31.258Z</time></trkpt><trkpt lat="43.142265" lon="13.322255"><ele>332.5</ele><time>2026-04-18T09:07:32.258Z</time></trkpt><trkpt lat="43.1422767" lon="13.3220883"><ele>333.0</ele><time>2026-04-18T09:07:33.258Z</time></trkpt><trkpt lat="43.1422917" lon="13.3219117"><ele>333.5</ele><time>2026-04-18T09:07:34.258Z</time></trkpt><trkpt lat="43.14232" lon="13.3217383"><ele>334.0</ele><time>2026-04-18T09:07:35.258Z</time></trkpt><trkpt lat="43.14235" lon="13.3215767"><ele>335.75</ele><time>2026-04-18T09:07:36.258Z</time></trkpt><trkpt lat="43.1423817" lon="13.32141"><ele>337.5</ele><time>2026-04-18T09:07:37.258Z</time></trkpt><trkpt lat="43.14241" lon="13.321235"><ele>339.25</ele><time>2026-04-18T09:07:38.258Z</time></trkpt><trkpt lat="43.14244" lon="13.3210583"><ele>341.0</ele><time>2026-04-18T09:07:39.258Z</time></trkpt><trkpt lat="43.14247" lon="13.3208883"><ele>342.20000000000005</ele><time>2026-04-18T09:07:40.258Z</time></trkpt><trkpt lat="43.1424933" lon="13.320725"><ele>343.40000000000003</ele><time>2026-04-18T09:07:41.258Z</time></trkpt><trkpt lat="43.142515" lon="13.3205817"><ele>344.6</ele><time>2026-04-18T09:07:42.258Z</time></trkpt><trkpt lat="43.142525" lon="13.3204417"><ele>345.8</ele><time>2026-04-18T09:07:43.258Z</time></trkpt><trkpt lat="43.1425233" lon="13.3202967"><ele>347.0</ele><time>2026-04-18T09:07:44.258Z</time></trkpt><trkpt lat="43.1425033" lon="13.3201417"><ele>348.6</ele><time>2026-04-18T09:07:45.258Z</time></trkpt><trkpt lat="43.1424767" lon="13.3199983"><ele>350.20000000000005</ele><time>2026-04-18T09:07:46.258Z</time></trkpt><trkpt lat="43.1424533" lon="13.3198617"><ele>351.8</ele><time>2026-04-18T09:07:47.258Z</time></trkpt><trkpt lat="43.1424283" lon="13.3197283"><ele>353.4</ele><time>2026-04-18T09:07:48.258Z</time></trkpt><trkpt lat="43.1424067" lon="13.319605"><ele>355.0</ele><time>2026-04-18T09:07:49.258Z</time></trkpt><trkpt lat="43.1423883" lon="13.3195033"><ele>356.0</ele><time>2026-04-18T09:07:50.258Z</time></trkpt><trkpt lat="43.1423733" lon="13.3193983"><ele>357.0</ele><time>2026-04-18T09:07:51.258Z</time></trkpt><trkpt lat="43.1423583" lon="13.3192967"><ele>358.0</ele><time>2026-04-18T09:07:52.258Z</time></trkpt><trkpt lat="43.142355" lon="13.3191967"><ele>359.0</ele><time>2026-04-18T09:07:53.258Z</time></trkpt><trkpt lat="43.1423617" lon="13.319095"><ele>360.0</ele><time>2026-04-18T09:07:54.258Z</time></trkpt><trkpt lat="43.14239" lon="13.318995"><ele>361.0</ele><time>2026-04-18T09:07:55.258Z</time></trkpt><trkpt lat="43.14243" lon="13.3188883"><ele>361.4</ele><time>2026-04-18T09:07:56.258Z</time></trkpt><trkpt lat="43.1424683" lon="13.31877"><ele>361.8</ele><time>2026-04-18T09:07:57.258Z</time></trkpt><trkpt lat="43.1424907" lon="13.3186437"><ele>362.2</ele><time>2026-04-18T09:07:58.258Z</time></trkpt><trkpt lat="43.1424931" lon="13.3185019"><ele>362.59999999999997</ele><time>2026-04-18T09:07:59.258Z</time></trkpt><trkpt lat="43.1424882" lon="13.3183729"><ele>363.0</ele><time>2026-04-18T09:08:00.258Z</time></trkpt><trkpt lat="43.1424872" lon="13.3182558"><ele>363.0</ele><time>2026-04-18T09:08:01.258Z</time></trkpt><trkpt lat="43.1424864" lon="13.3181448"><ele>363.0</ele><time>2026-04-18T09:08:02.258Z</time></trkpt><trkpt lat="43.1424811" lon="13.3180266"><ele>363.0</ele><time>2026-04-18T09:08:03.258Z</time></trkpt><trkpt lat="43.1424777" lon="13.3179122"><ele>363.0</ele><time>2026-04-18T09:08:04.258Z</time></trkpt><trkpt lat="43.1424796" lon="13.3178106"><ele>363.0</ele><time>2026-04-18T09:08:05.258Z</time></trkpt><trkpt lat="43.1424768" lon="13.3176885"><ele>363.0</ele><time>2026-04-18T09:08:06.258Z</time></trkpt><trkpt lat="43.142475" lon="13.3175362"><ele>363.0</ele><time>2026-04-18T09:08:07.258Z</time></trkpt><trkpt lat="43.1424732" lon="13.3173608"><ele>363.0</ele><time>2026-04-18T09:08:08.258Z</time></trkpt><trkpt lat="43.1424658" lon="13.3171922"><ele>363.0</ele><time>2026-04-18T09:08:09.258Z</time></trkpt><trkpt lat="43.1424664" lon="13.3170342"><ele>363.0</ele><time>2026-04-18T09:08:10.258Z</time></trkpt><trkpt lat="43.1424683" lon="13.3168981"><ele>364.0</ele><time>2026-04-18T09:08:11.258Z</time></trkpt><trkpt lat="43.1424654" lon="13.3167671"><ele>365.0</ele><time>2026-04-18T09:08:12.258Z</time></trkpt><trkpt lat="43.142464" lon="13.316627"><ele>366.0</ele><time>2026-04-18T09:08:13.258Z</time></trkpt><trkpt lat="43.1424635" lon="13.3164842"><ele>367.0</ele><time>2026-04-18T09:08:14.257Z</time></trkpt><trkpt lat="43.1424611" lon="13.3163508"><ele>368.0</ele><time>2026-04-18T09:08:15.258Z</time></trkpt><trkpt lat="43.1424578" lon="13.3162186"><ele>368.0</ele><time>2026-04-18T09:08:16.258Z</time></trkpt><trkpt lat="43.1424609" lon="13.316098"><ele>368.0</ele><time>2026-04-18T09:08:17.258Z</time></trkpt><trkpt lat="43.1424635" lon="13.3159753"><ele>368.0</ele><time>2026-04-18T09:08:18.258Z</time></trkpt><trkpt lat="43.1424677" lon="13.315847"><ele>368.0</ele><time>2026-04-18T09:08:19.258Z</time></trkpt><trkpt lat="43.1424551" lon="13.3157057"><ele>368.0</ele><time>2026-04-18T09:08:20.258Z</time></trkpt><trkpt lat="43.1424332" lon="13.31555"><ele>368.0</ele><time>2026-04-18T09:08:21.258Z</time></trkpt><trkpt lat="43.1424071" lon="13.3153962"><ele>368.0</ele><time>2026-04-18T09:08:22.258Z</time></trkpt><trkpt lat="43.1423786" lon="13.3152461"><ele>368.0</ele><time>2026-04-18T09:08:23.258Z</time></trkpt><trkpt lat="43.1423428" lon="13.315095"><ele>368.0</ele><time>2026-04-18T09:08:24.258Z</time></trkpt><trkpt lat="43.1423023" lon="13.3149307"><ele>367.75</ele><time>2026-04-18T09:08:25.258Z</time></trkpt><trkpt lat="43.1422597" lon="13.3147551"><ele>367.5</ele><time>2026-04-18T09:08:26.258Z</time></trkpt><trkpt lat="43.1422222" lon="13.3145746"><ele>367.25</ele><time>2026-04-18T09:08:27.258Z</time></trkpt><trkpt lat="43.1421885" lon="13.3144011"><ele>367.0</ele><time>2026-04-18T09:08:28.257Z</time></trkpt><trkpt lat="43.1421548" lon="13.3142375"><ele>368.25</ele><time>2026-04-18T09:08:29.258Z</time></trkpt><trkpt lat="43.1421225" lon="13.3140828"><ele>369.5</ele><time>2026-04-18T09:08:30.258Z</time></trkpt><trkpt lat="43.1420889" lon="13.3139234"><ele>370.75</ele><time>2026-04-18T09:08:31.258Z</time></trkpt><trkpt lat="43.1420432" lon="13.313764"><ele>372.0</ele><time>2026-04-18T09:08:32.258Z</time></trkpt><trkpt lat="43.1419868" lon="13.3136102"><ele>372.75</ele><time>2026-04-18T09:08:33.258Z</time></trkpt><trkpt lat="43.1419211" lon="13.3134684"><ele>373.5</ele><time>2026-04-18T09:08:34.258Z</time></trkpt><trkpt lat="43.1418604" lon="13.3133397"><ele>374.25</ele><time>2026-04-18T09:08:35.257Z</time></trkpt><trkpt lat="43.1417975" lon="13.3132108"><ele>375.0</ele><time>2026-04-18T09:08:36.258Z</time></trkpt><trkpt lat="43.1417347" lon="13.3130708"><ele>375.0</ele><time>2026-04-18T09:08:37.258Z</time></trkpt><trkpt lat="43.1416695" lon="13.3129269"><ele>375.0</ele><time>2026-04-18T09:08:38.258Z</time></trkpt><trkpt lat="43.1416016" lon="13.3127759"><ele>375.0</ele><time>2026-04-18T09:08:39.258Z</time></trkpt><trkpt lat="43.1415387" lon="13.3126414"><ele>375.0</ele><time>2026-04-18T09:08:40.258Z</time></trkpt><trkpt lat="43.1414786" lon="13.3125191"><ele>375.0</ele><time>2026-04-18T09:08:41.258Z</time></trkpt><trkpt lat="43.1414177" lon="13.3124026"><ele>375.0</ele><time>2026-04-18T09:08:42.258Z</time></trkpt><trkpt lat="43.1413542" lon="13.3122851"><ele>375.0</ele><time>2026-04-18T09:08:43.258Z</time></trkpt><trkpt lat="43.1412924" lon="13.3121789"><ele>375.0</ele><time>2026-04-18T09:08:44.258Z</time></trkpt><trkpt lat="43.1412284" lon="13.3120779"><ele>375.0</ele><time>2026-04-18T09:08:45.258Z</time></trkpt><trkpt lat="43.1411712" lon="13.311989"><ele>376.5</ele><time>2026-04-18T09:08:46.258Z</time></trkpt><trkpt lat="43.1411169" lon="13.3119005"><ele>378.0</ele><time>2026-04-18T09:08:47.258Z</time></trkpt><trkpt lat="43.1410615" lon="13.3118106"><ele>379.5</ele><time>2026-04-18T09:08:48.258Z</time></trkpt><trkpt lat="43.1410166" lon="13.3117344"><ele>381.0</ele><time>2026-04-18T09:08:49.258Z</time></trkpt><trkpt lat="43.140951" lon="13.3116281"><ele>382.5</ele><time>2026-04-18T09:08:51.258Z</time></trkpt><trkpt lat="43.1409067" lon="13.3115533"><ele>384.0</ele><time>2026-04-18T09:08:53.258Z</time></trkpt><trkpt lat="43.1408433" lon="13.311455"><ele>385.0</ele><time>2026-04-18T09:08:55.258Z</time></trkpt><trkpt lat="43.140795" lon="13.3113533"><ele>386.0</ele><time>2026-04-18T09:08:58.258Z</time></trkpt><trkpt lat="43.1406767" lon="13.3112883"><ele>387.0</ele><time>2026-04-18T09:09:00.258Z</time></trkpt><trkpt lat="43.14059" lon="13.311235"><ele>388.0</ele><time>2026-04-18T09:09:01.258Z</time></trkpt><trkpt lat="43.1404883" lon="13.3111783"><ele>389.0</ele><time>2026-04-18T09:09:02.257Z</time></trkpt><trkpt lat="43.1403683" lon="13.31111"><ele>389.0</ele><time>2026-04-18T09:09:03.258Z</time></trkpt><trkpt lat="43.1402433" lon="13.3110333"><ele>389.0</ele><time>2026-04-18T09:09:04.258Z</time></trkpt><trkpt lat="43.1401133" lon="13.3109517"><ele>389.0</ele><time>2026-04-18T09:09:05.258Z</time></trkpt><trkpt lat="43.1399817" lon="13.310865"><ele>389.0</ele><time>2026-04-18T09:09:06.258Z</time></trkpt><trkpt lat="43.13985" lon="13.3107867"><ele>389.0</ele><time>2026-04-18T09:09:07.258Z</time></trkpt><trkpt lat="43.139715" lon="13.3107133"><ele>389.0</ele><time>2026-04-18T09:09:08.258Z</time></trkpt><trkpt lat="43.1395817" lon="13.31063"><ele>389.0</ele><time>2026-04-18T09:09:09.258Z</time></trkpt><trkpt lat="43.13946" lon="13.3105633"><ele>389.0</ele><time>2026-04-18T09:09:10.258Z</time></trkpt><trkpt lat="43.13934" lon="13.3105"><ele>389.0</ele><time>2026-04-18T09:09:11.258Z</time></trkpt><trkpt lat="43.13922" lon="13.310425"><ele>389.0</ele><time>2026-04-18T09:09:12.258Z</time></trkpt><trkpt lat="43.1390933" lon="13.3103317"><ele>389.0</ele><time>2026-04-18T09:09:13.258Z</time></trkpt><trkpt lat="43.1389633" lon="13.3102183"><ele>389.0</ele><time>2026-04-18T09:09:14.258Z</time></trkpt><trkpt lat="43.13882" lon="13.310085"><ele>388.3333333333333</ele><time>2026-04-18T09:09:15.258Z</time></trkpt><trkpt lat="43.13868" lon="13.3099517"><ele>387.66666666666663</ele><time>2026-04-18T09:09:16.258Z</time></trkpt><trkpt lat="43.138535" lon="13.3098167"><ele>387.0</ele><time>2026-04-18T09:09:17.258Z</time></trkpt><trkpt lat="43.1383983" lon="13.309685"><ele>387.0</ele><time>2026-04-18T09:09:18.258Z</time></trkpt><trkpt lat="43.138255" lon="13.3095517"><ele>387.0</ele><time>2026-04-18T09:09:19.258Z</time></trkpt><trkpt lat="43.13812" lon="13.309425"><ele>387.0</ele><time>2026-04-18T09:09:20.258Z</time></trkpt><trkpt lat="43.1379867" lon="13.3092917"><ele>383.3333333333333</ele><time>2026-04-18T09:09:21.258Z</time></trkpt><trkpt lat="43.1378567" lon="13.3091667"><ele>379.66666666666663</ele><time>2026-04-18T09:09:22.258Z</time></trkpt><trkpt lat="43.1377367" lon="13.3090517"><ele>376.0</ele><time>2026-04-18T09:09:23.258Z</time></trkpt><trkpt lat="43.1376183" lon="13.3089383"><ele>375.66666666666663</ele><time>2026-04-18T09:09:24.258Z</time></trkpt><trkpt lat="43.1374917" lon="13.308815"><ele>375.3333333333333</ele><time>2026-04-18T09:09:25.258Z</time></trkpt><trkpt lat="43.1373567" lon="13.308705"><ele>375.0</ele><time>2026-04-18T09:09:26.258Z</time></trkpt><trkpt lat="43.13721" lon="13.3085983"><ele>375.0</ele><time>2026-04-18T09:09:27.258Z</time></trkpt><trkpt lat="43.1370683" lon="13.3085083"><ele>375.0</ele><time>2026-04-18T09:09:28.258Z</time></trkpt><trkpt lat="43.1369283" lon="13.3084217"><ele>375.0</ele><time>2026-04-18T09:09:29.258Z</time></trkpt><trkpt lat="43.1367917" lon="13.3083467"><ele>375.0</ele><time>2026-04-18T09:09:30.258Z</time></trkpt><trkpt lat="43.1366517" lon="13.3082717"><ele>375.0</ele><time>2026-04-18T09:09:31.258Z</time></trkpt><trkpt lat="43.1365167" lon="13.3082033"><ele>375.0</ele><time>2026-04-18T09:09:32.258Z</time></trkpt><trkpt lat="43.13638" lon="13.308135"><ele>375.0</ele><time>2026-04-18T09:09:33.258Z</time></trkpt><trkpt lat="43.1362567" lon="13.308065"><ele>374.2</ele><time>2026-04-18T09:09:34.258Z</time></trkpt><trkpt lat="43.136145" lon="13.3080117"><ele>373.4</ele><time>2026-04-18T09:09:35.258Z</time></trkpt><trkpt lat="43.13604" lon="13.3079783"><ele>372.6</ele><time>2026-04-18T09:09:36.258Z</time></trkpt><trkpt lat="43.1359367" lon="13.3079767"><ele>371.8</ele><time>2026-04-18T09:09:37.258Z</time></trkpt><trkpt lat="43.1358533" lon="13.308025"><ele>371.0</ele><time>2026-04-18T09:09:38.258Z</time></trkpt><trkpt lat="43.1357917" lon="13.308105"><ele>370.8</ele><time>2026-04-18T09:09:39.258Z</time></trkpt><trkpt lat="43.135745" lon="13.30819"><ele>370.6</ele><time>2026-04-18T09:09:40.258Z</time></trkpt><trkpt lat="43.135695" lon="13.3082667"><ele>370.4</ele><time>2026-04-18T09:09:41.258Z</time></trkpt><trkpt lat="43.13562" lon="13.308335"><ele>370.2</ele><time>2026-04-18T09:09:42.258Z</time></trkpt><trkpt lat="43.1355233" lon="13.3083867"><ele>370.0</ele><time>2026-04-18T09:09:43.258Z</time></trkpt><trkpt lat="43.1354033" lon="13.3084367"><ele>370.0</ele><time>2026-04-18T09:09:44.258Z</time></trkpt><trkpt lat="43.135275" lon="13.30848"><ele>370.0</ele><time>2026-04-18T09:09:45.258Z</time></trkpt><trkpt lat="43.1351383" lon="13.3085167"><ele>370.0</ele><time>2026-04-18T09:09:46.258Z</time></trkpt><trkpt lat="43.1350017" lon="13.308555"><ele>370.0</ele><time>2026-04-18T09:09:47.258Z</time></trkpt><trkpt lat="43.1348717" lon="13.3085883"><ele>371.0</ele><time>2026-04-18T09:09:48.258Z</time></trkpt><trkpt lat="43.134755" lon="13.3086183"><ele>372.0</ele><time>2026-04-18T09:09:49.258Z</time></trkpt><trkpt lat="43.1346517" lon="13.308645"><ele>373.0</ele><time>2026-04-18T09:09:50.258Z</time></trkpt><trkpt lat="43.1345583" lon="13.3086733"><ele>374.0</ele><time>2026-04-18T09:09:51.258Z</time></trkpt><trkpt lat="43.13447" lon="13.30869"><ele>375.0</ele><time>2026-04-18T09:09:52.258Z</time></trkpt><trkpt lat="43.134395" lon="13.3086733"><ele>375.0</ele><time>2026-04-18T09:09:53.258Z</time></trkpt><trkpt lat="43.1343317" lon="13.3086217"><ele>375.0</ele><time>2026-04-18T09:09:54.257Z</time></trkpt><trkpt lat="43.134275" lon="13.3085333"><ele>375.0</ele><time>2026-04-18T09:09:55.258Z</time></trkpt><trkpt lat="43.1342417" lon="13.3084317"><ele>375.0</ele><time>2026-04-18T09:09:56.258Z</time></trkpt><trkpt lat="43.1342217" lon="13.30831"><ele>375.0</ele><time>2026-04-18T09:09:57.258Z</time></trkpt><trkpt lat="43.1342017" lon="13.3082"><ele>375.0</ele><time>2026-04-18T09:09:58.258Z</time></trkpt><trkpt lat="43.1341783" lon="13.3080983"><ele>374.4</ele><time>2026-04-18T09:09:59.258Z</time></trkpt><trkpt lat="43.13414" lon="13.308"><ele>373.8</ele><time>2026-04-18T09:10:00.258Z</time></trkpt><trkpt lat="43.134095" lon="13.3078933"><ele>373.20000000000005</ele><time>2026-04-18T09:10:01.258Z</time></trkpt><trkpt lat="43.1340417" lon="13.30778"><ele>372.6</ele><time>2026-04-18T09:10:02.258Z</time></trkpt><trkpt lat="43.1339917" lon="13.3076583"><ele>372.0</ele><time>2026-04-18T09:10:03.258Z</time></trkpt><trkpt lat="43.1339483" lon="13.307535"><ele>372.0</ele><time>2026-04-18T09:10:04.258Z</time></trkpt><trkpt lat="43.1339117" lon="13.3074"><ele>372.0</ele><time>2026-04-18T09:10:05.258Z</time></trkpt><trkpt lat="43.133875" lon="13.30726"><ele>372.0</ele><time>2026-04-18T09:10:06.258Z</time></trkpt><trkpt lat="43.13384" lon="13.307125"><ele>372.0</ele><time>2026-04-18T09:10:07.258Z</time></trkpt><trkpt lat="43.1338067" lon="13.3069883"><ele>372.0</ele><time>2026-04-18T09:10:08.258Z</time></trkpt><trkpt lat="43.1337567" lon="13.3068467"><ele>372.0</ele><time>2026-04-18T09:10:09.258Z</time></trkpt><trkpt lat="43.1336983" lon="13.30671"><ele>372.0</ele><time>2026-04-18T09:10:10.258Z</time></trkpt><trkpt lat="43.1336467" lon="13.3065767"><ele>372.0</ele><time>2026-04-18T09:10:11.258Z</time></trkpt><trkpt lat="43.1335967" lon="13.3064633"><ele>372.0</ele><time>2026-04-18T09:10:12.258Z</time></trkpt><trkpt lat="43.1335517" lon="13.30637"><ele>372.0</ele><time>2026-04-18T09:10:13.258Z</time></trkpt><trkpt lat="43.1335" lon="13.306255"><ele>370.8</ele><time>2026-04-18T09:10:14.258Z</time></trkpt><trkpt lat="43.1334367" lon="13.3061283"><ele>369.6</ele><time>2026-04-18T09:10:15.258Z</time></trkpt><trkpt lat="43.1333667" lon="13.305995"><ele>368.40000000000003</ele><time>2026-04-18T09:10:16.258Z</time></trkpt><trkpt lat="43.133295" lon="13.30587"><ele>367.20000000000005</ele><time>2026-04-18T09:10:17.258Z</time></trkpt><trkpt lat="43.1332317" lon="13.305765"><ele>366.0</ele><time>2026-04-18T09:10:18.258Z</time></trkpt><trkpt lat="43.133175" lon="13.3056883"><ele>365.5</ele><time>2026-04-18T09:10:19.258Z</time></trkpt><trkpt lat="43.133125" lon="13.3056333"><ele>365.0</ele><time>2026-04-18T09:10:20.258Z</time></trkpt><trkpt lat="43.133025" lon="13.30561"><ele>364.5</ele><time>2026-04-18T09:10:22.257Z</time></trkpt><trkpt lat="43.1329" lon="13.30564"><ele>364.0</ele><time>2026-04-18T09:10:24.258Z</time></trkpt><trkpt lat="43.132835" lon="13.3056667"><ele>363.5</ele><time>2026-04-18T09:10:25.258Z</time></trkpt><trkpt lat="43.1327617" lon="13.3057"><ele>363.0</ele><time>2026-04-18T09:10:26.258Z</time></trkpt><trkpt lat="43.1326917" lon="13.30573"><ele>363.0</ele><time>2026-04-18T09:10:27.258Z</time></trkpt><trkpt lat="43.1326117" lon="13.3057683"><ele>363.0</ele><time>2026-04-18T09:10:28.258Z</time></trkpt><trkpt lat="43.1325183" lon="13.305805"><ele>363.0</ele><time>2026-04-18T09:10:29.258Z</time></trkpt><trkpt lat="43.1324233" lon="13.3058417"><ele>363.0</ele><time>2026-04-18T09:10:30.258Z</time></trkpt><trkpt lat="43.1323317" lon="13.305885"><ele>363.0</ele><time>2026-04-18T09:10:31.258Z</time></trkpt><trkpt lat="43.13224" lon="13.3059233"><ele>361.2</ele><time>2026-04-18T09:10:32.258Z</time></trkpt><trkpt lat="43.1321433" lon="13.30595"><ele>359.4</ele><time>2026-04-18T09:10:33.258Z</time></trkpt><trkpt lat="43.1320433" lon="13.3059683"><ele>357.59999999999997</ele><time>2026-04-18T09:10:34.258Z</time></trkpt><trkpt lat="43.1319417" lon="13.3059833"><ele>355.79999999999995</ele><time>2026-04-18T09:10:35.258Z</time></trkpt><trkpt lat="43.13184" lon="13.3059867"><ele>354.0</ele><time>2026-04-18T09:10:36.258Z</time></trkpt><trkpt lat="43.1317483" lon="13.3059733"><ele>354.0</ele><time>2026-04-18T09:10:37.258Z</time></trkpt><trkpt lat="43.131665" lon="13.3059467"><ele>354.0</ele><time>2026-04-18T09:10:38.258Z</time></trkpt><trkpt lat="43.1315817" lon="13.30591"><ele>354.0</ele><time>2026-04-18T09:10:39.258Z</time></trkpt><trkpt lat="43.1315017" lon="13.3058567"><ele>354.0</ele><time>2026-04-18T09:10:40.258Z</time></trkpt><trkpt lat="43.13143" lon="13.305795"><ele>354.0</ele><time>2026-04-18T09:10:41.258Z</time></trkpt><trkpt lat="43.1313683" lon="13.3057283"><ele>354.0</ele><time>2026-04-18T09:10:42.258Z</time></trkpt><trkpt lat="43.1313033" lon="13.30564"><ele>353.79999999999995</ele><time>2026-04-18T09:10:43.258Z</time></trkpt><trkpt lat="43.1312367" lon="13.305535"><ele>353.59999999999997</ele><time>2026-04-18T09:10:44.258Z</time></trkpt><trkpt lat="43.1311717" lon="13.30543"><ele>353.4</ele><time>2026-04-18T09:10:45.258Z</time></trkpt><trkpt lat="43.13111" lon="13.3053367"><ele>353.2</ele><time>2026-04-18T09:10:46.258Z</time></trkpt><trkpt lat="43.131045" lon="13.3052333"><ele>353.0</ele><time>2026-04-18T09:10:47.258Z</time></trkpt><trkpt lat="43.1309717" lon="13.305125"><ele>353.0</ele><time>2026-04-18T09:10:48.258Z</time></trkpt><trkpt lat="43.1309" lon="13.3050167"><ele>353.0</ele><time>2026-04-18T09:10:49.258Z</time></trkpt><trkpt lat="43.1308333" lon="13.304915"><ele>353.0</ele><time>2026-04-18T09:10:50.258Z</time></trkpt><trkpt lat="43.1307667" lon="13.3048233"><ele>353.0</ele><time>2026-04-18T09:10:51.258Z</time></trkpt><trkpt lat="43.1307067" lon="13.3047267"><ele>353.0</ele><time>2026-04-18T09:10:52.258Z</time></trkpt><trkpt lat="43.13064" lon="13.3046283"><ele>354.59999999999997</ele><time>2026-04-18T09:10:53.258Z</time></trkpt><trkpt lat="43.1305683" lon="13.3045217"><ele>356.2</ele><time>2026-04-18T09:10:54.258Z</time></trkpt><trkpt lat="43.1304967" lon="13.304405"><ele>357.8</ele><time>2026-04-18T09:10:55.258Z</time></trkpt><trkpt lat="43.1304167" lon="13.3042883"><ele>359.4</ele><time>2026-04-18T09:10:56.258Z</time></trkpt><trkpt lat="43.1303433" lon="13.3041683"><ele>361.0</ele><time>2026-04-18T09:10:57.258Z</time></trkpt><trkpt lat="43.1302767" lon="13.3040567"><ele>361.0</ele><time>2026-04-18T09:10:58.258Z</time></trkpt><trkpt lat="43.1302117" lon="13.3039533"><ele>361.0</ele><time>2026-04-18T09:10:59.258Z</time></trkpt><trkpt lat="43.130145" lon="13.3038467"><ele>361.0</ele><time>2026-04-18T09:11:00.258Z</time></trkpt><trkpt lat="43.13008" lon="13.30375"><ele>361.0</ele><time>2026-04-18T09:11:01.258Z</time></trkpt><trkpt lat="43.13" lon="13.303645"><ele>361.0</ele><time>2026-04-18T09:11:02.258Z</time></trkpt><trkpt lat="43.1299033" lon="13.3035433"><ele>362.20000000000005</ele><time>2026-04-18T09:11:03.258Z</time></trkpt><trkpt lat="43.1298117" lon="13.303445"><ele>363.40000000000003</ele><time>2026-04-18T09:11:04.258Z</time></trkpt><trkpt lat="43.1297317" lon="13.303355"><ele>364.6</ele><time>2026-04-18T09:11:05.258Z</time></trkpt><trkpt lat="43.1296633" lon="13.3032733"><ele>365.8</ele><time>2026-04-18T09:11:06.258Z</time></trkpt><trkpt lat="43.1296033" lon="13.3031817"><ele>367.0</ele><time>2026-04-18T09:11:07.258Z</time></trkpt><trkpt lat="43.1295617" lon="13.3030817"><ele>365.16666666666663</ele><time>2026-04-18T09:11:08.258Z</time></trkpt><trkpt lat="43.1295317" lon="13.3029833"><ele>363.3333333333333</ele><time>2026-04-18T09:11:09.258Z</time></trkpt><trkpt lat="43.1295067" lon="13.3028983"><ele>361.5</ele><time>2026-04-18T09:11:10.258Z</time></trkpt><trkpt lat="43.1294567" lon="13.3027833"><ele>359.6666666666667</ele><time>2026-04-18T09:11:12.258Z</time></trkpt><trkpt lat="43.1293667" lon="13.30278"><ele>357.83333333333337</ele><time>2026-04-18T09:11:15.258Z</time></trkpt><trkpt lat="43.1293133" lon="13.3028883"><ele>356.0</ele><time>2026-04-18T09:11:17.258Z</time></trkpt><trkpt lat="43.1292767" lon="13.3030467"><ele>357.83333333333337</ele><time>2026-04-18T09:11:19.258Z</time></trkpt><trkpt lat="43.1292583" lon="13.303145"><ele>359.6666666666667</ele><time>2026-04-18T09:11:20.258Z</time></trkpt><trkpt lat="43.1292283" lon="13.3032467"><ele>361.5</ele><time>2026-04-18T09:11:21.258Z</time></trkpt><trkpt lat="43.1291917" lon="13.303345"><ele>363.3333333333333</ele><time>2026-04-18T09:11:22.258Z</time></trkpt><trkpt lat="43.1291567" lon="13.30345"><ele>365.16666666666663</ele><time>2026-04-18T09:11:23.258Z</time></trkpt><trkpt lat="43.1291117" lon="13.30357"><ele>367.0</ele><time>2026-04-18T09:11:24.258Z</time></trkpt><trkpt lat="43.12906" lon="13.303705"><ele>367.25</ele><time>2026-04-18T09:11:25.258Z</time></trkpt><trkpt lat="43.129005" lon="13.3038467"><ele>367.5</ele><time>2026-04-18T09:11:26.258Z</time></trkpt><trkpt lat="43.1289517" lon="13.303995"><ele>367.75</ele><time>2026-04-18T09:11:27.258Z</time></trkpt><trkpt lat="43.128895" lon="13.304135"><ele>368.0</ele><time>2026-04-18T09:11:28.258Z</time></trkpt><trkpt lat="43.1288417" lon="13.3042817"><ele>370.4</ele><time>2026-04-18T09:11:29.258Z</time></trkpt><trkpt lat="43.1287883" lon="13.3044067"><ele>372.79999999999995</ele><time>2026-04-18T09:11:30.258Z</time></trkpt><trkpt lat="43.128745" lon="13.3045183"><ele>375.2</ele><time>2026-04-18T09:11:31.258Z</time></trkpt><trkpt lat="43.1287083" lon="13.3046083"><ele>377.6</ele><time>2026-04-18T09:11:32.258Z</time></trkpt><trkpt lat="43.128685" lon="13.304755"><ele>380.0</ele><time>2026-04-18T09:11:34.258Z</time></trkpt><trkpt lat="43.1286733" lon="13.304895"><ele>382.1666666666667</ele><time>2026-04-18T09:11:36.258Z</time></trkpt><trkpt lat="43.1286517" lon="13.30498"><ele>384.33333333333337</ele><time>2026-04-18T09:11:37.258Z</time></trkpt><trkpt lat="43.1286267" lon="13.3050683"><ele>386.5</ele><time>2026-04-18T09:11:38.258Z</time></trkpt><trkpt lat="43.1285983" lon="13.30517"><ele>388.6666666666667</ele><time>2026-04-18T09:11:39.258Z</time></trkpt><trkpt lat="43.1285717" lon="13.3052817"><ele>390.8333333333333</ele><time>2026-04-18T09:11:40.258Z</time></trkpt><trkpt lat="43.128545" lon="13.3053933"><ele>393.0</ele><time>2026-04-18T09:11:41.258Z</time></trkpt><trkpt lat="43.1285167" lon="13.3055233"><ele>394.6666666666667</ele><time>2026-04-18T09:11:42.258Z</time></trkpt><trkpt lat="43.1284917" lon="13.3056467"><ele>396.33333333333337</ele><time>2026-04-18T09:11:43.258Z</time></trkpt><trkpt lat="43.1284633" lon="13.3057533"><ele>398.0</ele><time>2026-04-18T09:11:44.258Z</time></trkpt><trkpt lat="43.1284333" lon="13.3058617"><ele>399.6666666666667</ele><time>2026-04-18T09:11:45.258Z</time></trkpt><trkpt lat="43.1284233" lon="13.30597"><ele>401.33333333333337</ele><time>2026-04-18T09:11:46.258Z</time></trkpt><trkpt lat="43.1284017" lon="13.3060767"><ele>403.0</ele><time>2026-04-18T09:11:47.258Z</time></trkpt><trkpt lat="43.1283633" lon="13.30621"><ele>403.0</ele><time>2026-04-18T09:11:48.258Z</time></trkpt><trkpt lat="43.1283167" lon="13.3063483"><ele>403.0</ele><time>2026-04-18T09:11:49.258Z</time></trkpt><trkpt lat="43.1282733" lon="13.3064783"><ele>403.0</ele><time>2026-04-18T09:11:50.258Z</time></trkpt><trkpt lat="43.128245" lon="13.3065917"><ele>403.0</ele><time>2026-04-18T09:11:51.258Z</time></trkpt><trkpt lat="43.1282217" lon="13.3066883"><ele>403.0</ele><time>2026-04-18T09:11:52.258Z</time></trkpt><trkpt lat="43.1282083" lon="13.306795"><ele>402.2</ele><time>2026-04-18T09:11:53.258Z</time></trkpt><trkpt lat="43.1282033" lon="13.3069067"><ele>401.4</ele><time>2026-04-18T09:11:54.258Z</time></trkpt><trkpt lat="43.1282117" lon="13.3070317"><ele>400.59999999999997</ele><time>2026-04-18T09:11:55.258Z</time></trkpt><trkpt lat="43.1282267" lon="13.3071767"><ele>399.79999999999995</ele><time>2026-04-18T09:11:56.258Z</time></trkpt><trkpt lat="43.1282567" lon="13.3073367"><ele>399.0</ele><time>2026-04-18T09:11:57.258Z</time></trkpt><trkpt lat="43.1282933" lon="13.3074983"><ele>402.4</ele><time>2026-04-18T09:11:58.257Z</time></trkpt><trkpt lat="43.128325" lon="13.3076517"><ele>405.79999999999995</ele><time>2026-04-18T09:11:59.258Z</time></trkpt><trkpt lat="43.128345" lon="13.3077917"><ele>409.20000000000005</ele><time>2026-04-18T09:12:00.258Z</time></trkpt><trkpt lat="43.128355" lon="13.3079083"><ele>412.6</ele><time>2026-04-18T09:12:01.258Z</time></trkpt><trkpt lat="43.1283467" lon="13.30803"><ele>416.0</ele><time>2026-04-18T09:12:02.258Z</time></trkpt><trkpt lat="43.1283183" lon="13.3081367"><ele>416.0</ele><time>2026-04-18T09:12:03.258Z</time></trkpt><trkpt lat="43.1282783" lon="13.3082517"><ele>416.0</ele><time>2026-04-18T09:12:04.258Z</time></trkpt><trkpt lat="43.1282283" lon="13.3083833"><ele>416.0</ele><time>2026-04-18T09:12:05.258Z</time></trkpt><trkpt lat="43.1281817" lon="13.3085333"><ele>416.0</ele><time>2026-04-18T09:12:06.258Z</time></trkpt><trkpt lat="43.128135" lon="13.3086833"><ele>416.0</ele><time>2026-04-18T09:12:07.257Z</time></trkpt><trkpt lat="43.1280983" lon="13.3088333"><ele>417.6</ele><time>2026-04-18T09:12:08.258Z</time></trkpt><trkpt lat="43.12807" lon="13.3089783"><ele>419.20000000000005</ele><time>2026-04-18T09:12:09.258Z</time></trkpt><trkpt lat="43.1280417" lon="13.309125"><ele>420.79999999999995</ele><time>2026-04-18T09:12:10.258Z</time></trkpt><trkpt lat="43.128015" lon="13.309235"><ele>422.4</ele><time>2026-04-18T09:12:11.258Z</time></trkpt><trkpt lat="43.1279933" lon="13.30932"><ele>424.0</ele><time>2026-04-18T09:12:12.258Z</time></trkpt><trkpt lat="43.12796" lon="13.3094467"><ele>424.0</ele><time>2026-04-18T09:12:14.258Z</time></trkpt><trkpt lat="43.12793" lon="13.309575"><ele>424.0</ele><time>2026-04-18T09:12:16.258Z</time></trkpt><trkpt lat="43.127895" lon="13.3096733"><ele>424.0</ele><time>2026-04-18T09:12:17.258Z</time></trkpt><trkpt lat="43.1278533" lon="13.3097917"><ele>424.0</ele><time>2026-04-18T09:12:18.258Z</time></trkpt><trkpt lat="43.127795" lon="13.3099667"><ele>424.0</ele><time>2026-04-18T09:12:19.258Z</time></trkpt><trkpt lat="43.1277367" lon="13.3101867"><ele>427.0</ele><time>2026-04-18T09:12:20.258Z</time></trkpt><trkpt lat="43.1276817" lon="13.3103933"><ele>430.0</ele><time>2026-04-18T09:12:21.258Z</time></trkpt><trkpt lat="43.1276233" lon="13.3105867"><ele>433.0</ele><time>2026-04-18T09:12:22.258Z</time></trkpt><trkpt lat="43.12757" lon="13.3108033"><ele>435.33333333333337</ele><time>2026-04-18T09:12:23.258Z</time></trkpt><trkpt lat="43.1275167" lon="13.3110083"><ele>437.66666666666663</ele><time>2026-04-18T09:12:24.257Z</time></trkpt><trkpt lat="43.1274633" lon="13.3112133"><ele>440.0</ele><time>2026-04-18T09:12:25.258Z</time></trkpt><trkpt lat="43.1274117" lon="13.3114133"><ele>441.3333333333333</ele><time>2026-04-18T09:12:26.258Z</time></trkpt><trkpt lat="43.127355" lon="13.3116233"><ele>442.66666666666663</ele><time>2026-04-18T09:12:27.258Z</time></trkpt><trkpt lat="43.1272917" lon="13.3118283"><ele>444.0</ele><time>2026-04-18T09:12:28.258Z</time></trkpt><trkpt lat="43.1272417" lon="13.3120033"><ele>444.0</ele><time>2026-04-18T09:12:29.258Z</time></trkpt><trkpt lat="43.12719" lon="13.3121533"><ele>444.0</ele><time>2026-04-18T09:12:30.258Z</time></trkpt><trkpt lat="43.1271367" lon="13.31228"><ele>444.0</ele><time>2026-04-18T09:12:31.258Z</time></trkpt><trkpt lat="43.127065" lon="13.3123767"><ele>444.0</ele><time>2026-04-18T09:12:32.258Z</time></trkpt><trkpt lat="43.12696" lon="13.3124367"><ele>444.0</ele><time>2026-04-18T09:12:33.258Z</time></trkpt><trkpt lat="43.126845" lon="13.3124617"><ele>447.25</ele><time>2026-04-18T09:12:34.258Z</time></trkpt><trkpt lat="43.1267133" lon="13.3124667"><ele>450.5</ele><time>2026-04-18T09:12:35.258Z</time></trkpt><trkpt lat="43.12657" lon="13.312465"><ele>453.75</ele><time>2026-04-18T09:12:36.258Z</time></trkpt><trkpt lat="43.126415" lon="13.3124817"><ele>457.0</ele><time>2026-04-18T09:12:37.258Z</time></trkpt><trkpt lat="43.126255" lon="13.3124983"><ele>459.33333333333337</ele><time>2026-04-18T09:12:38.258Z</time></trkpt><trkpt lat="43.1260833" lon="13.31251"><ele>461.66666666666663</ele><time>2026-04-18T09:12:39.258Z</time></trkpt><trkpt lat="43.1259183" lon="13.3125117"><ele>464.0</ele><time>2026-04-18T09:12:40.258Z</time></trkpt><trkpt lat="43.125765" lon="13.31253"><ele>467.3333333333333</ele><time>2026-04-18T09:12:41.258Z</time></trkpt><trkpt lat="43.1256133" lon="13.3125383"><ele>470.66666666666663</ele><time>2026-04-18T09:12:42.258Z</time></trkpt><trkpt lat="43.1254567" lon="13.3125317"><ele>474.0</ele><time>2026-04-18T09:12:43.258Z</time></trkpt><trkpt lat="43.1252933" lon="13.312535"><ele>474.0</ele><time>2026-04-18T09:12:44.258Z</time></trkpt><trkpt lat="43.1251283" lon="13.312525"><ele>474.0</ele><time>2026-04-18T09:12:45.258Z</time></trkpt><trkpt lat="43.1249683" lon="13.3124967"><ele>474.0</ele><time>2026-04-18T09:12:46.258Z</time></trkpt><trkpt lat="43.12482" lon="13.312445"><ele>475.25</ele><time>2026-04-18T09:12:47.258Z</time></trkpt><trkpt lat="43.124685" lon="13.3123767"><ele>476.5</ele><time>2026-04-18T09:12:48.258Z</time></trkpt><trkpt lat="43.124565" lon="13.3122867"><ele>477.75</ele><time>2026-04-18T09:12:49.258Z</time></trkpt><trkpt lat="43.1244667" lon="13.31215"><ele>479.0</ele><time>2026-04-18T09:12:50.258Z</time></trkpt><trkpt lat="43.1243717" lon="13.31199"><ele>479.0</ele><time>2026-04-18T09:12:51.258Z</time></trkpt><trkpt lat="43.124295" lon="13.3118283"><ele>479.0</ele><time>2026-04-18T09:12:52.258Z</time></trkpt><trkpt lat="43.12422" lon="13.31167"><ele>479.0</ele><time>2026-04-18T09:12:53.258Z</time></trkpt><trkpt lat="43.124145" lon="13.3115333"><ele>479.0</ele><time>2026-04-18T09:12:54.258Z</time></trkpt><trkpt lat="43.12408" lon="13.3114333"><ele>480.25</ele><time>2026-04-18T09:12:55.258Z</time></trkpt><trkpt lat="43.1239883" lon="13.3113817"><ele>481.5</ele><time>2026-04-18T09:12:56.258Z</time></trkpt><trkpt lat="43.1238817" lon="13.3113833"><ele>482.75</ele><time>2026-04-18T09:12:57.258Z</time></trkpt><trkpt lat="43.1237717" lon="13.3114433"><ele>484.0</ele><time>2026-04-18T09:12:58.258Z</time></trkpt><trkpt lat="43.1236667" lon="13.3115567"><ele>484.0</ele><time>2026-04-18T09:12:59.258Z</time></trkpt><trkpt lat="43.1235533" lon="13.3116817"><ele>484.0</ele><time>2026-04-18T09:13:00.258Z</time></trkpt><trkpt lat="43.1234317" lon="13.3118183"><ele>484.0</ele><time>2026-04-18T09:13:01.257Z</time></trkpt><trkpt lat="43.1233017" lon="13.3119617"><ele>482.0</ele><time>2026-04-18T09:13:02.258Z</time></trkpt><trkpt lat="43.1231733" lon="13.312115"><ele>480.0</ele><time>2026-04-18T09:13:03.258Z</time></trkpt><trkpt lat="43.123045" lon="13.312255"><ele>478.0</ele><time>2026-04-18T09:13:04.258Z</time></trkpt><trkpt lat="43.122935" lon="13.3123733"><ele>481.79999999999995</ele><time>2026-04-18T09:13:05.258Z</time></trkpt><trkpt lat="43.122835" lon="13.312495"><ele>485.59999999999997</ele><time>2026-04-18T09:13:06.258Z</time></trkpt><trkpt lat="43.122745" lon="13.3126033"><ele>489.40000000000003</ele><time>2026-04-18T09:13:07.258Z</time></trkpt><trkpt lat="43.1226683" lon="13.3126917"><ele>493.20000000000005</ele><time>2026-04-18T09:13:08.258Z</time></trkpt><trkpt lat="43.12261" lon="13.31278"><ele>497.0</ele><time>2026-04-18T09:13:09.258Z</time></trkpt><trkpt lat="43.1225883" lon="13.3128717"><ele>497.0</ele><time>2026-04-18T09:13:10.258Z</time></trkpt><trkpt lat="43.1226033" lon="13.3129683"><ele>497.00000000000006</ele><time>2026-04-18T09:13:11.257Z</time></trkpt><trkpt lat="43.1226483" lon="13.313045"><ele>497.00000000000006</ele><time>2026-04-18T09:13:12.258Z</time></trkpt><trkpt lat="43.1227333" lon="13.31303"><ele>497.0</ele><time>2026-04-18T09:13:13.258Z</time></trkpt><trkpt lat="43.1228283" lon="13.3129567"><ele>497.0</ele><time>2026-04-18T09:13:14.258Z</time></trkpt><trkpt lat="43.1229217" lon="13.312865"><ele>497.0</ele><time>2026-04-18T09:13:15.258Z</time></trkpt><trkpt lat="43.123055" lon="13.3127117"><ele>497.0</ele><time>2026-04-18T09:13:16.258Z</time></trkpt><trkpt lat="43.123185" lon="13.3125767"><ele>497.0</ele><time>2026-04-18T09:13:17.258Z</time></trkpt><trkpt lat="43.1233033" lon="13.312475"><ele>498.3333333333333</ele><time>2026-04-18T09:13:18.258Z</time></trkpt><trkpt lat="43.1234133" lon="13.3124017"><ele>499.66666666666663</ele><time>2026-04-18T09:13:19.258Z</time></trkpt><trkpt lat="43.123515" lon="13.312345"><ele>501.0</ele><time>2026-04-18T09:13:20.258Z</time></trkpt><trkpt lat="43.123595" lon="13.312325"><ele>502.33333333333337</ele><time>2026-04-18T09:13:21.258Z</time></trkpt><trkpt lat="43.12365" lon="13.3123783"><ele>503.6666666666667</ele><time>2026-04-18T09:13:22.258Z</time></trkpt><trkpt lat="43.12368" lon="13.3124617"><ele>505.0</ele><time>2026-04-18T09:13:23.258Z</time></trkpt><trkpt lat="43.123685" lon="13.31257"><ele>505.0</ele><time>2026-04-18T09:13:24.258Z</time></trkpt><trkpt lat="43.1236783" lon="13.3127133"><ele>505.0</ele><time>2026-04-18T09:13:25.258Z</time></trkpt><trkpt lat="43.1236733" lon="13.3128717"><ele>505.0</ele><time>2026-04-18T09:13:26.258Z</time></trkpt><trkpt lat="43.1236717" lon="13.3130667"><ele>505.0</ele><time>2026-04-18T09:13:27.258Z</time></trkpt><trkpt lat="43.1236767" lon="13.3132717"><ele>509.25</ele><time>2026-04-18T09:13:28.258Z</time></trkpt><trkpt lat="43.1236833" lon="13.3134817"><ele>513.5</ele><time>2026-04-18T09:13:29.258Z</time></trkpt><trkpt lat="43.1237083" lon="13.3136767"><ele>517.75</ele><time>2026-04-18T09:13:30.258Z</time></trkpt><trkpt lat="43.1237383" lon="13.3138667"><ele>522.0</ele><time>2026-04-18T09:13:31.258Z</time></trkpt><trkpt lat="43.1237917" lon="13.3140583"><ele>525.6666666666666</ele><time>2026-04-18T09:13:32.258Z</time></trkpt><trkpt lat="43.1238567" lon="13.3142433"><ele>529.3333333333333</ele><time>2026-04-18T09:13:33.258Z</time></trkpt><trkpt lat="43.12394" lon="13.3144267"><ele>533.0</ele><time>2026-04-18T09:13:34.258Z</time></trkpt><trkpt lat="43.1240333" lon="13.3146"><ele>532.5</ele><time>2026-04-18T09:13:35.258Z</time></trkpt><trkpt lat="43.1241283" lon="13.314745"><ele>532.0</ele><time>2026-04-18T09:13:36.258Z</time></trkpt><trkpt lat="43.1242283" lon="13.3148683"><ele>531.5</ele><time>2026-04-18T09:13:37.258Z</time></trkpt><trkpt lat="43.1243133" lon="13.3149733"><ele>531.0</ele><time>2026-04-18T09:13:38.258Z</time></trkpt><trkpt lat="43.12437" lon="13.3150667"><ele>531.0</ele><time>2026-04-18T09:13:39.258Z</time></trkpt><trkpt lat="43.1244067" lon="13.3151583"><ele>531.0</ele><time>2026-04-18T09:13:40.258Z</time></trkpt><trkpt lat="43.12441" lon="13.3152583"><ele>531.0</ele><time>2026-04-18T09:13:41.258Z</time></trkpt><trkpt lat="43.1243633" lon="13.315335"><ele>531.0</ele><time>2026-04-18T09:13:42.257Z</time></trkpt><trkpt lat="43.1242717" lon="13.3153567"><ele>531.0</ele><time>2026-04-18T09:13:43.258Z</time></trkpt><trkpt lat="43.124155" lon="13.3153083"><ele>531.0</ele><time>2026-04-18T09:13:44.258Z</time></trkpt><trkpt lat="43.1240383" lon="13.3152283"><ele>533.0</ele><time>2026-04-18T09:13:45.258Z</time></trkpt><trkpt lat="43.12392" lon="13.3151367"><ele>535.0</ele><time>2026-04-18T09:13:46.258Z</time></trkpt><trkpt lat="43.12381" lon="13.3150483"><ele>537.0</ele><time>2026-04-18T09:13:47.257Z</time></trkpt><trkpt lat="43.1237117" lon="13.3149733"><ele>539.0</ele><time>2026-04-18T09:13:48.258Z</time></trkpt><trkpt lat="43.1236267" lon="13.3149283"><ele>539.0</ele><time>2026-04-18T09:13:49.258Z</time></trkpt><trkpt lat="43.1235517" lon="13.3149383"><ele>539.0</ele><time>2026-04-18T09:13:50.258Z</time></trkpt><trkpt lat="43.1235" lon="13.3150033"><ele>539.0</ele><time>2026-04-18T09:13:51.258Z</time></trkpt><trkpt lat="43.1235133" lon="13.3151833"><ele>539.0</ele><time>2026-04-18T09:13:53.258Z</time></trkpt><trkpt lat="43.12357" lon="13.3152883"><ele>539.0</ele><time>2026-04-18T09:13:54.258Z</time></trkpt><trkpt lat="43.1236583" lon="13.3153783"><ele>539.0</ele><time>2026-04-18T09:13:55.258Z</time></trkpt><trkpt lat="43.1237467" lon="13.315485"><ele>539.0</ele><time>2026-04-18T09:13:56.258Z</time></trkpt><trkpt lat="43.1238267" lon="13.31563"><ele>539.0</ele><time>2026-04-18T09:13:57.258Z</time></trkpt><trkpt lat="43.1238867" lon="13.3158033"><ele>539.0</ele><time>2026-04-18T09:13:58.258Z</time></trkpt><trkpt lat="43.12393" lon="13.31599"><ele>543.3333333333333</ele><time>2026-04-18T09:13:59.258Z</time></trkpt><trkpt lat="43.123955" lon="13.316185"><ele>547.6666666666666</ele><time>2026-04-18T09:14:00.258Z</time></trkpt><trkpt lat="43.1239733" lon="13.3163967"><ele>552.0</ele><time>2026-04-18T09:14:01.258Z</time></trkpt><trkpt lat="43.123985" lon="13.3166017"><ele>554.0</ele><time>2026-04-18T09:14:02.258Z</time></trkpt><trkpt lat="43.12398" lon="13.3168"><ele>556.0</ele><time>2026-04-18T09:14:03.258Z</time></trkpt><trkpt lat="43.1239633" lon="13.3169983"><ele>558.0</ele><time>2026-04-18T09:14:04.258Z</time></trkpt><trkpt lat="43.1239233" lon="13.3171867"><ele>560.0</ele><time>2026-04-18T09:14:05.258Z</time></trkpt><trkpt lat="43.123865" lon="13.3173733"><ele>560.0</ele><time>2026-04-18T09:14:06.258Z</time></trkpt><trkpt lat="43.1237833" lon="13.3175267"><ele>560.0</ele><time>2026-04-18T09:14:07.258Z</time></trkpt><trkpt lat="43.12368" lon="13.3176667"><ele>560.0</ele><time>2026-04-18T09:14:08.258Z</time></trkpt><trkpt lat="43.1235733" lon="13.31782"><ele>560.0</ele><time>2026-04-18T09:14:09.258Z</time></trkpt><trkpt lat="43.1234683" lon="13.3179833"><ele>559.25</ele><time>2026-04-18T09:14:10.258Z</time></trkpt><trkpt lat="43.123385" lon="13.3181517"><ele>558.5</ele><time>2026-04-18T09:14:11.258Z</time></trkpt><trkpt lat="43.1233117" lon="13.3182967"><ele>557.75</ele><time>2026-04-18T09:14:12.258Z</time></trkpt><trkpt lat="43.1232467" lon="13.318425"><ele>557.0</ele><time>2026-04-18T09:14:13.258Z</time></trkpt><trkpt lat="43.1231733" lon="13.3185217"><ele>559.0</ele><time>2026-04-18T09:14:14.258Z</time></trkpt><trkpt lat="43.1230783" lon="13.318585"><ele>561.0</ele><time>2026-04-18T09:14:15.258Z</time></trkpt><trkpt lat="43.122965" lon="13.3186033"><ele>563.0</ele><time>2026-04-18T09:14:16.258Z</time></trkpt><trkpt lat="43.12284" lon="13.31855"><ele>565.0</ele><time>2026-04-18T09:14:17.258Z</time></trkpt><trkpt lat="43.1227033" lon="13.318445"><ele>565.0</ele><time>2026-04-18T09:14:18.258Z</time></trkpt><trkpt lat="43.1225683" lon="13.31832"><ele>565.0</ele><time>2026-04-18T09:14:19.258Z</time></trkpt><trkpt lat="43.12244" lon="13.3181867"><ele>565.0</ele><time>2026-04-18T09:14:20.258Z</time></trkpt><trkpt lat="43.1223217" lon="13.318065"><ele>567.25</ele><time>2026-04-18T09:14:21.258Z</time></trkpt><trkpt lat="43.12221" lon="13.317965"><ele>569.5</ele><time>2026-04-18T09:14:22.258Z</time></trkpt><trkpt lat="43.1220933" lon="13.3179"><ele>571.75</ele><time>2026-04-18T09:14:23.258Z</time></trkpt><trkpt lat="43.1219683" lon="13.3178833"><ele>574.0</ele><time>2026-04-18T09:14:24.258Z</time></trkpt><trkpt lat="43.1218433" lon="13.3179033"><ele>574.0</ele><time>2026-04-18T09:14:25.258Z</time></trkpt><trkpt lat="43.1217367" lon="13.3179433"><ele>574.0</ele><time>2026-04-18T09:14:26.258Z</time></trkpt><trkpt lat="43.12163" lon="13.31798"><ele>574.0</ele><time>2026-04-18T09:14:27.258Z</time></trkpt><trkpt lat="43.1215217" lon="13.31801"><ele>574.0</ele><time>2026-04-18T09:14:28.258Z</time></trkpt><trkpt lat="43.121405" lon="13.3180417"><ele>575.6</ele><time>2026-04-18T09:14:29.258Z</time></trkpt><trkpt lat="43.12129" lon="13.3180667"><ele>577.2</ele><time>2026-04-18T09:14:30.258Z</time></trkpt><trkpt lat="43.121185" lon="13.3180833"><ele>578.8000000000001</ele><time>2026-04-18T09:14:31.258Z</time></trkpt><trkpt lat="43.1210967" lon="13.3180833"><ele>580.4</ele><time>2026-04-18T09:14:32.258Z</time></trkpt><trkpt lat="43.1210133" lon="13.3180517"><ele>582.0</ele><time>2026-04-18T09:14:33.258Z</time></trkpt><trkpt lat="43.1209633" lon="13.3179733"><ele>583.6</ele><time>2026-04-18T09:14:34.258Z</time></trkpt><trkpt lat="43.1209433" lon="13.3178767"><ele>585.2</ele><time>2026-04-18T09:14:35.258Z</time></trkpt><trkpt lat="43.1209567" lon="13.3177767"><ele>586.8</ele><time>2026-04-18T09:14:36.258Z</time></trkpt><trkpt lat="43.120995" lon="13.31765"><ele>588.4</ele><time>2026-04-18T09:14:37.258Z</time></trkpt><trkpt lat="43.1210467" lon="13.3175167"><ele>590.0</ele><time>2026-04-18T09:14:38.258Z</time></trkpt><trkpt lat="43.1210833" lon="13.31737"><ele>590.5</ele><time>2026-04-18T09:14:39.258Z</time></trkpt><trkpt lat="43.1210933" lon="13.3172083"><ele>591.0</ele><time>2026-04-18T09:14:40.258Z</time></trkpt><trkpt lat="43.1210767" lon="13.3170567"><ele>591.5</ele><time>2026-04-18T09:14:41.258Z</time></trkpt><trkpt lat="43.1210367" lon="13.3169017"><ele>592.0</ele><time>2026-04-18T09:14:42.258Z</time></trkpt><trkpt lat="43.1209783" lon="13.3167433"><ele>592.0</ele><time>2026-04-18T09:14:43.258Z</time></trkpt><trkpt lat="43.12092" lon="13.3166017"><ele>592.0</ele><time>2026-04-18T09:14:44.258Z</time></trkpt><trkpt lat="43.1208617" lon="13.316475"><ele>592.0</ele><time>2026-04-18T09:14:45.258Z</time></trkpt><trkpt lat="43.1207967" lon="13.3163667"><ele>592.0</ele><time>2026-04-18T09:14:46.258Z</time></trkpt><trkpt lat="43.1207033" lon="13.316275"><ele>592.0</ele><time>2026-04-18T09:14:47.258Z</time></trkpt><trkpt lat="43.1206017" lon="13.3162267"><ele>593.25</ele><time>2026-04-18T09:14:48.258Z</time></trkpt><trkpt lat="43.120485" lon="13.31623"><ele>594.5</ele><time>2026-04-18T09:14:49.258Z</time></trkpt><trkpt lat="43.1203733" lon="13.3162867"><ele>595.75</ele><time>2026-04-18T09:14:50.258Z</time></trkpt><trkpt lat="43.1202667" lon="13.3163883"><ele>597.0</ele><time>2026-04-18T09:14:51.258Z</time></trkpt><trkpt lat="43.1201717" lon="13.3165317"><ele>597.0</ele><time>2026-04-18T09:14:52.258Z</time></trkpt><trkpt lat="43.1200967" lon="13.31667"><ele>597.0</ele><time>2026-04-18T09:14:53.258Z</time></trkpt><trkpt lat="43.1200167" lon="13.3168083"><ele>597.0</ele><time>2026-04-18T09:14:54.257Z</time></trkpt><trkpt lat="43.11991" lon="13.31692"><ele>597.0</ele><time>2026-04-18T09:14:55.258Z</time></trkpt><trkpt lat="43.1197817" lon="13.316995"><ele>595.0</ele><time>2026-04-18T09:14:56.258Z</time></trkpt><trkpt lat="43.119645" lon="13.3170367"><ele>593.0</ele><time>2026-04-18T09:14:57.258Z</time></trkpt><trkpt lat="43.1194967" lon="13.3170617"><ele>591.0</ele><time>2026-04-18T09:14:58.258Z</time></trkpt><trkpt lat="43.11935" lon="13.3170817"><ele>589.0</ele><time>2026-04-18T09:14:59.258Z</time></trkpt><trkpt lat="43.1191917" lon="13.3170983"><ele>589.3333333333334</ele><time>2026-04-18T09:15:00.258Z</time></trkpt><trkpt lat="43.11903" lon="13.3171233"><ele>589.6666666666666</ele><time>2026-04-18T09:15:01.258Z</time></trkpt><trkpt lat="43.1188583" lon="13.3171433"><ele>590.0</ele><time>2026-04-18T09:15:02.258Z</time></trkpt><trkpt lat="43.11868" lon="13.3171917"><ele>596.0</ele><time>2026-04-18T09:15:03.257Z</time></trkpt><trkpt lat="43.11851" lon="13.317255"><ele>602.0</ele><time>2026-04-18T09:15:04.258Z</time></trkpt><trkpt lat="43.1183483" lon="13.317345"><ele>608.0</ele><time>2026-04-18T09:15:05.258Z</time></trkpt><trkpt lat="43.1181933" lon="13.3174333"><ele>608.0</ele><time>2026-04-18T09:15:06.258Z</time></trkpt><trkpt lat="43.1180433" lon="13.3175433"><ele>608.0</ele><time>2026-04-18T09:15:07.258Z</time></trkpt><trkpt lat="43.1178933" lon="13.3176317"><ele>608.0</ele><time>2026-04-18T09:15:08.258Z</time></trkpt><trkpt lat="43.1177367" lon="13.3176967"><ele>608.0</ele><time>2026-04-18T09:15:09.258Z</time></trkpt><trkpt lat="43.117575" lon="13.3177367"><ele>608.0</ele><time>2026-04-18T09:15:10.258Z</time></trkpt><trkpt lat="43.1174083" lon="13.317745"><ele>608.0</ele><time>2026-04-18T09:15:11.258Z</time></trkpt><trkpt lat="43.1172417" lon="13.31774"><ele>610.6666666666666</ele><time>2026-04-18T09:15:12.258Z</time></trkpt><trkpt lat="43.1170783" lon="13.3177067"><ele>613.3333333333334</ele><time>2026-04-18T09:15:13.258Z</time></trkpt><trkpt lat="43.1169117" lon="13.3176383"><ele>616.0</ele><time>2026-04-18T09:15:14.258Z</time></trkpt><trkpt lat="43.1167617" lon="13.3175417"><ele>616.0</ele><time>2026-04-18T09:15:15.257Z</time></trkpt><trkpt lat="43.1166183" lon="13.31743"><ele>616.0</ele><time>2026-04-18T09:15:16.258Z</time></trkpt><trkpt lat="43.1164817" lon="13.317305"><ele>616.0</ele><time>2026-04-18T09:15:17.258Z</time></trkpt><trkpt lat="43.1163533" lon="13.3171783"><ele>616.6666666666667</ele><time>2026-04-18T09:15:18.258Z</time></trkpt><trkpt lat="43.1162333" lon="13.3170433"><ele>617.3333333333334</ele><time>2026-04-18T09:15:19.258Z</time></trkpt><trkpt lat="43.116125" lon="13.31689"><ele>618.0</ele><time>2026-04-18T09:15:20.258Z</time></trkpt><trkpt lat="43.1160217" lon="13.31672"><ele>618.0</ele><time>2026-04-18T09:15:21.258Z</time></trkpt><trkpt lat="43.1159317" lon="13.3165483"><ele>618.0</ele><time>2026-04-18T09:15:22.258Z</time></trkpt><trkpt lat="43.1158483" lon="13.3163817"><ele>618.0</ele><time>2026-04-18T09:15:23.258Z</time></trkpt><trkpt lat="43.1157683" lon="13.3162183"><ele>618.0</ele><time>2026-04-18T09:15:24.258Z</time></trkpt><trkpt lat="43.1156917" lon="13.3160917"><ele>617.4</ele><time>2026-04-18T09:15:25.258Z</time></trkpt><trkpt lat="43.1156167" lon="13.3159917"><ele>616.8</ele><time>2026-04-18T09:15:26.258Z</time></trkpt><trkpt lat="43.1155233" lon="13.3159217"><ele>616.2</ele><time>2026-04-18T09:15:27.258Z</time></trkpt><trkpt lat="43.1154133" lon="13.3158833"><ele>615.6</ele><time>2026-04-18T09:15:28.258Z</time></trkpt><trkpt lat="43.1152917" lon="13.3159033"><ele>615.0</ele><time>2026-04-18T09:15:29.258Z</time></trkpt><trkpt lat="43.11517" lon="13.315935"><ele>615.0</ele><time>2026-04-18T09:15:30.258Z</time></trkpt><trkpt lat="43.115055" lon="13.31597"><ele>615.0</ele><time>2026-04-18T09:15:31.258Z</time></trkpt><trkpt lat="43.114935" lon="13.3160033"><ele>615.0</ele><time>2026-04-18T09:15:32.258Z</time></trkpt><trkpt lat="43.1148017" lon="13.3160433"><ele>615.0</ele><time>2026-04-18T09:15:33.258Z</time></trkpt><trkpt lat="43.1146517" lon="13.31605"><ele>616.6666666666666</ele><time>2026-04-18T09:15:34.258Z</time></trkpt><trkpt lat="43.1145" lon="13.3160267"><ele>618.3333333333333</ele><time>2026-04-18T09:15:35.258Z</time></trkpt><trkpt lat="43.1143433" lon="13.3159667"><ele>620.0</ele><time>2026-04-18T09:15:36.258Z</time></trkpt><trkpt lat="43.11418" lon="13.3159083"><ele>620.0</ele><time>2026-04-18T09:15:37.257Z</time></trkpt><trkpt lat="43.114025" lon="13.315835"><ele>620.0</ele><time>2026-04-18T09:15:38.258Z</time></trkpt><trkpt lat="43.1138833" lon="13.315775"><ele>620.0</ele><time>2026-04-18T09:15:39.258Z</time></trkpt><trkpt lat="43.1137467" lon="13.31572"><ele>620.0</ele><time>2026-04-18T09:15:40.257Z</time></trkpt><trkpt lat="43.1136017" lon="13.3156717"><ele>620.0</ele><time>2026-04-18T09:15:41.258Z</time></trkpt><trkpt lat="43.113455" lon="13.3156017"><ele>620.0</ele><time>2026-04-18T09:15:42.258Z</time></trkpt><trkpt lat="43.1133083" lon="13.3155267"><ele>622.0</ele><time>2026-04-18T09:15:43.258Z</time></trkpt><trkpt lat="43.1131683" lon="13.3154367"><ele>624.0</ele><time>2026-04-18T09:15:44.258Z</time></trkpt><trkpt lat="43.11303" lon="13.3153367"><ele>626.0</ele><time>2026-04-18T09:15:45.258Z</time></trkpt><trkpt lat="43.1128983" lon="13.3152317"><ele>626.0</ele><time>2026-04-18T09:15:46.258Z</time></trkpt><trkpt lat="43.1127683" lon="13.3151317"><ele>626.0</ele><time>2026-04-18T09:15:47.258Z</time></trkpt><trkpt lat="43.1126383" lon="13.31503"><ele>626.0</ele><time>2026-04-18T09:15:48.258Z</time></trkpt><trkpt lat="43.1125083" lon="13.3149333"><ele>626.0</ele><time>2026-04-18T09:15:49.258Z</time></trkpt><trkpt lat="43.112375" lon="13.31483"><ele>626.3333333333333</ele><time>2026-04-18T09:15:50.258Z</time></trkpt><trkpt lat="43.1122433" lon="13.3147233"><ele>626.6666666666666</ele><time>2026-04-18T09:15:51.258Z</time></trkpt><trkpt lat="43.11211" lon="13.3146167"><ele>627.0</ele><time>2026-04-18T09:15:52.258Z</time></trkpt><trkpt lat="43.11198" lon="13.3145067"><ele>627.0</ele><time>2026-04-18T09:15:53.258Z</time></trkpt><trkpt lat="43.11185" lon="13.31441"><ele>627.0</ele><time>2026-04-18T09:15:54.258Z</time></trkpt><trkpt lat="43.1117183" lon="13.3143133"><ele>627.0</ele><time>2026-04-18T09:15:55.258Z</time></trkpt><trkpt lat="43.1115833" lon="13.3142083"><ele>629.3333333333334</ele><time>2026-04-18T09:15:56.258Z</time></trkpt><trkpt lat="43.1114483" lon="13.31411"><ele>631.6666666666667</ele><time>2026-04-18T09:15:57.258Z</time></trkpt><trkpt lat="43.111305" lon="13.3140117"><ele>634.0</ele><time>2026-04-18T09:15:58.258Z</time></trkpt><trkpt lat="43.1111717" lon="13.313905"><ele>634.0</ele><time>2026-04-18T09:15:59.258Z</time></trkpt><trkpt lat="43.111035" lon="13.3137817"><ele>634.0</ele><time>2026-04-18T09:16:00.258Z</time></trkpt><trkpt lat="43.110905" lon="13.313645"><ele>634.0</ele><time>2026-04-18T09:16:01.258Z</time></trkpt><trkpt lat="43.1107783" lon="13.3135033"><ele>636.6666666666667</ele><time>2026-04-18T09:16:02.258Z</time></trkpt><trkpt lat="43.1106533" lon="13.3133483"><ele>639.3333333333334</ele><time>2026-04-18T09:16:03.258Z</time></trkpt><trkpt lat="43.1105217" lon="13.313185"><ele>642.0</ele><time>2026-04-18T09:16:04.258Z</time></trkpt><trkpt lat="43.1103983" lon="13.3130267"><ele>642.0</ele><time>2026-04-18T09:16:05.258Z</time></trkpt><trkpt lat="43.1102917" lon="13.3128783"><ele>642.0</ele><time>2026-04-18T09:16:06.258Z</time></trkpt><trkpt lat="43.1101883" lon="13.3127333"><ele>642.0</ele><time>2026-04-18T09:16:07.258Z</time></trkpt><trkpt lat="43.1100817" lon="13.3125933"><ele>642.0</ele><time>2026-04-18T09:16:08.258Z</time></trkpt><trkpt lat="43.1099817" lon="13.31247"><ele>643.25</ele><time>2026-04-18T09:16:09.258Z</time></trkpt><trkpt lat="43.1098783" lon="13.3123767"><ele>644.5</ele><time>2026-04-18T09:16:10.258Z</time></trkpt><trkpt lat="43.1097667" lon="13.312325"><ele>645.75</ele><time>2026-04-18T09:16:11.257Z</time></trkpt><trkpt lat="43.1096417" lon="13.312325"><ele>647.0</ele><time>2026-04-18T09:16:12.258Z</time></trkpt><trkpt lat="43.1095033" lon="13.3123767"><ele>647.0</ele><time>2026-04-18T09:16:13.258Z</time></trkpt><trkpt lat="43.1093667" lon="13.3124217"><ele>647.0</ele><time>2026-04-18T09:16:14.258Z</time></trkpt><trkpt lat="43.10921" lon="13.3124617"><ele>647.0</ele><time>2026-04-18T09:16:15.258Z</time></trkpt><trkpt lat="43.1090567" lon="13.3125067"><ele>648.0</ele><time>2026-04-18T09:16:16.258Z</time></trkpt><trkpt lat="43.1088917" lon="13.312525"><ele>649.0</ele><time>2026-04-18T09:16:17.258Z</time></trkpt><trkpt lat="43.10874" lon="13.3125117"><ele>650.0</ele><time>2026-04-18T09:16:18.258Z</time></trkpt><trkpt lat="43.1085967" lon="13.3125033"><ele>650.0</ele><time>2026-04-18T09:16:19.258Z</time></trkpt><trkpt lat="43.1084533" lon="13.3124683"><ele>650.0</ele><time>2026-04-18T09:16:20.258Z</time></trkpt><trkpt lat="43.108325" lon="13.312445"><ele>650.0</ele><time>2026-04-18T09:16:21.258Z</time></trkpt><trkpt lat="43.1082067" lon="13.3124333"><ele>650.0</ele><time>2026-04-18T09:16:22.258Z</time></trkpt><trkpt lat="43.1081067" lon="13.31245"><ele>646.5</ele><time>2026-04-18T09:16:23.258Z</time></trkpt><trkpt lat="43.1080183" lon="13.31252"><ele>643.0</ele><time>2026-04-18T09:16:24.258Z</time></trkpt><trkpt lat="43.1079383" lon="13.3126183"><ele>639.5</ele><time>2026-04-18T09:16:25.258Z</time></trkpt><trkpt lat="43.10789" lon="13.3127667"><ele>636.0</ele><time>2026-04-18T09:16:26.257Z</time></trkpt><trkpt lat="43.107865" lon="13.3129433"><ele>636.5</ele><time>2026-04-18T09:16:27.258Z</time></trkpt><trkpt lat="43.10786" lon="13.3131233"><ele>637.0</ele><time>2026-04-18T09:16:28.258Z</time></trkpt><trkpt lat="43.1078617" lon="13.3133283"><ele>637.5</ele><time>2026-04-18T09:16:29.258Z</time></trkpt><trkpt lat="43.1078467" lon="13.3135267"><ele>638.0</ele><time>2026-04-18T09:16:30.258Z</time></trkpt><trkpt lat="43.10781" lon="13.3137217"><ele>638.0</ele><time>2026-04-18T09:16:31.258Z</time></trkpt><trkpt lat="43.10774" lon="13.3138933"><ele>638.0</ele><time>2026-04-18T09:16:32.258Z</time></trkpt><trkpt lat="43.1076467" lon="13.314045"><ele>638.0</ele><time>2026-04-18T09:16:33.258Z</time></trkpt><trkpt lat="43.1075333" lon="13.3141817"><ele>638.0</ele><time>2026-04-18T09:16:34.258Z</time></trkpt><trkpt lat="43.1074067" lon="13.3143067"><ele>637.25</ele><time>2026-04-18T09:16:35.258Z</time></trkpt><trkpt lat="43.1072683" lon="13.3143767"><ele>636.5</ele><time>2026-04-18T09:16:36.258Z</time></trkpt><trkpt lat="43.1071167" lon="13.31439"><ele>635.75</ele><time>2026-04-18T09:16:37.258Z</time></trkpt><trkpt lat="43.106975" lon="13.3143683"><ele>635.0</ele><time>2026-04-18T09:16:38.258Z</time></trkpt><trkpt lat="43.1068267" lon="13.31434"><ele>635.0</ele><time>2026-04-18T09:16:39.258Z</time></trkpt><trkpt lat="43.1066767" lon="13.3143233"><ele>635.0</ele><time>2026-04-18T09:16:40.258Z</time></trkpt><trkpt lat="43.1065367" lon="13.3143083"><ele>635.0</ele><time>2026-04-18T09:16:41.257Z</time></trkpt><trkpt lat="43.1064017" lon="13.3143133"><ele>635.0</ele><time>2026-04-18T09:16:42.258Z</time></trkpt><trkpt lat="43.1062883" lon="13.3143283"><ele>633.4</ele><time>2026-04-18T09:16:43.258Z</time></trkpt><trkpt lat="43.1061783" lon="13.314375"><ele>631.8</ele><time>2026-04-18T09:16:44.258Z</time></trkpt><trkpt lat="43.106085" lon="13.3144233"><ele>630.2</ele><time>2026-04-18T09:16:45.258Z</time></trkpt><trkpt lat="43.106" lon="13.3144983"><ele>628.6</ele><time>2026-04-18T09:16:46.258Z</time></trkpt><trkpt lat="43.105925" lon="13.3145817"><ele>627.0</ele><time>2026-04-18T09:16:47.258Z</time></trkpt><trkpt lat="43.1058633" lon="13.314685"><ele>626.3333333333334</ele><time>2026-04-18T09:16:48.258Z</time></trkpt><trkpt lat="43.105815" lon="13.3147967"><ele>625.6666666666666</ele><time>2026-04-18T09:16:49.258Z</time></trkpt><trkpt lat="43.1057833" lon="13.3149067"><ele>625.0</ele><time>2026-04-18T09:16:50.258Z</time></trkpt><trkpt lat="43.1057567" lon="13.3149933"><ele>624.3333333333333</ele><time>2026-04-18T09:16:51.258Z</time></trkpt><trkpt lat="43.1057067" lon="13.3150783"><ele>623.6666666666666</ele><time>2026-04-18T09:16:53.258Z</time></trkpt><trkpt lat="43.1056233" lon="13.3150383"><ele>623.0</ele><time>2026-04-18T09:16:55.258Z</time></trkpt><trkpt lat="43.1055633" lon="13.314875"><ele>623.0</ele><time>2026-04-18T09:16:57.258Z</time></trkpt><trkpt lat="43.1055367" lon="13.3147633"><ele>623.0</ele><time>2026-04-18T09:16:58.258Z</time></trkpt><trkpt lat="43.1055133" lon="13.3146383"><ele>623.0</ele><time>2026-04-18T09:16:59.258Z</time></trkpt><trkpt lat="43.1054967" lon="13.3144867"><ele>623.0</ele><time>2026-04-18T09:17:00.258Z</time></trkpt><trkpt lat="43.1055033" lon="13.3143167"><ele>623.0</ele><time>2026-04-18T09:17:01.258Z</time></trkpt><trkpt lat="43.1055317" lon="13.314145"><ele>621.75</ele><time>2026-04-18T09:17:02.257Z</time></trkpt><trkpt lat="43.1055783" lon="13.31398"><ele>620.5</ele><time>2026-04-18T09:17:03.258Z</time></trkpt><trkpt lat="43.1056217" lon="13.3138233"><ele>619.25</ele><time>2026-04-18T09:17:04.258Z</time></trkpt><trkpt lat="43.1056717" lon="13.3137017"><ele>618.0</ele><time>2026-04-18T09:17:05.258Z</time></trkpt><trkpt lat="43.1057383" lon="13.3135917"><ele>615.4</ele><time>2026-04-18T09:17:06.258Z</time></trkpt><trkpt lat="43.1058217" lon="13.3135267"><ele>612.8</ele><time>2026-04-18T09:17:07.258Z</time></trkpt><trkpt lat="43.1059217" lon="13.3135333"><ele>610.2</ele><time>2026-04-18T09:17:08.258Z</time></trkpt><trkpt lat="43.1060233" lon="13.3136067"><ele>607.6</ele><time>2026-04-18T09:17:09.258Z</time></trkpt><trkpt lat="43.106125" lon="13.3136783"><ele>605.0</ele><time>2026-04-18T09:17:10.258Z</time></trkpt><trkpt lat="43.1062533" lon="13.31372"><ele>605.0</ele><time>2026-04-18T09:17:11.258Z</time></trkpt><trkpt lat="43.10639" lon="13.313725"><ele>605.0</ele><time>2026-04-18T09:17:12.258Z</time></trkpt><trkpt lat="43.1065283" lon="13.3136933"><ele>605.0</ele><time>2026-04-18T09:17:13.258Z</time></trkpt><trkpt lat="43.1066583" lon="13.3136383"><ele>605.0</ele><time>2026-04-18T09:17:14.258Z</time></trkpt><trkpt lat="43.1067683" lon="13.313545"><ele>606.0</ele><time>2026-04-18T09:17:15.258Z</time></trkpt><trkpt lat="43.1068467" lon="13.3134267"><ele>607.0</ele><time>2026-04-18T09:17:16.257Z</time></trkpt><trkpt lat="43.1069067" lon="13.31328"><ele>608.0</ele><time>2026-04-18T09:17:17.258Z</time></trkpt><trkpt lat="43.1069283" lon="13.3131067"><ele>609.0</ele><time>2026-04-18T09:17:18.258Z</time></trkpt><trkpt lat="43.1069217" lon="13.3129183"><ele>609.0</ele><time>2026-04-18T09:17:19.258Z</time></trkpt><trkpt lat="43.1069017" lon="13.3127433"><ele>609.0</ele><time>2026-04-18T09:17:20.258Z</time></trkpt><trkpt lat="43.1068817" lon="13.3125767"><ele>609.0</ele><time>2026-04-18T09:17:21.258Z</time></trkpt><trkpt lat="43.1068717" lon="13.3123983"><ele>609.0</ele><time>2026-04-18T09:17:22.258Z</time></trkpt><trkpt lat="43.10687" lon="13.3122283"><ele>606.75</ele><time>2026-04-18T09:17:23.258Z</time></trkpt><trkpt lat="43.1069" lon="13.31206"><ele>604.5</ele><time>2026-04-18T09:17:24.258Z</time></trkpt><trkpt lat="43.1069467" lon="13.3118883"><ele>602.25</ele><time>2026-04-18T09:17:25.258Z</time></trkpt><trkpt lat="43.1070133" lon="13.3117067"><ele>600.0</ele><time>2026-04-18T09:17:26.258Z</time></trkpt><trkpt lat="43.1070917" lon="13.3115233"><ele>598.5</ele><time>2026-04-18T09:17:27.258Z</time></trkpt><trkpt lat="43.107155" lon="13.3113333"><ele>597.0</ele><time>2026-04-18T09:17:28.258Z</time></trkpt><trkpt lat="43.107195" lon="13.3111567"><ele>595.5</ele><time>2026-04-18T09:17:29.258Z</time></trkpt><trkpt lat="43.1072417" lon="13.3109883"><ele>594.0</ele><time>2026-04-18T09:17:30.257Z</time></trkpt><trkpt lat="43.107275" lon="13.3108117"><ele>594.0</ele><time>2026-04-18T09:17:31.258Z</time></trkpt><trkpt lat="43.1072883" lon="13.3106383"><ele>594.0</ele><time>2026-04-18T09:17:32.258Z</time></trkpt><trkpt lat="43.1072667" lon="13.3104767"><ele>594.0</ele><time>2026-04-18T09:17:33.258Z</time></trkpt><trkpt lat="43.107205" lon="13.3103167"><ele>594.0</ele><time>2026-04-18T09:17:34.258Z</time></trkpt><trkpt lat="43.1071217" lon="13.3101533"><ele>595.0</ele><time>2026-04-18T09:17:35.258Z</time></trkpt><trkpt lat="43.10703" lon="13.3100083"><ele>596.0</ele><time>2026-04-18T09:17:36.258Z</time></trkpt><trkpt lat="43.1069267" lon="13.3098817"><ele>597.0</ele><time>2026-04-18T09:17:37.258Z</time></trkpt><trkpt lat="43.1068217" lon="13.3097683"><ele>598.0</ele><time>2026-04-18T09:17:38.258Z</time></trkpt><trkpt lat="43.1067083" lon="13.3096817"><ele>596.75</ele><time>2026-04-18T09:17:39.258Z</time></trkpt><trkpt lat="43.106595" lon="13.3096267"><ele>595.5</ele><time>2026-04-18T09:17:40.258Z</time></trkpt><trkpt lat="43.1064717" lon="13.3096017"><ele>594.25</ele><time>2026-04-18T09:17:41.258Z</time></trkpt><trkpt lat="43.1063533" lon="13.3095983"><ele>593.0</ele><time>2026-04-18T09:17:42.258Z</time></trkpt><trkpt lat="43.1062283" lon="13.30962"><ele>593.0</ele><time>2026-04-18T09:17:43.258Z</time></trkpt><trkpt lat="43.1060967" lon="13.3096517"><ele>593.0</ele><time>2026-04-18T09:17:44.258Z</time></trkpt><trkpt lat="43.105965" lon="13.3096417"><ele>593.0</ele><time>2026-04-18T09:17:45.257Z</time></trkpt><trkpt lat="43.1058433" lon="13.3095733"><ele>593.0</ele><time>2026-04-18T09:17:46.258Z</time></trkpt><trkpt lat="43.1057433" lon="13.309485"><ele>587.6</ele><time>2026-04-18T09:17:47.258Z</time></trkpt><trkpt lat="43.105665" lon="13.309385"><ele>582.1999999999999</ele><time>2026-04-18T09:17:48.257Z</time></trkpt><trkpt lat="43.1056083" lon="13.3092517"><ele>576.8</ele><time>2026-04-18T09:17:49.258Z</time></trkpt><trkpt lat="43.10558" lon="13.3091117"><ele>571.4</ele><time>2026-04-18T09:17:50.258Z</time></trkpt><trkpt lat="43.1056" lon="13.3089667"><ele>566.0</ele><time>2026-04-18T09:17:51.257Z</time></trkpt><trkpt lat="43.1056367" lon="13.308805"><ele>565.0</ele><time>2026-04-18T09:17:52.258Z</time></trkpt><trkpt lat="43.1056933" lon="13.3086233"><ele>564.0</ele><time>2026-04-18T09:17:53.258Z</time></trkpt><trkpt lat="43.1057467" lon="13.30844"><ele>563.0</ele><time>2026-04-18T09:17:54.258Z</time></trkpt><trkpt lat="43.105775" lon="13.3082333"><ele>562.0</ele><time>2026-04-18T09:17:55.258Z</time></trkpt><trkpt lat="43.1057833" lon="13.3080283"><ele>565.75</ele><time>2026-04-18T09:17:56.258Z</time></trkpt><trkpt lat="43.1057867" lon="13.30782"><ele>569.5</ele><time>2026-04-18T09:17:57.258Z</time></trkpt><trkpt lat="43.1057783" lon="13.30762"><ele>573.25</ele><time>2026-04-18T09:17:58.258Z</time></trkpt><trkpt lat="43.1057783" lon="13.3074283"><ele>577.0</ele><time>2026-04-18T09:17:59.258Z</time></trkpt><trkpt lat="43.10578" lon="13.3072417"><ele>577.0</ele><time>2026-04-18T09:18:00.258Z</time></trkpt><trkpt lat="43.105775" lon="13.3070867"><ele>577.0</ele><time>2026-04-18T09:18:01.258Z</time></trkpt><trkpt lat="43.1057767" lon="13.3069583"><ele>577.0</ele><time>2026-04-18T09:18:02.258Z</time></trkpt><trkpt lat="43.105775" lon="13.3068517"><ele>577.0</ele><time>2026-04-18T09:18:03.258Z</time></trkpt><trkpt lat="43.10579" lon="13.306715"><ele>577.0</ele><time>2026-04-18T09:18:05.258Z</time></trkpt><trkpt lat="43.105785" lon="13.3065917"><ele>577.0</ele><time>2026-04-18T09:18:07.257Z</time></trkpt><trkpt lat="43.105755" lon="13.3065083"><ele>577.0</ele><time>2026-04-18T09:18:08.258Z</time></trkpt><trkpt lat="43.1057083" lon="13.3064133"><ele>577.0</ele><time>2026-04-18T09:18:09.258Z</time></trkpt><trkpt lat="43.1056383" lon="13.3063083"><ele>577.0</ele><time>2026-04-18T09:18:10.258Z</time></trkpt><trkpt lat="43.1055567" lon="13.3062083"><ele>577.0</ele><time>2026-04-18T09:18:11.258Z</time></trkpt><trkpt lat="43.10547" lon="13.3061067"><ele>576.0</ele><time>2026-04-18T09:18:12.258Z</time></trkpt><trkpt lat="43.10538" lon="13.3060083"><ele>575.0</ele><time>2026-04-18T09:18:13.258Z</time></trkpt><trkpt lat="43.1052817" lon="13.30592"><ele>574.0</ele><time>2026-04-18T09:18:14.258Z</time></trkpt><trkpt lat="43.105185" lon="13.3058333"><ele>573.0</ele><time>2026-04-18T09:18:15.258Z</time></trkpt><trkpt lat="43.1050683" lon="13.3057683"><ele>573.0</ele><time>2026-04-18T09:18:16.258Z</time></trkpt><trkpt lat="43.1049417" lon="13.3057167"><ele>573.0</ele><time>2026-04-18T09:18:17.258Z</time></trkpt><trkpt lat="43.1048033" lon="13.3056883"><ele>573.0</ele><time>2026-04-18T09:18:18.258Z</time></trkpt><trkpt lat="43.104675" lon="13.3056767"><ele>573.0</ele><time>2026-04-18T09:18:19.258Z</time></trkpt><trkpt lat="43.1045467" lon="13.3056783"><ele>571.0</ele><time>2026-04-18T09:18:20.258Z</time></trkpt><trkpt lat="43.1044267" lon="13.305705"><ele>569.0</ele><time>2026-04-18T09:18:21.258Z</time></trkpt><trkpt lat="43.1043033" lon="13.3057483"><ele>567.0</ele><time>2026-04-18T09:18:22.258Z</time></trkpt><trkpt lat="43.1041767" lon="13.3058033"><ele>565.0</ele><time>2026-04-18T09:18:23.258Z</time></trkpt><trkpt lat="43.1040567" lon="13.305865"><ele>563.4</ele><time>2026-04-18T09:18:24.258Z</time></trkpt><trkpt lat="43.1039467" lon="13.30593"><ele>561.8</ele><time>2026-04-18T09:18:25.258Z</time></trkpt><trkpt lat="43.103845" lon="13.3059717"><ele>560.2</ele><time>2026-04-18T09:18:26.258Z</time></trkpt><trkpt lat="43.10376" lon="13.3059767"><ele>558.6</ele><time>2026-04-18T09:18:27.258Z</time></trkpt><trkpt lat="43.103685" lon="13.30594"><ele>557.0</ele><time>2026-04-18T09:18:28.258Z</time></trkpt><trkpt lat="43.103625" lon="13.3058533"><ele>557.0</ele><time>2026-04-18T09:18:29.258Z</time></trkpt><trkpt lat="43.103595" lon="13.305735"><ele>557.0</ele><time>2026-04-18T09:18:30.258Z</time></trkpt><trkpt lat="43.1035917" lon="13.30558"><ele>557.0</ele><time>2026-04-18T09:18:31.258Z</time></trkpt><trkpt lat="43.1036" lon="13.3053933"><ele>557.0</ele><time>2026-04-18T09:18:32.258Z</time></trkpt><trkpt lat="43.1035967" lon="13.3051883"><ele>557.0</ele><time>2026-04-18T09:18:33.258Z</time></trkpt><trkpt lat="43.103575" lon="13.3049917"><ele>557.0</ele><time>2026-04-18T09:18:34.258Z</time></trkpt><trkpt lat="43.10354" lon="13.3047917"><ele>557.0</ele><time>2026-04-18T09:18:35.258Z</time></trkpt><trkpt lat="43.1035083" lon="13.3045983"><ele>557.0</ele><time>2026-04-18T09:18:36.258Z</time></trkpt><trkpt lat="43.103465" lon="13.3044083"><ele>557.0</ele><time>2026-04-18T09:18:37.258Z</time></trkpt><trkpt lat="43.103415" lon="13.3042133"><ele>557.0</ele><time>2026-04-18T09:18:38.258Z</time></trkpt><trkpt lat="43.103355" lon="13.3040033"><ele>557.0</ele><time>2026-04-18T09:18:39.258Z</time></trkpt><trkpt lat="43.10329" lon="13.3037933"><ele>552.6666666666666</ele><time>2026-04-18T09:18:40.258Z</time></trkpt><trkpt lat="43.1032167" lon="13.3035783"><ele>548.3333333333334</ele><time>2026-04-18T09:18:41.258Z</time></trkpt><trkpt lat="43.1031383" lon="13.3033567"><ele>544.0</ele><time>2026-04-18T09:18:42.258Z</time></trkpt><trkpt lat="43.1030633" lon="13.3031283"><ele>545.6666666666667</ele><time>2026-04-18T09:18:43.258Z</time></trkpt><trkpt lat="43.1029983" lon="13.3029067"><ele>547.3333333333334</ele><time>2026-04-18T09:18:44.258Z</time></trkpt><trkpt lat="43.1029283" lon="13.3026867"><ele>549.0</ele><time>2026-04-18T09:18:45.257Z</time></trkpt><trkpt lat="43.10286" lon="13.3024667"><ele>548.6666666666666</ele><time>2026-04-18T09:18:46.258Z</time></trkpt><trkpt lat="43.1027933" lon="13.3022417"><ele>548.3333333333333</ele><time>2026-04-18T09:18:47.258Z</time></trkpt><trkpt lat="43.1027183" lon="13.302005"><ele>548.0</ele><time>2026-04-18T09:18:48.258Z</time></trkpt><trkpt lat="43.1026467" lon="13.301785"><ele>548.0</ele><time>2026-04-18T09:18:49.258Z</time></trkpt><trkpt lat="43.1025767" lon="13.30158"><ele>548.0</ele><time>2026-04-18T09:18:50.258Z</time></trkpt><trkpt lat="43.1025017" lon="13.301375"><ele>548.0</ele><time>2026-04-18T09:18:51.258Z</time></trkpt><trkpt lat="43.1024367" lon="13.3011783"><ele>547.25</ele><time>2026-04-18T09:18:52.258Z</time></trkpt><trkpt lat="43.1023817" lon="13.300985"><ele>546.5</ele><time>2026-04-18T09:18:53.258Z</time></trkpt><trkpt lat="43.10233" lon="13.3008033"><ele>545.75</ele><time>2026-04-18T09:18:54.258Z</time></trkpt><trkpt lat="43.10228" lon="13.3006233"><ele>545.0</ele><time>2026-04-18T09:18:55.258Z</time></trkpt><trkpt lat="43.1022433" lon="13.3004267"><ele>545.0</ele><time>2026-04-18T09:18:56.258Z</time></trkpt><trkpt lat="43.1022317" lon="13.3002367"><ele>545.0</ele><time>2026-04-18T09:18:57.258Z</time></trkpt><trkpt lat="43.10221" lon="13.3000333"><ele>545.0</ele><time>2026-04-18T09:18:58.258Z</time></trkpt><trkpt lat="43.1021683" lon="13.2998117"><ele>547.6666666666666</ele><time>2026-04-18T09:18:59.258Z</time></trkpt><trkpt lat="43.1021217" lon="13.2995767"><ele>550.3333333333334</ele><time>2026-04-18T09:19:00.258Z</time></trkpt><trkpt lat="43.10207" lon="13.299335"><ele>553.0</ele><time>2026-04-18T09:19:01.257Z</time></trkpt><trkpt lat="43.1020167" lon="13.2990917"><ele>554.3333333333334</ele><time>2026-04-18T09:19:02.258Z</time></trkpt><trkpt lat="43.101965" lon="13.2988633"><ele>555.6666666666666</ele><time>2026-04-18T09:19:03.258Z</time></trkpt><trkpt lat="43.1019083" lon="13.2986633"><ele>557.0</ele><time>2026-04-18T09:19:04.258Z</time></trkpt><trkpt lat="43.1018417" lon="13.2984817"><ele>557.0</ele><time>2026-04-18T09:19:05.258Z</time></trkpt><trkpt lat="43.1017667" lon="13.29831"><ele>557.0</ele><time>2026-04-18T09:19:06.258Z</time></trkpt><trkpt lat="43.1016867" lon="13.2981433"><ele>557.0</ele><time>2026-04-18T09:19:07.258Z</time></trkpt><trkpt lat="43.101595" lon="13.2979783"><ele>557.0</ele><time>2026-04-18T09:19:08.258Z</time></trkpt><trkpt lat="43.1015117" lon="13.297805"><ele>561.3333333333333</ele><time>2026-04-18T09:19:09.258Z</time></trkpt><trkpt lat="43.101425" lon="13.297635"><ele>565.6666666666666</ele><time>2026-04-18T09:19:10.258Z</time></trkpt><trkpt lat="43.1013283" lon="13.29747"><ele>570.0</ele><time>2026-04-18T09:19:11.258Z</time></trkpt><trkpt lat="43.1012283" lon="13.2973167"><ele>571.75</ele><time>2026-04-18T09:19:12.258Z</time></trkpt><trkpt lat="43.10113" lon="13.2971767"><ele>573.5</ele><time>2026-04-18T09:19:13.258Z</time></trkpt><trkpt lat="43.10104" lon="13.297045"><ele>575.25</ele><time>2026-04-18T09:19:14.258Z</time></trkpt><trkpt lat="43.1009467" lon="13.2969467"><ele>577.0</ele><time>2026-04-18T09:19:15.258Z</time></trkpt><trkpt lat="43.1008567" lon="13.2968567"><ele>577.0</ele><time>2026-04-18T09:19:16.258Z</time></trkpt><trkpt lat="43.1007583" lon="13.29679"><ele>577.0</ele><time>2026-04-18T09:19:17.258Z</time></trkpt><trkpt lat="43.1006483" lon="13.2967283"><ele>577.0</ele><time>2026-04-18T09:19:18.258Z</time></trkpt><trkpt lat="43.1005333" lon="13.2966667"><ele>577.0</ele><time>2026-04-18T09:19:19.258Z</time></trkpt><trkpt lat="43.10041" lon="13.2966033"><ele>580.0</ele><time>2026-04-18T09:19:20.257Z</time></trkpt><trkpt lat="43.1002667" lon="13.2965267"><ele>583.0</ele><time>2026-04-18T09:19:21.258Z</time></trkpt><trkpt lat="43.100125" lon="13.296455"><ele>586.0</ele><time>2026-04-18T09:19:22.258Z</time></trkpt><trkpt lat="43.0999867" lon="13.2963867"><ele>592.0</ele><time>2026-04-18T09:19:23.258Z</time></trkpt><trkpt lat="43.0998467" lon="13.2963217"><ele>598.0</ele><time>2026-04-18T09:19:24.258Z</time></trkpt><trkpt lat="43.09969" lon="13.2962617"><ele>604.0</ele><time>2026-04-18T09:19:25.258Z</time></trkpt><trkpt lat="43.09953" lon="13.29622"><ele>604.0</ele><time>2026-04-18T09:19:26.258Z</time></trkpt><trkpt lat="43.0993633" lon="13.296185"><ele>604.0</ele><time>2026-04-18T09:19:27.258Z</time></trkpt><trkpt lat="43.0992017" lon="13.2961483"><ele>604.0</ele><time>2026-04-18T09:19:28.258Z</time></trkpt><trkpt lat="43.0990383" lon="13.29612"><ele>609.6666666666667</ele><time>2026-04-18T09:19:29.258Z</time></trkpt><trkpt lat="43.09888" lon="13.2960933"><ele>615.3333333333334</ele><time>2026-04-18T09:19:30.257Z</time></trkpt><trkpt lat="43.0987267" lon="13.2960783"><ele>621.0</ele><time>2026-04-18T09:19:31.258Z</time></trkpt><trkpt lat="43.0985783" lon="13.29606"><ele>621.0</ele><time>2026-04-18T09:19:32.258Z</time></trkpt><trkpt lat="43.0984333" lon="13.2960333"><ele>621.0</ele><time>2026-04-18T09:19:33.257Z</time></trkpt><trkpt lat="43.09829" lon="13.2960083"><ele>621.0</ele><time>2026-04-18T09:19:34.258Z</time></trkpt><trkpt lat="43.0981367" lon="13.2959767"><ele>621.0</ele><time>2026-04-18T09:19:35.258Z</time></trkpt><trkpt lat="43.0979867" lon="13.2959567"><ele>622.25</ele><time>2026-04-18T09:19:36.258Z</time></trkpt><trkpt lat="43.0978483" lon="13.295925"><ele>623.5</ele><time>2026-04-18T09:19:37.258Z</time></trkpt><trkpt lat="43.097725" lon="13.2958917"><ele>624.75</ele><time>2026-04-18T09:19:38.258Z</time></trkpt><trkpt lat="43.0976167" lon="13.2958467"><ele>626.0</ele><time>2026-04-18T09:19:39.258Z</time></trkpt><trkpt lat="43.09753" lon="13.2957833"><ele>626.0</ele><time>2026-04-18T09:19:40.258Z</time></trkpt><trkpt lat="43.09747" lon="13.2957017"><ele>626.0</ele><time>2026-04-18T09:19:41.258Z</time></trkpt><trkpt lat="43.0974283" lon="13.2956167"><ele>626.0</ele><time>2026-04-18T09:19:42.258Z</time></trkpt><trkpt lat="43.0973917" lon="13.29552"><ele>626.0</ele><time>2026-04-18T09:19:43.258Z</time></trkpt><trkpt lat="43.0973317" lon="13.2954017"><ele>626.0</ele><time>2026-04-18T09:19:44.258Z</time></trkpt><trkpt lat="43.0972617" lon="13.2952983"><ele>626.0</ele><time>2026-04-18T09:19:45.258Z</time></trkpt><trkpt lat="43.09717" lon="13.2951983"><ele>625.4</ele><time>2026-04-18T09:19:46.258Z</time></trkpt><trkpt lat="43.097065" lon="13.2951083"><ele>624.8</ele><time>2026-04-18T09:19:47.258Z</time></trkpt><trkpt lat="43.096975" lon="13.29503"><ele>624.1999999999999</ele><time>2026-04-18T09:19:48.258Z</time></trkpt><trkpt lat="43.0968933" lon="13.2949533"><ele>623.6</ele><time>2026-04-18T09:19:49.258Z</time></trkpt><trkpt lat="43.0968133" lon="13.2948783"><ele>623.0</ele><time>2026-04-18T09:19:50.258Z</time></trkpt><trkpt lat="43.09674" lon="13.29482"><ele>621.4</ele><time>2026-04-18T09:19:51.258Z</time></trkpt><trkpt lat="43.0966683" lon="13.29474"><ele>619.8</ele><time>2026-04-18T09:19:52.258Z</time></trkpt><trkpt lat="43.09659" lon="13.29464"><ele>618.2</ele><time>2026-04-18T09:19:53.258Z</time></trkpt><trkpt lat="43.0965083" lon="13.2945267"><ele>616.6</ele><time>2026-04-18T09:19:54.258Z</time></trkpt><trkpt lat="43.0964317" lon="13.29441"><ele>615.0</ele><time>2026-04-18T09:19:55.258Z</time></trkpt><trkpt lat="43.09635" lon="13.2942867"><ele>613.4</ele><time>2026-04-18T09:19:56.258Z</time></trkpt><trkpt lat="43.0962717" lon="13.2941817"><ele>611.8</ele><time>2026-04-18T09:19:57.257Z</time></trkpt><trkpt lat="43.0962033" lon="13.2940883"><ele>610.2</ele><time>2026-04-18T09:19:58.258Z</time></trkpt><trkpt lat="43.0961417" lon="13.2939933"><ele>608.6</ele><time>2026-04-18T09:19:59.258Z</time></trkpt><trkpt lat="43.0960767" lon="13.29391"><ele>607.0</ele><time>2026-04-18T09:20:00.258Z</time></trkpt><trkpt lat="43.0960117" lon="13.2938267"><ele>606.9999999999999</ele><time>2026-04-18T09:20:01.258Z</time></trkpt><trkpt lat="43.0959567" lon="13.2937383"><ele>607.0</ele><time>2026-04-18T09:20:02.258Z</time></trkpt><trkpt lat="43.0959" lon="13.2936633"><ele>607.0</ele><time>2026-04-18T09:20:03.257Z</time></trkpt><trkpt lat="43.0958467" lon="13.2935933"><ele>607.0</ele><time>2026-04-18T09:20:04.258Z</time></trkpt><trkpt lat="43.0958017" lon="13.293525"><ele>607.0</ele><time>2026-04-18T09:20:05.258Z</time></trkpt><trkpt lat="43.0957583" lon="13.2934533"><ele>606.9999999999999</ele><time>2026-04-18T09:20:06.257Z</time></trkpt><trkpt lat="43.0957167" lon="13.293385"><ele>607.0</ele><time>2026-04-18T09:20:07.258Z</time></trkpt><trkpt lat="43.0956683" lon="13.2933117"><ele>604.6</ele><time>2026-04-18T09:20:08.258Z</time></trkpt><trkpt lat="43.0956167" lon="13.2932317"><ele>602.2</ele><time>2026-04-18T09:20:09.258Z</time></trkpt><trkpt lat="43.0955617" lon="13.293155"><ele>599.8</ele><time>2026-04-18T09:20:10.258Z</time></trkpt><trkpt lat="43.0955067" lon="13.293085"><ele>597.4</ele><time>2026-04-18T09:20:11.258Z</time></trkpt><trkpt lat="43.0954267" lon="13.2929783"><ele>595.0</ele><time>2026-04-18T09:20:13.258Z</time></trkpt><trkpt lat="43.09535" lon="13.2928617"><ele>595.0</ele><time>2026-04-18T09:20:15.258Z</time></trkpt><trkpt lat="43.0953033" lon="13.292795"><ele>595.0</ele><time>2026-04-18T09:20:16.258Z</time></trkpt><trkpt lat="43.0952617" lon="13.2927233"><ele>595.0</ele><time>2026-04-18T09:20:17.258Z</time></trkpt><trkpt lat="43.0952117" lon="13.292645"><ele>595.0</ele><time>2026-04-18T09:20:18.258Z</time></trkpt><trkpt lat="43.09515" lon="13.2925483"><ele>595.0</ele><time>2026-04-18T09:20:19.258Z</time></trkpt><trkpt lat="43.0950717" lon="13.292435"><ele>595.0</ele><time>2026-04-18T09:20:20.258Z</time></trkpt><trkpt lat="43.0949883" lon="13.2923083"><ele>595.5</ele><time>2026-04-18T09:20:21.258Z</time></trkpt><trkpt lat="43.0949033" lon="13.292175"><ele>596.0</ele><time>2026-04-18T09:20:22.258Z</time></trkpt><trkpt lat="43.0948267" lon="13.29205"><ele>596.5</ele><time>2026-04-18T09:20:23.257Z</time></trkpt><trkpt lat="43.094745" lon="13.291925"><ele>597.0</ele><time>2026-04-18T09:20:24.258Z</time></trkpt><trkpt lat="43.094655" lon="13.2917967"><ele>597.0</ele><time>2026-04-18T09:20:25.258Z</time></trkpt><trkpt lat="43.094565" lon="13.2916417"><ele>597.0</ele><time>2026-04-18T09:20:26.258Z</time></trkpt><trkpt lat="43.0944667" lon="13.2914817"><ele>597.0</ele><time>2026-04-18T09:20:27.258Z</time></trkpt><trkpt lat="43.094365" lon="13.29131"><ele>597.6666666666666</ele><time>2026-04-18T09:20:28.258Z</time></trkpt><trkpt lat="43.0942533" lon="13.2911367"><ele>598.3333333333333</ele><time>2026-04-18T09:20:29.258Z</time></trkpt><trkpt lat="43.09415" lon="13.2909783"><ele>599.0</ele><time>2026-04-18T09:20:30.258Z</time></trkpt><trkpt lat="43.09404" lon="13.29083"><ele>600.5</ele><time>2026-04-18T09:20:31.258Z</time></trkpt><trkpt lat="43.0939383" lon="13.2906867"><ele>602.0</ele><time>2026-04-18T09:20:32.258Z</time></trkpt><trkpt lat="43.0938367" lon="13.2905567"><ele>603.5</ele><time>2026-04-18T09:20:33.258Z</time></trkpt><trkpt lat="43.0937183" lon="13.2904317"><ele>605.0</ele><time>2026-04-18T09:20:34.257Z</time></trkpt><trkpt lat="43.0935917" lon="13.2903083"><ele>606.75</ele><time>2026-04-18T09:20:35.258Z</time></trkpt><trkpt lat="43.0934667" lon="13.2902067"><ele>608.5</ele><time>2026-04-18T09:20:36.258Z</time></trkpt><trkpt lat="43.0933533" lon="13.2901167"><ele>610.25</ele><time>2026-04-18T09:20:37.258Z</time></trkpt><trkpt lat="43.09324" lon="13.2900217"><ele>612.0</ele><time>2026-04-18T09:20:38.258Z</time></trkpt><trkpt lat="43.093135" lon="13.2899233"><ele>612.0</ele><time>2026-04-18T09:20:39.258Z</time></trkpt><trkpt lat="43.0930483" lon="13.2898283"><ele>612.0</ele><time>2026-04-18T09:20:40.258Z</time></trkpt><trkpt lat="43.0929633" lon="13.2897417"><ele>612.0</ele><time>2026-04-18T09:20:41.258Z</time></trkpt><trkpt lat="43.092885" lon="13.2896517"><ele>612.0</ele><time>2026-04-18T09:20:42.258Z</time></trkpt><trkpt lat="43.0928017" lon="13.2895517"><ele>612.0</ele><time>2026-04-18T09:20:43.258Z</time></trkpt><trkpt lat="43.0927183" lon="13.2894517"><ele>612.75</ele><time>2026-04-18T09:20:44.258Z</time></trkpt><trkpt lat="43.0926117" lon="13.28935"><ele>613.5</ele><time>2026-04-18T09:20:45.258Z</time></trkpt><trkpt lat="43.0924967" lon="13.2892483"><ele>614.25</ele><time>2026-04-18T09:20:46.258Z</time></trkpt><trkpt lat="43.0923817" lon="13.2891383"><ele>615.0</ele><time>2026-04-18T09:20:47.258Z</time></trkpt><trkpt lat="43.0922733" lon="13.28904"><ele>615.0</ele><time>2026-04-18T09:20:48.258Z</time></trkpt><trkpt lat="43.09216" lon="13.288945"><ele>615.0</ele><time>2026-04-18T09:20:49.258Z</time></trkpt><trkpt lat="43.0920417" lon="13.28886"><ele>615.0</ele><time>2026-04-18T09:20:50.258Z</time></trkpt><trkpt lat="43.09194" lon="13.2887733"><ele>615.0</ele><time>2026-04-18T09:20:51.258Z</time></trkpt><trkpt lat="43.0918383" lon="13.2886867"><ele>614.5</ele><time>2026-04-18T09:20:52.258Z</time></trkpt><trkpt lat="43.091735" lon="13.2886"><ele>614.0</ele><time>2026-04-18T09:20:53.258Z</time></trkpt><trkpt lat="43.0916367" lon="13.28852"><ele>613.5</ele><time>2026-04-18T09:20:54.258Z</time></trkpt><trkpt lat="43.0915383" lon="13.2884367"><ele>613.0</ele><time>2026-04-18T09:20:55.258Z</time></trkpt><trkpt lat="43.0914433" lon="13.2883533"><ele>613.0</ele><time>2026-04-18T09:20:56.258Z</time></trkpt><trkpt lat="43.091335" lon="13.288265"><ele>613.0</ele><time>2026-04-18T09:20:57.258Z</time></trkpt><trkpt lat="43.09123" lon="13.2881817"><ele>613.0</ele><time>2026-04-18T09:20:58.258Z</time></trkpt><trkpt lat="43.091135" lon="13.2880917"><ele>613.0</ele><time>2026-04-18T09:20:59.258Z</time></trkpt><trkpt lat="43.09104" lon="13.2879983"><ele>610.0</ele><time>2026-04-18T09:21:00.258Z</time></trkpt><trkpt lat="43.0909533" lon="13.2879033"><ele>607.0</ele><time>2026-04-18T09:21:01.258Z</time></trkpt><trkpt lat="43.09087" lon="13.287795"><ele>604.0</ele><time>2026-04-18T09:21:02.258Z</time></trkpt><trkpt lat="43.0907967" lon="13.2876767"><ele>601.0</ele><time>2026-04-18T09:21:03.258Z</time></trkpt><trkpt lat="43.0907333" lon="13.2875367"><ele>599.75</ele><time>2026-04-18T09:21:04.258Z</time></trkpt><trkpt lat="43.0906733" lon="13.28738"><ele>598.5</ele><time>2026-04-18T09:21:05.258Z</time></trkpt><trkpt lat="43.0906267" lon="13.28722"><ele>597.25</ele><time>2026-04-18T09:21:06.258Z</time></trkpt><trkpt lat="43.0905783" lon="13.2870517"><ele>596.0</ele><time>2026-04-18T09:21:07.258Z</time></trkpt><trkpt lat="43.0905393" lon="13.286876"><ele>595.25</ele><time>2026-04-18T09:21:08.258Z</time></trkpt><trkpt lat="43.0905139" lon="13.2866986"><ele>594.5</ele><time>2026-04-18T09:21:09.258Z</time></trkpt><trkpt lat="43.0904976" lon="13.2865319"><ele>593.75</ele><time>2026-04-18T09:21:10.258Z</time></trkpt><trkpt lat="43.0904813" lon="13.2863831"><ele>593.0</ele><time>2026-04-18T09:21:11.258Z</time></trkpt><trkpt lat="43.0904585" lon="13.2862445"><ele>593.0</ele><time>2026-04-18T09:21:12.258Z</time></trkpt><trkpt lat="43.0904339" lon="13.2861229"><ele>593.0</ele><time>2026-04-18T09:21:13.258Z</time></trkpt><trkpt lat="43.0904054" lon="13.2860107"><ele>593.0</ele><time>2026-04-18T09:21:14.258Z</time></trkpt><trkpt lat="43.0903715" lon="13.285896"><ele>593.0</ele><time>2026-04-18T09:21:15.257Z</time></trkpt><trkpt lat="43.0903304" lon="13.2857613"><ele>593.0</ele><time>2026-04-18T09:21:16.258Z</time></trkpt><trkpt lat="43.0902846" lon="13.2856178"><ele>593.4</ele><time>2026-04-18T09:21:17.258Z</time></trkpt><trkpt lat="43.0902343" lon="13.2854778"><ele>593.8</ele><time>2026-04-18T09:21:18.258Z</time></trkpt><trkpt lat="43.090185" lon="13.2853462"><ele>594.2</ele><time>2026-04-18T09:21:19.258Z</time></trkpt><trkpt lat="43.0901289" lon="13.2852196"><ele>594.6</ele><time>2026-04-18T09:21:20.258Z</time></trkpt><trkpt lat="43.090077" lon="13.285096"><ele>595.0</ele><time>2026-04-18T09:21:21.258Z</time></trkpt><trkpt lat="43.0900247" lon="13.2849807"><ele>595.0</ele><time>2026-04-18T09:21:22.258Z</time></trkpt><trkpt lat="43.0899786" lon="13.2848707"><ele>595.0</ele><time>2026-04-18T09:21:23.258Z</time></trkpt><trkpt lat="43.0899354" lon="13.284761"><ele>595.0</ele><time>2026-04-18T09:21:24.258Z</time></trkpt><trkpt lat="43.0899084" lon="13.2846558"><ele>595.0</ele><time>2026-04-18T09:21:25.258Z</time></trkpt><trkpt lat="43.089901" lon="13.2845473"><ele>595.0</ele><time>2026-04-18T09:21:26.258Z</time></trkpt><trkpt lat="43.0899134" lon="13.2844441"><ele>595.0</ele><time>2026-04-18T09:21:27.258Z</time></trkpt><trkpt lat="43.0899518" lon="13.2843402"><ele>595.3333333333334</ele><time>2026-04-18T09:21:28.258Z</time></trkpt><trkpt lat="43.0900067" lon="13.2842389"><ele>595.6666666666667</ele><time>2026-04-18T09:21:29.257Z</time></trkpt><trkpt lat="43.0900584" lon="13.2841345"><ele>596.0</ele><time>2026-04-18T09:21:30.258Z</time></trkpt><trkpt lat="43.0900968" lon="13.2840305"><ele>596.3333333333334</ele><time>2026-04-18T09:21:31.258Z</time></trkpt><trkpt lat="43.0901154" lon="13.2839282"><ele>596.6666666666666</ele><time>2026-04-18T09:21:32.258Z</time></trkpt><trkpt lat="43.0901162" lon="13.2838232"><ele>597.0</ele><time>2026-04-18T09:21:33.258Z</time></trkpt><trkpt lat="43.0900945" lon="13.2837099"><ele>596.0</ele><time>2026-04-18T09:21:34.258Z</time></trkpt><trkpt lat="43.0900635" lon="13.2835778"><ele>595.0</ele><time>2026-04-18T09:21:35.258Z</time></trkpt><trkpt lat="43.0900347" lon="13.2834331"><ele>594.0</ele><time>2026-04-18T09:21:36.258Z</time></trkpt><trkpt lat="43.0900105" lon="13.2832946"><ele>593.0</ele><time>2026-04-18T09:21:37.258Z</time></trkpt><trkpt lat="43.0899876" lon="13.2831608"><ele>592.0</ele><time>2026-04-18T09:21:38.258Z</time></trkpt><trkpt lat="43.0899572" lon="13.2830391"><ele>592.6</ele><time>2026-04-18T09:21:39.258Z</time></trkpt><trkpt lat="43.089922" lon="13.2829247"><ele>593.2</ele><time>2026-04-18T09:21:40.258Z</time></trkpt><trkpt lat="43.089875" lon="13.28282"><ele>593.8</ele><time>2026-04-18T09:21:41.257Z</time></trkpt><trkpt lat="43.08983" lon="13.2827167"><ele>594.4</ele><time>2026-04-18T09:21:42.258Z</time></trkpt><trkpt lat="43.0897617" lon="13.2826133"><ele>595.0</ele><time>2026-04-18T09:21:43.258Z</time></trkpt><trkpt lat="43.0896733" lon="13.2825133"><ele>595.0</ele><time>2026-04-18T09:21:44.255Z</time></trkpt><trkpt lat="43.0895833" lon="13.2824217"><ele>595.0</ele><time>2026-04-18T09:21:45.258Z</time></trkpt><trkpt lat="43.0894933" lon="13.2823133"><ele>595.0</ele><time>2026-04-18T09:21:46.258Z</time></trkpt><trkpt lat="43.089415" lon="13.2821883"><ele>595.0</ele><time>2026-04-18T09:21:47.258Z</time></trkpt><trkpt lat="43.0893483" lon="13.2820467"><ele>591.5</ele><time>2026-04-18T09:21:48.258Z</time></trkpt><trkpt lat="43.0892867" lon="13.2819"><ele>588.0</ele><time>2026-04-18T09:21:49.258Z</time></trkpt><trkpt lat="43.0892217" lon="13.2817633"><ele>584.5</ele><time>2026-04-18T09:21:50.258Z</time></trkpt><trkpt lat="43.08915" lon="13.281635"><ele>581.0</ele><time>2026-04-18T09:21:51.257Z</time></trkpt><trkpt lat="43.0890683" lon="13.281525"><ele>578.2</ele><time>2026-04-18T09:21:52.258Z</time></trkpt><trkpt lat="43.0889883" lon="13.28143"><ele>575.4000000000001</ele><time>2026-04-18T09:21:53.258Z</time></trkpt><trkpt lat="43.0889083" lon="13.281355"><ele>572.6</ele><time>2026-04-18T09:21:54.258Z</time></trkpt><trkpt lat="43.0888333" lon="13.28129"><ele>569.8000000000001</ele><time>2026-04-18T09:21:55.258Z</time></trkpt><trkpt lat="43.0887483" lon="13.2812383"><ele>567.0</ele><time>2026-04-18T09:21:56.257Z</time></trkpt><trkpt lat="43.0886667" lon="13.2812033"><ele>567.0</ele><time>2026-04-18T09:21:57.258Z</time></trkpt><trkpt lat="43.0885867" lon="13.28118"><ele>567.0</ele><time>2026-04-18T09:21:58.258Z</time></trkpt><trkpt lat="43.0885017" lon="13.281175"><ele>567.0</ele><time>2026-04-18T09:21:59.258Z</time></trkpt><trkpt lat="43.0884167" lon="13.2811833"><ele>567.0</ele><time>2026-04-18T09:22:00.258Z</time></trkpt><trkpt lat="43.0883417" lon="13.2811767"><ele>567.0</ele><time>2026-04-18T09:22:01.258Z</time></trkpt><trkpt lat="43.088275" lon="13.2811483"><ele>567.0</ele><time>2026-04-18T09:22:02.258Z</time></trkpt><trkpt lat="43.0882167" lon="13.2811067"><ele>566.2</ele><time>2026-04-18T09:22:03.258Z</time></trkpt><trkpt lat="43.0881567" lon="13.2810383"><ele>565.4000000000001</ele><time>2026-04-18T09:22:04.257Z</time></trkpt><trkpt lat="43.0881" lon="13.2809483"><ele>564.5999999999999</ele><time>2026-04-18T09:22:05.258Z</time></trkpt><trkpt lat="43.08805" lon="13.28083"><ele>563.8</ele><time>2026-04-18T09:22:06.258Z</time></trkpt><trkpt lat="43.087995" lon="13.2807067"><ele>563.0</ele><time>2026-04-18T09:22:07.258Z</time></trkpt><trkpt lat="43.0879483" lon="13.2805733"><ele>562.1999999999999</ele><time>2026-04-18T09:22:08.258Z</time></trkpt><trkpt lat="43.08789" lon="13.2804567"><ele>561.4</ele><time>2026-04-18T09:22:09.258Z</time></trkpt><trkpt lat="43.0878283" lon="13.2803467"><ele>560.5999999999999</ele><time>2026-04-18T09:22:10.258Z</time></trkpt><trkpt lat="43.08777" lon="13.2802483"><ele>559.8</ele><time>2026-04-18T09:22:11.258Z</time></trkpt><trkpt lat="43.087705" lon="13.2801383"><ele>559.0</ele><time>2026-04-18T09:22:12.258Z</time></trkpt><trkpt lat="43.087635" lon="13.2800183"><ele>559.0</ele><time>2026-04-18T09:22:13.258Z</time></trkpt><trkpt lat="43.0875633" lon="13.279885"><ele>559.0</ele><time>2026-04-18T09:22:14.258Z</time></trkpt><trkpt lat="43.0874883" lon="13.2797333"><ele>559.0</ele><time>2026-04-18T09:22:15.258Z</time></trkpt><trkpt lat="43.0874083" lon="13.2795667"><ele>559.0</ele><time>2026-04-18T09:22:16.258Z</time></trkpt><trkpt lat="43.08733" lon="13.2793933"><ele>558.25</ele><time>2026-04-18T09:22:17.258Z</time></trkpt><trkpt lat="43.0872533" lon="13.2792267"><ele>557.5</ele><time>2026-04-18T09:22:18.258Z</time></trkpt><trkpt lat="43.0871733" lon="13.2790617"><ele>556.75</ele><time>2026-04-18T09:22:19.258Z</time></trkpt><trkpt lat="43.0870917" lon="13.2788983"><ele>556.0</ele><time>2026-04-18T09:22:20.258Z</time></trkpt><trkpt lat="43.087015" lon="13.278725"><ele>556.0</ele><time>2026-04-18T09:22:21.258Z</time></trkpt><trkpt lat="43.0869483" lon="13.2785633"><ele>556.0</ele><time>2026-04-18T09:22:22.258Z</time></trkpt><trkpt lat="43.0869033" lon="13.2783967"><ele>556.0</ele><time>2026-04-18T09:22:23.258Z</time></trkpt><trkpt lat="43.0868667" lon="13.27823"><ele>556.0</ele><time>2026-04-18T09:22:24.258Z</time></trkpt><trkpt lat="43.0868417" lon="13.2780833"><ele>555.8</ele><time>2026-04-18T09:22:25.258Z</time></trkpt><trkpt lat="43.086815" lon="13.27795"><ele>555.6</ele><time>2026-04-18T09:22:26.258Z</time></trkpt><trkpt lat="43.0867867" lon="13.2778083"><ele>555.4</ele><time>2026-04-18T09:22:27.258Z</time></trkpt><trkpt lat="43.0867417" lon="13.2776783"><ele>555.2</ele><time>2026-04-18T09:22:28.258Z</time></trkpt><trkpt lat="43.086695" lon="13.2775533"><ele>555.0</ele><time>2026-04-18T09:22:29.258Z</time></trkpt><trkpt lat="43.0866383" lon="13.2774267"><ele>552.75</ele><time>2026-04-18T09:22:30.258Z</time></trkpt><trkpt lat="43.0865783" lon="13.2772983"><ele>550.5</ele><time>2026-04-18T09:22:31.258Z</time></trkpt><trkpt lat="43.0865067" lon="13.2771683"><ele>548.25</ele><time>2026-04-18T09:22:32.258Z</time></trkpt><trkpt lat="43.0864333" lon="13.277045"><ele>546.0</ele><time>2026-04-18T09:22:33.258Z</time></trkpt><trkpt lat="43.08635" lon="13.27693"><ele>546.0</ele><time>2026-04-18T09:22:34.258Z</time></trkpt><trkpt lat="43.0862667" lon="13.276825"><ele>546.0</ele><time>2026-04-18T09:22:35.258Z</time></trkpt><trkpt lat="43.086175" lon="13.2767167"><ele>546.0</ele><time>2026-04-18T09:22:36.258Z</time></trkpt><trkpt lat="43.0860833" lon="13.2766117"><ele>546.0</ele><time>2026-04-18T09:22:37.258Z</time></trkpt><trkpt lat="43.0859933" lon="13.2765117"><ele>542.0</ele><time>2026-04-18T09:22:38.258Z</time></trkpt><trkpt lat="43.0858933" lon="13.276405"><ele>538.0</ele><time>2026-04-18T09:22:39.258Z</time></trkpt><trkpt lat="43.0857983" lon="13.2763217"><ele>534.0</ele><time>2026-04-18T09:22:40.258Z</time></trkpt><trkpt lat="43.085715" lon="13.2762517"><ele>530.0</ele><time>2026-04-18T09:22:41.257Z</time></trkpt><trkpt lat="43.0856417" lon="13.2762083"><ele>526.0</ele><time>2026-04-18T09:22:42.258Z</time></trkpt><trkpt lat="43.0855767" lon="13.2761733"><ele>526.0</ele><time>2026-04-18T09:22:43.258Z</time></trkpt><trkpt lat="43.0855033" lon="13.2761367"><ele>526.0</ele><time>2026-04-18T09:22:44.258Z</time></trkpt><trkpt lat="43.08542" lon="13.276105"><ele>526.0</ele><time>2026-04-18T09:22:45.258Z</time></trkpt><trkpt lat="43.0853217" lon="13.2760817"><ele>526.0</ele><time>2026-04-18T09:22:46.258Z</time></trkpt><trkpt lat="43.085215" lon="13.2760567"><ele>526.0</ele><time>2026-04-18T09:22:47.258Z</time></trkpt><trkpt lat="43.085105" lon="13.276035"><ele>526.0</ele><time>2026-04-18T09:22:48.258Z</time></trkpt><trkpt lat="43.08499" lon="13.2760133"><ele>526.0</ele><time>2026-04-18T09:22:49.258Z</time></trkpt><trkpt lat="43.0848733" lon="13.2759933"><ele>526.0</ele><time>2026-04-18T09:22:50.257Z</time></trkpt><trkpt lat="43.0847483" lon="13.2759817"><ele>526.0</ele><time>2026-04-18T09:22:51.258Z</time></trkpt><trkpt lat="43.0846183" lon="13.2759733"><ele>524.75</ele><time>2026-04-18T09:22:52.258Z</time></trkpt><trkpt lat="43.08449" lon="13.275965"><ele>523.5</ele><time>2026-04-18T09:22:53.258Z</time></trkpt><trkpt lat="43.0843633" lon="13.2759683"><ele>522.25</ele><time>2026-04-18T09:22:54.258Z</time></trkpt><trkpt lat="43.0842267" lon="13.2759633"><ele>521.0</ele><time>2026-04-18T09:22:55.258Z</time></trkpt><trkpt lat="43.08411" lon="13.2759517"><ele>518.8</ele><time>2026-04-18T09:22:56.258Z</time></trkpt><trkpt lat="43.0840033" lon="13.2759367"><ele>516.6</ele><time>2026-04-18T09:22:57.258Z</time></trkpt><trkpt lat="43.0839133" lon="13.27593"><ele>514.4</ele><time>2026-04-18T09:22:58.258Z</time></trkpt><trkpt lat="43.0838417" lon="13.275925"><ele>512.2</ele><time>2026-04-18T09:22:59.258Z</time></trkpt><trkpt lat="43.0837533" lon="13.2760083"><ele>510.0</ele><time>2026-04-18T09:23:01.258Z</time></trkpt><trkpt lat="43.0838267" lon="13.276185"><ele>510.0</ele><time>2026-04-18T09:23:03.258Z</time></trkpt><trkpt lat="43.0839183" lon="13.2763083"><ele>510.0</ele><time>2026-04-18T09:23:04.258Z</time></trkpt><trkpt lat="43.08401" lon="13.2764467"><ele>510.0</ele><time>2026-04-18T09:23:05.258Z</time></trkpt><trkpt lat="43.0840983" lon="13.27658"><ele>510.0</ele><time>2026-04-18T09:23:06.258Z</time></trkpt><trkpt lat="43.0841783" lon="13.2767183"><ele>511.4</ele><time>2026-04-18T09:23:07.258Z</time></trkpt><trkpt lat="43.08425" lon="13.2768517"><ele>512.8</ele><time>2026-04-18T09:23:08.258Z</time></trkpt><trkpt lat="43.0843033" lon="13.276955"><ele>514.2</ele><time>2026-04-18T09:23:09.258Z</time></trkpt><trkpt lat="43.0843517" lon="13.277045"><ele>515.6</ele><time>2026-04-18T09:23:10.258Z</time></trkpt><trkpt lat="43.0843833" lon="13.2771233"><ele>517.0</ele><time>2026-04-18T09:23:11.258Z</time></trkpt><trkpt lat="43.084315" lon="13.27726"><ele>517.0</ele><time>2026-04-18T09:23:13.258Z</time></trkpt><trkpt lat="43.084235" lon="13.27728"><ele>517.0</ele><time>2026-04-18T09:23:14.258Z</time></trkpt><trkpt lat="43.0841467" lon="13.2772383"><ele>517.0</ele><time>2026-04-18T09:23:15.258Z</time></trkpt><trkpt lat="43.084065" lon="13.277155"><ele>517.0</ele><time>2026-04-18T09:23:16.258Z</time></trkpt><trkpt lat="43.0839833" lon="13.2770633"><ele>517.0</ele><time>2026-04-18T09:23:17.258Z</time></trkpt><trkpt lat="43.0838983" lon="13.2769633"><ele>514.0</ele><time>2026-04-18T09:23:18.258Z</time></trkpt><trkpt lat="43.0838167" lon="13.276855"><ele>511.0</ele><time>2026-04-18T09:23:19.258Z</time></trkpt><trkpt lat="43.08373" lon="13.276755"><ele>508.0</ele><time>2026-04-18T09:23:20.258Z</time></trkpt><trkpt lat="43.0836383" lon="13.27665"><ele>505.0</ele><time>2026-04-18T09:23:21.258Z</time></trkpt><trkpt lat="43.08354" lon="13.2765583"><ele>505.0</ele><time>2026-04-18T09:23:22.258Z</time></trkpt><trkpt lat="43.0834317" lon="13.2764917"><ele>505.0</ele><time>2026-04-18T09:23:23.258Z</time></trkpt><trkpt lat="43.0833233" lon="13.27644"><ele>505.0</ele><time>2026-04-18T09:23:24.258Z</time></trkpt><trkpt lat="43.0832083" lon="13.2763983"><ele>505.0</ele><time>2026-04-18T09:23:25.258Z</time></trkpt><trkpt lat="43.0830967" lon="13.27636"><ele>502.6</ele><time>2026-04-18T09:23:26.258Z</time></trkpt><trkpt lat="43.0829817" lon="13.2763383"><ele>500.2</ele><time>2026-04-18T09:23:27.258Z</time></trkpt><trkpt lat="43.08288" lon="13.2763067"><ele>497.79999999999995</ele><time>2026-04-18T09:23:28.258Z</time></trkpt><trkpt lat="43.08281" lon="13.27626"><ele>495.4</ele><time>2026-04-18T09:23:29.258Z</time></trkpt><trkpt lat="43.0827517" lon="13.2761733"><ele>493.0</ele><time>2026-04-18T09:23:30.258Z</time></trkpt><trkpt lat="43.0827" lon="13.2760717"><ele>493.0</ele><time>2026-04-18T09:23:31.258Z</time></trkpt><trkpt lat="43.0826733" lon="13.2759617"><ele>492.99999999999994</ele><time>2026-04-18T09:23:32.258Z</time></trkpt><trkpt lat="43.0826583" lon="13.2758417"><ele>492.99999999999994</ele><time>2026-04-18T09:23:33.258Z</time></trkpt><trkpt lat="43.0826367" lon="13.275715"><ele>493.0</ele><time>2026-04-18T09:23:34.258Z</time></trkpt><trkpt lat="43.0826033" lon="13.275575"><ele>493.0</ele><time>2026-04-18T09:23:35.258Z</time></trkpt><trkpt lat="43.08256" lon="13.2754167"><ele>492.2</ele><time>2026-04-18T09:23:36.258Z</time></trkpt><trkpt lat="43.0825367" lon="13.275255"><ele>491.4</ele><time>2026-04-18T09:23:37.257Z</time></trkpt><trkpt lat="43.0825183" lon="13.2751017"><ele>490.59999999999997</ele><time>2026-04-18T09:23:38.258Z</time></trkpt><trkpt lat="43.0825067" lon="13.2749633"><ele>489.79999999999995</ele><time>2026-04-18T09:23:39.258Z</time></trkpt><trkpt lat="43.0824917" lon="13.274825"><ele>489.0</ele><time>2026-04-18T09:23:40.258Z</time></trkpt><trkpt lat="43.0824767" lon="13.2747"><ele>488.1666666666667</ele><time>2026-04-18T09:23:41.258Z</time></trkpt><trkpt lat="43.0824683" lon="13.2746"><ele>487.33333333333337</ele><time>2026-04-18T09:23:42.258Z</time></trkpt><trkpt lat="43.0824767" lon="13.274475"><ele>486.5</ele><time>2026-04-18T09:23:44.258Z</time></trkpt><trkpt lat="43.0824856" lon="13.2743782"><ele>485.6666666666667</ele><time>2026-04-18T09:23:47.343Z</time></trkpt><trkpt lat="43.0824133" lon="13.274245"><ele>484.83333333333337</ele><time>2026-04-18T09:23:50.258Z</time></trkpt><trkpt lat="43.0823617" lon="13.27418"><ele>484.0</ele><time>2026-04-18T09:23:51.258Z</time></trkpt><trkpt lat="43.0822917" lon="13.2740983"><ele>483.25</ele><time>2026-04-18T09:23:52.258Z</time></trkpt><trkpt lat="43.0822117" lon="13.2739917"><ele>482.5</ele><time>2026-04-18T09:23:53.258Z</time></trkpt><trkpt lat="43.08213" lon="13.2738767"><ele>481.75</ele><time>2026-04-18T09:23:54.258Z</time></trkpt><trkpt lat="43.0820417" lon="13.2737433"><ele>481.0</ele><time>2026-04-18T09:23:55.258Z</time></trkpt><trkpt lat="43.0819483" lon="13.27363"><ele>481.0</ele><time>2026-04-18T09:23:56.258Z</time></trkpt><trkpt lat="43.0818617" lon="13.2735183"><ele>481.0</ele><time>2026-04-18T09:23:57.258Z</time></trkpt><trkpt lat="43.081775" lon="13.2734117"><ele>481.0</ele><time>2026-04-18T09:23:58.258Z</time></trkpt><trkpt lat="43.0816933" lon="13.2732983"><ele>481.0</ele><time>2026-04-18T09:23:59.258Z</time></trkpt><trkpt lat="43.0816183" lon="13.273205"><ele>480.8</ele><time>2026-04-18T09:24:00.258Z</time></trkpt><trkpt lat="43.08156" lon="13.2731233"><ele>480.6</ele><time>2026-04-18T09:24:01.258Z</time></trkpt><trkpt lat="43.0814767" lon="13.2730183"><ele>480.4</ele><time>2026-04-18T09:24:03.258Z</time></trkpt><trkpt lat="43.0814933" lon="13.2729283"><ele>480.2</ele><time>2026-04-18T09:24:07.258Z</time></trkpt><trkpt lat="43.0816033" lon="13.27294"><ele>480.0</ele><time>2026-04-18T09:24:09.258Z</time></trkpt><trkpt lat="43.0816817" lon="13.2729667"><ele>480.0</ele><time>2026-04-18T09:24:10.258Z</time></trkpt><trkpt lat="43.0817683" lon="13.2730017"><ele>480.0</ele><time>2026-04-18T09:24:11.258Z</time></trkpt><trkpt lat="43.08187" lon="13.2730633"><ele>480.0</ele><time>2026-04-18T09:24:12.258Z</time></trkpt><trkpt lat="43.0819733" lon="13.273145"><ele>480.0</ele><time>2026-04-18T09:24:13.258Z</time></trkpt><trkpt lat="43.08208" lon="13.27322"><ele>480.0</ele><time>2026-04-18T09:24:14.258Z</time></trkpt><trkpt lat="43.082195" lon="13.2732967"><ele>480.25</ele><time>2026-04-18T09:24:15.258Z</time></trkpt><trkpt lat="43.0823183" lon="13.2733767"><ele>480.5</ele><time>2026-04-18T09:24:16.258Z</time></trkpt><trkpt lat="43.0824483" lon="13.2734633"><ele>480.75</ele><time>2026-04-18T09:24:17.258Z</time></trkpt><trkpt lat="43.08259" lon="13.2735633"><ele>481.0</ele><time>2026-04-18T09:24:18.258Z</time></trkpt><trkpt lat="43.0827317" lon="13.2736633"><ele>479.0</ele><time>2026-04-18T09:24:19.258Z</time></trkpt><trkpt lat="43.08289" lon="13.2737483"><ele>477.0</ele><time>2026-04-18T09:24:20.258Z</time></trkpt><trkpt lat="43.0830467" lon="13.2738317"><ele>475.0</ele><time>2026-04-18T09:24:21.258Z</time></trkpt><trkpt lat="43.0832033" lon="13.2739083"><ele>477.33333333333337</ele><time>2026-04-18T09:24:22.258Z</time></trkpt><trkpt lat="43.083365" lon="13.27398"><ele>479.66666666666663</ele><time>2026-04-18T09:24:23.258Z</time></trkpt><trkpt lat="43.083535" lon="13.274015"><ele>482.0</ele><time>2026-04-18T09:24:24.258Z</time></trkpt><trkpt lat="43.0837067" lon="13.2740117"><ele>482.0</ele><time>2026-04-18T09:24:25.258Z</time></trkpt><trkpt lat="43.08387" lon="13.2739683"><ele>482.0</ele><time>2026-04-18T09:24:26.258Z</time></trkpt><trkpt lat="43.0840333" lon="13.2739067"><ele>482.0</ele><time>2026-04-18T09:24:27.258Z</time></trkpt><trkpt lat="43.0841817" lon="13.273825"><ele>473.66666666666663</ele><time>2026-04-18T09:24:28.258Z</time></trkpt><trkpt lat="43.084325" lon="13.2737433"><ele>465.33333333333337</ele><time>2026-04-18T09:24:29.258Z</time></trkpt><trkpt lat="43.0844833" lon="13.273705"><ele>457.0</ele><time>2026-04-18T09:24:30.258Z</time></trkpt><trkpt lat="43.084655" lon="13.27369"><ele>457.0</ele><time>2026-04-18T09:24:31.257Z</time></trkpt><trkpt lat="43.084825" lon="13.27373"><ele>457.0</ele><time>2026-04-18T09:24:32.258Z</time></trkpt><trkpt lat="43.0850017" lon="13.2738067"><ele>457.0</ele><time>2026-04-18T09:24:33.258Z</time></trkpt><trkpt lat="43.0851817" lon="13.2739"><ele>460.6666666666667</ele><time>2026-04-18T09:24:34.258Z</time></trkpt><trkpt lat="43.0853633" lon="13.27399"><ele>464.33333333333337</ele><time>2026-04-18T09:24:35.258Z</time></trkpt><trkpt lat="43.0855333" lon="13.2740667"><ele>468.0</ele><time>2026-04-18T09:24:36.258Z</time></trkpt><trkpt lat="43.0857" lon="13.274145"><ele>465.0</ele><time>2026-04-18T09:24:37.258Z</time></trkpt><trkpt lat="43.0858567" lon="13.27421"><ele>462.0</ele><time>2026-04-18T09:24:38.257Z</time></trkpt><trkpt lat="43.0860167" lon="13.2742783"><ele>459.0</ele><time>2026-04-18T09:24:39.258Z</time></trkpt><trkpt lat="43.0861783" lon="13.2743217"><ele>459.0</ele><time>2026-04-18T09:24:40.258Z</time></trkpt><trkpt lat="43.08635" lon="13.274345"><ele>459.0</ele><time>2026-04-18T09:24:41.258Z</time></trkpt><trkpt lat="43.086515" lon="13.274325"><ele>459.0</ele><time>2026-04-18T09:24:42.258Z</time></trkpt><trkpt lat="43.0866733" lon="13.2742983"><ele>457.75</ele><time>2026-04-18T09:24:43.258Z</time></trkpt><trkpt lat="43.0868217" lon="13.274295"><ele>456.5</ele><time>2026-04-18T09:24:44.258Z</time></trkpt><trkpt lat="43.0869617" lon="13.2743267"><ele>455.25</ele><time>2026-04-18T09:24:45.258Z</time></trkpt><trkpt lat="43.0870933" lon="13.2744233"><ele>454.0</ele><time>2026-04-18T09:24:46.258Z</time></trkpt><trkpt lat="43.0872167" lon="13.2745683"><ele>454.0</ele><time>2026-04-18T09:24:47.258Z</time></trkpt><trkpt lat="43.0873367" lon="13.2747067"><ele>454.0</ele><time>2026-04-18T09:24:48.258Z</time></trkpt><trkpt lat="43.08745" lon="13.2748467"><ele>454.0</ele><time>2026-04-18T09:24:49.258Z</time></trkpt><trkpt lat="43.0875883" lon="13.274955"><ele>458.6666666666667</ele><time>2026-04-18T09:24:50.258Z</time></trkpt><trkpt lat="43.0877217" lon="13.275045"><ele>463.33333333333337</ele><time>2026-04-18T09:24:51.257Z</time></trkpt><trkpt lat="43.0878783" lon="13.2750783"><ele>468.0</ele><time>2026-04-18T09:24:52.258Z</time></trkpt><trkpt lat="43.08803" lon="13.2750683"><ele>468.0</ele><time>2026-04-18T09:24:53.258Z</time></trkpt><trkpt lat="43.08818" lon="13.27501"><ele>468.0</ele><time>2026-04-18T09:24:54.258Z</time></trkpt><trkpt lat="43.08831" lon="13.2748967"><ele>468.0</ele><time>2026-04-18T09:24:55.258Z</time></trkpt><trkpt lat="43.0884183" lon="13.274755"><ele>460.25</ele><time>2026-04-18T09:24:56.258Z</time></trkpt><trkpt lat="43.088515" lon="13.2746017"><ele>452.5</ele><time>2026-04-18T09:24:57.258Z</time></trkpt><trkpt lat="43.0886133" lon="13.2744633"><ele>444.75</ele><time>2026-04-18T09:24:58.258Z</time></trkpt><trkpt lat="43.0887167" lon="13.2743317"><ele>437.0</ele><time>2026-04-18T09:24:59.258Z</time></trkpt><trkpt lat="43.0888283" lon="13.2742283"><ele>437.0</ele><time>2026-04-18T09:25:00.258Z</time></trkpt><trkpt lat="43.0889517" lon="13.2741733"><ele>437.0</ele><time>2026-04-18T09:25:01.258Z</time></trkpt><trkpt lat="43.08907" lon="13.274165"><ele>437.0</ele><time>2026-04-18T09:25:02.258Z</time></trkpt><trkpt lat="43.089195" lon="13.2741933"><ele>437.0</ele><time>2026-04-18T09:25:03.257Z</time></trkpt><trkpt lat="43.089315" lon="13.2742733"><ele>438.5</ele><time>2026-04-18T09:25:04.258Z</time></trkpt><trkpt lat="43.08943" lon="13.2743567"><ele>440.0</ele><time>2026-04-18T09:25:05.258Z</time></trkpt><trkpt lat="43.0895417" lon="13.2744183"><ele>441.5</ele><time>2026-04-18T09:25:06.258Z</time></trkpt><trkpt lat="43.08964" lon="13.2744467"><ele>443.0</ele><time>2026-04-18T09:25:07.258Z</time></trkpt><trkpt lat="43.08975" lon="13.2744317"><ele>443.0</ele><time>2026-04-18T09:25:08.258Z</time></trkpt><trkpt lat="43.089865" lon="13.2743683"><ele>443.0</ele><time>2026-04-18T09:25:09.258Z</time></trkpt><trkpt lat="43.0899483" lon="13.2742383"><ele>443.0</ele><time>2026-04-18T09:25:10.258Z</time></trkpt><trkpt lat="43.0900467" lon="13.274095"><ele>443.0</ele><time>2026-04-18T09:25:11.258Z</time></trkpt><trkpt lat="43.09017" lon="13.2739417"><ele>436.3333333333333</ele><time>2026-04-18T09:25:12.258Z</time></trkpt><trkpt lat="43.090315" lon="13.2738333"><ele>429.66666666666663</ele><time>2026-04-18T09:25:13.257Z</time></trkpt><trkpt lat="43.090475" lon="13.2737533"><ele>423.0</ele><time>2026-04-18T09:25:14.258Z</time></trkpt><trkpt lat="43.09063" lon="13.2737083"><ele>424.66666666666663</ele><time>2026-04-18T09:25:15.258Z</time></trkpt><trkpt lat="43.0907833" lon="13.2736867"><ele>426.3333333333333</ele><time>2026-04-18T09:25:16.258Z</time></trkpt><trkpt lat="43.0909367" lon="13.2736867"><ele>428.0</ele><time>2026-04-18T09:25:17.258Z</time></trkpt><trkpt lat="43.09109" lon="13.273705"><ele>428.0</ele><time>2026-04-18T09:25:18.258Z</time></trkpt><trkpt lat="43.09124" lon="13.273725"><ele>428.0</ele><time>2026-04-18T09:25:19.258Z</time></trkpt><trkpt lat="43.0913917" lon="13.273745"><ele>428.0</ele><time>2026-04-18T09:25:20.258Z</time></trkpt><trkpt lat="43.0915383" lon="13.27376"><ele>427.5</ele><time>2026-04-18T09:25:21.258Z</time></trkpt><trkpt lat="43.091675" lon="13.273775"><ele>427.0</ele><time>2026-04-18T09:25:22.258Z</time></trkpt><trkpt lat="43.0917983" lon="13.2737733"><ele>426.5</ele><time>2026-04-18T09:25:23.258Z</time></trkpt><trkpt lat="43.0919267" lon="13.273715"><ele>426.0</ele><time>2026-04-18T09:25:24.258Z</time></trkpt><trkpt lat="43.09204" lon="13.2736017"><ele>426.0</ele><time>2026-04-18T09:25:25.258Z</time></trkpt><trkpt lat="43.092155" lon="13.2734567"><ele>426.0</ele><time>2026-04-18T09:25:26.258Z</time></trkpt><trkpt lat="43.0922517" lon="13.2733033"><ele>426.0</ele><time>2026-04-18T09:25:27.258Z</time></trkpt><trkpt lat="43.0923433" lon="13.2731433"><ele>424.0</ele><time>2026-04-18T09:25:28.258Z</time></trkpt><trkpt lat="43.09244" lon="13.2729983"><ele>422.0</ele><time>2026-04-18T09:25:29.258Z</time></trkpt><trkpt lat="43.0925467" lon="13.2728883"><ele>420.0</ele><time>2026-04-18T09:25:30.258Z</time></trkpt><trkpt lat="43.0926717" lon="13.2728217"><ele>418.0</ele><time>2026-04-18T09:25:31.258Z</time></trkpt><trkpt lat="43.0928183" lon="13.2728017"><ele>418.0</ele><time>2026-04-18T09:25:32.258Z</time></trkpt><trkpt lat="43.0929733" lon="13.2728017"><ele>418.0</ele><time>2026-04-18T09:25:33.258Z</time></trkpt><trkpt lat="43.0931317" lon="13.2728133"><ele>418.0</ele><time>2026-04-18T09:25:34.258Z</time></trkpt><trkpt lat="43.0933" lon="13.2728233"><ele>417.6666666666667</ele><time>2026-04-18T09:25:35.258Z</time></trkpt><trkpt lat="43.093475" lon="13.272825"><ele>417.33333333333337</ele><time>2026-04-18T09:25:36.258Z</time></trkpt><trkpt lat="43.0936467" lon="13.2728117"><ele>417.0</ele><time>2026-04-18T09:25:37.258Z</time></trkpt><trkpt lat="43.0938167" lon="13.2728017"><ele>417.0</ele><time>2026-04-18T09:25:38.258Z</time></trkpt><trkpt lat="43.094" lon="13.2727883"><ele>417.0</ele><time>2026-04-18T09:25:39.258Z</time></trkpt><trkpt lat="43.0941733" lon="13.2727733"><ele>417.0</ele><time>2026-04-18T09:25:40.258Z</time></trkpt><trkpt lat="43.094355" lon="13.27274"><ele>415.66666666666663</ele><time>2026-04-18T09:25:41.258Z</time></trkpt><trkpt lat="43.0945433" lon="13.2726933"><ele>414.3333333333333</ele><time>2026-04-18T09:25:42.258Z</time></trkpt><trkpt lat="43.0947217" lon="13.2726717"><ele>413.0</ele><time>2026-04-18T09:25:43.258Z</time></trkpt><trkpt lat="43.0948917" lon="13.27267"><ele>413.3333333333333</ele><time>2026-04-18T09:25:44.258Z</time></trkpt><trkpt lat="43.09506" lon="13.2726833"><ele>413.66666666666663</ele><time>2026-04-18T09:25:45.258Z</time></trkpt><trkpt lat="43.0952267" lon="13.2726917"><ele>414.0</ele><time>2026-04-18T09:25:46.258Z</time></trkpt><trkpt lat="43.0953917" lon="13.2726717"><ele>414.0</ele><time>2026-04-18T09:25:47.258Z</time></trkpt><trkpt lat="43.0955433" lon="13.2726167"><ele>414.0</ele><time>2026-04-18T09:25:48.258Z</time></trkpt><trkpt lat="43.09569" lon="13.2725183"><ele>414.0</ele><time>2026-04-18T09:25:49.258Z</time></trkpt><trkpt lat="43.0958383" lon="13.2724017"><ele>415.0</ele><time>2026-04-18T09:25:50.258Z</time></trkpt><trkpt lat="43.0959867" lon="13.2722933"><ele>416.0</ele><time>2026-04-18T09:25:51.258Z</time></trkpt><trkpt lat="43.0961233" lon="13.2722067"><ele>417.0</ele><time>2026-04-18T09:25:52.258Z</time></trkpt><trkpt lat="43.0962683" lon="13.2721483"><ele>412.0</ele><time>2026-04-18T09:25:53.258Z</time></trkpt><trkpt lat="43.09643" lon="13.2721183"><ele>407.0</ele><time>2026-04-18T09:25:54.258Z</time></trkpt><trkpt lat="43.0965917" lon="13.2720983"><ele>402.0</ele><time>2026-04-18T09:25:55.258Z</time></trkpt><trkpt lat="43.0967417" lon="13.2720617"><ele>402.0</ele><time>2026-04-18T09:25:56.258Z</time></trkpt><trkpt lat="43.09688" lon="13.2720217"><ele>402.0</ele><time>2026-04-18T09:25:57.258Z</time></trkpt><trkpt lat="43.09701" lon="13.27196"><ele>402.0</ele><time>2026-04-18T09:25:58.258Z</time></trkpt><trkpt lat="43.09714" lon="13.271845"><ele>402.0</ele><time>2026-04-18T09:25:59.258Z</time></trkpt><trkpt lat="43.0972533" lon="13.2717117"><ele>402.0</ele><time>2026-04-18T09:26:00.258Z</time></trkpt><trkpt lat="43.0973483" lon="13.27155"><ele>402.0</ele><time>2026-04-18T09:26:01.258Z</time></trkpt><trkpt lat="43.0974533" lon="13.2714067"><ele>402.0</ele><time>2026-04-18T09:26:02.258Z</time></trkpt><trkpt lat="43.09756" lon="13.271305"><ele>402.0</ele><time>2026-04-18T09:26:03.258Z</time></trkpt><trkpt lat="43.0976967" lon="13.2712383"><ele>400.66666666666663</ele><time>2026-04-18T09:26:04.258Z</time></trkpt><trkpt lat="43.097845" lon="13.2712367"><ele>399.3333333333333</ele><time>2026-04-18T09:26:05.258Z</time></trkpt><trkpt lat="43.0979967" lon="13.271275"><ele>398.0</ele><time>2026-04-18T09:26:06.258Z</time></trkpt><trkpt lat="43.0981433" lon="13.27132"><ele>398.5</ele><time>2026-04-18T09:26:07.257Z</time></trkpt><trkpt lat="43.0982833" lon="13.27136"><ele>399.0</ele><time>2026-04-18T09:26:08.258Z</time></trkpt><trkpt lat="43.098425" lon="13.271395"><ele>399.5</ele><time>2026-04-18T09:26:09.258Z</time></trkpt><trkpt lat="43.0985633" lon="13.2714417"><ele>400.0</ele><time>2026-04-18T09:26:10.258Z</time></trkpt><trkpt lat="43.09871" lon="13.2714517"><ele>400.0</ele><time>2026-04-18T09:26:11.258Z</time></trkpt><trkpt lat="43.098865" lon="13.2714383"><ele>400.0</ele><time>2026-04-18T09:26:12.258Z</time></trkpt><trkpt lat="43.099005" lon="13.271375"><ele>400.0</ele><time>2026-04-18T09:26:13.258Z</time></trkpt><trkpt lat="43.09914" lon="13.2713017"><ele>400.0</ele><time>2026-04-18T09:26:14.258Z</time></trkpt><trkpt lat="43.0992767" lon="13.27122"><ele>398.0</ele><time>2026-04-18T09:26:15.258Z</time></trkpt><trkpt lat="43.0994167" lon="13.2711317"><ele>396.0</ele><time>2026-04-18T09:26:16.258Z</time></trkpt><trkpt lat="43.0995717" lon="13.2710433"><ele>394.0</ele><time>2026-04-18T09:26:17.258Z</time></trkpt><trkpt lat="43.0997183" lon="13.2709417"><ele>394.0</ele><time>2026-04-18T09:26:18.258Z</time></trkpt><trkpt lat="43.0998617" lon="13.2708517"><ele>394.0</ele><time>2026-04-18T09:26:19.258Z</time></trkpt><trkpt lat="43.1000033" lon="13.2707683"><ele>394.0</ele><time>2026-04-18T09:26:20.258Z</time></trkpt><trkpt lat="43.100135" lon="13.270695"><ele>395.25</ele><time>2026-04-18T09:26:21.258Z</time></trkpt><trkpt lat="43.1002617" lon="13.2706117"><ele>396.5</ele><time>2026-04-18T09:26:22.258Z</time></trkpt><trkpt lat="43.10039" lon="13.2705417"><ele>397.75</ele><time>2026-04-18T09:26:23.258Z</time></trkpt><trkpt lat="43.1005083" lon="13.27047"><ele>399.0</ele><time>2026-04-18T09:26:24.258Z</time></trkpt><trkpt lat="43.1006233" lon="13.2703967"><ele>396.75</ele><time>2026-04-18T09:26:25.258Z</time></trkpt><trkpt lat="43.1007333" lon="13.2703283"><ele>394.5</ele><time>2026-04-18T09:26:26.258Z</time></trkpt><trkpt lat="43.1008417" lon="13.2702667"><ele>392.25</ele><time>2026-04-18T09:26:27.258Z</time></trkpt><trkpt lat="43.1009483" lon="13.2701967"><ele>390.0</ele><time>2026-04-18T09:26:28.258Z</time></trkpt><trkpt lat="43.1010483" lon="13.2701317"><ele>390.0</ele><time>2026-04-18T09:26:29.258Z</time></trkpt><trkpt lat="43.1011483" lon="13.270075"><ele>390.0</ele><time>2026-04-18T09:26:30.258Z</time></trkpt><trkpt lat="43.10123" lon="13.2700267"><ele>390.0</ele><time>2026-04-18T09:26:31.258Z</time></trkpt><trkpt lat="43.1012933" lon="13.26998"><ele>390.0</ele><time>2026-04-18T09:26:32.258Z</time></trkpt><trkpt lat="43.1013433" lon="13.2699133"><ele>390.0</ele><time>2026-04-18T09:26:33.258Z</time></trkpt><trkpt lat="43.1013683" lon="13.269815"><ele>390.0</ele><time>2026-04-18T09:26:34.258Z</time></trkpt><trkpt lat="43.1013733" lon="13.2696917"><ele>388.75</ele><time>2026-04-18T09:26:35.258Z</time></trkpt><trkpt lat="43.101365" lon="13.2695483"><ele>387.5</ele><time>2026-04-18T09:26:36.258Z</time></trkpt><trkpt lat="43.1013367" lon="13.2694"><ele>386.25</ele><time>2026-04-18T09:26:37.257Z</time></trkpt><trkpt lat="43.101285" lon="13.269255"><ele>385.0</ele><time>2026-04-18T09:26:38.258Z</time></trkpt><trkpt lat="43.10121" lon="13.26911"><ele>385.0</ele><time>2026-04-18T09:26:39.258Z</time></trkpt><trkpt lat="43.1011067" lon="13.268985"><ele>385.0</ele><time>2026-04-18T09:26:40.258Z</time></trkpt><trkpt lat="43.1009883" lon="13.2688717"><ele>385.0</ele><time>2026-04-18T09:26:41.258Z</time></trkpt><trkpt lat="43.1008817" lon="13.2687633"><ele>385.0</ele><time>2026-04-18T09:26:42.258Z</time></trkpt><trkpt lat="43.10079" lon="13.2686783"><ele>380.8</ele><time>2026-04-18T09:26:43.258Z</time></trkpt><trkpt lat="43.1007017" lon="13.268615"><ele>376.6</ele><time>2026-04-18T09:26:44.258Z</time></trkpt><trkpt lat="43.100615" lon="13.268595"><ele>372.4</ele><time>2026-04-18T09:26:45.258Z</time></trkpt><trkpt lat="43.100525" lon="13.26865"><ele>368.2</ele><time>2026-04-18T09:26:46.258Z</time></trkpt><trkpt lat="43.100435" lon="13.2687667"><ele>364.0</ele><time>2026-04-18T09:26:47.258Z</time></trkpt><trkpt lat="43.1003383" lon="13.26889"><ele>364.0</ele><time>2026-04-18T09:26:48.258Z</time></trkpt><trkpt lat="43.100215" lon="13.2690133"><ele>364.0</ele><time>2026-04-18T09:26:49.258Z</time></trkpt><trkpt lat="43.1000883" lon="13.2691217"><ele>364.0</ele><time>2026-04-18T09:26:50.258Z</time></trkpt><trkpt lat="43.0999833" lon="13.2692433"><ele>364.0</ele><time>2026-04-18T09:26:51.258Z</time></trkpt><trkpt lat="43.0998967" lon="13.2693617"><ele>364.0</ele><time>2026-04-18T09:26:52.258Z</time></trkpt><trkpt lat="43.0998233" lon="13.2694567"><ele>364.0</ele><time>2026-04-18T09:26:53.258Z</time></trkpt><trkpt lat="43.0997633" lon="13.26955"><ele>364.0</ele><time>2026-04-18T09:26:54.257Z</time></trkpt><trkpt lat="43.0997083" lon="13.2696167"><ele>364.0</ele><time>2026-04-18T09:26:55.258Z</time></trkpt><trkpt lat="43.0996433" lon="13.269625"><ele>364.0</ele><time>2026-04-18T09:26:56.258Z</time></trkpt><trkpt lat="43.0995833" lon="13.2695067"><ele>364.0</ele><time>2026-04-18T09:26:58.258Z</time></trkpt><trkpt lat="43.0996133" lon="13.2693967"><ele>364.0</ele><time>2026-04-18T09:26:59.258Z</time></trkpt><trkpt lat="43.0996883" lon="13.2692633"><ele>364.0</ele><time>2026-04-18T09:27:00.258Z</time></trkpt><trkpt lat="43.0997983" lon="13.26911"><ele>364.0</ele><time>2026-04-18T09:27:01.258Z</time></trkpt><trkpt lat="43.0998733" lon="13.2689433"><ele>364.0</ele><time>2026-04-18T09:27:02.258Z</time></trkpt><trkpt lat="43.0999317" lon="13.2687567"><ele>364.0</ele><time>2026-04-18T09:27:03.258Z</time></trkpt><trkpt lat="43.099955" lon="13.2685333"><ele>364.0</ele><time>2026-04-18T09:27:04.258Z</time></trkpt><trkpt lat="43.099975" lon="13.2683"><ele>364.0</ele><time>2026-04-18T09:27:05.258Z</time></trkpt><trkpt lat="43.0999817" lon="13.2680717"><ele>362.3333333333333</ele><time>2026-04-18T09:27:06.258Z</time></trkpt><trkpt lat="43.0999933" lon="13.267865"><ele>360.6666666666667</ele><time>2026-04-18T09:27:07.257Z</time></trkpt><trkpt lat="43.10003" lon="13.2676667"><ele>359.0</ele><time>2026-04-18T09:27:08.258Z</time></trkpt><trkpt lat="43.1001" lon="13.26748"><ele>359.0</ele><time>2026-04-18T09:27:09.258Z</time></trkpt><trkpt lat="43.100195" lon="13.2673033"><ele>359.0</ele><time>2026-04-18T09:27:10.258Z</time></trkpt><trkpt lat="43.1003233" lon="13.2671233"><ele>359.0</ele><time>2026-04-18T09:27:11.258Z</time></trkpt><trkpt lat="43.1004517" lon="13.2669267"><ele>359.0</ele><time>2026-04-18T09:27:12.258Z</time></trkpt><trkpt lat="43.1005483" lon="13.2667267"><ele>359.0</ele><time>2026-04-18T09:27:13.258Z</time></trkpt><trkpt lat="43.100645" lon="13.2665417"><ele>359.0</ele><time>2026-04-18T09:27:14.258Z</time></trkpt><trkpt lat="43.100735" lon="13.2663667"><ele>360.75</ele><time>2026-04-18T09:27:15.258Z</time></trkpt><trkpt lat="43.1008167" lon="13.2661967"><ele>362.5</ele><time>2026-04-18T09:27:16.258Z</time></trkpt><trkpt lat="43.1008683" lon="13.26604"><ele>364.25</ele><time>2026-04-18T09:27:17.258Z</time></trkpt><trkpt lat="43.100905" lon="13.2658933"><ele>366.0</ele><time>2026-04-18T09:27:18.258Z</time></trkpt><trkpt lat="43.10093" lon="13.265755"><ele>366.0</ele><time>2026-04-18T09:27:19.258Z</time></trkpt><trkpt lat="43.1009567" lon="13.2656333"><ele>366.0</ele><time>2026-04-18T09:27:20.258Z</time></trkpt><trkpt lat="43.1009783" lon="13.265525"><ele>366.0</ele><time>2026-04-18T09:27:21.258Z</time></trkpt><trkpt lat="43.101025" lon="13.2654533"><ele>366.0</ele><time>2026-04-18T09:27:22.258Z</time></trkpt><trkpt lat="43.1011" lon="13.2654383"><ele>366.0</ele><time>2026-04-18T09:27:23.258Z</time></trkpt><trkpt lat="43.1011983" lon="13.2654717"><ele>366.0</ele><time>2026-04-18T09:27:24.258Z</time></trkpt><trkpt lat="43.1013033" lon="13.265535"><ele>366.0</ele><time>2026-04-18T09:27:25.258Z</time></trkpt><trkpt lat="43.1014133" lon="13.2656317"><ele>366.0</ele><time>2026-04-18T09:27:26.258Z</time></trkpt><trkpt lat="43.101535" lon="13.2656817"><ele>366.0</ele><time>2026-04-18T09:27:27.258Z</time></trkpt><trkpt lat="43.1016583" lon="13.265675"><ele>366.0</ele><time>2026-04-18T09:27:28.258Z</time></trkpt><trkpt lat="43.1017783" lon="13.2656367"><ele>368.4</ele><time>2026-04-18T09:27:29.257Z</time></trkpt><trkpt lat="43.1018733" lon="13.265575"><ele>370.8</ele><time>2026-04-18T09:27:30.258Z</time></trkpt><trkpt lat="43.1019633" lon="13.2655217"><ele>373.2</ele><time>2026-04-18T09:27:31.258Z</time></trkpt><trkpt lat="43.1020233" lon="13.2654633"><ele>375.59999999999997</ele><time>2026-04-18T09:27:32.258Z</time></trkpt><trkpt lat="43.1020617" lon="13.2653917"><ele>378.0</ele><time>2026-04-18T09:27:33.258Z</time></trkpt><trkpt lat="43.102005" lon="13.2652567"><ele>378.0</ele><time>2026-04-18T09:27:35.258Z</time></trkpt><trkpt lat="43.101865" lon="13.2652867"><ele>378.0</ele><time>2026-04-18T09:27:37.258Z</time></trkpt><trkpt lat="43.10177" lon="13.2653383"><ele>378.0</ele><time>2026-04-18T09:27:38.258Z</time></trkpt><trkpt lat="43.1016667" lon="13.2653667"><ele>378.0</ele><time>2026-04-18T09:27:39.258Z</time></trkpt><trkpt lat="43.10157" lon="13.2653867"><ele>378.0</ele><time>2026-04-18T09:27:40.258Z</time></trkpt><trkpt lat="43.1014867" lon="13.2653917"><ele>378.0</ele><time>2026-04-18T09:27:41.258Z</time></trkpt><trkpt lat="43.1014217" lon="13.2653633"><ele>378.0</ele><time>2026-04-18T09:27:42.258Z</time></trkpt><trkpt lat="43.101435" lon="13.2652117"><ele>378.0</ele><time>2026-04-18T09:27:44.258Z</time></trkpt><trkpt lat="43.1014967" lon="13.2651517"><ele>378.0</ele><time>2026-04-18T09:27:45.258Z</time></trkpt><trkpt lat="43.10157" lon="13.265105"><ele>378.0</ele><time>2026-04-18T09:27:46.258Z</time></trkpt><trkpt lat="43.10166" lon="13.265055"><ele>378.0</ele><time>2026-04-18T09:27:47.258Z</time></trkpt><trkpt lat="43.1017433" lon="13.2649883"><ele>378.0</ele><time>2026-04-18T09:27:48.258Z</time></trkpt><trkpt lat="43.1018083" lon="13.2649"><ele>378.0</ele><time>2026-04-18T09:27:49.258Z</time></trkpt><trkpt lat="43.101835" lon="13.264805"><ele>378.0</ele><time>2026-04-18T09:27:50.258Z</time></trkpt><trkpt lat="43.1018283" lon="13.264695"><ele>378.0</ele><time>2026-04-18T09:27:51.258Z</time></trkpt><trkpt lat="43.1017767" lon="13.26461"><ele>378.0</ele><time>2026-04-18T09:27:52.258Z</time></trkpt><trkpt lat="43.1016883" lon="13.2645717"><ele>378.0</ele><time>2026-04-18T09:27:53.258Z</time></trkpt><trkpt lat="43.1015767" lon="13.2645383"><ele>382.0</ele><time>2026-04-18T09:27:54.258Z</time></trkpt><trkpt lat="43.101455" lon="13.264525"><ele>386.0</ele><time>2026-04-18T09:27:55.258Z</time></trkpt><trkpt lat="43.10132" lon="13.2645"><ele>390.0</ele><time>2026-04-18T09:27:56.258Z</time></trkpt><trkpt lat="43.101195" lon="13.2644533"><ele>394.0</ele><time>2026-04-18T09:27:57.258Z</time></trkpt><trkpt lat="43.1010817" lon="13.2644167"><ele>394.0</ele><time>2026-04-18T09:27:58.258Z</time></trkpt><trkpt lat="43.1009917" lon="13.2643833"><ele>394.0</ele><time>2026-04-18T09:27:59.258Z</time></trkpt><trkpt lat="43.1009167" lon="13.2643033"><ele>394.0</ele><time>2026-04-18T09:28:00.258Z</time></trkpt><trkpt lat="43.1008767" lon="13.264185"><ele>394.0</ele><time>2026-04-18T09:28:01.258Z</time></trkpt><trkpt lat="43.1008833" lon="13.2640617"><ele>394.0</ele><time>2026-04-18T09:28:02.258Z</time></trkpt><trkpt lat="43.100925" lon="13.263955"><ele>395.4</ele><time>2026-04-18T09:28:03.258Z</time></trkpt><trkpt lat="43.1009817" lon="13.2638667"><ele>396.79999999999995</ele><time>2026-04-18T09:28:04.258Z</time></trkpt><trkpt lat="43.101045" lon="13.2637617"><ele>398.20000000000005</ele><time>2026-04-18T09:28:05.258Z</time></trkpt><trkpt lat="43.10111" lon="13.2636167"><ele>399.6</ele><time>2026-04-18T09:28:06.258Z</time></trkpt><trkpt lat="43.10118" lon="13.2634717"><ele>401.0</ele><time>2026-04-18T09:28:07.258Z</time></trkpt><trkpt lat="43.1012617" lon="13.26333"><ele>401.0</ele><time>2026-04-18T09:28:08.258Z</time></trkpt><trkpt lat="43.10135" lon="13.2631983"><ele>401.0</ele><time>2026-04-18T09:28:09.258Z</time></trkpt><trkpt lat="43.101445" lon="13.263065"><ele>401.0</ele><time>2026-04-18T09:28:10.258Z</time></trkpt><trkpt lat="43.101535" lon="13.262925"><ele>401.0</ele><time>2026-04-18T09:28:11.258Z</time></trkpt><trkpt lat="43.1016033" lon="13.2627917"><ele>401.0</ele><time>2026-04-18T09:28:12.258Z</time></trkpt><trkpt lat="43.1016433" lon="13.2626367"><ele>401.0</ele><time>2026-04-18T09:28:13.258Z</time></trkpt><trkpt lat="43.1016433" lon="13.2624633"><ele>401.0</ele><time>2026-04-18T09:28:14.258Z</time></trkpt><trkpt lat="43.1016133" lon="13.26228"><ele>401.0</ele><time>2026-04-18T09:28:15.258Z</time></trkpt><trkpt lat="43.1015633" lon="13.2620767"><ele>405.75</ele><time>2026-04-18T09:28:16.258Z</time></trkpt><trkpt lat="43.101515" lon="13.2618833"><ele>410.5</ele><time>2026-04-18T09:28:17.258Z</time></trkpt><trkpt lat="43.101455" lon="13.261695"><ele>415.25</ele><time>2026-04-18T09:28:18.258Z</time></trkpt><trkpt lat="43.1013867" lon="13.2615367"><ele>420.0</ele><time>2026-04-18T09:28:19.258Z</time></trkpt><trkpt lat="43.10132" lon="13.261415"><ele>420.0</ele><time>2026-04-18T09:28:20.258Z</time></trkpt><trkpt lat="43.1012567" lon="13.2613267"><ele>420.0</ele><time>2026-04-18T09:28:21.258Z</time></trkpt><trkpt lat="43.1012067" lon="13.26123"><ele>420.0</ele><time>2026-04-18T09:28:22.258Z</time></trkpt><trkpt lat="43.1012033" lon="13.2611433"><ele>420.0</ele><time>2026-04-18T09:28:23.258Z</time></trkpt><trkpt lat="43.1012817" lon="13.2610483"><ele>420.0</ele><time>2026-04-18T09:28:25.258Z</time></trkpt><trkpt lat="43.1013517" lon="13.2610983"><ele>420.0</ele><time>2026-04-18T09:28:26.258Z</time></trkpt><trkpt lat="43.1014317" lon="13.2611767"><ele>420.0</ele><time>2026-04-18T09:28:27.258Z</time></trkpt><trkpt lat="43.1015167" lon="13.26125"><ele>420.0</ele><time>2026-04-18T09:28:28.258Z</time></trkpt><trkpt lat="43.1016067" lon="13.2613117"><ele>420.0</ele><time>2026-04-18T09:28:29.258Z</time></trkpt><trkpt lat="43.1017" lon="13.2613583"><ele>420.0</ele><time>2026-04-18T09:28:30.258Z</time></trkpt><trkpt lat="43.1017867" lon="13.2613867"><ele>420.0</ele><time>2026-04-18T09:28:31.258Z</time></trkpt><trkpt lat="43.1018817" lon="13.2613683"><ele>418.75</ele><time>2026-04-18T09:28:32.257Z</time></trkpt><trkpt lat="43.1019667" lon="13.2613"><ele>417.5</ele><time>2026-04-18T09:28:33.258Z</time></trkpt><trkpt lat="43.1020567" lon="13.2611667"><ele>416.25</ele><time>2026-04-18T09:28:34.258Z</time></trkpt><trkpt lat="43.102155" lon="13.261005"><ele>415.0</ele><time>2026-04-18T09:28:35.257Z</time></trkpt><trkpt lat="43.1022517" lon="13.260845"><ele>415.0</ele><time>2026-04-18T09:28:36.258Z</time></trkpt><trkpt lat="43.1023333" lon="13.2606817"><ele>415.0</ele><time>2026-04-18T09:28:37.258Z</time></trkpt><trkpt lat="43.102395" lon="13.2605083"><ele>415.0</ele><time>2026-04-18T09:28:38.258Z</time></trkpt><trkpt lat="43.1024317" lon="13.2602917"><ele>415.0</ele><time>2026-04-18T09:28:39.258Z</time></trkpt><trkpt lat="43.1024367" lon="13.26007"><ele>415.6666666666667</ele><time>2026-04-18T09:28:40.258Z</time></trkpt><trkpt lat="43.1024533" lon="13.2598533"><ele>416.33333333333337</ele><time>2026-04-18T09:28:41.258Z</time></trkpt><trkpt lat="43.1024883" lon="13.25964"><ele>417.0</ele><time>2026-04-18T09:28:42.258Z</time></trkpt><trkpt lat="43.102545" lon="13.2594433"><ele>420.0</ele><time>2026-04-18T09:28:43.258Z</time></trkpt><trkpt lat="43.1026267" lon="13.2592583"><ele>423.0</ele><time>2026-04-18T09:28:44.258Z</time></trkpt><trkpt lat="43.1027367" lon="13.25908"><ele>426.0</ele><time>2026-04-18T09:28:45.258Z</time></trkpt><trkpt lat="43.1028733" lon="13.2589083"><ele>425.66666666666663</ele><time>2026-04-18T09:28:46.258Z</time></trkpt><trkpt lat="43.1030167" lon="13.25875"><ele>425.3333333333333</ele><time>2026-04-18T09:28:47.258Z</time></trkpt><trkpt lat="43.10316" lon="13.25861"><ele>425.0</ele><time>2026-04-18T09:28:48.258Z</time></trkpt><trkpt lat="43.1033383" lon="13.258495"><ele>425.0</ele><time>2026-04-18T09:28:49.258Z</time></trkpt><trkpt lat="43.1035" lon="13.258375"><ele>425.0</ele><time>2026-04-18T09:28:50.258Z</time></trkpt><trkpt lat="43.1036433" lon="13.258225"><ele>425.0</ele><time>2026-04-18T09:28:51.258Z</time></trkpt><trkpt lat="43.103795" lon="13.2580133"><ele>425.0</ele><time>2026-04-18T09:28:52.258Z</time></trkpt><trkpt lat="43.103945" lon="13.2577933"><ele>425.0</ele><time>2026-04-18T09:28:53.258Z</time></trkpt><trkpt lat="43.1041017" lon="13.2575967"><ele>425.0</ele><time>2026-04-18T09:28:54.258Z</time></trkpt><trkpt lat="43.1042417" lon="13.2573933"><ele>428.3333333333333</ele><time>2026-04-18T09:28:55.258Z</time></trkpt><trkpt lat="43.1043867" lon="13.2571983"><ele>431.66666666666663</ele><time>2026-04-18T09:28:56.258Z</time></trkpt><trkpt lat="43.1045283" lon="13.2570017"><ele>435.0</ele><time>2026-04-18T09:28:57.258Z</time></trkpt><trkpt lat="43.104665" lon="13.256805"><ele>435.0</ele><time>2026-04-18T09:28:58.258Z</time></trkpt><trkpt lat="43.104795" lon="13.2566183"><ele>435.0</ele><time>2026-04-18T09:28:59.258Z</time></trkpt><trkpt lat="43.10493" lon="13.2564267"><ele>435.0</ele><time>2026-04-18T09:29:00.258Z</time></trkpt><trkpt lat="43.1050633" lon="13.2562517"><ele>435.0</ele><time>2026-04-18T09:29:01.258Z</time></trkpt><trkpt lat="43.1051867" lon="13.2560733"><ele>435.0</ele><time>2026-04-18T09:29:02.258Z</time></trkpt><trkpt lat="43.1052983" lon="13.2559183"><ele>435.0</ele><time>2026-04-18T09:29:03.258Z</time></trkpt><trkpt lat="43.1054167" lon="13.25578"><ele>435.0</ele><time>2026-04-18T09:29:04.258Z</time></trkpt><trkpt lat="43.105535" lon="13.25568"><ele>435.0</ele><time>2026-04-18T09:29:05.258Z</time></trkpt><trkpt lat="43.1056783" lon="13.2556267"><ele>435.0</ele><time>2026-04-18T09:29:06.258Z</time></trkpt><trkpt lat="43.105835" lon="13.255635"><ele>435.0</ele><time>2026-04-18T09:29:07.258Z</time></trkpt><trkpt lat="43.1060017" lon="13.255695"><ele>434.33333333333337</ele><time>2026-04-18T09:29:08.258Z</time></trkpt><trkpt lat="43.106165" lon="13.255785"><ele>433.6666666666667</ele><time>2026-04-18T09:29:09.258Z</time></trkpt><trkpt lat="43.1063133" lon="13.2558667"><ele>433.0</ele><time>2026-04-18T09:29:10.258Z</time></trkpt><trkpt lat="43.1064517" lon="13.2559717"><ele>437.5</ele><time>2026-04-18T09:29:11.258Z</time></trkpt><trkpt lat="43.1065833" lon="13.256105"><ele>442.0</ele><time>2026-04-18T09:29:12.258Z</time></trkpt><trkpt lat="43.1066983" lon="13.2562333"><ele>446.5</ele><time>2026-04-18T09:29:13.258Z</time></trkpt><trkpt lat="43.1067933" lon="13.2563483"><ele>451.0</ele><time>2026-04-18T09:29:14.258Z</time></trkpt><trkpt lat="43.1068933" lon="13.2564217"><ele>446.25</ele><time>2026-04-18T09:29:15.258Z</time></trkpt><trkpt lat="43.1069983" lon="13.256455"><ele>441.5</ele><time>2026-04-18T09:29:16.258Z</time></trkpt><trkpt lat="43.1071333" lon="13.2564567"><ele>436.75</ele><time>2026-04-18T09:29:17.258Z</time></trkpt><trkpt lat="43.1072717" lon="13.2564567"><ele>432.0</ele><time>2026-04-18T09:29:18.258Z</time></trkpt><trkpt lat="43.107405" lon="13.25648"><ele>434.0</ele><time>2026-04-18T09:29:19.258Z</time></trkpt><trkpt lat="43.1075383" lon="13.2565467"><ele>436.0</ele><time>2026-04-18T09:29:20.258Z</time></trkpt><trkpt lat="43.1076583" lon="13.2566683"><ele>438.0</ele><time>2026-04-18T09:29:21.258Z</time></trkpt><trkpt lat="43.10777" lon="13.2567983"><ele>440.0</ele><time>2026-04-18T09:29:22.258Z</time></trkpt><trkpt lat="43.1078617" lon="13.2569383"><ele>440.0</ele><time>2026-04-18T09:29:23.258Z</time></trkpt><trkpt lat="43.1079367" lon="13.257075"><ele>440.0</ele><time>2026-04-18T09:29:24.258Z</time></trkpt><trkpt lat="43.107995" lon="13.25721"><ele>440.0</ele><time>2026-04-18T09:29:25.257Z</time></trkpt><trkpt lat="43.108045" lon="13.25733"><ele>440.0</ele><time>2026-04-18T09:29:26.258Z</time></trkpt><trkpt lat="43.1080933" lon="13.25742"><ele>440.0</ele><time>2026-04-18T09:29:27.258Z</time></trkpt><trkpt lat="43.1081417" lon="13.25748"><ele>440.8</ele><time>2026-04-18T09:29:28.258Z</time></trkpt><trkpt lat="43.1082333" lon="13.25751"><ele>441.6</ele><time>2026-04-18T09:29:30.258Z</time></trkpt><trkpt lat="43.10833" lon="13.2574267"><ele>442.4</ele><time>2026-04-18T09:29:32.258Z</time></trkpt><trkpt lat="43.10838" lon="13.25734"><ele>443.2</ele><time>2026-04-18T09:29:33.258Z</time></trkpt><trkpt lat="43.1084283" lon="13.2572267"><ele>444.0</ele><time>2026-04-18T09:29:34.258Z</time></trkpt><trkpt lat="43.1084983" lon="13.2571083"><ele>444.25</ele><time>2026-04-18T09:29:35.258Z</time></trkpt><trkpt lat="43.1085683" lon="13.2569583"><ele>444.5</ele><time>2026-04-18T09:29:36.258Z</time></trkpt><trkpt lat="43.1086283" lon="13.2568017"><ele>444.75</ele><time>2026-04-18T09:29:37.258Z</time></trkpt><trkpt lat="43.1086567" lon="13.2566333"><ele>445.0</ele><time>2026-04-18T09:29:38.258Z</time></trkpt><trkpt lat="43.1086633" lon="13.2564383"><ele>443.5</ele><time>2026-04-18T09:29:39.258Z</time></trkpt><trkpt lat="43.108645" lon="13.25626"><ele>442.0</ele><time>2026-04-18T09:29:40.258Z</time></trkpt><trkpt lat="43.1086067" lon="13.2560917"><ele>440.5</ele><time>2026-04-18T09:29:41.258Z</time></trkpt><trkpt lat="43.1085467" lon="13.2559367"><ele>439.0</ele><time>2026-04-18T09:29:42.258Z</time></trkpt><trkpt lat="43.10847" lon="13.2557733"><ele>443.0</ele><time>2026-04-18T09:29:43.258Z</time></trkpt><trkpt lat="43.10837" lon="13.2556083"><ele>447.0</ele><time>2026-04-18T09:29:44.258Z</time></trkpt><trkpt lat="43.1082633" lon="13.2554283"><ele>451.0</ele><time>2026-04-18T09:29:45.258Z</time></trkpt><trkpt lat="43.1081667" lon="13.2552583"><ele>451.0</ele><time>2026-04-18T09:29:46.258Z</time></trkpt><trkpt lat="43.1080883" lon="13.25509"><ele>451.0</ele><time>2026-04-18T09:29:47.258Z</time></trkpt><trkpt lat="43.1080333" lon="13.2549083"><ele>451.0</ele><time>2026-04-18T09:29:48.258Z</time></trkpt><trkpt lat="43.1080017" lon="13.2546917"><ele>447.75</ele><time>2026-04-18T09:29:49.258Z</time></trkpt><trkpt lat="43.1079783" lon="13.2544917"><ele>444.5</ele><time>2026-04-18T09:29:50.258Z</time></trkpt><trkpt lat="43.1079517" lon="13.2542983"><ele>441.25</ele><time>2026-04-18T09:29:51.258Z</time></trkpt><trkpt lat="43.107895" lon="13.2541133"><ele>438.0</ele><time>2026-04-18T09:29:52.258Z</time></trkpt><trkpt lat="43.1078183" lon="13.2539217"><ele>433.0</ele><time>2026-04-18T09:29:53.258Z</time></trkpt><trkpt lat="43.10772" lon="13.253745"><ele>428.0</ele><time>2026-04-18T09:29:54.258Z</time></trkpt><trkpt lat="43.1076167" lon="13.2535733"><ele>423.0</ele><time>2026-04-18T09:29:55.258Z</time></trkpt><trkpt lat="43.10751" lon="13.2534133"><ele>422.0</ele><time>2026-04-18T09:29:56.258Z</time></trkpt><trkpt lat="43.1073917" lon="13.2532617"><ele>421.0</ele><time>2026-04-18T09:29:57.258Z</time></trkpt><trkpt lat="43.10727" lon="13.2531067"><ele>420.0</ele><time>2026-04-18T09:29:58.257Z</time></trkpt><trkpt lat="43.10714" lon="13.2529717"><ele>420.0</ele><time>2026-04-18T09:29:59.258Z</time></trkpt><trkpt lat="43.1069917" lon="13.2528417"><ele>420.0</ele><time>2026-04-18T09:30:00.258Z</time></trkpt><trkpt lat="43.1068517" lon="13.2527117"><ele>420.0</ele><time>2026-04-18T09:30:01.258Z</time></trkpt><trkpt lat="43.1067167" lon="13.2525983"><ele>420.0</ele><time>2026-04-18T09:30:02.258Z</time></trkpt><trkpt lat="43.1066" lon="13.2525083"><ele>420.0</ele><time>2026-04-18T09:30:03.258Z</time></trkpt><trkpt lat="43.1065017" lon="13.2524017"><ele>420.0</ele><time>2026-04-18T09:30:04.258Z</time></trkpt><trkpt lat="43.1064167" lon="13.2522817"><ele>420.0</ele><time>2026-04-18T09:30:05.258Z</time></trkpt><trkpt lat="43.1063717" lon="13.2521467"><ele>422.75</ele><time>2026-04-18T09:30:06.258Z</time></trkpt><trkpt lat="43.1063583" lon="13.2520067"><ele>425.5</ele><time>2026-04-18T09:30:07.258Z</time></trkpt><trkpt lat="43.1063833" lon="13.2518667"><ele>428.25</ele><time>2026-04-18T09:30:08.258Z</time></trkpt><trkpt lat="43.106435" lon="13.2517217"><ele>431.0</ele><time>2026-04-18T09:30:09.257Z</time></trkpt><trkpt lat="43.1065033" lon="13.2515783"><ele>433.75</ele><time>2026-04-18T09:30:10.258Z</time></trkpt><trkpt lat="43.10657" lon="13.2514217"><ele>436.5</ele><time>2026-04-18T09:30:11.258Z</time></trkpt><trkpt lat="43.1066333" lon="13.2512833"><ele>439.25</ele><time>2026-04-18T09:30:12.258Z</time></trkpt><trkpt lat="43.1066867" lon="13.2511233"><ele>442.0</ele><time>2026-04-18T09:30:13.258Z</time></trkpt><trkpt lat="43.10673" lon="13.250955"><ele>437.25</ele><time>2026-04-18T09:30:14.258Z</time></trkpt><trkpt lat="43.10676" lon="13.250785"><ele>432.5</ele><time>2026-04-18T09:30:15.258Z</time></trkpt><trkpt lat="43.10678" lon="13.250595"><ele>427.75</ele><time>2026-04-18T09:30:16.258Z</time></trkpt><trkpt lat="43.1067833" lon="13.250385"><ele>423.0</ele><time>2026-04-18T09:30:17.258Z</time></trkpt><trkpt lat="43.1067733" lon="13.2501783"><ele>423.0</ele><time>2026-04-18T09:30:18.258Z</time></trkpt><trkpt lat="43.1067583" lon="13.2499833"><ele>423.0</ele><time>2026-04-18T09:30:19.258Z</time></trkpt><trkpt lat="43.10674" lon="13.2497917"><ele>423.0</ele><time>2026-04-18T09:30:20.258Z</time></trkpt><trkpt lat="43.106725" lon="13.2496117"><ele>423.0</ele><time>2026-04-18T09:30:21.258Z</time></trkpt><trkpt lat="43.1067183" lon="13.2494483"><ele>421.5</ele><time>2026-04-18T09:30:22.258Z</time></trkpt><trkpt lat="43.1067017" lon="13.2492883"><ele>420.0</ele><time>2026-04-18T09:30:23.258Z</time></trkpt><trkpt lat="43.106685" lon="13.249135"><ele>418.5</ele><time>2026-04-18T09:30:24.258Z</time></trkpt><trkpt lat="43.1066617" lon="13.2489817"><ele>417.0</ele><time>2026-04-18T09:30:25.258Z</time></trkpt><trkpt lat="43.1066333" lon="13.2488367"><ele>414.75</ele><time>2026-04-18T09:30:26.258Z</time></trkpt><trkpt lat="43.1065833" lon="13.2486983"><ele>412.5</ele><time>2026-04-18T09:30:27.258Z</time></trkpt><trkpt lat="43.1065217" lon="13.2485517"><ele>410.25</ele><time>2026-04-18T09:30:28.258Z</time></trkpt><trkpt lat="43.1064433" lon="13.2484"><ele>408.0</ele><time>2026-04-18T09:30:29.258Z</time></trkpt><trkpt lat="43.106365" lon="13.2482583"><ele>412.5</ele><time>2026-04-18T09:30:30.258Z</time></trkpt><trkpt lat="43.1062783" lon="13.24811"><ele>417.0</ele><time>2026-04-18T09:30:31.258Z</time></trkpt><trkpt lat="43.10622" lon="13.2479517"><ele>421.5</ele><time>2026-04-18T09:30:32.258Z</time></trkpt><trkpt lat="43.1061817" lon="13.2477717"><ele>426.0</ele><time>2026-04-18T09:30:33.258Z</time></trkpt><trkpt lat="43.1061683" lon="13.247575"><ele>426.0</ele><time>2026-04-18T09:30:34.258Z</time></trkpt><trkpt lat="43.1061767" lon="13.2473733"><ele>426.0</ele><time>2026-04-18T09:30:35.258Z</time></trkpt><trkpt lat="43.1062" lon="13.2471517"><ele>426.0</ele><time>2026-04-18T09:30:36.258Z</time></trkpt><trkpt lat="43.1062383" lon="13.2469417"><ele>424.66666666666663</ele><time>2026-04-18T09:30:37.258Z</time></trkpt><trkpt lat="43.1062783" lon="13.246735"><ele>423.3333333333333</ele><time>2026-04-18T09:30:38.258Z</time></trkpt><trkpt lat="43.1063133" lon="13.246535"><ele>422.0</ele><time>2026-04-18T09:30:39.258Z</time></trkpt><trkpt lat="43.1063383" lon="13.24633"><ele>422.0</ele><time>2026-04-18T09:30:40.258Z</time></trkpt><trkpt lat="43.1063517" lon="13.24612"><ele>422.0</ele><time>2026-04-18T09:30:41.258Z</time></trkpt><trkpt lat="43.10635" lon="13.2459"><ele>422.0</ele><time>2026-04-18T09:30:42.258Z</time></trkpt><trkpt lat="43.1063283" lon="13.2456783"><ele>418.75</ele><time>2026-04-18T09:30:43.258Z</time></trkpt><trkpt lat="43.10628" lon="13.24548"><ele>415.5</ele><time>2026-04-18T09:30:44.258Z</time></trkpt><trkpt lat="43.1062183" lon="13.2453017"><ele>412.25</ele><time>2026-04-18T09:30:45.258Z</time></trkpt><trkpt lat="43.10615" lon="13.2451333"><ele>409.0</ele><time>2026-04-18T09:30:46.258Z</time></trkpt><trkpt lat="43.1060867" lon="13.244975"><ele>409.0</ele><time>2026-04-18T09:30:47.258Z</time></trkpt><trkpt lat="43.1060167" lon="13.24483"><ele>409.0</ele><time>2026-04-18T09:30:48.258Z</time></trkpt><trkpt lat="43.1059533" lon="13.244695"><ele>409.0</ele><time>2026-04-18T09:30:49.258Z</time></trkpt><trkpt lat="43.1059083" lon="13.24456"><ele>409.0</ele><time>2026-04-18T09:30:50.258Z</time></trkpt><trkpt lat="43.1058867" lon="13.2444183"><ele>410.2</ele><time>2026-04-18T09:30:51.258Z</time></trkpt><trkpt lat="43.1058983" lon="13.2442817"><ele>411.4</ele><time>2026-04-18T09:30:52.258Z</time></trkpt><trkpt lat="43.1059233" lon="13.2441467"><ele>412.6</ele><time>2026-04-18T09:30:53.258Z</time></trkpt><trkpt lat="43.105955" lon="13.2440033"><ele>413.8</ele><time>2026-04-18T09:30:54.258Z</time></trkpt><trkpt lat="43.1059967" lon="13.243855"><ele>415.0</ele><time>2026-04-18T09:30:55.258Z</time></trkpt><trkpt lat="43.106045" lon="13.2437033"><ele>415.4</ele><time>2026-04-18T09:30:56.258Z</time></trkpt><trkpt lat="43.1060967" lon="13.2435633"><ele>415.8</ele><time>2026-04-18T09:30:57.258Z</time></trkpt><trkpt lat="43.1061683" lon="13.2434383"><ele>416.20000000000005</ele><time>2026-04-18T09:30:58.258Z</time></trkpt><trkpt lat="43.106235" lon="13.2433167"><ele>416.6</ele><time>2026-04-18T09:30:59.258Z</time></trkpt><trkpt lat="43.10627" lon="13.2431817"><ele>417.0</ele><time>2026-04-18T09:31:00.257Z</time></trkpt><trkpt lat="43.1062717" lon="13.2430267"><ele>417.40000000000003</ele><time>2026-04-18T09:31:01.258Z</time></trkpt><trkpt lat="43.1062517" lon="13.2428767"><ele>417.8</ele><time>2026-04-18T09:31:02.258Z</time></trkpt><trkpt lat="43.10623" lon="13.2427383"><ele>418.2</ele><time>2026-04-18T09:31:03.258Z</time></trkpt><trkpt lat="43.1062283" lon="13.24261"><ele>418.6</ele><time>2026-04-18T09:31:04.258Z</time></trkpt><trkpt lat="43.106265" lon="13.242495"><ele>419.0</ele><time>2026-04-18T09:31:05.258Z</time></trkpt><trkpt lat="43.1063467" lon="13.2424333"><ele>419.0</ele><time>2026-04-18T09:31:06.258Z</time></trkpt><trkpt lat="43.1064333" lon="13.24243"><ele>419.0</ele><time>2026-04-18T09:31:07.258Z</time></trkpt><trkpt lat="43.106515" lon="13.2425"><ele>419.0</ele><time>2026-04-18T09:31:08.258Z</time></trkpt><trkpt lat="43.1065583" lon="13.2426267"><ele>419.0</ele><time>2026-04-18T09:31:09.258Z</time></trkpt><trkpt lat="43.106595" lon="13.2427767"><ele>419.0</ele><time>2026-04-18T09:31:10.258Z</time></trkpt><trkpt lat="43.106635" lon="13.2429233"><ele>418.5</ele><time>2026-04-18T09:31:11.258Z</time></trkpt><trkpt lat="43.1066867" lon="13.2430783"><ele>418.0</ele><time>2026-04-18T09:31:12.258Z</time></trkpt><trkpt lat="43.1067483" lon="13.2432383"><ele>417.5</ele><time>2026-04-18T09:31:13.258Z</time></trkpt><trkpt lat="43.1068267" lon="13.243385"><ele>417.0</ele><time>2026-04-18T09:31:14.258Z</time></trkpt><trkpt lat="43.1069367" lon="13.2435317"><ele>416.0</ele><time>2026-04-18T09:31:15.258Z</time></trkpt><trkpt lat="43.1070583" lon="13.243665"><ele>415.0</ele><time>2026-04-18T09:31:16.258Z</time></trkpt><trkpt lat="43.1071783" lon="13.2437783"><ele>414.0</ele><time>2026-04-18T09:31:17.258Z</time></trkpt><trkpt lat="43.107305" lon="13.2438917"><ele>415.5</ele><time>2026-04-18T09:31:18.258Z</time></trkpt><trkpt lat="43.1074117" lon="13.244"><ele>417.0</ele><time>2026-04-18T09:31:19.258Z</time></trkpt><trkpt lat="43.10751" lon="13.24408"><ele>418.5</ele><time>2026-04-18T09:31:20.258Z</time></trkpt><trkpt lat="43.1076017" lon="13.244135"><ele>420.0</ele><time>2026-04-18T09:31:21.258Z</time></trkpt><trkpt lat="43.10771" lon="13.2441417"><ele>420.0</ele><time>2026-04-18T09:31:22.258Z</time></trkpt><trkpt lat="43.1078333" lon="13.244085"><ele>420.0</ele><time>2026-04-18T09:31:23.258Z</time></trkpt><trkpt lat="43.1079567" lon="13.2439917"><ele>420.0</ele><time>2026-04-18T09:31:24.258Z</time></trkpt><trkpt lat="43.1080843" lon="13.2438826"><ele>420.0</ele><time>2026-04-18T09:31:25.258Z</time></trkpt><trkpt lat="43.1082113" lon="13.2437675"><ele>422.8</ele><time>2026-04-18T09:31:26.258Z</time></trkpt><trkpt lat="43.1083263" lon="13.2436688"><ele>425.6</ele><time>2026-04-18T09:31:27.258Z</time></trkpt><trkpt lat="43.1084367" lon="13.2436086"><ele>428.4</ele><time>2026-04-18T09:31:28.258Z</time></trkpt><trkpt lat="43.1085353" lon="13.2436141"><ele>431.2</ele><time>2026-04-18T09:31:29.258Z</time></trkpt><trkpt lat="43.1086237" lon="13.2436588"><ele>434.0</ele><time>2026-04-18T09:31:30.258Z</time></trkpt><trkpt lat="43.1086887" lon="13.2437337"><ele>433.99999999999994</ele><time>2026-04-18T09:31:31.258Z</time></trkpt><trkpt lat="43.1087371" lon="13.24384"><ele>434.0</ele><time>2026-04-18T09:31:33.258Z</time></trkpt><trkpt lat="43.1087633" lon="13.2439267"><ele>434.0</ele><time>2026-04-18T09:31:36.258Z</time></trkpt><trkpt lat="43.1088317" lon="13.24389"><ele>434.0</ele><time>2026-04-18T09:31:38.258Z</time></trkpt><trkpt lat="43.1088817" lon="13.24377"><ele>433.99999999999994</ele><time>2026-04-18T09:31:40.258Z</time></trkpt><trkpt lat="43.1088817" lon="13.2436767"><ele>434.0</ele><time>2026-04-18T09:31:41.258Z</time></trkpt><trkpt lat="43.1088433" lon="13.2435683"><ele>434.0</ele><time>2026-04-18T09:31:42.258Z</time></trkpt><trkpt lat="43.1087883" lon="13.2434617"><ele>434.0</ele><time>2026-04-18T09:31:43.258Z</time></trkpt><trkpt lat="43.1087" lon="13.2433567"><ele>434.0</ele><time>2026-04-18T09:31:44.258Z</time></trkpt><trkpt lat="43.10858" lon="13.24328"><ele>434.0</ele><time>2026-04-18T09:31:45.258Z</time></trkpt><trkpt lat="43.1084333" lon="13.243245"><ele>434.0</ele><time>2026-04-18T09:31:46.258Z</time></trkpt><trkpt lat="43.108285" lon="13.2432633"><ele>434.0</ele><time>2026-04-18T09:31:47.258Z</time></trkpt><trkpt lat="43.108155" lon="13.2432733"><ele>434.0</ele><time>2026-04-18T09:31:48.258Z</time></trkpt><trkpt lat="43.10805" lon="13.2432517"><ele>434.0</ele><time>2026-04-18T09:31:49.258Z</time></trkpt><trkpt lat="43.1079617" lon="13.2431767"><ele>434.5</ele><time>2026-04-18T09:31:50.258Z</time></trkpt><trkpt lat="43.1078867" lon="13.2430583"><ele>435.0</ele><time>2026-04-18T09:31:51.258Z</time></trkpt><trkpt lat="43.1078383" lon="13.2429"><ele>435.5</ele><time>2026-04-18T09:31:52.258Z</time></trkpt><trkpt lat="43.1078033" lon="13.2427267"><ele>436.0</ele><time>2026-04-18T09:31:53.258Z</time></trkpt><trkpt lat="43.1077683" lon="13.2425583"><ele>436.0</ele><time>2026-04-18T09:31:54.258Z</time></trkpt><trkpt lat="43.1077417" lon="13.2423967"><ele>436.0</ele><time>2026-04-18T09:31:55.258Z</time></trkpt><trkpt lat="43.1077217" lon="13.2422483"><ele>436.0</ele><time>2026-04-18T09:31:56.258Z</time></trkpt><trkpt lat="43.10772" lon="13.2420917"><ele>436.0</ele><time>2026-04-18T09:31:57.258Z</time></trkpt><trkpt lat="43.107755" lon="13.2419433"><ele>436.25</ele><time>2026-04-18T09:31:58.258Z</time></trkpt><trkpt lat="43.1078183" lon="13.2418067"><ele>436.5</ele><time>2026-04-18T09:31:59.258Z</time></trkpt><trkpt lat="43.1078933" lon="13.24168"><ele>436.75</ele><time>2026-04-18T09:32:00.258Z</time></trkpt><trkpt lat="43.1079767" lon="13.2415483"><ele>437.0</ele><time>2026-04-18T09:32:01.258Z</time></trkpt><trkpt lat="43.1080533" lon="13.241415"><ele>437.75</ele><time>2026-04-18T09:32:02.257Z</time></trkpt><trkpt lat="43.1081233" lon="13.2412733"><ele>438.5</ele><time>2026-04-18T09:32:03.258Z</time></trkpt><trkpt lat="43.1081883" lon="13.24112"><ele>439.25</ele><time>2026-04-18T09:32:04.258Z</time></trkpt><trkpt lat="43.1082467" lon="13.2409567"><ele>440.0</ele><time>2026-04-18T09:32:05.258Z</time></trkpt><trkpt lat="43.1083133" lon="13.2408033"><ele>444.6</ele><time>2026-04-18T09:32:06.258Z</time></trkpt><trkpt lat="43.108375" lon="13.240655"><ele>449.2</ele><time>2026-04-18T09:32:07.258Z</time></trkpt><trkpt lat="43.108425" lon="13.2405167"><ele>453.79999999999995</ele><time>2026-04-18T09:32:08.258Z</time></trkpt><trkpt lat="43.1084617" lon="13.2403817"><ele>458.4</ele><time>2026-04-18T09:32:09.258Z</time></trkpt><trkpt lat="43.1084617" lon="13.2402483"><ele>463.0</ele><time>2026-04-18T09:32:10.258Z</time></trkpt><trkpt lat="43.1084367" lon="13.2401233"><ele>463.4</ele><time>2026-04-18T09:32:11.258Z</time></trkpt><trkpt lat="43.1083717" lon="13.2400183"><ele>463.79999999999995</ele><time>2026-04-18T09:32:12.258Z</time></trkpt><trkpt lat="43.10827" lon="13.239965"><ele>464.2</ele><time>2026-04-18T09:32:13.258Z</time></trkpt><trkpt lat="43.1081633" lon="13.2399267"><ele>464.6</ele><time>2026-04-18T09:32:14.258Z</time></trkpt><trkpt lat="43.1080533" lon="13.23987"><ele>465.0</ele><time>2026-04-18T09:32:15.258Z</time></trkpt><trkpt lat="43.107955" lon="13.2397767"><ele>462.75</ele><time>2026-04-18T09:32:16.258Z</time></trkpt><trkpt lat="43.107875" lon="13.2396467"><ele>460.5</ele><time>2026-04-18T09:32:17.258Z</time></trkpt><trkpt lat="43.1078217" lon="13.2394967"><ele>458.25</ele><time>2026-04-18T09:32:18.258Z</time></trkpt><trkpt lat="43.1077967" lon="13.23935"><ele>456.0</ele><time>2026-04-18T09:32:19.257Z</time></trkpt><trkpt lat="43.1077833" lon="13.2391867"><ele>456.0</ele><time>2026-04-18T09:32:20.258Z</time></trkpt><trkpt lat="43.1078" lon="13.23903"><ele>456.0</ele><time>2026-04-18T09:32:21.258Z</time></trkpt><trkpt lat="43.1078333" lon="13.2388733"><ele>456.0</ele><time>2026-04-18T09:32:22.258Z</time></trkpt><trkpt lat="43.10788" lon="13.2387117"><ele>456.0</ele><time>2026-04-18T09:32:23.258Z</time></trkpt><trkpt lat="43.1079517" lon="13.2385467"><ele>456.0</ele><time>2026-04-18T09:32:24.258Z</time></trkpt><trkpt lat="43.1080167" lon="13.2383833"><ele>456.0</ele><time>2026-04-18T09:32:25.258Z</time></trkpt><trkpt lat="43.1080917" lon="13.23821"><ele>456.0</ele><time>2026-04-18T09:32:26.258Z</time></trkpt><trkpt lat="43.1081667" lon="13.2380417"><ele>456.0</ele><time>2026-04-18T09:32:27.258Z</time></trkpt><trkpt lat="43.1082183" lon="13.2378883"><ele>459.20000000000005</ele><time>2026-04-18T09:32:28.258Z</time></trkpt><trkpt lat="43.10825" lon="13.23774"><ele>462.40000000000003</ele><time>2026-04-18T09:32:29.258Z</time></trkpt><trkpt lat="43.1082633" lon="13.237605"><ele>465.6</ele><time>2026-04-18T09:32:30.258Z</time></trkpt><trkpt lat="43.1082433" lon="13.23747"><ele>468.8</ele><time>2026-04-18T09:32:31.258Z</time></trkpt><trkpt lat="43.108185" lon="13.2373417"><ele>472.0</ele><time>2026-04-18T09:32:32.258Z</time></trkpt><trkpt lat="43.1080833" lon="13.2372383"><ele>479.5</ele><time>2026-04-18T09:32:33.258Z</time></trkpt><trkpt lat="43.1079683" lon="13.2371633"><ele>487.0</ele><time>2026-04-18T09:32:34.258Z</time></trkpt><trkpt lat="43.10784" lon="13.2371383"><ele>494.5</ele><time>2026-04-18T09:32:35.258Z</time></trkpt><trkpt lat="43.1077067" lon="13.2371517"><ele>502.0</ele><time>2026-04-18T09:32:36.258Z</time></trkpt><trkpt lat="43.107575" lon="13.237185"><ele>502.0</ele><time>2026-04-18T09:32:37.258Z</time></trkpt><trkpt lat="43.1074333" lon="13.2372"><ele>502.0</ele><time>2026-04-18T09:32:38.258Z</time></trkpt><trkpt lat="43.10729" lon="13.23716"><ele>502.0</ele><time>2026-04-18T09:32:39.258Z</time></trkpt><trkpt lat="43.1071533" lon="13.2371"><ele>502.0</ele><time>2026-04-18T09:32:40.258Z</time></trkpt><trkpt lat="43.107025" lon="13.2370417"><ele>498.5</ele><time>2026-04-18T09:32:41.258Z</time></trkpt><trkpt lat="43.1068983" lon="13.2369683"><ele>495.0</ele><time>2026-04-18T09:32:42.257Z</time></trkpt><trkpt lat="43.10679" lon="13.2368983"><ele>491.5</ele><time>2026-04-18T09:32:43.258Z</time></trkpt><trkpt lat="43.1067017" lon="13.2368033"><ele>488.0</ele><time>2026-04-18T09:32:44.257Z</time></trkpt><trkpt lat="43.10663" lon="13.2366833"><ele>479.5</ele><time>2026-04-18T09:32:45.258Z</time></trkpt><trkpt lat="43.10657" lon="13.2365467"><ele>471.0</ele><time>2026-04-18T09:32:46.258Z</time></trkpt><trkpt lat="43.10652" lon="13.2364"><ele>462.5</ele><time>2026-04-18T09:32:47.258Z</time></trkpt><trkpt lat="43.10647" lon="13.236255"><ele>454.0</ele><time>2026-04-18T09:32:48.258Z</time></trkpt><trkpt lat="43.1064317" lon="13.2361"><ele>454.0</ele><time>2026-04-18T09:32:49.258Z</time></trkpt><trkpt lat="43.1064267" lon="13.235955"><ele>454.0</ele><time>2026-04-18T09:32:50.258Z</time></trkpt><trkpt lat="43.10645" lon="13.2358067"><ele>454.0</ele><time>2026-04-18T09:32:51.258Z</time></trkpt><trkpt lat="43.1064867" lon="13.2356667"><ele>454.0</ele><time>2026-04-18T09:32:52.258Z</time></trkpt><trkpt lat="43.1065533" lon="13.23554"><ele>454.0</ele><time>2026-04-18T09:32:53.258Z</time></trkpt><trkpt lat="43.1066383" lon="13.2354417"><ele>457.75</ele><time>2026-04-18T09:32:54.258Z</time></trkpt><trkpt lat="43.1067433" lon="13.23535"><ele>461.5</ele><time>2026-04-18T09:32:55.258Z</time></trkpt><trkpt lat="43.10686" lon="13.2352517"><ele>465.25</ele><time>2026-04-18T09:32:56.258Z</time></trkpt><trkpt lat="43.1069783" lon="13.2351667"><ele>469.0</ele><time>2026-04-18T09:32:57.258Z</time></trkpt><trkpt lat="43.1070883" lon="13.2350617"><ele>469.0</ele><time>2026-04-18T09:32:58.258Z</time></trkpt><trkpt lat="43.1071917" lon="13.2349633"><ele>469.0</ele><time>2026-04-18T09:32:59.258Z</time></trkpt><trkpt lat="43.107275" lon="13.2348617"><ele>469.0</ele><time>2026-04-18T09:33:00.258Z</time></trkpt><trkpt lat="43.1073533" lon="13.23476"><ele>469.0</ele><time>2026-04-18T09:33:01.258Z</time></trkpt><trkpt lat="43.107445" lon="13.2346783"><ele>471.0</ele><time>2026-04-18T09:33:02.258Z</time></trkpt><trkpt lat="43.1075467" lon="13.2346017"><ele>473.0</ele><time>2026-04-18T09:33:03.258Z</time></trkpt><trkpt lat="43.107645" lon="13.2345333"><ele>475.0</ele><time>2026-04-18T09:33:04.258Z</time></trkpt><trkpt lat="43.10774" lon="13.2344717"><ele>477.0</ele><time>2026-04-18T09:33:05.258Z</time></trkpt><trkpt lat="43.10783" lon="13.2344133"><ele>479.0</ele><time>2026-04-18T09:33:06.258Z</time></trkpt><trkpt lat="43.1079183" lon="13.234365"><ele>479.0</ele><time>2026-04-18T09:33:07.258Z</time></trkpt><trkpt lat="43.1080033" lon="13.2343083"><ele>479.0</ele><time>2026-04-18T09:33:08.258Z</time></trkpt><trkpt lat="43.1080883" lon="13.2342483"><ele>479.0</ele><time>2026-04-18T09:33:09.258Z</time></trkpt><trkpt lat="43.1081783" lon="13.23419"><ele>479.0</ele><time>2026-04-18T09:33:10.258Z</time></trkpt><trkpt lat="43.1082617" lon="13.23413"><ele>479.0</ele><time>2026-04-18T09:33:11.258Z</time></trkpt><trkpt lat="43.1083467" lon="13.234065"><ele>480.79999999999995</ele><time>2026-04-18T09:33:12.258Z</time></trkpt><trkpt lat="43.10844" lon="13.2340067"><ele>482.59999999999997</ele><time>2026-04-18T09:33:13.258Z</time></trkpt><trkpt lat="43.10853" lon="13.233945"><ele>484.4</ele><time>2026-04-18T09:33:14.258Z</time></trkpt><trkpt lat="43.10862" lon="13.23389"><ele>486.2</ele><time>2026-04-18T09:33:15.258Z</time></trkpt><trkpt lat="43.10871" lon="13.2338283"><ele>488.0</ele><time>2026-04-18T09:33:16.258Z</time></trkpt><trkpt lat="43.1088083" lon="13.2337533"><ele>488.0</ele><time>2026-04-18T09:33:17.258Z</time></trkpt><trkpt lat="43.1089067" lon="13.233655"><ele>488.0</ele><time>2026-04-18T09:33:18.258Z</time></trkpt><trkpt lat="43.1090233" lon="13.23355"><ele>488.0</ele><time>2026-04-18T09:33:19.258Z</time></trkpt><trkpt lat="43.109145" lon="13.23344"><ele>488.0</ele><time>2026-04-18T09:33:20.258Z</time></trkpt><trkpt lat="43.10926" lon="13.23331"><ele>491.0</ele><time>2026-04-18T09:33:21.258Z</time></trkpt><trkpt lat="43.10936" lon="13.2331833"><ele>494.0</ele><time>2026-04-18T09:33:22.258Z</time></trkpt><trkpt lat="43.1094467" lon="13.23304"><ele>497.0</ele><time>2026-04-18T09:33:23.258Z</time></trkpt><trkpt lat="43.1095217" lon="13.2328783"><ele>500.0</ele><time>2026-04-18T09:33:24.258Z</time></trkpt><trkpt lat="43.109575" lon="13.23271"><ele>500.0</ele><time>2026-04-18T09:33:25.258Z</time></trkpt><trkpt lat="43.10959" lon="13.232535"><ele>500.0</ele><time>2026-04-18T09:33:26.258Z</time></trkpt><trkpt lat="43.10958" lon="13.2323517"><ele>500.0</ele><time>2026-04-18T09:33:27.258Z</time></trkpt><trkpt lat="43.10953" lon="13.23217"><ele>500.0</ele><time>2026-04-18T09:33:28.258Z</time></trkpt><trkpt lat="43.109445" lon="13.2319983"><ele>505.0</ele><time>2026-04-18T09:33:29.258Z</time></trkpt><trkpt lat="43.1093517" lon="13.23183"><ele>510.0</ele><time>2026-04-18T09:33:30.258Z</time></trkpt><trkpt lat="43.1092467" lon="13.23166"><ele>515.0</ele><time>2026-04-18T09:33:31.258Z</time></trkpt><trkpt lat="43.1091417" lon="13.2315067"><ele>519.6666666666666</ele><time>2026-04-18T09:33:32.258Z</time></trkpt><trkpt lat="43.1090167" lon="13.2313833"><ele>524.3333333333334</ele><time>2026-04-18T09:33:33.258Z</time></trkpt><trkpt lat="43.1088717" lon="13.2312883"><ele>529.0</ele><time>2026-04-18T09:33:34.258Z</time></trkpt><trkpt lat="43.1087" lon="13.2312333"><ele>529.0</ele><time>2026-04-18T09:33:35.258Z</time></trkpt><trkpt lat="43.1085317" lon="13.2312133"><ele>529.0</ele><time>2026-04-18T09:33:36.258Z</time></trkpt><trkpt lat="43.1083917" lon="13.2312217"><ele>529.0</ele><time>2026-04-18T09:33:37.258Z</time></trkpt><trkpt lat="43.1082917" lon="13.2312283"><ele>529.0</ele><time>2026-04-18T09:33:38.258Z</time></trkpt><trkpt lat="43.1082117" lon="13.2312267"><ele>527.6</ele><time>2026-04-18T09:33:39.258Z</time></trkpt><trkpt lat="43.1081317" lon="13.2312333"><ele>526.2</ele><time>2026-04-18T09:33:40.258Z</time></trkpt><trkpt lat="43.108045" lon="13.23125"><ele>524.8000000000001</ele><time>2026-04-18T09:33:41.258Z</time></trkpt><trkpt lat="43.1079533" lon="13.2312683"><ele>523.4</ele><time>2026-04-18T09:33:42.258Z</time></trkpt><trkpt lat="43.1078483" lon="13.2312783"><ele>522.0</ele><time>2026-04-18T09:33:43.258Z</time></trkpt><trkpt lat="43.107735" lon="13.2312967"><ele>522.0</ele><time>2026-04-18T09:33:44.258Z</time></trkpt><trkpt lat="43.107615" lon="13.2312933"><ele>522.0</ele><time>2026-04-18T09:33:45.258Z</time></trkpt><trkpt lat="43.1075033" lon="13.2312833"><ele>522.0</ele><time>2026-04-18T09:33:46.258Z</time></trkpt><trkpt lat="43.1074017" lon="13.2312417"><ele>522.0</ele><time>2026-04-18T09:33:47.258Z</time></trkpt><trkpt lat="43.10733" lon="13.2311417"><ele>522.0</ele><time>2026-04-18T09:33:48.258Z</time></trkpt><trkpt lat="43.1072783" lon="13.2310017"><ele>523.25</ele><time>2026-04-18T09:33:49.258Z</time></trkpt><trkpt lat="43.1072433" lon="13.2308533"><ele>524.5</ele><time>2026-04-18T09:33:50.258Z</time></trkpt><trkpt lat="43.1071933" lon="13.230715"><ele>525.75</ele><time>2026-04-18T09:33:51.258Z</time></trkpt><trkpt lat="43.1071283" lon="13.23058"><ele>527.0</ele><time>2026-04-18T09:33:52.258Z</time></trkpt><trkpt lat="43.10704" lon="13.230475"><ele>527.0</ele><time>2026-04-18T09:33:53.258Z</time></trkpt><trkpt lat="43.1069317" lon="13.2303833"><ele>527.0</ele><time>2026-04-18T09:33:54.258Z</time></trkpt><trkpt lat="43.106825" lon="13.2303"><ele>527.0</ele><time>2026-04-18T09:33:55.258Z</time></trkpt><trkpt lat="43.10674" lon="13.2302217"><ele>527.0</ele><time>2026-04-18T09:33:56.258Z</time></trkpt><trkpt lat="43.106665" lon="13.2301383"><ele>527.0</ele><time>2026-04-18T09:33:57.258Z</time></trkpt><trkpt lat="43.1066033" lon="13.2300233"><ele>524.2</ele><time>2026-04-18T09:33:58.258Z</time></trkpt><trkpt lat="43.1065683" lon="13.229885"><ele>521.4000000000001</ele><time>2026-04-18T09:33:59.258Z</time></trkpt><trkpt lat="43.1065433" lon="13.2297417"><ele>518.5999999999999</ele><time>2026-04-18T09:34:00.258Z</time></trkpt><trkpt lat="43.1065283" lon="13.2296133"><ele>515.8</ele><time>2026-04-18T09:34:01.258Z</time></trkpt><trkpt lat="43.1065117" lon="13.2294967"><ele>513.0</ele><time>2026-04-18T09:34:02.258Z</time></trkpt><trkpt lat="43.10649" lon="13.2293767"><ele>513.0</ele><time>2026-04-18T09:34:03.258Z</time></trkpt><trkpt lat="43.1064667" lon="13.229255"><ele>513.0</ele><time>2026-04-18T09:34:04.258Z</time></trkpt><trkpt lat="43.106445" lon="13.2291283"><ele>513.0</ele><time>2026-04-18T09:34:05.258Z</time></trkpt><trkpt lat="43.10642" lon="13.2289817"><ele>513.0</ele><time>2026-04-18T09:34:06.258Z</time></trkpt><trkpt lat="43.1063933" lon="13.2288383"><ele>513.0</ele><time>2026-04-18T09:34:07.258Z</time></trkpt><trkpt lat="43.1063817" lon="13.2286917"><ele>514.6</ele><time>2026-04-18T09:34:08.258Z</time></trkpt><trkpt lat="43.1063733" lon="13.2285533"><ele>516.1999999999999</ele><time>2026-04-18T09:34:09.258Z</time></trkpt><trkpt lat="43.10639" lon="13.2284183"><ele>517.8</ele><time>2026-04-18T09:34:10.258Z</time></trkpt><trkpt lat="43.1064067" lon="13.2282633"><ele>519.4</ele><time>2026-04-18T09:34:11.258Z</time></trkpt><trkpt lat="43.106415" lon="13.2280983"><ele>521.0</ele><time>2026-04-18T09:34:12.258Z</time></trkpt><trkpt lat="43.1064183" lon="13.2279433"><ele>523.0</ele><time>2026-04-18T09:34:13.258Z</time></trkpt><trkpt lat="43.1064017" lon="13.22779"><ele>525.0</ele><time>2026-04-18T09:34:14.258Z</time></trkpt><trkpt lat="43.1063667" lon="13.2276533"><ele>527.0</ele><time>2026-04-18T09:34:15.258Z</time></trkpt><trkpt lat="43.1063017" lon="13.2275267"><ele>529.0</ele><time>2026-04-18T09:34:16.258Z</time></trkpt><trkpt lat="43.1062167" lon="13.2274317"><ele>531.0</ele><time>2026-04-18T09:34:17.258Z</time></trkpt><trkpt lat="43.1061233" lon="13.22737"><ele>531.0</ele><time>2026-04-18T09:34:18.258Z</time></trkpt><trkpt lat="43.106035" lon="13.2273233"><ele>531.0</ele><time>2026-04-18T09:34:19.258Z</time></trkpt><trkpt lat="43.1059533" lon="13.2272867"><ele>531.0</ele><time>2026-04-18T09:34:20.258Z</time></trkpt><trkpt lat="43.1058767" lon="13.227255"><ele>531.0</ele><time>2026-04-18T09:34:21.258Z</time></trkpt><trkpt lat="43.1058083" lon="13.22722"><ele>531.0</ele><time>2026-04-18T09:34:22.258Z</time></trkpt><trkpt lat="43.1057367" lon="13.2271867"><ele>531.0</ele><time>2026-04-18T09:34:23.258Z</time></trkpt><trkpt lat="43.1056633" lon="13.2271617"><ele>535.8333333333334</ele><time>2026-04-18T09:34:24.258Z</time></trkpt><trkpt lat="43.1055567" lon="13.227115"><ele>540.6666666666666</ele><time>2026-04-18T09:34:26.258Z</time></trkpt><trkpt lat="43.1054833" lon="13.227095"><ele>545.5</ele><time>2026-04-18T09:34:28.258Z</time></trkpt><trkpt lat="43.1054133" lon="13.2270883"><ele>550.3333333333333</ele><time>2026-04-18T09:34:31.258Z</time></trkpt><trkpt lat="43.1053333" lon="13.22713"><ele>555.1666666666666</ele><time>2026-04-18T09:35:32.258Z</time></trkpt><trkpt lat="43.10527" lon="13.2271133"><ele>560.0</ele><time>2026-04-18T09:35:33.258Z</time></trkpt><trkpt lat="43.105175" lon="13.2271067"><ele>560.0</ele><time>2026-04-18T09:35:34.258Z</time></trkpt><trkpt lat="43.1050617" lon="13.2271033"><ele>560.0</ele><time>2026-04-18T09:35:35.258Z</time></trkpt><trkpt lat="43.1049483" lon="13.2271017"><ele>560.0</ele><time>2026-04-18T09:35:36.258Z</time></trkpt><trkpt lat="43.1048283" lon="13.2270833"><ele>560.0</ele><time>2026-04-18T09:35:37.258Z</time></trkpt><trkpt lat="43.1047167" lon="13.227045"><ele>555.75</ele><time>2026-04-18T09:35:38.258Z</time></trkpt><trkpt lat="43.1046117" lon="13.2269817"><ele>551.5</ele><time>2026-04-18T09:35:39.258Z</time></trkpt><trkpt lat="43.1045083" lon="13.2268917"><ele>547.25</ele><time>2026-04-18T09:35:40.258Z</time></trkpt><trkpt lat="43.1044217" lon="13.2268033"><ele>543.0</ele><time>2026-04-18T09:35:41.258Z</time></trkpt><trkpt lat="43.1043283" lon="13.2267167"><ele>543.0</ele><time>2026-04-18T09:35:42.258Z</time></trkpt><trkpt lat="43.104245" lon="13.2266317"><ele>543.0</ele><time>2026-04-18T09:35:43.258Z</time></trkpt><trkpt lat="43.104165" lon="13.2265567"><ele>543.0</ele><time>2026-04-18T09:35:44.258Z</time></trkpt><trkpt lat="43.1040883" lon="13.226475"><ele>543.0</ele><time>2026-04-18T09:35:45.258Z</time></trkpt><trkpt lat="43.1040067" lon="13.226385"><ele>543.0</ele><time>2026-04-18T09:35:46.258Z</time></trkpt><trkpt lat="43.1039233" lon="13.2262867"><ele>541.5</ele><time>2026-04-18T09:35:47.258Z</time></trkpt><trkpt lat="43.1038433" lon="13.2261867"><ele>540.0</ele><time>2026-04-18T09:35:48.258Z</time></trkpt><trkpt lat="43.1037717" lon="13.2260717"><ele>538.5</ele><time>2026-04-18T09:35:49.258Z</time></trkpt><trkpt lat="43.1037" lon="13.22595"><ele>537.0</ele><time>2026-04-18T09:35:50.258Z</time></trkpt><trkpt lat="43.10363" lon="13.22582"><ele>537.0</ele><time>2026-04-18T09:35:51.258Z</time></trkpt><trkpt lat="43.1035633" lon="13.2256683"><ele>537.0</ele><time>2026-04-18T09:35:52.258Z</time></trkpt><trkpt lat="43.1035067" lon="13.2255117"><ele>537.0</ele><time>2026-04-18T09:35:53.258Z</time></trkpt><trkpt lat="43.1034467" lon="13.22533"><ele>537.0</ele><time>2026-04-18T09:35:54.258Z</time></trkpt><trkpt lat="43.1033917" lon="13.22513"><ele>539.0</ele><time>2026-04-18T09:35:55.258Z</time></trkpt><trkpt lat="43.1033333" lon="13.2249467"><ele>541.0</ele><time>2026-04-18T09:35:56.258Z</time></trkpt><trkpt lat="43.1032817" lon="13.2247767"><ele>543.0</ele><time>2026-04-18T09:35:57.258Z</time></trkpt><trkpt lat="43.1032283" lon="13.22461"><ele>545.0</ele><time>2026-04-18T09:35:58.258Z</time></trkpt><trkpt lat="43.1031617" lon="13.2244467"><ele>545.5</ele><time>2026-04-18T09:35:59.258Z</time></trkpt><trkpt lat="43.10307" lon="13.224305"><ele>546.0</ele><time>2026-04-18T09:36:00.258Z</time></trkpt><trkpt lat="43.1029583" lon="13.2242"><ele>546.5</ele><time>2026-04-18T09:36:01.258Z</time></trkpt><trkpt lat="43.1028283" lon="13.2241433"><ele>547.0</ele><time>2026-04-18T09:36:02.258Z</time></trkpt><trkpt lat="43.1026917" lon="13.2241417"><ele>547.0</ele><time>2026-04-18T09:36:03.258Z</time></trkpt><trkpt lat="43.1025717" lon="13.224185"><ele>547.0</ele><time>2026-04-18T09:36:04.258Z</time></trkpt><trkpt lat="43.1024417" lon="13.2242633"><ele>547.0</ele><time>2026-04-18T09:36:05.258Z</time></trkpt><trkpt lat="43.102315" lon="13.2243533"><ele>547.0</ele><time>2026-04-18T09:36:06.258Z</time></trkpt><trkpt lat="43.1021983" lon="13.22443"><ele>545.75</ele><time>2026-04-18T09:36:07.258Z</time></trkpt><trkpt lat="43.1020833" lon="13.22451"><ele>544.5</ele><time>2026-04-18T09:36:08.258Z</time></trkpt><trkpt lat="43.101975" lon="13.2246133"><ele>543.25</ele><time>2026-04-18T09:36:09.258Z</time></trkpt><trkpt lat="43.1018783" lon="13.2247233"><ele>542.0</ele><time>2026-04-18T09:36:10.258Z</time></trkpt><trkpt lat="43.10179" lon="13.2248517"><ele>542.0</ele><time>2026-04-18T09:36:11.258Z</time></trkpt><trkpt lat="43.10171" lon="13.2249733"><ele>542.0</ele><time>2026-04-18T09:36:12.258Z</time></trkpt><trkpt lat="43.1016317" lon="13.2250783"><ele>542.0</ele><time>2026-04-18T09:36:13.258Z</time></trkpt><trkpt lat="43.101555" lon="13.2251667"><ele>542.0</ele><time>2026-04-18T09:36:14.258Z</time></trkpt><trkpt lat="43.1014783" lon="13.2252433"><ele>542.0</ele><time>2026-04-18T09:36:15.258Z</time></trkpt><trkpt lat="43.1013967" lon="13.225295"><ele>544.0</ele><time>2026-04-18T09:36:16.258Z</time></trkpt><trkpt lat="43.1013167" lon="13.2253517"><ele>546.0</ele><time>2026-04-18T09:36:17.258Z</time></trkpt><trkpt lat="43.101225" lon="13.2253917"><ele>548.0</ele><time>2026-04-18T09:36:18.258Z</time></trkpt><trkpt lat="43.1011417" lon="13.225435"><ele>550.0</ele><time>2026-04-18T09:36:19.258Z</time></trkpt><trkpt lat="43.10106" lon="13.2254667"><ele>552.0</ele><time>2026-04-18T09:36:20.258Z</time></trkpt><trkpt lat="43.10098" lon="13.225485"><ele>554.0</ele><time>2026-04-18T09:36:21.258Z</time></trkpt><trkpt lat="43.1009017" lon="13.2254917"><ele>554.0</ele><time>2026-04-18T09:36:22.258Z</time></trkpt><trkpt lat="43.1008367" lon="13.22548"><ele>554.0</ele><time>2026-04-18T09:36:23.258Z</time></trkpt><trkpt lat="43.1007433" lon="13.2254717"><ele>554.0</ele><time>2026-04-18T09:36:25.258Z</time></trkpt><trkpt lat="43.100675" lon="13.2254917"><ele>554.0</ele><time>2026-04-18T09:36:27.258Z</time></trkpt><trkpt lat="43.1006033" lon="13.225525"><ele>554.0</ele><time>2026-04-18T09:36:29.258Z</time></trkpt><trkpt lat="43.100505" lon="13.22558"><ele>554.0</ele><time>2026-04-18T09:36:31.258Z</time></trkpt><trkpt lat="43.10044" lon="13.2256233"><ele>551.0</ele><time>2026-04-18T09:36:32.257Z</time></trkpt><trkpt lat="43.10036" lon="13.2256817"><ele>548.0</ele><time>2026-04-18T09:36:33.258Z</time></trkpt><trkpt lat="43.1002617" lon="13.2257483"><ele>545.0</ele><time>2026-04-18T09:36:34.258Z</time></trkpt><trkpt lat="43.10016" lon="13.225825"><ele>542.0</ele><time>2026-04-18T09:36:35.258Z</time></trkpt><trkpt lat="43.10007" lon="13.2259"><ele>539.0</ele><time>2026-04-18T09:36:36.258Z</time></trkpt><trkpt lat="43.09997" lon="13.2259733"><ele>538.4</ele><time>2026-04-18T09:36:37.258Z</time></trkpt><trkpt lat="43.0998683" lon="13.2260383"><ele>537.8</ele><time>2026-04-18T09:36:38.258Z</time></trkpt><trkpt lat="43.09976" lon="13.2260833"><ele>537.2</ele><time>2026-04-18T09:36:39.258Z</time></trkpt><trkpt lat="43.099655" lon="13.2261067"><ele>536.6</ele><time>2026-04-18T09:36:40.258Z</time></trkpt><trkpt lat="43.0995483" lon="13.2261233"><ele>536.0</ele><time>2026-04-18T09:36:41.258Z</time></trkpt><trkpt lat="43.0994367" lon="13.2261317"><ele>536.0</ele><time>2026-04-18T09:36:42.258Z</time></trkpt><trkpt lat="43.0993033" lon="13.226125"><ele>536.0</ele><time>2026-04-18T09:36:43.258Z</time></trkpt><trkpt lat="43.099165" lon="13.2261"><ele>536.0</ele><time>2026-04-18T09:36:44.258Z</time></trkpt><trkpt lat="43.0990267" lon="13.2260783"><ele>536.0</ele><time>2026-04-18T09:36:45.258Z</time></trkpt><trkpt lat="43.09889" lon="13.226055"><ele>536.75</ele><time>2026-04-18T09:36:46.258Z</time></trkpt><trkpt lat="43.0987567" lon="13.226045"><ele>537.5</ele><time>2026-04-18T09:36:47.258Z</time></trkpt><trkpt lat="43.0986233" lon="13.2260667"><ele>538.25</ele><time>2026-04-18T09:36:48.258Z</time></trkpt><trkpt lat="43.0984983" lon="13.2261417"><ele>539.0</ele><time>2026-04-18T09:36:49.258Z</time></trkpt><trkpt lat="43.098385" lon="13.22624"><ele>539.0</ele><time>2026-04-18T09:36:50.258Z</time></trkpt><trkpt lat="43.0982767" lon="13.2263433"><ele>539.0</ele><time>2026-04-18T09:36:51.258Z</time></trkpt><trkpt lat="43.0981517" lon="13.2264133"><ele>539.0</ele><time>2026-04-18T09:36:52.258Z</time></trkpt><trkpt lat="43.09802" lon="13.2264617"><ele>539.0</ele><time>2026-04-18T09:36:53.258Z</time></trkpt><trkpt lat="43.0978833" lon="13.2265"><ele>533.5</ele><time>2026-04-18T09:36:54.258Z</time></trkpt><trkpt lat="43.0977467" lon="13.22655"><ele>528.0</ele><time>2026-04-18T09:36:55.258Z</time></trkpt><trkpt lat="43.0976133" lon="13.2265817"><ele>522.5</ele><time>2026-04-18T09:36:56.258Z</time></trkpt><trkpt lat="43.0974783" lon="13.226615"><ele>517.0</ele><time>2026-04-18T09:36:57.258Z</time></trkpt><trkpt lat="43.0973467" lon="13.2266533"><ele>516.75</ele><time>2026-04-18T09:36:58.258Z</time></trkpt><trkpt lat="43.09722" lon="13.226695"><ele>516.5</ele><time>2026-04-18T09:36:59.258Z</time></trkpt><trkpt lat="43.0970983" lon="13.2267383"><ele>516.25</ele><time>2026-04-18T09:37:00.258Z</time></trkpt><trkpt lat="43.09698" lon="13.2267833"><ele>516.0</ele><time>2026-04-18T09:37:01.258Z</time></trkpt><trkpt lat="43.096865" lon="13.2268267"><ele>516.0</ele><time>2026-04-18T09:37:02.258Z</time></trkpt><trkpt lat="43.096755" lon="13.2268633"><ele>516.0</ele><time>2026-04-18T09:37:03.257Z</time></trkpt><trkpt lat="43.0966483" lon="13.2269133"><ele>516.0</ele><time>2026-04-18T09:37:04.258Z</time></trkpt><trkpt lat="43.09655" lon="13.2269683"><ele>516.0</ele><time>2026-04-18T09:37:05.258Z</time></trkpt><trkpt lat="43.096465" lon="13.2270317"><ele>516.0</ele><time>2026-04-18T09:37:06.258Z</time></trkpt><trkpt lat="43.0963967" lon="13.2271217"><ele>516.6666666666666</ele><time>2026-04-18T09:37:07.258Z</time></trkpt><trkpt lat="43.09635" lon="13.2272217"><ele>517.3333333333334</ele><time>2026-04-18T09:37:08.258Z</time></trkpt><trkpt lat="43.0963367" lon="13.2273467"><ele>518.0</ele><time>2026-04-18T09:37:09.258Z</time></trkpt><trkpt lat="43.0963367" lon="13.2274567"><ele>518.6666666666667</ele><time>2026-04-18T09:37:10.258Z</time></trkpt><trkpt lat="43.09634" lon="13.2275567"><ele>519.3333333333334</ele><time>2026-04-18T09:37:11.258Z</time></trkpt><trkpt lat="43.09634" lon="13.2276483"><ele>520.0</ele><time>2026-04-18T09:37:12.258Z</time></trkpt><trkpt lat="43.09633" lon="13.227735"><ele>518.5</ele><time>2026-04-18T09:37:13.258Z</time></trkpt><trkpt lat="43.0962967" lon="13.2278433"><ele>517.0</ele><time>2026-04-18T09:37:15.258Z</time></trkpt><trkpt lat="43.0962283" lon="13.2278617"><ele>515.5</ele><time>2026-04-18T09:37:18.258Z</time></trkpt><trkpt lat="43.0961483" lon="13.22779"><ele>514.0</ele><time>2026-04-18T09:37:20.258Z</time></trkpt><trkpt lat="43.0960483" lon="13.22771"><ele>512.5</ele><time>2026-04-18T09:37:22.258Z</time></trkpt><trkpt lat="43.0959933" lon="13.2276667"><ele>511.0</ele><time>2026-04-18T09:37:23.258Z</time></trkpt><trkpt lat="43.095925" lon="13.2276117"><ele>511.00000000000006</ele><time>2026-04-18T09:37:24.258Z</time></trkpt><trkpt lat="43.0958617" lon="13.22755"><ele>511.0</ele><time>2026-04-18T09:37:25.258Z</time></trkpt><trkpt lat="43.0957967" lon="13.22749"><ele>511.0</ele><time>2026-04-18T09:37:26.258Z</time></trkpt><trkpt lat="43.0957317" lon="13.227435"><ele>511.0</ele><time>2026-04-18T09:37:27.258Z</time></trkpt><trkpt lat="43.09566" lon="13.22737"><ele>511.00000000000006</ele><time>2026-04-18T09:37:28.258Z</time></trkpt><trkpt lat="43.09559" lon="13.2272967"><ele>511.0</ele><time>2026-04-18T09:37:29.258Z</time></trkpt><trkpt lat="43.0955283" lon="13.227215"><ele>513.8</ele><time>2026-04-18T09:37:30.258Z</time></trkpt><trkpt lat="43.0954733" lon="13.2271083"><ele>516.6</ele><time>2026-04-18T09:37:31.257Z</time></trkpt><trkpt lat="43.09542" lon="13.2269967"><ele>519.4</ele><time>2026-04-18T09:37:32.258Z</time></trkpt><trkpt lat="43.0953617" lon="13.2268883"><ele>522.2</ele><time>2026-04-18T09:37:33.258Z</time></trkpt><trkpt lat="43.0952867" lon="13.2268017"><ele>525.0</ele><time>2026-04-18T09:37:34.258Z</time></trkpt><trkpt lat="43.0951833" lon="13.2267233"><ele>525.0</ele><time>2026-04-18T09:37:35.258Z</time></trkpt><trkpt lat="43.0950817" lon="13.2266533"><ele>525.0</ele><time>2026-04-18T09:37:36.258Z</time></trkpt><trkpt lat="43.0949717" lon="13.2265933"><ele>525.0</ele><time>2026-04-18T09:37:37.258Z</time></trkpt><trkpt lat="43.0948783" lon="13.2265417"><ele>525.0</ele><time>2026-04-18T09:37:38.258Z</time></trkpt><trkpt lat="43.0947983" lon="13.2264817"><ele>525.0</ele><time>2026-04-18T09:37:39.258Z</time></trkpt><trkpt lat="43.09473" lon="13.226405"><ele>526.6666666666666</ele><time>2026-04-18T09:37:40.258Z</time></trkpt><trkpt lat="43.0946767" lon="13.2263183"><ele>528.3333333333334</ele><time>2026-04-18T09:37:41.258Z</time></trkpt><trkpt lat="43.0946367" lon="13.2262367"><ele>530.0</ele><time>2026-04-18T09:37:42.258Z</time></trkpt><trkpt lat="43.094585" lon="13.2261283"><ele>531.6666666666667</ele><time>2026-04-18T09:37:44.258Z</time></trkpt><trkpt lat="43.0945033" lon="13.226125"><ele>533.3333333333334</ele><time>2026-04-18T09:37:47.258Z</time></trkpt><trkpt lat="43.09443" lon="13.226185"><ele>535.0</ele><time>2026-04-18T09:37:49.258Z</time></trkpt><trkpt lat="43.09436" lon="13.22626"><ele>535.0</ele><time>2026-04-18T09:37:52.258Z</time></trkpt><trkpt lat="43.0943" lon="13.2263233"><ele>535.0</ele><time>2026-04-18T09:37:54.258Z</time></trkpt><trkpt lat="43.0942" lon="13.2264383"><ele>535.0</ele><time>2026-04-18T09:37:56.258Z</time></trkpt><trkpt lat="43.0941567" lon="13.226525"><ele>535.0</ele><time>2026-04-18T09:37:57.258Z</time></trkpt><trkpt lat="43.09412" lon="13.22663"><ele>535.0</ele><time>2026-04-18T09:37:58.258Z</time></trkpt><trkpt lat="43.09409" lon="13.2267533"><ele>538.8</ele><time>2026-04-18T09:37:59.258Z</time></trkpt><trkpt lat="43.0940567" lon="13.226885"><ele>542.6</ele><time>2026-04-18T09:38:00.258Z</time></trkpt><trkpt lat="43.09401" lon="13.2270167"><ele>546.4</ele><time>2026-04-18T09:38:01.258Z</time></trkpt><trkpt lat="43.09396" lon="13.2271383"><ele>550.2</ele><time>2026-04-18T09:38:02.258Z</time></trkpt><trkpt lat="43.0939067" lon="13.2272333"><ele>554.0</ele><time>2026-04-18T09:38:03.258Z</time></trkpt><trkpt lat="43.0938583" lon="13.2273017"><ele>552.8333333333333</ele><time>2026-04-18T09:38:04.258Z</time></trkpt><trkpt lat="43.0938033" lon="13.2273567"><ele>551.6666666666666</ele><time>2026-04-18T09:38:05.258Z</time></trkpt><trkpt lat="43.09372" lon="13.2274183"><ele>550.5</ele><time>2026-04-18T09:38:07.258Z</time></trkpt><trkpt lat="43.0936467" lon="13.2274867"><ele>549.3333333333334</ele><time>2026-04-18T09:38:12.258Z</time></trkpt><trkpt lat="43.0935733" lon="13.22756"><ele>548.1666666666667</ele><time>2026-04-18T09:38:14.258Z</time></trkpt><trkpt lat="43.0935183" lon="13.2276067"><ele>547.0</ele><time>2026-04-18T09:38:15.258Z</time></trkpt><trkpt lat="43.0934583" lon="13.2276467"><ele>547.0</ele><time>2026-04-18T09:38:16.257Z</time></trkpt><trkpt lat="43.0933983" lon="13.22769"><ele>547.0</ele><time>2026-04-18T09:38:17.258Z</time></trkpt><trkpt lat="43.0933317" lon="13.22773"><ele>547.0</ele><time>2026-04-18T09:38:18.258Z</time></trkpt><trkpt lat="43.0932683" lon="13.227765"><ele>547.0</ele><time>2026-04-18T09:38:19.258Z</time></trkpt><trkpt lat="43.0932" lon="13.22781"><ele>547.0</ele><time>2026-04-18T09:38:20.258Z</time></trkpt><trkpt lat="43.09314" lon="13.227875"><ele>547.0</ele><time>2026-04-18T09:38:21.258Z</time></trkpt><trkpt lat="43.0930617" lon="13.2279567"><ele>549.2</ele><time>2026-04-18T09:38:22.257Z</time></trkpt><trkpt lat="43.09299" lon="13.2280433"><ele>551.4000000000001</ele><time>2026-04-18T09:38:23.257Z</time></trkpt><trkpt lat="43.092915" lon="13.2281333"><ele>553.5999999999999</ele><time>2026-04-18T09:38:24.257Z</time></trkpt><trkpt lat="43.0928533" lon="13.22821"><ele>555.8</ele><time>2026-04-18T09:38:25.258Z</time></trkpt><trkpt lat="43.09279" lon="13.2282933"><ele>558.0</ele><time>2026-04-18T09:38:26.258Z</time></trkpt><trkpt lat="43.0927233" lon="13.2283867"><ele>558.0</ele><time>2026-04-18T09:38:27.258Z</time></trkpt><trkpt lat="43.0926483" lon="13.22847"><ele>558.0</ele><time>2026-04-18T09:38:28.258Z</time></trkpt><trkpt lat="43.0925633" lon="13.2285667"><ele>558.0</ele><time>2026-04-18T09:38:29.258Z</time></trkpt><trkpt lat="43.092475" lon="13.22867"><ele>558.0</ele><time>2026-04-18T09:38:30.258Z</time></trkpt><trkpt lat="43.0923833" lon="13.228765"><ele>558.0</ele><time>2026-04-18T09:38:31.258Z</time></trkpt><trkpt lat="43.0922917" lon="13.2288633"><ele>561.0</ele><time>2026-04-18T09:38:32.258Z</time></trkpt><trkpt lat="43.0921917" lon="13.22895"><ele>564.0</ele><time>2026-04-18T09:38:33.258Z</time></trkpt><trkpt lat="43.0920967" lon="13.2290383"><ele>567.0</ele><time>2026-04-18T09:38:34.258Z</time></trkpt><trkpt lat="43.092005" lon="13.2291417"><ele>570.0</ele><time>2026-04-18T09:38:35.258Z</time></trkpt><trkpt lat="43.091925" lon="13.2292533"><ele>570.0</ele><time>2026-04-18T09:38:36.258Z</time></trkpt><trkpt lat="43.0918433" lon="13.2293417"><ele>570.0</ele><time>2026-04-18T09:38:37.258Z</time></trkpt><trkpt lat="43.0917733" lon="13.2294283"><ele>570.0</ele><time>2026-04-18T09:38:38.258Z</time></trkpt><trkpt lat="43.09169" lon="13.229485"><ele>570.0</ele><time>2026-04-18T09:38:39.258Z</time></trkpt><trkpt lat="43.0916" lon="13.2295517"><ele>570.0</ele><time>2026-04-18T09:38:40.258Z</time></trkpt><trkpt lat="43.0915017" lon="13.2296017"><ele>570.6</ele><time>2026-04-18T09:38:41.258Z</time></trkpt><trkpt lat="43.0914117" lon="13.2296583"><ele>571.2</ele><time>2026-04-18T09:38:42.258Z</time></trkpt><trkpt lat="43.09132" lon="13.2297367"><ele>571.8</ele><time>2026-04-18T09:38:43.258Z</time></trkpt><trkpt lat="43.0912417" lon="13.2298133"><ele>572.4</ele><time>2026-04-18T09:38:44.258Z</time></trkpt><trkpt lat="43.0911583" lon="13.2298783"><ele>573.0</ele><time>2026-04-18T09:38:45.258Z</time></trkpt><trkpt lat="43.0910667" lon="13.2299183"><ele>573.0</ele><time>2026-04-18T09:38:46.258Z</time></trkpt><trkpt lat="43.0909583" lon="13.2299667"><ele>573.0</ele><time>2026-04-18T09:38:47.258Z</time></trkpt><trkpt lat="43.0908367" lon="13.230025"><ele>573.0</ele><time>2026-04-18T09:38:48.258Z</time></trkpt><trkpt lat="43.0907133" lon="13.2300883"><ele>573.0</ele><time>2026-04-18T09:38:49.258Z</time></trkpt><trkpt lat="43.0905917" lon="13.23016"><ele>578.0</ele><time>2026-04-18T09:38:50.258Z</time></trkpt><trkpt lat="43.09047" lon="13.2302517"><ele>583.0</ele><time>2026-04-18T09:38:51.258Z</time></trkpt><trkpt lat="43.0903417" lon="13.2303333"><ele>588.0</ele><time>2026-04-18T09:38:52.258Z</time></trkpt><trkpt lat="43.0901933" lon="13.23041"><ele>593.0</ele><time>2026-04-18T09:38:53.257Z</time></trkpt><trkpt lat="43.0900483" lon="13.2304933"><ele>593.25</ele><time>2026-04-18T09:38:54.258Z</time></trkpt><trkpt lat="43.08991" lon="13.2305633"><ele>593.5</ele><time>2026-04-18T09:38:55.258Z</time></trkpt><trkpt lat="43.0897967" lon="13.230615"><ele>593.75</ele><time>2026-04-18T09:38:56.258Z</time></trkpt><trkpt lat="43.089695" lon="13.2306617"><ele>594.0</ele><time>2026-04-18T09:38:57.258Z</time></trkpt><trkpt lat="43.0895983" lon="13.2306833"><ele>594.0</ele><time>2026-04-18T09:38:58.258Z</time></trkpt><trkpt lat="43.0895117" lon="13.2307167"><ele>594.0</ele><time>2026-04-18T09:38:59.258Z</time></trkpt><trkpt lat="43.0894133" lon="13.230745"><ele>594.0</ele><time>2026-04-18T09:39:00.257Z</time></trkpt><trkpt lat="43.0893083" lon="13.2307567"><ele>594.0</ele><time>2026-04-18T09:39:01.258Z</time></trkpt><trkpt lat="43.089205" lon="13.2307617"><ele>594.0</ele><time>2026-04-18T09:39:02.257Z</time></trkpt><trkpt lat="43.089095" lon="13.2307683"><ele>597.25</ele><time>2026-04-18T09:39:03.258Z</time></trkpt><trkpt lat="43.0889833" lon="13.230775"><ele>600.5</ele><time>2026-04-18T09:39:04.258Z</time></trkpt><trkpt lat="43.0888683" lon="13.2307833"><ele>603.75</ele><time>2026-04-18T09:39:05.258Z</time></trkpt><trkpt lat="43.08875" lon="13.230805"><ele>607.0</ele><time>2026-04-18T09:39:06.258Z</time></trkpt><trkpt lat="43.0886383" lon="13.2308483"><ele>607.0</ele><time>2026-04-18T09:39:07.258Z</time></trkpt><trkpt lat="43.0885267" lon="13.2309317"><ele>607.0</ele><time>2026-04-18T09:39:08.258Z</time></trkpt><trkpt lat="43.0884167" lon="13.2310283"><ele>607.0</ele><time>2026-04-18T09:39:09.258Z</time></trkpt><trkpt lat="43.0883033" lon="13.2311467"><ele>607.0</ele><time>2026-04-18T09:39:10.258Z</time></trkpt><trkpt lat="43.0881833" lon="13.2312517"><ele>607.3333333333334</ele><time>2026-04-18T09:39:11.258Z</time></trkpt><trkpt lat="43.0880667" lon="13.2313533"><ele>607.6666666666667</ele><time>2026-04-18T09:39:12.258Z</time></trkpt><trkpt lat="43.0879783" lon="13.231415"><ele>608.0</ele><time>2026-04-18T09:39:13.258Z</time></trkpt><trkpt lat="43.0879117" lon="13.23145"><ele>608.3333333333334</ele><time>2026-04-18T09:39:14.258Z</time></trkpt><trkpt lat="43.0878467" lon="13.2314683"><ele>608.6666666666666</ele><time>2026-04-18T09:39:15.258Z</time></trkpt><trkpt lat="43.087775" lon="13.2314733"><ele>609.0</ele><time>2026-04-18T09:39:16.258Z</time></trkpt><trkpt lat="43.0876867" lon="13.2314767"><ele>609.0</ele><time>2026-04-18T09:39:17.258Z</time></trkpt><trkpt lat="43.0875917" lon="13.2314883"><ele>609.0</ele><time>2026-04-18T09:39:18.258Z</time></trkpt><trkpt lat="43.0874833" lon="13.231535"><ele>609.0</ele><time>2026-04-18T09:39:19.258Z</time></trkpt><trkpt lat="43.0873767" lon="13.2316033"><ele>609.0</ele><time>2026-04-18T09:39:20.258Z</time></trkpt><trkpt lat="43.0872867" lon="13.2316717"><ele>609.0</ele><time>2026-04-18T09:39:21.258Z</time></trkpt><trkpt lat="43.0872133" lon="13.231735"><ele>612.1666666666666</ele><time>2026-04-18T09:39:22.258Z</time></trkpt><trkpt lat="43.0871367" lon="13.2317967"><ele>615.3333333333334</ele><time>2026-04-18T09:39:23.258Z</time></trkpt><trkpt lat="43.087065" lon="13.2318567"><ele>618.5</ele><time>2026-04-18T09:39:24.258Z</time></trkpt><trkpt lat="43.08699" lon="13.2319117"><ele>621.6666666666667</ele><time>2026-04-18T09:39:25.258Z</time></trkpt><trkpt lat="43.0869167" lon="13.2319533"><ele>624.8333333333334</ele><time>2026-04-18T09:39:26.258Z</time></trkpt><trkpt lat="43.0868333" lon="13.2319883"><ele>628.0</ele><time>2026-04-18T09:39:27.258Z</time></trkpt><trkpt lat="43.08673" lon="13.232035"><ele>628.0</ele><time>2026-04-18T09:39:28.258Z</time></trkpt><trkpt lat="43.086615" lon="13.2320783"><ele>628.0</ele><time>2026-04-18T09:39:29.257Z</time></trkpt><trkpt lat="43.0865167" lon="13.2321217"><ele>628.0</ele><time>2026-04-18T09:39:30.257Z</time></trkpt><trkpt lat="43.0864167" lon="13.2321783"><ele>628.0</ele><time>2026-04-18T09:39:31.257Z</time></trkpt><trkpt lat="43.0863083" lon="13.2322233"><ele>628.0</ele><time>2026-04-18T09:39:32.257Z</time></trkpt><trkpt lat="43.0862" lon="13.2322817"><ele>627.0</ele><time>2026-04-18T09:39:33.257Z</time></trkpt><trkpt lat="43.086095" lon="13.2323367"><ele>626.0</ele><time>2026-04-18T09:39:34.257Z</time></trkpt><trkpt lat="43.0859917" lon="13.2324167"><ele>625.0</ele><time>2026-04-18T09:39:35.257Z</time></trkpt><trkpt lat="43.08589" lon="13.232515"><ele>624.0</ele><time>2026-04-18T09:39:36.257Z</time></trkpt><trkpt lat="43.085785" lon="13.2326117"><ele>626.25</ele><time>2026-04-18T09:39:37.257Z</time></trkpt><trkpt lat="43.08568" lon="13.23271"><ele>628.5</ele><time>2026-04-18T09:39:38.257Z</time></trkpt><trkpt lat="43.085575" lon="13.2328083"><ele>630.75</ele><time>2026-04-18T09:39:39.257Z</time></trkpt><trkpt lat="43.0854767" lon="13.2328983"><ele>633.0</ele><time>2026-04-18T09:39:40.257Z</time></trkpt><trkpt lat="43.0853817" lon="13.2329817"><ele>633.0</ele><time>2026-04-18T09:39:41.257Z</time></trkpt><trkpt lat="43.0852883" lon="13.2330583"><ele>633.0</ele><time>2026-04-18T09:39:42.257Z</time></trkpt><trkpt lat="43.0851867" lon="13.233105"><ele>633.0</ele><time>2026-04-18T09:39:43.257Z</time></trkpt><trkpt lat="43.0850783" lon="13.233125"><ele>633.0</ele><time>2026-04-18T09:39:44.257Z</time></trkpt><trkpt lat="43.0849583" lon="13.2331383"><ele>633.0</ele><time>2026-04-18T09:39:45.257Z</time></trkpt><trkpt lat="43.08483" lon="13.233145"><ele>636.25</ele><time>2026-04-18T09:39:46.257Z</time></trkpt><trkpt lat="43.0847017" lon="13.2331433"><ele>639.5</ele><time>2026-04-18T09:39:47.257Z</time></trkpt><trkpt lat="43.0845767" lon="13.23314"><ele>642.75</ele><time>2026-04-18T09:39:48.257Z</time></trkpt><trkpt lat="43.0844533" lon="13.2331383"><ele>646.0</ele><time>2026-04-18T09:39:49.257Z</time></trkpt><trkpt lat="43.084335" lon="13.2331133"><ele>647.5</ele><time>2026-04-18T09:39:50.257Z</time></trkpt><trkpt lat="43.0841983" lon="13.2330917"><ele>649.0</ele><time>2026-04-18T09:39:51.257Z</time></trkpt><trkpt lat="43.0840783" lon="13.2330583"><ele>650.5</ele><time>2026-04-18T09:39:52.257Z</time></trkpt><trkpt lat="43.08396" lon="13.233005"><ele>652.0</ele><time>2026-04-18T09:39:53.257Z</time></trkpt><trkpt lat="43.08383" lon="13.2329517"><ele>655.25</ele><time>2026-04-18T09:39:54.257Z</time></trkpt><trkpt lat="43.0837083" lon="13.2328983"><ele>658.5</ele><time>2026-04-18T09:39:55.257Z</time></trkpt><trkpt lat="43.0835933" lon="13.2328417"><ele>661.75</ele><time>2026-04-18T09:39:56.257Z</time></trkpt><trkpt lat="43.0834817" lon="13.2327733"><ele>665.0</ele><time>2026-04-18T09:39:57.257Z</time></trkpt><trkpt lat="43.0833883" lon="13.2327233"><ele>665.0</ele><time>2026-04-18T09:39:58.257Z</time></trkpt><trkpt lat="43.0832983" lon="13.232675"><ele>665.0</ele><time>2026-04-18T09:39:59.257Z</time></trkpt><trkpt lat="43.08321" lon="13.23263"><ele>665.0</ele><time>2026-04-18T09:40:00.257Z</time></trkpt><trkpt lat="43.0831183" lon="13.2326083"><ele>665.0</ele><time>2026-04-18T09:40:01.257Z</time></trkpt><trkpt lat="43.0830467" lon="13.2326233"><ele>665.0</ele><time>2026-04-18T09:40:02.257Z</time></trkpt><trkpt lat="43.0829667" lon="13.2326683"><ele>665.0</ele><time>2026-04-18T09:40:03.257Z</time></trkpt><trkpt lat="43.08287" lon="13.2327217"><ele>667.6</ele><time>2026-04-18T09:40:04.257Z</time></trkpt><trkpt lat="43.0827767" lon="13.2327783"><ele>670.2</ele><time>2026-04-18T09:40:05.257Z</time></trkpt><trkpt lat="43.0826867" lon="13.2328083"><ele>672.8</ele><time>2026-04-18T09:40:06.257Z</time></trkpt><trkpt lat="43.0825933" lon="13.2328183"><ele>675.4</ele><time>2026-04-18T09:40:07.257Z</time></trkpt><trkpt lat="43.0824883" lon="13.2328083"><ele>678.0</ele><time>2026-04-18T09:40:08.257Z</time></trkpt><trkpt lat="43.0823833" lon="13.2327933"><ele>679.4</ele><time>2026-04-18T09:40:09.257Z</time></trkpt><trkpt lat="43.0822967" lon="13.2327317"><ele>680.8</ele><time>2026-04-18T09:40:10.257Z</time></trkpt><trkpt lat="43.082225" lon="13.2326467"><ele>682.2</ele><time>2026-04-18T09:40:11.257Z</time></trkpt><trkpt lat="43.0821617" lon="13.2325633"><ele>683.6</ele><time>2026-04-18T09:40:12.256Z</time></trkpt><trkpt lat="43.0821" lon="13.2325267"><ele>685.0</ele><time>2026-04-18T09:40:13.257Z</time></trkpt><trkpt lat="43.08197" lon="13.2325567"><ele>685.0</ele><time>2026-04-18T09:40:15.257Z</time></trkpt><trkpt lat="43.08187" lon="13.232645"><ele>685.0</ele><time>2026-04-18T09:40:16.257Z</time></trkpt><trkpt lat="43.0817617" lon="13.2327433"><ele>685.0</ele><time>2026-04-18T09:40:17.257Z</time></trkpt><trkpt lat="43.0816533" lon="13.2328433"><ele>685.0</ele><time>2026-04-18T09:40:18.257Z</time></trkpt><trkpt lat="43.08153" lon="13.232925"><ele>686.0</ele><time>2026-04-18T09:40:19.256Z</time></trkpt><trkpt lat="43.0814017" lon="13.2329933"><ele>687.0</ele><time>2026-04-18T09:40:20.257Z</time></trkpt><trkpt lat="43.0812633" lon="13.233045"><ele>688.0</ele><time>2026-04-18T09:40:21.257Z</time></trkpt><trkpt lat="43.0811283" lon="13.2330817"><ele>689.0</ele><time>2026-04-18T09:40:22.257Z</time></trkpt><trkpt lat="43.0810117" lon="13.2331117"><ele>684.25</ele><time>2026-04-18T09:40:23.257Z</time></trkpt><trkpt lat="43.0808883" lon="13.23314"><ele>679.5</ele><time>2026-04-18T09:40:24.257Z</time></trkpt><trkpt lat="43.08077" lon="13.2331517"><ele>674.75</ele><time>2026-04-18T09:40:25.257Z</time></trkpt><trkpt lat="43.0806617" lon="13.23315"><ele>670.0</ele><time>2026-04-18T09:40:26.257Z</time></trkpt><trkpt lat="43.08056" lon="13.233175"><ele>668.4</ele><time>2026-04-18T09:40:27.257Z</time></trkpt><trkpt lat="43.0804633" lon="13.233225"><ele>666.8</ele><time>2026-04-18T09:40:28.257Z</time></trkpt><trkpt lat="43.0803733" lon="13.233305"><ele>665.2</ele><time>2026-04-18T09:40:29.257Z</time></trkpt><trkpt lat="43.0802783" lon="13.2333867"><ele>663.6</ele><time>2026-04-18T09:40:30.257Z</time></trkpt><trkpt lat="43.0801883" lon="13.2334433"><ele>662.0</ele><time>2026-04-18T09:40:31.257Z</time></trkpt><trkpt lat="43.0801133" lon="13.2334967"><ele>662.0</ele><time>2026-04-18T09:40:32.256Z</time></trkpt><trkpt lat="43.0800417" lon="13.233545"><ele>662.0</ele><time>2026-04-18T09:40:33.257Z</time></trkpt><trkpt lat="43.0799733" lon="13.233585"><ele>662.0</ele><time>2026-04-18T09:40:34.257Z</time></trkpt><trkpt lat="43.0798917" lon="13.2336"><ele>662.0</ele><time>2026-04-18T09:40:35.257Z</time></trkpt><trkpt lat="43.079805" lon="13.2335983"><ele>662.0</ele><time>2026-04-18T09:40:36.257Z</time></trkpt><trkpt lat="43.0797333" lon="13.2335783"><ele>662.0</ele><time>2026-04-18T09:40:37.257Z</time></trkpt><trkpt lat="43.0796733" lon="13.23355"><ele>658.5</ele><time>2026-04-18T09:40:38.257Z</time></trkpt><trkpt lat="43.0796017" lon="13.233505"><ele>655.0</ele><time>2026-04-18T09:40:40.257Z</time></trkpt><trkpt lat="43.079485" lon="13.2334833"><ele>651.5</ele><time>2026-04-18T09:41:08.257Z</time></trkpt><trkpt lat="43.079375" lon="13.2334517"><ele>648.0</ele><time>2026-04-18T09:41:10.257Z</time></trkpt><trkpt lat="43.0793133" lon="13.2334233"><ele>644.5</ele><time>2026-04-18T09:41:11.257Z</time></trkpt><trkpt lat="43.07925" lon="13.233395"><ele>641.0</ele><time>2026-04-18T09:41:12.257Z</time></trkpt><trkpt lat="43.0791867" lon="13.2333867"><ele>636.6666666666666</ele><time>2026-04-18T09:41:13.257Z</time></trkpt><trkpt lat="43.0790767" lon="13.2334017"><ele>632.3333333333333</ele><time>2026-04-18T09:41:15.257Z</time></trkpt><trkpt lat="43.0789633" lon="13.2334467"><ele>628.0</ele><time>2026-04-18T09:41:17.257Z</time></trkpt><trkpt lat="43.0789017" lon="13.233475"><ele>623.6666666666666</ele><time>2026-04-18T09:41:18.257Z</time></trkpt><trkpt lat="43.07883" lon="13.2335083"><ele>619.3333333333334</ele><time>2026-04-18T09:41:19.257Z</time></trkpt><trkpt lat="43.0787633" lon="13.23355"><ele>615.0</ele><time>2026-04-18T09:41:20.257Z</time></trkpt><trkpt lat="43.0786917" lon="13.2335867"><ele>615.0</ele><time>2026-04-18T09:41:21.256Z</time></trkpt><trkpt lat="43.0786233" lon="13.2336383"><ele>615.0</ele><time>2026-04-18T09:41:22.257Z</time></trkpt><trkpt lat="43.07855" lon="13.2337017"><ele>615.0</ele><time>2026-04-18T09:41:23.257Z</time></trkpt><trkpt lat="43.078485" lon="13.23378"><ele>615.0</ele><time>2026-04-18T09:41:24.257Z</time></trkpt><trkpt lat="43.0784167" lon="13.23386"><ele>615.0</ele><time>2026-04-18T09:41:25.257Z</time></trkpt><trkpt lat="43.0783533" lon="13.2339367"><ele>615.0</ele><time>2026-04-18T09:41:26.257Z</time></trkpt><trkpt lat="43.07829" lon="13.2340033"><ele>613.3333333333334</ele><time>2026-04-18T09:41:27.257Z</time></trkpt><trkpt lat="43.0782283" lon="13.2340717"><ele>611.6666666666666</ele><time>2026-04-18T09:41:28.257Z</time></trkpt><trkpt lat="43.07816" lon="13.23414"><ele>610.0</ele><time>2026-04-18T09:41:29.257Z</time></trkpt><trkpt lat="43.078095" lon="13.2341967"><ele>608.3333333333333</ele><time>2026-04-18T09:41:30.257Z</time></trkpt><trkpt lat="43.07803" lon="13.2342417"><ele>606.6666666666666</ele><time>2026-04-18T09:41:31.257Z</time></trkpt><trkpt lat="43.0779517" lon="13.2342833"><ele>605.0</ele><time>2026-04-18T09:41:32.257Z</time></trkpt><trkpt lat="43.0778633" lon="13.2343017"><ele>605.0</ele><time>2026-04-18T09:41:33.257Z</time></trkpt><trkpt lat="43.077775" lon="13.2342967"><ele>605.0</ele><time>2026-04-18T09:41:34.257Z</time></trkpt><trkpt lat="43.07769" lon="13.2342817"><ele>605.0</ele><time>2026-04-18T09:41:35.257Z</time></trkpt><trkpt lat="43.07761" lon="13.2342567"><ele>605.0</ele><time>2026-04-18T09:41:36.257Z</time></trkpt><trkpt lat="43.077535" lon="13.2342483"><ele>605.0</ele><time>2026-04-18T09:41:37.257Z</time></trkpt><trkpt lat="43.07746" lon="13.2342567"><ele>605.0</ele><time>2026-04-18T09:41:38.257Z</time></trkpt><trkpt lat="43.0773867" lon="13.2342933"><ele>601.3333333333333</ele><time>2026-04-18T09:41:39.257Z</time></trkpt><trkpt lat="43.07731" lon="13.2343567"><ele>597.6666666666666</ele><time>2026-04-18T09:41:40.257Z</time></trkpt><trkpt lat="43.07724" lon="13.2344267"><ele>594.0</ele><time>2026-04-18T09:41:41.257Z</time></trkpt><trkpt lat="43.077175" lon="13.2344983"><ele>590.3333333333334</ele><time>2026-04-18T09:41:42.257Z</time></trkpt><trkpt lat="43.0771033" lon="13.2345633"><ele>586.6666666666667</ele><time>2026-04-18T09:41:43.256Z</time></trkpt><trkpt lat="43.0770417" lon="13.2346317"><ele>583.0</ele><time>2026-04-18T09:41:44.257Z</time></trkpt><trkpt lat="43.0769883" lon="13.2347083"><ele>583.0</ele><time>2026-04-18T09:41:45.257Z</time></trkpt><trkpt lat="43.0769417" lon="13.2347817"><ele>583.0</ele><time>2026-04-18T09:41:46.257Z</time></trkpt><trkpt lat="43.0768967" lon="13.2348583"><ele>583.0</ele><time>2026-04-18T09:41:47.256Z</time></trkpt><trkpt lat="43.07685" lon="13.23493"><ele>583.0</ele><time>2026-04-18T09:41:48.257Z</time></trkpt><trkpt lat="43.0767933" lon="13.23499"><ele>583.0</ele><time>2026-04-18T09:41:49.257Z</time></trkpt><trkpt lat="43.076715" lon="13.2350367"><ele>583.0</ele><time>2026-04-18T09:41:50.257Z</time></trkpt><trkpt lat="43.0766267" lon="13.2350533"><ele>581.4</ele><time>2026-04-18T09:41:51.257Z</time></trkpt><trkpt lat="43.0765283" lon="13.2350433"><ele>579.8</ele><time>2026-04-18T09:41:52.257Z</time></trkpt><trkpt lat="43.0764283" lon="13.2350317"><ele>578.2</ele><time>2026-04-18T09:41:53.257Z</time></trkpt><trkpt lat="43.0763333" lon="13.2350283"><ele>576.6</ele><time>2026-04-18T09:41:54.257Z</time></trkpt><trkpt lat="43.0762333" lon="13.2350417"><ele>575.0</ele><time>2026-04-18T09:41:55.257Z</time></trkpt><trkpt lat="43.0761367" lon="13.2350567"><ele>575.0</ele><time>2026-04-18T09:41:56.257Z</time></trkpt><trkpt lat="43.0760383" lon="13.2350717"><ele>575.0</ele><time>2026-04-18T09:41:57.257Z</time></trkpt><trkpt lat="43.07593" lon="13.2350883"><ele>575.0</ele><time>2026-04-18T09:41:58.257Z</time></trkpt><trkpt lat="43.0758217" lon="13.23511"><ele>575.0</ele><time>2026-04-18T09:41:59.257Z</time></trkpt><trkpt lat="43.075725" lon="13.2351233"><ele>575.0</ele><time>2026-04-18T09:42:00.257Z</time></trkpt><trkpt lat="43.075635" lon="13.2351267"><ele>573.5714285714286</ele><time>2026-04-18T09:42:01.256Z</time></trkpt><trkpt lat="43.07556" lon="13.2350967"><ele>572.1428571428571</ele><time>2026-04-18T09:42:02.257Z</time></trkpt><trkpt lat="43.0755017" lon="13.235035"><ele>570.7142857142857</ele><time>2026-04-18T09:42:03.257Z</time></trkpt><trkpt lat="43.0754517" lon="13.2349467"><ele>569.2857142857142</ele><time>2026-04-18T09:42:04.257Z</time></trkpt><trkpt lat="43.075425" lon="13.23485"><ele>567.8571428571429</ele><time>2026-04-18T09:42:05.257Z</time></trkpt><trkpt lat="43.0754233" lon="13.2347583"><ele>566.4285714285713</ele><time>2026-04-18T09:42:06.257Z</time></trkpt><trkpt lat="43.075425" lon="13.2346617"><ele>565.0</ele><time>2026-04-18T09:42:07.257Z</time></trkpt><trkpt lat="43.0754433" lon="13.23456"><ele>561.1666666666667</ele><time>2026-04-18T09:42:08.257Z</time></trkpt><trkpt lat="43.075465" lon="13.23446"><ele>557.3333333333334</ele><time>2026-04-18T09:42:09.256Z</time></trkpt><trkpt lat="43.0754967" lon="13.23437"><ele>553.5</ele><time>2026-04-18T09:42:10.257Z</time></trkpt><trkpt lat="43.07553" lon="13.2342717"><ele>549.6666666666666</ele><time>2026-04-18T09:42:11.257Z</time></trkpt><trkpt lat="43.075575" lon="13.23419"><ele>545.8333333333333</ele><time>2026-04-18T09:42:12.257Z</time></trkpt><trkpt lat="43.07562" lon="13.2341033"><ele>542.0</ele><time>2026-04-18T09:42:13.257Z</time></trkpt><trkpt lat="43.0756667" lon="13.2340133"><ele>541.0</ele><time>2026-04-18T09:42:14.257Z</time></trkpt><trkpt lat="43.0757083" lon="13.2339367"><ele>540.0</ele><time>2026-04-18T09:42:15.257Z</time></trkpt><trkpt lat="43.0757517" lon="13.2338617"><ele>539.0</ele><time>2026-04-18T09:42:16.257Z</time></trkpt><trkpt lat="43.0757967" lon="13.2337833"><ele>538.0</ele><time>2026-04-18T09:42:17.257Z</time></trkpt><trkpt lat="43.0758483" lon="13.233715"><ele>537.0</ele><time>2026-04-18T09:42:18.257Z</time></trkpt><trkpt lat="43.0758967" lon="13.2336433"><ele>536.0</ele><time>2026-04-18T09:42:19.257Z</time></trkpt><trkpt lat="43.0759717" lon="13.23351"><ele>536.0</ele><time>2026-04-18T09:42:21.257Z</time></trkpt><trkpt lat="43.0760133" lon="13.233375"><ele>536.0</ele><time>2026-04-18T09:42:23.257Z</time></trkpt><trkpt lat="43.076005" lon="13.2332583"><ele>536.0</ele><time>2026-04-18T09:42:25.257Z</time></trkpt><trkpt lat="43.07594" lon="13.2331867"><ele>536.0</ele><time>2026-04-18T09:42:27.257Z</time></trkpt><trkpt lat="43.0758483" lon="13.2332133"><ele>536.0</ele><time>2026-04-18T09:42:29.256Z</time></trkpt><trkpt lat="43.0757417" lon="13.233285"><ele>536.0</ele><time>2026-04-18T09:42:31.257Z</time></trkpt><trkpt lat="43.0756413" lon="13.2333544"><ele>536.0</ele><time>2026-04-18T09:42:33.257Z</time></trkpt><trkpt lat="43.0755496" lon="13.2334123"><ele>536.0</ele><time>2026-04-18T09:42:35.257Z</time></trkpt><trkpt lat="43.0754641" lon="13.2334454"><ele>536.0</ele><time>2026-04-18T09:42:37.257Z</time></trkpt><trkpt lat="43.0753658" lon="13.233456"><ele>536.0</ele><time>2026-04-18T09:42:39.257Z</time></trkpt><trkpt lat="43.0752724" lon="13.2334515"><ele>536.0</ele><time>2026-04-18T09:42:41.257Z</time></trkpt><trkpt lat="43.0751827" lon="13.2334632"><ele>536.0</ele><time>2026-04-18T09:42:43.257Z</time></trkpt><trkpt lat="43.0750796" lon="13.2334911"><ele>536.0</ele><time>2026-04-18T09:42:45.257Z</time></trkpt><trkpt lat="43.0749779" lon="13.2335513"><ele>536.0</ele><time>2026-04-18T09:42:47.256Z</time></trkpt><trkpt lat="43.0748822" lon="13.2336285"><ele>536.0</ele><time>2026-04-18T09:42:49.257Z</time></trkpt><trkpt lat="43.0747787" lon="13.2336879"><ele>534.2</ele><time>2026-04-18T09:42:51.257Z</time></trkpt><trkpt lat="43.0746673" lon="13.233717"><ele>532.4000000000001</ele><time>2026-04-18T09:42:53.257Z</time></trkpt><trkpt lat="43.0745632" lon="13.233745"><ele>530.6</ele><time>2026-04-18T09:42:55.257Z</time></trkpt><trkpt lat="43.0744642" lon="13.2337933"><ele>528.8000000000001</ele><time>2026-04-18T09:42:57.257Z</time></trkpt><trkpt lat="43.074395" lon="13.2338169"><ele>527.0</ele><time>2026-04-18T09:42:58.257Z</time></trkpt><trkpt lat="43.0743211" lon="13.2338331"><ele>527.0</ele><time>2026-04-18T09:42:59.257Z</time></trkpt><trkpt lat="43.0742505" lon="13.2338543"><ele>527.0</ele><time>2026-04-18T09:43:00.257Z</time></trkpt><trkpt lat="43.0741802" lon="13.2338875"><ele>527.0</ele><time>2026-04-18T09:43:01.257Z</time></trkpt><trkpt lat="43.0741008" lon="13.2339395"><ele>527.0</ele><time>2026-04-18T09:43:02.257Z</time></trkpt><trkpt lat="43.0740253" lon="13.2340195"><ele>527.0</ele><time>2026-04-18T09:43:03.257Z</time></trkpt><trkpt lat="43.0739472" lon="13.2341096"><ele>527.0</ele><time>2026-04-18T09:43:04.257Z</time></trkpt><trkpt lat="43.07387" lon="13.234202"><ele>521.1666666666666</ele><time>2026-04-18T09:43:05.257Z</time></trkpt><trkpt lat="43.0737961" lon="13.2342871"><ele>515.3333333333333</ele><time>2026-04-18T09:43:06.257Z</time></trkpt><trkpt lat="43.0737244" lon="13.2343643"><ele>509.5</ele><time>2026-04-18T09:43:07.257Z</time></trkpt><trkpt lat="43.073647" lon="13.2344205"><ele>503.66666666666663</ele><time>2026-04-18T09:43:08.257Z</time></trkpt><trkpt lat="43.0735709" lon="13.234467"><ele>497.8333333333333</ele><time>2026-04-18T09:43:09.257Z</time></trkpt><trkpt lat="43.0735101" lon="13.234512"><ele>492.0</ele><time>2026-04-18T09:43:10.257Z</time></trkpt><trkpt lat="43.0734406" lon="13.2345475"><ele>492.00000000000006</ele><time>2026-04-18T09:43:11.257Z</time></trkpt><trkpt lat="43.0733915" lon="13.2346022"><ele>492.0</ele><time>2026-04-18T09:43:12.257Z</time></trkpt><trkpt lat="43.0733277" lon="13.2346553"><ele>492.00000000000006</ele><time>2026-04-18T09:43:13.257Z</time></trkpt><trkpt lat="43.0732708" lon="13.2347288"><ele>492.00000000000006</ele><time>2026-04-18T09:43:14.257Z</time></trkpt><trkpt lat="43.0732333" lon="13.2348217"><ele>492.0</ele><time>2026-04-18T09:43:15.257Z</time></trkpt><trkpt lat="43.0732083" lon="13.23491"><ele>492.00000000000006</ele><time>2026-04-18T09:43:16.257Z</time></trkpt><trkpt lat="43.073185" lon="13.2350033"><ele>492.00000000000006</ele><time>2026-04-18T09:43:17.257Z</time></trkpt><trkpt lat="43.07317" lon="13.2350883"><ele>488.6</ele><time>2026-04-18T09:43:18.257Z</time></trkpt><trkpt lat="43.0731533" lon="13.235245"><ele>485.20000000000005</ele><time>2026-04-18T09:43:20.257Z</time></trkpt><trkpt lat="43.0731367" lon="13.23537"><ele>481.8</ele><time>2026-04-18T09:43:22.257Z</time></trkpt><trkpt lat="43.0731417" lon="13.2355167"><ele>478.4</ele><time>2026-04-18T09:43:24.257Z</time></trkpt><trkpt lat="43.0731333" lon="13.2356983"><ele>475.0</ele><time>2026-04-18T09:43:26.257Z</time></trkpt><trkpt lat="43.0731133" lon="13.2358067"><ele>474.5714285714286</ele><time>2026-04-18T09:43:27.257Z</time></trkpt><trkpt lat="43.073095" lon="13.2359183"><ele>474.1428571428572</ele><time>2026-04-18T09:43:28.257Z</time></trkpt><trkpt lat="43.0730883" lon="13.2360217"><ele>473.7142857142857</ele><time>2026-04-18T09:43:29.257Z</time></trkpt><trkpt lat="43.07308" lon="13.2361317"><ele>473.28571428571433</ele><time>2026-04-18T09:43:30.257Z</time></trkpt><trkpt lat="43.0730767" lon="13.2362317"><ele>472.8571428571429</ele><time>2026-04-18T09:43:31.257Z</time></trkpt><trkpt lat="43.0730783" lon="13.2363217"><ele>472.42857142857144</ele><time>2026-04-18T09:43:32.257Z</time></trkpt><trkpt lat="43.07309" lon="13.236415"><ele>472.0</ele><time>2026-04-18T09:43:33.256Z</time></trkpt><trkpt lat="43.0731167" lon="13.2365117"><ele>472.0</ele><time>2026-04-18T09:43:34.257Z</time></trkpt><trkpt lat="43.0731483" lon="13.2365967"><ele>472.0</ele><time>2026-04-18T09:43:35.256Z</time></trkpt><trkpt lat="43.0731817" lon="13.2366767"><ele>472.0</ele><time>2026-04-18T09:43:36.257Z</time></trkpt><trkpt lat="43.0732217" lon="13.236755"><ele>472.0</ele><time>2026-04-18T09:43:37.257Z</time></trkpt><trkpt lat="43.0732617" lon="13.23683"><ele>472.0</ele><time>2026-04-18T09:43:38.257Z</time></trkpt><trkpt lat="43.0732933" lon="13.2369067"><ele>472.0</ele><time>2026-04-18T09:43:39.256Z</time></trkpt><trkpt lat="43.07333" lon="13.2369883"><ele>472.0</ele><time>2026-04-18T09:43:40.257Z</time></trkpt><trkpt lat="43.0733467" lon="13.237075"><ele>472.50000000000006</ele><time>2026-04-18T09:43:41.257Z</time></trkpt><trkpt lat="43.073335" lon="13.2372233"><ele>473.0</ele><time>2026-04-18T09:43:43.257Z</time></trkpt><trkpt lat="43.0732967" lon="13.2373733"><ele>473.5</ele><time>2026-04-18T09:43:45.257Z</time></trkpt><trkpt lat="43.0732633" lon="13.2374517"><ele>474.0</ele><time>2026-04-18T09:43:46.257Z</time></trkpt><trkpt lat="43.0732133" lon="13.2375267"><ele>474.50000000000006</ele><time>2026-04-18T09:43:47.257Z</time></trkpt><trkpt lat="43.07315" lon="13.2375933"><ele>475.0</ele><time>2026-04-18T09:43:48.257Z</time></trkpt><trkpt lat="43.0730783" lon="13.23765"><ele>475.83333333333337</ele><time>2026-04-18T09:43:49.257Z</time></trkpt><trkpt lat="43.0729983" lon="13.237695"><ele>476.6666666666667</ele><time>2026-04-18T09:43:50.257Z</time></trkpt><trkpt lat="43.072915" lon="13.2377283"><ele>477.5</ele><time>2026-04-18T09:43:51.257Z</time></trkpt><trkpt lat="43.07284" lon="13.2377467"><ele>478.33333333333337</ele><time>2026-04-18T09:43:52.257Z</time></trkpt><trkpt lat="43.072735" lon="13.2377533"><ele>479.1666666666667</ele><time>2026-04-18T09:43:54.257Z</time></trkpt><trkpt lat="43.0726817" lon="13.237705"><ele>480.0</ele><time>2026-04-18T09:43:56.257Z</time></trkpt><trkpt lat="43.072665" lon="13.2375983"><ele>480.0</ele><time>2026-04-18T09:43:58.257Z</time></trkpt><trkpt lat="43.0726867" lon="13.2374467"><ele>480.0</ele><time>2026-04-18T09:44:00.257Z</time></trkpt><trkpt lat="43.0727067" lon="13.2373067"><ele>480.0</ele><time>2026-04-18T09:44:02.257Z</time></trkpt><trkpt lat="43.0727117" lon="13.2372067"><ele>480.0</ele><time>2026-04-18T09:44:04.257Z</time></trkpt><trkpt lat="43.0726517" lon="13.2371767"><ele>480.0</ele><time>2026-04-18T09:44:08.257Z</time></trkpt><trkpt lat="43.0725967" lon="13.2372667"><ele>480.0</ele><time>2026-04-18T09:44:11.257Z</time></trkpt><trkpt lat="43.072565" lon="13.2373817"><ele>480.0</ele><time>2026-04-18T09:44:13.257Z</time></trkpt><trkpt lat="43.07252" lon="13.2374683"><ele>480.0</ele><time>2026-04-18T09:44:15.257Z</time></trkpt><trkpt lat="43.0724533" lon="13.2375317"><ele>480.0</ele><time>2026-04-18T09:44:17.257Z</time></trkpt><trkpt lat="43.072375" lon="13.2376067"><ele>480.0</ele><time>2026-04-18T09:44:19.257Z</time></trkpt><trkpt lat="43.0722883" lon="13.23767"><ele>480.0</ele><time>2026-04-18T09:44:21.257Z</time></trkpt><trkpt lat="43.0722133" lon="13.2377367"><ele>480.0</ele><time>2026-04-18T09:44:23.257Z</time></trkpt><trkpt lat="43.072125" lon="13.2377717"><ele>488.6666666666667</ele><time>2026-04-18T09:44:25.257Z</time></trkpt><trkpt lat="43.0720667" lon="13.2377083"><ele>497.33333333333337</ele><time>2026-04-18T09:44:27.257Z</time></trkpt><trkpt lat="43.0720617" lon="13.2375933"><ele>506.0</ele><time>2026-04-18T09:44:29.257Z</time></trkpt><trkpt lat="43.0720867" lon="13.237435"><ele>514.6666666666667</ele><time>2026-04-18T09:44:31.257Z</time></trkpt><trkpt lat="43.0721" lon="13.23734"><ele>523.3333333333334</ele><time>2026-04-18T09:44:32.257Z</time></trkpt><trkpt lat="43.07211" lon="13.2372333"><ele>532.0</ele><time>2026-04-18T09:44:33.257Z</time></trkpt><trkpt lat="43.07211" lon="13.2371317"><ele>531.3333333333334</ele><time>2026-04-18T09:44:34.257Z</time></trkpt><trkpt lat="43.0721017" lon="13.2370267"><ele>530.6666666666667</ele><time>2026-04-18T09:44:35.257Z</time></trkpt><trkpt lat="43.0720883" lon="13.2369117"><ele>530.0</ele><time>2026-04-18T09:44:36.257Z</time></trkpt><trkpt lat="43.072075" lon="13.2367917"><ele>529.3333333333334</ele><time>2026-04-18T09:44:37.257Z</time></trkpt><trkpt lat="43.072065" lon="13.2366733"><ele>528.6666666666666</ele><time>2026-04-18T09:44:38.257Z</time></trkpt><trkpt lat="43.0720517" lon="13.2365517"><ele>528.0</ele><time>2026-04-18T09:44:39.257Z</time></trkpt><trkpt lat="43.07203" lon="13.2364483"><ele>528.0</ele><time>2026-04-18T09:44:40.257Z</time></trkpt><trkpt lat="43.0720083" lon="13.2363633"><ele>528.0</ele><time>2026-04-18T09:44:41.257Z</time></trkpt><trkpt lat="43.0719717" lon="13.2362483"><ele>528.0</ele><time>2026-04-18T09:44:43.257Z</time></trkpt><trkpt lat="43.0718967" lon="13.23618"><ele>528.0</ele><time>2026-04-18T09:44:46.257Z</time></trkpt><trkpt lat="43.0718467" lon="13.23627"><ele>528.0</ele><time>2026-04-18T09:44:49.257Z</time></trkpt><trkpt lat="43.0718333" lon="13.2363767"><ele>528.0</ele><time>2026-04-18T09:44:51.257Z</time></trkpt><trkpt lat="43.0718482" lon="13.2364927"><ele>529.8</ele><time>2026-04-18T09:44:53.257Z</time></trkpt><trkpt lat="43.0718061" lon="13.2366586"><ele>531.5999999999999</ele><time>2026-04-18T09:44:55.257Z</time></trkpt><trkpt lat="43.071778" lon="13.2367555"><ele>533.4000000000001</ele><time>2026-04-18T09:44:56.257Z</time></trkpt><trkpt lat="43.0717456" lon="13.2368634"><ele>535.2</ele><time>2026-04-18T09:44:57.257Z</time></trkpt><trkpt lat="43.0717156" lon="13.2369748"><ele>537.0</ele><time>2026-04-18T09:44:58.257Z</time></trkpt><trkpt lat="43.0716881" lon="13.2370817"><ele>537.0</ele><time>2026-04-18T09:44:59.257Z</time></trkpt><trkpt lat="43.0716577" lon="13.2371849"><ele>537.0</ele><time>2026-04-18T09:45:00.257Z</time></trkpt><trkpt lat="43.0716316" lon="13.2372919"><ele>537.0</ele><time>2026-04-18T09:45:01.257Z</time></trkpt><trkpt lat="43.071609" lon="13.2373966"><ele>537.0</ele><time>2026-04-18T09:45:02.257Z</time></trkpt><trkpt lat="43.0715896" lon="13.2374933"><ele>537.0</ele><time>2026-04-18T09:45:03.257Z</time></trkpt><trkpt lat="43.0715676" lon="13.2375978"><ele>537.0</ele><time>2026-04-18T09:45:04.257Z</time></trkpt><trkpt lat="43.0715373" lon="13.2377132"><ele>544.2</ele><time>2026-04-18T09:45:05.257Z</time></trkpt><trkpt lat="43.071494" lon="13.2378302"><ele>551.4000000000001</ele><time>2026-04-18T09:45:06.257Z</time></trkpt><trkpt lat="43.0714482" lon="13.2379499"><ele>558.5999999999999</ele><time>2026-04-18T09:45:07.257Z</time></trkpt><trkpt lat="43.0713939" lon="13.2380737"><ele>565.8</ele><time>2026-04-18T09:45:08.257Z</time></trkpt><trkpt lat="43.0713307" lon="13.2381879"><ele>573.0</ele><time>2026-04-18T09:45:09.257Z</time></trkpt><trkpt lat="43.0712757" lon="13.2382977"><ele>573.0</ele><time>2026-04-18T09:45:10.257Z</time></trkpt><trkpt lat="43.0712269" lon="13.2384032"><ele>573.0</ele><time>2026-04-18T09:45:11.257Z</time></trkpt><trkpt lat="43.0711866" lon="13.2384972"><ele>573.0</ele><time>2026-04-18T09:45:12.257Z</time></trkpt><trkpt lat="43.0711455" lon="13.2386118"><ele>573.0</ele><time>2026-04-18T09:45:14.257Z</time></trkpt><trkpt lat="43.0711129" lon="13.2386878"><ele>573.0</ele><time>2026-04-18T09:45:16.257Z</time></trkpt><trkpt lat="43.0710317" lon="13.2387"><ele>573.0</ele><time>2026-04-18T09:45:24.257Z</time></trkpt><trkpt lat="43.0710133" lon="13.238595"><ele>573.0</ele><time>2026-04-18T09:45:26.257Z</time></trkpt><trkpt lat="43.0710433" lon="13.23844"><ele>573.0</ele><time>2026-04-18T09:45:28.257Z</time></trkpt><trkpt lat="43.07106" lon="13.23835"><ele>573.0</ele><time>2026-04-18T09:45:29.257Z</time></trkpt><trkpt lat="43.0710767" lon="13.23826"><ele>573.0</ele><time>2026-04-18T09:45:30.257Z</time></trkpt><trkpt lat="43.07109" lon="13.23816"><ele>573.0</ele><time>2026-04-18T09:45:31.257Z</time></trkpt><trkpt lat="43.07109" lon="13.2380567"><ele>573.0</ele><time>2026-04-18T09:45:32.257Z</time></trkpt><trkpt lat="43.0710833" lon="13.2379533"><ele>576.1999999999999</ele><time>2026-04-18T09:45:33.257Z</time></trkpt><trkpt lat="43.0710733" lon="13.2378383"><ele>579.4</ele><time>2026-04-18T09:45:34.257Z</time></trkpt><trkpt lat="43.0710617" lon="13.2377117"><ele>582.5999999999999</ele><time>2026-04-18T09:45:35.257Z</time></trkpt><trkpt lat="43.0710517" lon="13.237565"><ele>585.8</ele><time>2026-04-18T09:45:36.257Z</time></trkpt><trkpt lat="43.0710333" lon="13.2374033"><ele>589.0</ele><time>2026-04-18T09:45:37.257Z</time></trkpt><trkpt lat="43.071025" lon="13.2372333"><ele>590.0</ele><time>2026-04-18T09:45:38.257Z</time></trkpt><trkpt lat="43.0710133" lon="13.2370667"><ele>591.0</ele><time>2026-04-18T09:45:39.257Z</time></trkpt><trkpt lat="43.0710083" lon="13.2369067"><ele>592.0</ele><time>2026-04-18T09:45:40.257Z</time></trkpt><trkpt lat="43.0709967" lon="13.2367617"><ele>593.0</ele><time>2026-04-18T09:45:41.257Z</time></trkpt><trkpt lat="43.0709917" lon="13.236625"><ele>594.0</ele><time>2026-04-18T09:45:42.257Z</time></trkpt><trkpt lat="43.0709883" lon="13.2364983"><ele>594.1666666666666</ele><time>2026-04-18T09:45:43.257Z</time></trkpt><trkpt lat="43.0709833" lon="13.2363683"><ele>594.3333333333334</ele><time>2026-04-18T09:45:44.257Z</time></trkpt><trkpt lat="43.0709783" lon="13.23624"><ele>594.5</ele><time>2026-04-18T09:45:45.257Z</time></trkpt><trkpt lat="43.0709733" lon="13.2361283"><ele>594.6666666666667</ele><time>2026-04-18T09:45:46.257Z</time></trkpt><trkpt lat="43.07095" lon="13.2360183"><ele>594.8333333333334</ele><time>2026-04-18T09:45:47.257Z</time></trkpt><trkpt lat="43.070925" lon="13.235915"><ele>595.0</ele><time>2026-04-18T09:45:48.257Z</time></trkpt><trkpt lat="43.0708933" lon="13.235815"><ele>595.0</ele><time>2026-04-18T09:45:49.257Z</time></trkpt><trkpt lat="43.0708533" lon="13.2357283"><ele>595.0</ele><time>2026-04-18T09:45:50.257Z</time></trkpt><trkpt lat="43.0707733" lon="13.23557"><ele>595.0</ele><time>2026-04-18T09:45:52.257Z</time></trkpt><trkpt lat="43.070725" lon="13.2354817"><ele>595.0</ele><time>2026-04-18T09:45:53.257Z</time></trkpt><trkpt lat="43.0706833" lon="13.235395"><ele>595.0</ele><time>2026-04-18T09:45:54.257Z</time></trkpt><trkpt lat="43.070645" lon="13.2353"><ele>598.5</ele><time>2026-04-18T09:45:55.257Z</time></trkpt><trkpt lat="43.0706033" lon="13.2352"><ele>602.0</ele><time>2026-04-18T09:45:56.257Z</time></trkpt><trkpt lat="43.0705667" lon="13.2351033"><ele>605.5</ele><time>2026-04-18T09:45:57.257Z</time></trkpt><trkpt lat="43.0705367" lon="13.23501"><ele>609.0</ele><time>2026-04-18T09:45:58.257Z</time></trkpt><trkpt lat="43.0704917" lon="13.23492"><ele>612.5</ele><time>2026-04-18T09:45:59.257Z</time></trkpt><trkpt lat="43.0704467" lon="13.2348383"><ele>616.0</ele><time>2026-04-18T09:46:00.257Z</time></trkpt><trkpt lat="43.0703917" lon="13.2347667"><ele>616.0</ele><time>2026-04-18T09:46:01.257Z</time></trkpt><trkpt lat="43.070325" lon="13.2347033"><ele>616.0</ele><time>2026-04-18T09:46:02.257Z</time></trkpt><trkpt lat="43.07025" lon="13.2346583"><ele>616.0</ele><time>2026-04-18T09:46:03.257Z</time></trkpt><trkpt lat="43.0701783" lon="13.2346283"><ele>616.0</ele><time>2026-04-18T09:46:04.257Z</time></trkpt><trkpt lat="43.0700967" lon="13.2346083"><ele>616.0</ele><time>2026-04-18T09:46:05.257Z</time></trkpt><trkpt lat="43.0700167" lon="13.23461"><ele>616.0</ele><time>2026-04-18T09:46:06.257Z</time></trkpt><trkpt lat="43.069935" lon="13.2346283"><ele>620.8</ele><time>2026-04-18T09:46:07.257Z</time></trkpt><trkpt lat="43.0698433" lon="13.2346333"><ele>625.6</ele><time>2026-04-18T09:46:08.257Z</time></trkpt><trkpt lat="43.0697433" lon="13.2346317"><ele>630.4</ele><time>2026-04-18T09:46:09.257Z</time></trkpt><trkpt lat="43.0696433" lon="13.2346217"><ele>635.2</ele><time>2026-04-18T09:46:10.257Z</time></trkpt><trkpt lat="43.0695417" lon="13.23459"><ele>640.0</ele><time>2026-04-18T09:46:11.257Z</time></trkpt><trkpt lat="43.0694433" lon="13.23454"><ele>640.0</ele><time>2026-04-18T09:46:12.257Z</time></trkpt><trkpt lat="43.0693567" lon="13.2345"><ele>640.0</ele><time>2026-04-18T09:46:13.257Z</time></trkpt><trkpt lat="43.0692733" lon="13.23447"><ele>640.0</ele><time>2026-04-18T09:46:14.257Z</time></trkpt><trkpt lat="43.069205" lon="13.2344217"><ele>640.0</ele><time>2026-04-18T09:46:15.257Z</time></trkpt><trkpt lat="43.0691467" lon="13.2343"><ele>640.0</ele><time>2026-04-18T09:46:17.257Z</time></trkpt><trkpt lat="43.0691483" lon="13.23421"><ele>640.0</ele><time>2026-04-18T09:46:18.257Z</time></trkpt><trkpt lat="43.069155" lon="13.2341033"><ele>640.0</ele><time>2026-04-18T09:46:19.257Z</time></trkpt><trkpt lat="43.0691517" lon="13.233995"><ele>640.0</ele><time>2026-04-18T09:46:20.257Z</time></trkpt><trkpt lat="43.06914" lon="13.2338917"><ele>640.0</ele><time>2026-04-18T09:46:21.257Z</time></trkpt><trkpt lat="43.069105" lon="13.23381"><ele>640.0</ele><time>2026-04-18T09:46:22.257Z</time></trkpt><trkpt lat="43.069055" lon="13.233725"><ele>640.0</ele><time>2026-04-18T09:46:23.257Z</time></trkpt><trkpt lat="43.0689883" lon="13.23364"><ele>640.0</ele><time>2026-04-18T09:46:24.257Z</time></trkpt><trkpt lat="43.0689" lon="13.2335467"><ele>644.8</ele><time>2026-04-18T09:46:25.257Z</time></trkpt><trkpt lat="43.068805" lon="13.2334483"><ele>649.6</ele><time>2026-04-18T09:46:26.257Z</time></trkpt><trkpt lat="43.0687183" lon="13.233355"><ele>654.4000000000001</ele><time>2026-04-18T09:46:27.257Z</time></trkpt><trkpt lat="43.0686483" lon="13.233275"><ele>659.2</ele><time>2026-04-18T09:46:28.257Z</time></trkpt><trkpt lat="43.0686067" lon="13.2332017"><ele>664.0</ele><time>2026-04-18T09:46:29.257Z</time></trkpt><trkpt lat="43.0685883" lon="13.2330767"><ele>665.1666666666667</ele><time>2026-04-18T09:46:31.257Z</time></trkpt><trkpt lat="43.0686183" lon="13.23293"><ele>666.3333333333334</ele><time>2026-04-18T09:46:33.257Z</time></trkpt><trkpt lat="43.06866" lon="13.232865"><ele>667.5</ele><time>2026-04-18T09:46:34.257Z</time></trkpt><trkpt lat="43.0687283" lon="13.232815"><ele>668.6666666666666</ele><time>2026-04-18T09:46:35.257Z</time></trkpt><trkpt lat="43.068795" lon="13.2327867"><ele>669.8333333333333</ele><time>2026-04-18T09:46:36.257Z</time></trkpt><trkpt lat="43.0688717" lon="13.2327883"><ele>671.0</ele><time>2026-04-18T09:46:37.257Z</time></trkpt><trkpt lat="43.0689383" lon="13.232785"><ele>671.0</ele><time>2026-04-18T09:46:38.257Z</time></trkpt><trkpt lat="43.0690133" lon="13.23272"><ele>671.0</ele><time>2026-04-18T09:46:40.257Z</time></trkpt><trkpt lat="43.068975" lon="13.2326183"><ele>671.0</ele><time>2026-04-18T09:46:43.257Z</time></trkpt><trkpt lat="43.0689" lon="13.232595"><ele>671.0</ele><time>2026-04-18T09:46:45.257Z</time></trkpt><trkpt lat="43.0688117" lon="13.2325683"><ele>671.0</ele><time>2026-04-18T09:46:47.257Z</time></trkpt><trkpt lat="43.0687467" lon="13.23257"><ele>671.0</ele><time>2026-04-18T09:46:48.257Z</time></trkpt><trkpt lat="43.06866" lon="13.23258"><ele>671.0</ele><time>2026-04-18T09:46:49.257Z</time></trkpt><trkpt lat="43.0685683" lon="13.2325733"><ele>671.0</ele><time>2026-04-18T09:46:50.257Z</time></trkpt><trkpt lat="43.06846" lon="13.23255"><ele>671.0</ele><time>2026-04-18T09:46:51.257Z</time></trkpt><trkpt lat="43.0683383" lon="13.232535"><ele>671.0</ele><time>2026-04-18T09:46:52.257Z</time></trkpt><trkpt lat="43.068225" lon="13.23255"><ele>671.0</ele><time>2026-04-18T09:46:53.256Z</time></trkpt><trkpt lat="43.0681217" lon="13.23259"><ele>675.0</ele><time>2026-04-18T09:46:54.257Z</time></trkpt><trkpt lat="43.06804" lon="13.2326583"><ele>679.0</ele><time>2026-04-18T09:46:55.257Z</time></trkpt><trkpt lat="43.0679683" lon="13.2327567"><ele>683.0</ele><time>2026-04-18T09:46:56.257Z</time></trkpt><trkpt lat="43.0679283" lon="13.23286"><ele>687.0</ele><time>2026-04-18T09:46:57.257Z</time></trkpt><trkpt lat="43.06791" lon="13.2329833"><ele>691.0</ele><time>2026-04-18T09:46:58.257Z</time></trkpt><trkpt lat="43.0679" lon="13.2331167"><ele>690.1999999999999</ele><time>2026-04-18T09:46:59.257Z</time></trkpt><trkpt lat="43.0678867" lon="13.2332383"><ele>689.4</ele><time>2026-04-18T09:47:00.257Z</time></trkpt><trkpt lat="43.0678617" lon="13.23336"><ele>688.6</ele><time>2026-04-18T09:47:01.257Z</time></trkpt><trkpt lat="43.0678167" lon="13.2334767"><ele>687.8</ele><time>2026-04-18T09:47:02.257Z</time></trkpt><trkpt lat="43.067745" lon="13.2335983"><ele>687.0</ele><time>2026-04-18T09:47:03.257Z</time></trkpt><trkpt lat="43.0676717" lon="13.2337283"><ele>687.0</ele><time>2026-04-18T09:47:04.257Z</time></trkpt><trkpt lat="43.0675967" lon="13.2338683"><ele>687.0</ele><time>2026-04-18T09:47:05.257Z</time></trkpt><trkpt lat="43.067525" lon="13.2340083"><ele>687.0</ele><time>2026-04-18T09:47:06.257Z</time></trkpt><trkpt lat="43.0674533" lon="13.234135"><ele>687.0</ele><time>2026-04-18T09:47:07.257Z</time></trkpt><trkpt lat="43.0674" lon="13.23425"><ele>687.6666666666666</ele><time>2026-04-18T09:47:08.257Z</time></trkpt><trkpt lat="43.0673583" lon="13.2343667"><ele>688.3333333333334</ele><time>2026-04-18T09:47:09.257Z</time></trkpt><trkpt lat="43.0673383" lon="13.2344733"><ele>689.0</ele><time>2026-04-18T09:47:10.257Z</time></trkpt><trkpt lat="43.0673167" lon="13.234565"><ele>689.6666666666667</ele><time>2026-04-18T09:47:11.257Z</time></trkpt><trkpt lat="43.067255" lon="13.2346833"><ele>690.3333333333334</ele><time>2026-04-18T09:47:13.257Z</time></trkpt><trkpt lat="43.0671967" lon="13.234755"><ele>691.0</ele><time>2026-04-18T09:47:15.257Z</time></trkpt><trkpt lat="43.0670667" lon="13.23471"><ele>691.0</ele><time>2026-04-18T09:55:51.256Z</time></trkpt><trkpt lat="43.0670083" lon="13.2345733"><ele>691.0</ele><time>2026-04-18T09:55:53.256Z</time></trkpt><trkpt lat="43.0669617" lon="13.2344667"><ele>691.0</ele><time>2026-04-18T09:55:54.256Z</time></trkpt><trkpt lat="43.066905" lon="13.23436"><ele>691.0</ele><time>2026-04-18T09:55:55.256Z</time></trkpt><trkpt lat="43.06684" lon="13.234265"><ele>691.0</ele><time>2026-04-18T09:55:56.256Z</time></trkpt><trkpt lat="43.0667833" lon="13.23417"><ele>691.0</ele><time>2026-04-18T09:55:57.256Z</time></trkpt><trkpt lat="43.0667317" lon="13.2340717"><ele>691.0</ele><time>2026-04-18T09:55:58.256Z</time></trkpt><trkpt lat="43.0666717" lon="13.2339767"><ele>691.0</ele><time>2026-04-18T09:55:59.256Z</time></trkpt><trkpt lat="43.0666067" lon="13.2338817"><ele>691.0</ele><time>2026-04-18T09:56:00.256Z</time></trkpt><trkpt lat="43.0665267" lon="13.2338067"><ele>691.0</ele><time>2026-04-18T09:56:01.256Z</time></trkpt><trkpt lat="43.0664267" lon="13.23376"><ele>698.0</ele><time>2026-04-18T09:56:02.256Z</time></trkpt><trkpt lat="43.0663" lon="13.2337467"><ele>705.0</ele><time>2026-04-18T09:56:03.256Z</time></trkpt><trkpt lat="43.0661633" lon="13.233765"><ele>712.0</ele><time>2026-04-18T09:56:04.256Z</time></trkpt><trkpt lat="43.06605" lon="13.23377"><ele>719.0</ele><time>2026-04-18T09:56:05.256Z</time></trkpt><trkpt lat="43.0659633" lon="13.233775"><ele>719.0</ele><time>2026-04-18T09:56:06.256Z</time></trkpt><trkpt lat="43.0658983" lon="13.2337683"><ele>719.0</ele><time>2026-04-18T09:56:07.256Z</time></trkpt><trkpt lat="43.0658333" lon="13.2336883"><ele>719.0</ele><time>2026-04-18T09:56:09.256Z</time></trkpt><trkpt lat="43.0658717" lon="13.23352"><ele>719.0</ele><time>2026-04-18T09:56:11.256Z</time></trkpt><trkpt lat="43.0659117" lon="13.2334317"><ele>719.0</ele><time>2026-04-18T09:56:12.256Z</time></trkpt><trkpt lat="43.0659483" lon="13.2333433"><ele>719.0</ele><time>2026-04-18T09:56:13.256Z</time></trkpt><trkpt lat="43.0659817" lon="13.2332567"><ele>719.0</ele><time>2026-04-18T09:56:14.256Z</time></trkpt><trkpt lat="43.06602" lon="13.2331733"><ele>719.0</ele><time>2026-04-18T09:56:15.256Z</time></trkpt><trkpt lat="43.0660533" lon="13.2330983"><ele>719.0</ele><time>2026-04-18T09:56:16.256Z</time></trkpt><trkpt lat="43.0660967" lon="13.232965"><ele>719.0</ele><time>2026-04-18T09:56:18.256Z</time></trkpt><trkpt lat="43.0661517" lon="13.23282"><ele>719.0</ele><time>2026-04-18T09:56:20.256Z</time></trkpt><trkpt lat="43.066195" lon="13.23274"><ele>719.0</ele><time>2026-04-18T09:56:21.256Z</time></trkpt><trkpt lat="43.0662483" lon="13.2326567"><ele>721.2</ele><time>2026-04-18T09:56:22.256Z</time></trkpt><trkpt lat="43.06631" lon="13.2325567"><ele>723.4000000000001</ele><time>2026-04-18T09:56:23.256Z</time></trkpt><trkpt lat="43.06637" lon="13.2324483"><ele>725.6</ele><time>2026-04-18T09:56:24.256Z</time></trkpt><trkpt lat="43.06644" lon="13.2323383"><ele>727.8</ele><time>2026-04-18T09:56:25.256Z</time></trkpt><trkpt lat="43.0665067" lon="13.232235"><ele>730.0</ele><time>2026-04-18T09:56:26.256Z</time></trkpt><trkpt lat="43.06657" lon="13.232145"><ele>729.5</ele><time>2026-04-18T09:56:27.255Z</time></trkpt><trkpt lat="43.0666217" lon="13.2320733"><ele>729.0</ele><time>2026-04-18T09:56:28.256Z</time></trkpt><trkpt lat="43.0666667" lon="13.2320083"><ele>728.5</ele><time>2026-04-18T09:56:29.256Z</time></trkpt><trkpt lat="43.06673" lon="13.23188"><ele>728.0</ele><time>2026-04-18T09:56:31.256Z</time></trkpt><trkpt lat="43.0667267" lon="13.2317733"><ele>727.5</ele><time>2026-04-18T09:56:33.256Z</time></trkpt><trkpt lat="43.0666517" lon="13.23176"><ele>727.0</ele><time>2026-04-18T09:56:35.256Z</time></trkpt><trkpt lat="43.066535" lon="13.2318667"><ele>731.8</ele><time>2026-04-18T09:56:37.256Z</time></trkpt><trkpt lat="43.06647" lon="13.23195"><ele>736.6</ele><time>2026-04-18T09:56:38.256Z</time></trkpt><trkpt lat="43.0664067" lon="13.2320233"><ele>741.4</ele><time>2026-04-18T09:56:39.256Z</time></trkpt><trkpt lat="43.0663317" lon="13.2321017"><ele>746.1999999999999</ele><time>2026-04-18T09:56:40.256Z</time></trkpt><trkpt lat="43.0662483" lon="13.23219"><ele>751.0</ele><time>2026-04-18T09:56:41.256Z</time></trkpt><trkpt lat="43.06614" lon="13.2322767"><ele>749.5</ele><time>2026-04-18T09:56:42.256Z</time></trkpt><trkpt lat="43.0660283" lon="13.2323533"><ele>748.0</ele><time>2026-04-18T09:56:43.256Z</time></trkpt><trkpt lat="43.0659183" lon="13.2324167"><ele>746.5</ele><time>2026-04-18T09:56:44.256Z</time></trkpt><trkpt lat="43.0658033" lon="13.2324733"><ele>745.0</ele><time>2026-04-18T09:56:45.256Z</time></trkpt><trkpt lat="43.0657" lon="13.2325233"><ele>745.0</ele><time>2026-04-18T09:56:46.256Z</time></trkpt><trkpt lat="43.0655783" lon="13.2325683"><ele>745.0</ele><time>2026-04-18T09:56:47.256Z</time></trkpt><trkpt lat="43.065465" lon="13.232625"><ele>745.0</ele><time>2026-04-18T09:56:48.256Z</time></trkpt><trkpt lat="43.06535" lon="13.232655"><ele>745.0</ele><time>2026-04-18T09:56:49.256Z</time></trkpt><trkpt lat="43.06525" lon="13.2326483"><ele>745.0</ele><time>2026-04-18T09:56:50.256Z</time></trkpt><trkpt lat="43.0651467" lon="13.2326183"><ele>745.0</ele><time>2026-04-18T09:56:51.256Z</time></trkpt><trkpt lat="43.0650517" lon="13.2325617"><ele>745.0</ele><time>2026-04-18T09:56:52.255Z</time></trkpt><trkpt lat="43.0649533" lon="13.232485"><ele>745.0</ele><time>2026-04-18T09:56:53.256Z</time></trkpt><trkpt lat="43.0648483" lon="13.2324033"><ele>745.0</ele><time>2026-04-18T09:56:54.256Z</time></trkpt><trkpt lat="43.0647417" lon="13.2323283"><ele>747.4</ele><time>2026-04-18T09:56:55.256Z</time></trkpt><trkpt lat="43.0646367" lon="13.23226"><ele>749.8</ele><time>2026-04-18T09:56:56.256Z</time></trkpt><trkpt lat="43.0645317" lon="13.2321983"><ele>752.2</ele><time>2026-04-18T09:56:57.256Z</time></trkpt><trkpt lat="43.0644333" lon="13.2321433"><ele>754.6</ele><time>2026-04-18T09:56:58.256Z</time></trkpt><trkpt lat="43.064345" lon="13.232085"><ele>757.0</ele><time>2026-04-18T09:56:59.256Z</time></trkpt><trkpt lat="43.06426" lon="13.2320183"><ele>757.0</ele><time>2026-04-18T09:57:00.256Z</time></trkpt><trkpt lat="43.0641717" lon="13.231955"><ele>757.0</ele><time>2026-04-18T09:57:01.256Z</time></trkpt><trkpt lat="43.0640867" lon="13.2318967"><ele>757.0</ele><time>2026-04-18T09:57:02.256Z</time></trkpt><trkpt lat="43.0640067" lon="13.2318467"><ele>757.0</ele><time>2026-04-18T09:57:03.256Z</time></trkpt><trkpt lat="43.063935" lon="13.2317983"><ele>757.0</ele><time>2026-04-18T09:57:04.256Z</time></trkpt><trkpt lat="43.0638567" lon="13.2317517"><ele>757.0</ele><time>2026-04-18T09:57:05.256Z</time></trkpt><trkpt lat="43.0637817" lon="13.2317117"><ele>755.1666666666667</ele><time>2026-04-18T09:57:06.256Z</time></trkpt><trkpt lat="43.0636933" lon="13.2316583"><ele>753.3333333333334</ele><time>2026-04-18T09:57:07.256Z</time></trkpt><trkpt lat="43.0636117" lon="13.2315917"><ele>751.5</ele><time>2026-04-18T09:57:08.256Z</time></trkpt><trkpt lat="43.0635317" lon="13.2315233"><ele>749.6666666666666</ele><time>2026-04-18T09:57:09.256Z</time></trkpt><trkpt lat="43.0634683" lon="13.2314517"><ele>747.8333333333333</ele><time>2026-04-18T09:57:10.256Z</time></trkpt><trkpt lat="43.0634117" lon="13.2313833"><ele>746.0</ele><time>2026-04-18T09:57:11.256Z</time></trkpt><trkpt lat="43.06337" lon="13.2313067"><ele>746.0</ele><time>2026-04-18T09:57:12.256Z</time></trkpt><trkpt lat="43.063345" lon="13.2312217"><ele>746.0</ele><time>2026-04-18T09:57:13.256Z</time></trkpt><trkpt lat="43.0632933" lon="13.2310533"><ele>746.0</ele><time>2026-04-18T09:57:15.256Z</time></trkpt><trkpt lat="43.06328" lon="13.230925"><ele>746.0</ele><time>2026-04-18T09:57:16.256Z</time></trkpt><trkpt lat="43.0632683" lon="13.2307817"><ele>746.0</ele><time>2026-04-18T09:57:17.256Z</time></trkpt><trkpt lat="43.063265" lon="13.2306367"><ele>744.0</ele><time>2026-04-18T09:57:18.256Z</time></trkpt><trkpt lat="43.06327" lon="13.2304967"><ele>742.0</ele><time>2026-04-18T09:57:19.256Z</time></trkpt><trkpt lat="43.0632633" lon="13.23035"><ele>740.0</ele><time>2026-04-18T09:57:20.256Z</time></trkpt><trkpt lat="43.0632517" lon="13.2302083"><ele>738.0</ele><time>2026-04-18T09:57:21.256Z</time></trkpt><trkpt lat="43.06323" lon="13.2300883"><ele>736.0</ele><time>2026-04-18T09:57:22.256Z</time></trkpt><trkpt lat="43.06318" lon="13.2299583"><ele>736.0</ele><time>2026-04-18T09:57:23.256Z</time></trkpt><trkpt lat="43.063105" lon="13.2298483"><ele>736.0</ele><time>2026-04-18T09:57:24.256Z</time></trkpt><trkpt lat="43.0630067" lon="13.22976"><ele>736.0</ele><time>2026-04-18T09:57:25.256Z</time></trkpt><trkpt lat="43.062905" lon="13.229695"><ele>736.0</ele><time>2026-04-18T09:57:26.256Z</time></trkpt><trkpt lat="43.0628" lon="13.2296517"><ele>736.0</ele><time>2026-04-18T09:57:27.256Z</time></trkpt><trkpt lat="43.062675" lon="13.2296217"><ele>740.1999999999999</ele><time>2026-04-18T09:57:28.256Z</time></trkpt><trkpt lat="43.0625733" lon="13.2295783"><ele>744.4</ele><time>2026-04-18T09:57:29.256Z</time></trkpt><trkpt lat="43.0624683" lon="13.2295267"><ele>748.6</ele><time>2026-04-18T09:57:30.256Z</time></trkpt><trkpt lat="43.0623717" lon="13.2294817"><ele>752.8</ele><time>2026-04-18T09:57:31.256Z</time></trkpt><trkpt lat="43.0622783" lon="13.2294183"><ele>757.0</ele><time>2026-04-18T09:57:32.256Z</time></trkpt><trkpt lat="43.062175" lon="13.2293367"><ele>757.0</ele><time>2026-04-18T09:57:33.256Z</time></trkpt><trkpt lat="43.0620683" lon="13.22927"><ele>757.0</ele><time>2026-04-18T09:57:34.256Z</time></trkpt><trkpt lat="43.0619567" lon="13.229225"><ele>757.0</ele><time>2026-04-18T09:57:35.256Z</time></trkpt><trkpt lat="43.06185" lon="13.229195"><ele>757.0</ele><time>2026-04-18T09:57:36.256Z</time></trkpt><trkpt lat="43.0617517" lon="13.2291517"><ele>757.0</ele><time>2026-04-18T09:57:37.256Z</time></trkpt><trkpt lat="43.06166" lon="13.22911"><ele>760.4000000000001</ele><time>2026-04-18T09:57:38.256Z</time></trkpt><trkpt lat="43.0615733" lon="13.2290567"><ele>763.8000000000001</ele><time>2026-04-18T09:57:39.256Z</time></trkpt><trkpt lat="43.061475" lon="13.229"><ele>767.2</ele><time>2026-04-18T09:57:40.256Z</time></trkpt><trkpt lat="43.06137" lon="13.22896"><ele>770.6</ele><time>2026-04-18T09:57:41.256Z</time></trkpt><trkpt lat="43.0612617" lon="13.2289267"><ele>774.0</ele><time>2026-04-18T09:57:42.256Z</time></trkpt><trkpt lat="43.06115" lon="13.2288967"><ele>774.0</ele><time>2026-04-18T09:57:43.256Z</time></trkpt><trkpt lat="43.06105" lon="13.2288283"><ele>774.0</ele><time>2026-04-18T09:57:44.256Z</time></trkpt><trkpt lat="43.060955" lon="13.22874"><ele>774.0</ele><time>2026-04-18T09:57:45.256Z</time></trkpt><trkpt lat="43.0608583" lon="13.2286383"><ele>774.0</ele><time>2026-04-18T09:57:46.256Z</time></trkpt><trkpt lat="43.0607617" lon="13.2285367"><ele>765.25</ele><time>2026-04-18T09:57:47.256Z</time></trkpt><trkpt lat="43.06066" lon="13.2284367"><ele>756.5</ele><time>2026-04-18T09:57:48.256Z</time></trkpt><trkpt lat="43.0605617" lon="13.228355"><ele>747.75</ele><time>2026-04-18T09:57:49.256Z</time></trkpt><trkpt lat="43.0604583" lon="13.2282783"><ele>739.0</ele><time>2026-04-18T09:57:50.256Z</time></trkpt><trkpt lat="43.0603617" lon="13.228215"><ele>739.0</ele><time>2026-04-18T09:57:51.255Z</time></trkpt><trkpt lat="43.0602767" lon="13.2281467"><ele>739.0</ele><time>2026-04-18T09:57:52.256Z</time></trkpt><trkpt lat="43.0601983" lon="13.22807"><ele>739.0</ele><time>2026-04-18T09:57:53.256Z</time></trkpt><trkpt lat="43.0601267" lon="13.2279683"><ele>739.0</ele><time>2026-04-18T09:57:54.256Z</time></trkpt><trkpt lat="43.0600517" lon="13.2278383"><ele>739.0</ele><time>2026-04-18T09:57:55.256Z</time></trkpt><trkpt lat="43.0599767" lon="13.2277167"><ele>750.0</ele><time>2026-04-18T09:57:56.256Z</time></trkpt><trkpt lat="43.0599017" lon="13.2275967"><ele>761.0</ele><time>2026-04-18T09:57:57.256Z</time></trkpt><trkpt lat="43.059825" lon="13.2274917"><ele>772.0</ele><time>2026-04-18T09:57:58.256Z</time></trkpt><trkpt lat="43.0597567" lon="13.2273933"><ele>783.0</ele><time>2026-04-18T09:57:59.256Z</time></trkpt><trkpt lat="43.0597033" lon="13.2273067"><ele>794.0</ele><time>2026-04-18T09:58:00.256Z</time></trkpt><trkpt lat="43.0596417" lon="13.2272433"><ele>794.0000000000001</ele><time>2026-04-18T09:58:01.255Z</time></trkpt><trkpt lat="43.05958" lon="13.2272167"><ele>794.0</ele><time>2026-04-18T09:58:02.256Z</time></trkpt><trkpt lat="43.0595133" lon="13.2272383"><ele>794.0</ele><time>2026-04-18T09:58:03.256Z</time></trkpt><trkpt lat="43.0594533" lon="13.2272983"><ele>794.0</ele><time>2026-04-18T09:58:04.256Z</time></trkpt><trkpt lat="43.059395" lon="13.22739"><ele>794.0000000000001</ele><time>2026-04-18T09:58:05.256Z</time></trkpt><trkpt lat="43.0593533" lon="13.227505"><ele>794.0</ele><time>2026-04-18T09:58:06.256Z</time></trkpt><trkpt lat="43.0593267" lon="13.2276667"><ele>794.0</ele><time>2026-04-18T09:58:07.256Z</time></trkpt><trkpt lat="43.059305" lon="13.2278367"><ele>794.0</ele><time>2026-04-18T09:58:08.256Z</time></trkpt><trkpt lat="43.0592817" lon="13.2279983"><ele>794.0</ele><time>2026-04-18T09:58:09.256Z</time></trkpt><trkpt lat="43.0592567" lon="13.22817"><ele>794.0</ele><time>2026-04-18T09:58:10.256Z</time></trkpt><trkpt lat="43.0592283" lon="13.2283367"><ele>791.2</ele><time>2026-04-18T09:58:11.256Z</time></trkpt><trkpt lat="43.0592133" lon="13.22848"><ele>788.4000000000001</ele><time>2026-04-18T09:58:12.256Z</time></trkpt><trkpt lat="43.0591983" lon="13.2286117"><ele>785.6</ele><time>2026-04-18T09:58:13.256Z</time></trkpt><trkpt lat="43.0591717" lon="13.2287417"><ele>782.8</ele><time>2026-04-18T09:58:14.256Z</time></trkpt><trkpt lat="43.0591417" lon="13.2288783"><ele>780.0</ele><time>2026-04-18T09:58:15.256Z</time></trkpt><trkpt lat="43.0591167" lon="13.22901"><ele>788.6666666666666</ele><time>2026-04-18T09:58:16.256Z</time></trkpt><trkpt lat="43.0590817" lon="13.229145"><ele>797.3333333333333</ele><time>2026-04-18T09:58:17.256Z</time></trkpt><trkpt lat="43.0590583" lon="13.22927"><ele>806.0</ele><time>2026-04-18T09:58:18.255Z</time></trkpt><trkpt lat="43.05902" lon="13.2293717"><ele>814.6666666666666</ele><time>2026-04-18T09:58:19.256Z</time></trkpt><trkpt lat="43.0589717" lon="13.229445"><ele>823.3333333333333</ele><time>2026-04-18T09:58:20.256Z</time></trkpt><trkpt lat="43.0589067" lon="13.2295033"><ele>832.0</ele><time>2026-04-18T09:58:21.256Z</time></trkpt><trkpt lat="43.0588217" lon="13.2295517"><ele>832.0</ele><time>2026-04-18T09:58:22.256Z</time></trkpt><trkpt lat="43.0587433" lon="13.2296267"><ele>832.0</ele><time>2026-04-18T09:58:23.256Z</time></trkpt><trkpt lat="43.0586567" lon="13.2297317"><ele>832.0</ele><time>2026-04-18T09:58:24.256Z</time></trkpt><trkpt lat="43.0585767" lon="13.2298317"><ele>832.0</ele><time>2026-04-18T09:58:25.256Z</time></trkpt><trkpt lat="43.058515" lon="13.2299317"><ele>832.0</ele><time>2026-04-18T09:58:26.255Z</time></trkpt><trkpt lat="43.0584767" lon="13.2300217"><ele>824.8</ele><time>2026-04-18T09:58:27.256Z</time></trkpt><trkpt lat="43.0584567" lon="13.2301333"><ele>817.6</ele><time>2026-04-18T09:58:28.256Z</time></trkpt><trkpt lat="43.0584633" lon="13.2302317"><ele>810.4</ele><time>2026-04-18T09:58:29.256Z</time></trkpt><trkpt lat="43.05848" lon="13.2303533"><ele>803.1999999999999</ele><time>2026-04-18T09:58:30.256Z</time></trkpt><trkpt lat="43.0585117" lon="13.2304883"><ele>796.0</ele><time>2026-04-18T09:58:31.256Z</time></trkpt><trkpt lat="43.0585383" lon="13.230635"><ele>795.0</ele><time>2026-04-18T09:58:32.256Z</time></trkpt><trkpt lat="43.0585617" lon="13.2307967"><ele>794.0</ele><time>2026-04-18T09:58:33.256Z</time></trkpt><trkpt lat="43.0585783" lon="13.2309617"><ele>793.0</ele><time>2026-04-18T09:58:34.256Z</time></trkpt><trkpt lat="43.0585817" lon="13.231115"><ele>792.0</ele><time>2026-04-18T09:58:35.256Z</time></trkpt><trkpt lat="43.0585717" lon="13.2312617"><ele>792.0</ele><time>2026-04-18T09:58:36.255Z</time></trkpt><trkpt lat="43.0585533" lon="13.2313967"><ele>792.0</ele><time>2026-04-18T09:58:37.256Z</time></trkpt><trkpt lat="43.0585433" lon="13.23154"><ele>792.0</ele><time>2026-04-18T09:58:38.256Z</time></trkpt><trkpt lat="43.0585383" lon="13.2317"><ele>792.0</ele><time>2026-04-18T09:58:39.256Z</time></trkpt><trkpt lat="43.0585333" lon="13.2318483"><ele>792.0</ele><time>2026-04-18T09:58:40.256Z</time></trkpt><trkpt lat="43.0585383" lon="13.2319983"><ele>793.4000000000001</ele><time>2026-04-18T09:58:41.256Z</time></trkpt><trkpt lat="43.0585583" lon="13.23214"><ele>794.8000000000001</ele><time>2026-04-18T09:58:42.256Z</time></trkpt><trkpt lat="43.058595" lon="13.2322617"><ele>796.2</ele><time>2026-04-18T09:58:43.256Z</time></trkpt><trkpt lat="43.0586283" lon="13.232375"><ele>797.6</ele><time>2026-04-18T09:58:44.256Z</time></trkpt><trkpt lat="43.0586867" lon="13.2324833"><ele>799.0</ele><time>2026-04-18T09:58:45.256Z</time></trkpt><trkpt lat="43.05872" lon="13.2326017"><ele>799.4000000000001</ele><time>2026-04-18T09:58:46.256Z</time></trkpt><trkpt lat="43.058745" lon="13.23273"><ele>799.8</ele><time>2026-04-18T09:58:47.256Z</time></trkpt><trkpt lat="43.0587667" lon="13.232865"><ele>800.2</ele><time>2026-04-18T09:58:48.256Z</time></trkpt><trkpt lat="43.05878" lon="13.233"><ele>800.5999999999999</ele><time>2026-04-18T09:58:49.256Z</time></trkpt><trkpt lat="43.0587767" lon="13.2331467"><ele>801.0</ele><time>2026-04-18T09:58:50.256Z</time></trkpt><trkpt lat="43.0587783" lon="13.2333033"><ele>801.0</ele><time>2026-04-18T09:58:51.256Z</time></trkpt><trkpt lat="43.0587533" lon="13.2334683"><ele>801.0</ele><time>2026-04-18T09:58:52.256Z</time></trkpt><trkpt lat="43.058715" lon="13.2336217"><ele>801.0</ele><time>2026-04-18T09:58:53.256Z</time></trkpt><trkpt lat="43.0586817" lon="13.233785"><ele>801.0</ele><time>2026-04-18T09:58:54.256Z</time></trkpt><trkpt lat="43.058655" lon="13.2339617"><ele>800.75</ele><time>2026-04-18T09:58:55.255Z</time></trkpt><trkpt lat="43.0586433" lon="13.23414"><ele>800.5</ele><time>2026-04-18T09:58:56.256Z</time></trkpt><trkpt lat="43.0586433" lon="13.2343167"><ele>800.25</ele><time>2026-04-18T09:58:57.256Z</time></trkpt><trkpt lat="43.0586367" lon="13.234495"><ele>800.0</ele><time>2026-04-18T09:58:58.256Z</time></trkpt><trkpt lat="43.0586383" lon="13.23466"><ele>799.5</ele><time>2026-04-18T09:58:59.256Z</time></trkpt><trkpt lat="43.0586133" lon="13.2348333"><ele>799.0</ele><time>2026-04-18T09:59:00.256Z</time></trkpt><trkpt lat="43.05858" lon="13.235015"><ele>798.5</ele><time>2026-04-18T09:59:01.256Z</time></trkpt><trkpt lat="43.0585417" lon="13.2352083"><ele>798.0</ele><time>2026-04-18T09:59:02.256Z</time></trkpt><trkpt lat="43.0584933" lon="13.2353917"><ele>798.0</ele><time>2026-04-18T09:59:03.256Z</time></trkpt><trkpt lat="43.0584667" lon="13.23556"><ele>798.0</ele><time>2026-04-18T09:59:04.256Z</time></trkpt><trkpt lat="43.0584417" lon="13.235725"><ele>798.0</ele><time>2026-04-18T09:59:05.256Z</time></trkpt><trkpt lat="43.0584267" lon="13.2358833"><ele>798.0</ele><time>2026-04-18T09:59:06.256Z</time></trkpt><trkpt lat="43.058425" lon="13.2360533"><ele>797.0</ele><time>2026-04-18T09:59:07.256Z</time></trkpt><trkpt lat="43.0584367" lon="13.2361983"><ele>796.0</ele><time>2026-04-18T09:59:08.256Z</time></trkpt><trkpt lat="43.0584583" lon="13.2363433"><ele>795.0</ele><time>2026-04-18T09:59:09.256Z</time></trkpt><trkpt lat="43.0584867" lon="13.23648"><ele>794.0</ele><time>2026-04-18T09:59:10.255Z</time></trkpt><trkpt lat="43.0585267" lon="13.2366083"><ele>793.0</ele><time>2026-04-18T09:59:11.256Z</time></trkpt><trkpt lat="43.0585817" lon="13.236715"><ele>792.9999999999999</ele><time>2026-04-18T09:59:12.256Z</time></trkpt><trkpt lat="43.0586117" lon="13.236805"><ele>793.0</ele><time>2026-04-18T09:59:13.256Z</time></trkpt><trkpt lat="43.0586733" lon="13.2369"><ele>793.0</ele><time>2026-04-18T09:59:15.256Z</time></trkpt><trkpt lat="43.0586217" lon="13.23696"><ele>793.0</ele><time>2026-04-18T09:59:21.256Z</time></trkpt><trkpt lat="43.0585633" lon="13.2369133"><ele>792.9999999999999</ele><time>2026-04-18T09:59:23.256Z</time></trkpt><trkpt lat="43.0584967" lon="13.2368167"><ele>793.0</ele><time>2026-04-18T09:59:25.256Z</time></trkpt><trkpt lat="43.0584317" lon="13.2367017"><ele>792.9999999999999</ele><time>2026-04-18T09:59:27.256Z</time></trkpt><trkpt lat="43.0583617" lon="13.23656"><ele>793.0</ele><time>2026-04-18T09:59:29.256Z</time></trkpt><trkpt lat="43.0583267" lon="13.2364783"><ele>793.0</ele><time>2026-04-18T09:59:30.256Z</time></trkpt><trkpt lat="43.0583067" lon="13.2363933"><ele>793.0</ele><time>2026-04-18T09:59:31.256Z</time></trkpt><trkpt lat="43.0582867" lon="13.2363017"><ele>792.9999999999999</ele><time>2026-04-18T09:59:32.256Z</time></trkpt><trkpt lat="43.0582783" lon="13.2361967"><ele>793.0</ele><time>2026-04-18T09:59:33.256Z</time></trkpt><trkpt lat="43.0582683" lon="13.2360817"><ele>793.8333333333333</ele><time>2026-04-18T09:59:34.256Z</time></trkpt><trkpt lat="43.058255" lon="13.23597"><ele>794.6666666666666</ele><time>2026-04-18T09:59:35.256Z</time></trkpt><trkpt lat="43.0582417" lon="13.2358517"><ele>795.5</ele><time>2026-04-18T09:59:36.256Z</time></trkpt><trkpt lat="43.0582467" lon="13.2357267"><ele>796.3333333333333</ele><time>2026-04-18T09:59:37.256Z</time></trkpt><trkpt lat="43.0582533" lon="13.23561"><ele>797.1666666666666</ele><time>2026-04-18T09:59:38.256Z</time></trkpt><trkpt lat="43.0582733" lon="13.2354783"><ele>798.0</ele><time>2026-04-18T09:59:39.255Z</time></trkpt><trkpt lat="43.058305" lon="13.2353483"><ele>798.0</ele><time>2026-04-18T09:59:40.255Z</time></trkpt><trkpt lat="43.0583433" lon="13.235215"><ele>798.0</ele><time>2026-04-18T09:59:41.256Z</time></trkpt><trkpt lat="43.0583733" lon="13.2350783"><ele>798.0</ele><time>2026-04-18T09:59:42.256Z</time></trkpt><trkpt lat="43.0584" lon="13.2349433"><ele>798.0</ele><time>2026-04-18T09:59:43.256Z</time></trkpt><trkpt lat="43.058415" lon="13.2348067"><ele>798.0</ele><time>2026-04-18T09:59:44.256Z</time></trkpt><trkpt lat="43.0584283" lon="13.2346733"><ele>798.3333333333334</ele><time>2026-04-18T09:59:45.256Z</time></trkpt><trkpt lat="43.0584333" lon="13.2345383"><ele>798.6666666666667</ele><time>2026-04-18T09:59:46.256Z</time></trkpt><trkpt lat="43.058435" lon="13.2344167"><ele>799.0</ele><time>2026-04-18T09:59:47.256Z</time></trkpt><trkpt lat="43.0584333" lon="13.2343117"><ele>799.3333333333334</ele><time>2026-04-18T09:59:48.256Z</time></trkpt><trkpt lat="43.058415" lon="13.2342033"><ele>799.6666666666667</ele><time>2026-04-18T09:59:49.256Z</time></trkpt><trkpt lat="43.0583817" lon="13.2340917"><ele>800.0</ele><time>2026-04-18T09:59:50.255Z</time></trkpt><trkpt lat="43.05834" lon="13.2339783"><ele>800.1666666666667</ele><time>2026-04-18T09:59:51.256Z</time></trkpt><trkpt lat="43.0582933" lon="13.2338717"><ele>800.3333333333334</ele><time>2026-04-18T09:59:52.256Z</time></trkpt><trkpt lat="43.05824" lon="13.23378"><ele>800.5</ele><time>2026-04-18T09:59:53.256Z</time></trkpt><trkpt lat="43.058195" lon="13.23369"><ele>800.6666666666667</ele><time>2026-04-18T09:59:54.256Z</time></trkpt><trkpt lat="43.058155" lon="13.23361"><ele>800.8333333333334</ele><time>2026-04-18T09:59:55.256Z</time></trkpt><trkpt lat="43.0581067" lon="13.233485"><ele>801.0</ele><time>2026-04-18T09:59:57.256Z</time></trkpt><trkpt lat="43.058045" lon="13.233445"><ele>806.6666666666666</ele><time>2026-04-18T09:59:59.256Z</time></trkpt><trkpt lat="43.0579967" lon="13.2335283"><ele>812.3333333333333</ele><time>2026-04-18T10:00:01.255Z</time></trkpt><trkpt lat="43.058025" lon="13.2336883"><ele>818.0</ele><time>2026-04-18T10:00:03.256Z</time></trkpt><trkpt lat="43.0580633" lon="13.2337783"><ele>823.6666666666666</ele><time>2026-04-18T10:00:04.256Z</time></trkpt><trkpt lat="43.0581117" lon="13.2338683"><ele>829.3333333333333</ele><time>2026-04-18T10:00:05.256Z</time></trkpt><trkpt lat="43.05818" lon="13.233935"><ele>835.0</ele><time>2026-04-18T10:00:06.256Z</time></trkpt><trkpt lat="43.0582233" lon="13.2340133"><ele>834.9999999999999</ele><time>2026-04-18T10:00:07.256Z</time></trkpt><trkpt lat="43.058245" lon="13.2341117"><ele>835.0</ele><time>2026-04-18T10:00:08.256Z</time></trkpt><trkpt lat="43.0582583" lon="13.2342133"><ele>835.0</ele><time>2026-04-18T10:00:09.256Z</time></trkpt><trkpt lat="43.05827" lon="13.2343233"><ele>835.0</ele><time>2026-04-18T10:00:10.255Z</time></trkpt><trkpt lat="43.0582683" lon="13.2344417"><ele>834.9999999999999</ele><time>2026-04-18T10:00:11.256Z</time></trkpt><trkpt lat="43.0582667" lon="13.234565"><ele>835.0</ele><time>2026-04-18T10:00:12.256Z</time></trkpt><trkpt lat="43.0582383" lon="13.2347"><ele>833.2</ele><time>2026-04-18T10:00:13.256Z</time></trkpt><trkpt lat="43.0582033" lon="13.2348467"><ele>831.4</ele><time>2026-04-18T10:00:14.256Z</time></trkpt><trkpt lat="43.058165" lon="13.234995"><ele>829.5999999999999</ele><time>2026-04-18T10:00:15.256Z</time></trkpt><trkpt lat="43.0581333" lon="13.2351333"><ele>827.8</ele><time>2026-04-18T10:00:16.256Z</time></trkpt><trkpt lat="43.0581067" lon="13.2352583"><ele>826.0</ele><time>2026-04-18T10:00:17.256Z</time></trkpt><trkpt lat="43.0580833" lon="13.23536"><ele>826.0</ele><time>2026-04-18T10:00:18.256Z</time></trkpt><trkpt lat="43.0580567" lon="13.2354417"><ele>826.0</ele><time>2026-04-18T10:00:19.256Z</time></trkpt><trkpt lat="43.0580183" lon="13.23556"><ele>826.0</ele><time>2026-04-18T10:00:21.256Z</time></trkpt><trkpt lat="43.0579617" lon="13.2356483"><ele>826.0</ele><time>2026-04-18T10:00:23.256Z</time></trkpt><trkpt lat="43.0578567" lon="13.2356567"><ele>826.0</ele><time>2026-04-18T10:00:25.256Z</time></trkpt><trkpt lat="43.057775" lon="13.2355467"><ele>825.9999999999999</ele><time>2026-04-18T10:00:27.256Z</time></trkpt><trkpt lat="43.0577483" lon="13.2354533"><ele>826.0</ele><time>2026-04-18T10:00:28.256Z</time></trkpt><trkpt lat="43.0577217" lon="13.235355"><ele>826.0</ele><time>2026-04-18T10:00:29.256Z</time></trkpt><trkpt lat="43.05769" lon="13.2352517"><ele>826.0</ele><time>2026-04-18T10:00:30.256Z</time></trkpt><trkpt lat="43.0576517" lon="13.2351567"><ele>825.9999999999999</ele><time>2026-04-18T10:00:31.256Z</time></trkpt><trkpt lat="43.0576083" lon="13.2350667"><ele>826.0</ele><time>2026-04-18T10:00:32.256Z</time></trkpt><trkpt lat="43.0575733" lon="13.23497"><ele>826.0</ele><time>2026-04-18T10:00:33.256Z</time></trkpt><trkpt lat="43.0575317" lon="13.234865"><ele>826.0</ele><time>2026-04-18T10:00:34.256Z</time></trkpt><trkpt lat="43.0575083" lon="13.234755"><ele>826.0</ele><time>2026-04-18T10:00:35.256Z</time></trkpt><trkpt lat="43.0574917" lon="13.234635"><ele>826.0</ele><time>2026-04-18T10:00:36.256Z</time></trkpt><trkpt lat="43.0574767" lon="13.2345017"><ele>826.0</ele><time>2026-04-18T10:00:37.256Z</time></trkpt><trkpt lat="43.0574667" lon="13.234375"><ele>827.4999999999999</ele><time>2026-04-18T10:00:38.256Z</time></trkpt><trkpt lat="43.057465" lon="13.2342617"><ele>829.0</ele><time>2026-04-18T10:00:39.256Z</time></trkpt><trkpt lat="43.0574833" lon="13.2341483"><ele>830.5</ele><time>2026-04-18T10:00:40.256Z</time></trkpt><trkpt lat="43.0575183" lon="13.2340467"><ele>832.0</ele><time>2026-04-18T10:00:41.256Z</time></trkpt><trkpt lat="43.057555" lon="13.2339433"><ele>833.4999999999999</ele><time>2026-04-18T10:00:42.256Z</time></trkpt><trkpt lat="43.0576233" lon="13.2338183"><ele>835.0</ele><time>2026-04-18T10:00:43.256Z</time></trkpt><trkpt lat="43.0576783" lon="13.2337017"><ele>838.2</ele><time>2026-04-18T10:00:44.256Z</time></trkpt><trkpt lat="43.0577067" lon="13.233575"><ele>841.4</ele><time>2026-04-18T10:00:45.256Z</time></trkpt><trkpt lat="43.057725" lon="13.23344"><ele>844.5999999999999</ele><time>2026-04-18T10:00:46.256Z</time></trkpt><trkpt lat="43.0577267" lon="13.2333033"><ele>847.8</ele><time>2026-04-18T10:00:47.256Z</time></trkpt><trkpt lat="43.0577333" lon="13.2331567"><ele>851.0</ele><time>2026-04-18T10:00:48.256Z</time></trkpt><trkpt lat="43.05773" lon="13.2330233"><ele>852.0</ele><time>2026-04-18T10:00:49.256Z</time></trkpt><trkpt lat="43.057725" lon="13.2328783"><ele>853.0</ele><time>2026-04-18T10:00:50.256Z</time></trkpt><trkpt lat="43.0577233" lon="13.2327383"><ele>853.9999999999999</ele><time>2026-04-18T10:00:51.256Z</time></trkpt><trkpt lat="43.0577267" lon="13.2326"><ele>855.0</ele><time>2026-04-18T10:00:52.256Z</time></trkpt><trkpt lat="43.0577333" lon="13.2324483"><ele>856.0</ele><time>2026-04-18T10:00:53.256Z</time></trkpt><trkpt lat="43.0577417" lon="13.2322983"><ele>856.8</ele><time>2026-04-18T10:00:54.256Z</time></trkpt><trkpt lat="43.0577533" lon="13.23215"><ele>857.5999999999999</ele><time>2026-04-18T10:00:55.256Z</time></trkpt><trkpt lat="43.057765" lon="13.23202"><ele>858.4</ele><time>2026-04-18T10:00:56.256Z</time></trkpt><trkpt lat="43.057785" lon="13.2319"><ele>859.2</ele><time>2026-04-18T10:00:57.256Z</time></trkpt><trkpt lat="43.0578067" lon="13.2317717"><ele>860.0</ele><time>2026-04-18T10:00:58.256Z</time></trkpt><trkpt lat="43.057815" lon="13.231645"><ele>860.0</ele><time>2026-04-18T10:00:59.256Z</time></trkpt><trkpt lat="43.0578" lon="13.2315117"><ele>860.0</ele><time>2026-04-18T10:01:00.255Z</time></trkpt><trkpt lat="43.0577833" lon="13.2313817"><ele>860.0</ele><time>2026-04-18T10:01:01.256Z</time></trkpt><trkpt lat="43.057765" lon="13.2312633"><ele>860.0</ele><time>2026-04-18T10:01:02.256Z</time></trkpt><trkpt lat="43.0577367" lon="13.231145"><ele>860.0</ele><time>2026-04-18T10:01:03.255Z</time></trkpt><trkpt lat="43.0576967" lon="13.231025"><ele>858.8</ele><time>2026-04-18T10:01:04.256Z</time></trkpt><trkpt lat="43.0576483" lon="13.230915"><ele>857.6</ele><time>2026-04-18T10:01:05.256Z</time></trkpt><trkpt lat="43.0575983" lon="13.230805"><ele>856.4000000000001</ele><time>2026-04-18T10:01:06.256Z</time></trkpt><trkpt lat="43.0575467" lon="13.2307133"><ele>855.2</ele><time>2026-04-18T10:01:07.256Z</time></trkpt><trkpt lat="43.0574833" lon="13.2306183"><ele>854.0</ele><time>2026-04-18T10:01:08.256Z</time></trkpt><trkpt lat="43.0574183" lon="13.2305217"><ele>863.8000000000001</ele><time>2026-04-18T10:01:09.256Z</time></trkpt><trkpt lat="43.0573617" lon="13.2304217"><ele>873.6000000000001</ele><time>2026-04-18T10:01:10.256Z</time></trkpt><trkpt lat="43.05732" lon="13.2303067"><ele>883.4</ele><time>2026-04-18T10:01:11.255Z</time></trkpt><trkpt lat="43.0572883" lon="13.2301867"><ele>893.2</ele><time>2026-04-18T10:01:12.256Z</time></trkpt><trkpt lat="43.05727" lon="13.230065"><ele>903.0</ele><time>2026-04-18T10:01:13.256Z</time></trkpt><trkpt lat="43.05727" lon="13.2299517"><ele>903.0</ele><time>2026-04-18T10:01:14.256Z</time></trkpt><trkpt lat="43.0572967" lon="13.2298433"><ele>903.0</ele><time>2026-04-18T10:01:15.256Z</time></trkpt><trkpt lat="43.0573417" lon="13.2297417"><ele>903.0</ele><time>2026-04-18T10:01:16.256Z</time></trkpt><trkpt lat="43.0574167" lon="13.2296383"><ele>903.0</ele><time>2026-04-18T10:01:17.256Z</time></trkpt><trkpt lat="43.0574783" lon="13.2295633"><ele>903.0</ele><time>2026-04-18T10:01:18.256Z</time></trkpt><trkpt lat="43.0575517" lon="13.229475"><ele>902.2</ele><time>2026-04-18T10:01:19.256Z</time></trkpt><trkpt lat="43.0576317" lon="13.2293733"><ele>901.4</ele><time>2026-04-18T10:01:20.256Z</time></trkpt><trkpt lat="43.0577183" lon="13.2292533"><ele>900.6000000000001</ele><time>2026-04-18T10:01:21.256Z</time></trkpt><trkpt lat="43.0577917" lon="13.2291417"><ele>899.8000000000001</ele><time>2026-04-18T10:01:22.256Z</time></trkpt><trkpt lat="43.0578517" lon="13.2290467"><ele>899.0</ele><time>2026-04-18T10:01:23.256Z</time></trkpt><trkpt lat="43.0579083" lon="13.2289633"><ele>899.0000000000001</ele><time>2026-04-18T10:01:24.256Z</time></trkpt><trkpt lat="43.057965" lon="13.22889"><ele>899.0</ele><time>2026-04-18T10:01:25.256Z</time></trkpt><trkpt lat="43.0580183" lon="13.2288183"><ele>899.0</ele><time>2026-04-18T10:01:26.256Z</time></trkpt><trkpt lat="43.0580633" lon="13.2287383"><ele>899.0</ele><time>2026-04-18T10:01:27.256Z</time></trkpt><trkpt lat="43.058095" lon="13.22865"><ele>899.0000000000001</ele><time>2026-04-18T10:01:28.256Z</time></trkpt><trkpt lat="43.05813" lon="13.228545"><ele>899.0</ele><time>2026-04-18T10:01:29.256Z</time></trkpt><trkpt lat="43.0581683" lon="13.2284433"><ele>899.0</ele><time>2026-04-18T10:01:30.256Z</time></trkpt><trkpt lat="43.058205" lon="13.22833"><ele>899.0000000000001</ele><time>2026-04-18T10:01:31.256Z</time></trkpt><trkpt lat="43.058235" lon="13.22821"><ele>899.0000000000001</ele><time>2026-04-18T10:01:32.256Z</time></trkpt><trkpt lat="43.058265" lon="13.228075"><ele>899.0</ele><time>2026-04-18T10:01:33.256Z</time></trkpt><trkpt lat="43.0582833" lon="13.22796"><ele>899.0</ele><time>2026-04-18T10:01:34.256Z</time></trkpt><trkpt lat="43.0582983" lon="13.2278533"><ele>892.6666666666667</ele><time>2026-04-18T10:01:35.256Z</time></trkpt><trkpt lat="43.0583217" lon="13.22775"><ele>886.3333333333334</ele><time>2026-04-18T10:01:36.256Z</time></trkpt><trkpt lat="43.05835" lon="13.2276517"><ele>880.0</ele><time>2026-04-18T10:01:37.256Z</time></trkpt><trkpt lat="43.058385" lon="13.22756"><ele>873.6666666666667</ele><time>2026-04-18T10:01:38.256Z</time></trkpt><trkpt lat="43.0584083" lon="13.227475"><ele>867.3333333333334</ele><time>2026-04-18T10:01:39.256Z</time></trkpt><trkpt lat="43.0583733" lon="13.2273533"><ele>861.0</ele><time>2026-04-18T10:01:41.256Z</time></trkpt><trkpt lat="43.0582867" lon="13.2273267"><ele>869.0</ele><time>2026-04-18T10:01:43.256Z</time></trkpt><trkpt lat="43.05822" lon="13.2274683"><ele>876.9999999999999</ele><time>2026-04-18T10:01:45.256Z</time></trkpt><trkpt lat="43.0582" lon="13.2275683"><ele>884.9999999999999</ele><time>2026-04-18T10:01:46.256Z</time></trkpt><trkpt lat="43.0581817" lon="13.2276767"><ele>893.0</ele><time>2026-04-18T10:01:47.256Z</time></trkpt><trkpt lat="43.05816" lon="13.2277967"><ele>901.0</ele><time>2026-04-18T10:01:48.256Z</time></trkpt><trkpt lat="43.0581317" lon="13.2279167"><ele>900.9999999999999</ele><time>2026-04-18T10:01:49.256Z</time></trkpt><trkpt lat="43.0581" lon="13.2280267"><ele>901.0</ele><time>2026-04-18T10:01:50.256Z</time></trkpt><trkpt lat="43.05806" lon="13.2281317"><ele>901.0</ele><time>2026-04-18T10:01:51.256Z</time></trkpt><trkpt lat="43.0580133" lon="13.228235"><ele>901.0</ele><time>2026-04-18T10:01:52.256Z</time></trkpt><trkpt lat="43.0579717" lon="13.2283183"><ele>900.9999999999999</ele><time>2026-04-18T10:01:53.256Z</time></trkpt><trkpt lat="43.0579033" lon="13.2284083"><ele>901.0</ele><time>2026-04-18T10:01:55.255Z</time></trkpt><trkpt lat="43.0578367" lon="13.228405"><ele>900.9999999999999</ele><time>2026-04-18T10:01:58.256Z</time></trkpt><trkpt lat="43.0578433" lon="13.2283133"><ele>901.0</ele><time>2026-04-18T10:02:00.256Z</time></trkpt><trkpt lat="43.0578983" lon="13.228205"><ele>901.0</ele><time>2026-04-18T10:02:02.256Z</time></trkpt><trkpt lat="43.0579417" lon="13.2281233"><ele>901.0</ele><time>2026-04-18T10:02:03.256Z</time></trkpt><trkpt lat="43.0579833" lon="13.2280367"><ele>900.9999999999999</ele><time>2026-04-18T10:02:04.256Z</time></trkpt><trkpt lat="43.0580083" lon="13.2279367"><ele>901.0</ele><time>2026-04-18T10:02:05.256Z</time></trkpt><trkpt lat="43.05802" lon="13.22783"><ele>900.9999999999999</ele><time>2026-04-18T10:02:06.255Z</time></trkpt><trkpt lat="43.0580117" lon="13.22772"><ele>901.0</ele><time>2026-04-18T10:02:07.256Z</time></trkpt><trkpt lat="43.05799" lon="13.2276217"><ele>901.0</ele><time>2026-04-18T10:02:08.256Z</time></trkpt><trkpt lat="43.0579383" lon="13.2275317"><ele>901.0</ele><time>2026-04-18T10:02:09.256Z</time></trkpt><trkpt lat="43.0578667" lon="13.2274533"><ele>900.9999999999999</ele><time>2026-04-18T10:02:10.256Z</time></trkpt><trkpt lat="43.0577917" lon="13.2273933"><ele>901.0</ele><time>2026-04-18T10:02:11.256Z</time></trkpt><trkpt lat="43.0577067" lon="13.2273433"><ele>900.9999999999999</ele><time>2026-04-18T10:02:12.256Z</time></trkpt><trkpt lat="43.0576183" lon="13.2273117"><ele>901.0</ele><time>2026-04-18T10:02:13.256Z</time></trkpt><trkpt lat="43.0575317" lon="13.2272817"><ele>901.0</ele><time>2026-04-18T10:02:14.256Z</time></trkpt><trkpt lat="43.0574483" lon="13.227235"><ele>901.0</ele><time>2026-04-18T10:02:15.256Z</time></trkpt><trkpt lat="43.0573717" lon="13.2271783"><ele>900.9999999999999</ele><time>2026-04-18T10:02:16.256Z</time></trkpt><trkpt lat="43.0573067" lon="13.2271117"><ele>901.0</ele><time>2026-04-18T10:02:17.256Z</time></trkpt><trkpt lat="43.0572533" lon="13.2270333"><ele>904.8333333333333</ele><time>2026-04-18T10:02:18.256Z</time></trkpt><trkpt lat="43.0572133" lon="13.226945"><ele>908.6666666666666</ele><time>2026-04-18T10:02:19.256Z</time></trkpt><trkpt lat="43.0571883" lon="13.2268417"><ele>912.5</ele><time>2026-04-18T10:02:20.256Z</time></trkpt><trkpt lat="43.0571817" lon="13.2267367"><ele>916.3333333333333</ele><time>2026-04-18T10:02:21.256Z</time></trkpt><trkpt lat="43.0571817" lon="13.2266233"><ele>920.1666666666666</ele><time>2026-04-18T10:02:22.256Z</time></trkpt><trkpt lat="43.0572" lon="13.2265033"><ele>924.0</ele><time>2026-04-18T10:02:23.256Z</time></trkpt><trkpt lat="43.05723" lon="13.22639"><ele>924.0</ele><time>2026-04-18T10:02:24.256Z</time></trkpt><trkpt lat="43.0572583" lon="13.2262933"><ele>924.0</ele><time>2026-04-18T10:02:25.256Z</time></trkpt><trkpt lat="43.0572867" lon="13.22621"><ele>924.0</ele><time>2026-04-18T10:02:26.255Z</time></trkpt><trkpt lat="43.057315" lon="13.2261233"><ele>924.0</ele><time>2026-04-18T10:02:27.256Z</time></trkpt><trkpt lat="43.057315" lon="13.2259533"><ele>924.0</ele><time>2026-04-18T10:02:29.256Z</time></trkpt><trkpt lat="43.0572767" lon="13.2258783"><ele>924.0</ele><time>2026-04-18T10:02:30.256Z</time></trkpt><trkpt lat="43.0572267" lon="13.2258133"><ele>924.0</ele><time>2026-04-18T10:02:31.256Z</time></trkpt><trkpt lat="43.0571633" lon="13.225755"><ele>924.0</ele><time>2026-04-18T10:02:32.256Z</time></trkpt><trkpt lat="43.0570933" lon="13.2257033"><ele>924.0</ele><time>2026-04-18T10:02:33.256Z</time></trkpt><trkpt lat="43.0570317" lon="13.225655"><ele>924.0</ele><time>2026-04-18T10:02:34.256Z</time></trkpt><trkpt lat="43.0569617" lon="13.2256083"><ele>924.0</ele><time>2026-04-18T10:02:35.256Z</time></trkpt><trkpt lat="43.0568933" lon="13.2255567"><ele>924.0</ele><time>2026-04-18T10:02:36.256Z</time></trkpt><trkpt lat="43.056825" lon="13.22551"><ele>925.8000000000001</ele><time>2026-04-18T10:02:37.256Z</time></trkpt><trkpt lat="43.0567517" lon="13.2254633"><ele>927.6000000000001</ele><time>2026-04-18T10:02:38.256Z</time></trkpt><trkpt lat="43.0566733" lon="13.2254167"><ele>929.4</ele><time>2026-04-18T10:02:39.256Z</time></trkpt><trkpt lat="43.0565817" lon="13.2253617"><ele>931.2</ele><time>2026-04-18T10:02:40.256Z</time></trkpt><trkpt lat="43.0564933" lon="13.2253117"><ele>933.0</ele><time>2026-04-18T10:02:41.256Z</time></trkpt><trkpt lat="43.056405" lon="13.2252533"><ele>933.0</ele><time>2026-04-18T10:02:42.256Z</time></trkpt><trkpt lat="43.0563133" lon="13.2251867"><ele>933.0</ele><time>2026-04-18T10:02:43.256Z</time></trkpt><trkpt lat="43.056225" lon="13.2251317"><ele>933.0</ele><time>2026-04-18T10:02:44.256Z</time></trkpt><trkpt lat="43.0561267" lon="13.225085"><ele>933.0</ele><time>2026-04-18T10:02:45.256Z</time></trkpt><trkpt lat="43.0560267" lon="13.2250483"><ele>933.0</ele><time>2026-04-18T10:02:46.256Z</time></trkpt><trkpt lat="43.055935" lon="13.2250117"><ele>933.0</ele><time>2026-04-18T10:02:47.256Z</time></trkpt><trkpt lat="43.05585" lon="13.2249683"><ele>933.0</ele><time>2026-04-18T10:02:48.256Z</time></trkpt><trkpt lat="43.0557733" lon="13.2249083"><ele>933.0</ele><time>2026-04-18T10:02:49.256Z</time></trkpt><trkpt lat="43.0556983" lon="13.2248333"><ele>933.0</ele><time>2026-04-18T10:02:50.256Z</time></trkpt><trkpt lat="43.0556283" lon="13.22475"><ele>933.0</ele><time>2026-04-18T10:02:51.256Z</time></trkpt><trkpt lat="43.055575" lon="13.2246717"><ele>933.0</ele><time>2026-04-18T10:02:52.255Z</time></trkpt><trkpt lat="43.0555" lon="13.2245867"><ele>935.8</ele><time>2026-04-18T10:02:53.256Z</time></trkpt><trkpt lat="43.0554117" lon="13.2245133"><ele>938.5999999999999</ele><time>2026-04-18T10:02:54.256Z</time></trkpt><trkpt lat="43.0553167" lon="13.2244583"><ele>941.4000000000001</ele><time>2026-04-18T10:02:55.256Z</time></trkpt><trkpt lat="43.05522" lon="13.224415"><ele>944.2</ele><time>2026-04-18T10:02:56.256Z</time></trkpt><trkpt lat="43.05512" lon="13.2243817"><ele>947.0</ele><time>2026-04-18T10:02:57.256Z</time></trkpt><trkpt lat="43.0550383" lon="13.22435"><ele>947.0000000000001</ele><time>2026-04-18T10:02:58.256Z</time></trkpt><trkpt lat="43.0549583" lon="13.2243283"><ele>947.0</ele><time>2026-04-18T10:02:59.256Z</time></trkpt><trkpt lat="43.0548833" lon="13.2243117"><ele>947.0</ele><time>2026-04-18T10:03:00.256Z</time></trkpt><trkpt lat="43.0548183" lon="13.2242967"><ele>947.0</ele><time>2026-04-18T10:03:01.256Z</time></trkpt><trkpt lat="43.05473" lon="13.2242383"><ele>947.0000000000001</ele><time>2026-04-18T10:03:03.256Z</time></trkpt><trkpt lat="43.0547133" lon="13.2241133"><ele>947.0</ele><time>2026-04-18T10:03:05.256Z</time></trkpt><trkpt lat="43.05474" lon="13.2240317"><ele>950.0000000000001</ele><time>2026-04-18T10:03:06.256Z</time></trkpt><trkpt lat="43.0547817" lon="13.2239433"><ele>953.0</ele><time>2026-04-18T10:03:07.256Z</time></trkpt><trkpt lat="43.0548333" lon="13.223845"><ele>956.0</ele><time>2026-04-18T10:03:08.256Z</time></trkpt><trkpt lat="43.05489" lon="13.2237583"><ele>959.0</ele><time>2026-04-18T10:03:09.256Z</time></trkpt><trkpt lat="43.0549567" lon="13.2236767"><ele>962.0000000000001</ele><time>2026-04-18T10:03:10.256Z</time></trkpt><trkpt lat="43.0550117" lon="13.2235867"><ele>965.0</ele><time>2026-04-18T10:03:11.256Z</time></trkpt><trkpt lat="43.05508" lon="13.2235067"><ele>965.0000000000001</ele><time>2026-04-18T10:03:12.256Z</time></trkpt><trkpt lat="43.0551483" lon="13.223425"><ele>965.0</ele><time>2026-04-18T10:03:13.256Z</time></trkpt><trkpt lat="43.05521" lon="13.2233767"><ele>965.0</ele><time>2026-04-18T10:03:14.256Z</time></trkpt><trkpt lat="43.05528" lon="13.2233383"><ele>965.0</ele><time>2026-04-18T10:03:15.256Z</time></trkpt><trkpt lat="43.0553617" lon="13.223315"><ele>965.0000000000001</ele><time>2026-04-18T10:03:16.256Z</time></trkpt><trkpt lat="43.0554433" lon="13.2232883"><ele>965.0</ele><time>2026-04-18T10:03:17.256Z</time></trkpt><trkpt lat="43.0555383" lon="13.2232367"><ele>965.0</ele><time>2026-04-18T10:03:18.256Z</time></trkpt><trkpt lat="43.0556283" lon="13.2231667"><ele>965.0</ele><time>2026-04-18T10:03:19.256Z</time></trkpt><trkpt lat="43.0557183" lon="13.2230867"><ele>965.0</ele><time>2026-04-18T10:03:20.256Z</time></trkpt><trkpt lat="43.0558133" lon="13.2230133"><ele>965.0</ele><time>2026-04-18T10:03:21.256Z</time></trkpt><trkpt lat="43.055905" lon="13.2229433"><ele>965.0</ele><time>2026-04-18T10:03:22.256Z</time></trkpt><trkpt lat="43.0559983" lon="13.222875"><ele>965.6</ele><time>2026-04-18T10:03:23.256Z</time></trkpt><trkpt lat="43.05609" lon="13.222805"><ele>966.2</ele><time>2026-04-18T10:03:24.256Z</time></trkpt><trkpt lat="43.0561883" lon="13.222745"><ele>966.8</ele><time>2026-04-18T10:03:25.256Z</time></trkpt><trkpt lat="43.0562833" lon="13.222705"><ele>967.4</ele><time>2026-04-18T10:03:26.256Z</time></trkpt><trkpt lat="43.0563733" lon="13.22269"><ele>968.0</ele><time>2026-04-18T10:03:27.256Z</time></trkpt><trkpt lat="43.0564533" lon="13.2226767"><ele>968.0000000000001</ele><time>2026-04-18T10:03:28.256Z</time></trkpt><trkpt lat="43.0565167" lon="13.2226517"><ele>968.0</ele><time>2026-04-18T10:03:29.256Z</time></trkpt><trkpt lat="43.05657" lon="13.2225917"><ele>968.0</ele><time>2026-04-18T10:03:30.256Z</time></trkpt><trkpt lat="43.0566167" lon="13.222495"><ele>968.0</ele><time>2026-04-18T10:03:31.256Z</time></trkpt><trkpt lat="43.0566583" lon="13.2223733"><ele>968.0000000000001</ele><time>2026-04-18T10:03:32.256Z</time></trkpt><trkpt lat="43.056695" lon="13.2222583"><ele>968.0</ele><time>2026-04-18T10:03:33.256Z</time></trkpt><trkpt lat="43.056735" lon="13.22214"><ele>968.6666666666667</ele><time>2026-04-18T10:03:34.256Z</time></trkpt><trkpt lat="43.0567817" lon="13.2220383"><ele>969.3333333333334</ele><time>2026-04-18T10:03:35.256Z</time></trkpt><trkpt lat="43.0568267" lon="13.2219467"><ele>970.0</ele><time>2026-04-18T10:03:36.256Z</time></trkpt><trkpt lat="43.05687" lon="13.22187"><ele>970.6666666666667</ele><time>2026-04-18T10:03:37.255Z</time></trkpt><trkpt lat="43.0569133" lon="13.2218033"><ele>971.3333333333334</ele><time>2026-04-18T10:03:38.256Z</time></trkpt><trkpt lat="43.0569633" lon="13.2217"><ele>972.0</ele><time>2026-04-18T10:03:40.256Z</time></trkpt><trkpt lat="43.056955" lon="13.2215917"><ele>972.6666666666666</ele><time>2026-04-18T10:03:42.256Z</time></trkpt><trkpt lat="43.0568933" lon="13.2214733"><ele>973.3333333333333</ele><time>2026-04-18T10:03:44.256Z</time></trkpt><trkpt lat="43.056835" lon="13.2214233"><ele>974.0</ele><time>2026-04-18T10:03:45.256Z</time></trkpt><trkpt lat="43.056765" lon="13.22138"><ele>974.6666666666666</ele><time>2026-04-18T10:03:46.256Z</time></trkpt><trkpt lat="43.056705" lon="13.2213383"><ele>975.3333333333333</ele><time>2026-04-18T10:03:47.256Z</time></trkpt><trkpt lat="43.05664" lon="13.2212883"><ele>976.0</ele><time>2026-04-18T10:03:48.256Z</time></trkpt><trkpt lat="43.05657" lon="13.22124"><ele>975.9999999999999</ele><time>2026-04-18T10:03:49.256Z</time></trkpt><trkpt lat="43.0565017" lon="13.2211883"><ele>976.0</ele><time>2026-04-18T10:03:50.256Z</time></trkpt><trkpt lat="43.0564267" lon="13.2211417"><ele>976.0</ele><time>2026-04-18T10:03:51.256Z</time></trkpt><trkpt lat="43.056345" lon="13.2210867"><ele>976.0</ele><time>2026-04-18T10:03:52.256Z</time></trkpt><trkpt lat="43.0562617" lon="13.2210317"><ele>975.9999999999999</ele><time>2026-04-18T10:03:53.256Z</time></trkpt><trkpt lat="43.0561717" lon="13.2209867"><ele>976.0</ele><time>2026-04-18T10:03:54.256Z</time></trkpt><trkpt lat="43.0560817" lon="13.2209383"><ele>975.9999999999999</ele><time>2026-04-18T10:03:55.256Z</time></trkpt><trkpt lat="43.0559983" lon="13.2208867"><ele>976.0</ele><time>2026-04-18T10:03:56.256Z</time></trkpt><trkpt lat="43.055925" lon="13.2208367"><ele>976.0</ele><time>2026-04-18T10:03:57.256Z</time></trkpt><trkpt lat="43.05584" lon="13.2207917"><ele>976.0</ele><time>2026-04-18T10:03:58.255Z</time></trkpt><trkpt lat="43.0557583" lon="13.220745"><ele>975.9999999999999</ele><time>2026-04-18T10:03:59.256Z</time></trkpt><trkpt lat="43.0556717" lon="13.2207"><ele>976.0</ele><time>2026-04-18T10:04:00.256Z</time></trkpt><trkpt lat="43.0555817" lon="13.22067"><ele>978.0</ele><time>2026-04-18T10:04:01.256Z</time></trkpt><trkpt lat="43.0554867" lon="13.22066"><ele>979.9999999999999</ele><time>2026-04-18T10:04:02.255Z</time></trkpt><trkpt lat="43.0553833" lon="13.2206617"><ele>981.9999999999999</ele><time>2026-04-18T10:04:03.256Z</time></trkpt><trkpt lat="43.0552733" lon="13.2206783"><ele>984.0</ele><time>2026-04-18T10:04:04.256Z</time></trkpt><trkpt lat="43.0551667" lon="13.2207067"><ele>986.0</ele><time>2026-04-18T10:04:05.256Z</time></trkpt><trkpt lat="43.0550683" lon="13.2207317"><ele>986.0000000000001</ele><time>2026-04-18T10:04:06.256Z</time></trkpt><trkpt lat="43.0549833" lon="13.2207483"><ele>986.0</ele><time>2026-04-18T10:04:07.256Z</time></trkpt><trkpt lat="43.0549033" lon="13.2207617"><ele>986.0</ele><time>2026-04-18T10:04:08.256Z</time></trkpt><trkpt lat="43.0548317" lon="13.220785"><ele>986.0</ele><time>2026-04-18T10:04:09.256Z</time></trkpt><trkpt lat="43.0547267" lon="13.220895"><ele>986.0000000000001</ele><time>2026-04-18T10:04:11.256Z</time></trkpt><trkpt lat="43.0546917" lon="13.22098"><ele>986.0</ele><time>2026-04-18T10:04:12.256Z</time></trkpt><trkpt lat="43.0546633" lon="13.221085"><ele>990.8571428571429</ele><time>2026-04-18T10:04:13.256Z</time></trkpt><trkpt lat="43.054645" lon="13.221195"><ele>995.7142857142858</ele><time>2026-04-18T10:04:14.256Z</time></trkpt><trkpt lat="43.0546283" lon="13.2213083"><ele>1000.5714285714287</ele><time>2026-04-18T10:04:15.256Z</time></trkpt><trkpt lat="43.0546217" lon="13.2214033"><ele>1005.4285714285714</ele><time>2026-04-18T10:04:16.256Z</time></trkpt><trkpt lat="43.054615" lon="13.22149"><ele>1010.2857142857144</ele><time>2026-04-18T10:04:17.256Z</time></trkpt><trkpt lat="43.0546133" lon="13.22158"><ele>1015.1428571428572</ele><time>2026-04-18T10:04:18.256Z</time></trkpt><trkpt lat="43.0546217" lon="13.2216683"><ele>1020.0</ele><time>2026-04-18T10:04:19.256Z</time></trkpt><trkpt lat="43.0546267" lon="13.2217633"><ele>1020.0</ele><time>2026-04-18T10:04:20.256Z</time></trkpt><trkpt lat="43.0546567" lon="13.2218533"><ele>1020.0</ele><time>2026-04-18T10:04:21.256Z</time></trkpt><trkpt lat="43.05466" lon="13.2219967"><ele>1020.0</ele><time>2026-04-18T10:04:23.256Z</time></trkpt><trkpt lat="43.0546" lon="13.2221067"><ele>1020.0</ele><time>2026-04-18T10:04:25.256Z</time></trkpt><trkpt lat="43.0544867" lon="13.2221917"><ele>1020.0</ele><time>2026-04-18T10:04:27.256Z</time></trkpt><trkpt lat="43.0544217" lon="13.2222267"><ele>1018.5</ele><time>2026-04-18T10:04:28.256Z</time></trkpt><trkpt lat="43.0543267" lon="13.22232"><ele>1017.0</ele><time>2026-04-18T10:04:30.256Z</time></trkpt><trkpt lat="43.05424" lon="13.2224267"><ele>1015.5</ele><time>2026-04-18T10:04:32.256Z</time></trkpt><trkpt lat="43.0541767" lon="13.2225633"><ele>1014.0</ele><time>2026-04-18T10:04:34.256Z</time></trkpt><trkpt lat="43.05414" lon="13.222725"><ele>1020.0</ele><time>2026-04-18T10:04:36.256Z</time></trkpt><trkpt lat="43.054105" lon="13.2228617"><ele>1026.0</ele><time>2026-04-18T10:04:38.256Z</time></trkpt><trkpt lat="43.054045" lon="13.2228983"><ele>1032.0</ele><time>2026-04-18T10:04:41.256Z</time></trkpt><trkpt lat="43.0540083" lon="13.222815"><ele>1038.0</ele><time>2026-04-18T10:04:44.256Z</time></trkpt><trkpt lat="43.0540114" lon="13.2226405"><ele>1044.0</ele><time>2026-04-18T10:04:47.256Z</time></trkpt><trkpt lat="43.0540122" lon="13.2225469"><ele>1050.0</ele><time>2026-04-18T10:04:48.256Z</time></trkpt><trkpt lat="43.0540132" lon="13.2224552"><ele>1050.0</ele><time>2026-04-18T10:04:49.256Z</time></trkpt><trkpt lat="43.0540164" lon="13.2223593"><ele>1050.0</ele><time>2026-04-18T10:04:50.256Z</time></trkpt><trkpt lat="43.0540236" lon="13.2222596"><ele>1050.0</ele><time>2026-04-18T10:04:51.256Z</time></trkpt><trkpt lat="43.0540316" lon="13.222155"><ele>1050.0</ele><time>2026-04-18T10:04:52.256Z</time></trkpt><trkpt lat="43.054042" lon="13.222039"><ele>1050.0</ele><time>2026-04-18T10:04:53.256Z</time></trkpt><trkpt lat="43.0540561" lon="13.2219143"><ele>1050.0</ele><time>2026-04-18T10:04:54.256Z</time></trkpt><trkpt lat="43.0540709" lon="13.2217941"><ele>1049.8333333333333</ele><time>2026-04-18T10:04:55.256Z</time></trkpt><trkpt lat="43.0540864" lon="13.2216813"><ele>1049.6666666666667</ele><time>2026-04-18T10:04:56.256Z</time></trkpt><trkpt lat="43.0540995" lon="13.2215647"><ele>1049.5</ele><time>2026-04-18T10:04:57.255Z</time></trkpt><trkpt lat="43.0541065" lon="13.2214481"><ele>1049.3333333333335</ele><time>2026-04-18T10:04:58.256Z</time></trkpt><trkpt lat="43.0541073" lon="13.2213311"><ele>1049.1666666666667</ele><time>2026-04-18T10:04:59.256Z</time></trkpt><trkpt lat="43.0541004" lon="13.2212169"><ele>1049.0</ele><time>2026-04-18T10:05:00.256Z</time></trkpt><trkpt lat="43.054083" lon="13.2210995"><ele>1048.8</ele><time>2026-04-18T10:05:01.256Z</time></trkpt><trkpt lat="43.0540604" lon="13.2209785"><ele>1048.6000000000001</ele><time>2026-04-18T10:05:02.256Z</time></trkpt><trkpt lat="43.0540353" lon="13.2208591"><ele>1048.4</ele><time>2026-04-18T10:05:03.256Z</time></trkpt><trkpt lat="43.0540052" lon="13.2207371"><ele>1048.2</ele><time>2026-04-18T10:05:04.256Z</time></trkpt><trkpt lat="43.0539732" lon="13.2206151"><ele>1048.0</ele><time>2026-04-18T10:05:05.256Z</time></trkpt><trkpt lat="43.0539449" lon="13.2204955"><ele>1045.6666666666665</ele><time>2026-04-18T10:05:06.256Z</time></trkpt><trkpt lat="43.0539157" lon="13.220384"><ele>1043.3333333333333</ele><time>2026-04-18T10:05:07.256Z</time></trkpt><trkpt lat="43.0538827" lon="13.2202824"><ele>1041.0</ele><time>2026-04-18T10:05:08.256Z</time></trkpt><trkpt lat="43.0538464" lon="13.2201908"><ele>1038.6666666666667</ele><time>2026-04-18T10:05:09.256Z</time></trkpt><trkpt lat="43.0537933" lon="13.2201231"><ele>1036.3333333333335</ele><time>2026-04-18T10:05:10.256Z</time></trkpt><trkpt lat="43.0537268" lon="13.2200706"><ele>1034.0</ele><time>2026-04-18T10:05:11.256Z</time></trkpt><trkpt lat="43.0536578" lon="13.2200378"><ele>1034.0</ele><time>2026-04-18T10:05:12.255Z</time></trkpt><trkpt lat="43.0535691" lon="13.2200436"><ele>1034.0</ele><time>2026-04-18T10:05:13.256Z</time></trkpt><trkpt lat="43.0534769" lon="13.220053"><ele>1034.0</ele><time>2026-04-18T10:05:14.256Z</time></trkpt><trkpt lat="43.0533901" lon="13.2200528"><ele>1034.0</ele><time>2026-04-18T10:05:15.256Z</time></trkpt><trkpt lat="43.0533139" lon="13.2200383"><ele>1034.0</ele><time>2026-04-18T10:05:16.256Z</time></trkpt><trkpt lat="43.053243" lon="13.2200032"><ele>1034.0</ele><time>2026-04-18T10:05:17.256Z</time></trkpt><trkpt lat="43.0531704" lon="13.2199504"><ele>1035.3333333333335</ele><time>2026-04-18T10:05:18.256Z</time></trkpt><trkpt lat="43.0530989" lon="13.2198896"><ele>1036.6666666666667</ele><time>2026-04-18T10:05:19.256Z</time></trkpt><trkpt lat="43.0530316" lon="13.2198319"><ele>1038.0</ele><time>2026-04-18T10:05:20.256Z</time></trkpt><trkpt lat="43.0529749" lon="13.2197915"><ele>1039.3333333333333</ele><time>2026-04-18T10:05:21.255Z</time></trkpt><trkpt lat="43.0528898" lon="13.2197944"><ele>1040.6666666666665</ele><time>2026-04-18T10:05:23.256Z</time></trkpt><trkpt lat="43.0528694" lon="13.2199255"><ele>1042.0</ele><time>2026-04-18T10:05:25.256Z</time></trkpt><trkpt lat="43.0529386" lon="13.220052"><ele>1047.8</ele><time>2026-04-18T10:05:27.256Z</time></trkpt><trkpt lat="43.0530414" lon="13.2201438"><ele>1053.6</ele><time>2026-04-18T10:05:28.255Z</time></trkpt><trkpt lat="43.0530976" lon="13.2202524"><ele>1059.3999999999999</ele><time>2026-04-18T10:05:29.256Z</time></trkpt><trkpt lat="43.0531391" lon="13.2203692"><ele>1065.2</ele><time>2026-04-18T10:05:30.256Z</time></trkpt><trkpt lat="43.0531647" lon="13.2204905"><ele>1071.0</ele><time>2026-04-18T10:05:31.255Z</time></trkpt><trkpt lat="43.0531723" lon="13.2206354"><ele>1075.5</ele><time>2026-04-18T10:05:32.256Z</time></trkpt><trkpt lat="43.0531618" lon="13.2207877"><ele>1080.0</ele><time>2026-04-18T10:05:33.256Z</time></trkpt><trkpt lat="43.0531461" lon="13.2209504"><ele>1084.5</ele><time>2026-04-18T10:05:34.255Z</time></trkpt><trkpt lat="43.0531328" lon="13.2211181"><ele>1089.0</ele><time>2026-04-18T10:05:35.255Z</time></trkpt><trkpt lat="43.0531213" lon="13.2212684"><ele>1089.0</ele><time>2026-04-18T10:05:36.256Z</time></trkpt><trkpt lat="43.0531144" lon="13.2214077"><ele>1089.0</ele><time>2026-04-18T10:05:37.256Z</time></trkpt><trkpt lat="43.05311" lon="13.2215439"><ele>1089.0</ele><time>2026-04-18T10:05:38.256Z</time></trkpt><trkpt lat="43.053104" lon="13.2216848"><ele>1089.0</ele><time>2026-04-18T10:05:39.256Z</time></trkpt><trkpt lat="43.0531011" lon="13.2218402"><ele>1089.0</ele><time>2026-04-18T10:05:40.256Z</time></trkpt><trkpt lat="43.0531026" lon="13.2220081"><ele>1090.2</ele><time>2026-04-18T10:05:41.256Z</time></trkpt><trkpt lat="43.0531065" lon="13.2221669"><ele>1091.4</ele><time>2026-04-18T10:05:42.256Z</time></trkpt><trkpt lat="43.053107" lon="13.2223184"><ele>1092.6</ele><time>2026-04-18T10:05:43.256Z</time></trkpt><trkpt lat="43.0531" lon="13.2224623"><ele>1093.8</ele><time>2026-04-18T10:05:44.256Z</time></trkpt><trkpt lat="43.0530904" lon="13.2225909"><ele>1095.0</ele><time>2026-04-18T10:05:45.256Z</time></trkpt><trkpt lat="43.0530769" lon="13.2227091"><ele>1095.3333333333333</ele><time>2026-04-18T10:05:46.256Z</time></trkpt><trkpt lat="43.0530534" lon="13.2228319"><ele>1095.6666666666667</ele><time>2026-04-18T10:05:47.256Z</time></trkpt><trkpt lat="43.05303" lon="13.2229491"><ele>1096.0</ele><time>2026-04-18T10:05:48.256Z</time></trkpt><trkpt lat="43.0529981" lon="13.2230615"><ele>1096.3333333333335</ele><time>2026-04-18T10:05:49.256Z</time></trkpt><trkpt lat="43.0529587" lon="13.2231616"><ele>1096.6666666666667</ele><time>2026-04-18T10:05:50.256Z</time></trkpt><trkpt lat="43.052915" lon="13.223256"><ele>1097.0</ele><time>2026-04-18T10:05:51.256Z</time></trkpt><trkpt lat="43.0528641" lon="13.223348"><ele>1097.4285714285716</ele><time>2026-04-18T10:05:52.256Z</time></trkpt><trkpt lat="43.0528129" lon="13.2234323"><ele>1097.857142857143</ele><time>2026-04-18T10:05:53.256Z</time></trkpt><trkpt lat="43.0527681" lon="13.2235047"><ele>1098.2857142857142</ele><time>2026-04-18T10:05:54.256Z</time></trkpt><trkpt lat="43.0527249" lon="13.2235734"><ele>1098.7142857142858</ele><time>2026-04-18T10:05:55.256Z</time></trkpt><trkpt lat="43.0526862" lon="13.223646"><ele>1099.142857142857</ele><time>2026-04-18T10:05:56.256Z</time></trkpt><trkpt lat="43.0526607" lon="13.2237289"><ele>1099.5714285714287</ele><time>2026-04-18T10:05:57.256Z</time></trkpt><trkpt lat="43.0526513" lon="13.2238215"><ele>1100.0</ele><time>2026-04-18T10:05:58.256Z</time></trkpt><trkpt lat="43.0526585" lon="13.2239233"><ele>1101.4</ele><time>2026-04-18T10:05:59.256Z</time></trkpt><trkpt lat="43.0526904" lon="13.2240286"><ele>1102.8</ele><time>2026-04-18T10:06:00.256Z</time></trkpt><trkpt lat="43.0527389" lon="13.224136"><ele>1104.2</ele><time>2026-04-18T10:06:01.256Z</time></trkpt><trkpt lat="43.0527953" lon="13.2242378"><ele>1105.6</ele><time>2026-04-18T10:06:02.256Z</time></trkpt><trkpt lat="43.0528585" lon="13.2243362"><ele>1107.0</ele><time>2026-04-18T10:06:03.256Z</time></trkpt><trkpt lat="43.0529184" lon="13.2244437"><ele>1107.0</ele><time>2026-04-18T10:06:04.256Z</time></trkpt><trkpt lat="43.0529708" lon="13.2245672"><ele>1107.0</ele><time>2026-04-18T10:06:05.256Z</time></trkpt><trkpt lat="43.0530144" lon="13.2247095"><ele>1107.0</ele><time>2026-04-18T10:06:06.256Z</time></trkpt><trkpt lat="43.053053" lon="13.2248638"><ele>1107.0</ele><time>2026-04-18T10:06:07.256Z</time></trkpt><trkpt lat="43.053093" lon="13.2250193"><ele>1109.5</ele><time>2026-04-18T10:06:08.256Z</time></trkpt><trkpt lat="43.0531362" lon="13.2251776"><ele>1112.0</ele><time>2026-04-18T10:06:09.256Z</time></trkpt><trkpt lat="43.0531777" lon="13.2253351"><ele>1114.5</ele><time>2026-04-18T10:06:10.256Z</time></trkpt><trkpt lat="43.0532175" lon="13.2254937"><ele>1117.0</ele><time>2026-04-18T10:06:11.256Z</time></trkpt><trkpt lat="43.0532482" lon="13.2256384"><ele>1118.3333333333333</ele><time>2026-04-18T10:06:12.256Z</time></trkpt><trkpt lat="43.0532764" lon="13.225767"><ele>1119.6666666666665</ele><time>2026-04-18T10:06:13.256Z</time></trkpt><trkpt lat="43.0532982" lon="13.2258827"><ele>1121.0</ele><time>2026-04-18T10:06:14.256Z</time></trkpt><trkpt lat="43.0533161" lon="13.2259944"><ele>1122.3333333333333</ele><time>2026-04-18T10:06:15.256Z</time></trkpt><trkpt lat="43.0533285" lon="13.2261052"><ele>1123.6666666666667</ele><time>2026-04-18T10:06:16.256Z</time></trkpt><trkpt lat="43.0533361" lon="13.2262213"><ele>1125.0</ele><time>2026-04-18T10:06:17.256Z</time></trkpt><trkpt lat="43.0533369" lon="13.2263423"><ele>1124.0</ele><time>2026-04-18T10:06:18.256Z</time></trkpt><trkpt lat="43.0533318" lon="13.2264648"><ele>1123.0</ele><time>2026-04-18T10:06:19.256Z</time></trkpt><trkpt lat="43.0533234" lon="13.226594"><ele>1122.0</ele><time>2026-04-18T10:06:20.256Z</time></trkpt><trkpt lat="43.0533139" lon="13.2267277"><ele>1121.0</ele><time>2026-04-18T10:06:21.256Z</time></trkpt><trkpt lat="43.0533027" lon="13.2268605"><ele>1120.0</ele><time>2026-04-18T10:06:22.256Z</time></trkpt><trkpt lat="43.0532871" lon="13.2269822"><ele>1120.0</ele><time>2026-04-18T10:06:23.256Z</time></trkpt><trkpt lat="43.0532703" lon="13.2270951"><ele>1120.0</ele><time>2026-04-18T10:06:24.256Z</time></trkpt><trkpt lat="43.0532497" lon="13.2272033"><ele>1120.0</ele><time>2026-04-18T10:06:25.256Z</time></trkpt><trkpt lat="43.0532322" lon="13.2273121"><ele>1120.0</ele><time>2026-04-18T10:06:26.256Z</time></trkpt><trkpt lat="43.0532116" lon="13.2274163"><ele>1120.0</ele><time>2026-04-18T10:06:27.256Z</time></trkpt><trkpt lat="43.0531752" lon="13.2275074"><ele>1120.0</ele><time>2026-04-18T10:06:28.256Z</time></trkpt><trkpt lat="43.0531075" lon="13.2275785"><ele>1118.0</ele><time>2026-04-18T10:06:29.256Z</time></trkpt><trkpt lat="43.053034" lon="13.2276519"><ele>1116.0</ele><time>2026-04-18T10:06:30.256Z</time></trkpt><trkpt lat="43.0529505" lon="13.2277192"><ele>1114.0</ele><time>2026-04-18T10:06:31.256Z</time></trkpt><trkpt lat="43.0528708" lon="13.2277771"><ele>1112.0</ele><time>2026-04-18T10:06:32.256Z</time></trkpt><trkpt lat="43.0527861" lon="13.227824"><ele>1110.0</ele><time>2026-04-18T10:06:33.256Z</time></trkpt><trkpt lat="43.0526976" lon="13.2278561"><ele>1110.0</ele><time>2026-04-18T10:06:34.256Z</time></trkpt><trkpt lat="43.0526128" lon="13.2278821"><ele>1110.0</ele><time>2026-04-18T10:06:35.256Z</time></trkpt><trkpt lat="43.0525249" lon="13.2279082"><ele>1110.0</ele><time>2026-04-18T10:06:36.256Z</time></trkpt><trkpt lat="43.05244" lon="13.2279377"><ele>1110.0</ele><time>2026-04-18T10:06:37.256Z</time></trkpt><trkpt lat="43.0523513" lon="13.2279644"><ele>1110.0</ele><time>2026-04-18T10:06:38.256Z</time></trkpt><trkpt lat="43.052263" lon="13.2279906"><ele>1110.0</ele><time>2026-04-18T10:06:39.256Z</time></trkpt><trkpt lat="43.0521744" lon="13.2280217"><ele>1110.2</ele><time>2026-04-18T10:06:40.256Z</time></trkpt><trkpt lat="43.0520819" lon="13.2280561"><ele>1110.4</ele><time>2026-04-18T10:06:41.256Z</time></trkpt><trkpt lat="43.0519927" lon="13.2280891"><ele>1110.6</ele><time>2026-04-18T10:06:42.256Z</time></trkpt><trkpt lat="43.0519047" lon="13.2281244"><ele>1110.8</ele><time>2026-04-18T10:06:43.256Z</time></trkpt><trkpt lat="43.0518219" lon="13.2281563"><ele>1111.0</ele><time>2026-04-18T10:06:44.256Z</time></trkpt><trkpt lat="43.051731" lon="13.2281927"><ele>1111.0</ele><time>2026-04-18T10:06:45.256Z</time></trkpt><trkpt lat="43.0516418" lon="13.2282241"><ele>1111.0</ele><time>2026-04-18T10:06:46.256Z</time></trkpt><trkpt lat="43.05155" lon="13.2282582"><ele>1111.0</ele><time>2026-04-18T10:06:47.256Z</time></trkpt><trkpt lat="43.05145" lon="13.2282984"><ele>1111.0</ele><time>2026-04-18T10:06:48.256Z</time></trkpt><trkpt lat="43.0513494" lon="13.2283391"><ele>1111.0</ele><time>2026-04-18T10:06:49.256Z</time></trkpt><trkpt lat="43.0512392" lon="13.2283841"><ele>1114.3999999999999</ele><time>2026-04-18T10:06:50.256Z</time></trkpt><trkpt lat="43.0511301" lon="13.228437"><ele>1117.8</ele><time>2026-04-18T10:06:51.256Z</time></trkpt><trkpt lat="43.0510233" lon="13.2284945"><ele>1121.1999999999998</ele><time>2026-04-18T10:06:52.256Z</time></trkpt><trkpt lat="43.0509212" lon="13.2285552"><ele>1124.6</ele><time>2026-04-18T10:06:53.256Z</time></trkpt><trkpt lat="43.0508271" lon="13.2286146"><ele>1128.0</ele><time>2026-04-18T10:06:54.256Z</time></trkpt><trkpt lat="43.0507358" lon="13.2286756"><ele>1132.2</ele><time>2026-04-18T10:06:55.256Z</time></trkpt><trkpt lat="43.050643" lon="13.2287274"><ele>1136.4</ele><time>2026-04-18T10:06:56.256Z</time></trkpt><trkpt lat="43.0505486" lon="13.2287731"><ele>1140.6000000000001</ele><time>2026-04-18T10:06:57.256Z</time></trkpt><trkpt lat="43.0504519" lon="13.2288298"><ele>1144.8</ele><time>2026-04-18T10:06:58.256Z</time></trkpt><trkpt lat="43.050351" lon="13.2288909"><ele>1149.0</ele><time>2026-04-18T10:06:59.256Z</time></trkpt><trkpt lat="43.0502518" lon="13.2289553"><ele>1148.0</ele><time>2026-04-18T10:07:00.256Z</time></trkpt><trkpt lat="43.0501527" lon="13.2290181"><ele>1147.0</ele><time>2026-04-18T10:07:01.256Z</time></trkpt><trkpt lat="43.0500495" lon="13.2290813"><ele>1146.0</ele><time>2026-04-18T10:07:02.256Z</time></trkpt><trkpt lat="43.0499451" lon="13.2291497"><ele>1145.0</ele><time>2026-04-18T10:07:03.256Z</time></trkpt><trkpt lat="43.0498422" lon="13.2292174"><ele>1145.0</ele><time>2026-04-18T10:07:04.256Z</time></trkpt><trkpt lat="43.0497379" lon="13.2292851"><ele>1145.0</ele><time>2026-04-18T10:07:05.256Z</time></trkpt><trkpt lat="43.0496383" lon="13.2293433"><ele>1145.0</ele><time>2026-04-18T10:07:06.256Z</time></trkpt><trkpt lat="43.04955" lon="13.2294"><ele>1145.0</ele><time>2026-04-18T10:07:07.256Z</time></trkpt><trkpt lat="43.04947" lon="13.22945"><ele>1145.0</ele><time>2026-04-18T10:07:08.256Z</time></trkpt><trkpt lat="43.0493983" lon="13.2294933"><ele>1145.0</ele><time>2026-04-18T10:07:09.256Z</time></trkpt><trkpt lat="43.0492883" lon="13.2295283"><ele>1145.0</ele><time>2026-04-18T10:07:11.256Z</time></trkpt><trkpt lat="43.0491817" lon="13.229475"><ele>1145.0</ele><time>2026-04-18T10:07:13.256Z</time></trkpt><trkpt lat="43.0491483" lon="13.2293667"><ele>1145.0</ele><time>2026-04-18T10:07:15.256Z</time></trkpt><trkpt lat="43.0492117" lon="13.22926"><ele>1145.0</ele><time>2026-04-18T10:07:17.256Z</time></trkpt><trkpt lat="43.0492617" lon="13.2292067"><ele>1145.0</ele><time>2026-04-18T10:07:18.256Z</time></trkpt><trkpt lat="43.049335" lon="13.229155"><ele>1145.0</ele><time>2026-04-18T10:07:19.256Z</time></trkpt><trkpt lat="43.04941" lon="13.229095"><ele>1145.0</ele><time>2026-04-18T10:07:20.256Z</time></trkpt><trkpt lat="43.04948" lon="13.2290317"><ele>1145.0</ele><time>2026-04-18T10:07:21.256Z</time></trkpt><trkpt lat="43.04954" lon="13.2289633"><ele>1145.0</ele><time>2026-04-18T10:07:22.256Z</time></trkpt><trkpt lat="43.0496083" lon="13.228885"><ele>1145.0</ele><time>2026-04-18T10:07:23.256Z</time></trkpt><trkpt lat="43.0496733" lon="13.2287983"><ele>1148.6</ele><time>2026-04-18T10:07:24.256Z</time></trkpt><trkpt lat="43.0497367" lon="13.2287083"><ele>1152.2</ele><time>2026-04-18T10:07:25.256Z</time></trkpt><trkpt lat="43.0498" lon="13.2286067"><ele>1155.8</ele><time>2026-04-18T10:07:26.256Z</time></trkpt><trkpt lat="43.0498533" lon="13.228505"><ele>1159.4</ele><time>2026-04-18T10:07:27.256Z</time></trkpt><trkpt lat="43.049905" lon="13.228395"><ele>1163.0</ele><time>2026-04-18T10:07:28.256Z</time></trkpt><trkpt lat="43.0499517" lon="13.2282933"><ele>1162.8</ele><time>2026-04-18T10:07:29.256Z</time></trkpt><trkpt lat="43.0500183" lon="13.2281933"><ele>1162.6</ele><time>2026-04-18T10:07:30.256Z</time></trkpt><trkpt lat="43.0500767" lon="13.2280967"><ele>1162.4</ele><time>2026-04-18T10:07:31.256Z</time></trkpt><trkpt lat="43.050125" lon="13.2279967"><ele>1162.2</ele><time>2026-04-18T10:07:32.256Z</time></trkpt><trkpt lat="43.0501717" lon="13.2278967"><ele>1162.0</ele><time>2026-04-18T10:07:33.256Z</time></trkpt><trkpt lat="43.0502267" lon="13.2277917"><ele>1162.0</ele><time>2026-04-18T10:07:34.256Z</time></trkpt><trkpt lat="43.050285" lon="13.227695"><ele>1162.0</ele><time>2026-04-18T10:07:35.256Z</time></trkpt><trkpt lat="43.0503367" lon="13.227595"><ele>1162.0</ele><time>2026-04-18T10:07:36.255Z</time></trkpt><trkpt lat="43.0504033" lon="13.22748"><ele>1162.0</ele><time>2026-04-18T10:07:37.256Z</time></trkpt><trkpt lat="43.0504683" lon="13.2273667"><ele>1162.0</ele><time>2026-04-18T10:07:38.256Z</time></trkpt><trkpt lat="43.0505383" lon="13.2272417"><ele>1161.8</ele><time>2026-04-18T10:07:39.256Z</time></trkpt><trkpt lat="43.0506017" lon="13.22712"><ele>1161.6</ele><time>2026-04-18T10:07:40.255Z</time></trkpt><trkpt lat="43.0506633" lon="13.2270067"><ele>1161.3999999999999</ele><time>2026-04-18T10:07:41.256Z</time></trkpt><trkpt lat="43.0507217" lon="13.2268917"><ele>1161.2</ele><time>2026-04-18T10:07:42.256Z</time></trkpt><trkpt lat="43.0507983" lon="13.2267583"><ele>1161.0</ele><time>2026-04-18T10:07:43.256Z</time></trkpt><trkpt lat="43.0508717" lon="13.2266283"><ele>1161.0</ele><time>2026-04-18T10:07:44.256Z</time></trkpt><trkpt lat="43.0509433" lon="13.2264933"><ele>1161.0</ele><time>2026-04-18T10:07:45.256Z</time></trkpt><trkpt lat="43.0510233" lon="13.2263583"><ele>1161.0</ele><time>2026-04-18T10:07:46.256Z</time></trkpt><trkpt lat="43.05109" lon="13.22621"><ele>1161.0</ele><time>2026-04-18T10:07:47.255Z</time></trkpt><trkpt lat="43.05116" lon="13.2260767"><ele>1163.6</ele><time>2026-04-18T10:07:48.256Z</time></trkpt><trkpt lat="43.0512217" lon="13.225955"><ele>1166.1999999999998</ele><time>2026-04-18T10:07:49.256Z</time></trkpt><trkpt lat="43.0512883" lon="13.2258233"><ele>1168.8000000000002</ele><time>2026-04-18T10:07:50.256Z</time></trkpt><trkpt lat="43.0513583" lon="13.2257"><ele>1171.4</ele><time>2026-04-18T10:07:51.256Z</time></trkpt><trkpt lat="43.0514233" lon="13.22558"><ele>1174.0</ele><time>2026-04-18T10:07:52.256Z</time></trkpt><trkpt lat="43.0514817" lon="13.2254667"><ele>1175.1666666666665</ele><time>2026-04-18T10:07:53.256Z</time></trkpt><trkpt lat="43.051535" lon="13.2253533"><ele>1176.3333333333333</ele><time>2026-04-18T10:07:54.256Z</time></trkpt><trkpt lat="43.0515817" lon="13.2252417"><ele>1177.5</ele><time>2026-04-18T10:07:55.256Z</time></trkpt><trkpt lat="43.0516083" lon="13.2251433"><ele>1178.6666666666667</ele><time>2026-04-18T10:07:56.256Z</time></trkpt><trkpt lat="43.0516117" lon="13.2250517"><ele>1179.8333333333335</ele><time>2026-04-18T10:07:57.256Z</time></trkpt><trkpt lat="43.0515733" lon="13.2249433"><ele>1181.0</ele><time>2026-04-18T10:07:59.256Z</time></trkpt><trkpt lat="43.0514983" lon="13.224895"><ele>1181.0</ele><time>2026-04-18T10:08:02.256Z</time></trkpt><trkpt lat="43.0514" lon="13.22493"><ele>1181.0</ele><time>2026-04-18T10:08:04.256Z</time></trkpt><trkpt lat="43.0512933" lon="13.2250033"><ele>1181.0</ele><time>2026-04-18T10:08:06.256Z</time></trkpt><trkpt lat="43.0511917" lon="13.2250917"><ele>1181.0</ele><time>2026-04-18T10:08:08.256Z</time></trkpt><trkpt lat="43.0510917" lon="13.2251883"><ele>1181.0</ele><time>2026-04-18T10:08:10.256Z</time></trkpt><trkpt lat="43.0510283" lon="13.22524"><ele>1181.0</ele><time>2026-04-18T10:08:11.256Z</time></trkpt><trkpt lat="43.0509567" lon="13.2252917"><ele>1181.0</ele><time>2026-04-18T10:08:12.256Z</time></trkpt><trkpt lat="43.0508883" lon="13.2253433"><ele>1181.0</ele><time>2026-04-18T10:08:13.256Z</time></trkpt><trkpt lat="43.05082" lon="13.2254"><ele>1181.0</ele><time>2026-04-18T10:08:14.256Z</time></trkpt><trkpt lat="43.0507417" lon="13.225455"><ele>1181.0</ele><time>2026-04-18T10:08:15.256Z</time></trkpt><trkpt lat="43.05066" lon="13.2255133"><ele>1182.1666666666667</ele><time>2026-04-18T10:08:16.256Z</time></trkpt><trkpt lat="43.05059" lon="13.2255617"><ele>1183.3333333333335</ele><time>2026-04-18T10:08:17.256Z</time></trkpt><trkpt lat="43.05052" lon="13.225615"><ele>1184.5</ele><time>2026-04-18T10:08:18.256Z</time></trkpt><trkpt lat="43.0504517" lon="13.2256583"><ele>1185.6666666666667</ele><time>2026-04-18T10:08:19.256Z</time></trkpt><trkpt lat="43.0503817" lon="13.225695"><ele>1186.8333333333333</ele><time>2026-04-18T10:08:20.256Z</time></trkpt><trkpt lat="43.0503067" lon="13.2257267"><ele>1188.0</ele><time>2026-04-18T10:08:21.256Z</time></trkpt><trkpt lat="43.05023" lon="13.22577"><ele>1188.0</ele><time>2026-04-18T10:08:22.256Z</time></trkpt><trkpt lat="43.0501433" lon="13.22582"><ele>1188.0</ele><time>2026-04-18T10:08:23.256Z</time></trkpt><trkpt lat="43.0500533" lon="13.225865"><ele>1188.0</ele><time>2026-04-18T10:08:24.256Z</time></trkpt><trkpt lat="43.049955" lon="13.2259117"><ele>1188.0</ele><time>2026-04-18T10:08:25.256Z</time></trkpt><trkpt lat="43.0498433" lon="13.2259733"><ele>1188.0</ele><time>2026-04-18T10:08:26.256Z</time></trkpt><trkpt lat="43.049725" lon="13.226035"><ele>1190.8</ele><time>2026-04-18T10:08:27.256Z</time></trkpt><trkpt lat="43.04963" lon="13.2260917"><ele>1193.6</ele><time>2026-04-18T10:08:28.255Z</time></trkpt><trkpt lat="43.04954" lon="13.2261467"><ele>1196.4</ele><time>2026-04-18T10:08:29.256Z</time></trkpt><trkpt lat="43.0494617" lon="13.2261867"><ele>1199.2</ele><time>2026-04-18T10:08:30.256Z</time></trkpt><trkpt lat="43.04938" lon="13.226215"><ele>1202.0</ele><time>2026-04-18T10:08:31.256Z</time></trkpt><trkpt lat="43.0492917" lon="13.2262383"><ele>1202.0</ele><time>2026-04-18T10:08:32.256Z</time></trkpt><trkpt lat="43.0492033" lon="13.2262617"><ele>1202.0</ele><time>2026-04-18T10:08:33.255Z</time></trkpt><trkpt lat="43.0490967" lon="13.2262833"><ele>1202.0</ele><time>2026-04-18T10:08:34.256Z</time></trkpt><trkpt lat="43.0489967" lon="13.2263033"><ele>1202.0</ele><time>2026-04-18T10:08:35.256Z</time></trkpt><trkpt lat="43.0488883" lon="13.2263233"><ele>1202.0</ele><time>2026-04-18T10:08:36.256Z</time></trkpt><trkpt lat="43.048775" lon="13.22635"><ele>1204.0</ele><time>2026-04-18T10:08:37.256Z</time></trkpt><trkpt lat="43.0486783" lon="13.2263733"><ele>1206.0</ele><time>2026-04-18T10:08:38.256Z</time></trkpt><trkpt lat="43.0485717" lon="13.226395"><ele>1208.0</ele><time>2026-04-18T10:08:39.256Z</time></trkpt><trkpt lat="43.048465" lon="13.2264233"><ele>1210.0</ele><time>2026-04-18T10:08:40.256Z</time></trkpt><trkpt lat="43.0483517" lon="13.226445"><ele>1212.0</ele><time>2026-04-18T10:08:41.256Z</time></trkpt><trkpt lat="43.04824" lon="13.2264717"><ele>1212.6</ele><time>2026-04-18T10:08:42.256Z</time></trkpt><trkpt lat="43.0481267" lon="13.226505"><ele>1213.2</ele><time>2026-04-18T10:08:43.256Z</time></trkpt><trkpt lat="43.04802" lon="13.2265283"><ele>1213.8</ele><time>2026-04-18T10:08:44.256Z</time></trkpt><trkpt lat="43.0479133" lon="13.2265583"><ele>1214.4</ele><time>2026-04-18T10:08:45.256Z</time></trkpt><trkpt lat="43.0478083" lon="13.2265817"><ele>1215.0</ele><time>2026-04-18T10:08:46.256Z</time></trkpt><trkpt lat="43.0477083" lon="13.2265933"><ele>1215.0</ele><time>2026-04-18T10:08:47.256Z</time></trkpt><trkpt lat="43.0476167" lon="13.2265983"><ele>1215.0</ele><time>2026-04-18T10:08:48.256Z</time></trkpt><trkpt lat="43.0475167" lon="13.226595"><ele>1215.0</ele><time>2026-04-18T10:08:49.255Z</time></trkpt><trkpt lat="43.04741" lon="13.22659"><ele>1215.0</ele><time>2026-04-18T10:08:50.256Z</time></trkpt><trkpt lat="43.0473" lon="13.22659"><ele>1215.0</ele><time>2026-04-18T10:08:51.256Z</time></trkpt><trkpt lat="43.0471867" lon="13.226585"><ele>1217.0</ele><time>2026-04-18T10:08:52.256Z</time></trkpt><trkpt lat="43.0470733" lon="13.2265817"><ele>1219.0</ele><time>2026-04-18T10:08:53.256Z</time></trkpt><trkpt lat="43.0469717" lon="13.22657"><ele>1221.0</ele><time>2026-04-18T10:08:54.256Z</time></trkpt><trkpt lat="43.0468733" lon="13.2265583"><ele>1223.0</ele><time>2026-04-18T10:08:55.256Z</time></trkpt><trkpt lat="43.0467683" lon="13.2265617"><ele>1225.0</ele><time>2026-04-18T10:08:56.256Z</time></trkpt><trkpt lat="43.046665" lon="13.2265633"><ele>1227.0</ele><time>2026-04-18T10:08:57.256Z</time></trkpt><trkpt lat="43.0465683" lon="13.22657"><ele>1229.0</ele><time>2026-04-18T10:08:58.256Z</time></trkpt><trkpt lat="43.0464667" lon="13.2265533"><ele>1231.0</ele><time>2026-04-18T10:08:59.256Z</time></trkpt><trkpt lat="43.0463583" lon="13.226535"><ele>1233.0</ele><time>2026-04-18T10:09:00.256Z</time></trkpt><trkpt lat="43.0462633" lon="13.2265183"><ele>1235.0</ele><time>2026-04-18T10:09:01.256Z</time></trkpt><trkpt lat="43.0461733" lon="13.2264983"><ele>1235.0</ele><time>2026-04-18T10:09:02.256Z</time></trkpt><trkpt lat="43.046085" lon="13.2264833"><ele>1235.0</ele><time>2026-04-18T10:09:03.256Z</time></trkpt><trkpt lat="43.0459983" lon="13.2264767"><ele>1235.0</ele><time>2026-04-18T10:09:04.256Z</time></trkpt><trkpt lat="43.0458983" lon="13.22647"><ele>1235.0</ele><time>2026-04-18T10:09:05.256Z</time></trkpt><trkpt lat="43.0457867" lon="13.2264633"><ele>1235.0</ele><time>2026-04-18T10:09:06.256Z</time></trkpt><trkpt lat="43.0456883" lon="13.2264517"><ele>1238.2</ele><time>2026-04-18T10:09:07.255Z</time></trkpt><trkpt lat="43.045585" lon="13.226435"><ele>1241.4</ele><time>2026-04-18T10:09:08.255Z</time></trkpt><trkpt lat="43.0454767" lon="13.2264317"><ele>1244.6</ele><time>2026-04-18T10:09:09.256Z</time></trkpt><trkpt lat="43.0453633" lon="13.22643"><ele>1247.8</ele><time>2026-04-18T10:09:10.256Z</time></trkpt><trkpt lat="43.04526" lon="13.2264183"><ele>1251.0</ele><time>2026-04-18T10:09:11.256Z</time></trkpt><trkpt lat="43.045145" lon="13.2264067"><ele>1251.0</ele><time>2026-04-18T10:09:12.256Z</time></trkpt><trkpt lat="43.0450417" lon="13.2263867"><ele>1251.0</ele><time>2026-04-18T10:09:13.256Z</time></trkpt><trkpt lat="43.0449417" lon="13.2263667"><ele>1251.0</ele><time>2026-04-18T10:09:14.256Z</time></trkpt><trkpt lat="43.044855" lon="13.22635"><ele>1251.0</ele><time>2026-04-18T10:09:15.256Z</time></trkpt><trkpt lat="43.0447533" lon="13.2263233"><ele>1251.0</ele><time>2026-04-18T10:09:16.256Z</time></trkpt><trkpt lat="43.04465" lon="13.2262967"><ele>1253.0</ele><time>2026-04-18T10:09:17.256Z</time></trkpt><trkpt lat="43.0445417" lon="13.226245"><ele>1255.0</ele><time>2026-04-18T10:09:18.256Z</time></trkpt><trkpt lat="43.0444333" lon="13.22618"><ele>1257.0</ele><time>2026-04-18T10:09:19.256Z</time></trkpt><trkpt lat="43.0443283" lon="13.2261"><ele>1259.0</ele><time>2026-04-18T10:09:20.256Z</time></trkpt><trkpt lat="43.04422" lon="13.2260117"><ele>1257.0</ele><time>2026-04-18T10:09:21.256Z</time></trkpt><trkpt lat="43.0441217" lon="13.2259267"><ele>1255.0</ele><time>2026-04-18T10:09:22.256Z</time></trkpt><trkpt lat="43.044015" lon="13.225845"><ele>1253.0</ele><time>2026-04-18T10:09:23.256Z</time></trkpt><trkpt lat="43.0439167" lon="13.225755"><ele>1251.0</ele><time>2026-04-18T10:09:24.256Z</time></trkpt><trkpt lat="43.0438167" lon="13.225665"><ele>1255.0</ele><time>2026-04-18T10:09:25.256Z</time></trkpt><trkpt lat="43.0437283" lon="13.2255717"><ele>1259.0</ele><time>2026-04-18T10:09:26.256Z</time></trkpt><trkpt lat="43.0436283" lon="13.225485"><ele>1263.0</ele><time>2026-04-18T10:09:27.256Z</time></trkpt><trkpt lat="43.043545" lon="13.2253917"><ele>1267.0</ele><time>2026-04-18T10:09:28.256Z</time></trkpt><trkpt lat="43.04342" lon="13.2253017"><ele>1267.0</ele><time>2026-04-18T10:09:29.255Z</time></trkpt><trkpt lat="43.04331" lon="13.2252067"><ele>1267.0</ele><time>2026-04-18T10:09:30.256Z</time></trkpt><trkpt lat="43.0432083" lon="13.2251033"><ele>1267.0</ele><time>2026-04-18T10:09:31.256Z</time></trkpt><trkpt lat="43.04312" lon="13.2249933"><ele>1267.0</ele><time>2026-04-18T10:09:32.256Z</time></trkpt><trkpt lat="43.0430267" lon="13.2248783"><ele>1267.5</ele><time>2026-04-18T10:09:33.256Z</time></trkpt><trkpt lat="43.042955" lon="13.224765"><ele>1268.0</ele><time>2026-04-18T10:09:34.256Z</time></trkpt><trkpt lat="43.0428767" lon="13.2246433"><ele>1268.5</ele><time>2026-04-18T10:09:35.256Z</time></trkpt><trkpt lat="43.0427983" lon="13.22451"><ele>1269.0</ele><time>2026-04-18T10:09:36.256Z</time></trkpt><trkpt lat="43.0427283" lon="13.2243783"><ele>1269.0</ele><time>2026-04-18T10:09:37.256Z</time></trkpt><trkpt lat="43.0426533" lon="13.2242567"><ele>1269.0</ele><time>2026-04-18T10:09:38.256Z</time></trkpt><trkpt lat="43.0425783" lon="13.2241333"><ele>1269.0</ele><time>2026-04-18T10:09:39.256Z</time></trkpt><trkpt lat="43.0425133" lon="13.22401"><ele>1269.0</ele><time>2026-04-18T10:09:40.256Z</time></trkpt><trkpt lat="43.0424283" lon="13.2238833"><ele>1272.25</ele><time>2026-04-18T10:09:41.256Z</time></trkpt><trkpt lat="43.0423417" lon="13.2237583"><ele>1275.5</ele><time>2026-04-18T10:09:42.256Z</time></trkpt><trkpt lat="43.0422617" lon="13.2236433"><ele>1278.75</ele><time>2026-04-18T10:09:43.256Z</time></trkpt><trkpt lat="43.042195" lon="13.2235233"><ele>1282.0</ele><time>2026-04-18T10:09:44.256Z</time></trkpt><trkpt lat="43.0421333" lon="13.2234033"><ele>1282.0</ele><time>2026-04-18T10:09:45.256Z</time></trkpt><trkpt lat="43.042065" lon="13.2232917"><ele>1282.0</ele><time>2026-04-18T10:09:46.256Z</time></trkpt><trkpt lat="43.041995" lon="13.2231883"><ele>1282.0</ele><time>2026-04-18T10:09:47.256Z</time></trkpt><trkpt lat="43.04192" lon="13.2230817"><ele>1282.0</ele><time>2026-04-18T10:09:48.255Z</time></trkpt><trkpt lat="43.04185" lon="13.2229583"><ele>1282.0</ele><time>2026-04-18T10:09:49.256Z</time></trkpt><trkpt lat="43.0417967" lon="13.2228283"><ele>1283.8</ele><time>2026-04-18T10:09:50.256Z</time></trkpt><trkpt lat="43.04173" lon="13.2227167"><ele>1285.6</ele><time>2026-04-18T10:09:51.256Z</time></trkpt><trkpt lat="43.0416767" lon="13.2226017"><ele>1287.3999999999999</ele><time>2026-04-18T10:09:52.256Z</time></trkpt><trkpt lat="43.0416183" lon="13.22248"><ele>1289.1999999999998</ele><time>2026-04-18T10:09:53.256Z</time></trkpt><trkpt lat="43.0415633" lon="13.22237"><ele>1291.0</ele><time>2026-04-18T10:09:54.256Z</time></trkpt><trkpt lat="43.0415067" lon="13.2222817"><ele>1291.3333333333333</ele><time>2026-04-18T10:09:55.255Z</time></trkpt><trkpt lat="43.04146" lon="13.2221833"><ele>1291.6666666666665</ele><time>2026-04-18T10:09:56.256Z</time></trkpt><trkpt lat="43.0414133" lon="13.22208"><ele>1292.0</ele><time>2026-04-18T10:09:57.256Z</time></trkpt><trkpt lat="43.0413717" lon="13.22198"><ele>1292.3333333333333</ele><time>2026-04-18T10:09:58.256Z</time></trkpt><trkpt lat="43.0413267" lon="13.2219033"><ele>1292.6666666666667</ele><time>2026-04-18T10:09:59.256Z</time></trkpt><trkpt lat="43.041265" lon="13.2218417"><ele>1293.0</ele><time>2026-04-18T10:10:00.256Z</time></trkpt><trkpt lat="43.041185" lon="13.221815"><ele>1293.0</ele><time>2026-04-18T10:10:01.256Z</time></trkpt><trkpt lat="43.041075" lon="13.2218067"><ele>1293.0</ele><time>2026-04-18T10:10:02.256Z</time></trkpt><trkpt lat="43.0409517" lon="13.2218317"><ele>1293.0</ele><time>2026-04-18T10:10:03.256Z</time></trkpt><trkpt lat="43.0408333" lon="13.22185"><ele>1293.0</ele><time>2026-04-18T10:10:04.256Z</time></trkpt><trkpt lat="43.0407067" lon="13.2218667"><ele>1295.0</ele><time>2026-04-18T10:10:05.256Z</time></trkpt><trkpt lat="43.0405883" lon="13.2218717"><ele>1297.0</ele><time>2026-04-18T10:10:06.256Z</time></trkpt><trkpt lat="43.0404583" lon="13.2218717"><ele>1299.0</ele><time>2026-04-18T10:10:07.256Z</time></trkpt><trkpt lat="43.0403317" lon="13.2218833"><ele>1301.0</ele><time>2026-04-18T10:10:08.256Z</time></trkpt><trkpt lat="43.040195" lon="13.2219017"><ele>1301.0</ele><time>2026-04-18T10:10:09.256Z</time></trkpt><trkpt lat="43.04007" lon="13.22191"><ele>1301.0</ele><time>2026-04-18T10:10:10.256Z</time></trkpt><trkpt lat="43.0399667" lon="13.2219167"><ele>1301.0</ele><time>2026-04-18T10:10:11.256Z</time></trkpt><trkpt lat="43.0398667" lon="13.2219267"><ele>1301.0</ele><time>2026-04-18T10:10:12.256Z</time></trkpt><trkpt lat="43.03977" lon="13.2219433"><ele>1301.0</ele><time>2026-04-18T10:10:13.256Z</time></trkpt><trkpt lat="43.03968" lon="13.2219483"><ele>1302.6666666666667</ele><time>2026-04-18T10:10:14.256Z</time></trkpt><trkpt lat="43.0396117" lon="13.221955"><ele>1304.3333333333335</ele><time>2026-04-18T10:10:15.256Z</time></trkpt><trkpt lat="43.0395167" lon="13.2219567"><ele>1306.0</ele><time>2026-04-18T10:10:17.256Z</time></trkpt><trkpt lat="43.0394383" lon="13.2219633"><ele>1307.6666666666667</ele><time>2026-04-18T10:10:20.256Z</time></trkpt><trkpt lat="43.0393717" lon="13.2219433"><ele>1309.3333333333333</ele><time>2026-04-18T10:10:22.256Z</time></trkpt><trkpt lat="43.0392583" lon="13.22198"><ele>1311.0</ele><time>2026-04-18T10:10:24.256Z</time></trkpt><trkpt lat="43.0391983" lon="13.2220083"><ele>1312.0</ele><time>2026-04-18T10:10:25.256Z</time></trkpt><trkpt lat="43.0391183" lon="13.22202"><ele>1313.0</ele><time>2026-04-18T10:10:26.256Z</time></trkpt><trkpt lat="43.03902" lon="13.222035"><ele>1314.0</ele><time>2026-04-18T10:10:27.256Z</time></trkpt><trkpt lat="43.0389033" lon="13.2220567"><ele>1315.0</ele><time>2026-04-18T10:10:28.256Z</time></trkpt><trkpt lat="43.038775" lon="13.2220783"><ele>1316.0</ele><time>2026-04-18T10:10:29.256Z</time></trkpt><trkpt lat="43.0386633" lon="13.2221133"><ele>1316.0</ele><time>2026-04-18T10:10:30.256Z</time></trkpt><trkpt lat="43.03856" lon="13.22213"><ele>1316.0</ele><time>2026-04-18T10:10:31.256Z</time></trkpt><trkpt lat="43.03845" lon="13.222155"><ele>1316.0</ele><time>2026-04-18T10:10:32.256Z</time></trkpt><trkpt lat="43.0383483" lon="13.2221883"><ele>1316.0</ele><time>2026-04-18T10:10:33.256Z</time></trkpt><trkpt lat="43.0382417" lon="13.2222183"><ele>1316.0</ele><time>2026-04-18T10:10:34.256Z</time></trkpt><trkpt lat="43.0381133" lon="13.2222417"><ele>1317.0</ele><time>2026-04-18T10:10:35.256Z</time></trkpt><trkpt lat="43.037975" lon="13.2222683"><ele>1318.0</ele><time>2026-04-18T10:10:36.256Z</time></trkpt><trkpt lat="43.0378333" lon="13.2222967"><ele>1319.0</ele><time>2026-04-18T10:10:37.256Z</time></trkpt><trkpt lat="43.0377033" lon="13.2223183"><ele>1320.0</ele><time>2026-04-18T10:10:38.256Z</time></trkpt><trkpt lat="43.0375883" lon="13.22234"><ele>1320.0</ele><time>2026-04-18T10:10:39.256Z</time></trkpt><trkpt lat="43.0374733" lon="13.22236"><ele>1320.0</ele><time>2026-04-18T10:10:40.256Z</time></trkpt><trkpt lat="43.03738" lon="13.22238"><ele>1320.0</ele><time>2026-04-18T10:10:41.256Z</time></trkpt><trkpt lat="43.0372783" lon="13.222405"><ele>1320.0</ele><time>2026-04-18T10:10:42.256Z</time></trkpt><trkpt lat="43.03718" lon="13.2224183"><ele>1320.0</ele><time>2026-04-18T10:10:43.255Z</time></trkpt><trkpt lat="43.0370517" lon="13.2224367"><ele>1320.6666666666667</ele><time>2026-04-18T10:10:44.256Z</time></trkpt><trkpt lat="43.0369067" lon="13.22246"><ele>1321.3333333333335</ele><time>2026-04-18T10:10:45.256Z</time></trkpt><trkpt lat="43.036745" lon="13.2224883"><ele>1322.0</ele><time>2026-04-18T10:10:46.256Z</time></trkpt><trkpt lat="43.0365867" lon="13.2225133"><ele>1322.0</ele><time>2026-04-18T10:10:47.255Z</time></trkpt><trkpt lat="43.0364317" lon="13.22255"><ele>1322.0</ele><time>2026-04-18T10:10:48.256Z</time></trkpt><trkpt lat="43.03628" lon="13.22258"><ele>1322.0</ele><time>2026-04-18T10:10:49.256Z</time></trkpt><trkpt lat="43.0361317" lon="13.222615"><ele>1322.0</ele><time>2026-04-18T10:10:50.256Z</time></trkpt><trkpt lat="43.0359917" lon="13.22264"><ele>1322.0</ele><time>2026-04-18T10:10:51.256Z</time></trkpt><trkpt lat="43.0358483" lon="13.2226517"><ele>1322.0</ele><time>2026-04-18T10:10:52.256Z</time></trkpt><trkpt lat="43.0356867" lon="13.2226667"><ele>1322.0</ele><time>2026-04-18T10:10:53.256Z</time></trkpt><trkpt lat="43.03553" lon="13.2226767"><ele>1326.6666666666667</ele><time>2026-04-18T10:10:54.256Z</time></trkpt><trkpt lat="43.0353733" lon="13.2226517"><ele>1331.3333333333333</ele><time>2026-04-18T10:10:55.256Z</time></trkpt><trkpt lat="43.0352283" lon="13.2226017"><ele>1336.0</ele><time>2026-04-18T10:10:56.256Z</time></trkpt><trkpt lat="43.0350933" lon="13.2225367"><ele>1337.0</ele><time>2026-04-18T10:10:57.256Z</time></trkpt><trkpt lat="43.0349583" lon="13.2224467"><ele>1338.0</ele><time>2026-04-18T10:10:58.256Z</time></trkpt><trkpt lat="43.0348317" lon="13.2223367"><ele>1339.0</ele><time>2026-04-18T10:10:59.255Z</time></trkpt><trkpt lat="43.0347017" lon="13.2222317"><ele>1339.0</ele><time>2026-04-18T10:11:00.256Z</time></trkpt><trkpt lat="43.03457" lon="13.2221233"><ele>1339.0</ele><time>2026-04-18T10:11:01.256Z</time></trkpt><trkpt lat="43.034435" lon="13.2220117"><ele>1339.0</ele><time>2026-04-18T10:11:02.256Z</time></trkpt><trkpt lat="43.034305" lon="13.2219033"><ele>1339.0</ele><time>2026-04-18T10:11:03.256Z</time></trkpt><trkpt lat="43.0341617" lon="13.2218033"><ele>1339.0</ele><time>2026-04-18T10:11:04.256Z</time></trkpt><trkpt lat="43.0340433" lon="13.2216767"><ele>1339.0</ele><time>2026-04-18T10:11:05.256Z</time></trkpt><trkpt lat="43.0339333" lon="13.22156"><ele>1342.6666666666665</ele><time>2026-04-18T10:11:06.256Z</time></trkpt><trkpt lat="43.0338183" lon="13.2214167"><ele>1346.3333333333333</ele><time>2026-04-18T10:11:07.256Z</time></trkpt><trkpt lat="43.0337083" lon="13.22125"><ele>1350.0</ele><time>2026-04-18T10:11:08.256Z</time></trkpt><trkpt lat="43.0335967" lon="13.22108"><ele>1350.0</ele><time>2026-04-18T10:11:09.256Z</time></trkpt><trkpt lat="43.0334933" lon="13.2208983"><ele>1350.0</ele><time>2026-04-18T10:11:10.256Z</time></trkpt><trkpt lat="43.0333883" lon="13.22075"><ele>1350.0</ele><time>2026-04-18T10:11:11.256Z</time></trkpt><trkpt lat="43.0332883" lon="13.2205983"><ele>1352.75</ele><time>2026-04-18T10:11:12.256Z</time></trkpt><trkpt lat="43.0331933" lon="13.2204467"><ele>1355.5</ele><time>2026-04-18T10:11:13.256Z</time></trkpt><trkpt lat="43.033105" lon="13.22029"><ele>1358.25</ele><time>2026-04-18T10:11:14.256Z</time></trkpt><trkpt lat="43.033015" lon="13.2201483"><ele>1361.0</ele><time>2026-04-18T10:11:15.256Z</time></trkpt><trkpt lat="43.032925" lon="13.2200067"><ele>1361.0</ele><time>2026-04-18T10:11:16.256Z</time></trkpt><trkpt lat="43.032825" lon="13.2198667"><ele>1361.0</ele><time>2026-04-18T10:11:17.256Z</time></trkpt><trkpt lat="43.0327367" lon="13.2197183"><ele>1361.0</ele><time>2026-04-18T10:11:18.256Z</time></trkpt><trkpt lat="43.0326433" lon="13.2195683"><ele>1361.0</ele><time>2026-04-18T10:11:19.256Z</time></trkpt><trkpt lat="43.0325433" lon="13.2194067"><ele>1361.75</ele><time>2026-04-18T10:11:20.256Z</time></trkpt><trkpt lat="43.032435" lon="13.2192617"><ele>1362.5</ele><time>2026-04-18T10:11:21.256Z</time></trkpt><trkpt lat="43.0323333" lon="13.21914"><ele>1363.25</ele><time>2026-04-18T10:11:22.256Z</time></trkpt><trkpt lat="43.0322367" lon="13.2190367"><ele>1364.0</ele><time>2026-04-18T10:11:23.256Z</time></trkpt><trkpt lat="43.03214" lon="13.218925"><ele>1364.0</ele><time>2026-04-18T10:11:24.256Z</time></trkpt><trkpt lat="43.0320433" lon="13.2188217"><ele>1364.0</ele><time>2026-04-18T10:11:25.256Z</time></trkpt><trkpt lat="43.0319383" lon="13.218725"><ele>1364.0</ele><time>2026-04-18T10:11:26.256Z</time></trkpt><trkpt lat="43.0318283" lon="13.2186367"><ele>1364.0</ele><time>2026-04-18T10:11:27.256Z</time></trkpt><trkpt lat="43.0317167" lon="13.2185583"><ele>1367.25</ele><time>2026-04-18T10:11:28.256Z</time></trkpt><trkpt lat="43.031605" lon="13.218475"><ele>1370.5</ele><time>2026-04-18T10:11:29.255Z</time></trkpt><trkpt lat="43.0314883" lon="13.2183833"><ele>1373.75</ele><time>2026-04-18T10:11:30.256Z</time></trkpt><trkpt lat="43.031375" lon="13.2182967"><ele>1377.0</ele><time>2026-04-18T10:11:31.256Z</time></trkpt><trkpt lat="43.03125" lon="13.2182167"><ele>1378.25</ele><time>2026-04-18T10:11:32.256Z</time></trkpt><trkpt lat="43.0311267" lon="13.2181317"><ele>1379.5</ele><time>2026-04-18T10:11:33.256Z</time></trkpt><trkpt lat="43.0310033" lon="13.21805"><ele>1380.75</ele><time>2026-04-18T10:11:34.256Z</time></trkpt><trkpt lat="43.03088" lon="13.217965"><ele>1382.0</ele><time>2026-04-18T10:11:35.256Z</time></trkpt><trkpt lat="43.0307517" lon="13.2178717"><ele>1382.0</ele><time>2026-04-18T10:11:36.256Z</time></trkpt><trkpt lat="43.030615" lon="13.2177717"><ele>1382.0</ele><time>2026-04-18T10:11:37.256Z</time></trkpt><trkpt lat="43.03047" lon="13.217665"><ele>1382.0</ele><time>2026-04-18T10:11:38.256Z</time></trkpt><trkpt lat="43.0303233" lon="13.21756"><ele>1382.0</ele><time>2026-04-18T10:11:39.256Z</time></trkpt><trkpt lat="43.030195" lon="13.2174617"><ele>1382.0</ele><time>2026-04-18T10:11:40.256Z</time></trkpt><trkpt lat="43.03007" lon="13.2173733"><ele>1382.0</ele><time>2026-04-18T10:11:41.256Z</time></trkpt><trkpt lat="43.0299533" lon="13.217295"><ele>1382.0</ele><time>2026-04-18T10:11:42.256Z</time></trkpt><trkpt lat="43.0298383" lon="13.2172117"><ele>1382.5</ele><time>2026-04-18T10:11:43.256Z</time></trkpt><trkpt lat="43.029715" lon="13.2171283"><ele>1383.0</ele><time>2026-04-18T10:11:44.256Z</time></trkpt><trkpt lat="43.0295883" lon="13.217045"><ele>1383.5</ele><time>2026-04-18T10:11:45.256Z</time></trkpt><trkpt lat="43.02947" lon="13.2169633"><ele>1384.0</ele><time>2026-04-18T10:11:46.256Z</time></trkpt><trkpt lat="43.0293517" lon="13.21688"><ele>1384.0</ele><time>2026-04-18T10:11:47.256Z</time></trkpt><trkpt lat="43.0292267" lon="13.216795"><ele>1384.0</ele><time>2026-04-18T10:11:48.256Z</time></trkpt><trkpt lat="43.0290867" lon="13.2167183"><ele>1384.0</ele><time>2026-04-18T10:11:49.256Z</time></trkpt><trkpt lat="43.0289367" lon="13.2166433"><ele>1384.3333333333333</ele><time>2026-04-18T10:11:50.256Z</time></trkpt><trkpt lat="43.02877" lon="13.216575"><ele>1384.6666666666667</ele><time>2026-04-18T10:11:51.256Z</time></trkpt><trkpt lat="43.0286167" lon="13.2165117"><ele>1385.0</ele><time>2026-04-18T10:11:52.256Z</time></trkpt><trkpt lat="43.02845" lon="13.21646"><ele>1386.75</ele><time>2026-04-18T10:11:53.256Z</time></trkpt><trkpt lat="43.0283067" lon="13.2164233"><ele>1388.5</ele><time>2026-04-18T10:11:54.256Z</time></trkpt><trkpt lat="43.0281683" lon="13.2164133"><ele>1390.25</ele><time>2026-04-18T10:11:55.256Z</time></trkpt><trkpt lat="43.0280433" lon="13.21642"><ele>1392.0</ele><time>2026-04-18T10:11:56.256Z</time></trkpt><trkpt lat="43.02792" lon="13.2164467"><ele>1393.5</ele><time>2026-04-18T10:11:57.256Z</time></trkpt><trkpt lat="43.02779" lon="13.2164967"><ele>1395.0</ele><time>2026-04-18T10:11:58.256Z</time></trkpt><trkpt lat="43.027655" lon="13.2165667"><ele>1396.5</ele><time>2026-04-18T10:11:59.256Z</time></trkpt><trkpt lat="43.0275267" lon="13.2166483"><ele>1398.0</ele><time>2026-04-18T10:12:00.255Z</time></trkpt><trkpt lat="43.0274017" lon="13.2167417"><ele>1398.0</ele><time>2026-04-18T10:12:01.256Z</time></trkpt><trkpt lat="43.02727" lon="13.2168517"><ele>1398.0</ele><time>2026-04-18T10:12:02.256Z</time></trkpt><trkpt lat="43.0271433" lon="13.21697"><ele>1398.0</ele><time>2026-04-18T10:12:03.256Z</time></trkpt><trkpt lat="43.0270317" lon="13.2170883"><ele>1398.0</ele><time>2026-04-18T10:12:04.256Z</time></trkpt><trkpt lat="43.02693" lon="13.2171983"><ele>1397.25</ele><time>2026-04-18T10:12:05.256Z</time></trkpt><trkpt lat="43.0268317" lon="13.2173217"><ele>1396.5</ele><time>2026-04-18T10:12:06.256Z</time></trkpt><trkpt lat="43.0267367" lon="13.2174467"><ele>1395.75</ele><time>2026-04-18T10:12:07.256Z</time></trkpt><trkpt lat="43.0266533" lon="13.2175733"><ele>1395.0</ele><time>2026-04-18T10:12:08.256Z</time></trkpt><trkpt lat="43.0265767" lon="13.217715"><ele>1395.0</ele><time>2026-04-18T10:12:09.256Z</time></trkpt><trkpt lat="43.02651" lon="13.217855"><ele>1395.0</ele><time>2026-04-18T10:12:10.255Z</time></trkpt><trkpt lat="43.02645" lon="13.2180033"><ele>1395.0</ele><time>2026-04-18T10:12:11.256Z</time></trkpt><trkpt lat="43.0264067" lon="13.2181717"><ele>1395.0</ele><time>2026-04-18T10:12:12.256Z</time></trkpt><trkpt lat="43.02636" lon="13.218345"><ele>1397.0</ele><time>2026-04-18T10:12:13.256Z</time></trkpt><trkpt lat="43.0263033" lon="13.2185233"><ele>1399.0</ele><time>2026-04-18T10:12:14.256Z</time></trkpt><trkpt lat="43.026255" lon="13.2186983"><ele>1401.0</ele><time>2026-04-18T10:12:15.256Z</time></trkpt><trkpt lat="43.0261983" lon="13.2188933"><ele>1403.0</ele><time>2026-04-18T10:12:16.256Z</time></trkpt><trkpt lat="43.0261283" lon="13.219085"><ele>1406.0</ele><time>2026-04-18T10:12:17.256Z</time></trkpt><trkpt lat="43.0260667" lon="13.2192817"><ele>1409.0</ele><time>2026-04-18T10:12:18.256Z</time></trkpt><trkpt lat="43.02601" lon="13.219475"><ele>1412.0</ele><time>2026-04-18T10:12:19.256Z</time></trkpt><trkpt lat="43.0259516" lon="13.2196546"><ele>1415.25</ele><time>2026-04-18T10:12:20.256Z</time></trkpt><trkpt lat="43.0258953" lon="13.2198224"><ele>1418.5</ele><time>2026-04-18T10:12:21.256Z</time></trkpt><trkpt lat="43.0258363" lon="13.2199909"><ele>1421.75</ele><time>2026-04-18T10:12:22.256Z</time></trkpt><trkpt lat="43.0257787" lon="13.2201594"><ele>1425.0</ele><time>2026-04-18T10:12:23.256Z</time></trkpt><trkpt lat="43.0257173" lon="13.2203371"><ele>1419.6666666666667</ele><time>2026-04-18T10:12:24.256Z</time></trkpt><trkpt lat="43.0256577" lon="13.2205228"><ele>1414.3333333333335</ele><time>2026-04-18T10:12:25.256Z</time></trkpt><trkpt lat="43.0255952" lon="13.2207187"><ele>1409.0</ele><time>2026-04-18T10:12:26.256Z</time></trkpt><trkpt lat="43.0255352" lon="13.2209263"><ele>1409.0</ele><time>2026-04-18T10:12:27.256Z</time></trkpt><trkpt lat="43.025473" lon="13.2211502"><ele>1409.0</ele><time>2026-04-18T10:12:28.256Z</time></trkpt><trkpt lat="43.0254136" lon="13.2213856"><ele>1409.0</ele><time>2026-04-18T10:12:29.256Z</time></trkpt><trkpt lat="43.0253589" lon="13.2216254"><ele>1412.6666666666667</ele><time>2026-04-18T10:12:30.256Z</time></trkpt><trkpt lat="43.0253075" lon="13.221857"><ele>1416.3333333333333</ele><time>2026-04-18T10:12:31.256Z</time></trkpt><trkpt lat="43.0252529" lon="13.2220704"><ele>1420.0</ele><time>2026-04-18T10:12:32.256Z</time></trkpt><trkpt lat="43.0251984" lon="13.2222716"><ele>1423.0</ele><time>2026-04-18T10:12:33.256Z</time></trkpt><trkpt lat="43.0251477" lon="13.2224615"><ele>1426.0</ele><time>2026-04-18T10:12:34.256Z</time></trkpt><trkpt lat="43.0251042" lon="13.2226425"><ele>1429.0</ele><time>2026-04-18T10:12:35.256Z</time></trkpt><trkpt lat="43.025062" lon="13.2228198"><ele>1432.0</ele><time>2026-04-18T10:12:36.256Z</time></trkpt><trkpt lat="43.0250248" lon="13.2229953"><ele>1435.0</ele><time>2026-04-18T10:12:37.256Z</time></trkpt><trkpt lat="43.0249813" lon="13.2231689"><ele>1438.0</ele><time>2026-04-18T10:12:38.256Z</time></trkpt><trkpt lat="43.024929" lon="13.2233366"><ele>1441.0</ele><time>2026-04-18T10:12:39.256Z</time></trkpt><trkpt lat="43.024876" lon="13.2234875"><ele>1444.0</ele><time>2026-04-18T10:12:40.256Z</time></trkpt><trkpt lat="43.024824" lon="13.2236205"><ele>1444.5</ele><time>2026-04-18T10:12:41.256Z</time></trkpt><trkpt lat="43.0247748" lon="13.2237362"><ele>1445.0</ele><time>2026-04-18T10:12:42.256Z</time></trkpt><trkpt lat="43.0247237" lon="13.2238313"><ele>1445.5</ele><time>2026-04-18T10:12:43.256Z</time></trkpt><trkpt lat="43.0246601" lon="13.2238832"><ele>1446.0</ele><time>2026-04-18T10:12:44.256Z</time></trkpt><trkpt lat="43.0245998" lon="13.2239357"><ele>1446.5</ele><time>2026-04-18T10:12:45.256Z</time></trkpt><trkpt lat="43.0245358" lon="13.2239513"><ele>1447.0</ele><time>2026-04-18T10:12:46.256Z</time></trkpt><trkpt lat="43.0244666" lon="13.2239395"><ele>1447.0</ele><time>2026-04-18T10:12:47.256Z</time></trkpt><trkpt lat="43.0243881" lon="13.2238981"><ele>1447.0</ele><time>2026-04-18T10:12:48.256Z</time></trkpt><trkpt lat="43.0243079" lon="13.2238027"><ele>1447.0</ele><time>2026-04-18T10:12:49.256Z</time></trkpt><trkpt lat="43.0242482" lon="13.2237088"><ele>1447.0</ele><time>2026-04-18T10:12:50.256Z</time></trkpt><trkpt lat="43.0241985" lon="13.2236182"><ele>1447.0</ele><time>2026-04-18T10:12:51.256Z</time></trkpt><trkpt lat="43.0241697" lon="13.2235044"><ele>1447.0</ele><time>2026-04-18T10:12:52.256Z</time></trkpt><trkpt lat="43.0241491" lon="13.2233672"><ele>1447.0</ele><time>2026-04-18T10:12:53.256Z</time></trkpt><trkpt lat="43.0241275" lon="13.223212"><ele>1447.0</ele><time>2026-04-18T10:12:54.256Z</time></trkpt><trkpt lat="43.0241032" lon="13.223056"><ele>1447.0</ele><time>2026-04-18T10:12:55.256Z</time></trkpt><trkpt lat="43.0240718" lon="13.2229078"><ele>1447.0</ele><time>2026-04-18T10:12:56.256Z</time></trkpt><trkpt lat="43.0240354" lon="13.2227607"><ele>1449.25</ele><time>2026-04-18T10:12:57.255Z</time></trkpt><trkpt lat="43.0239936" lon="13.2226095"><ele>1451.5</ele><time>2026-04-18T10:12:58.256Z</time></trkpt><trkpt lat="43.0239453" lon="13.2224636"><ele>1453.75</ele><time>2026-04-18T10:12:59.256Z</time></trkpt><trkpt lat="43.0238916" lon="13.2223262"><ele>1456.0</ele><time>2026-04-18T10:13:00.256Z</time></trkpt><trkpt lat="43.0238338" lon="13.2221991"><ele>1456.0</ele><time>2026-04-18T10:13:01.256Z</time></trkpt><trkpt lat="43.0237703" lon="13.2220727"><ele>1456.0</ele><time>2026-04-18T10:13:02.256Z</time></trkpt><trkpt lat="43.0236976" lon="13.2219553"><ele>1456.0</ele><time>2026-04-18T10:13:03.256Z</time></trkpt><trkpt lat="43.0236089" lon="13.2218399"><ele>1456.0</ele><time>2026-04-18T10:13:04.256Z</time></trkpt><trkpt lat="43.0235089" lon="13.221734"><ele>1456.0</ele><time>2026-04-18T10:13:05.256Z</time></trkpt><trkpt lat="43.0234026" lon="13.2216357"><ele>1456.0</ele><time>2026-04-18T10:13:06.256Z</time></trkpt><trkpt lat="43.0232943" lon="13.2215408"><ele>1456.0</ele><time>2026-04-18T10:13:07.256Z</time></trkpt><trkpt lat="43.02318" lon="13.221443"><ele>1456.0</ele><time>2026-04-18T10:13:08.256Z</time></trkpt><trkpt lat="43.0230631" lon="13.2213408"><ele>1457.75</ele><time>2026-04-18T10:13:09.256Z</time></trkpt><trkpt lat="43.0229443" lon="13.2212384"><ele>1459.5</ele><time>2026-04-18T10:13:10.256Z</time></trkpt><trkpt lat="43.0228253" lon="13.2211394"><ele>1461.25</ele><time>2026-04-18T10:13:11.256Z</time></trkpt><trkpt lat="43.0227053" lon="13.2210406"><ele>1463.0</ele><time>2026-04-18T10:13:12.256Z</time></trkpt><trkpt lat="43.0225864" lon="13.220941"><ele>1462.25</ele><time>2026-04-18T10:13:13.256Z</time></trkpt><trkpt lat="43.0224673" lon="13.2208397"><ele>1461.5</ele><time>2026-04-18T10:13:14.256Z</time></trkpt><trkpt lat="43.0223504" lon="13.2207367"><ele>1460.75</ele><time>2026-04-18T10:13:15.256Z</time></trkpt><trkpt lat="43.0222342" lon="13.2206319"><ele>1460.0</ele><time>2026-04-18T10:13:16.256Z</time></trkpt><trkpt lat="43.0221165" lon="13.2205328"><ele>1460.0</ele><time>2026-04-18T10:13:17.256Z</time></trkpt><trkpt lat="43.0220019" lon="13.2204362"><ele>1460.0</ele><time>2026-04-18T10:13:18.256Z</time></trkpt><trkpt lat="43.0218894" lon="13.2203393"><ele>1460.0</ele><time>2026-04-18T10:13:19.256Z</time></trkpt><trkpt lat="43.0217731" lon="13.2202406"><ele>1460.0</ele><time>2026-04-18T10:13:20.256Z</time></trkpt><trkpt lat="43.0216537" lon="13.2201346"><ele>1462.3333333333335</ele><time>2026-04-18T10:13:21.256Z</time></trkpt><trkpt lat="43.0215294" lon="13.2200248"><ele>1464.6666666666667</ele><time>2026-04-18T10:13:22.256Z</time></trkpt><trkpt lat="43.0214039" lon="13.2199148"><ele>1467.0</ele><time>2026-04-18T10:13:23.256Z</time></trkpt><trkpt lat="43.0212746" lon="13.2198011"><ele>1467.0</ele><time>2026-04-18T10:13:24.256Z</time></trkpt><trkpt lat="43.0211406" lon="13.2196896"><ele>1467.0</ele><time>2026-04-18T10:13:25.256Z</time></trkpt><trkpt lat="43.0210124" lon="13.2195765"><ele>1467.0</ele><time>2026-04-18T10:13:26.256Z</time></trkpt><trkpt lat="43.0208791" lon="13.2194604"><ele>1469.5</ele><time>2026-04-18T10:13:27.256Z</time></trkpt><trkpt lat="43.0207461" lon="13.2193468"><ele>1472.0</ele><time>2026-04-18T10:13:28.256Z</time></trkpt><trkpt lat="43.0206185" lon="13.2192425"><ele>1474.5</ele><time>2026-04-18T10:13:29.256Z</time></trkpt><trkpt lat="43.0204974" lon="13.2191399"><ele>1477.0</ele><time>2026-04-18T10:13:30.256Z</time></trkpt><trkpt lat="43.0203758" lon="13.219034"><ele>1474.6666666666665</ele><time>2026-04-18T10:13:31.256Z</time></trkpt><trkpt lat="43.0202506" lon="13.2189254"><ele>1472.3333333333333</ele><time>2026-04-18T10:13:32.256Z</time></trkpt><trkpt lat="43.0201226" lon="13.2188128"><ele>1470.0</ele><time>2026-04-18T10:13:33.256Z</time></trkpt><trkpt lat="43.0199897" lon="13.2187005"><ele>1475.0</ele><time>2026-04-18T10:13:34.256Z</time></trkpt><trkpt lat="43.0198519" lon="13.2185843"><ele>1480.0</ele><time>2026-04-18T10:13:35.256Z</time></trkpt><trkpt lat="43.0197178" lon="13.2184657"><ele>1485.0</ele><time>2026-04-18T10:13:36.256Z</time></trkpt><trkpt lat="43.0195792" lon="13.2183479"><ele>1485.0</ele><time>2026-04-18T10:13:37.256Z</time></trkpt><trkpt lat="43.0194428" lon="13.2182287"><ele>1485.0</ele><time>2026-04-18T10:13:38.256Z</time></trkpt><trkpt lat="43.0193104" lon="13.2181109"><ele>1485.0</ele><time>2026-04-18T10:13:39.256Z</time></trkpt><trkpt lat="43.0191775" lon="13.2179998"><ele>1486.6666666666667</ele><time>2026-04-18T10:13:40.256Z</time></trkpt><trkpt lat="43.0190428" lon="13.2178905"><ele>1488.3333333333335</ele><time>2026-04-18T10:13:41.256Z</time></trkpt><trkpt lat="43.0189072" lon="13.2177781"><ele>1490.0</ele><time>2026-04-18T10:13:42.256Z</time></trkpt><trkpt lat="43.0187747" lon="13.217659"><ele>1490.0</ele><time>2026-04-18T10:13:43.256Z</time></trkpt><trkpt lat="43.0186444" lon="13.2175374"><ele>1490.0</ele><time>2026-04-18T10:13:44.256Z</time></trkpt><trkpt lat="43.0185132" lon="13.2174168"><ele>1490.0</ele><time>2026-04-18T10:13:45.256Z</time></trkpt><trkpt lat="43.0183789" lon="13.217298"><ele>1491.25</ele><time>2026-04-18T10:13:46.255Z</time></trkpt><trkpt lat="43.0182451" lon="13.2171843"><ele>1492.5</ele><time>2026-04-18T10:13:47.256Z</time></trkpt><trkpt lat="43.0181181" lon="13.2170768"><ele>1493.75</ele><time>2026-04-18T10:13:48.256Z</time></trkpt><trkpt lat="43.0179986" lon="13.2169768"><ele>1495.0</ele><time>2026-04-18T10:13:49.255Z</time></trkpt><trkpt lat="43.0178833" lon="13.2168765"><ele>1495.0</ele><time>2026-04-18T10:13:50.256Z</time></trkpt><trkpt lat="43.0177682" lon="13.2167741"><ele>1495.0</ele><time>2026-04-18T10:13:51.256Z</time></trkpt><trkpt lat="43.0176558" lon="13.2166663"><ele>1495.0</ele><time>2026-04-18T10:13:52.256Z</time></trkpt><trkpt lat="43.0175379" lon="13.2165612"><ele>1495.0</ele><time>2026-04-18T10:13:53.256Z</time></trkpt><trkpt lat="43.0174146" lon="13.2164539"><ele>1496.6666666666665</ele><time>2026-04-18T10:13:54.256Z</time></trkpt><trkpt lat="43.0172858" lon="13.2163456"><ele>1498.3333333333333</ele><time>2026-04-18T10:13:55.256Z</time></trkpt><trkpt lat="43.0171581" lon="13.2162362"><ele>1500.0</ele><time>2026-04-18T10:13:56.256Z</time></trkpt><trkpt lat="43.0170326" lon="13.2161296"><ele>1500.0</ele><time>2026-04-18T10:13:57.256Z</time></trkpt><trkpt lat="43.0169082" lon="13.2160286"><ele>1500.0</ele><time>2026-04-18T10:13:58.256Z</time></trkpt><trkpt lat="43.0167956" lon="13.2159302"><ele>1500.0</ele><time>2026-04-18T10:13:59.256Z</time></trkpt><trkpt lat="43.0166845" lon="13.2158391"><ele>1500.0</ele><time>2026-04-18T10:14:00.256Z</time></trkpt><trkpt lat="43.01658" lon="13.2157467"><ele>1500.0</ele><time>2026-04-18T10:14:01.256Z</time></trkpt><trkpt lat="43.0164633" lon="13.2156567"><ele>1500.0</ele><time>2026-04-18T10:14:02.256Z</time></trkpt><trkpt lat="43.0163567" lon="13.2155583"><ele>1500.0</ele><time>2026-04-18T10:14:03.256Z</time></trkpt><trkpt lat="43.0162383" lon="13.2154667"><ele>1500.0</ele><time>2026-04-18T10:14:04.256Z</time></trkpt><trkpt lat="43.0161267" lon="13.2153733"><ele>1500.0</ele><time>2026-04-18T10:14:05.256Z</time></trkpt><trkpt lat="43.016025" lon="13.2152783"><ele>1500.0</ele><time>2026-04-18T10:14:06.256Z</time></trkpt><trkpt lat="43.0159183" lon="13.2152"><ele>1500.0</ele><time>2026-04-18T10:14:07.256Z</time></trkpt><trkpt lat="43.0158183" lon="13.2151183"><ele>1500.0</ele><time>2026-04-18T10:14:08.256Z</time></trkpt><trkpt lat="43.0157317" lon="13.21503"><ele>1499.1666666666667</ele><time>2026-04-18T10:14:09.256Z</time></trkpt><trkpt lat="43.0156517" lon="13.2149533"><ele>1498.3333333333333</ele><time>2026-04-18T10:14:10.256Z</time></trkpt><trkpt lat="43.0155733" lon="13.2149033"><ele>1497.5</ele><time>2026-04-18T10:14:11.256Z</time></trkpt><trkpt lat="43.0154917" lon="13.2148683"><ele>1496.6666666666665</ele><time>2026-04-18T10:14:12.256Z</time></trkpt><trkpt lat="43.0154083" lon="13.2148417"><ele>1495.8333333333333</ele><time>2026-04-18T10:14:13.256Z</time></trkpt><trkpt lat="43.0153317" lon="13.2148483"><ele>1495.0</ele><time>2026-04-18T10:14:14.256Z</time></trkpt><trkpt lat="43.0152467" lon="13.21488"><ele>1495.0</ele><time>2026-04-18T10:14:15.256Z</time></trkpt><trkpt lat="43.01517" lon="13.2149233"><ele>1495.0</ele><time>2026-04-18T10:14:16.256Z</time></trkpt><trkpt lat="43.0150917" lon="13.2149833"><ele>1495.0</ele><time>2026-04-18T10:14:17.256Z</time></trkpt><trkpt lat="43.0150283" lon="13.2150717"><ele>1495.0</ele><time>2026-04-18T10:14:18.256Z</time></trkpt><trkpt lat="43.0149683" lon="13.2151717"><ele>1495.0</ele><time>2026-04-18T10:14:19.256Z</time></trkpt><trkpt lat="43.0149267" lon="13.2152717"><ele>1495.0</ele><time>2026-04-18T10:14:20.256Z</time></trkpt><trkpt lat="43.0149" lon="13.21538"><ele>1494.1666666666665</ele><time>2026-04-18T10:14:21.256Z</time></trkpt><trkpt lat="43.0148783" lon="13.215505"><ele>1493.3333333333333</ele><time>2026-04-18T10:14:22.256Z</time></trkpt><trkpt lat="43.01486" lon="13.2156167"><ele>1492.5</ele><time>2026-04-18T10:14:23.256Z</time></trkpt><trkpt lat="43.01483" lon="13.2157283"><ele>1491.6666666666667</ele><time>2026-04-18T10:14:24.256Z</time></trkpt><trkpt lat="43.0147817" lon="13.2158217"><ele>1490.8333333333335</ele><time>2026-04-18T10:14:25.256Z</time></trkpt><trkpt lat="43.0147183" lon="13.2159"><ele>1490.0</ele><time>2026-04-18T10:14:26.256Z</time></trkpt><trkpt lat="43.0146333" lon="13.2159283"><ele>1492.4</ele><time>2026-04-18T10:14:27.256Z</time></trkpt><trkpt lat="43.01454" lon="13.2159217"><ele>1494.8</ele><time>2026-04-18T10:14:28.256Z</time></trkpt><trkpt lat="43.0144383" lon="13.2158717"><ele>1497.1999999999998</ele><time>2026-04-18T10:14:29.256Z</time></trkpt><trkpt lat="43.0143467" lon="13.21578"><ele>1499.6</ele><time>2026-04-18T10:14:30.256Z</time></trkpt><trkpt lat="43.01425" lon="13.215675"><ele>1502.0</ele><time>2026-04-18T10:14:31.256Z</time></trkpt><trkpt lat="43.01415" lon="13.2155833"><ele>1503.0</ele><time>2026-04-18T10:14:32.256Z</time></trkpt><trkpt lat="43.014035" lon="13.21549"><ele>1504.0</ele><time>2026-04-18T10:14:33.256Z</time></trkpt><trkpt lat="43.0139233" lon="13.21539"><ele>1505.0</ele><time>2026-04-18T10:14:34.256Z</time></trkpt><trkpt lat="43.0138217" lon="13.2153017"><ele>1506.0</ele><time>2026-04-18T10:14:35.256Z</time></trkpt><trkpt lat="43.013715" lon="13.21522"><ele>1506.0</ele><time>2026-04-18T10:14:36.256Z</time></trkpt><trkpt lat="43.0136033" lon="13.2151417"><ele>1506.0</ele><time>2026-04-18T10:14:37.256Z</time></trkpt><trkpt lat="43.0134917" lon="13.21505"><ele>1506.0</ele><time>2026-04-18T10:14:38.256Z</time></trkpt><trkpt lat="43.013385" lon="13.2149517"><ele>1506.0</ele><time>2026-04-18T10:14:39.256Z</time></trkpt><trkpt lat="43.0132683" lon="13.2148583"><ele>1507.0</ele><time>2026-04-18T10:14:40.256Z</time></trkpt><trkpt lat="43.0131617" lon="13.2147567"><ele>1508.0</ele><time>2026-04-18T10:14:41.256Z</time></trkpt><trkpt lat="43.0130633" lon="13.2146567"><ele>1509.0</ele><time>2026-04-18T10:14:42.256Z</time></trkpt><trkpt lat="43.0129467" lon="13.2145583"><ele>1510.0</ele><time>2026-04-18T10:14:43.256Z</time></trkpt><trkpt lat="43.0128333" lon="13.2144567"><ele>1510.0</ele><time>2026-04-18T10:14:44.256Z</time></trkpt><trkpt lat="43.01271" lon="13.2143467"><ele>1510.0</ele><time>2026-04-18T10:14:45.256Z</time></trkpt><trkpt lat="43.01258" lon="13.214235"><ele>1510.0</ele><time>2026-04-18T10:14:46.256Z</time></trkpt><trkpt lat="43.0124367" lon="13.2141183"><ele>1511.3333333333333</ele><time>2026-04-18T10:14:47.256Z</time></trkpt><trkpt lat="43.0122967" lon="13.2140017"><ele>1512.6666666666667</ele><time>2026-04-18T10:14:48.256Z</time></trkpt><trkpt lat="43.0121533" lon="13.2138883"><ele>1514.0</ele><time>2026-04-18T10:14:49.256Z</time></trkpt><trkpt lat="43.01201" lon="13.2137683"><ele>1514.0</ele><time>2026-04-18T10:14:50.256Z</time></trkpt><trkpt lat="43.011875" lon="13.213645"><ele>1514.0</ele><time>2026-04-18T10:14:51.256Z</time></trkpt><trkpt lat="43.01175" lon="13.2135217"><ele>1514.0</ele><time>2026-04-18T10:14:52.256Z</time></trkpt><trkpt lat="43.0116267" lon="13.2134183"><ele>1514.5</ele><time>2026-04-18T10:14:53.256Z</time></trkpt><trkpt lat="43.011515" lon="13.21333"><ele>1515.0</ele><time>2026-04-18T10:14:54.256Z</time></trkpt><trkpt lat="43.0114083" lon="13.2132483"><ele>1515.5</ele><time>2026-04-18T10:14:55.256Z</time></trkpt><trkpt lat="43.0113133" lon="13.2131617"><ele>1516.0</ele><time>2026-04-18T10:14:56.256Z</time></trkpt><trkpt lat="43.01122" lon="13.2130767"><ele>1514.8</ele><time>2026-04-18T10:14:57.256Z</time></trkpt><trkpt lat="43.011135" lon="13.2129983"><ele>1513.6</ele><time>2026-04-18T10:14:58.256Z</time></trkpt><trkpt lat="43.0110467" lon="13.212935"><ele>1512.4</ele><time>2026-04-18T10:14:59.256Z</time></trkpt><trkpt lat="43.0109633" lon="13.21288"><ele>1511.2</ele><time>2026-04-18T10:15:00.256Z</time></trkpt><trkpt lat="43.0108917" lon="13.2128417"><ele>1510.0</ele><time>2026-04-18T10:15:01.256Z</time></trkpt><trkpt lat="43.0108133" lon="13.2128633"><ele>1507.6</ele><time>2026-04-18T10:15:02.256Z</time></trkpt><trkpt lat="43.0107467" lon="13.212915"><ele>1505.2</ele><time>2026-04-18T10:15:03.256Z</time></trkpt><trkpt lat="43.010685" lon="13.2130083"><ele>1502.8000000000002</ele><time>2026-04-18T10:15:04.256Z</time></trkpt><trkpt lat="43.010625" lon="13.21313"><ele>1500.4</ele><time>2026-04-18T10:15:05.256Z</time></trkpt><trkpt lat="43.0105883" lon="13.2132717"><ele>1498.0</ele><time>2026-04-18T10:15:06.256Z</time></trkpt><trkpt lat="43.0105567" lon="13.21342"><ele>1498.0</ele><time>2026-04-18T10:15:07.256Z</time></trkpt><trkpt lat="43.0105233" lon="13.21357"><ele>1498.0</ele><time>2026-04-18T10:15:08.256Z</time></trkpt><trkpt lat="43.0104967" lon="13.213725"><ele>1498.0</ele><time>2026-04-18T10:15:09.256Z</time></trkpt><trkpt lat="43.0104633" lon="13.2138867"><ele>1498.0</ele><time>2026-04-18T10:15:10.255Z</time></trkpt><trkpt lat="43.0104233" lon="13.214055"><ele>1498.75</ele><time>2026-04-18T10:15:11.256Z</time></trkpt><trkpt lat="43.0103733" lon="13.2142133"><ele>1499.5</ele><time>2026-04-18T10:15:12.256Z</time></trkpt><trkpt lat="43.0103283" lon="13.2143817"><ele>1500.25</ele><time>2026-04-18T10:15:13.256Z</time></trkpt><trkpt lat="43.0102867" lon="13.21454"><ele>1501.0</ele><time>2026-04-18T10:15:14.256Z</time></trkpt><trkpt lat="43.0102417" lon="13.2147"><ele>1501.5</ele><time>2026-04-18T10:15:15.256Z</time></trkpt><trkpt lat="43.0101917" lon="13.2148533"><ele>1502.0</ele><time>2026-04-18T10:15:16.256Z</time></trkpt><trkpt lat="43.010155" lon="13.21501"><ele>1502.5</ele><time>2026-04-18T10:15:17.256Z</time></trkpt><trkpt lat="43.0101083" lon="13.2151633"><ele>1503.0</ele><time>2026-04-18T10:15:18.256Z</time></trkpt><trkpt lat="43.0100767" lon="13.215315"><ele>1503.0</ele><time>2026-04-18T10:15:19.256Z</time></trkpt><trkpt lat="43.010035" lon="13.2154733"><ele>1503.0</ele><time>2026-04-18T10:15:20.256Z</time></trkpt><trkpt lat="43.01" lon="13.2156383"><ele>1503.0</ele><time>2026-04-18T10:15:21.256Z</time></trkpt><trkpt lat="43.0099667" lon="13.215805"><ele>1503.0</ele><time>2026-04-18T10:15:22.256Z</time></trkpt><trkpt lat="43.0099433" lon="13.2159717"><ele>1496.25</ele><time>2026-04-18T10:15:23.256Z</time></trkpt><trkpt lat="43.0099117" lon="13.21615"><ele>1489.5</ele><time>2026-04-18T10:15:24.256Z</time></trkpt><trkpt lat="43.0099017" lon="13.21633"><ele>1482.75</ele><time>2026-04-18T10:15:25.256Z</time></trkpt><trkpt lat="43.0098833" lon="13.2165167"><ele>1476.0</ele><time>2026-04-18T10:15:26.256Z</time></trkpt><trkpt lat="43.0098783" lon="13.2167"><ele>1476.0</ele><time>2026-04-18T10:15:27.256Z</time></trkpt><trkpt lat="43.0098583" lon="13.2168817"><ele>1476.0</ele><time>2026-04-18T10:15:28.256Z</time></trkpt><trkpt lat="43.00985" lon="13.2170767"><ele>1476.0</ele><time>2026-04-18T10:15:29.256Z</time></trkpt><trkpt lat="43.0098433" lon="13.2172717"><ele>1476.0</ele><time>2026-04-18T10:15:30.256Z</time></trkpt><trkpt lat="43.00984" lon="13.2174667"><ele>1475.75</ele><time>2026-04-18T10:15:31.256Z</time></trkpt><trkpt lat="43.0098217" lon="13.217645"><ele>1475.5</ele><time>2026-04-18T10:15:32.256Z</time></trkpt><trkpt lat="43.0098117" lon="13.21782"><ele>1475.25</ele><time>2026-04-18T10:15:33.256Z</time></trkpt><trkpt lat="43.0098" lon="13.2179933"><ele>1475.0</ele><time>2026-04-18T10:15:34.256Z</time></trkpt><trkpt lat="43.0097867" lon="13.21817"><ele>1475.0</ele><time>2026-04-18T10:15:35.256Z</time></trkpt><trkpt lat="43.0097717" lon="13.2183433"><ele>1475.0</ele><time>2026-04-18T10:15:36.256Z</time></trkpt><trkpt lat="43.009765" lon="13.218515"><ele>1475.0</ele><time>2026-04-18T10:15:37.256Z</time></trkpt><trkpt lat="43.00975" lon="13.2186933"><ele>1475.0</ele><time>2026-04-18T10:15:38.256Z</time></trkpt><trkpt lat="43.009745" lon="13.2188767"><ele>1473.5</ele><time>2026-04-18T10:15:39.256Z</time></trkpt><trkpt lat="43.00973" lon="13.2190633"><ele>1472.0</ele><time>2026-04-18T10:15:40.256Z</time></trkpt><trkpt lat="43.0097183" lon="13.2192433"><ele>1470.5</ele><time>2026-04-18T10:15:41.256Z</time></trkpt><trkpt lat="43.0097117" lon="13.2194333"><ele>1469.0</ele><time>2026-04-18T10:15:42.256Z</time></trkpt><trkpt lat="43.0097183" lon="13.2196183"><ele>1469.0</ele><time>2026-04-18T10:15:43.256Z</time></trkpt><trkpt lat="43.0097217" lon="13.21981"><ele>1469.0</ele><time>2026-04-18T10:15:44.256Z</time></trkpt><trkpt lat="43.0097283" lon="13.2199917"><ele>1469.0</ele><time>2026-04-18T10:15:45.256Z</time></trkpt><trkpt lat="43.0097333" lon="13.2201733"><ele>1469.0</ele><time>2026-04-18T10:15:46.256Z</time></trkpt><trkpt lat="43.00974" lon="13.2203617"><ele>1468.0</ele><time>2026-04-18T10:15:47.256Z</time></trkpt><trkpt lat="43.00975" lon="13.2205633"><ele>1467.0</ele><time>2026-04-18T10:15:48.256Z</time></trkpt><trkpt lat="43.0097767" lon="13.2207617"><ele>1466.0</ele><time>2026-04-18T10:15:49.256Z</time></trkpt><trkpt lat="43.0098" lon="13.2209517"><ele>1465.0</ele><time>2026-04-18T10:15:50.256Z</time></trkpt><trkpt lat="43.009825" lon="13.2211383"><ele>1464.75</ele><time>2026-04-18T10:15:51.256Z</time></trkpt><trkpt lat="43.00984" lon="13.2213217"><ele>1464.5</ele><time>2026-04-18T10:15:52.256Z</time></trkpt><trkpt lat="43.0098583" lon="13.22151"><ele>1464.25</ele><time>2026-04-18T10:15:53.256Z</time></trkpt><trkpt lat="43.0098683" lon="13.2216817"><ele>1464.0</ele><time>2026-04-18T10:15:54.256Z</time></trkpt><trkpt lat="43.00989" lon="13.2218583"><ele>1463.0</ele><time>2026-04-18T10:15:55.256Z</time></trkpt><trkpt lat="43.009925" lon="13.2220433"><ele>1462.0</ele><time>2026-04-18T10:15:56.256Z</time></trkpt><trkpt lat="43.00997" lon="13.2222267"><ele>1461.0</ele><time>2026-04-18T10:15:57.256Z</time></trkpt><trkpt lat="43.0100233" lon="13.22241"><ele>1460.0</ele><time>2026-04-18T10:15:58.256Z</time></trkpt><trkpt lat="43.0100683" lon="13.2225917"><ele>1460.5</ele><time>2026-04-18T10:15:59.256Z</time></trkpt><trkpt lat="43.0101183" lon="13.2227667"><ele>1461.0</ele><time>2026-04-18T10:16:00.256Z</time></trkpt><trkpt lat="43.0101767" lon="13.2229483"><ele>1461.5</ele><time>2026-04-18T10:16:01.256Z</time></trkpt><trkpt lat="43.0102333" lon="13.2231283"><ele>1462.0</ele><time>2026-04-18T10:16:02.256Z</time></trkpt><trkpt lat="43.0102833" lon="13.2233033"><ele>1462.0</ele><time>2026-04-18T10:16:03.256Z</time></trkpt><trkpt lat="43.01033" lon="13.223465"><ele>1462.0</ele><time>2026-04-18T10:16:04.256Z</time></trkpt><trkpt lat="43.010385" lon="13.2236117"><ele>1462.0</ele><time>2026-04-18T10:16:05.256Z</time></trkpt><trkpt lat="43.01043" lon="13.2237433"><ele>1462.0</ele><time>2026-04-18T10:16:06.256Z</time></trkpt><trkpt lat="43.0104733" lon="13.223885"><ele>1461.0</ele><time>2026-04-18T10:16:07.256Z</time></trkpt><trkpt lat="43.010505" lon="13.2240217"><ele>1460.0</ele><time>2026-04-18T10:16:08.256Z</time></trkpt><trkpt lat="43.0105367" lon="13.2241667"><ele>1459.0</ele><time>2026-04-18T10:16:09.256Z</time></trkpt><trkpt lat="43.0105717" lon="13.2243083"><ele>1458.0</ele><time>2026-04-18T10:16:10.256Z</time></trkpt><trkpt lat="43.0106067" lon="13.2244483"><ele>1457.0</ele><time>2026-04-18T10:16:11.256Z</time></trkpt><trkpt lat="43.010635" lon="13.22457"><ele>1457.0</ele><time>2026-04-18T10:16:12.256Z</time></trkpt><trkpt lat="43.0106617" lon="13.2247"><ele>1457.0</ele><time>2026-04-18T10:16:13.256Z</time></trkpt><trkpt lat="43.0106817" lon="13.2248183"><ele>1457.0</ele><time>2026-04-18T10:16:14.256Z</time></trkpt><trkpt lat="43.01071" lon="13.224925"><ele>1457.0</ele><time>2026-04-18T10:16:15.256Z</time></trkpt><trkpt lat="43.0107367" lon="13.2250233"><ele>1457.0</ele><time>2026-04-18T10:16:16.256Z</time></trkpt><trkpt lat="43.0107583" lon="13.225115"><ele>1457.0</ele><time>2026-04-18T10:16:17.256Z</time></trkpt><trkpt lat="43.0107633" lon="13.225215"><ele>1456.6666666666667</ele><time>2026-04-18T10:16:18.256Z</time></trkpt><trkpt lat="43.0107717" lon="13.2253217"><ele>1456.3333333333335</ele><time>2026-04-18T10:16:19.256Z</time></trkpt><trkpt lat="43.0107667" lon="13.2254283"><ele>1456.0</ele><time>2026-04-18T10:16:20.256Z</time></trkpt><trkpt lat="43.0107583" lon="13.22554"><ele>1455.6666666666667</ele><time>2026-04-18T10:16:21.256Z</time></trkpt><trkpt lat="43.01075" lon="13.2256417"><ele>1455.3333333333333</ele><time>2026-04-18T10:16:22.256Z</time></trkpt><trkpt lat="43.01073" lon="13.2257367"><ele>1455.0</ele><time>2026-04-18T10:16:23.256Z</time></trkpt><trkpt lat="43.0106933" lon="13.2258367"><ele>1455.0</ele><time>2026-04-18T10:16:24.256Z</time></trkpt><trkpt lat="43.01064" lon="13.2259333"><ele>1455.0</ele><time>2026-04-18T10:16:25.256Z</time></trkpt><trkpt lat="43.010585" lon="13.2260167"><ele>1455.0</ele><time>2026-04-18T10:16:26.256Z</time></trkpt><trkpt lat="43.0105217" lon="13.2261"><ele>1455.0</ele><time>2026-04-18T10:16:27.256Z</time></trkpt><trkpt lat="43.0104617" lon="13.22617"><ele>1455.0</ele><time>2026-04-18T10:16:28.256Z</time></trkpt><trkpt lat="43.0103917" lon="13.2262267"><ele>1455.0</ele><time>2026-04-18T10:16:29.256Z</time></trkpt><trkpt lat="43.01032" lon="13.226265"><ele>1455.0</ele><time>2026-04-18T10:16:30.256Z</time></trkpt><trkpt lat="43.0102083" lon="13.2262683"><ele>1455.0</ele><time>2026-04-18T10:16:32.256Z</time></trkpt><trkpt lat="43.0101483" lon="13.22624"><ele>1455.0</ele><time>2026-04-18T10:16:33.256Z</time></trkpt><trkpt lat="43.0101017" lon="13.2261733"><ele>1455.0</ele><time>2026-04-18T10:16:34.256Z</time></trkpt><trkpt lat="43.01008" lon="13.226085"><ele>1455.0</ele><time>2026-04-18T10:16:35.256Z</time></trkpt><trkpt lat="43.0100467" lon="13.22597"><ele>1455.0</ele><time>2026-04-18T10:16:36.256Z</time></trkpt><trkpt lat="43.0100067" lon="13.225835"><ele>1456.0</ele><time>2026-04-18T10:16:37.256Z</time></trkpt><trkpt lat="43.0099717" lon="13.2256683"><ele>1457.0</ele><time>2026-04-18T10:16:38.256Z</time></trkpt><trkpt lat="43.0099233" lon="13.2254933"><ele>1458.0</ele><time>2026-04-18T10:16:39.256Z</time></trkpt><trkpt lat="43.0098667" lon="13.2253133"><ele>1459.0</ele><time>2026-04-18T10:16:40.256Z</time></trkpt><trkpt lat="43.0098183" lon="13.225125"><ele>1459.0</ele><time>2026-04-18T10:16:41.256Z</time></trkpt><trkpt lat="43.0097517" lon="13.224935"><ele>1459.0</ele><time>2026-04-18T10:16:42.256Z</time></trkpt><trkpt lat="43.0096883" lon="13.2247467"><ele>1459.0</ele><time>2026-04-18T10:16:43.256Z</time></trkpt><trkpt lat="43.0096233" lon="13.22457"><ele>1457.6666666666665</ele><time>2026-04-18T10:16:44.256Z</time></trkpt><trkpt lat="43.00956" lon="13.2243817"><ele>1456.3333333333333</ele><time>2026-04-18T10:16:45.256Z</time></trkpt><trkpt lat="43.009515" lon="13.22418"><ele>1455.0</ele><time>2026-04-18T10:16:46.256Z</time></trkpt><trkpt lat="43.0094767" lon="13.2239783"><ele>1452.25</ele><time>2026-04-18T10:16:47.256Z</time></trkpt><trkpt lat="43.0094417" lon="13.2237933"><ele>1449.5</ele><time>2026-04-18T10:16:48.256Z</time></trkpt><trkpt lat="43.0094" lon="13.223615"><ele>1446.75</ele><time>2026-04-18T10:16:49.256Z</time></trkpt><trkpt lat="43.0093483" lon="13.2234367"><ele>1444.0</ele><time>2026-04-18T10:16:50.256Z</time></trkpt><trkpt lat="43.00929" lon="13.2232833"><ele>1444.0</ele><time>2026-04-18T10:16:51.256Z</time></trkpt><trkpt lat="43.00919" lon="13.223155"><ele>1444.0</ele><time>2026-04-18T10:16:52.256Z</time></trkpt><trkpt lat="43.00908" lon="13.22303"><ele>1444.0</ele><time>2026-04-18T10:16:53.256Z</time></trkpt><trkpt lat="43.0089317" lon="13.2229183"><ele>1444.0</ele><time>2026-04-18T10:16:54.256Z</time></trkpt><trkpt lat="43.00879" lon="13.222805"><ele>1441.0</ele><time>2026-04-18T10:16:55.256Z</time></trkpt><trkpt lat="43.0086533" lon="13.2226683"><ele>1438.0</ele><time>2026-04-18T10:16:56.256Z</time></trkpt><trkpt lat="43.0085233" lon="13.2225283"><ele>1435.0</ele><time>2026-04-18T10:16:57.256Z</time></trkpt><trkpt lat="43.0084083" lon="13.2223983"><ele>1432.5</ele><time>2026-04-18T10:16:58.256Z</time></trkpt><trkpt lat="43.0083" lon="13.2222683"><ele>1430.0</ele><time>2026-04-18T10:16:59.256Z</time></trkpt><trkpt lat="43.008185" lon="13.2221717"><ele>1427.5</ele><time>2026-04-18T10:17:00.256Z</time></trkpt><trkpt lat="43.0080533" lon="13.22211"><ele>1425.0</ele><time>2026-04-18T10:17:01.256Z</time></trkpt><trkpt lat="43.0079067" lon="13.2220817"><ele>1425.0</ele><time>2026-04-18T10:17:02.256Z</time></trkpt><trkpt lat="43.0077567" lon="13.2220717"><ele>1425.0</ele><time>2026-04-18T10:17:03.256Z</time></trkpt><trkpt lat="43.0076017" lon="13.2220783"><ele>1425.0</ele><time>2026-04-18T10:17:04.256Z</time></trkpt><trkpt lat="43.007445" lon="13.2220917"><ele>1425.0</ele><time>2026-04-18T10:17:05.256Z</time></trkpt><trkpt lat="43.007295" lon="13.2221017"><ele>1425.0</ele><time>2026-04-18T10:17:06.256Z</time></trkpt><trkpt lat="43.007145" lon="13.2221183"><ele>1425.0</ele><time>2026-04-18T10:17:07.256Z</time></trkpt><trkpt lat="43.006995" lon="13.222125"><ele>1425.0</ele><time>2026-04-18T10:17:08.256Z</time></trkpt><trkpt lat="43.0068467" lon="13.2221117"><ele>1425.0</ele><time>2026-04-18T10:17:09.256Z</time></trkpt><trkpt lat="43.006705" lon="13.2220883"><ele>1425.0</ele><time>2026-04-18T10:17:10.256Z</time></trkpt><trkpt lat="43.0065617" lon="13.2220633"><ele>1425.0</ele><time>2026-04-18T10:17:11.256Z</time></trkpt><trkpt lat="43.0064183" lon="13.2220117"><ele>1427.25</ele><time>2026-04-18T10:17:12.256Z</time></trkpt><trkpt lat="43.00629" lon="13.2219467"><ele>1429.5</ele><time>2026-04-18T10:17:13.256Z</time></trkpt><trkpt lat="43.0061717" lon="13.2218683"><ele>1431.75</ele><time>2026-04-18T10:17:14.256Z</time></trkpt><trkpt lat="43.0060783" lon="13.221785"><ele>1434.0</ele><time>2026-04-18T10:17:15.256Z</time></trkpt><trkpt lat="43.0059933" lon="13.2217183"><ele>1434.0</ele><time>2026-04-18T10:17:16.256Z</time></trkpt><trkpt lat="43.0059" lon="13.221705"><ele>1434.0</ele><time>2026-04-18T10:17:17.256Z</time></trkpt><trkpt lat="43.005805" lon="13.221755"><ele>1434.0</ele><time>2026-04-18T10:17:18.256Z</time></trkpt><trkpt lat="43.0057367" lon="13.2218533"><ele>1434.0</ele><time>2026-04-18T10:17:19.256Z</time></trkpt><trkpt lat="43.0056633" lon="13.221995"><ele>1434.0</ele><time>2026-04-18T10:17:20.256Z</time></trkpt><trkpt lat="43.0056067" lon="13.22217"><ele>1429.6666666666667</ele><time>2026-04-18T10:17:21.256Z</time></trkpt><trkpt lat="43.00555" lon="13.2223533"><ele>1425.3333333333335</ele><time>2026-04-18T10:17:22.256Z</time></trkpt><trkpt lat="43.0054817" lon="13.2225383"><ele>1421.0</ele><time>2026-04-18T10:17:23.256Z</time></trkpt><trkpt lat="43.0053983" lon="13.2227267"><ele>1421.0</ele><time>2026-04-18T10:17:24.256Z</time></trkpt><trkpt lat="43.0053" lon="13.2229"><ele>1421.0</ele><time>2026-04-18T10:17:25.256Z</time></trkpt><trkpt lat="43.0052083" lon="13.2230717"><ele>1421.0</ele><time>2026-04-18T10:17:26.256Z</time></trkpt><trkpt lat="43.005115" lon="13.2232467"><ele>1425.0</ele><time>2026-04-18T10:17:27.256Z</time></trkpt><trkpt lat="43.0050333" lon="13.2234183"><ele>1429.0</ele><time>2026-04-18T10:17:28.256Z</time></trkpt><trkpt lat="43.00494" lon="13.223605"><ele>1433.0</ele><time>2026-04-18T10:17:29.256Z</time></trkpt><trkpt lat="43.0048517" lon="13.223785"><ele>1427.3333333333335</ele><time>2026-04-18T10:17:30.256Z</time></trkpt><trkpt lat="43.0047617" lon="13.223975"><ele>1421.6666666666667</ele><time>2026-04-18T10:17:31.256Z</time></trkpt><trkpt lat="43.0046683" lon="13.2241617"><ele>1416.0</ele><time>2026-04-18T10:17:32.256Z</time></trkpt><trkpt lat="43.0045683" lon="13.2243517"><ele>1416.0</ele><time>2026-04-18T10:17:33.256Z</time></trkpt><trkpt lat="43.0044667" lon="13.2245183"><ele>1416.0</ele><time>2026-04-18T10:17:34.256Z</time></trkpt><trkpt lat="43.0043467" lon="13.224675"><ele>1416.0</ele><time>2026-04-18T10:17:35.256Z</time></trkpt><trkpt lat="43.0042183" lon="13.2248267"><ele>1413.6666666666667</ele><time>2026-04-18T10:17:36.256Z</time></trkpt><trkpt lat="43.0040833" lon="13.2249733"><ele>1411.3333333333335</ele><time>2026-04-18T10:17:37.256Z</time></trkpt><trkpt lat="43.0039567" lon="13.2251117"><ele>1409.0</ele><time>2026-04-18T10:17:38.256Z</time></trkpt><trkpt lat="43.0038217" lon="13.2252617"><ele>1409.0</ele><time>2026-04-18T10:17:39.256Z</time></trkpt><trkpt lat="43.00369" lon="13.2253983"><ele>1409.0</ele><time>2026-04-18T10:17:40.256Z</time></trkpt><trkpt lat="43.0035533" lon="13.2255217"><ele>1409.0</ele><time>2026-04-18T10:17:41.256Z</time></trkpt><trkpt lat="43.003415" lon="13.2256383"><ele>1403.0</ele><time>2026-04-18T10:17:42.256Z</time></trkpt><trkpt lat="43.0032867" lon="13.2257683"><ele>1397.0</ele><time>2026-04-18T10:17:43.256Z</time></trkpt><trkpt lat="43.003165" lon="13.2259167"><ele>1391.0</ele><time>2026-04-18T10:17:44.256Z</time></trkpt><trkpt lat="43.00305" lon="13.2260733"><ele>1391.0</ele><time>2026-04-18T10:17:45.256Z</time></trkpt><trkpt lat="43.0029517" lon="13.226255"><ele>1391.0</ele><time>2026-04-18T10:17:46.256Z</time></trkpt><trkpt lat="43.0028617" lon="13.2264383"><ele>1391.0</ele><time>2026-04-18T10:17:47.256Z</time></trkpt><trkpt lat="43.0027733" lon="13.2266333"><ele>1398.0</ele><time>2026-04-18T10:17:48.256Z</time></trkpt><trkpt lat="43.0026783" lon="13.2268417"><ele>1405.0</ele><time>2026-04-18T10:17:49.256Z</time></trkpt><trkpt lat="43.0025817" lon="13.2270483"><ele>1412.0</ele><time>2026-04-18T10:17:50.256Z</time></trkpt><trkpt lat="43.0024717" lon="13.22726"><ele>1402.3333333333335</ele><time>2026-04-18T10:17:51.256Z</time></trkpt><trkpt lat="43.0023667" lon="13.22747"><ele>1392.6666666666667</ele><time>2026-04-18T10:17:52.255Z</time></trkpt><trkpt lat="43.00227" lon="13.2276683"><ele>1383.0</ele><time>2026-04-18T10:17:53.256Z</time></trkpt><trkpt lat="43.0021717" lon="13.227855"><ele>1383.0</ele><time>2026-04-18T10:17:54.256Z</time></trkpt><trkpt lat="43.002085" lon="13.2280233"><ele>1383.0</ele><time>2026-04-18T10:17:55.256Z</time></trkpt><trkpt lat="43.0020017" lon="13.2281983"><ele>1383.0</ele><time>2026-04-18T10:17:56.256Z</time></trkpt><trkpt lat="43.0019217" lon="13.2283917"><ele>1388.3333333333333</ele><time>2026-04-18T10:17:57.256Z</time></trkpt><trkpt lat="43.0018617" lon="13.228595"><ele>1393.6666666666665</ele><time>2026-04-18T10:17:58.256Z</time></trkpt><trkpt lat="43.0018167" lon="13.2288183"><ele>1399.0</ele><time>2026-04-18T10:17:59.256Z</time></trkpt><trkpt lat="43.0017817" lon="13.2290383"><ele>1405.0</ele><time>2026-04-18T10:18:00.256Z</time></trkpt><trkpt lat="43.0017233" lon="13.2292683"><ele>1411.0</ele><time>2026-04-18T10:18:01.256Z</time></trkpt><trkpt lat="43.00166" lon="13.2295117"><ele>1417.0</ele><time>2026-04-18T10:18:02.255Z</time></trkpt><trkpt lat="43.00161" lon="13.2297433"><ele>1402.0</ele><time>2026-04-18T10:18:03.256Z</time></trkpt><trkpt lat="43.001555" lon="13.2299867"><ele>1387.0</ele><time>2026-04-18T10:18:04.256Z</time></trkpt><trkpt lat="43.0015067" lon="13.2302183"><ele>1372.0</ele><time>2026-04-18T10:18:05.256Z</time></trkpt><trkpt lat="43.00146" lon="13.2304333"><ele>1376.6666666666665</ele><time>2026-04-18T10:18:06.256Z</time></trkpt><trkpt lat="43.001395" lon="13.23066"><ele>1381.3333333333333</ele><time>2026-04-18T10:18:07.255Z</time></trkpt><trkpt lat="43.001315" lon="13.2308667"><ele>1386.0</ele><time>2026-04-18T10:18:08.255Z</time></trkpt><trkpt lat="43.0012217" lon="13.2310767"><ele>1386.0</ele><time>2026-04-18T10:18:09.256Z</time></trkpt><trkpt lat="43.00113" lon="13.2312767"><ele>1386.0</ele><time>2026-04-18T10:18:10.256Z</time></trkpt><trkpt lat="43.0010183" lon="13.231485"><ele>1386.0</ele><time>2026-04-18T10:18:11.256Z</time></trkpt><trkpt lat="43.000915" lon="13.23169"><ele>1384.3333333333333</ele><time>2026-04-18T10:18:12.256Z</time></trkpt><trkpt lat="43.000815" lon="13.2318983"><ele>1382.6666666666665</ele><time>2026-04-18T10:18:13.256Z</time></trkpt><trkpt lat="43.0007283" lon="13.2321017"><ele>1381.0</ele><time>2026-04-18T10:18:14.256Z</time></trkpt><trkpt lat="43.00065" lon="13.2323267"><ele>1381.0</ele><time>2026-04-18T10:18:15.256Z</time></trkpt><trkpt lat="43.0005717" lon="13.2325567"><ele>1381.0</ele><time>2026-04-18T10:18:16.256Z</time></trkpt><trkpt lat="43.0004733" lon="13.2327833"><ele>1381.0</ele><time>2026-04-18T10:18:17.256Z</time></trkpt><trkpt lat="43.00037" lon="13.23299"><ele>1387.6666666666665</ele><time>2026-04-18T10:18:18.256Z</time></trkpt><trkpt lat="43.0002767" lon="13.2331783"><ele>1394.3333333333333</ele><time>2026-04-18T10:18:19.256Z</time></trkpt><trkpt lat="43.0001667" lon="13.2333817"><ele>1401.0</ele><time>2026-04-18T10:18:20.256Z</time></trkpt><trkpt lat="43.0000617" lon="13.233585"><ele>1401.0</ele><time>2026-04-18T10:18:21.256Z</time></trkpt><trkpt lat="42.99995" lon="13.2338033"><ele>1401.0</ele><time>2026-04-18T10:18:22.256Z</time></trkpt><trkpt lat="42.9998517" lon="13.2340367"><ele>1401.0</ele><time>2026-04-18T10:18:23.256Z</time></trkpt><trkpt lat="42.9997533" lon="13.2342933"><ele>1406.0</ele><time>2026-04-18T10:18:24.256Z</time></trkpt><trkpt lat="42.999675" lon="13.2345583"><ele>1411.0</ele><time>2026-04-18T10:18:25.256Z</time></trkpt><trkpt lat="42.9995917" lon="13.2348017"><ele>1416.0</ele><time>2026-04-18T10:18:26.256Z</time></trkpt><trkpt lat="42.999515" lon="13.235035"><ele>1421.0</ele><time>2026-04-18T10:18:27.256Z</time></trkpt><trkpt lat="42.99943" lon="13.2352667"><ele>1426.0</ele><time>2026-04-18T10:18:28.255Z</time></trkpt><trkpt lat="42.99935" lon="13.23549"><ele>1431.0</ele><time>2026-04-18T10:18:29.256Z</time></trkpt><trkpt lat="42.9992717" lon="13.2357083"><ele>1433.6666666666667</ele><time>2026-04-18T10:18:30.256Z</time></trkpt><trkpt lat="42.9992017" lon="13.2359217"><ele>1436.3333333333335</ele><time>2026-04-18T10:18:31.256Z</time></trkpt><trkpt lat="42.9991067" lon="13.2361117"><ele>1439.0</ele><time>2026-04-18T10:18:32.256Z</time></trkpt><trkpt lat="42.9990117" lon="13.2362933"><ele>1431.3333333333335</ele><time>2026-04-18T10:18:33.256Z</time></trkpt><trkpt lat="42.998905" lon="13.2364867"><ele>1423.6666666666667</ele><time>2026-04-18T10:18:34.256Z</time></trkpt><trkpt lat="42.9988017" lon="13.236665"><ele>1416.0</ele><time>2026-04-18T10:18:35.256Z</time></trkpt><trkpt lat="42.9987117" lon="13.2368483"><ele>1416.0</ele><time>2026-04-18T10:18:36.256Z</time></trkpt><trkpt lat="42.99862" lon="13.23703"><ele>1416.0</ele><time>2026-04-18T10:18:37.256Z</time></trkpt><trkpt lat="42.99853" lon="13.2372117"><ele>1416.0</ele><time>2026-04-18T10:18:38.256Z</time></trkpt><trkpt lat="42.9984433" lon="13.2373917"><ele>1421.0</ele><time>2026-04-18T10:18:39.256Z</time></trkpt><trkpt lat="42.9983667" lon="13.2375733"><ele>1426.0</ele><time>2026-04-18T10:18:40.256Z</time></trkpt><trkpt lat="42.9983067" lon="13.2377617"><ele>1431.0</ele><time>2026-04-18T10:18:41.256Z</time></trkpt><trkpt lat="42.9982683" lon="13.2379433"><ele>1436.0</ele><time>2026-04-18T10:18:42.256Z</time></trkpt><trkpt lat="42.9982167" lon="13.23813"><ele>1428.0</ele><time>2026-04-18T10:18:43.256Z</time></trkpt><trkpt lat="42.9981617" lon="13.238295"><ele>1420.0</ele><time>2026-04-18T10:18:44.256Z</time></trkpt><trkpt lat="42.9980933" lon="13.2384383"><ele>1412.0</ele><time>2026-04-18T10:18:45.255Z</time></trkpt><trkpt lat="42.9980067" lon="13.2385767"><ele>1404.0</ele><time>2026-04-18T10:18:46.256Z</time></trkpt><trkpt lat="42.997905" lon="13.238665"><ele>1404.0</ele><time>2026-04-18T10:18:47.256Z</time></trkpt><trkpt lat="42.9977633" lon="13.2387033"><ele>1404.0</ele><time>2026-04-18T10:18:48.256Z</time></trkpt><trkpt lat="42.9976267" lon="13.238685"><ele>1404.0</ele><time>2026-04-18T10:18:49.256Z</time></trkpt><trkpt lat="42.997495" lon="13.2386"><ele>1404.0</ele><time>2026-04-18T10:18:50.256Z</time></trkpt><trkpt lat="42.99737" lon="13.2384583"><ele>1398.3333333333333</ele><time>2026-04-18T10:18:51.256Z</time></trkpt><trkpt lat="42.997235" lon="13.2383"><ele>1392.6666666666665</ele><time>2026-04-18T10:18:52.256Z</time></trkpt><trkpt lat="42.9971233" lon="13.2381167"><ele>1387.0</ele><time>2026-04-18T10:18:53.256Z</time></trkpt><trkpt lat="42.997" lon="13.23797"><ele>1384.0</ele><time>2026-04-18T10:18:54.255Z</time></trkpt><trkpt lat="42.996875" lon="13.2378367"><ele>1381.0</ele><time>2026-04-18T10:18:55.256Z</time></trkpt><trkpt lat="42.9967617" lon="13.237705"><ele>1378.0</ele><time>2026-04-18T10:18:56.256Z</time></trkpt><trkpt lat="42.996665" lon="13.2375733"><ele>1375.0</ele><time>2026-04-18T10:18:57.256Z</time></trkpt><trkpt lat="42.9965718" lon="13.2374556"><ele>1375.0</ele><time>2026-04-18T10:18:58.256Z</time></trkpt><trkpt lat="42.996469" lon="13.2373694"><ele>1375.0</ele><time>2026-04-18T10:18:59.256Z</time></trkpt><trkpt lat="42.9963519" lon="13.2373287"><ele>1375.0</ele><time>2026-04-18T10:19:00.256Z</time></trkpt><trkpt lat="42.9962255" lon="13.2373484"><ele>1375.0</ele><time>2026-04-18T10:19:01.256Z</time></trkpt><trkpt lat="42.9960982" lon="13.2374135"><ele>1375.0</ele><time>2026-04-18T10:19:02.256Z</time></trkpt><trkpt lat="42.9959783" lon="13.2375054"><ele>1375.0</ele><time>2026-04-18T10:19:03.256Z</time></trkpt><trkpt lat="42.9958598" lon="13.2376412"><ele>1375.0</ele><time>2026-04-18T10:19:04.256Z</time></trkpt><trkpt lat="42.9957376" lon="13.2377931"><ele>1374.0</ele><time>2026-04-18T10:19:05.256Z</time></trkpt><trkpt lat="42.9956134" lon="13.2379484"><ele>1373.0</ele><time>2026-04-18T10:19:06.256Z</time></trkpt><trkpt lat="42.9954873" lon="13.2381138"><ele>1372.0</ele><time>2026-04-18T10:19:07.256Z</time></trkpt><trkpt lat="42.9953573" lon="13.2382873"><ele>1370.0</ele><time>2026-04-18T10:19:08.256Z</time></trkpt><trkpt lat="42.9952251" lon="13.2384592"><ele>1368.0</ele><time>2026-04-18T10:19:09.256Z</time></trkpt><trkpt lat="42.9950862" lon="13.2386162"><ele>1366.0</ele><time>2026-04-18T10:19:10.256Z</time></trkpt><trkpt lat="42.994931" lon="13.238732"><ele>1366.0</ele><time>2026-04-18T10:19:11.256Z</time></trkpt><trkpt lat="42.9947793" lon="13.2388218"><ele>1366.0</ele><time>2026-04-18T10:19:12.256Z</time></trkpt><trkpt lat="42.9946178" lon="13.23886"><ele>1366.0</ele><time>2026-04-18T10:19:13.256Z</time></trkpt><trkpt lat="42.994458" lon="13.2388753"><ele>1366.0</ele><time>2026-04-18T10:19:14.256Z</time></trkpt><trkpt lat="42.9942943" lon="13.2388629"><ele>1366.0</ele><time>2026-04-18T10:19:15.256Z</time></trkpt><trkpt lat="42.9941321" lon="13.2388985"><ele>1366.0</ele><time>2026-04-18T10:19:16.256Z</time></trkpt><trkpt lat="42.9939715" lon="13.2389668"><ele>1370.0</ele><time>2026-04-18T10:19:17.256Z</time></trkpt><trkpt lat="42.9938056" lon="13.2390536"><ele>1374.0</ele><time>2026-04-18T10:19:18.256Z</time></trkpt><trkpt lat="42.9936413" lon="13.239143"><ele>1378.0</ele><time>2026-04-18T10:19:19.256Z</time></trkpt><trkpt lat="42.9934792" lon="13.2392262"><ele>1371.0</ele><time>2026-04-18T10:19:20.256Z</time></trkpt><trkpt lat="42.9933177" lon="13.2393052"><ele>1364.0</ele><time>2026-04-18T10:19:21.256Z</time></trkpt><trkpt lat="42.9931569" lon="13.2393849"><ele>1357.0</ele><time>2026-04-18T10:19:22.254Z</time></trkpt><trkpt lat="42.9930009" lon="13.239468"><ele>1357.0</ele><time>2026-04-18T10:19:23.256Z</time></trkpt><trkpt lat="42.9928508" lon="13.239547"><ele>1357.0</ele><time>2026-04-18T10:19:24.256Z</time></trkpt><trkpt lat="42.9926912" lon="13.239599"><ele>1357.0</ele><time>2026-04-18T10:19:25.255Z</time></trkpt><trkpt lat="42.9925078" lon="13.2396164"><ele>1354.0</ele><time>2026-04-18T10:19:26.256Z</time></trkpt><trkpt lat="42.9923216" lon="13.2395844"><ele>1351.0</ele><time>2026-04-18T10:19:27.256Z</time></trkpt><trkpt lat="42.9921508" lon="13.2395241"><ele>1348.0</ele><time>2026-04-18T10:19:28.256Z</time></trkpt><trkpt lat="42.9919907" lon="13.2394452"><ele>1348.0</ele><time>2026-04-18T10:19:29.256Z</time></trkpt><trkpt lat="42.9918428" lon="13.239368"><ele>1348.0</ele><time>2026-04-18T10:19:30.256Z</time></trkpt><trkpt lat="42.9917083" lon="13.2393067"><ele>1348.0</ele><time>2026-04-18T10:19:31.256Z</time></trkpt><trkpt lat="42.9915833" lon="13.2392533"><ele>1348.0</ele><time>2026-04-18T10:19:32.256Z</time></trkpt><trkpt lat="42.9914533" lon="13.2392067"><ele>1347.0</ele><time>2026-04-18T10:19:33.256Z</time></trkpt><trkpt lat="42.99132" lon="13.239195"><ele>1346.0</ele><time>2026-04-18T10:19:34.256Z</time></trkpt><trkpt lat="42.9911933" lon="13.239195"><ele>1345.0</ele><time>2026-04-18T10:19:35.256Z</time></trkpt><trkpt lat="42.9910567" lon="13.2392033"><ele>1344.0</ele><time>2026-04-18T10:19:36.256Z</time></trkpt><trkpt lat="42.99093" lon="13.2391933"><ele>1344.25</ele><time>2026-04-18T10:19:37.256Z</time></trkpt><trkpt lat="42.9908017" lon="13.23915"><ele>1344.5</ele><time>2026-04-18T10:19:38.256Z</time></trkpt><trkpt lat="42.9906933" lon="13.2390667"><ele>1344.75</ele><time>2026-04-18T10:19:39.256Z</time></trkpt><trkpt lat="42.9906117" lon="13.2389533"><ele>1345.0</ele><time>2026-04-18T10:19:40.256Z</time></trkpt><trkpt lat="42.99054" lon="13.2388583"><ele>1339.6</ele><time>2026-04-18T10:19:41.256Z</time></trkpt><trkpt lat="42.99047" lon="13.2387783"><ele>1334.2</ele><time>2026-04-18T10:19:42.256Z</time></trkpt><trkpt lat="42.9903967" lon="13.2387483"><ele>1328.8000000000002</ele><time>2026-04-18T10:19:43.256Z</time></trkpt><trkpt lat="42.9903033" lon="13.2387933"><ele>1323.4</ele><time>2026-04-18T10:19:44.256Z</time></trkpt><trkpt lat="42.9901867" lon="13.2388667"><ele>1318.0</ele><time>2026-04-18T10:19:45.256Z</time></trkpt><trkpt lat="42.9900717" lon="13.2389667"><ele>1324.0</ele><time>2026-04-18T10:19:46.256Z</time></trkpt><trkpt lat="42.989965" lon="13.2390683"><ele>1330.0</ele><time>2026-04-18T10:19:47.256Z</time></trkpt><trkpt lat="42.989865" lon="13.23917"><ele>1336.0</ele><time>2026-04-18T10:19:48.256Z</time></trkpt><trkpt lat="42.989765" lon="13.23928"><ele>1342.0</ele><time>2026-04-18T10:19:49.256Z</time></trkpt><trkpt lat="42.9896683" lon="13.2394067"><ele>1342.0</ele><time>2026-04-18T10:19:50.256Z</time></trkpt><trkpt lat="42.9895733" lon="13.2395283"><ele>1342.0</ele><time>2026-04-18T10:19:51.256Z</time></trkpt><trkpt lat="42.9894717" lon="13.239655"><ele>1342.0</ele><time>2026-04-18T10:19:52.256Z</time></trkpt><trkpt lat="42.9893833" lon="13.2397967"><ele>1342.0</ele><time>2026-04-18T10:19:53.256Z</time></trkpt><trkpt lat="42.9893033" lon="13.2399067"><ele>1341.6</ele><time>2026-04-18T10:19:54.255Z</time></trkpt><trkpt lat="42.9892267" lon="13.24001"><ele>1341.1999999999998</ele><time>2026-04-18T10:19:55.256Z</time></trkpt><trkpt lat="42.989155" lon="13.240105"><ele>1340.8</ele><time>2026-04-18T10:19:56.256Z</time></trkpt><trkpt lat="42.9890933" lon="13.2402"><ele>1340.4</ele><time>2026-04-18T10:19:57.256Z</time></trkpt><trkpt lat="42.9890417" lon="13.2402967"><ele>1340.0</ele><time>2026-04-18T10:19:58.256Z</time></trkpt><trkpt lat="42.9889967" lon="13.2404017"><ele>1340.0</ele><time>2026-04-18T10:19:59.256Z</time></trkpt><trkpt lat="42.9889483" lon="13.2405"><ele>1340.0</ele><time>2026-04-18T10:20:00.256Z</time></trkpt><trkpt lat="42.9888967" lon="13.24059"><ele>1340.0</ele><time>2026-04-18T10:20:01.255Z</time></trkpt><trkpt lat="42.9888433" lon="13.2406667"><ele>1340.0</ele><time>2026-04-18T10:20:02.256Z</time></trkpt><trkpt lat="42.9887833" lon="13.2407367"><ele>1340.0</ele><time>2026-04-18T10:20:03.256Z</time></trkpt><trkpt lat="42.98873" lon="13.2407867"><ele>1340.0</ele><time>2026-04-18T10:20:04.256Z</time></trkpt><trkpt lat="42.9886133" lon="13.2408317"><ele>1339.8333333333335</ele><time>2026-04-18T10:20:06.256Z</time></trkpt><trkpt lat="42.9885217" lon="13.2408617"><ele>1339.6666666666667</ele><time>2026-04-18T10:20:08.256Z</time></trkpt><trkpt lat="42.9884783" lon="13.2409633"><ele>1339.5</ele><time>2026-04-18T10:20:10.256Z</time></trkpt><trkpt lat="42.9884683" lon="13.2410583"><ele>1339.3333333333333</ele><time>2026-04-18T10:20:12.256Z</time></trkpt><trkpt lat="42.988485" lon="13.241175"><ele>1339.1666666666665</ele><time>2026-04-18T10:20:14.256Z</time></trkpt><trkpt lat="42.9884744" lon="13.2413261"><ele>1339.0</ele><time>2026-04-18T10:20:16.256Z</time></trkpt><trkpt lat="42.9884609" lon="13.2414523"><ele>1338.1666666666665</ele><time>2026-04-18T10:20:18.256Z</time></trkpt><trkpt lat="42.9884277" lon="13.2415518"><ele>1337.3333333333333</ele><time>2026-04-18T10:20:20.256Z</time></trkpt><trkpt lat="42.9883774" lon="13.241644"><ele>1336.5</ele><time>2026-04-18T10:20:22.256Z</time></trkpt><trkpt lat="42.9883241" lon="13.2417403"><ele>1335.6666666666667</ele><time>2026-04-18T10:20:24.256Z</time></trkpt><trkpt lat="42.9882788" lon="13.2418339"><ele>1334.8333333333335</ele><time>2026-04-18T10:20:26.256Z</time></trkpt><trkpt lat="42.9882344" lon="13.2419207"><ele>1334.0</ele><time>2026-04-18T10:20:28.256Z</time></trkpt><trkpt lat="42.9881896" lon="13.2419864"><ele>1334.0</ele><time>2026-04-18T10:20:30.256Z</time></trkpt><trkpt lat="42.9882231" lon="13.2420866"><ele>1334.0</ele><time>2026-04-18T10:21:57.257Z</time></trkpt><trkpt lat="42.9882917" lon="13.242112"><ele>1334.0</ele><time>2026-04-18T10:22:04.331Z</time></trkpt><trkpt lat="42.9883522" lon="13.2421365"><ele>1334.0</ele><time>2026-04-18T10:22:09.326Z</time></trkpt><trkpt lat="42.9884274" lon="13.242142"><ele>1334.0</ele><time>2026-04-18T10:25:51.283Z</time></trkpt><trkpt lat="42.9883978" lon="13.2420584"><ele>1334.0</ele><time>2026-04-18T10:26:40.395Z</time></trkpt><trkpt lat="42.9883" lon="13.242005"><ele>1334.0</ele><time>2026-04-18T10:50:06.261Z</time></trkpt><trkpt lat="42.988215" lon="13.24199"><ele>1334.0</ele><time>2026-04-18T10:50:19.261Z</time></trkpt><trkpt lat="42.9881524" lon="13.2420232"><ele>1334.0</ele><time>2026-04-18T10:50:27.393Z</time></trkpt><trkpt lat="42.9881767" lon="13.2421133"><ele>1334.0</ele><time>2026-04-18T10:53:59.262Z</time></trkpt><trkpt lat="42.988185" lon="13.242275"><ele>1334.0</ele><time>2026-04-18T10:54:01.262Z</time></trkpt><trkpt lat="42.9881833" lon="13.242365"><ele>1334.0</ele><time>2026-04-18T10:54:02.262Z</time></trkpt><trkpt lat="42.98817" lon="13.2424583"><ele>1333.5</ele><time>2026-04-18T10:54:03.262Z</time></trkpt><trkpt lat="42.9881467" lon="13.2425683"><ele>1333.0</ele><time>2026-04-18T10:54:04.262Z</time></trkpt><trkpt lat="42.9880433" lon="13.242565"><ele>1332.5</ele><time>2026-04-18T10:54:05.262Z</time></trkpt><trkpt lat="42.9880017" lon="13.2426633"><ele>1332.0</ele><time>2026-04-18T10:54:06.262Z</time></trkpt><trkpt lat="42.9879617" lon="13.2427583"><ele>1331.5</ele><time>2026-04-18T10:54:07.262Z</time></trkpt><trkpt lat="42.9879183" lon="13.2428283"><ele>1331.0</ele><time>2026-04-18T10:54:08.262Z</time></trkpt><trkpt lat="42.987865" lon="13.2429733"><ele>1330.0</ele><time>2026-04-18T10:54:10.262Z</time></trkpt><trkpt lat="42.9878283" lon="13.2431367"><ele>1329.0</ele><time>2026-04-18T10:54:12.262Z</time></trkpt><trkpt lat="42.9878067" lon="13.24322"><ele>1328.0</ele><time>2026-04-18T10:54:13.262Z</time></trkpt><trkpt lat="42.9877883" lon="13.2433083"><ele>1327.0</ele><time>2026-04-18T10:54:14.262Z</time></trkpt><trkpt lat="42.9877683" lon="13.24339"><ele>1326.0</ele><time>2026-04-18T10:54:15.262Z</time></trkpt><trkpt lat="42.987755" lon="13.2434783"><ele>1325.0</ele><time>2026-04-18T10:54:16.262Z</time></trkpt><trkpt lat="42.9877367" lon="13.2435683"><ele>1325.0</ele><time>2026-04-18T10:54:17.262Z</time></trkpt><trkpt lat="42.987725" lon="13.2436633"><ele>1325.0</ele><time>2026-04-18T10:54:18.262Z</time></trkpt><trkpt lat="42.9877117" lon="13.2437517"><ele>1325.0</ele><time>2026-04-18T10:54:19.262Z</time></trkpt><trkpt lat="42.9877017" lon="13.2438367"><ele>1325.0</ele><time>2026-04-18T10:54:20.262Z</time></trkpt><trkpt lat="42.9877033" lon="13.243925"><ele>1325.0</ele><time>2026-04-18T10:54:21.262Z</time></trkpt><trkpt lat="42.9877017" lon="13.2440167"><ele>1325.0</ele><time>2026-04-18T10:54:22.262Z</time></trkpt><trkpt lat="42.98769" lon="13.24412"><ele>1325.0</ele><time>2026-04-18T10:54:23.262Z</time></trkpt><trkpt lat="42.987675" lon="13.24421"><ele>1323.7142857142858</ele><time>2026-04-18T10:54:24.262Z</time></trkpt><trkpt lat="42.9876533" lon="13.244305"><ele>1322.4285714285713</ele><time>2026-04-18T10:54:25.262Z</time></trkpt><trkpt lat="42.9876367" lon="13.244405"><ele>1321.142857142857</ele><time>2026-04-18T10:54:26.262Z</time></trkpt><trkpt lat="42.987625" lon="13.244515"><ele>1319.857142857143</ele><time>2026-04-18T10:54:27.262Z</time></trkpt><trkpt lat="42.98761" lon="13.2446233"><ele>1318.5714285714284</ele><time>2026-04-18T10:54:28.262Z</time></trkpt><trkpt lat="42.987595" lon="13.24472"><ele>1317.2857142857142</ele><time>2026-04-18T10:54:29.262Z</time></trkpt><trkpt lat="42.9875817" lon="13.24481"><ele>1316.0</ele><time>2026-04-18T10:54:30.262Z</time></trkpt><trkpt lat="42.9875683" lon="13.2449617"><ele>1314.4</ele><time>2026-04-18T10:54:32.262Z</time></trkpt><trkpt lat="42.9875483" lon="13.2451133"><ele>1312.8</ele><time>2026-04-18T10:54:34.262Z</time></trkpt><trkpt lat="42.9875367" lon="13.2452417"><ele>1311.2</ele><time>2026-04-18T10:54:36.262Z</time></trkpt><trkpt lat="42.9875317" lon="13.2453717"><ele>1309.6000000000001</ele><time>2026-04-18T10:54:38.262Z</time></trkpt><trkpt lat="42.9875233" lon="13.2455167"><ele>1308.0</ele><time>2026-04-18T10:54:40.262Z</time></trkpt><trkpt lat="42.9875133" lon="13.245675"><ele>1311.0</ele><time>2026-04-18T10:54:42.262Z</time></trkpt><trkpt lat="42.9875" lon="13.245845"><ele>1314.0</ele><time>2026-04-18T10:54:44.262Z</time></trkpt><trkpt lat="42.9874833" lon="13.24593"><ele>1317.0</ele><time>2026-04-18T10:54:45.262Z</time></trkpt><trkpt lat="42.9874667" lon="13.2460933"><ele>1320.0</ele><time>2026-04-18T10:54:47.262Z</time></trkpt><trkpt lat="42.9874517" lon="13.2462283"><ele>1323.0</ele><time>2026-04-18T10:54:49.262Z</time></trkpt><trkpt lat="42.9874383" lon="13.2463317"><ele>1323.0</ele><time>2026-04-18T10:54:51.262Z</time></trkpt><trkpt lat="42.987435" lon="13.2464183"><ele>1323.0</ele><time>2026-04-18T10:54:53.262Z</time></trkpt><trkpt lat="42.9874117" lon="13.24651"><ele>1323.0</ele><time>2026-04-18T10:54:55.262Z</time></trkpt><trkpt lat="42.9873681" lon="13.2466175"><ele>1323.0</ele><time>2026-04-18T10:54:58.262Z</time></trkpt><trkpt lat="42.9873104" lon="13.2467984"><ele>1323.0</ele><time>2026-04-18T10:55:00.261Z</time></trkpt><trkpt lat="42.9872895" lon="13.2468852"><ele>1323.0</ele><time>2026-04-18T10:55:01.262Z</time></trkpt><trkpt lat="42.9872682" lon="13.2469696"><ele>1320.6666666666667</ele><time>2026-04-18T10:55:02.262Z</time></trkpt><trkpt lat="42.9872274" lon="13.2471379"><ele>1318.3333333333333</ele><time>2026-04-18T10:55:04.262Z</time></trkpt><trkpt lat="42.9872065" lon="13.2472359"><ele>1316.0</ele><time>2026-04-18T10:55:05.261Z</time></trkpt><trkpt lat="42.9871884" lon="13.247332"><ele>1313.6666666666665</ele><time>2026-04-18T10:55:06.262Z</time></trkpt><trkpt lat="42.9871661" lon="13.2474165"><ele>1311.3333333333333</ele><time>2026-04-18T10:55:07.262Z</time></trkpt><trkpt lat="42.9871341" lon="13.2475064"><ele>1309.0</ele><time>2026-04-18T10:55:08.262Z</time></trkpt><trkpt lat="42.9870853" lon="13.2476015"><ele>1307.5</ele><time>2026-04-18T10:55:09.262Z</time></trkpt><trkpt lat="42.9870277" lon="13.2476892"><ele>1306.0</ele><time>2026-04-18T10:55:10.262Z</time></trkpt><trkpt lat="42.9869652" lon="13.2477666"><ele>1304.5</ele><time>2026-04-18T10:55:11.262Z</time></trkpt><trkpt lat="42.9869028" lon="13.2478176"><ele>1303.0</ele><time>2026-04-18T10:55:12.262Z</time></trkpt><trkpt lat="42.9868382" lon="13.247852"><ele>1301.5</ele><time>2026-04-18T10:55:13.262Z</time></trkpt><trkpt lat="42.9867681" lon="13.247863"><ele>1300.0</ele><time>2026-04-18T10:55:14.262Z</time></trkpt><trkpt lat="42.9866851" lon="13.247858"><ele>1305.2</ele><time>2026-04-18T10:55:15.262Z</time></trkpt><trkpt lat="42.9865991" lon="13.2478392"><ele>1310.4</ele><time>2026-04-18T10:55:16.262Z</time></trkpt><trkpt lat="42.9865095" lon="13.2478089"><ele>1315.6</ele><time>2026-04-18T10:55:17.262Z</time></trkpt><trkpt lat="42.986418" lon="13.2477798"><ele>1320.8</ele><time>2026-04-18T10:55:18.262Z</time></trkpt><trkpt lat="42.9863248" lon="13.247749"><ele>1326.0</ele><time>2026-04-18T10:55:19.262Z</time></trkpt><trkpt lat="42.9862304" lon="13.2477126"><ele>1326.0</ele><time>2026-04-18T10:55:20.262Z</time></trkpt><trkpt lat="42.9861345" lon="13.2476687"><ele>1326.0</ele><time>2026-04-18T10:55:21.262Z</time></trkpt><trkpt lat="42.9860335" lon="13.247626"><ele>1326.0</ele><time>2026-04-18T10:55:22.262Z</time></trkpt><trkpt lat="42.9859348" lon="13.2475979"><ele>1326.0</ele><time>2026-04-18T10:55:23.262Z</time></trkpt><trkpt lat="42.9858456" lon="13.2475824"><ele>1326.0</ele><time>2026-04-18T10:55:24.261Z</time></trkpt><trkpt lat="42.9857713" lon="13.2475834"><ele>1324.6666666666667</ele><time>2026-04-18T10:55:25.262Z</time></trkpt><trkpt lat="42.9856642" lon="13.2476015"><ele>1323.3333333333333</ele><time>2026-04-18T10:55:27.262Z</time></trkpt><trkpt lat="42.9855881" lon="13.2476226"><ele>1322.0</ele><time>2026-04-18T10:55:30.262Z</time></trkpt><trkpt lat="42.9855299" lon="13.2476588"><ele>1320.6666666666665</ele><time>2026-04-18T10:55:32.262Z</time></trkpt><trkpt lat="42.9854664" lon="13.2477032"><ele>1319.3333333333333</ele><time>2026-04-18T10:55:35.262Z</time></trkpt><trkpt lat="42.9854217" lon="13.2477667"><ele>1318.0</ele><time>2026-04-18T10:56:10.262Z</time></trkpt><trkpt lat="42.98534" lon="13.2478433"><ele>1318.0</ele><time>2026-04-18T10:56:12.262Z</time></trkpt><trkpt lat="42.98524" lon="13.2479233"><ele>1318.0</ele><time>2026-04-18T10:56:14.262Z</time></trkpt><trkpt lat="42.9851817" lon="13.2479667"><ele>1318.0</ele><time>2026-04-18T10:56:15.262Z</time></trkpt><trkpt lat="42.98512" lon="13.2480067"><ele>1318.0</ele><time>2026-04-18T10:56:16.262Z</time></trkpt><trkpt lat="42.9850567" lon="13.24804"><ele>1318.0</ele><time>2026-04-18T10:56:17.262Z</time></trkpt><trkpt lat="42.98499" lon="13.24807"><ele>1318.0</ele><time>2026-04-18T10:56:18.262Z</time></trkpt><trkpt lat="42.9849167" lon="13.2481"><ele>1318.1666666666665</ele><time>2026-04-18T10:56:19.262Z</time></trkpt><trkpt lat="42.9848333" lon="13.2481483"><ele>1318.3333333333333</ele><time>2026-04-18T10:56:20.262Z</time></trkpt><trkpt lat="42.9847517" lon="13.24821"><ele>1318.5</ele><time>2026-04-18T10:56:21.262Z</time></trkpt><trkpt lat="42.9846783" lon="13.2482917"><ele>1318.6666666666667</ele><time>2026-04-18T10:56:22.262Z</time></trkpt><trkpt lat="42.9846133" lon="13.24836"><ele>1318.8333333333335</ele><time>2026-04-18T10:56:23.262Z</time></trkpt><trkpt lat="42.984555" lon="13.2484267"><ele>1319.0</ele><time>2026-04-18T10:56:24.262Z</time></trkpt><trkpt lat="42.984495" lon="13.2484967"><ele>1319.0</ele><time>2026-04-18T10:56:25.262Z</time></trkpt><trkpt lat="42.98443" lon="13.2485867"><ele>1319.0</ele><time>2026-04-18T10:56:26.262Z</time></trkpt><trkpt lat="42.9843583" lon="13.248685"><ele>1319.0</ele><time>2026-04-18T10:56:27.262Z</time></trkpt><trkpt lat="42.9842833" lon="13.24878"><ele>1319.0</ele><time>2026-04-18T10:56:28.262Z</time></trkpt><trkpt lat="42.98421" lon="13.248865"><ele>1319.0</ele><time>2026-04-18T10:56:29.262Z</time></trkpt><trkpt lat="42.9841433" lon="13.2489517"><ele>1322.6</ele><time>2026-04-18T10:56:30.262Z</time></trkpt><trkpt lat="42.9840783" lon="13.2490333"><ele>1326.2</ele><time>2026-04-18T10:56:31.262Z</time></trkpt><trkpt lat="42.9840133" lon="13.2491117"><ele>1329.8</ele><time>2026-04-18T10:56:32.262Z</time></trkpt><trkpt lat="42.9839417" lon="13.249195"><ele>1333.3999999999999</ele><time>2026-04-18T10:56:33.262Z</time></trkpt><trkpt lat="42.98387" lon="13.2492833"><ele>1337.0</ele><time>2026-04-18T10:56:34.262Z</time></trkpt><trkpt lat="42.9838" lon="13.2493717"><ele>1337.0</ele><time>2026-04-18T10:56:35.262Z</time></trkpt><trkpt lat="42.9837267" lon="13.24945"><ele>1337.0</ele><time>2026-04-18T10:56:36.262Z</time></trkpt><trkpt lat="42.98367" lon="13.2495317"><ele>1337.0</ele><time>2026-04-18T10:56:37.262Z</time></trkpt><trkpt lat="42.9836067" lon="13.249605"><ele>1337.0</ele><time>2026-04-18T10:56:38.262Z</time></trkpt><trkpt lat="42.98354" lon="13.2496683"><ele>1337.0</ele><time>2026-04-18T10:56:39.262Z</time></trkpt><trkpt lat="42.9834683" lon="13.24973"><ele>1337.0</ele><time>2026-04-18T10:56:40.262Z</time></trkpt><trkpt lat="42.9833983" lon="13.24978"><ele>1338.3999999999999</ele><time>2026-04-18T10:56:41.262Z</time></trkpt><trkpt lat="42.9833117" lon="13.249815"><ele>1339.8</ele><time>2026-04-18T10:56:42.262Z</time></trkpt><trkpt lat="42.9832183" lon="13.249845"><ele>1341.2</ele><time>2026-04-18T10:56:43.262Z</time></trkpt><trkpt lat="42.9831267" lon="13.2498583"><ele>1342.6</ele><time>2026-04-18T10:56:44.262Z</time></trkpt><trkpt lat="42.9830383" lon="13.2498733"><ele>1344.0</ele><time>2026-04-18T10:56:45.262Z</time></trkpt><trkpt lat="42.982945" lon="13.249875"><ele>1344.0</ele><time>2026-04-18T10:56:46.262Z</time></trkpt><trkpt lat="42.982855" lon="13.249875"><ele>1344.0</ele><time>2026-04-18T10:56:47.262Z</time></trkpt><trkpt lat="42.982765" lon="13.2498783"><ele>1344.0</ele><time>2026-04-18T10:56:48.262Z</time></trkpt><trkpt lat="42.9826683" lon="13.2499"><ele>1344.0</ele><time>2026-04-18T10:56:49.262Z</time></trkpt><trkpt lat="42.9825667" lon="13.2499183"><ele>1344.0</ele><time>2026-04-18T10:56:50.262Z</time></trkpt><trkpt lat="42.9824633" lon="13.2499433"><ele>1347.4</ele><time>2026-04-18T10:56:51.262Z</time></trkpt><trkpt lat="42.9823633" lon="13.24997"><ele>1350.8000000000002</ele><time>2026-04-18T10:56:52.262Z</time></trkpt><trkpt lat="42.9822583" lon="13.2500033"><ele>1354.1999999999998</ele><time>2026-04-18T10:56:53.262Z</time></trkpt><trkpt lat="42.98215" lon="13.250035"><ele>1357.6</ele><time>2026-04-18T10:56:54.262Z</time></trkpt><trkpt lat="42.9820533" lon="13.25005"><ele>1361.0</ele><time>2026-04-18T10:56:55.262Z</time></trkpt><trkpt lat="42.981975" lon="13.2500733"><ele>1361.0</ele><time>2026-04-18T10:56:56.262Z</time></trkpt><trkpt lat="42.9819" lon="13.2500867"><ele>1361.0</ele><time>2026-04-18T10:56:57.262Z</time></trkpt><trkpt lat="42.9818283" lon="13.250095"><ele>1361.0</ele><time>2026-04-18T10:56:58.262Z</time></trkpt><trkpt lat="42.9817567" lon="13.25011"><ele>1361.0</ele><time>2026-04-18T10:56:59.262Z</time></trkpt><trkpt lat="42.9816833" lon="13.2501217"><ele>1361.0</ele><time>2026-04-18T10:57:00.262Z</time></trkpt><trkpt lat="42.98162" lon="13.2501367"><ele>1361.0</ele><time>2026-04-18T10:57:01.262Z</time></trkpt><trkpt lat="42.9814933" lon="13.2501717"><ele>1363.6666666666667</ele><time>2026-04-18T10:57:03.262Z</time></trkpt><trkpt lat="42.98143" lon="13.2501917"><ele>1366.3333333333335</ele><time>2026-04-18T10:57:04.262Z</time></trkpt><trkpt lat="42.9813333" lon="13.2502433"><ele>1369.0</ele><time>2026-04-18T10:57:06.262Z</time></trkpt><trkpt lat="42.9812467" lon="13.2502733"><ele>1371.6666666666667</ele><time>2026-04-18T10:57:08.262Z</time></trkpt><trkpt lat="42.98116" lon="13.2503233"><ele>1374.3333333333333</ele><time>2026-04-18T10:57:10.262Z</time></trkpt><trkpt lat="42.981095" lon="13.2503567"><ele>1377.0</ele><time>2026-04-18T10:57:13.262Z</time></trkpt><trkpt lat="42.981005" lon="13.2504383"><ele>1377.0</ele><time>2026-04-18T10:58:26.262Z</time></trkpt><trkpt lat="42.98091" lon="13.2504717"><ele>1377.0</ele><time>2026-04-18T10:58:37.262Z</time></trkpt><trkpt lat="42.9808383" lon="13.250515"><ele>1377.0</ele><time>2026-04-18T10:58:40.262Z</time></trkpt><trkpt lat="42.9807683" lon="13.2505683"><ele>1377.0</ele><time>2026-04-18T10:58:42.262Z</time></trkpt><trkpt lat="42.9807133" lon="13.2506217"><ele>1377.0</ele><time>2026-04-18T10:58:44.262Z</time></trkpt><trkpt lat="42.9806567" lon="13.250665"><ele>1377.0</ele><time>2026-04-18T10:58:47.262Z</time></trkpt><trkpt lat="42.9805683" lon="13.2507433"><ele>1374.6</ele><time>2026-04-18T11:00:00.262Z</time></trkpt><trkpt lat="42.980445" lon="13.25088"><ele>1372.1999999999998</ele><time>2026-04-18T11:00:16.262Z</time></trkpt><trkpt lat="42.9803917" lon="13.2509367"><ele>1369.8</ele><time>2026-04-18T11:00:22.262Z</time></trkpt><trkpt lat="42.98035" lon="13.251025"><ele>1367.4</ele><time>2026-04-18T11:00:26.262Z</time></trkpt><trkpt lat="42.9803017" lon="13.251115"><ele>1365.0</ele><time>2026-04-18T11:00:29.262Z</time></trkpt><trkpt lat="42.980265" lon="13.2512067"><ele>1365.0</ele><time>2026-04-18T11:00:31.262Z</time></trkpt><trkpt lat="42.9801667" lon="13.2513867"><ele>1365.0</ele><time>2026-04-18T11:00:49.262Z</time></trkpt><trkpt lat="42.9800667" lon="13.2515117"><ele>1365.0</ele><time>2026-04-18T11:00:51.262Z</time></trkpt><trkpt lat="42.980015" lon="13.25158"><ele>1365.0</ele><time>2026-04-18T11:00:52.262Z</time></trkpt><trkpt lat="42.97997" lon="13.25165"><ele>1365.0</ele><time>2026-04-18T11:00:53.262Z</time></trkpt><trkpt lat="42.9799217" lon="13.2517183"><ele>1366.6</ele><time>2026-04-18T11:00:54.262Z</time></trkpt><trkpt lat="42.9798367" lon="13.251825"><ele>1368.2</ele><time>2026-04-18T11:00:56.262Z</time></trkpt><trkpt lat="42.9797617" lon="13.2519349"><ele>1369.8000000000002</ele><time>2026-04-18T11:00:58.262Z</time></trkpt><trkpt lat="42.9796996" lon="13.2520284"><ele>1371.4</ele><time>2026-04-18T11:01:00.262Z</time></trkpt><trkpt lat="42.9796405" lon="13.2521221"><ele>1373.0</ele><time>2026-04-18T11:01:02.262Z</time></trkpt><trkpt lat="42.9795708" lon="13.2521978"><ele>1373.0</ele><time>2026-04-18T11:01:06.288Z</time></trkpt><trkpt lat="42.979505" lon="13.252275"><ele>1373.0</ele><time>2026-04-18T11:01:08.262Z</time></trkpt><trkpt lat="42.9795483" lon="13.2521667"><ele>1373.0</ele><time>2026-04-18T11:04:37.262Z</time></trkpt><trkpt lat="42.9796067" lon="13.2521217"><ele>1373.0</ele><time>2026-04-18T11:05:05.262Z</time></trkpt><trkpt lat="42.9796683" lon="13.2520183"><ele>1373.0</ele><time>2026-04-18T11:05:07.262Z</time></trkpt><trkpt lat="42.979745" lon="13.251915"><ele>1373.0</ele><time>2026-04-18T11:05:09.262Z</time></trkpt><trkpt lat="42.9798317" lon="13.2517933"><ele>1373.0</ele><time>2026-04-18T11:05:11.262Z</time></trkpt><trkpt lat="42.97987" lon="13.2517217"><ele>1373.0</ele><time>2026-04-18T11:05:12.262Z</time></trkpt><trkpt lat="42.9799567" lon="13.2516033"><ele>1373.0</ele><time>2026-04-18T11:05:14.262Z</time></trkpt><trkpt lat="42.98003" lon="13.2514833"><ele>1373.0</ele><time>2026-04-18T11:05:16.262Z</time></trkpt><trkpt lat="42.9800833" lon="13.2513867"><ele>1373.0</ele><time>2026-04-18T11:05:18.262Z</time></trkpt><trkpt lat="42.980125" lon="13.2513083"><ele>1371.4</ele><time>2026-04-18T11:05:20.262Z</time></trkpt><trkpt lat="42.9801683" lon="13.2512117"><ele>1369.8000000000002</ele><time>2026-04-18T11:05:23.262Z</time></trkpt><trkpt lat="42.9802133" lon="13.2511217"><ele>1368.2</ele><time>2026-04-18T11:05:26.262Z</time></trkpt><trkpt lat="42.9802867" lon="13.2509633"><ele>1366.6</ele><time>2026-04-18T11:05:34.262Z</time></trkpt><trkpt lat="42.9803317" lon="13.2508983"><ele>1365.0</ele><time>2026-04-18T11:05:37.262Z</time></trkpt><trkpt lat="42.9804033" lon="13.2508233"><ele>1365.0</ele><time>2026-04-18T11:05:40.262Z</time></trkpt><trkpt lat="42.9804567" lon="13.2507767"><ele>1365.0</ele><time>2026-04-18T11:05:42.262Z</time></trkpt><trkpt lat="42.9805317" lon="13.2507283"><ele>1365.0</ele><time>2026-04-18T11:05:44.262Z</time></trkpt><trkpt lat="42.980615" lon="13.2506567"><ele>1365.0</ele><time>2026-04-18T11:05:46.262Z</time></trkpt><trkpt lat="42.980715" lon="13.2505717"><ele>1365.0</ele><time>2026-04-18T11:05:48.262Z</time></trkpt><trkpt lat="42.9807833" lon="13.2505367"><ele>1365.0</ele><time>2026-04-18T11:05:50.262Z</time></trkpt><trkpt lat="42.9808433" lon="13.250505"><ele>1367.0</ele><time>2026-04-18T11:05:53.262Z</time></trkpt><trkpt lat="42.9809067" lon="13.2504733"><ele>1369.0</ele><time>2026-04-18T11:05:57.262Z</time></trkpt><trkpt lat="42.9809866" lon="13.250449"><ele>1371.0</ele><time>2026-04-18T11:06:05.262Z</time></trkpt><trkpt lat="42.9810787" lon="13.2504089"><ele>1373.0</ele><time>2026-04-18T11:06:10.262Z</time></trkpt><trkpt lat="42.9811411" lon="13.2503652"><ele>1375.0</ele><time>2026-04-18T11:06:13.286Z</time></trkpt><trkpt lat="42.9812358" lon="13.2503184"><ele>1377.0</ele><time>2026-04-18T11:06:15.353Z</time></trkpt><trkpt lat="42.9813147" lon="13.2502762"><ele>1377.0</ele><time>2026-04-18T11:06:16.262Z</time></trkpt><trkpt lat="42.9813787" lon="13.2502588"><ele>1377.0</ele><time>2026-04-18T11:06:17.262Z</time></trkpt><trkpt lat="42.981445" lon="13.250245"><ele>1377.0</ele><time>2026-04-18T11:06:18.262Z</time></trkpt><trkpt lat="42.9815633" lon="13.2502117"><ele>1377.0</ele><time>2026-04-18T11:06:20.261Z</time></trkpt><trkpt lat="42.981635" lon="13.250195"><ele>1377.0</ele><time>2026-04-18T11:06:21.261Z</time></trkpt><trkpt lat="42.98173" lon="13.2501733"><ele>1377.0</ele><time>2026-04-18T11:06:22.261Z</time></trkpt><trkpt lat="42.981835" lon="13.25015"><ele>1374.3333333333333</ele><time>2026-04-18T11:06:23.261Z</time></trkpt><trkpt lat="42.9819383" lon="13.2501283"><ele>1371.6666666666667</ele><time>2026-04-18T11:06:24.261Z</time></trkpt><trkpt lat="42.9820333" lon="13.250105"><ele>1369.0</ele><time>2026-04-18T11:06:25.261Z</time></trkpt><trkpt lat="42.98212" lon="13.250075"><ele>1366.3333333333335</ele><time>2026-04-18T11:06:26.261Z</time></trkpt><trkpt lat="42.982195" lon="13.2500583"><ele>1363.6666666666667</ele><time>2026-04-18T11:06:27.261Z</time></trkpt><trkpt lat="42.9822767" lon="13.250045"><ele>1361.0</ele><time>2026-04-18T11:06:28.261Z</time></trkpt><trkpt lat="42.98234" lon="13.250025"><ele>1361.0</ele><time>2026-04-18T11:06:29.261Z</time></trkpt><trkpt lat="42.9824033" lon="13.250015"><ele>1361.0</ele><time>2026-04-18T11:06:30.261Z</time></trkpt><trkpt lat="42.9824683" lon="13.2500083"><ele>1361.0</ele><time>2026-04-18T11:06:31.261Z</time></trkpt><trkpt lat="42.9825433" lon="13.2500033"><ele>1361.0</ele><time>2026-04-18T11:06:32.261Z</time></trkpt><trkpt lat="42.9826217" lon="13.2499933"><ele>1361.0</ele><time>2026-04-18T11:06:33.261Z</time></trkpt><trkpt lat="42.9827067" lon="13.2499683"><ele>1361.0</ele><time>2026-04-18T11:06:34.261Z</time></trkpt><trkpt lat="42.9827917" lon="13.2499483"><ele>1358.1666666666667</ele><time>2026-04-18T11:06:35.261Z</time></trkpt><trkpt lat="42.98287" lon="13.249945"><ele>1355.3333333333335</ele><time>2026-04-18T11:06:36.261Z</time></trkpt><trkpt lat="42.9829417" lon="13.2499433"><ele>1352.5</ele><time>2026-04-18T11:06:37.261Z</time></trkpt><trkpt lat="42.98302" lon="13.249935"><ele>1349.6666666666667</ele><time>2026-04-18T11:06:38.261Z</time></trkpt><trkpt lat="42.98315" lon="13.2499133"><ele>1346.8333333333333</ele><time>2026-04-18T11:06:40.261Z</time></trkpt><trkpt lat="42.9832183" lon="13.24989"><ele>1344.0</ele><time>2026-04-18T11:06:41.261Z</time></trkpt><trkpt lat="42.983295" lon="13.249855"><ele>1342.6</ele><time>2026-04-18T11:06:42.261Z</time></trkpt><trkpt lat="42.9833717" lon="13.249805"><ele>1341.2</ele><time>2026-04-18T11:06:43.261Z</time></trkpt><trkpt lat="42.98344" lon="13.2497683"><ele>1339.8</ele><time>2026-04-18T11:06:44.261Z</time></trkpt><trkpt lat="42.9835033" lon="13.249725"><ele>1338.3999999999999</ele><time>2026-04-18T11:06:45.261Z</time></trkpt><trkpt lat="42.983595" lon="13.2496467"><ele>1337.0</ele><time>2026-04-18T11:06:47.261Z</time></trkpt><trkpt lat="42.9836883" lon="13.2495533"><ele>1337.0</ele><time>2026-04-18T11:06:49.261Z</time></trkpt><trkpt lat="42.983735" lon="13.2494883"><ele>1337.0</ele><time>2026-04-18T11:06:50.261Z</time></trkpt><trkpt lat="42.9837783" lon="13.2494217"><ele>1337.0</ele><time>2026-04-18T11:06:51.261Z</time></trkpt><trkpt lat="42.9838183" lon="13.2493517"><ele>1337.0</ele><time>2026-04-18T11:06:52.261Z</time></trkpt><trkpt lat="42.9838967" lon="13.2492467"><ele>1337.0</ele><time>2026-04-18T11:06:54.261Z</time></trkpt><trkpt lat="42.9839933" lon="13.24913"><ele>1337.0</ele><time>2026-04-18T11:06:56.261Z</time></trkpt><trkpt lat="42.9840483" lon="13.2490717"><ele>1337.0</ele><time>2026-04-18T11:06:57.261Z</time></trkpt><trkpt lat="42.9841383" lon="13.24896"><ele>1337.0</ele><time>2026-04-18T11:06:59.261Z</time></trkpt><trkpt lat="42.984225" lon="13.248835"><ele>1337.0</ele><time>2026-04-18T11:07:01.261Z</time></trkpt><trkpt lat="42.9842767" lon="13.2487667"><ele>1337.0</ele><time>2026-04-18T11:07:02.261Z</time></trkpt><trkpt lat="42.9843283" lon="13.2486983"><ele>1337.0</ele><time>2026-04-18T11:07:03.261Z</time></trkpt><trkpt lat="42.9843867" lon="13.2486433"><ele>1334.4285714285713</ele><time>2026-04-18T11:07:04.261Z</time></trkpt><trkpt lat="42.9844417" lon="13.2485867"><ele>1331.857142857143</ele><time>2026-04-18T11:07:05.261Z</time></trkpt><trkpt lat="42.9844883" lon="13.2485267"><ele>1329.2857142857142</ele><time>2026-04-18T11:07:06.261Z</time></trkpt><trkpt lat="42.9845417" lon="13.2484633"><ele>1326.7142857142858</ele><time>2026-04-18T11:07:07.261Z</time></trkpt><trkpt lat="42.984585" lon="13.248395"><ele>1324.142857142857</ele><time>2026-04-18T11:07:08.261Z</time></trkpt><trkpt lat="42.984635" lon="13.2483367"><ele>1321.5714285714284</ele><time>2026-04-18T11:07:09.261Z</time></trkpt><trkpt lat="42.9846833" lon="13.248275"><ele>1319.0</ele><time>2026-04-18T11:07:10.261Z</time></trkpt><trkpt lat="42.984735" lon="13.2482233"><ele>1319.0</ele><time>2026-04-18T11:07:11.261Z</time></trkpt><trkpt lat="42.9847967" lon="13.2481667"><ele>1319.0</ele><time>2026-04-18T11:07:12.261Z</time></trkpt><trkpt lat="42.9848633" lon="13.2481167"><ele>1319.0</ele><time>2026-04-18T11:07:13.261Z</time></trkpt><trkpt lat="42.9849783" lon="13.2480267"><ele>1319.0</ele><time>2026-04-18T11:07:15.261Z</time></trkpt><trkpt lat="42.985055" lon="13.2479883"><ele>1319.0</ele><time>2026-04-18T11:07:16.261Z</time></trkpt><trkpt lat="42.9851167" lon="13.2479567"><ele>1319.0</ele><time>2026-04-18T11:07:17.261Z</time></trkpt><trkpt lat="42.9851817" lon="13.2479283"><ele>1318.8571428571427</ele><time>2026-04-18T11:07:18.261Z</time></trkpt><trkpt lat="42.98525" lon="13.24789"><ele>1318.7142857142858</ele><time>2026-04-18T11:07:19.261Z</time></trkpt><trkpt lat="42.9853167" lon="13.2478367"><ele>1318.5714285714284</ele><time>2026-04-18T11:07:20.261Z</time></trkpt><trkpt lat="42.9853817" lon="13.2477883"><ele>1318.4285714285713</ele><time>2026-04-18T11:07:21.261Z</time></trkpt><trkpt lat="42.98544" lon="13.2477417"><ele>1318.2857142857142</ele><time>2026-04-18T11:07:22.261Z</time></trkpt><trkpt lat="42.9854983" lon="13.2477017"><ele>1318.142857142857</ele><time>2026-04-18T11:07:23.261Z</time></trkpt><trkpt lat="42.9855567" lon="13.2476667"><ele>1318.0</ele><time>2026-04-18T11:07:24.261Z</time></trkpt><trkpt lat="42.9856183" lon="13.2476333"><ele>1318.0</ele><time>2026-04-18T11:07:25.261Z</time></trkpt><trkpt lat="42.98569" lon="13.2476167"><ele>1318.0</ele><time>2026-04-18T11:07:26.261Z</time></trkpt><trkpt lat="42.985775" lon="13.2476083"><ele>1318.0</ele><time>2026-04-18T11:07:27.261Z</time></trkpt><trkpt lat="42.9858517" lon="13.2476167"><ele>1318.0</ele><time>2026-04-18T11:07:28.261Z</time></trkpt><trkpt lat="42.9859333" lon="13.2476367"><ele>1318.0</ele><time>2026-04-18T11:07:29.261Z</time></trkpt><trkpt lat="42.9860133" lon="13.2476633"><ele>1318.0</ele><time>2026-04-18T11:07:30.261Z</time></trkpt><trkpt lat="42.98609" lon="13.2476867"><ele>1319.3333333333333</ele><time>2026-04-18T11:07:31.261Z</time></trkpt><trkpt lat="42.9861683" lon="13.2477133"><ele>1320.6666666666665</ele><time>2026-04-18T11:07:32.261Z</time></trkpt><trkpt lat="42.986245" lon="13.24775"><ele>1322.0</ele><time>2026-04-18T11:07:33.261Z</time></trkpt><trkpt lat="42.986325" lon="13.2477817"><ele>1323.3333333333333</ele><time>2026-04-18T11:07:34.261Z</time></trkpt><trkpt lat="42.986405" lon="13.2478017"><ele>1324.6666666666667</ele><time>2026-04-18T11:07:35.261Z</time></trkpt><trkpt lat="42.9864833" lon="13.24782"><ele>1326.0</ele><time>2026-04-18T11:07:36.261Z</time></trkpt><trkpt lat="42.9865617" lon="13.2478483"><ele>1326.0</ele><time>2026-04-18T11:07:37.261Z</time></trkpt><trkpt lat="42.9866517" lon="13.2478817"><ele>1326.0</ele><time>2026-04-18T11:07:38.261Z</time></trkpt><trkpt lat="42.986735" lon="13.2478933"><ele>1326.0</ele><time>2026-04-18T11:07:39.261Z</time></trkpt><trkpt lat="42.9868233" lon="13.2478867"><ele>1326.0</ele><time>2026-04-18T11:07:40.261Z</time></trkpt><trkpt lat="42.9868933" lon="13.24787"><ele>1326.0</ele><time>2026-04-18T11:07:41.261Z</time></trkpt><trkpt lat="42.9869567" lon="13.2478233"><ele>1326.0</ele><time>2026-04-18T11:07:42.261Z</time></trkpt><trkpt lat="42.9870133" lon="13.2477617"><ele>1323.5714285714284</ele><time>2026-04-18T11:07:43.261Z</time></trkpt><trkpt lat="42.9870633" lon="13.2477"><ele>1321.142857142857</ele><time>2026-04-18T11:07:44.26Z</time></trkpt><trkpt lat="42.987105" lon="13.2476083"><ele>1318.7142857142858</ele><time>2026-04-18T11:07:45.261Z</time></trkpt><trkpt lat="42.9871367" lon="13.24752"><ele>1316.2857142857142</ele><time>2026-04-18T11:07:46.261Z</time></trkpt><trkpt lat="42.9871717" lon="13.2474317"><ele>1313.857142857143</ele><time>2026-04-18T11:07:47.261Z</time></trkpt><trkpt lat="42.9871967" lon="13.247345"><ele>1311.4285714285713</ele><time>2026-04-18T11:07:48.261Z</time></trkpt><trkpt lat="42.9872167" lon="13.2472583"><ele>1309.0</ele><time>2026-04-18T11:07:49.261Z</time></trkpt><trkpt lat="42.9872383" lon="13.2471767"><ele>1309.0</ele><time>2026-04-18T11:07:50.261Z</time></trkpt><trkpt lat="42.9872617" lon="13.247095"><ele>1309.0</ele><time>2026-04-18T11:07:51.261Z</time></trkpt><trkpt lat="42.9873067" lon="13.246925"><ele>1309.0</ele><time>2026-04-18T11:07:53.261Z</time></trkpt><trkpt lat="42.9873283" lon="13.2468433"><ele>1309.0</ele><time>2026-04-18T11:07:54.261Z</time></trkpt><trkpt lat="42.9873567" lon="13.2467533"><ele>1309.0</ele><time>2026-04-18T11:07:55.261Z</time></trkpt><trkpt lat="42.9873817" lon="13.246665"><ele>1309.0</ele><time>2026-04-18T11:07:56.261Z</time></trkpt><trkpt lat="42.9874" lon="13.2465717"><ele>1309.0</ele><time>2026-04-18T11:07:57.261Z</time></trkpt><trkpt lat="42.987415" lon="13.2464833"><ele>1309.0</ele><time>2026-04-18T11:07:58.26Z</time></trkpt><trkpt lat="42.9874267" lon="13.246325"><ele>1309.0</ele><time>2026-04-18T11:08:00.261Z</time></trkpt><trkpt lat="42.9874567" lon="13.2461483"><ele>1309.0</ele><time>2026-04-18T11:08:02.261Z</time></trkpt><trkpt lat="42.9874717" lon="13.2460383"><ele>1309.0</ele><time>2026-04-18T11:08:03.261Z</time></trkpt><trkpt lat="42.987485" lon="13.24594"><ele>1308.8333333333333</ele><time>2026-04-18T11:08:04.261Z</time></trkpt><trkpt lat="42.987495" lon="13.24585"><ele>1308.6666666666665</ele><time>2026-04-18T11:08:05.26Z</time></trkpt><trkpt lat="42.9875033" lon="13.2457567"><ele>1308.5</ele><time>2026-04-18T11:08:06.261Z</time></trkpt><trkpt lat="42.9875117" lon="13.2456667"><ele>1308.3333333333333</ele><time>2026-04-18T11:08:07.261Z</time></trkpt><trkpt lat="42.9875233" lon="13.24548"><ele>1308.1666666666667</ele><time>2026-04-18T11:08:09.261Z</time></trkpt><trkpt lat="42.9875233" lon="13.2453917"><ele>1308.0</ele><time>2026-04-18T11:08:10.261Z</time></trkpt><trkpt lat="42.98752" lon="13.2452317"><ele>1308.0</ele><time>2026-04-18T11:08:12.261Z</time></trkpt><trkpt lat="42.9875217" lon="13.2451433"><ele>1308.0</ele><time>2026-04-18T11:08:13.261Z</time></trkpt><trkpt lat="42.9875217" lon="13.2450467"><ele>1308.0</ele><time>2026-04-18T11:08:14.261Z</time></trkpt><trkpt lat="42.987535" lon="13.244945"><ele>1308.0</ele><time>2026-04-18T11:08:15.261Z</time></trkpt><trkpt lat="42.9875533" lon="13.2448383"><ele>1308.0</ele><time>2026-04-18T11:08:16.261Z</time></trkpt><trkpt lat="42.987565" lon="13.2447333"><ele>1308.0</ele><time>2026-04-18T11:08:17.261Z</time></trkpt><trkpt lat="42.9875733" lon="13.2446417"><ele>1308.0</ele><time>2026-04-18T11:08:18.261Z</time></trkpt><trkpt lat="42.9875867" lon="13.2445383"><ele>1309.3333333333333</ele><time>2026-04-18T11:08:19.261Z</time></trkpt><trkpt lat="42.9875917" lon="13.244445"><ele>1310.6666666666667</ele><time>2026-04-18T11:08:20.261Z</time></trkpt><trkpt lat="42.9876167" lon="13.2443417"><ele>1312.0</ele><time>2026-04-18T11:08:21.261Z</time></trkpt><trkpt lat="42.987635" lon="13.2442333"><ele>1313.3333333333335</ele><time>2026-04-18T11:08:22.261Z</time></trkpt><trkpt lat="42.9876567" lon="13.2441333"><ele>1314.6666666666667</ele><time>2026-04-18T11:08:23.261Z</time></trkpt><trkpt lat="42.98768" lon="13.2440333"><ele>1316.0</ele><time>2026-04-18T11:08:24.261Z</time></trkpt><trkpt lat="42.9876983" lon="13.243925"><ele>1317.5</ele><time>2026-04-18T11:08:25.261Z</time></trkpt><trkpt lat="42.9877117" lon="13.243825"><ele>1319.0</ele><time>2026-04-18T11:08:26.261Z</time></trkpt><trkpt lat="42.98773" lon="13.2437233"><ele>1320.5</ele><time>2026-04-18T11:08:27.261Z</time></trkpt><trkpt lat="42.9877433" lon="13.2436133"><ele>1322.0</ele><time>2026-04-18T11:08:28.261Z</time></trkpt><trkpt lat="42.987755" lon="13.243505"><ele>1323.5</ele><time>2026-04-18T11:08:29.261Z</time></trkpt><trkpt lat="42.9877683" lon="13.2434067"><ele>1325.0</ele><time>2026-04-18T11:08:30.261Z</time></trkpt><trkpt lat="42.987785" lon="13.243305"><ele>1325.0</ele><time>2026-04-18T11:08:31.261Z</time></trkpt><trkpt lat="42.987805" lon="13.243195"><ele>1325.0</ele><time>2026-04-18T11:08:32.261Z</time></trkpt><trkpt lat="42.9878267" lon="13.2430883"><ele>1325.0</ele><time>2026-04-18T11:08:33.261Z</time></trkpt><trkpt lat="42.987855" lon="13.2429967"><ele>1325.0</ele><time>2026-04-18T11:08:34.261Z</time></trkpt><trkpt lat="42.9878817" lon="13.2429083"><ele>1325.0</ele><time>2026-04-18T11:08:35.261Z</time></trkpt><trkpt lat="42.9879083" lon="13.24281"><ele>1325.0</ele><time>2026-04-18T11:08:36.261Z</time></trkpt><trkpt lat="42.9879367" lon="13.24271"><ele>1325.857142857143</ele><time>2026-04-18T11:08:37.261Z</time></trkpt><trkpt lat="42.9879683" lon="13.2426217"><ele>1326.7142857142856</ele><time>2026-04-18T11:08:38.261Z</time></trkpt><trkpt lat="42.988" lon="13.242535"><ele>1327.5714285714284</ele><time>2026-04-18T11:08:39.261Z</time></trkpt><trkpt lat="42.9880317" lon="13.24244"><ele>1328.4285714285716</ele><time>2026-04-18T11:08:40.261Z</time></trkpt><trkpt lat="42.9880617" lon="13.24235"><ele>1329.2857142857142</ele><time>2026-04-18T11:08:41.261Z</time></trkpt><trkpt lat="42.988095" lon="13.2422583"><ele>1330.142857142857</ele><time>2026-04-18T11:08:42.261Z</time></trkpt><trkpt lat="42.9881283" lon="13.242175"><ele>1331.0</ele><time>2026-04-18T11:08:43.261Z</time></trkpt><trkpt lat="42.9881783" lon="13.2420383"><ele>1331.6</ele><time>2026-04-18T11:08:45.261Z</time></trkpt><trkpt lat="42.9882433" lon="13.2419067"><ele>1332.1999999999998</ele><time>2026-04-18T11:08:47.261Z</time></trkpt><trkpt lat="42.9883033" lon="13.2417733"><ele>1332.8000000000002</ele><time>2026-04-18T11:08:49.261Z</time></trkpt><trkpt lat="42.9883533" lon="13.24164"><ele>1333.4</ele><time>2026-04-18T11:08:51.261Z</time></trkpt><trkpt lat="42.9884017" lon="13.2415533"><ele>1334.0</ele><time>2026-04-18T11:08:53.261Z</time></trkpt><trkpt lat="42.9884733" lon="13.24149"><ele>1334.0000000000002</ele><time>2026-04-18T11:08:56.261Z</time></trkpt><trkpt lat="42.9885383" lon="13.2415117"><ele>1334.0</ele><time>2026-04-18T11:08:58.261Z</time></trkpt><trkpt lat="42.9886283" lon="13.2415267"><ele>1334.0</ele><time>2026-04-18T11:09:00.261Z</time></trkpt><trkpt lat="42.9886967" lon="13.2414967"><ele>1334.0</ele><time>2026-04-18T11:09:02.261Z</time></trkpt><trkpt lat="42.9887417" lon="13.2414217"><ele>1334.0</ele><time>2026-04-18T11:09:04.261Z</time></trkpt><trkpt lat="42.9887883" lon="13.2413333"><ele>1334.0000000000002</ele><time>2026-04-18T11:09:07.261Z</time></trkpt><trkpt lat="42.988795" lon="13.2412433"><ele>1334.0</ele><time>2026-04-18T11:09:10.261Z</time></trkpt><trkpt lat="42.9887883" lon="13.2411217"><ele>1335.0</ele><time>2026-04-18T11:09:12.261Z</time></trkpt><trkpt lat="42.988805" lon="13.2410283"><ele>1336.0</ele><time>2026-04-18T11:09:14.261Z</time></trkpt><trkpt lat="42.98882" lon="13.24094"><ele>1337.0</ele><time>2026-04-18T11:09:17.261Z</time></trkpt><trkpt lat="42.9888283" lon="13.2407967"><ele>1338.0</ele><time>2026-04-18T11:11:55.261Z</time></trkpt><trkpt lat="42.9888933" lon="13.2406417"><ele>1339.0</ele><time>2026-04-18T11:11:57.261Z</time></trkpt><trkpt lat="42.98894" lon="13.240545"><ele>1339.2</ele><time>2026-04-18T11:11:58.261Z</time></trkpt><trkpt lat="42.9889933" lon="13.2404433"><ele>1339.4</ele><time>2026-04-18T11:11:59.261Z</time></trkpt><trkpt lat="42.98905" lon="13.2403333"><ele>1339.6</ele><time>2026-04-18T11:12:00.261Z</time></trkpt><trkpt lat="42.98911" lon="13.2402283"><ele>1339.8</ele><time>2026-04-18T11:12:01.261Z</time></trkpt><trkpt lat="42.9891767" lon="13.2401133"><ele>1340.0</ele><time>2026-04-18T11:12:02.261Z</time></trkpt><trkpt lat="42.98925" lon="13.2399883"><ele>1340.5</ele><time>2026-04-18T11:12:03.261Z</time></trkpt><trkpt lat="42.989325" lon="13.2398717"><ele>1341.0</ele><time>2026-04-18T11:12:04.261Z</time></trkpt><trkpt lat="42.989405" lon="13.239775"><ele>1341.5</ele><time>2026-04-18T11:12:05.261Z</time></trkpt><trkpt lat="42.98949" lon="13.239665"><ele>1342.0</ele><time>2026-04-18T11:12:06.261Z</time></trkpt><trkpt lat="42.9895733" lon="13.2395533"><ele>1342.0</ele><time>2026-04-18T11:12:07.261Z</time></trkpt><trkpt lat="42.98966" lon="13.2394367"><ele>1342.0</ele><time>2026-04-18T11:12:08.261Z</time></trkpt><trkpt lat="42.989755" lon="13.2393167"><ele>1342.0</ele><time>2026-04-18T11:12:09.261Z</time></trkpt><trkpt lat="42.9898583" lon="13.2391967"><ele>1342.0</ele><time>2026-04-18T11:12:10.261Z</time></trkpt><trkpt lat="42.9899633" lon="13.23909"><ele>1342.6</ele><time>2026-04-18T11:12:11.261Z</time></trkpt><trkpt lat="42.990065" lon="13.2389933"><ele>1343.1999999999998</ele><time>2026-04-18T11:12:12.261Z</time></trkpt><trkpt lat="42.9901633" lon="13.238915"><ele>1343.8</ele><time>2026-04-18T11:12:13.261Z</time></trkpt><trkpt lat="42.9902483" lon="13.23886"><ele>1344.4</ele><time>2026-04-18T11:12:14.261Z</time></trkpt><trkpt lat="42.9903367" lon="13.2388133"><ele>1345.0</ele><time>2026-04-18T11:12:15.261Z</time></trkpt><trkpt lat="42.9904167" lon="13.2387917"><ele>1345.0</ele><time>2026-04-18T11:12:16.261Z</time></trkpt><trkpt lat="42.9904883" lon="13.2388267"><ele>1345.0</ele><time>2026-04-18T11:12:17.261Z</time></trkpt><trkpt lat="42.990555" lon="13.2389033"><ele>1345.0</ele><time>2026-04-18T11:12:18.261Z</time></trkpt><trkpt lat="42.9906133" lon="13.2390033"><ele>1345.0</ele><time>2026-04-18T11:12:19.261Z</time></trkpt><trkpt lat="42.9906767" lon="13.2390933"><ele>1345.0</ele><time>2026-04-18T11:12:20.261Z</time></trkpt><trkpt lat="42.99075" lon="13.23916"><ele>1345.0</ele><time>2026-04-18T11:12:21.261Z</time></trkpt><trkpt lat="42.9908317" lon="13.2392117"><ele>1344.8</ele><time>2026-04-18T11:12:22.261Z</time></trkpt><trkpt lat="42.9909217" lon="13.2392367"><ele>1344.6</ele><time>2026-04-18T11:12:23.261Z</time></trkpt><trkpt lat="42.99102" lon="13.23925"><ele>1344.4</ele><time>2026-04-18T11:12:24.261Z</time></trkpt><trkpt lat="42.9911217" lon="13.2392483"><ele>1344.2</ele><time>2026-04-18T11:12:25.261Z</time></trkpt><trkpt lat="42.99123" lon="13.2392467"><ele>1344.0</ele><time>2026-04-18T11:12:26.261Z</time></trkpt><trkpt lat="42.9913417" lon="13.239245"><ele>1344.0</ele><time>2026-04-18T11:12:27.261Z</time></trkpt><trkpt lat="42.99146" lon="13.2392633"><ele>1344.0</ele><time>2026-04-18T11:12:28.261Z</time></trkpt><trkpt lat="42.9915783" lon="13.2393033"><ele>1344.0</ele><time>2026-04-18T11:12:29.261Z</time></trkpt><trkpt lat="42.99171" lon="13.2393517"><ele>1344.0</ele><time>2026-04-18T11:12:30.26Z</time></trkpt><trkpt lat="42.9918517" lon="13.239415"><ele>1345.3333333333333</ele><time>2026-04-18T11:12:31.261Z</time></trkpt><trkpt lat="42.9920067" lon="13.2394883"><ele>1346.6666666666665</ele><time>2026-04-18T11:12:32.261Z</time></trkpt><trkpt lat="42.9921717" lon="13.239565"><ele>1348.0</ele><time>2026-04-18T11:12:33.261Z</time></trkpt><trkpt lat="42.992335" lon="13.2396367"><ele>1348.0</ele><time>2026-04-18T11:12:34.261Z</time></trkpt><trkpt lat="42.9925" lon="13.23966"><ele>1348.0</ele><time>2026-04-18T11:12:35.261Z</time></trkpt><trkpt lat="42.9926683" lon="13.239655"><ele>1348.0</ele><time>2026-04-18T11:12:36.261Z</time></trkpt><trkpt lat="42.9928217" lon="13.239615"><ele>1350.25</ele><time>2026-04-18T11:12:37.261Z</time></trkpt><trkpt lat="42.9929667" lon="13.2395383"><ele>1352.5</ele><time>2026-04-18T11:12:38.261Z</time></trkpt><trkpt lat="42.9931017" lon="13.23945"><ele>1354.75</ele><time>2026-04-18T11:12:39.261Z</time></trkpt><trkpt lat="42.993235" lon="13.2393767"><ele>1357.0</ele><time>2026-04-18T11:12:40.261Z</time></trkpt><trkpt lat="42.993375" lon="13.239305"><ele>1364.0</ele><time>2026-04-18T11:12:41.261Z</time></trkpt><trkpt lat="42.99352" lon="13.2392433"><ele>1371.0</ele><time>2026-04-18T11:12:42.261Z</time></trkpt><trkpt lat="42.9936617" lon="13.2391867"><ele>1378.0</ele><time>2026-04-18T11:12:43.261Z</time></trkpt><trkpt lat="42.9938083" lon="13.2391167"><ele>1378.0</ele><time>2026-04-18T11:12:44.261Z</time></trkpt><trkpt lat="42.9939567" lon="13.2390483"><ele>1378.0</ele><time>2026-04-18T11:12:45.261Z</time></trkpt><trkpt lat="42.9941083" lon="13.23898"><ele>1378.0</ele><time>2026-04-18T11:12:46.261Z</time></trkpt><trkpt lat="42.99426" lon="13.2389267"><ele>1375.0</ele><time>2026-04-18T11:12:47.261Z</time></trkpt><trkpt lat="42.9943933" lon="13.238905"><ele>1372.0</ele><time>2026-04-18T11:12:48.261Z</time></trkpt><trkpt lat="42.9945183" lon="13.2388933"><ele>1369.0</ele><time>2026-04-18T11:12:49.261Z</time></trkpt><trkpt lat="42.9946433" lon="13.2388867"><ele>1366.0</ele><time>2026-04-18T11:12:50.261Z</time></trkpt><trkpt lat="42.99477" lon="13.2388517"><ele>1366.0</ele><time>2026-04-18T11:12:51.261Z</time></trkpt><trkpt lat="42.994895" lon="13.23879"><ele>1366.0</ele><time>2026-04-18T11:12:52.261Z</time></trkpt><trkpt lat="42.9950267" lon="13.2386933"><ele>1366.0</ele><time>2026-04-18T11:12:53.261Z</time></trkpt><trkpt lat="42.995155" lon="13.2385583"><ele>1366.0</ele><time>2026-04-18T11:12:54.261Z</time></trkpt><trkpt lat="42.9952783" lon="13.2384033"><ele>1368.0</ele><time>2026-04-18T11:12:55.261Z</time></trkpt><trkpt lat="42.9954" lon="13.2382567"><ele>1370.0</ele><time>2026-04-18T11:12:56.261Z</time></trkpt><trkpt lat="42.9955117" lon="13.2381183"><ele>1372.0</ele><time>2026-04-18T11:12:57.26Z</time></trkpt><trkpt lat="42.99562" lon="13.2379833"><ele>1372.0</ele><time>2026-04-18T11:12:58.261Z</time></trkpt><trkpt lat="42.9957267" lon="13.2378567"><ele>1372.0</ele><time>2026-04-18T11:12:59.261Z</time></trkpt><trkpt lat="42.9958317" lon="13.23773"><ele>1372.0</ele><time>2026-04-18T11:13:00.261Z</time></trkpt><trkpt lat="42.9959333" lon="13.2376167"><ele>1372.0</ele><time>2026-04-18T11:13:01.261Z</time></trkpt><trkpt lat="42.9960267" lon="13.237515"><ele>1372.75</ele><time>2026-04-18T11:13:02.261Z</time></trkpt><trkpt lat="42.996125" lon="13.2374367"><ele>1373.5</ele><time>2026-04-18T11:13:03.26Z</time></trkpt><trkpt lat="42.99624" lon="13.2373983"><ele>1374.25</ele><time>2026-04-18T11:13:04.261Z</time></trkpt><trkpt lat="42.9963617" lon="13.2373967"><ele>1375.0</ele><time>2026-04-18T11:13:05.261Z</time></trkpt><trkpt lat="42.9964817" lon="13.2374483"><ele>1375.0</ele><time>2026-04-18T11:13:06.261Z</time></trkpt><trkpt lat="42.9965867" lon="13.2375333"><ele>1375.0</ele><time>2026-04-18T11:13:07.261Z</time></trkpt><trkpt lat="42.99669" lon="13.237645"><ele>1375.0</ele><time>2026-04-18T11:13:08.261Z</time></trkpt><trkpt lat="42.9967867" lon="13.2377733"><ele>1375.0</ele><time>2026-04-18T11:13:09.261Z</time></trkpt><trkpt lat="42.9968867" lon="13.2379033"><ele>1373.75</ele><time>2026-04-18T11:13:10.261Z</time></trkpt><trkpt lat="42.9969883" lon="13.2380283"><ele>1372.5</ele><time>2026-04-18T11:13:11.261Z</time></trkpt><trkpt lat="42.9970883" lon="13.23815"><ele>1371.25</ele><time>2026-04-18T11:13:12.261Z</time></trkpt><trkpt lat="42.99719" lon="13.2382683"><ele>1370.0</ele><time>2026-04-18T11:13:13.261Z</time></trkpt><trkpt lat="42.9972867" lon="13.23839"><ele>1374.25</ele><time>2026-04-18T11:13:14.261Z</time></trkpt><trkpt lat="42.9973833" lon="13.23852"><ele>1378.5</ele><time>2026-04-18T11:13:15.261Z</time></trkpt><trkpt lat="42.99748" lon="13.2386233"><ele>1382.75</ele><time>2026-04-18T11:13:16.261Z</time></trkpt><trkpt lat="42.99758" lon="13.2387033"><ele>1387.0</ele><time>2026-04-18T11:13:17.261Z</time></trkpt><trkpt lat="42.9976933" lon="13.23875"><ele>1391.25</ele><time>2026-04-18T11:13:18.261Z</time></trkpt><trkpt lat="42.997805" lon="13.2387433"><ele>1395.5</ele><time>2026-04-18T11:13:19.261Z</time></trkpt><trkpt lat="42.997915" lon="13.2386933"><ele>1399.75</ele><time>2026-04-18T11:13:20.261Z</time></trkpt><trkpt lat="42.9980117" lon="13.2385917"><ele>1404.0</ele><time>2026-04-18T11:13:21.261Z</time></trkpt><trkpt lat="42.9980833" lon="13.2384483"><ele>1404.0</ele><time>2026-04-18T11:13:22.261Z</time></trkpt><trkpt lat="42.9981517" lon="13.2382783"><ele>1404.0</ele><time>2026-04-18T11:13:23.261Z</time></trkpt><trkpt lat="42.9982133" lon="13.238095"><ele>1404.0</ele><time>2026-04-18T11:13:24.261Z</time></trkpt><trkpt lat="42.99827" lon="13.2379117"><ele>1404.0</ele><time>2026-04-18T11:13:25.261Z</time></trkpt><trkpt lat="42.998325" lon="13.23772"><ele>1408.0</ele><time>2026-04-18T11:13:26.261Z</time></trkpt><trkpt lat="42.9983883" lon="13.237525"><ele>1412.0</ele><time>2026-04-18T11:13:27.261Z</time></trkpt><trkpt lat="42.9984617" lon="13.237325"><ele>1416.0</ele><time>2026-04-18T11:13:28.261Z</time></trkpt><trkpt lat="42.9985617" lon="13.2371267"><ele>1416.0</ele><time>2026-04-18T11:13:29.261Z</time></trkpt><trkpt lat="42.99867" lon="13.236935"><ele>1416.0</ele><time>2026-04-18T11:13:30.261Z</time></trkpt><trkpt lat="42.99877" lon="13.2367633"><ele>1416.0</ele><time>2026-04-18T11:13:31.261Z</time></trkpt><trkpt lat="42.99886" lon="13.2365867"><ele>1411.0</ele><time>2026-04-18T11:13:32.261Z</time></trkpt><trkpt lat="42.9989567" lon="13.2364017"><ele>1406.0</ele><time>2026-04-18T11:13:33.261Z</time></trkpt><trkpt lat="42.999065" lon="13.2362033"><ele>1401.0</ele><time>2026-04-18T11:13:34.261Z</time></trkpt><trkpt lat="42.9991667" lon="13.2359817"><ele>1411.0</ele><time>2026-04-18T11:13:35.26Z</time></trkpt><trkpt lat="42.9992517" lon="13.2357483"><ele>1421.0</ele><time>2026-04-18T11:13:36.261Z</time></trkpt><trkpt lat="42.99933" lon="13.23551"><ele>1431.0</ele><time>2026-04-18T11:13:37.261Z</time></trkpt><trkpt lat="42.9994083" lon="13.23525"><ele>1431.0</ele><time>2026-04-18T11:13:38.261Z</time></trkpt><trkpt lat="42.9994983" lon="13.235005"><ele>1431.0</ele><time>2026-04-18T11:13:39.261Z</time></trkpt><trkpt lat="42.9995817" lon="13.2347533"><ele>1431.0</ele><time>2026-04-18T11:13:40.261Z</time></trkpt><trkpt lat="42.9996667" lon="13.2345083"><ele>1426.0</ele><time>2026-04-18T11:13:41.261Z</time></trkpt><trkpt lat="42.9997483" lon="13.2342883"><ele>1421.0</ele><time>2026-04-18T11:13:42.261Z</time></trkpt><trkpt lat="42.9998367" lon="13.2340667"><ele>1416.0</ele><time>2026-04-18T11:13:43.261Z</time></trkpt><trkpt lat="42.9999367" lon="13.2338567"><ele>1411.0</ele><time>2026-04-18T11:13:44.261Z</time></trkpt><trkpt lat="43.0000433" lon="13.2336467"><ele>1406.0</ele><time>2026-04-18T11:13:45.261Z</time></trkpt><trkpt lat="43.000145" lon="13.233435"><ele>1401.0</ele><time>2026-04-18T11:13:46.261Z</time></trkpt><trkpt lat="43.0002483" lon="13.23324"><ele>1394.3333333333333</ele><time>2026-04-18T11:13:47.261Z</time></trkpt><trkpt lat="43.0003433" lon="13.23305"><ele>1387.6666666666665</ele><time>2026-04-18T11:13:48.261Z</time></trkpt><trkpt lat="43.0004417" lon="13.2328667"><ele>1381.0</ele><time>2026-04-18T11:13:49.261Z</time></trkpt><trkpt lat="43.0005333" lon="13.2326633"><ele>1381.0</ele><time>2026-04-18T11:13:50.261Z</time></trkpt><trkpt lat="43.00062" lon="13.2324533"><ele>1381.0</ele><time>2026-04-18T11:13:51.261Z</time></trkpt><trkpt lat="43.0006917" lon="13.2322483"><ele>1381.0</ele><time>2026-04-18T11:13:52.261Z</time></trkpt><trkpt lat="43.0007683" lon="13.2320467"><ele>1382.6666666666665</ele><time>2026-04-18T11:13:53.261Z</time></trkpt><trkpt lat="43.0008417" lon="13.2318467"><ele>1384.3333333333333</ele><time>2026-04-18T11:13:54.261Z</time></trkpt><trkpt lat="43.00093" lon="13.23165"><ele>1386.0</ele><time>2026-04-18T11:13:55.261Z</time></trkpt><trkpt lat="43.00102" lon="13.23147"><ele>1386.0</ele><time>2026-04-18T11:13:56.261Z</time></trkpt><trkpt lat="43.0011217" lon="13.2313"><ele>1386.0</ele><time>2026-04-18T11:13:57.261Z</time></trkpt><trkpt lat="43.0012217" lon="13.2311167"><ele>1386.0</ele><time>2026-04-18T11:13:58.261Z</time></trkpt><trkpt lat="43.0013067" lon="13.230915"><ele>1386.0</ele><time>2026-04-18T11:13:59.261Z</time></trkpt><trkpt lat="43.001375" lon="13.2307017"><ele>1386.0</ele><time>2026-04-18T11:14:00.261Z</time></trkpt><trkpt lat="43.0014283" lon="13.230475"><ele>1386.0</ele><time>2026-04-18T11:14:01.261Z</time></trkpt><trkpt lat="43.0014933" lon="13.2302467"><ele>1381.3333333333333</ele><time>2026-04-18T11:14:02.261Z</time></trkpt><trkpt lat="43.0015583" lon="13.2300217"><ele>1376.6666666666665</ele><time>2026-04-18T11:14:03.261Z</time></trkpt><trkpt lat="43.0016133" lon="13.2297883"><ele>1372.0</ele><time>2026-04-18T11:14:04.261Z</time></trkpt><trkpt lat="43.001665" lon="13.2295433"><ele>1381.0</ele><time>2026-04-18T11:14:05.261Z</time></trkpt><trkpt lat="43.001715" lon="13.2293117"><ele>1390.0</ele><time>2026-04-18T11:14:06.261Z</time></trkpt><trkpt lat="43.0017667" lon="13.229085"><ele>1399.0</ele><time>2026-04-18T11:14:07.261Z</time></trkpt><trkpt lat="43.0018067" lon="13.2288783"><ele>1399.0</ele><time>2026-04-18T11:14:08.261Z</time></trkpt><trkpt lat="43.0018417" lon="13.2286733"><ele>1399.0</ele><time>2026-04-18T11:14:09.26Z</time></trkpt><trkpt lat="43.0018867" lon="13.22847"><ele>1399.0</ele><time>2026-04-18T11:14:10.261Z</time></trkpt><trkpt lat="43.0019583" lon="13.228285"><ele>1393.6666666666665</ele><time>2026-04-18T11:14:11.261Z</time></trkpt><trkpt lat="43.0020483" lon="13.2281033"><ele>1388.3333333333333</ele><time>2026-04-18T11:14:12.26Z</time></trkpt><trkpt lat="43.002145" lon="13.2279167"><ele>1383.0</ele><time>2026-04-18T11:14:13.261Z</time></trkpt><trkpt lat="43.0022467" lon="13.2277167"><ele>1383.0</ele><time>2026-04-18T11:14:14.261Z</time></trkpt><trkpt lat="43.00234" lon="13.2275183"><ele>1383.0</ele><time>2026-04-18T11:14:15.261Z</time></trkpt><trkpt lat="43.0024383" lon="13.2273117"><ele>1383.0</ele><time>2026-04-18T11:14:16.261Z</time></trkpt><trkpt lat="43.0025383" lon="13.2271083"><ele>1392.6666666666667</ele><time>2026-04-18T11:14:17.261Z</time></trkpt><trkpt lat="43.0026333" lon="13.2269"><ele>1402.3333333333335</ele><time>2026-04-18T11:14:18.261Z</time></trkpt><trkpt lat="43.0027267" lon="13.2267033"><ele>1412.0</ele><time>2026-04-18T11:14:19.261Z</time></trkpt><trkpt lat="43.002815" lon="13.226515"><ele>1405.0</ele><time>2026-04-18T11:14:20.261Z</time></trkpt><trkpt lat="43.0029" lon="13.2263317"><ele>1398.0</ele><time>2026-04-18T11:14:21.261Z</time></trkpt><trkpt lat="43.003" lon="13.2261583"><ele>1391.0</ele><time>2026-04-18T11:14:22.261Z</time></trkpt><trkpt lat="43.0031067" lon="13.2260033"><ele>1391.0</ele><time>2026-04-18T11:14:23.261Z</time></trkpt><trkpt lat="43.003225" lon="13.2258567"><ele>1391.0</ele><time>2026-04-18T11:14:24.261Z</time></trkpt><trkpt lat="43.00337" lon="13.2257267"><ele>1391.0</ele><time>2026-04-18T11:14:25.261Z</time></trkpt><trkpt lat="43.00351" lon="13.22559"><ele>1397.0</ele><time>2026-04-18T11:14:26.261Z</time></trkpt><trkpt lat="43.0036617" lon="13.2254483"><ele>1403.0</ele><time>2026-04-18T11:14:27.261Z</time></trkpt><trkpt lat="43.00381" lon="13.2253"><ele>1409.0</ele><time>2026-04-18T11:14:28.261Z</time></trkpt><trkpt lat="43.0039567" lon="13.2251517"><ele>1409.0</ele><time>2026-04-18T11:14:29.261Z</time></trkpt><trkpt lat="43.0040933" lon="13.2250083"><ele>1409.0</ele><time>2026-04-18T11:14:30.261Z</time></trkpt><trkpt lat="43.00422" lon="13.2248667"><ele>1409.0</ele><time>2026-04-18T11:14:31.261Z</time></trkpt><trkpt lat="43.0043383" lon="13.224725"><ele>1411.3333333333335</ele><time>2026-04-18T11:14:32.261Z</time></trkpt><trkpt lat="43.004455" lon="13.2245583"><ele>1413.6666666666667</ele><time>2026-04-18T11:14:33.261Z</time></trkpt><trkpt lat="43.0045633" lon="13.224385"><ele>1416.0</ele><time>2026-04-18T11:14:34.261Z</time></trkpt><trkpt lat="43.004665" lon="13.2241983"><ele>1416.0</ele><time>2026-04-18T11:14:35.261Z</time></trkpt><trkpt lat="43.004765" lon="13.2240133"><ele>1416.0</ele><time>2026-04-18T11:14:36.261Z</time></trkpt><trkpt lat="43.0048483" lon="13.2238333"><ele>1416.0</ele><time>2026-04-18T11:14:37.261Z</time></trkpt><trkpt lat="43.0049217" lon="13.22366"><ele>1417.25</ele><time>2026-04-18T11:14:38.261Z</time></trkpt><trkpt lat="43.0049933" lon="13.2235017"><ele>1418.5</ele><time>2026-04-18T11:14:39.261Z</time></trkpt><trkpt lat="43.005065" lon="13.22335"><ele>1419.75</ele><time>2026-04-18T11:14:40.261Z</time></trkpt><trkpt lat="43.00514" lon="13.223205"><ele>1421.0</ele><time>2026-04-18T11:14:41.261Z</time></trkpt><trkpt lat="43.0052117" lon="13.223085"><ele>1421.0</ele><time>2026-04-18T11:14:42.261Z</time></trkpt><trkpt lat="43.005285" lon="13.22296"><ele>1421.0</ele><time>2026-04-18T11:14:43.261Z</time></trkpt><trkpt lat="43.00535" lon="13.2228333"><ele>1421.0</ele><time>2026-04-18T11:14:44.261Z</time></trkpt><trkpt lat="43.0054183" lon="13.2227067"><ele>1421.0</ele><time>2026-04-18T11:14:45.261Z</time></trkpt><trkpt lat="43.0054783" lon="13.2225783"><ele>1421.0</ele><time>2026-04-18T11:14:46.261Z</time></trkpt><trkpt lat="43.0055283" lon="13.2224433"><ele>1421.0</ele><time>2026-04-18T11:14:47.261Z</time></trkpt><trkpt lat="43.0055767" lon="13.2222983"><ele>1421.0</ele><time>2026-04-18T11:14:48.261Z</time></trkpt><trkpt lat="43.0056233" lon="13.2221567"><ele>1421.0</ele><time>2026-04-18T11:14:49.261Z</time></trkpt><trkpt lat="43.0056667" lon="13.22203"><ele>1421.0</ele><time>2026-04-18T11:14:50.261Z</time></trkpt><trkpt lat="43.0057017" lon="13.22191"><ele>1421.6</ele><time>2026-04-18T11:14:51.261Z</time></trkpt><trkpt lat="43.0057533" lon="13.221825"><ele>1422.1999999999998</ele><time>2026-04-18T11:14:52.261Z</time></trkpt><trkpt lat="43.00582" lon="13.2217617"><ele>1422.8000000000002</ele><time>2026-04-18T11:14:53.261Z</time></trkpt><trkpt lat="43.005905" lon="13.2217583"><ele>1423.4</ele><time>2026-04-18T11:14:54.261Z</time></trkpt><trkpt lat="43.0060017" lon="13.2218017"><ele>1424.0</ele><time>2026-04-18T11:14:55.261Z</time></trkpt><trkpt lat="43.0061" lon="13.2218833"><ele>1426.5</ele><time>2026-04-18T11:14:56.261Z</time></trkpt><trkpt lat="43.0062117" lon="13.2219683"><ele>1429.0</ele><time>2026-04-18T11:14:57.261Z</time></trkpt><trkpt lat="43.006345" lon="13.2220367"><ele>1431.5</ele><time>2026-04-18T11:14:58.261Z</time></trkpt><trkpt lat="43.0064817" lon="13.2220883"><ele>1434.0</ele><time>2026-04-18T11:14:59.261Z</time></trkpt><trkpt lat="43.00663" lon="13.22213"><ele>1431.75</ele><time>2026-04-18T11:15:00.261Z</time></trkpt><trkpt lat="43.0067867" lon="13.2221533"><ele>1429.5</ele><time>2026-04-18T11:15:01.261Z</time></trkpt><trkpt lat="43.0069333" lon="13.2221667"><ele>1427.25</ele><time>2026-04-18T11:15:02.261Z</time></trkpt><trkpt lat="43.0070767" lon="13.2221717"><ele>1425.0</ele><time>2026-04-18T11:15:03.261Z</time></trkpt><trkpt lat="43.00722" lon="13.222165"><ele>1425.0</ele><time>2026-04-18T11:15:04.261Z</time></trkpt><trkpt lat="43.007365" lon="13.222155"><ele>1425.0</ele><time>2026-04-18T11:15:05.261Z</time></trkpt><trkpt lat="43.0075183" lon="13.2221383"><ele>1425.0</ele><time>2026-04-18T11:15:06.26Z</time></trkpt><trkpt lat="43.0076667" lon="13.22213"><ele>1425.0</ele><time>2026-04-18T11:15:07.261Z</time></trkpt><trkpt lat="43.0078117" lon="13.22213"><ele>1425.0</ele><time>2026-04-18T11:15:08.261Z</time></trkpt><trkpt lat="43.0079517" lon="13.2221417"><ele>1425.0</ele><time>2026-04-18T11:15:09.261Z</time></trkpt><trkpt lat="43.0080883" lon="13.2221767"><ele>1425.0</ele><time>2026-04-18T11:15:10.261Z</time></trkpt><trkpt lat="43.0082033" lon="13.2222483"><ele>1425.0</ele><time>2026-04-18T11:15:11.261Z</time></trkpt><trkpt lat="43.008315" lon="13.2223417"><ele>1427.5</ele><time>2026-04-18T11:15:12.261Z</time></trkpt><trkpt lat="43.0084267" lon="13.2224583"><ele>1430.0</ele><time>2026-04-18T11:15:13.261Z</time></trkpt><trkpt lat="43.0085367" lon="13.222585"><ele>1432.5</ele><time>2026-04-18T11:15:14.261Z</time></trkpt><trkpt lat="43.0086533" lon="13.2227083"><ele>1435.0</ele><time>2026-04-18T11:15:15.261Z</time></trkpt><trkpt lat="43.00877" lon="13.2228217"><ele>1435.0</ele><time>2026-04-18T11:15:16.261Z</time></trkpt><trkpt lat="43.0088917" lon="13.222925"><ele>1435.0</ele><time>2026-04-18T11:15:17.261Z</time></trkpt><trkpt lat="43.0090217" lon="13.223035"><ele>1435.0</ele><time>2026-04-18T11:15:18.261Z</time></trkpt><trkpt lat="43.009145" lon="13.2231433"><ele>1435.0</ele><time>2026-04-18T11:15:19.261Z</time></trkpt><trkpt lat="43.00924" lon="13.2232917"><ele>1438.0</ele><time>2026-04-18T11:15:20.261Z</time></trkpt><trkpt lat="43.0093233" lon="13.223465"><ele>1441.0</ele><time>2026-04-18T11:15:21.261Z</time></trkpt><trkpt lat="43.0093767" lon="13.2236717"><ele>1444.0</ele><time>2026-04-18T11:15:22.261Z</time></trkpt><trkpt lat="43.009415" lon="13.2238767"><ele>1446.75</ele><time>2026-04-18T11:15:23.261Z</time></trkpt><trkpt lat="43.0094483" lon="13.2240733"><ele>1449.5</ele><time>2026-04-18T11:15:24.261Z</time></trkpt><trkpt lat="43.0094917" lon="13.2242617"><ele>1452.25</ele><time>2026-04-18T11:15:25.261Z</time></trkpt><trkpt lat="43.0095467" lon="13.2244483"><ele>1455.0</ele><time>2026-04-18T11:15:26.261Z</time></trkpt><trkpt lat="43.0096183" lon="13.2246383"><ele>1456.3333333333333</ele><time>2026-04-18T11:15:27.261Z</time></trkpt><trkpt lat="43.0096883" lon="13.2248383"><ele>1457.6666666666665</ele><time>2026-04-18T11:15:28.261Z</time></trkpt><trkpt lat="43.009755" lon="13.22503"><ele>1459.0</ele><time>2026-04-18T11:15:29.261Z</time></trkpt><trkpt lat="43.0098117" lon="13.22523"><ele>1459.0</ele><time>2026-04-18T11:15:30.261Z</time></trkpt><trkpt lat="43.0098617" lon="13.2254233"><ele>1459.0</ele><time>2026-04-18T11:15:31.261Z</time></trkpt><trkpt lat="43.0099033" lon="13.2256017"><ele>1459.0</ele><time>2026-04-18T11:15:32.261Z</time></trkpt><trkpt lat="43.0099467" lon="13.2257733"><ele>1459.0</ele><time>2026-04-18T11:15:33.261Z</time></trkpt><trkpt lat="43.0099883" lon="13.2259383"><ele>1458.5</ele><time>2026-04-18T11:15:34.261Z</time></trkpt><trkpt lat="43.0100267" lon="13.2261"><ele>1458.0</ele><time>2026-04-18T11:15:35.261Z</time></trkpt><trkpt lat="43.0100633" lon="13.2262467"><ele>1457.5</ele><time>2026-04-18T11:15:36.261Z</time></trkpt><trkpt lat="43.0101033" lon="13.2263917"><ele>1457.0</ele><time>2026-04-18T11:15:37.261Z</time></trkpt><trkpt lat="43.01015" lon="13.2265417"><ele>1457.0</ele><time>2026-04-18T11:15:38.261Z</time></trkpt><trkpt lat="43.0102033" lon="13.22669"><ele>1457.0</ele><time>2026-04-18T11:15:39.261Z</time></trkpt><trkpt lat="43.0102617" lon="13.22683"><ele>1457.0</ele><time>2026-04-18T11:15:40.261Z</time></trkpt><trkpt lat="43.0103283" lon="13.22698"><ele>1457.0</ele><time>2026-04-18T11:15:41.261Z</time></trkpt><trkpt lat="43.010405" lon="13.2271317"><ele>1457.0</ele><time>2026-04-18T11:15:42.261Z</time></trkpt><trkpt lat="43.010485" lon="13.2272817"><ele>1457.0</ele><time>2026-04-18T11:15:43.261Z</time></trkpt><trkpt lat="43.010575" lon="13.2274433"><ele>1457.0</ele><time>2026-04-18T11:15:44.261Z</time></trkpt><trkpt lat="43.0106667" lon="13.2276133"><ele>1457.0</ele><time>2026-04-18T11:15:45.261Z</time></trkpt><trkpt lat="43.0107567" lon="13.2277883"><ele>1455.0</ele><time>2026-04-18T11:15:46.261Z</time></trkpt><trkpt lat="43.01085" lon="13.227965"><ele>1453.0</ele><time>2026-04-18T11:15:47.261Z</time></trkpt><trkpt lat="43.01095" lon="13.22815"><ele>1451.0</ele><time>2026-04-18T11:15:48.261Z</time></trkpt><trkpt lat="43.0110483" lon="13.228335"><ele>1449.3333333333335</ele><time>2026-04-18T11:15:49.261Z</time></trkpt><trkpt lat="43.0111467" lon="13.2285167"><ele>1447.6666666666667</ele><time>2026-04-18T11:15:50.261Z</time></trkpt><trkpt lat="43.011245" lon="13.2287033"><ele>1446.0</ele><time>2026-04-18T11:15:51.261Z</time></trkpt><trkpt lat="43.0113367" lon="13.228885"><ele>1444.3333333333333</ele><time>2026-04-18T11:15:52.261Z</time></trkpt><trkpt lat="43.0114233" lon="13.229085"><ele>1442.6666666666665</ele><time>2026-04-18T11:15:53.261Z</time></trkpt><trkpt lat="43.0114967" lon="13.2292867"><ele>1441.0</ele><time>2026-04-18T11:15:54.261Z</time></trkpt><trkpt lat="43.0115617" lon="13.2294917"><ele>1441.0</ele><time>2026-04-18T11:15:55.261Z</time></trkpt><trkpt lat="43.0116133" lon="13.2296933"><ele>1441.0</ele><time>2026-04-18T11:15:56.261Z</time></trkpt><trkpt lat="43.01166" lon="13.22989"><ele>1441.0</ele><time>2026-04-18T11:15:57.261Z</time></trkpt><trkpt lat="43.0117033" lon="13.2300867"><ele>1438.6666666666665</ele><time>2026-04-18T11:15:58.261Z</time></trkpt><trkpt lat="43.0117433" lon="13.2302933"><ele>1436.3333333333333</ele><time>2026-04-18T11:15:59.261Z</time></trkpt><trkpt lat="43.0117817" lon="13.2305017"><ele>1434.0</ele><time>2026-04-18T11:16:00.261Z</time></trkpt><trkpt lat="43.01183" lon="13.23071"><ele>1431.3333333333333</ele><time>2026-04-18T11:16:01.261Z</time></trkpt><trkpt lat="43.0118917" lon="13.2309133"><ele>1428.6666666666665</ele><time>2026-04-18T11:16:02.261Z</time></trkpt><trkpt lat="43.0119717" lon="13.2311317"><ele>1426.0</ele><time>2026-04-18T11:16:03.261Z</time></trkpt><trkpt lat="43.0120517" lon="13.2313533"><ele>1423.3333333333333</ele><time>2026-04-18T11:16:04.261Z</time></trkpt><trkpt lat="43.0121367" lon="13.231565"><ele>1420.6666666666667</ele><time>2026-04-18T11:16:05.261Z</time></trkpt><trkpt lat="43.0122333" lon="13.2317583"><ele>1418.0</ele><time>2026-04-18T11:16:06.261Z</time></trkpt><trkpt lat="43.0123333" lon="13.2319367"><ele>1418.0</ele><time>2026-04-18T11:16:07.261Z</time></trkpt><trkpt lat="43.0124417" lon="13.2321083"><ele>1418.0</ele><time>2026-04-18T11:16:08.261Z</time></trkpt><trkpt lat="43.0125517" lon="13.2322667"><ele>1418.0</ele><time>2026-04-18T11:16:09.261Z</time></trkpt><trkpt lat="43.0126633" lon="13.232415"><ele>1418.5</ele><time>2026-04-18T11:16:10.261Z</time></trkpt><trkpt lat="43.0127517" lon="13.23256"><ele>1419.0</ele><time>2026-04-18T11:16:11.261Z</time></trkpt><trkpt lat="43.0128233" lon="13.232725"><ele>1419.5</ele><time>2026-04-18T11:16:12.261Z</time></trkpt><trkpt lat="43.012875" lon="13.2328983"><ele>1420.0</ele><time>2026-04-18T11:16:13.261Z</time></trkpt><trkpt lat="43.0129033" lon="13.2330883"><ele>1414.75</ele><time>2026-04-18T11:16:14.261Z</time></trkpt><trkpt lat="43.01293" lon="13.2332783"><ele>1409.5</ele><time>2026-04-18T11:16:15.261Z</time></trkpt><trkpt lat="43.0129517" lon="13.2334667"><ele>1404.25</ele><time>2026-04-18T11:16:16.261Z</time></trkpt><trkpt lat="43.01298" lon="13.23365"><ele>1399.0</ele><time>2026-04-18T11:16:17.26Z</time></trkpt><trkpt lat="43.013005" lon="13.2338333"><ele>1394.5</ele><time>2026-04-18T11:16:18.261Z</time></trkpt><trkpt lat="43.0130283" lon="13.2340133"><ele>1390.0</ele><time>2026-04-18T11:16:19.261Z</time></trkpt><trkpt lat="43.013055" lon="13.2341967"><ele>1385.5</ele><time>2026-04-18T11:16:20.261Z</time></trkpt><trkpt lat="43.0130783" lon="13.234375"><ele>1381.0</ele><time>2026-04-18T11:16:21.261Z</time></trkpt><trkpt lat="43.013085" lon="13.23455"><ele>1381.0</ele><time>2026-04-18T11:16:22.261Z</time></trkpt><trkpt lat="43.013085" lon="13.2347417"><ele>1381.0</ele><time>2026-04-18T11:16:23.261Z</time></trkpt><trkpt lat="43.0130767" lon="13.23493"><ele>1381.0</ele><time>2026-04-18T11:16:24.261Z</time></trkpt><trkpt lat="43.0130667" lon="13.2351217"><ele>1381.0</ele><time>2026-04-18T11:16:25.261Z</time></trkpt><trkpt lat="43.0130483" lon="13.235305"><ele>1378.75</ele><time>2026-04-18T11:16:26.261Z</time></trkpt><trkpt lat="43.013035" lon="13.2354883"><ele>1376.5</ele><time>2026-04-18T11:16:27.261Z</time></trkpt><trkpt lat="43.0130267" lon="13.2356667"><ele>1374.25</ele><time>2026-04-18T11:16:28.261Z</time></trkpt><trkpt lat="43.01302" lon="13.2358417"><ele>1372.0</ele><time>2026-04-18T11:16:29.261Z</time></trkpt><trkpt lat="43.0130283" lon="13.2360083"><ele>1371.75</ele><time>2026-04-18T11:16:30.261Z</time></trkpt><trkpt lat="43.01304" lon="13.2361767"><ele>1371.5</ele><time>2026-04-18T11:16:31.261Z</time></trkpt><trkpt lat="43.01306" lon="13.2363483"><ele>1371.25</ele><time>2026-04-18T11:16:32.261Z</time></trkpt><trkpt lat="43.01309" lon="13.2365083"><ele>1371.0</ele><time>2026-04-18T11:16:33.261Z</time></trkpt><trkpt lat="43.0131383" lon="13.2366733"><ele>1369.0</ele><time>2026-04-18T11:16:34.261Z</time></trkpt><trkpt lat="43.0131983" lon="13.2368317"><ele>1367.0</ele><time>2026-04-18T11:16:35.261Z</time></trkpt><trkpt lat="43.0132433" lon="13.2370133"><ele>1365.0</ele><time>2026-04-18T11:16:36.261Z</time></trkpt><trkpt lat="43.013255" lon="13.2372067"><ele>1363.0</ele><time>2026-04-18T11:16:37.261Z</time></trkpt><trkpt lat="43.0132417" lon="13.2373917"><ele>1362.75</ele><time>2026-04-18T11:16:38.261Z</time></trkpt><trkpt lat="43.0131933" lon="13.23756"><ele>1362.5</ele><time>2026-04-18T11:16:39.261Z</time></trkpt><trkpt lat="43.0131067" lon="13.2377117"><ele>1362.25</ele><time>2026-04-18T11:16:40.261Z</time></trkpt><trkpt lat="43.0129933" lon="13.2378283"><ele>1362.0</ele><time>2026-04-18T11:16:41.261Z</time></trkpt><trkpt lat="43.0128783" lon="13.2379317"><ele>1362.0</ele><time>2026-04-18T11:16:42.261Z</time></trkpt><trkpt lat="43.0127683" lon="13.2380383"><ele>1362.0</ele><time>2026-04-18T11:16:43.261Z</time></trkpt><trkpt lat="43.0126633" lon="13.2381633"><ele>1362.0</ele><time>2026-04-18T11:16:44.261Z</time></trkpt><trkpt lat="43.0125683" lon="13.2383033"><ele>1362.0</ele><time>2026-04-18T11:16:45.261Z</time></trkpt><trkpt lat="43.012485" lon="13.2384583"><ele>1361.0</ele><time>2026-04-18T11:16:46.261Z</time></trkpt><trkpt lat="43.0124" lon="13.2386017"><ele>1360.0</ele><time>2026-04-18T11:16:47.261Z</time></trkpt><trkpt lat="43.012305" lon="13.23874"><ele>1359.0</ele><time>2026-04-18T11:16:48.261Z</time></trkpt><trkpt lat="43.0122" lon="13.2388567"><ele>1358.0</ele><time>2026-04-18T11:16:49.261Z</time></trkpt><trkpt lat="43.0120933" lon="13.23898"><ele>1358.0</ele><time>2026-04-18T11:16:50.261Z</time></trkpt><trkpt lat="43.0119883" lon="13.23912"><ele>1358.0</ele><time>2026-04-18T11:16:51.261Z</time></trkpt><trkpt lat="43.0118833" lon="13.2392817"><ele>1358.0</ele><time>2026-04-18T11:16:52.261Z</time></trkpt><trkpt lat="43.01178" lon="13.2394467"><ele>1358.0</ele><time>2026-04-18T11:16:53.261Z</time></trkpt><trkpt lat="43.0116867" lon="13.239615"><ele>1358.0</ele><time>2026-04-18T11:16:54.261Z</time></trkpt><trkpt lat="43.01159" lon="13.2397633"><ele>1358.0</ele><time>2026-04-18T11:16:55.261Z</time></trkpt><trkpt lat="43.0114917" lon="13.2399167"><ele>1358.0</ele><time>2026-04-18T11:16:56.261Z</time></trkpt><trkpt lat="43.01139" lon="13.2400483"><ele>1352.5</ele><time>2026-04-18T11:16:57.261Z</time></trkpt><trkpt lat="43.0112867" lon="13.2401667"><ele>1347.0</ele><time>2026-04-18T11:16:58.261Z</time></trkpt><trkpt lat="43.0111867" lon="13.2402767"><ele>1341.5</ele><time>2026-04-18T11:16:59.261Z</time></trkpt><trkpt lat="43.0110833" lon="13.2404"><ele>1336.0</ele><time>2026-04-18T11:17:00.261Z</time></trkpt><trkpt lat="43.0109917" lon="13.2405267"><ele>1332.0</ele><time>2026-04-18T11:17:01.261Z</time></trkpt><trkpt lat="43.0109083" lon="13.2406517"><ele>1328.0</ele><time>2026-04-18T11:17:02.261Z</time></trkpt><trkpt lat="43.0108217" lon="13.2407683"><ele>1324.0</ele><time>2026-04-18T11:17:03.261Z</time></trkpt><trkpt lat="43.010745" lon="13.2409"><ele>1320.0</ele><time>2026-04-18T11:17:04.261Z</time></trkpt><trkpt lat="43.01068" lon="13.2410583"><ele>1320.0</ele><time>2026-04-18T11:17:05.261Z</time></trkpt><trkpt lat="43.010635" lon="13.241235"><ele>1320.0</ele><time>2026-04-18T11:17:06.261Z</time></trkpt><trkpt lat="43.0106067" lon="13.2414267"><ele>1320.0</ele><time>2026-04-18T11:17:07.26Z</time></trkpt><trkpt lat="43.0105867" lon="13.24161"><ele>1320.0</ele><time>2026-04-18T11:17:08.261Z</time></trkpt><trkpt lat="43.0105767" lon="13.241775"><ele>1320.4</ele><time>2026-04-18T11:17:09.261Z</time></trkpt><trkpt lat="43.01057" lon="13.2419333"><ele>1320.8</ele><time>2026-04-18T11:17:10.261Z</time></trkpt><trkpt lat="43.0105767" lon="13.2420783"><ele>1321.1999999999998</ele><time>2026-04-18T11:17:11.261Z</time></trkpt><trkpt lat="43.0105933" lon="13.2421967"><ele>1321.6</ele><time>2026-04-18T11:17:12.261Z</time></trkpt><trkpt lat="43.0106167" lon="13.2423033"><ele>1322.0</ele><time>2026-04-18T11:17:13.261Z</time></trkpt><trkpt lat="43.0106383" lon="13.2424017"><ele>1322.0</ele><time>2026-04-18T11:17:14.261Z</time></trkpt><trkpt lat="43.0106383" lon="13.2425483"><ele>1322.0</ele><time>2026-04-18T11:17:16.261Z</time></trkpt><trkpt lat="43.0105583" lon="13.2425717"><ele>1322.0</ele><time>2026-04-18T11:17:18.261Z</time></trkpt><trkpt lat="43.0104917" lon="13.2424333"><ele>1322.0</ele><time>2026-04-18T11:17:20.261Z</time></trkpt><trkpt lat="43.0104833" lon="13.2423367"><ele>1322.0</ele><time>2026-04-18T11:17:21.261Z</time></trkpt><trkpt lat="43.0104683" lon="13.242245"><ele>1322.3333333333335</ele><time>2026-04-18T11:17:22.261Z</time></trkpt><trkpt lat="43.0104517" lon="13.2421483"><ele>1322.6666666666667</ele><time>2026-04-18T11:17:23.261Z</time></trkpt><trkpt lat="43.0104333" lon="13.24204"><ele>1323.0</ele><time>2026-04-18T11:17:24.261Z</time></trkpt><trkpt lat="43.0104133" lon="13.2419233"><ele>1323.3333333333333</ele><time>2026-04-18T11:17:25.261Z</time></trkpt><trkpt lat="43.010385" lon="13.2417983"><ele>1323.6666666666665</ele><time>2026-04-18T11:17:26.261Z</time></trkpt><trkpt lat="43.010345" lon="13.2416667"><ele>1324.0</ele><time>2026-04-18T11:17:27.261Z</time></trkpt><trkpt lat="43.010305" lon="13.2415467"><ele>1323.0</ele><time>2026-04-18T11:17:28.261Z</time></trkpt><trkpt lat="43.0102783" lon="13.24141"><ele>1322.0</ele><time>2026-04-18T11:17:29.261Z</time></trkpt><trkpt lat="43.0102717" lon="13.24126"><ele>1321.0</ele><time>2026-04-18T11:17:30.261Z</time></trkpt><trkpt lat="43.010275" lon="13.2410967"><ele>1320.0</ele><time>2026-04-18T11:17:31.261Z</time></trkpt><trkpt lat="43.01029" lon="13.2409367"><ele>1320.0</ele><time>2026-04-18T11:17:32.261Z</time></trkpt><trkpt lat="43.010315" lon="13.240775"><ele>1320.0</ele><time>2026-04-18T11:17:33.261Z</time></trkpt><trkpt lat="43.01036" lon="13.2406167"><ele>1320.0</ele><time>2026-04-18T11:17:34.261Z</time></trkpt><trkpt lat="43.010425" lon="13.2404833"><ele>1320.0</ele><time>2026-04-18T11:17:35.261Z</time></trkpt><trkpt lat="43.0105017" lon="13.24038"><ele>1317.8333333333333</ele><time>2026-04-18T11:17:36.261Z</time></trkpt><trkpt lat="43.0105783" lon="13.2402933"><ele>1315.6666666666667</ele><time>2026-04-18T11:17:37.261Z</time></trkpt><trkpt lat="43.01065" lon="13.2402267"><ele>1313.5</ele><time>2026-04-18T11:17:38.261Z</time></trkpt><trkpt lat="43.0107117" lon="13.2401583"><ele>1311.3333333333335</ele><time>2026-04-18T11:17:39.261Z</time></trkpt><trkpt lat="43.01076" lon="13.2400783"><ele>1309.1666666666667</ele><time>2026-04-18T11:17:40.261Z</time></trkpt><trkpt lat="43.01077" lon="13.2399883"><ele>1307.0</ele><time>2026-04-18T11:17:41.261Z</time></trkpt><trkpt lat="43.0107367" lon="13.2399067"><ele>1307.0</ele><time>2026-04-18T11:17:42.261Z</time></trkpt><trkpt lat="43.0106633" lon="13.2398917"><ele>1307.0</ele><time>2026-04-18T11:17:43.261Z</time></trkpt><trkpt lat="43.0105883" lon="13.23995"><ele>1307.0</ele><time>2026-04-18T11:17:44.261Z</time></trkpt><trkpt lat="43.0105033" lon="13.2400667"><ele>1307.0</ele><time>2026-04-18T11:17:45.261Z</time></trkpt><trkpt lat="43.0104117" lon="13.2402017"><ele>1307.0</ele><time>2026-04-18T11:17:46.261Z</time></trkpt><trkpt lat="43.01031" lon="13.2403367"><ele>1307.0</ele><time>2026-04-18T11:17:47.261Z</time></trkpt><trkpt lat="43.010205" lon="13.240445"><ele>1307.0</ele><time>2026-04-18T11:17:48.261Z</time></trkpt><trkpt lat="43.0101" lon="13.2405533"><ele>1307.0</ele><time>2026-04-18T11:17:49.261Z</time></trkpt><trkpt lat="43.0100067" lon="13.240705"><ele>1307.0</ele><time>2026-04-18T11:17:50.261Z</time></trkpt><trkpt lat="43.0099283" lon="13.2408767"><ele>1301.6666666666667</ele><time>2026-04-18T11:17:51.261Z</time></trkpt><trkpt lat="43.0098683" lon="13.241065"><ele>1296.3333333333333</ele><time>2026-04-18T11:17:52.261Z</time></trkpt><trkpt lat="43.00982" lon="13.241265"><ele>1291.0</ele><time>2026-04-18T11:17:53.261Z</time></trkpt><trkpt lat="43.009775" lon="13.2414633"><ele>1290.25</ele><time>2026-04-18T11:17:54.261Z</time></trkpt><trkpt lat="43.009735" lon="13.2416517"><ele>1289.5</ele><time>2026-04-18T11:17:55.261Z</time></trkpt><trkpt lat="43.0097017" lon="13.2418367"><ele>1288.75</ele><time>2026-04-18T11:17:56.261Z</time></trkpt><trkpt lat="43.0096817" lon="13.2420383"><ele>1288.0</ele><time>2026-04-18T11:17:57.261Z</time></trkpt><trkpt lat="43.0096933" lon="13.24225"><ele>1286.3333333333333</ele><time>2026-04-18T11:17:58.261Z</time></trkpt><trkpt lat="43.009725" lon="13.2424717"><ele>1284.6666666666667</ele><time>2026-04-18T11:17:59.261Z</time></trkpt><trkpt lat="43.0097533" lon="13.2426833"><ele>1283.0</ele><time>2026-04-18T11:18:00.261Z</time></trkpt><trkpt lat="43.0097817" lon="13.2428983"><ele>1283.0</ele><time>2026-04-18T11:18:01.261Z</time></trkpt><trkpt lat="43.00981" lon="13.2430917"><ele>1283.0</ele><time>2026-04-18T11:18:02.261Z</time></trkpt><trkpt lat="43.009835" lon="13.243255"><ele>1283.0</ele><time>2026-04-18T11:18:03.261Z</time></trkpt><trkpt lat="43.0098583" lon="13.2433917"><ele>1283.0</ele><time>2026-04-18T11:18:04.261Z</time></trkpt><trkpt lat="43.009875" lon="13.2435083"><ele>1282.0</ele><time>2026-04-18T11:18:05.261Z</time></trkpt><trkpt lat="43.009875" lon="13.24361"><ele>1281.0</ele><time>2026-04-18T11:18:06.261Z</time></trkpt><trkpt lat="43.009845" lon="13.2436867"><ele>1280.0</ele><time>2026-04-18T11:18:07.261Z</time></trkpt><trkpt lat="43.00972" lon="13.2436983"><ele>1279.0</ele><time>2026-04-18T11:18:09.261Z</time></trkpt><trkpt lat="43.0096717" lon="13.2436083"><ele>1278.0</ele><time>2026-04-18T11:18:10.261Z</time></trkpt><trkpt lat="43.009645" lon="13.2434933"><ele>1277.0</ele><time>2026-04-18T11:18:11.261Z</time></trkpt><trkpt lat="43.0096267" lon="13.243385"><ele>1277.0</ele><time>2026-04-18T11:18:12.261Z</time></trkpt><trkpt lat="43.0096083" lon="13.2432717"><ele>1277.0</ele><time>2026-04-18T11:18:13.261Z</time></trkpt><trkpt lat="43.0095817" lon="13.24317"><ele>1277.0</ele><time>2026-04-18T11:18:14.261Z</time></trkpt><trkpt lat="43.0095533" lon="13.2430683"><ele>1277.0</ele><time>2026-04-18T11:18:15.261Z</time></trkpt><trkpt lat="43.009515" lon="13.2429533"><ele>1277.0</ele><time>2026-04-18T11:18:16.261Z</time></trkpt><trkpt lat="43.00947" lon="13.2428133"><ele>1277.0</ele><time>2026-04-18T11:18:17.261Z</time></trkpt><trkpt lat="43.0094233" lon="13.2426717"><ele>1278.2</ele><time>2026-04-18T11:18:18.261Z</time></trkpt><trkpt lat="43.009375" lon="13.24253"><ele>1279.4</ele><time>2026-04-18T11:18:19.261Z</time></trkpt><trkpt lat="43.0093467" lon="13.2423883"><ele>1280.6000000000001</ele><time>2026-04-18T11:18:20.261Z</time></trkpt><trkpt lat="43.0093383" lon="13.2422417"><ele>1281.8000000000002</ele><time>2026-04-18T11:18:21.261Z</time></trkpt><trkpt lat="43.0093383" lon="13.2420983"><ele>1283.0</ele><time>2026-04-18T11:18:22.261Z</time></trkpt><trkpt lat="43.0093467" lon="13.2419517"><ele>1284.0</ele><time>2026-04-18T11:18:23.261Z</time></trkpt><trkpt lat="43.0093567" lon="13.2418067"><ele>1285.0</ele><time>2026-04-18T11:18:24.261Z</time></trkpt><trkpt lat="43.0093717" lon="13.2416767"><ele>1286.0</ele><time>2026-04-18T11:18:25.261Z</time></trkpt><trkpt lat="43.0093717" lon="13.2415567"><ele>1287.0</ele><time>2026-04-18T11:18:26.261Z</time></trkpt><trkpt lat="43.0093583" lon="13.2414633"><ele>1288.0</ele><time>2026-04-18T11:18:27.261Z</time></trkpt><trkpt lat="43.0092933" lon="13.2413567"><ele>1288.6000000000001</ele><time>2026-04-18T11:18:29.261Z</time></trkpt><trkpt lat="43.009185" lon="13.2413867"><ele>1289.2</ele><time>2026-04-18T11:18:31.261Z</time></trkpt><trkpt lat="43.0091383" lon="13.2414617"><ele>1289.8</ele><time>2026-04-18T11:18:32.261Z</time></trkpt><trkpt lat="43.009105" lon="13.241575"><ele>1290.4</ele><time>2026-04-18T11:18:33.261Z</time></trkpt><trkpt lat="43.0090867" lon="13.2417183"><ele>1291.0</ele><time>2026-04-18T11:18:34.261Z</time></trkpt><trkpt lat="43.0090967" lon="13.241865"><ele>1289.0</ele><time>2026-04-18T11:18:35.261Z</time></trkpt><trkpt lat="43.0091117" lon="13.2420133"><ele>1287.0</ele><time>2026-04-18T11:18:36.261Z</time></trkpt><trkpt lat="43.009125" lon="13.242165"><ele>1285.0</ele><time>2026-04-18T11:18:37.261Z</time></trkpt><trkpt lat="43.00915" lon="13.2423267"><ele>1283.0</ele><time>2026-04-18T11:18:38.261Z</time></trkpt><trkpt lat="43.0091767" lon="13.2424983"><ele>1283.0</ele><time>2026-04-18T11:18:39.261Z</time></trkpt><trkpt lat="43.0092133" lon="13.2426717"><ele>1283.0</ele><time>2026-04-18T11:18:40.261Z</time></trkpt><trkpt lat="43.0092533" lon="13.242865"><ele>1283.0</ele><time>2026-04-18T11:18:41.261Z</time></trkpt><trkpt lat="43.009305" lon="13.2430617"><ele>1283.0</ele><time>2026-04-18T11:18:42.261Z</time></trkpt><trkpt lat="43.0093633" lon="13.24327"><ele>1281.0</ele><time>2026-04-18T11:18:43.261Z</time></trkpt><trkpt lat="43.0094233" lon="13.2434833"><ele>1279.0</ele><time>2026-04-18T11:18:44.261Z</time></trkpt><trkpt lat="43.0094833" lon="13.2437083"><ele>1277.0</ele><time>2026-04-18T11:18:45.261Z</time></trkpt><trkpt lat="43.0095367" lon="13.2439283"><ele>1273.0</ele><time>2026-04-18T11:18:46.261Z</time></trkpt><trkpt lat="43.0095833" lon="13.244145"><ele>1269.0</ele><time>2026-04-18T11:18:47.261Z</time></trkpt><trkpt lat="43.0096167" lon="13.2443667"><ele>1265.0</ele><time>2026-04-18T11:18:48.26Z</time></trkpt><trkpt lat="43.00965" lon="13.2445417"><ele>1265.0</ele><time>2026-04-18T11:18:49.261Z</time></trkpt><trkpt lat="43.009675" lon="13.244725"><ele>1265.0</ele><time>2026-04-18T11:18:50.261Z</time></trkpt><trkpt lat="43.0096583" lon="13.2449583"><ele>1265.0</ele><time>2026-04-18T11:18:51.261Z</time></trkpt><trkpt lat="43.0096233" lon="13.24518"><ele>1265.0</ele><time>2026-04-18T11:18:52.261Z</time></trkpt><trkpt lat="43.0095717" lon="13.2453883"><ele>1265.0</ele><time>2026-04-18T11:18:53.261Z</time></trkpt><trkpt lat="43.0095133" lon="13.24559"><ele>1265.0</ele><time>2026-04-18T11:18:54.261Z</time></trkpt><trkpt lat="43.0094517" lon="13.2457783"><ele>1265.0</ele><time>2026-04-18T11:18:55.261Z</time></trkpt><trkpt lat="43.0093933" lon="13.2459533"><ele>1265.0</ele><time>2026-04-18T11:18:56.261Z</time></trkpt><trkpt lat="43.00933" lon="13.2461083"><ele>1265.0</ele><time>2026-04-18T11:18:57.261Z</time></trkpt><trkpt lat="43.00927" lon="13.24625"><ele>1265.0</ele><time>2026-04-18T11:18:58.261Z</time></trkpt><trkpt lat="43.0092183" lon="13.24638"><ele>1261.1666666666667</ele><time>2026-04-18T11:18:59.261Z</time></trkpt><trkpt lat="43.0091967" lon="13.2464917"><ele>1257.3333333333335</ele><time>2026-04-18T11:19:00.261Z</time></trkpt><trkpt lat="43.009205" lon="13.246605"><ele>1253.5</ele><time>2026-04-18T11:19:01.261Z</time></trkpt><trkpt lat="43.0092417" lon="13.2467033"><ele>1249.6666666666667</ele><time>2026-04-18T11:19:02.261Z</time></trkpt><trkpt lat="43.0092983" lon="13.24678"><ele>1245.8333333333333</ele><time>2026-04-18T11:19:03.261Z</time></trkpt><trkpt lat="43.0093833" lon="13.2468367"><ele>1242.0</ele><time>2026-04-18T11:19:04.261Z</time></trkpt><trkpt lat="43.009505" lon="13.2468633"><ele>1242.0</ele><time>2026-04-18T11:19:05.261Z</time></trkpt><trkpt lat="43.009665" lon="13.2468633"><ele>1242.0</ele><time>2026-04-18T11:19:06.261Z</time></trkpt><trkpt lat="43.009835" lon="13.2468617"><ele>1242.0</ele><time>2026-04-18T11:19:07.261Z</time></trkpt><trkpt lat="43.00999" lon="13.246835"><ele>1248.75</ele><time>2026-04-18T11:19:08.261Z</time></trkpt><trkpt lat="43.0101283" lon="13.2467833"><ele>1255.5</ele><time>2026-04-18T11:19:09.261Z</time></trkpt><trkpt lat="43.0102583" lon="13.246745"><ele>1262.25</ele><time>2026-04-18T11:19:10.261Z</time></trkpt><trkpt lat="43.0103917" lon="13.2467567"><ele>1269.0</ele><time>2026-04-18T11:19:11.261Z</time></trkpt><trkpt lat="43.0105217" lon="13.2468117"><ele>1269.0</ele><time>2026-04-18T11:19:12.261Z</time></trkpt><trkpt lat="43.0106333" lon="13.2469083"><ele>1269.0</ele><time>2026-04-18T11:19:13.261Z</time></trkpt><trkpt lat="43.010745" lon="13.24701"><ele>1269.0</ele><time>2026-04-18T11:19:14.261Z</time></trkpt><trkpt lat="43.0108883" lon="13.2470933"><ele>1269.0</ele><time>2026-04-18T11:19:15.261Z</time></trkpt><trkpt lat="43.01103" lon="13.2471467"><ele>1277.0</ele><time>2026-04-18T11:19:16.261Z</time></trkpt><trkpt lat="43.0111667" lon="13.2471983"><ele>1285.0</ele><time>2026-04-18T11:19:17.261Z</time></trkpt><trkpt lat="43.0113017" lon="13.2472717"><ele>1293.0</ele><time>2026-04-18T11:19:18.261Z</time></trkpt><trkpt lat="43.0114417" lon="13.24732"><ele>1301.0</ele><time>2026-04-18T11:19:19.261Z</time></trkpt><trkpt lat="43.0115867" lon="13.2473617"><ele>1289.75</ele><time>2026-04-18T11:19:20.261Z</time></trkpt><trkpt lat="43.01172" lon="13.2473967"><ele>1278.5</ele><time>2026-04-18T11:19:21.261Z</time></trkpt><trkpt lat="43.0118417" lon="13.2474183"><ele>1267.25</ele><time>2026-04-18T11:19:22.261Z</time></trkpt><trkpt lat="43.0119583" lon="13.2474483"><ele>1256.0</ele><time>2026-04-18T11:19:23.261Z</time></trkpt><trkpt lat="43.0120667" lon="13.2475117"><ele>1256.0</ele><time>2026-04-18T11:19:24.261Z</time></trkpt><trkpt lat="43.0121567" lon="13.2476117"><ele>1256.0</ele><time>2026-04-18T11:19:25.261Z</time></trkpt><trkpt lat="43.012225" lon="13.247745"><ele>1256.0</ele><time>2026-04-18T11:19:26.261Z</time></trkpt><trkpt lat="43.0122667" lon="13.247925"><ele>1256.0</ele><time>2026-04-18T11:19:27.261Z</time></trkpt><trkpt lat="43.0122883" lon="13.2481167"><ele>1248.5</ele><time>2026-04-18T11:19:28.261Z</time></trkpt><trkpt lat="43.0123" lon="13.2483033"><ele>1241.0</ele><time>2026-04-18T11:19:29.261Z</time></trkpt><trkpt lat="43.0123017" lon="13.248485"><ele>1233.5</ele><time>2026-04-18T11:19:30.261Z</time></trkpt><trkpt lat="43.012315" lon="13.2486467"><ele>1226.0</ele><time>2026-04-18T11:19:31.261Z</time></trkpt><trkpt lat="43.0123267" lon="13.24879"><ele>1226.0</ele><time>2026-04-18T11:19:32.26Z</time></trkpt><trkpt lat="43.0123483" lon="13.2489017"><ele>1226.0</ele><time>2026-04-18T11:19:33.261Z</time></trkpt><trkpt lat="43.0123733" lon="13.2490033"><ele>1226.0</ele><time>2026-04-18T11:19:34.261Z</time></trkpt><trkpt lat="43.0124683" lon="13.249065"><ele>1226.0</ele><time>2026-04-18T11:19:36.261Z</time></trkpt><trkpt lat="43.01252" lon="13.2490117"><ele>1226.0</ele><time>2026-04-18T11:19:37.261Z</time></trkpt><trkpt lat="43.0125483" lon="13.24893"><ele>1226.0</ele><time>2026-04-18T11:19:38.261Z</time></trkpt><trkpt lat="43.012545" lon="13.2488283"><ele>1226.0</ele><time>2026-04-18T11:19:39.261Z</time></trkpt><trkpt lat="43.01252" lon="13.24871"><ele>1226.0</ele><time>2026-04-18T11:19:40.261Z</time></trkpt><trkpt lat="43.0124933" lon="13.2485817"><ele>1226.0</ele><time>2026-04-18T11:19:41.261Z</time></trkpt><trkpt lat="43.0124833" lon="13.2484283"><ele>1226.0</ele><time>2026-04-18T11:19:42.261Z</time></trkpt><trkpt lat="43.0125017" lon="13.2482583"><ele>1226.0</ele><time>2026-04-18T11:19:43.261Z</time></trkpt><trkpt lat="43.0125517" lon="13.24809"><ele>1237.0</ele><time>2026-04-18T11:19:44.261Z</time></trkpt><trkpt lat="43.0126283" lon="13.2479333"><ele>1248.0</ele><time>2026-04-18T11:19:45.261Z</time></trkpt><trkpt lat="43.0127283" lon="13.2477583"><ele>1259.0</ele><time>2026-04-18T11:19:46.261Z</time></trkpt><trkpt lat="43.0128333" lon="13.24758"><ele>1259.0</ele><time>2026-04-18T11:19:47.261Z</time></trkpt><trkpt lat="43.0129333" lon="13.2473967"><ele>1259.0</ele><time>2026-04-18T11:19:48.261Z</time></trkpt><trkpt lat="43.0130283" lon="13.2472167"><ele>1259.0</ele><time>2026-04-18T11:19:49.261Z</time></trkpt><trkpt lat="43.0131117" lon="13.2470383"><ele>1252.0</ele><time>2026-04-18T11:19:50.261Z</time></trkpt><trkpt lat="43.0131883" lon="13.2468683"><ele>1245.0</ele><time>2026-04-18T11:19:51.261Z</time></trkpt><trkpt lat="43.0132717" lon="13.2467233"><ele>1238.0</ele><time>2026-04-18T11:19:52.261Z</time></trkpt><trkpt lat="43.0133533" lon="13.246595"><ele>1231.0</ele><time>2026-04-18T11:19:53.261Z</time></trkpt><trkpt lat="43.0134467" lon="13.2465017"><ele>1243.0</ele><time>2026-04-18T11:19:54.261Z</time></trkpt><trkpt lat="43.01356" lon="13.246415"><ele>1255.0</ele><time>2026-04-18T11:19:55.261Z</time></trkpt><trkpt lat="43.0136717" lon="13.2463133"><ele>1267.0</ele><time>2026-04-18T11:19:56.261Z</time></trkpt><trkpt lat="43.0137767" lon="13.2461733"><ele>1279.0</ele><time>2026-04-18T11:19:57.261Z</time></trkpt><trkpt lat="43.0138783" lon="13.2460483"><ele>1279.0</ele><time>2026-04-18T11:19:58.261Z</time></trkpt><trkpt lat="43.0140067" lon="13.245945"><ele>1279.0</ele><time>2026-04-18T11:19:59.261Z</time></trkpt><trkpt lat="43.0141517" lon="13.2459117"><ele>1279.0</ele><time>2026-04-18T11:20:00.261Z</time></trkpt><trkpt lat="43.0142983" lon="13.2459117"><ele>1279.0</ele><time>2026-04-18T11:20:01.261Z</time></trkpt><trkpt lat="43.0144617" lon="13.2459233"><ele>1260.3333333333333</ele><time>2026-04-18T11:20:02.261Z</time></trkpt><trkpt lat="43.014635" lon="13.2459433"><ele>1241.6666666666667</ele><time>2026-04-18T11:20:03.261Z</time></trkpt><trkpt lat="43.0148033" lon="13.2459583"><ele>1223.0</ele><time>2026-04-18T11:20:04.261Z</time></trkpt><trkpt lat="43.0149617" lon="13.2459817"><ele>1218.0</ele><time>2026-04-18T11:20:05.261Z</time></trkpt><trkpt lat="43.0151167" lon="13.24599"><ele>1213.0</ele><time>2026-04-18T11:20:06.261Z</time></trkpt><trkpt lat="43.0152717" lon="13.2459917"><ele>1208.0</ele><time>2026-04-18T11:20:07.261Z</time></trkpt><trkpt lat="43.015435" lon="13.2459533"><ele>1208.0</ele><time>2026-04-18T11:20:08.261Z</time></trkpt><trkpt lat="43.015595" lon="13.2459017"><ele>1208.0</ele><time>2026-04-18T11:20:09.261Z</time></trkpt><trkpt lat="43.0157617" lon="13.2458367"><ele>1208.0</ele><time>2026-04-18T11:20:10.261Z</time></trkpt><trkpt lat="43.015925" lon="13.2457783"><ele>1203.0</ele><time>2026-04-18T11:20:11.261Z</time></trkpt><trkpt lat="43.0160867" lon="13.2457383"><ele>1198.0</ele><time>2026-04-18T11:20:12.261Z</time></trkpt><trkpt lat="43.0162467" lon="13.2457117"><ele>1193.0</ele><time>2026-04-18T11:20:13.261Z</time></trkpt><trkpt lat="43.01638" lon="13.24571"><ele>1193.0</ele><time>2026-04-18T11:20:14.261Z</time></trkpt><trkpt lat="43.0164917" lon="13.2457133"><ele>1193.0</ele><time>2026-04-18T11:20:15.261Z</time></trkpt><trkpt lat="43.01658" lon="13.2457233"><ele>1193.0</ele><time>2026-04-18T11:20:16.261Z</time></trkpt><trkpt lat="43.0166533" lon="13.245755"><ele>1193.0</ele><time>2026-04-18T11:20:17.261Z</time></trkpt><trkpt lat="43.0166933" lon="13.2458983"><ele>1193.0</ele><time>2026-04-18T11:20:19.261Z</time></trkpt><trkpt lat="43.0166533" lon="13.245965"><ele>1193.0</ele><time>2026-04-18T11:20:20.261Z</time></trkpt><trkpt lat="43.0165833" lon="13.2460033"><ele>1193.0</ele><time>2026-04-18T11:20:21.261Z</time></trkpt><trkpt lat="43.0164883" lon="13.2460117"><ele>1193.0</ele><time>2026-04-18T11:20:22.261Z</time></trkpt><trkpt lat="43.0163767" lon="13.246025"><ele>1193.0</ele><time>2026-04-18T11:20:23.261Z</time></trkpt><trkpt lat="43.01626" lon="13.2460533"><ele>1193.0</ele><time>2026-04-18T11:20:24.261Z</time></trkpt><trkpt lat="43.0161383" lon="13.2461233"><ele>1193.0</ele><time>2026-04-18T11:20:25.261Z</time></trkpt><trkpt lat="43.0160083" lon="13.2462333"><ele>1193.0</ele><time>2026-04-18T11:20:26.261Z</time></trkpt><trkpt lat="43.0158817" lon="13.24636"><ele>1193.0</ele><time>2026-04-18T11:20:27.261Z</time></trkpt><trkpt lat="43.01575" lon="13.2464917"><ele>1188.0</ele><time>2026-04-18T11:20:28.261Z</time></trkpt><trkpt lat="43.015615" lon="13.2466367"><ele>1183.0</ele><time>2026-04-18T11:20:29.261Z</time></trkpt><trkpt lat="43.0154833" lon="13.2467633"><ele>1178.0</ele><time>2026-04-18T11:20:30.261Z</time></trkpt><trkpt lat="43.0153417" lon="13.246875"><ele>1178.0</ele><time>2026-04-18T11:20:31.261Z</time></trkpt><trkpt lat="43.015185" lon="13.2469683"><ele>1178.0</ele><time>2026-04-18T11:20:32.261Z</time></trkpt><trkpt lat="43.0150233" lon="13.247025"><ele>1178.0</ele><time>2026-04-18T11:20:33.261Z</time></trkpt><trkpt lat="43.0148583" lon="13.2470467"><ele>1180.25</ele><time>2026-04-18T11:20:34.261Z</time></trkpt><trkpt lat="43.0147033" lon="13.2470417"><ele>1182.5</ele><time>2026-04-18T11:20:35.261Z</time></trkpt><trkpt lat="43.014555" lon="13.2470133"><ele>1184.75</ele><time>2026-04-18T11:20:36.26Z</time></trkpt><trkpt lat="43.014415" lon="13.2470183"><ele>1187.0</ele><time>2026-04-18T11:20:37.261Z</time></trkpt><trkpt lat="43.0142783" lon="13.24705"><ele>1187.0</ele><time>2026-04-18T11:20:38.261Z</time></trkpt><trkpt lat="43.0141583" lon="13.24714"><ele>1187.0</ele><time>2026-04-18T11:20:39.261Z</time></trkpt><trkpt lat="43.0140683" lon="13.2472767"><ele>1187.0</ele><time>2026-04-18T11:20:40.261Z</time></trkpt><trkpt lat="43.0139983" lon="13.24741"><ele>1187.0</ele><time>2026-04-18T11:20:41.261Z</time></trkpt><trkpt lat="43.0139567" lon="13.2475517"><ele>1190.1666666666667</ele><time>2026-04-18T11:20:42.261Z</time></trkpt><trkpt lat="43.013925" lon="13.2476733"><ele>1193.3333333333335</ele><time>2026-04-18T11:20:43.261Z</time></trkpt><trkpt lat="43.0139083" lon="13.2477883"><ele>1196.5</ele><time>2026-04-18T11:20:44.261Z</time></trkpt><trkpt lat="43.0139067" lon="13.2478933"><ele>1199.6666666666667</ele><time>2026-04-18T11:20:45.261Z</time></trkpt><trkpt lat="43.0139883" lon="13.2480217"><ele>1202.8333333333333</ele><time>2026-04-18T11:20:47.261Z</time></trkpt><trkpt lat="43.0140533" lon="13.2480183"><ele>1206.0</ele><time>2026-04-18T11:20:48.261Z</time></trkpt><trkpt lat="43.0141183" lon="13.2479533"><ele>1196.6</ele><time>2026-04-18T11:20:49.261Z</time></trkpt><trkpt lat="43.0141783" lon="13.2478567"><ele>1187.1999999999998</ele><time>2026-04-18T11:20:50.261Z</time></trkpt><trkpt lat="43.0142483" lon="13.2477217"><ele>1177.8000000000002</ele><time>2026-04-18T11:20:51.261Z</time></trkpt><trkpt lat="43.01434" lon="13.2476133"><ele>1168.4</ele><time>2026-04-18T11:20:52.261Z</time></trkpt><trkpt lat="43.01445" lon="13.2475717"><ele>1159.0</ele><time>2026-04-18T11:20:53.261Z</time></trkpt><trkpt lat="43.0145633" lon="13.2475917"><ele>1159.0</ele><time>2026-04-18T11:20:54.261Z</time></trkpt><trkpt lat="43.014665" lon="13.2476383"><ele>1159.0</ele><time>2026-04-18T11:20:55.261Z</time></trkpt><trkpt lat="43.0147517" lon="13.2476917"><ele>1159.0</ele><time>2026-04-18T11:20:56.261Z</time></trkpt><trkpt lat="43.01484" lon="13.2477517"><ele>1159.0</ele><time>2026-04-18T11:20:57.261Z</time></trkpt><trkpt lat="43.01493" lon="13.2478067"><ele>1159.0</ele><time>2026-04-18T11:20:58.261Z</time></trkpt><trkpt lat="43.01502" lon="13.2478567"><ele>1155.0</ele><time>2026-04-18T11:20:59.261Z</time></trkpt><trkpt lat="43.0151217" lon="13.2479067"><ele>1151.0</ele><time>2026-04-18T11:21:00.261Z</time></trkpt><trkpt lat="43.0152383" lon="13.2479267"><ele>1147.0</ele><time>2026-04-18T11:21:01.261Z</time></trkpt><trkpt lat="43.0153683" lon="13.2479267"><ele>1143.0</ele><time>2026-04-18T11:21:02.261Z</time></trkpt><trkpt lat="43.0155033" lon="13.2479167"><ele>1143.0</ele><time>2026-04-18T11:21:03.261Z</time></trkpt><trkpt lat="43.0156467" lon="13.247875"><ele>1143.0</ele><time>2026-04-18T11:21:04.261Z</time></trkpt><trkpt lat="43.0157883" lon="13.24784"><ele>1143.0</ele><time>2026-04-18T11:21:05.261Z</time></trkpt><trkpt lat="43.0159333" lon="13.2478133"><ele>1143.0</ele><time>2026-04-18T11:21:06.261Z</time></trkpt><trkpt lat="43.01608" lon="13.247785"><ele>1141.75</ele><time>2026-04-18T11:21:07.261Z</time></trkpt><trkpt lat="43.0162233" lon="13.2477517"><ele>1140.5</ele><time>2026-04-18T11:21:08.261Z</time></trkpt><trkpt lat="43.0163567" lon="13.2477117"><ele>1139.25</ele><time>2026-04-18T11:21:09.261Z</time></trkpt><trkpt lat="43.01649" lon="13.2476783"><ele>1138.0</ele><time>2026-04-18T11:21:10.261Z</time></trkpt><trkpt lat="43.0166233" lon="13.2476317"><ele>1141.75</ele><time>2026-04-18T11:21:11.261Z</time></trkpt><trkpt lat="43.016755" lon="13.2475583"><ele>1145.5</ele><time>2026-04-18T11:21:12.261Z</time></trkpt><trkpt lat="43.016875" lon="13.2474483"><ele>1149.25</ele><time>2026-04-18T11:21:13.261Z</time></trkpt><trkpt lat="43.0169783" lon="13.2473183"><ele>1153.0</ele><time>2026-04-18T11:21:14.261Z</time></trkpt><trkpt lat="43.017075" lon="13.2471817"><ele>1153.0</ele><time>2026-04-18T11:21:15.26Z</time></trkpt><trkpt lat="43.0171667" lon="13.2470417"><ele>1153.0</ele><time>2026-04-18T11:21:16.261Z</time></trkpt><trkpt lat="43.0172733" lon="13.2469217"><ele>1153.0</ele><time>2026-04-18T11:21:17.261Z</time></trkpt><trkpt lat="43.01739" lon="13.24682"><ele>1153.0</ele><time>2026-04-18T11:21:18.261Z</time></trkpt><trkpt lat="43.01753" lon="13.2467733"><ele>1147.5</ele><time>2026-04-18T11:21:19.261Z</time></trkpt><trkpt lat="43.0176717" lon="13.2467833"><ele>1142.0</ele><time>2026-04-18T11:21:20.261Z</time></trkpt><trkpt lat="43.0178233" lon="13.246835"><ele>1136.5</ele><time>2026-04-18T11:21:21.261Z</time></trkpt><trkpt lat="43.0179567" lon="13.24693"><ele>1131.0</ele><time>2026-04-18T11:21:22.261Z</time></trkpt><trkpt lat="43.0180683" lon="13.247055"><ele>1131.0</ele><time>2026-04-18T11:21:23.261Z</time></trkpt><trkpt lat="43.018145" lon="13.2472083"><ele>1131.0</ele><time>2026-04-18T11:21:24.261Z</time></trkpt><trkpt lat="43.018195" lon="13.2473633"><ele>1131.0</ele><time>2026-04-18T11:21:25.26Z</time></trkpt><trkpt lat="43.018235" lon="13.2475083"><ele>1131.0</ele><time>2026-04-18T11:21:26.261Z</time></trkpt><trkpt lat="43.0183017" lon="13.2476083"><ele>1128.3999999999999</ele><time>2026-04-18T11:21:27.261Z</time></trkpt><trkpt lat="43.018395" lon="13.24767"><ele>1125.8</ele><time>2026-04-18T11:21:28.261Z</time></trkpt><trkpt lat="43.01849" lon="13.2477"><ele>1123.1999999999998</ele><time>2026-04-18T11:21:29.261Z</time></trkpt><trkpt lat="43.01857" lon="13.247745"><ele>1120.6</ele><time>2026-04-18T11:21:30.261Z</time></trkpt><trkpt lat="43.0186367" lon="13.24784"><ele>1118.0</ele><time>2026-04-18T11:21:31.261Z</time></trkpt><trkpt lat="43.0186733" lon="13.2479533"><ele>1118.0</ele><time>2026-04-18T11:21:32.261Z</time></trkpt><trkpt lat="43.0186583" lon="13.2480667"><ele>1118.0</ele><time>2026-04-18T11:21:33.261Z</time></trkpt><trkpt lat="43.0185917" lon="13.24814"><ele>1118.0</ele><time>2026-04-18T11:21:34.261Z</time></trkpt><trkpt lat="43.0184883" lon="13.248155"><ele>1118.0</ele><time>2026-04-18T11:21:35.261Z</time></trkpt><trkpt lat="43.0183817" lon="13.2481167"><ele>1118.0</ele><time>2026-04-18T11:21:36.261Z</time></trkpt><trkpt lat="43.0182833" lon="13.2480217"><ele>1113.5</ele><time>2026-04-18T11:21:37.261Z</time></trkpt><trkpt lat="43.0182133" lon="13.2478917"><ele>1109.0</ele><time>2026-04-18T11:21:38.261Z</time></trkpt><trkpt lat="43.0181617" lon="13.2477433"><ele>1104.5</ele><time>2026-04-18T11:21:39.261Z</time></trkpt><trkpt lat="43.0181167" lon="13.2475967"><ele>1100.0</ele><time>2026-04-18T11:21:40.261Z</time></trkpt><trkpt lat="43.01807" lon="13.2474417"><ele>1100.0</ele><time>2026-04-18T11:21:41.261Z</time></trkpt><trkpt lat="43.018" lon="13.247305"><ele>1100.0</ele><time>2026-04-18T11:21:42.261Z</time></trkpt><trkpt lat="43.0179033" lon="13.2471867"><ele>1100.0</ele><time>2026-04-18T11:21:43.261Z</time></trkpt><trkpt lat="43.0177917" lon="13.2471283"><ele>1100.0</ele><time>2026-04-18T11:21:44.261Z</time></trkpt><trkpt lat="43.01765" lon="13.2471317"><ele>1107.3333333333335</ele><time>2026-04-18T11:21:45.261Z</time></trkpt><trkpt lat="43.017505" lon="13.2471967"><ele>1114.6666666666667</ele><time>2026-04-18T11:21:46.261Z</time></trkpt><trkpt lat="43.01737" lon="13.2473267"><ele>1122.0</ele><time>2026-04-18T11:21:47.26Z</time></trkpt><trkpt lat="43.0172483" lon="13.247495"><ele>1122.0</ele><time>2026-04-18T11:21:48.261Z</time></trkpt><trkpt lat="43.0171433" lon="13.2476883"><ele>1122.0</ele><time>2026-04-18T11:21:49.261Z</time></trkpt><trkpt lat="43.0170433" lon="13.2478817"><ele>1122.0</ele><time>2026-04-18T11:21:50.261Z</time></trkpt><trkpt lat="43.016955" lon="13.2480783"><ele>1118.25</ele><time>2026-04-18T11:21:51.261Z</time></trkpt><trkpt lat="43.0168817" lon="13.248265"><ele>1114.5</ele><time>2026-04-18T11:21:52.261Z</time></trkpt><trkpt lat="43.0167983" lon="13.2484333"><ele>1110.75</ele><time>2026-04-18T11:21:53.261Z</time></trkpt><trkpt lat="43.0166883" lon="13.2485633"><ele>1107.0</ele><time>2026-04-18T11:21:54.261Z</time></trkpt><trkpt lat="43.016545" lon="13.24868"><ele>1107.0</ele><time>2026-04-18T11:21:55.26Z</time></trkpt><trkpt lat="43.0163917" lon="13.2487917"><ele>1107.0</ele><time>2026-04-18T11:21:56.261Z</time></trkpt><trkpt lat="43.0162433" lon="13.2488867"><ele>1107.0</ele><time>2026-04-18T11:21:57.261Z</time></trkpt><trkpt lat="43.0161017" lon="13.248995"><ele>1098.6666666666667</ele><time>2026-04-18T11:21:58.261Z</time></trkpt><trkpt lat="43.0159533" lon="13.2491017"><ele>1090.3333333333335</ele><time>2026-04-18T11:21:59.261Z</time></trkpt><trkpt lat="43.0158017" lon="13.2491867"><ele>1082.0</ele><time>2026-04-18T11:22:00.261Z</time></trkpt><trkpt lat="43.0156483" lon="13.24924"><ele>1082.0</ele><time>2026-04-18T11:22:01.261Z</time></trkpt><trkpt lat="43.0155" lon="13.2492533"><ele>1082.0</ele><time>2026-04-18T11:22:02.261Z</time></trkpt><trkpt lat="43.0153683" lon="13.2492417"><ele>1082.0</ele><time>2026-04-18T11:22:03.261Z</time></trkpt><trkpt lat="43.0152367" lon="13.2492383"><ele>1082.0</ele><time>2026-04-18T11:22:04.26Z</time></trkpt><trkpt lat="43.0151267" lon="13.249275"><ele>1082.0</ele><time>2026-04-18T11:22:05.261Z</time></trkpt><trkpt lat="43.015035" lon="13.2493767"><ele>1082.0</ele><time>2026-04-18T11:22:06.261Z</time></trkpt><trkpt lat="43.0149767" lon="13.24953"><ele>1082.0</ele><time>2026-04-18T11:22:07.261Z</time></trkpt><trkpt lat="43.0149417" lon="13.24973"><ele>1082.0</ele><time>2026-04-18T11:22:08.261Z</time></trkpt><trkpt lat="43.0149117" lon="13.2499433"><ele>1088.0</ele><time>2026-04-18T11:22:09.261Z</time></trkpt><trkpt lat="43.0148617" lon="13.2501667"><ele>1094.0</ele><time>2026-04-18T11:22:10.261Z</time></trkpt><trkpt lat="43.0148117" lon="13.2503967"><ele>1100.0</ele><time>2026-04-18T11:22:11.261Z</time></trkpt><trkpt lat="43.01476" lon="13.2506117"><ele>1095.0</ele><time>2026-04-18T11:22:12.261Z</time></trkpt><trkpt lat="43.01469" lon="13.2508183"><ele>1090.0</ele><time>2026-04-18T11:22:13.261Z</time></trkpt><trkpt lat="43.0146183" lon="13.2510383"><ele>1085.0</ele><time>2026-04-18T11:22:14.261Z</time></trkpt><trkpt lat="43.0145483" lon="13.2512783"><ele>1079.0</ele><time>2026-04-18T11:22:15.261Z</time></trkpt><trkpt lat="43.01451" lon="13.251525"><ele>1073.0</ele><time>2026-04-18T11:22:16.261Z</time></trkpt><trkpt lat="43.0144717" lon="13.2517667"><ele>1067.0</ele><time>2026-04-18T11:22:17.261Z</time></trkpt><trkpt lat="43.01444" lon="13.2520033"><ele>1067.0</ele><time>2026-04-18T11:22:18.261Z</time></trkpt><trkpt lat="43.0143917" lon="13.2522383"><ele>1067.0</ele><time>2026-04-18T11:22:19.261Z</time></trkpt><trkpt lat="43.014355" lon="13.2524683"><ele>1067.0</ele><time>2026-04-18T11:22:20.261Z</time></trkpt><trkpt lat="43.0143083" lon="13.2526967"><ele>1063.3333333333335</ele><time>2026-04-18T11:22:21.261Z</time></trkpt><trkpt lat="43.01426" lon="13.2529233"><ele>1059.6666666666667</ele><time>2026-04-18T11:22:22.261Z</time></trkpt><trkpt lat="43.0142317" lon="13.25316"><ele>1056.0</ele><time>2026-04-18T11:22:23.261Z</time></trkpt><trkpt lat="43.0142067" lon="13.2533817"><ele>1054.75</ele><time>2026-04-18T11:22:24.261Z</time></trkpt><trkpt lat="43.014175" lon="13.253585"><ele>1053.5</ele><time>2026-04-18T11:22:25.261Z</time></trkpt><trkpt lat="43.01412" lon="13.2537533"><ele>1052.25</ele><time>2026-04-18T11:22:26.261Z</time></trkpt><trkpt lat="43.0140333" lon="13.2539067"><ele>1051.0</ele><time>2026-04-18T11:22:27.261Z</time></trkpt><trkpt lat="43.01392" lon="13.2540483"><ele>1051.0</ele><time>2026-04-18T11:22:28.261Z</time></trkpt><trkpt lat="43.0137933" lon="13.2541617"><ele>1051.0</ele><time>2026-04-18T11:22:29.261Z</time></trkpt><trkpt lat="43.01367" lon="13.254275"><ele>1051.0</ele><time>2026-04-18T11:22:30.26Z</time></trkpt><trkpt lat="43.01356" lon="13.2544233"><ele>1051.0</ele><time>2026-04-18T11:22:31.261Z</time></trkpt><trkpt lat="43.01346" lon="13.2545767"><ele>1051.0</ele><time>2026-04-18T11:22:32.261Z</time></trkpt><trkpt lat="43.0133683" lon="13.2547483"><ele>1051.0</ele><time>2026-04-18T11:22:33.261Z</time></trkpt><trkpt lat="43.013285" lon="13.25491"><ele>1046.75</ele><time>2026-04-18T11:22:34.261Z</time></trkpt><trkpt lat="43.013195" lon="13.25506"><ele>1042.5</ele><time>2026-04-18T11:22:35.261Z</time></trkpt><trkpt lat="43.0131017" lon="13.255175"><ele>1038.25</ele><time>2026-04-18T11:22:36.261Z</time></trkpt><trkpt lat="43.0129883" lon="13.255265"><ele>1034.0</ele><time>2026-04-18T11:22:37.261Z</time></trkpt><trkpt lat="43.0128567" lon="13.25533"><ele>1034.0</ele><time>2026-04-18T11:22:38.261Z</time></trkpt><trkpt lat="43.0127067" lon="13.2553733"><ele>1034.0</ele><time>2026-04-18T11:22:39.261Z</time></trkpt><trkpt lat="43.0125583" lon="13.25541"><ele>1034.0</ele><time>2026-04-18T11:22:40.261Z</time></trkpt><trkpt lat="43.0124083" lon="13.2554367"><ele>1031.0</ele><time>2026-04-18T11:22:41.261Z</time></trkpt><trkpt lat="43.0122617" lon="13.255435"><ele>1028.0</ele><time>2026-04-18T11:22:42.261Z</time></trkpt><trkpt lat="43.0121067" lon="13.255445"><ele>1025.0</ele><time>2026-04-18T11:22:43.261Z</time></trkpt><trkpt lat="43.011945" lon="13.255465"><ele>1025.0</ele><time>2026-04-18T11:22:44.261Z</time></trkpt><trkpt lat="43.0117933" lon="13.2555217"><ele>1025.0</ele><time>2026-04-18T11:22:45.261Z</time></trkpt><trkpt lat="43.01164" lon="13.2555817"><ele>1025.0</ele><time>2026-04-18T11:22:46.26Z</time></trkpt><trkpt lat="43.0114683" lon="13.2556733"><ele>1009.6666666666667</ele><time>2026-04-18T11:22:47.261Z</time></trkpt><trkpt lat="43.0113" lon="13.25576"><ele>994.3333333333333</ele><time>2026-04-18T11:22:48.261Z</time></trkpt><trkpt lat="43.01112" lon="13.2558517"><ele>979.0</ele><time>2026-04-18T11:22:49.261Z</time></trkpt><trkpt lat="43.0109367" lon="13.2559417"><ele>979.0</ele><time>2026-04-18T11:22:50.261Z</time></trkpt><trkpt lat="43.010755" lon="13.25602"><ele>979.0</ele><time>2026-04-18T11:22:51.261Z</time></trkpt><trkpt lat="43.010565" lon="13.256075"><ele>979.0</ele><time>2026-04-18T11:22:52.261Z</time></trkpt><trkpt lat="43.010375" lon="13.256125"><ele>979.0</ele><time>2026-04-18T11:22:53.261Z</time></trkpt><trkpt lat="43.01019" lon="13.2561833"><ele>979.0</ele><time>2026-04-18T11:22:54.261Z</time></trkpt><trkpt lat="43.0100133" lon="13.25624"><ele>979.0</ele><time>2026-04-18T11:22:55.261Z</time></trkpt><trkpt lat="43.0098267" lon="13.256275"><ele>984.6666666666666</ele><time>2026-04-18T11:22:56.261Z</time></trkpt><trkpt lat="43.0096517" lon="13.2562833"><ele>990.3333333333333</ele><time>2026-04-18T11:22:57.261Z</time></trkpt><trkpt lat="43.0094883" lon="13.25629"><ele>996.0</ele><time>2026-04-18T11:22:58.261Z</time></trkpt><trkpt lat="43.0093417" lon="13.256285"><ele>996.0</ele><time>2026-04-18T11:22:59.261Z</time></trkpt><trkpt lat="43.009215" lon="13.2562883"><ele>995.9999999999999</ele><time>2026-04-18T11:23:00.261Z</time></trkpt><trkpt lat="43.0091" lon="13.2563"><ele>995.9999999999999</ele><time>2026-04-18T11:23:01.261Z</time></trkpt><trkpt lat="43.0090017" lon="13.2563333"><ele>996.0</ele><time>2026-04-18T11:23:02.261Z</time></trkpt><trkpt lat="43.008945" lon="13.256415"><ele>996.0</ele><time>2026-04-18T11:23:03.261Z</time></trkpt><trkpt lat="43.0089367" lon="13.2565283"><ele>989.4</ele><time>2026-04-18T11:23:04.261Z</time></trkpt><trkpt lat="43.0089717" lon="13.2566283"><ele>982.8</ele><time>2026-04-18T11:23:05.261Z</time></trkpt><trkpt lat="43.00906" lon="13.25668"><ele>976.1999999999999</ele><time>2026-04-18T11:23:06.261Z</time></trkpt><trkpt lat="43.0091717" lon="13.256695"><ele>969.5999999999999</ele><time>2026-04-18T11:23:07.261Z</time></trkpt><trkpt lat="43.0093183" lon="13.25666"><ele>963.0</ele><time>2026-04-18T11:23:08.261Z</time></trkpt><trkpt lat="43.0094767" lon="13.2566467"><ele>963.0</ele><time>2026-04-18T11:23:09.261Z</time></trkpt><trkpt lat="43.0096367" lon="13.2566467"><ele>963.0</ele><time>2026-04-18T11:23:10.261Z</time></trkpt><trkpt lat="43.0098017" lon="13.25667"><ele>963.0</ele><time>2026-04-18T11:23:11.261Z</time></trkpt><trkpt lat="43.0099583" lon="13.25672"><ele>962.6666666666667</ele><time>2026-04-18T11:23:12.261Z</time></trkpt><trkpt lat="43.0101117" lon="13.256775"><ele>962.3333333333334</ele><time>2026-04-18T11:23:13.261Z</time></trkpt><trkpt lat="43.0102667" lon="13.2568617"><ele>962.0</ele><time>2026-04-18T11:23:14.261Z</time></trkpt><trkpt lat="43.0104183" lon="13.25697"><ele>962.0</ele><time>2026-04-18T11:23:15.261Z</time></trkpt><trkpt lat="43.010565" lon="13.25708"><ele>962.0</ele><time>2026-04-18T11:23:16.261Z</time></trkpt><trkpt lat="43.0107167" lon="13.257195"><ele>962.0</ele><time>2026-04-18T11:23:17.261Z</time></trkpt><trkpt lat="43.0108667" lon="13.257325"><ele>952.3333333333334</ele><time>2026-04-18T11:23:18.261Z</time></trkpt><trkpt lat="43.0110117" lon="13.2574467"><ele>942.6666666666667</ele><time>2026-04-18T11:23:19.261Z</time></trkpt><trkpt lat="43.011155" lon="13.2575733"><ele>933.0</ele><time>2026-04-18T11:23:20.261Z</time></trkpt><trkpt lat="43.0112983" lon="13.2576967"><ele>933.0</ele><time>2026-04-18T11:23:21.261Z</time></trkpt><trkpt lat="43.0114417" lon="13.2578117"><ele>933.0</ele><time>2026-04-18T11:23:22.26Z</time></trkpt><trkpt lat="43.0115967" lon="13.257885"><ele>933.0</ele><time>2026-04-18T11:23:23.261Z</time></trkpt><trkpt lat="43.0117683" lon="13.2579283"><ele>936.3333333333333</ele><time>2026-04-18T11:23:24.261Z</time></trkpt><trkpt lat="43.0119483" lon="13.2579433"><ele>939.6666666666666</ele><time>2026-04-18T11:23:25.261Z</time></trkpt><trkpt lat="43.0121367" lon="13.2579567"><ele>943.0</ele><time>2026-04-18T11:23:26.261Z</time></trkpt><trkpt lat="43.0123217" lon="13.2579633"><ele>942.6666666666666</ele><time>2026-04-18T11:23:27.261Z</time></trkpt><trkpt lat="43.0124967" lon="13.25798"><ele>942.3333333333333</ele><time>2026-04-18T11:23:28.26Z</time></trkpt><trkpt lat="43.0126667" lon="13.2579883"><ele>942.0</ele><time>2026-04-18T11:23:29.261Z</time></trkpt><trkpt lat="43.01282" lon="13.2579933"><ele>942.0</ele><time>2026-04-18T11:23:30.261Z</time></trkpt><trkpt lat="43.0129533" lon="13.2579733"><ele>942.0</ele><time>2026-04-18T11:23:31.261Z</time></trkpt><trkpt lat="43.013055" lon="13.257935"><ele>942.0</ele><time>2026-04-18T11:23:32.261Z</time></trkpt><trkpt lat="43.0131533" lon="13.257865"><ele>942.0</ele><time>2026-04-18T11:23:33.261Z</time></trkpt><trkpt lat="43.0132383" lon="13.2577833"><ele>942.0</ele><time>2026-04-18T11:23:34.261Z</time></trkpt><trkpt lat="43.0133133" lon="13.2577"><ele>942.0</ele><time>2026-04-18T11:23:35.261Z</time></trkpt><trkpt lat="43.0133767" lon="13.257615"><ele>942.0</ele><time>2026-04-18T11:23:36.261Z</time></trkpt><trkpt lat="43.0134383" lon="13.2575333"><ele>942.0</ele><time>2026-04-18T11:23:37.261Z</time></trkpt><trkpt lat="43.0134967" lon="13.25746"><ele>942.0</ele><time>2026-04-18T11:23:38.261Z</time></trkpt><trkpt lat="43.0135567" lon="13.25738"><ele>942.0</ele><time>2026-04-18T11:23:39.261Z</time></trkpt><trkpt lat="43.013625" lon="13.2573"><ele>942.8</ele><time>2026-04-18T11:23:40.261Z</time></trkpt><trkpt lat="43.013695" lon="13.2572217"><ele>943.6</ele><time>2026-04-18T11:23:41.261Z</time></trkpt><trkpt lat="43.0137633" lon="13.257145"><ele>944.3999999999999</ele><time>2026-04-18T11:23:42.261Z</time></trkpt><trkpt lat="43.0138533" lon="13.25699"><ele>945.1999999999999</ele><time>2026-04-18T11:23:44.261Z</time></trkpt><trkpt lat="43.0139133" lon="13.256895"><ele>946.0</ele><time>2026-04-18T11:23:45.261Z</time></trkpt><trkpt lat="43.0139783" lon="13.25679"><ele>945.9999999999999</ele><time>2026-04-18T11:23:46.261Z</time></trkpt><trkpt lat="43.0140317" lon="13.25669"><ele>946.0</ele><time>2026-04-18T11:23:47.261Z</time></trkpt><trkpt lat="43.01408" lon="13.25659"><ele>946.0</ele><time>2026-04-18T11:23:48.261Z</time></trkpt><trkpt lat="43.014135" lon="13.2565"><ele>946.0</ele><time>2026-04-18T11:23:49.261Z</time></trkpt><trkpt lat="43.0141933" lon="13.2564417"><ele>945.9999999999999</ele><time>2026-04-18T11:23:50.261Z</time></trkpt><trkpt lat="43.0142533" lon="13.2564067"><ele>946.0</ele><time>2026-04-18T11:23:51.261Z</time></trkpt><trkpt lat="43.01436" lon="13.256485"><ele>946.0</ele><time>2026-04-18T11:23:53.261Z</time></trkpt><trkpt lat="43.0143767" lon="13.2565833"><ele>945.9999999999999</ele><time>2026-04-18T11:23:54.261Z</time></trkpt><trkpt lat="43.0143567" lon="13.256695"><ele>945.9999999999999</ele><time>2026-04-18T11:23:55.261Z</time></trkpt><trkpt lat="43.0143033" lon="13.2568183"><ele>946.0</ele><time>2026-04-18T11:23:56.261Z</time></trkpt><trkpt lat="43.0142183" lon="13.2569467"><ele>946.0</ele><time>2026-04-18T11:23:57.261Z</time></trkpt><trkpt lat="43.0141217" lon="13.2570867"><ele>946.0</ele><time>2026-04-18T11:23:58.261Z</time></trkpt><trkpt lat="43.0140217" lon="13.2572433"><ele>946.0</ele><time>2026-04-18T11:23:59.261Z</time></trkpt><trkpt lat="43.0139183" lon="13.2573933"><ele>946.0</ele><time>2026-04-18T11:24:00.261Z</time></trkpt><trkpt lat="43.0138117" lon="13.2575583"><ele>936.0</ele><time>2026-04-18T11:24:01.261Z</time></trkpt><trkpt lat="43.0137033" lon="13.2577317"><ele>926.0</ele><time>2026-04-18T11:24:02.26Z</time></trkpt><trkpt lat="43.0135767" lon="13.2579383"><ele>916.0</ele><time>2026-04-18T11:24:03.261Z</time></trkpt><trkpt lat="43.0134483" lon="13.2581383"><ele>914.6666666666666</ele><time>2026-04-18T11:24:04.261Z</time></trkpt><trkpt lat="43.0133083" lon="13.2583383"><ele>913.3333333333333</ele><time>2026-04-18T11:24:05.261Z</time></trkpt><trkpt lat="43.0131767" lon="13.25853"><ele>912.0</ele><time>2026-04-18T11:24:06.261Z</time></trkpt><trkpt lat="43.0130417" lon="13.258715"><ele>912.0</ele><time>2026-04-18T11:24:07.261Z</time></trkpt><trkpt lat="43.0129033" lon="13.2588917"><ele>912.0</ele><time>2026-04-18T11:24:08.261Z</time></trkpt><trkpt lat="43.0127583" lon="13.2590567"><ele>912.0</ele><time>2026-04-18T11:24:09.261Z</time></trkpt><trkpt lat="43.01261" lon="13.2592067"><ele>904.3333333333333</ele><time>2026-04-18T11:24:10.261Z</time></trkpt><trkpt lat="43.012455" lon="13.2593467"><ele>896.6666666666666</ele><time>2026-04-18T11:24:11.261Z</time></trkpt><trkpt lat="43.0122983" lon="13.2594683"><ele>889.0</ele><time>2026-04-18T11:24:12.261Z</time></trkpt><trkpt lat="43.0121433" lon="13.2595883"><ele>889.0</ele><time>2026-04-18T11:24:13.261Z</time></trkpt><trkpt lat="43.011995" lon="13.2597"><ele>889.0</ele><time>2026-04-18T11:24:14.261Z</time></trkpt><trkpt lat="43.0118467" lon="13.2598"><ele>889.0</ele><time>2026-04-18T11:24:15.261Z</time></trkpt><trkpt lat="43.011695" lon="13.259895"><ele>880.0</ele><time>2026-04-18T11:24:16.261Z</time></trkpt><trkpt lat="43.011545" lon="13.25997"><ele>871.0</ele><time>2026-04-18T11:24:17.261Z</time></trkpt><trkpt lat="43.0113833" lon="13.26001"><ele>862.0</ele><time>2026-04-18T11:24:18.261Z</time></trkpt><trkpt lat="43.0112133" lon="13.2600283"><ele>862.0</ele><time>2026-04-18T11:24:19.261Z</time></trkpt><trkpt lat="43.0110367" lon="13.2600333"><ele>862.0</ele><time>2026-04-18T11:24:20.261Z</time></trkpt><trkpt lat="43.0108633" lon="13.2600333"><ele>862.0</ele><time>2026-04-18T11:24:21.261Z</time></trkpt><trkpt lat="43.010695" lon="13.2600417"><ele>858.6666666666666</ele><time>2026-04-18T11:24:22.261Z</time></trkpt><trkpt lat="43.0105283" lon="13.2600633"><ele>855.3333333333333</ele><time>2026-04-18T11:24:23.26Z</time></trkpt><trkpt lat="43.0103583" lon="13.2600633"><ele>852.0</ele><time>2026-04-18T11:24:24.261Z</time></trkpt><trkpt lat="43.0101833" lon="13.2600483"><ele>852.0</ele><time>2026-04-18T11:24:25.261Z</time></trkpt><trkpt lat="43.01" lon="13.2600083"><ele>852.0</ele><time>2026-04-18T11:24:26.261Z</time></trkpt><trkpt lat="43.009815" lon="13.259965"><ele>852.0</ele><time>2026-04-18T11:24:27.261Z</time></trkpt><trkpt lat="43.00963" lon="13.2599233"><ele>848.3333333333333</ele><time>2026-04-18T11:24:28.261Z</time></trkpt><trkpt lat="43.0094483" lon="13.2598917"><ele>844.6666666666666</ele><time>2026-04-18T11:24:29.261Z</time></trkpt><trkpt lat="43.00927" lon="13.25989"><ele>841.0</ele><time>2026-04-18T11:24:30.261Z</time></trkpt><trkpt lat="43.0091" lon="13.2599117"><ele>836.3333333333333</ele><time>2026-04-18T11:24:31.261Z</time></trkpt><trkpt lat="43.0089367" lon="13.2599467"><ele>831.6666666666667</ele><time>2026-04-18T11:24:32.261Z</time></trkpt><trkpt lat="43.00878" lon="13.25996"><ele>827.0</ele><time>2026-04-18T11:24:33.261Z</time></trkpt><trkpt lat="43.0086233" lon="13.2599483"><ele>827.0</ele><time>2026-04-18T11:24:34.261Z</time></trkpt><trkpt lat="43.0084783" lon="13.259895"><ele>827.0</ele><time>2026-04-18T11:24:35.261Z</time></trkpt><trkpt lat="43.00835" lon="13.2598033"><ele>827.0</ele><time>2026-04-18T11:24:36.261Z</time></trkpt><trkpt lat="43.008225" lon="13.25969"><ele>827.0</ele><time>2026-04-18T11:24:37.261Z</time></trkpt><trkpt lat="43.0081017" lon="13.2595917"><ele>834.0</ele><time>2026-04-18T11:24:38.261Z</time></trkpt><trkpt lat="43.0079583" lon="13.2595383"><ele>841.0</ele><time>2026-04-18T11:24:39.261Z</time></trkpt><trkpt lat="43.00782" lon="13.259545"><ele>848.0</ele><time>2026-04-18T11:24:40.261Z</time></trkpt><trkpt lat="43.0076683" lon="13.2595833"><ele>855.0</ele><time>2026-04-18T11:24:41.26Z</time></trkpt><trkpt lat="43.0075133" lon="13.2596433"><ele>850.0</ele><time>2026-04-18T11:24:42.261Z</time></trkpt><trkpt lat="43.0073617" lon="13.2597117"><ele>845.0</ele><time>2026-04-18T11:24:43.261Z</time></trkpt><trkpt lat="43.0072117" lon="13.2598017"><ele>840.0</ele><time>2026-04-18T11:24:44.261Z</time></trkpt><trkpt lat="43.0070683" lon="13.2598883"><ele>833.3333333333333</ele><time>2026-04-18T11:24:45.261Z</time></trkpt><trkpt lat="43.006925" lon="13.259945"><ele>826.6666666666666</ele><time>2026-04-18T11:24:46.261Z</time></trkpt><trkpt lat="43.00677" lon="13.2599367"><ele>820.0</ele><time>2026-04-18T11:24:47.261Z</time></trkpt><trkpt lat="43.006625" lon="13.2598867"><ele>818.0</ele><time>2026-04-18T11:24:48.26Z</time></trkpt><trkpt lat="43.0064817" lon="13.259855"><ele>816.0</ele><time>2026-04-18T11:24:49.26Z</time></trkpt><trkpt lat="43.0063433" lon="13.2598133"><ele>814.0</ele><time>2026-04-18T11:24:50.261Z</time></trkpt><trkpt lat="43.0062133" lon="13.2597717"><ele>812.0</ele><time>2026-04-18T11:24:51.261Z</time></trkpt><trkpt lat="43.0060917" lon="13.2596983"><ele>812.0</ele><time>2026-04-18T11:24:52.261Z</time></trkpt><trkpt lat="43.0059817" lon="13.2596"><ele>812.0</ele><time>2026-04-18T11:24:53.261Z</time></trkpt><trkpt lat="43.0058967" lon="13.25946"><ele>812.0</ele><time>2026-04-18T11:24:54.261Z</time></trkpt><trkpt lat="43.0058333" lon="13.2592883"><ele>812.0</ele><time>2026-04-18T11:24:55.261Z</time></trkpt><trkpt lat="43.005775" lon="13.2591033"><ele>804.5</ele><time>2026-04-18T11:24:56.261Z</time></trkpt><trkpt lat="43.0057217" lon="13.2589067"><ele>797.0</ele><time>2026-04-18T11:24:57.261Z</time></trkpt><trkpt lat="43.0056667" lon="13.2587183"><ele>789.5</ele><time>2026-04-18T11:24:58.261Z</time></trkpt><trkpt lat="43.00562" lon="13.2585317"><ele>782.0</ele><time>2026-04-18T11:24:59.261Z</time></trkpt><trkpt lat="43.005585" lon="13.2583483"><ele>782.0</ele><time>2026-04-18T11:25:00.261Z</time></trkpt><trkpt lat="43.0055717" lon="13.25817"><ele>782.0</ele><time>2026-04-18T11:25:01.261Z</time></trkpt><trkpt lat="43.0055767" lon="13.2579967"><ele>782.0</ele><time>2026-04-18T11:25:02.261Z</time></trkpt><trkpt lat="43.0055967" lon="13.2578333"><ele>782.0</ele><time>2026-04-18T11:25:03.261Z</time></trkpt><trkpt lat="43.0056167" lon="13.2576767"><ele>781.8</ele><time>2026-04-18T11:25:04.261Z</time></trkpt><trkpt lat="43.0055983" lon="13.2575283"><ele>781.6</ele><time>2026-04-18T11:25:05.26Z</time></trkpt><trkpt lat="43.005545" lon="13.257415"><ele>781.4</ele><time>2026-04-18T11:25:06.261Z</time></trkpt><trkpt lat="43.00546" lon="13.257345"><ele>781.1999999999999</ele><time>2026-04-18T11:25:07.261Z</time></trkpt><trkpt lat="43.0053633" lon="13.2573533"><ele>781.0</ele><time>2026-04-18T11:25:08.261Z</time></trkpt><trkpt lat="43.0052833" lon="13.2574467"><ele>781.0</ele><time>2026-04-18T11:25:09.261Z</time></trkpt><trkpt lat="43.00524" lon="13.257605"><ele>781.0</ele><time>2026-04-18T11:25:10.261Z</time></trkpt><trkpt lat="43.005235" lon="13.2578"><ele>781.0</ele><time>2026-04-18T11:25:11.261Z</time></trkpt><trkpt lat="43.00526" lon="13.258065"><ele>781.3333333333333</ele><time>2026-04-18T11:25:12.26Z</time></trkpt><trkpt lat="43.00528" lon="13.2583017"><ele>781.6666666666667</ele><time>2026-04-18T11:25:13.261Z</time></trkpt><trkpt lat="43.0052733" lon="13.258525"><ele>782.0</ele><time>2026-04-18T11:25:14.261Z</time></trkpt><trkpt lat="43.0052533" lon="13.2587417"><ele>782.6666666666667</ele><time>2026-04-18T11:25:15.261Z</time></trkpt><trkpt lat="43.0052383" lon="13.2589617"><ele>783.3333333333333</ele><time>2026-04-18T11:25:16.261Z</time></trkpt><trkpt lat="43.00525" lon="13.2591783"><ele>784.0</ele><time>2026-04-18T11:25:17.261Z</time></trkpt><trkpt lat="43.0052783" lon="13.2593917"><ele>784.0</ele><time>2026-04-18T11:25:18.261Z</time></trkpt><trkpt lat="43.00533" lon="13.2595917"><ele>784.0</ele><time>2026-04-18T11:25:19.261Z</time></trkpt><trkpt lat="43.0053867" lon="13.2597883"><ele>784.0</ele><time>2026-04-18T11:25:20.261Z</time></trkpt><trkpt lat="43.005445" lon="13.2599867"><ele>781.3333333333333</ele><time>2026-04-18T11:25:21.261Z</time></trkpt><trkpt lat="43.0055017" lon="13.26019"><ele>778.6666666666667</ele><time>2026-04-18T11:25:22.261Z</time></trkpt><trkpt lat="43.0055567" lon="13.26039"><ele>776.0</ele><time>2026-04-18T11:25:23.261Z</time></trkpt><trkpt lat="43.0056033" lon="13.26059"><ele>778.25</ele><time>2026-04-18T11:25:24.261Z</time></trkpt><trkpt lat="43.0056483" lon="13.26077"><ele>780.5</ele><time>2026-04-18T11:25:25.261Z</time></trkpt><trkpt lat="43.00569" lon="13.2609433"><ele>782.75</ele><time>2026-04-18T11:25:26.261Z</time></trkpt><trkpt lat="43.0057567" lon="13.26109"><ele>785.0</ele><time>2026-04-18T11:25:27.261Z</time></trkpt><trkpt lat="43.0058483" lon="13.2612017"><ele>785.0</ele><time>2026-04-18T11:25:28.261Z</time></trkpt><trkpt lat="43.0059717" lon="13.2612633"><ele>785.0</ele><time>2026-04-18T11:25:29.261Z</time></trkpt><trkpt lat="43.0061117" lon="13.2612917"><ele>785.0</ele><time>2026-04-18T11:25:30.261Z</time></trkpt><trkpt lat="43.0062483" lon="13.26128"><ele>785.0</ele><time>2026-04-18T11:25:31.261Z</time></trkpt><trkpt lat="43.0063967" lon="13.2612283"><ele>785.0</ele><time>2026-04-18T11:25:32.261Z</time></trkpt><trkpt lat="43.006545" lon="13.2611683"><ele>785.0</ele><time>2026-04-18T11:25:33.261Z</time></trkpt><trkpt lat="43.00669" lon="13.2611133"><ele>785.0</ele><time>2026-04-18T11:25:34.261Z</time></trkpt><trkpt lat="43.0068283" lon="13.2611"><ele>785.0</ele><time>2026-04-18T11:25:35.261Z</time></trkpt><trkpt lat="43.0069617" lon="13.2611233"><ele>786.5</ele><time>2026-04-18T11:25:36.261Z</time></trkpt><trkpt lat="43.0070883" lon="13.2611967"><ele>788.0</ele><time>2026-04-18T11:25:37.261Z</time></trkpt><trkpt lat="43.0072017" lon="13.2613167"><ele>789.5</ele><time>2026-04-18T11:25:38.261Z</time></trkpt><trkpt lat="43.0073" lon="13.2614567"><ele>791.0</ele><time>2026-04-18T11:25:39.26Z</time></trkpt><trkpt lat="43.007405" lon="13.2615917"><ele>783.75</ele><time>2026-04-18T11:25:40.261Z</time></trkpt><trkpt lat="43.007505" lon="13.2617233"><ele>776.5</ele><time>2026-04-18T11:25:41.261Z</time></trkpt><trkpt lat="43.0076033" lon="13.2618717"><ele>769.25</ele><time>2026-04-18T11:25:42.261Z</time></trkpt><trkpt lat="43.0076883" lon="13.2620117"><ele>762.0</ele><time>2026-04-18T11:25:43.26Z</time></trkpt><trkpt lat="43.007765" lon="13.26217"><ele>756.25</ele><time>2026-04-18T11:25:44.261Z</time></trkpt><trkpt lat="43.0078433" lon="13.2623167"><ele>750.5</ele><time>2026-04-18T11:25:45.261Z</time></trkpt><trkpt lat="43.0079367" lon="13.262435"><ele>744.75</ele><time>2026-04-18T11:25:46.261Z</time></trkpt><trkpt lat="43.0080517" lon="13.2625283"><ele>739.0</ele><time>2026-04-18T11:25:47.26Z</time></trkpt><trkpt lat="43.0081733" lon="13.2626117"><ele>739.0</ele><time>2026-04-18T11:25:48.261Z</time></trkpt><trkpt lat="43.0082867" lon="13.262705"><ele>739.0</ele><time>2026-04-18T11:25:49.261Z</time></trkpt><trkpt lat="43.0083933" lon="13.2628067"><ele>739.0</ele><time>2026-04-18T11:25:50.261Z</time></trkpt><trkpt lat="43.008475" lon="13.26294"><ele>739.0</ele><time>2026-04-18T11:25:51.26Z</time></trkpt><trkpt lat="43.0085433" lon="13.2630633"><ele>736.75</ele><time>2026-04-18T11:25:52.261Z</time></trkpt><trkpt lat="43.0086217" lon="13.2631617"><ele>734.5</ele><time>2026-04-18T11:25:53.261Z</time></trkpt><trkpt lat="43.00873" lon="13.263225"><ele>732.25</ele><time>2026-04-18T11:25:54.261Z</time></trkpt><trkpt lat="43.008875" lon="13.263275"><ele>730.0</ele><time>2026-04-18T11:25:55.261Z</time></trkpt><trkpt lat="43.00902" lon="13.2633283"><ele>733.3333333333334</ele><time>2026-04-18T11:25:56.261Z</time></trkpt><trkpt lat="43.0091733" lon="13.2633933"><ele>736.6666666666666</ele><time>2026-04-18T11:25:57.261Z</time></trkpt><trkpt lat="43.0093267" lon="13.2634517"><ele>740.0</ele><time>2026-04-18T11:25:58.261Z</time></trkpt><trkpt lat="43.0094783" lon="13.26352"><ele>740.0</ele><time>2026-04-18T11:25:59.261Z</time></trkpt><trkpt lat="43.0096183" lon="13.2635867"><ele>740.0</ele><time>2026-04-18T11:26:00.261Z</time></trkpt><trkpt lat="43.00975" lon="13.2636617"><ele>740.0</ele><time>2026-04-18T11:26:01.261Z</time></trkpt><trkpt lat="43.0098833" lon="13.2637317"><ele>740.0</ele><time>2026-04-18T11:26:02.261Z</time></trkpt><trkpt lat="43.0100167" lon="13.263805"><ele>741.6666666666666</ele><time>2026-04-18T11:26:03.261Z</time></trkpt><trkpt lat="43.010165" lon="13.2638667"><ele>743.3333333333334</ele><time>2026-04-18T11:26:04.261Z</time></trkpt><trkpt lat="43.0103167" lon="13.2639033"><ele>745.0</ele><time>2026-04-18T11:26:05.261Z</time></trkpt><trkpt lat="43.0104783" lon="13.263885"><ele>745.0</ele><time>2026-04-18T11:26:06.261Z</time></trkpt><trkpt lat="43.0106183" lon="13.2638467"><ele>745.0</ele><time>2026-04-18T11:26:07.261Z</time></trkpt><trkpt lat="43.0107783" lon="13.2637633"><ele>745.0</ele><time>2026-04-18T11:26:08.261Z</time></trkpt><trkpt lat="43.0109483" lon="13.263715"><ele>742.6666666666667</ele><time>2026-04-18T11:26:09.261Z</time></trkpt><trkpt lat="43.0111267" lon="13.263715"><ele>740.3333333333334</ele><time>2026-04-18T11:26:10.261Z</time></trkpt><trkpt lat="43.0112783" lon="13.263735"><ele>738.0</ele><time>2026-04-18T11:26:11.261Z</time></trkpt><trkpt lat="43.011405" lon="13.263755"><ele>738.0</ele><time>2026-04-18T11:26:12.261Z</time></trkpt><trkpt lat="43.0115183" lon="13.2637783"><ele>738.0</ele><time>2026-04-18T11:26:13.261Z</time></trkpt><trkpt lat="43.01162" lon="13.2638367"><ele>738.0</ele><time>2026-04-18T11:26:14.261Z</time></trkpt><trkpt lat="43.0117017" lon="13.2639283"><ele>738.0</ele><time>2026-04-18T11:26:15.261Z</time></trkpt><trkpt lat="43.0117633" lon="13.2640633"><ele>738.0</ele><time>2026-04-18T11:26:16.261Z</time></trkpt><trkpt lat="43.0118017" lon="13.2642183"><ele>732.75</ele><time>2026-04-18T11:26:17.261Z</time></trkpt><trkpt lat="43.01182" lon="13.2643767"><ele>727.5</ele><time>2026-04-18T11:26:18.261Z</time></trkpt><trkpt lat="43.0118117" lon="13.2645367"><ele>722.25</ele><time>2026-04-18T11:26:19.261Z</time></trkpt><trkpt lat="43.0117817" lon="13.26468"><ele>717.0</ele><time>2026-04-18T11:26:20.261Z</time></trkpt><trkpt lat="43.0117183" lon="13.2648133"><ele>710.75</ele><time>2026-04-18T11:26:21.261Z</time></trkpt><trkpt lat="43.011645" lon="13.2649533"><ele>704.5</ele><time>2026-04-18T11:26:22.261Z</time></trkpt><trkpt lat="43.0115667" lon="13.2651"><ele>698.25</ele><time>2026-04-18T11:26:23.261Z</time></trkpt><trkpt lat="43.0114883" lon="13.2652567"><ele>692.0</ele><time>2026-04-18T11:26:24.261Z</time></trkpt><trkpt lat="43.0114217" lon="13.2654267"><ele>692.0</ele><time>2026-04-18T11:26:25.26Z</time></trkpt><trkpt lat="43.01136" lon="13.2656083"><ele>692.0</ele><time>2026-04-18T11:26:26.261Z</time></trkpt><trkpt lat="43.0113133" lon="13.2657917"><ele>692.0</ele><time>2026-04-18T11:26:27.261Z</time></trkpt><trkpt lat="43.0112667" lon="13.2659867"><ele>692.0</ele><time>2026-04-18T11:26:28.261Z</time></trkpt><trkpt lat="43.0112017" lon="13.266175"><ele>691.3333333333333</ele><time>2026-04-18T11:26:29.261Z</time></trkpt><trkpt lat="43.0111183" lon="13.26635"><ele>690.6666666666666</ele><time>2026-04-18T11:26:30.261Z</time></trkpt><trkpt lat="43.0110333" lon="13.2665183"><ele>690.0</ele><time>2026-04-18T11:26:31.261Z</time></trkpt><trkpt lat="43.0109433" lon="13.26668"><ele>691.5</ele><time>2026-04-18T11:26:32.261Z</time></trkpt><trkpt lat="43.01086" lon="13.2668367"><ele>693.0</ele><time>2026-04-18T11:26:33.261Z</time></trkpt><trkpt lat="43.0107717" lon="13.2669767"><ele>694.5</ele><time>2026-04-18T11:26:34.261Z</time></trkpt><trkpt lat="43.0107" lon="13.2671233"><ele>696.0</ele><time>2026-04-18T11:26:35.261Z</time></trkpt><trkpt lat="43.0106417" lon="13.2672733"><ele>695.75</ele><time>2026-04-18T11:26:36.261Z</time></trkpt><trkpt lat="43.0106283" lon="13.2674483"><ele>695.5</ele><time>2026-04-18T11:26:37.261Z</time></trkpt><trkpt lat="43.0106717" lon="13.2676217"><ele>695.25</ele><time>2026-04-18T11:26:38.261Z</time></trkpt><trkpt lat="43.0107517" lon="13.2677567"><ele>695.0</ele><time>2026-04-18T11:26:39.261Z</time></trkpt><trkpt lat="43.0108683" lon="13.2678383"><ele>695.0</ele><time>2026-04-18T11:26:40.261Z</time></trkpt><trkpt lat="43.011015" lon="13.267875"><ele>695.0</ele><time>2026-04-18T11:26:41.261Z</time></trkpt><trkpt lat="43.0111717" lon="13.26788"><ele>695.0</ele><time>2026-04-18T11:26:42.261Z</time></trkpt><trkpt lat="43.0113283" lon="13.267855"><ele>695.0</ele><time>2026-04-18T11:26:43.261Z</time></trkpt><trkpt lat="43.0114733" lon="13.2678417"><ele>695.0</ele><time>2026-04-18T11:26:44.261Z</time></trkpt><trkpt lat="43.0116033" lon="13.267885"><ele>695.0</ele><time>2026-04-18T11:26:45.261Z</time></trkpt><trkpt lat="43.0117067" lon="13.2679867"><ele>695.0</ele><time>2026-04-18T11:26:46.261Z</time></trkpt><trkpt lat="43.0117883" lon="13.2681367"><ele>692.3333333333333</ele><time>2026-04-18T11:26:47.261Z</time></trkpt><trkpt lat="43.011845" lon="13.2683267"><ele>689.6666666666666</ele><time>2026-04-18T11:26:48.261Z</time></trkpt><trkpt lat="43.0118917" lon="13.2685283"><ele>687.0</ele><time>2026-04-18T11:26:49.261Z</time></trkpt><trkpt lat="43.0119317" lon="13.2687267"><ele>687.0</ele><time>2026-04-18T11:26:50.261Z</time></trkpt><trkpt lat="43.01198" lon="13.2689017"><ele>687.0</ele><time>2026-04-18T11:26:51.261Z</time></trkpt><trkpt lat="43.0120633" lon="13.2690417"><ele>687.0</ele><time>2026-04-18T11:26:52.261Z</time></trkpt><trkpt lat="43.0121733" lon="13.2691683"><ele>687.0</ele><time>2026-04-18T11:26:53.261Z</time></trkpt><trkpt lat="43.0122933" lon="13.2692967"><ele>683.25</ele><time>2026-04-18T11:26:54.261Z</time></trkpt><trkpt lat="43.01239" lon="13.2694483"><ele>679.5</ele><time>2026-04-18T11:26:55.261Z</time></trkpt><trkpt lat="43.0124467" lon="13.2696283"><ele>675.75</ele><time>2026-04-18T11:26:56.261Z</time></trkpt><trkpt lat="43.0124667" lon="13.269805"><ele>672.0</ele><time>2026-04-18T11:26:57.261Z</time></trkpt><trkpt lat="43.012465" lon="13.269985"><ele>673.75</ele><time>2026-04-18T11:26:58.261Z</time></trkpt><trkpt lat="43.0124617" lon="13.2701467"><ele>675.5</ele><time>2026-04-18T11:26:59.261Z</time></trkpt><trkpt lat="43.012495" lon="13.27029"><ele>677.25</ele><time>2026-04-18T11:27:00.261Z</time></trkpt><trkpt lat="43.0125717" lon="13.2704183"><ele>679.0</ele><time>2026-04-18T11:27:01.261Z</time></trkpt><trkpt lat="43.012655" lon="13.27056"><ele>676.0</ele><time>2026-04-18T11:27:02.261Z</time></trkpt><trkpt lat="43.0127333" lon="13.2707183"><ele>673.0</ele><time>2026-04-18T11:27:03.261Z</time></trkpt><trkpt lat="43.0127633" lon="13.2709033"><ele>670.0</ele><time>2026-04-18T11:27:04.261Z</time></trkpt><trkpt lat="43.01275" lon="13.2710883"><ele>667.0</ele><time>2026-04-18T11:27:05.261Z</time></trkpt><trkpt lat="43.0127283" lon="13.2712717"><ele>667.0</ele><time>2026-04-18T11:27:06.26Z</time></trkpt><trkpt lat="43.012705" lon="13.2714383"><ele>667.0</ele><time>2026-04-18T11:27:07.261Z</time></trkpt><trkpt lat="43.0127017" lon="13.2715967"><ele>667.0</ele><time>2026-04-18T11:27:08.261Z</time></trkpt><trkpt lat="43.0127367" lon="13.2717283"><ele>667.0</ele><time>2026-04-18T11:27:09.261Z</time></trkpt><trkpt lat="43.0128167" lon="13.27183"><ele>664.75</ele><time>2026-04-18T11:27:10.261Z</time></trkpt><trkpt lat="43.012915" lon="13.2719"><ele>662.5</ele><time>2026-04-18T11:27:11.261Z</time></trkpt><trkpt lat="43.0130167" lon="13.2719683"><ele>660.25</ele><time>2026-04-18T11:27:12.261Z</time></trkpt><trkpt lat="43.0130967" lon="13.27208"><ele>658.0</ele><time>2026-04-18T11:27:13.261Z</time></trkpt><trkpt lat="43.0131567" lon="13.2722283"><ele>654.0</ele><time>2026-04-18T11:27:14.261Z</time></trkpt><trkpt lat="43.0131767" lon="13.2724133"><ele>650.0</ele><time>2026-04-18T11:27:15.261Z</time></trkpt><trkpt lat="43.0131717" lon="13.2726033"><ele>646.0</ele><time>2026-04-18T11:27:16.261Z</time></trkpt><trkpt lat="43.0131317" lon="13.272785"><ele>642.0</ele><time>2026-04-18T11:27:17.261Z</time></trkpt><trkpt lat="43.0130683" lon="13.272955"><ele>640.5</ele><time>2026-04-18T11:27:18.261Z</time></trkpt><trkpt lat="43.01302" lon="13.2731133"><ele>639.0</ele><time>2026-04-18T11:27:19.261Z</time></trkpt><trkpt lat="43.0130033" lon="13.273265"><ele>637.5</ele><time>2026-04-18T11:27:20.261Z</time></trkpt><trkpt lat="43.01302" lon="13.2734333"><ele>636.0</ele><time>2026-04-18T11:27:21.261Z</time></trkpt><trkpt lat="43.0130633" lon="13.2736167"><ele>636.0</ele><time>2026-04-18T11:27:22.261Z</time></trkpt><trkpt lat="43.0131183" lon="13.2737883"><ele>636.0</ele><time>2026-04-18T11:27:23.261Z</time></trkpt><trkpt lat="43.0131617" lon="13.2739483"><ele>636.0</ele><time>2026-04-18T11:27:24.261Z</time></trkpt><trkpt lat="43.013175" lon="13.274095"><ele>636.0</ele><time>2026-04-18T11:27:25.261Z</time></trkpt><trkpt lat="43.013155" lon="13.274235"><ele>635.4</ele><time>2026-04-18T11:27:26.26Z</time></trkpt><trkpt lat="43.0130967" lon="13.2743417"><ele>634.8</ele><time>2026-04-18T11:27:27.261Z</time></trkpt><trkpt lat="43.0130167" lon="13.274405"><ele>634.1999999999999</ele><time>2026-04-18T11:27:28.261Z</time></trkpt><trkpt lat="43.0129233" lon="13.2744467"><ele>633.6</ele><time>2026-04-18T11:27:29.261Z</time></trkpt><trkpt lat="43.01283" lon="13.2744867"><ele>633.0</ele><time>2026-04-18T11:27:30.261Z</time></trkpt><trkpt lat="43.01275" lon="13.2745567"><ele>633.0</ele><time>2026-04-18T11:27:31.261Z</time></trkpt><trkpt lat="43.012715" lon="13.2746517"><ele>633.0</ele><time>2026-04-18T11:27:32.261Z</time></trkpt><trkpt lat="43.0127333" lon="13.27477"><ele>633.0</ele><time>2026-04-18T11:27:33.261Z</time></trkpt><trkpt lat="43.0127967" lon="13.2748567"><ele>633.0</ele><time>2026-04-18T11:27:34.261Z</time></trkpt><trkpt lat="43.0128817" lon="13.274935"><ele>633.0</ele><time>2026-04-18T11:27:35.261Z</time></trkpt><trkpt lat="43.012985" lon="13.2750017"><ele>631.75</ele><time>2026-04-18T11:27:36.261Z</time></trkpt><trkpt lat="43.01307" lon="13.2751017"><ele>630.5</ele><time>2026-04-18T11:27:37.261Z</time></trkpt><trkpt lat="43.0131233" lon="13.2752417"><ele>629.25</ele><time>2026-04-18T11:27:38.261Z</time></trkpt><trkpt lat="43.0131483" lon="13.2754067"><ele>628.0</ele><time>2026-04-18T11:27:39.261Z</time></trkpt><trkpt lat="43.0131383" lon="13.27557"><ele>625.75</ele><time>2026-04-18T11:27:40.261Z</time></trkpt><trkpt lat="43.0131" lon="13.2757233"><ele>623.5</ele><time>2026-04-18T11:27:41.261Z</time></trkpt><trkpt lat="43.01304" lon="13.275865"><ele>621.25</ele><time>2026-04-18T11:27:42.261Z</time></trkpt><trkpt lat="43.0129583" lon="13.2760067"><ele>619.0</ele><time>2026-04-18T11:27:43.261Z</time></trkpt><trkpt lat="43.012875" lon="13.2761517"><ele>619.0</ele><time>2026-04-18T11:27:44.261Z</time></trkpt><trkpt lat="43.0127933" lon="13.2763017"><ele>619.0</ele><time>2026-04-18T11:27:45.261Z</time></trkpt><trkpt lat="43.0127217" lon="13.276445"><ele>619.0</ele><time>2026-04-18T11:27:46.261Z</time></trkpt><trkpt lat="43.01265" lon="13.276575"><ele>619.0</ele><time>2026-04-18T11:27:47.261Z</time></trkpt><trkpt lat="43.0125917" lon="13.2766967"><ele>620.0</ele><time>2026-04-18T11:27:48.261Z</time></trkpt><trkpt lat="43.0125433" lon="13.2768"><ele>621.0</ele><time>2026-04-18T11:27:49.261Z</time></trkpt><trkpt lat="43.0125183" lon="13.2769083"><ele>622.0</ele><time>2026-04-18T11:27:50.261Z</time></trkpt><trkpt lat="43.0125217" lon="13.2770283"><ele>623.0</ele><time>2026-04-18T11:27:51.26Z</time></trkpt><trkpt lat="43.0125467" lon="13.2771433"><ele>624.0</ele><time>2026-04-18T11:27:52.261Z</time></trkpt><trkpt lat="43.01259" lon="13.2772433"><ele>625.0</ele><time>2026-04-18T11:27:53.261Z</time></trkpt><trkpt lat="43.012655" lon="13.2773233"><ele>625.0</ele><time>2026-04-18T11:27:54.261Z</time></trkpt><trkpt lat="43.0127333" lon="13.2773617"><ele>625.0</ele><time>2026-04-18T11:27:55.261Z</time></trkpt><trkpt lat="43.0128317" lon="13.277345"><ele>625.0</ele><time>2026-04-18T11:27:56.261Z</time></trkpt><trkpt lat="43.0129433" lon="13.277295"><ele>625.0</ele><time>2026-04-18T11:27:57.261Z</time></trkpt><trkpt lat="43.01306" lon="13.2772267"><ele>625.0</ele><time>2026-04-18T11:27:58.261Z</time></trkpt><trkpt lat="43.0131733" lon="13.277165"><ele>625.1666666666667</ele><time>2026-04-18T11:27:59.261Z</time></trkpt><trkpt lat="43.0132567" lon="13.2771233"><ele>625.3333333333334</ele><time>2026-04-18T11:28:00.261Z</time></trkpt><trkpt lat="43.0133233" lon="13.2771017"><ele>625.5</ele><time>2026-04-18T11:28:01.261Z</time></trkpt><trkpt lat="43.0134417" lon="13.2770833"><ele>625.6666666666666</ele><time>2026-04-18T11:28:03.261Z</time></trkpt><trkpt lat="43.013505" lon="13.2770633"><ele>625.8333333333333</ele><time>2026-04-18T11:28:04.261Z</time></trkpt><trkpt lat="43.0135967" lon="13.27703"><ele>626.0</ele><time>2026-04-18T11:28:06.261Z</time></trkpt><trkpt lat="43.0136767" lon="13.2770133"><ele>626.5</ele><time>2026-04-18T11:28:08.261Z</time></trkpt><trkpt lat="43.01375" lon="13.2770167"><ele>627.0</ele><time>2026-04-18T11:28:11.261Z</time></trkpt><trkpt lat="43.01383" lon="13.277005"><ele>627.5</ele><time>2026-04-18T11:28:14.261Z</time></trkpt><trkpt lat="43.0139067" lon="13.27698"><ele>628.0</ele><time>2026-04-18T11:30:01.261Z</time></trkpt><trkpt lat="43.0140133" lon="13.2769367"><ele>628.5</ele><time>2026-04-18T11:30:03.261Z</time></trkpt><trkpt lat="43.0140817" lon="13.2769217"><ele>629.0</ele><time>2026-04-18T11:30:04.26Z</time></trkpt><trkpt lat="43.0141683" lon="13.2769"><ele>626.25</ele><time>2026-04-18T11:30:05.261Z</time></trkpt><trkpt lat="43.01428" lon="13.2768583"><ele>623.5</ele><time>2026-04-18T11:30:06.261Z</time></trkpt><trkpt lat="43.0144017" lon="13.27682"><ele>620.75</ele><time>2026-04-18T11:30:07.261Z</time></trkpt><trkpt lat="43.0145367" lon="13.2767917"><ele>618.0</ele><time>2026-04-18T11:30:08.261Z</time></trkpt><trkpt lat="43.0146783" lon="13.2767533"><ele>618.0</ele><time>2026-04-18T11:30:09.261Z</time></trkpt><trkpt lat="43.0148267" lon="13.2766917"><ele>618.0</ele><time>2026-04-18T11:30:10.261Z</time></trkpt><trkpt lat="43.0149733" lon="13.276605"><ele>618.0</ele><time>2026-04-18T11:30:11.261Z</time></trkpt><trkpt lat="43.0151233" lon="13.27649"><ele>617.6666666666666</ele><time>2026-04-18T11:30:12.261Z</time></trkpt><trkpt lat="43.0152667" lon="13.2763633"><ele>617.3333333333333</ele><time>2026-04-18T11:30:13.261Z</time></trkpt><trkpt lat="43.0154" lon="13.2762367"><ele>617.0</ele><time>2026-04-18T11:30:14.261Z</time></trkpt><trkpt lat="43.015535" lon="13.2761133"><ele>617.0</ele><time>2026-04-18T11:30:15.261Z</time></trkpt><trkpt lat="43.015675" lon="13.2760183"><ele>617.0</ele><time>2026-04-18T11:30:16.261Z</time></trkpt><trkpt lat="43.01581" lon="13.2759517"><ele>617.0</ele><time>2026-04-18T11:30:17.261Z</time></trkpt><trkpt lat="43.015945" lon="13.2759017"><ele>617.0</ele><time>2026-04-18T11:30:18.261Z</time></trkpt><trkpt lat="43.0160983" lon="13.2758717"><ele>612.0</ele><time>2026-04-18T11:30:19.261Z</time></trkpt><trkpt lat="43.016255" lon="13.275845"><ele>607.0</ele><time>2026-04-18T11:30:20.261Z</time></trkpt><trkpt lat="43.01642" lon="13.2758283"><ele>602.0</ele><time>2026-04-18T11:30:21.261Z</time></trkpt><trkpt lat="43.0165933" lon="13.275825"><ele>599.6666666666666</ele><time>2026-04-18T11:30:22.261Z</time></trkpt><trkpt lat="43.016755" lon="13.27585"><ele>597.3333333333334</ele><time>2026-04-18T11:30:23.261Z</time></trkpt><trkpt lat="43.0169133" lon="13.2758917"><ele>595.0</ele><time>2026-04-18T11:30:24.261Z</time></trkpt><trkpt lat="43.017055" lon="13.2759667"><ele>595.0</ele><time>2026-04-18T11:30:25.261Z</time></trkpt><trkpt lat="43.0171933" lon="13.2760367"><ele>595.0</ele><time>2026-04-18T11:30:26.261Z</time></trkpt><trkpt lat="43.01733" lon="13.2761167"><ele>595.0</ele><time>2026-04-18T11:30:27.261Z</time></trkpt><trkpt lat="43.0174667" lon="13.27619"><ele>595.0</ele><time>2026-04-18T11:30:28.261Z</time></trkpt><trkpt lat="43.0176117" lon="13.2762467"><ele>593.0</ele><time>2026-04-18T11:30:29.261Z</time></trkpt><trkpt lat="43.0177583" lon="13.276295"><ele>591.0</ele><time>2026-04-18T11:30:30.261Z</time></trkpt><trkpt lat="43.0179117" lon="13.2763067"><ele>589.0</ele><time>2026-04-18T11:30:31.261Z</time></trkpt><trkpt lat="43.01806" lon="13.2762617"><ele>589.0</ele><time>2026-04-18T11:30:32.261Z</time></trkpt><trkpt lat="43.0182017" lon="13.27617"><ele>589.0</ele><time>2026-04-18T11:30:33.261Z</time></trkpt><trkpt lat="43.0183383" lon="13.2760517"><ele>589.0</ele><time>2026-04-18T11:30:34.261Z</time></trkpt><trkpt lat="43.0184667" lon="13.2759283"><ele>588.25</ele><time>2026-04-18T11:30:35.261Z</time></trkpt><trkpt lat="43.01859" lon="13.2758117"><ele>587.5</ele><time>2026-04-18T11:30:36.261Z</time></trkpt><trkpt lat="43.0187033" lon="13.2757067"><ele>586.75</ele><time>2026-04-18T11:30:37.261Z</time></trkpt><trkpt lat="43.018805" lon="13.2756167"><ele>586.0</ele><time>2026-04-18T11:30:38.261Z</time></trkpt><trkpt lat="43.018905" lon="13.275555"><ele>586.0</ele><time>2026-04-18T11:30:39.261Z</time></trkpt><trkpt lat="43.0190117" lon="13.275545"><ele>586.0</ele><time>2026-04-18T11:30:40.261Z</time></trkpt><trkpt lat="43.01912" lon="13.2756033"><ele>586.0</ele><time>2026-04-18T11:30:41.261Z</time></trkpt><trkpt lat="43.0192267" lon="13.2757483"><ele>586.0</ele><time>2026-04-18T11:30:42.261Z</time></trkpt><trkpt lat="43.0193383" lon="13.27595"><ele>580.0</ele><time>2026-04-18T11:30:43.261Z</time></trkpt><trkpt lat="43.0194367" lon="13.2761717"><ele>574.0</ele><time>2026-04-18T11:30:44.261Z</time></trkpt><trkpt lat="43.019525" lon="13.2763783"><ele>568.0</ele><time>2026-04-18T11:30:45.26Z</time></trkpt><trkpt lat="43.0196" lon="13.27659"><ele>566.6666666666667</ele><time>2026-04-18T11:30:46.261Z</time></trkpt><trkpt lat="43.0196417" lon="13.2768017"><ele>565.3333333333334</ele><time>2026-04-18T11:30:47.261Z</time></trkpt><trkpt lat="43.0196583" lon="13.277025"><ele>564.0</ele><time>2026-04-18T11:30:48.261Z</time></trkpt><trkpt lat="43.01966" lon="13.2772383"><ele>562.6666666666666</ele><time>2026-04-18T11:30:49.261Z</time></trkpt><trkpt lat="43.01966" lon="13.2774517"><ele>561.3333333333333</ele><time>2026-04-18T11:30:50.261Z</time></trkpt><trkpt lat="43.019655" lon="13.2776567"><ele>560.0</ele><time>2026-04-18T11:30:51.261Z</time></trkpt><trkpt lat="43.01967" lon="13.2778733"><ele>560.0</ele><time>2026-04-18T11:30:52.26Z</time></trkpt><trkpt lat="43.0196917" lon="13.2780883"><ele>560.0</ele><time>2026-04-18T11:30:53.261Z</time></trkpt><trkpt lat="43.0197367" lon="13.2783067"><ele>560.0</ele><time>2026-04-18T11:30:54.261Z</time></trkpt><trkpt lat="43.0197917" lon="13.2785"><ele>559.4</ele><time>2026-04-18T11:30:55.261Z</time></trkpt><trkpt lat="43.0198417" lon="13.27867"><ele>558.8</ele><time>2026-04-18T11:30:56.261Z</time></trkpt><trkpt lat="43.019885" lon="13.2788183"><ele>558.2</ele><time>2026-04-18T11:30:57.261Z</time></trkpt><trkpt lat="43.0199283" lon="13.2789433"><ele>557.6</ele><time>2026-04-18T11:30:58.261Z</time></trkpt><trkpt lat="43.019965" lon="13.27905"><ele>557.0</ele><time>2026-04-18T11:30:59.261Z</time></trkpt><trkpt lat="43.02" lon="13.27914"><ele>554.2</ele><time>2026-04-18T11:31:00.261Z</time></trkpt><trkpt lat="43.02006" lon="13.279235"><ele>551.4000000000001</ele><time>2026-04-18T11:31:02.261Z</time></trkpt><trkpt lat="43.0200433" lon="13.279325"><ele>548.5999999999999</ele><time>2026-04-18T11:31:05.261Z</time></trkpt><trkpt lat="43.0201017" lon="13.2793817"><ele>545.8</ele><time>2026-04-18T11:31:50.261Z</time></trkpt><trkpt lat="43.02023" lon="13.2793183"><ele>543.0</ele><time>2026-04-18T11:31:52.261Z</time></trkpt><trkpt lat="43.0203283" lon="13.279295"><ele>543.0</ele><time>2026-04-18T11:31:53.261Z</time></trkpt><trkpt lat="43.0204633" lon="13.2792667"><ele>543.0</ele><time>2026-04-18T11:31:54.261Z</time></trkpt><trkpt lat="43.0206183" lon="13.2792333"><ele>543.0</ele><time>2026-04-18T11:31:55.261Z</time></trkpt><trkpt lat="43.0207967" lon="13.27919"><ele>540.0</ele><time>2026-04-18T11:31:56.261Z</time></trkpt><trkpt lat="43.0209817" lon="13.2791783"><ele>537.0</ele><time>2026-04-18T11:31:57.261Z</time></trkpt><trkpt lat="43.0211533" lon="13.27919"><ele>534.0</ele><time>2026-04-18T11:31:58.261Z</time></trkpt><trkpt lat="43.02131" lon="13.2792367"><ele>534.0</ele><time>2026-04-18T11:31:59.261Z</time></trkpt><trkpt lat="43.0214717" lon="13.2792933"><ele>534.0</ele><time>2026-04-18T11:32:00.261Z</time></trkpt><trkpt lat="43.0216183" lon="13.2793817"><ele>534.0</ele><time>2026-04-18T11:32:01.261Z</time></trkpt><trkpt lat="43.02175" lon="13.2794917"><ele>532.75</ele><time>2026-04-18T11:32:02.261Z</time></trkpt><trkpt lat="43.0218633" lon="13.2796117"><ele>531.5</ele><time>2026-04-18T11:32:03.261Z</time></trkpt><trkpt lat="43.021965" lon="13.279745"><ele>530.25</ele><time>2026-04-18T11:32:04.261Z</time></trkpt><trkpt lat="43.0220567" lon="13.2799"><ele>529.0</ele><time>2026-04-18T11:32:05.261Z</time></trkpt><trkpt lat="43.02214" lon="13.2800633"><ele>528.6666666666667</ele><time>2026-04-18T11:32:06.261Z</time></trkpt><trkpt lat="43.0222133" lon="13.28024"><ele>528.3333333333334</ele><time>2026-04-18T11:32:07.261Z</time></trkpt><trkpt lat="43.0222817" lon="13.280425"><ele>528.0</ele><time>2026-04-18T11:32:08.261Z</time></trkpt><trkpt lat="43.02235" lon="13.280625"><ele>527.6666666666666</ele><time>2026-04-18T11:32:09.261Z</time></trkpt><trkpt lat="43.02242" lon="13.28083"><ele>527.3333333333333</ele><time>2026-04-18T11:32:10.261Z</time></trkpt><trkpt lat="43.022475" lon="13.281055"><ele>527.0</ele><time>2026-04-18T11:32:11.261Z</time></trkpt><trkpt lat="43.0225133" lon="13.2812783"><ele>525.25</ele><time>2026-04-18T11:32:12.261Z</time></trkpt><trkpt lat="43.022555" lon="13.2814967"><ele>523.5</ele><time>2026-04-18T11:32:13.261Z</time></trkpt><trkpt lat="43.0226" lon="13.2816883"><ele>521.75</ele><time>2026-04-18T11:32:14.261Z</time></trkpt><trkpt lat="43.0226567" lon="13.2818567"><ele>520.0</ele><time>2026-04-18T11:32:15.261Z</time></trkpt><trkpt lat="43.0227567" lon="13.28199"><ele>520.0</ele><time>2026-04-18T11:32:16.261Z</time></trkpt><trkpt lat="43.0228817" lon="13.2821117"><ele>520.0</ele><time>2026-04-18T11:32:17.261Z</time></trkpt><trkpt lat="43.0230217" lon="13.282225"><ele>520.0</ele><time>2026-04-18T11:32:18.261Z</time></trkpt><trkpt lat="43.0231617" lon="13.2823617"><ele>521.6666666666667</ele><time>2026-04-18T11:32:19.261Z</time></trkpt><trkpt lat="43.023275" lon="13.2825333"><ele>523.3333333333334</ele><time>2026-04-18T11:32:20.261Z</time></trkpt><trkpt lat="43.0233783" lon="13.2827267"><ele>525.0</ele><time>2026-04-18T11:32:21.261Z</time></trkpt><trkpt lat="43.0234833" lon="13.282935"><ele>522.3333333333334</ele><time>2026-04-18T11:32:22.261Z</time></trkpt><trkpt lat="43.0235833" lon="13.2831383"><ele>519.6666666666667</ele><time>2026-04-18T11:32:23.261Z</time></trkpt><trkpt lat="43.0237117" lon="13.2833183"><ele>517.0</ele><time>2026-04-18T11:32:24.261Z</time></trkpt><trkpt lat="43.02384" lon="13.2834783"><ele>517.0</ele><time>2026-04-18T11:32:25.261Z</time></trkpt><trkpt lat="43.0239567" lon="13.2836433"><ele>517.0</ele><time>2026-04-18T11:32:26.261Z</time></trkpt><trkpt lat="43.0240567" lon="13.2838217"><ele>517.0</ele><time>2026-04-18T11:32:27.261Z</time></trkpt><trkpt lat="43.0241267" lon="13.2840367"><ele>515.0</ele><time>2026-04-18T11:32:28.261Z</time></trkpt><trkpt lat="43.0241833" lon="13.2842467"><ele>513.0</ele><time>2026-04-18T11:32:29.261Z</time></trkpt><trkpt lat="43.02424" lon="13.2844533"><ele>511.0</ele><time>2026-04-18T11:32:30.261Z</time></trkpt><trkpt lat="43.024305" lon="13.2846417"><ele>510.0</ele><time>2026-04-18T11:32:31.261Z</time></trkpt><trkpt lat="43.02434" lon="13.284835"><ele>509.0</ele><time>2026-04-18T11:32:32.261Z</time></trkpt><trkpt lat="43.0243767" lon="13.2850433"><ele>508.0</ele><time>2026-04-18T11:32:33.261Z</time></trkpt><trkpt lat="43.0243983" lon="13.28527"><ele>508.0</ele><time>2026-04-18T11:32:34.261Z</time></trkpt><trkpt lat="43.02441" lon="13.2855083"><ele>508.0</ele><time>2026-04-18T11:32:35.261Z</time></trkpt><trkpt lat="43.02444" lon="13.2857533"><ele>508.0</ele><time>2026-04-18T11:32:36.261Z</time></trkpt><trkpt lat="43.02448" lon="13.2859733"><ele>507.0</ele><time>2026-04-18T11:32:37.261Z</time></trkpt><trkpt lat="43.0245" lon="13.286195"><ele>506.0</ele><time>2026-04-18T11:32:38.261Z</time></trkpt><trkpt lat="43.0245417" lon="13.2863983"><ele>505.0</ele><time>2026-04-18T11:32:39.261Z</time></trkpt><trkpt lat="43.0246083" lon="13.2865983"><ele>502.6666666666667</ele><time>2026-04-18T11:32:40.261Z</time></trkpt><trkpt lat="43.0246933" lon="13.2868067"><ele>500.33333333333337</ele><time>2026-04-18T11:32:41.261Z</time></trkpt><trkpt lat="43.0248067" lon="13.286995"><ele>498.0</ele><time>2026-04-18T11:32:42.261Z</time></trkpt><trkpt lat="43.0249267" lon="13.2871517"><ele>499.0</ele><time>2026-04-18T11:32:43.261Z</time></trkpt><trkpt lat="43.024995" lon="13.287335"><ele>500.0</ele><time>2026-04-18T11:32:44.261Z</time></trkpt><trkpt lat="43.0250433" lon="13.28754"><ele>501.0</ele><time>2026-04-18T11:32:45.261Z</time></trkpt><trkpt lat="43.0250433" lon="13.2877467"><ele>501.0</ele><time>2026-04-18T11:32:46.261Z</time></trkpt><trkpt lat="43.0250233" lon="13.2879367"><ele>501.0</ele><time>2026-04-18T11:32:47.261Z</time></trkpt><trkpt lat="43.0250117" lon="13.28812"><ele>501.0</ele><time>2026-04-18T11:32:48.261Z</time></trkpt><trkpt lat="43.0250467" lon="13.2882933"><ele>501.0</ele><time>2026-04-18T11:32:49.261Z</time></trkpt><trkpt lat="43.0251233" lon="13.28845"><ele>498.0</ele><time>2026-04-18T11:32:50.261Z</time></trkpt><trkpt lat="43.0252367" lon="13.2886083"><ele>495.0</ele><time>2026-04-18T11:32:51.261Z</time></trkpt><trkpt lat="43.0253683" lon="13.2887667"><ele>492.0</ele><time>2026-04-18T11:32:52.261Z</time></trkpt><trkpt lat="43.025505" lon="13.2889167"><ele>490.33333333333337</ele><time>2026-04-18T11:32:53.261Z</time></trkpt><trkpt lat="43.0256383" lon="13.2890533"><ele>488.6666666666667</ele><time>2026-04-18T11:32:54.26Z</time></trkpt><trkpt lat="43.0257633" lon="13.2892017"><ele>487.0</ele><time>2026-04-18T11:32:55.26Z</time></trkpt><trkpt lat="43.025875" lon="13.2893433"><ele>488.25</ele><time>2026-04-18T11:32:56.261Z</time></trkpt><trkpt lat="43.0259817" lon="13.28948"><ele>489.5</ele><time>2026-04-18T11:32:57.261Z</time></trkpt><trkpt lat="43.026085" lon="13.2896183"><ele>490.75</ele><time>2026-04-18T11:32:58.261Z</time></trkpt><trkpt lat="43.0261583" lon="13.289795"><ele>492.0</ele><time>2026-04-18T11:32:59.261Z</time></trkpt><trkpt lat="43.0262217" lon="13.2899867"><ele>492.0</ele><time>2026-04-18T11:33:00.261Z</time></trkpt><trkpt lat="43.026275" lon="13.2901567"><ele>492.00000000000006</ele><time>2026-04-18T11:33:01.26Z</time></trkpt><trkpt lat="43.02632" lon="13.290285"><ele>492.00000000000006</ele><time>2026-04-18T11:33:02.261Z</time></trkpt><trkpt lat="43.026355" lon="13.29039"><ele>492.0</ele><time>2026-04-18T11:33:03.261Z</time></trkpt><trkpt lat="43.0263767" lon="13.2904983"><ele>492.0</ele><time>2026-04-18T11:33:04.261Z</time></trkpt><trkpt lat="43.02639" lon="13.2905933"><ele>490.1666666666667</ele><time>2026-04-18T11:33:05.26Z</time></trkpt><trkpt lat="43.0264217" lon="13.2906883"><ele>488.33333333333337</ele><time>2026-04-18T11:33:06.261Z</time></trkpt><trkpt lat="43.0264517" lon="13.2907917"><ele>486.5</ele><time>2026-04-18T11:33:07.261Z</time></trkpt><trkpt lat="43.0264883" lon="13.290905"><ele>484.6666666666667</ele><time>2026-04-18T11:33:08.261Z</time></trkpt><trkpt lat="43.0265183" lon="13.291015"><ele>482.83333333333337</ele><time>2026-04-18T11:33:09.261Z</time></trkpt><trkpt lat="43.0265467" lon="13.2911183"><ele>481.0</ele><time>2026-04-18T11:33:10.26Z</time></trkpt><trkpt lat="43.0265733" lon="13.2912267"><ele>481.00000000000006</ele><time>2026-04-18T11:33:11.261Z</time></trkpt><trkpt lat="43.0265933" lon="13.2913483"><ele>481.0</ele><time>2026-04-18T11:33:12.261Z</time></trkpt><trkpt lat="43.02661" lon="13.2914683"><ele>481.0</ele><time>2026-04-18T11:33:13.261Z</time></trkpt><trkpt lat="43.026625" lon="13.2915883"><ele>481.0</ele><time>2026-04-18T11:33:14.261Z</time></trkpt><trkpt lat="43.0266283" lon="13.2916767"><ele>481.00000000000006</ele><time>2026-04-18T11:33:15.261Z</time></trkpt><trkpt lat="43.0266217" lon="13.2918333"><ele>481.0</ele><time>2026-04-18T11:33:17.261Z</time></trkpt><trkpt lat="43.0266367" lon="13.291955"><ele>481.20000000000005</ele><time>2026-04-18T11:33:19.261Z</time></trkpt><trkpt lat="43.0266667" lon="13.2920383"><ele>481.40000000000003</ele><time>2026-04-18T11:33:21.261Z</time></trkpt><trkpt lat="43.026715" lon="13.2922333"><ele>481.6</ele><time>2026-04-18T11:33:43.261Z</time></trkpt><trkpt lat="43.0267433" lon="13.292325"><ele>481.8</ele><time>2026-04-18T11:33:44.261Z</time></trkpt><trkpt lat="43.0267867" lon="13.2924267"><ele>482.0</ele><time>2026-04-18T11:33:45.261Z</time></trkpt><trkpt lat="43.0268317" lon="13.2925433"><ele>482.0</ele><time>2026-04-18T11:33:46.261Z</time></trkpt><trkpt lat="43.0268933" lon="13.292665"><ele>482.0</ele><time>2026-04-18T11:33:47.261Z</time></trkpt><trkpt lat="43.0269767" lon="13.2928067"><ele>482.0</ele><time>2026-04-18T11:33:48.261Z</time></trkpt><trkpt lat="43.027055" lon="13.2929533"><ele>482.0</ele><time>2026-04-18T11:33:49.261Z</time></trkpt><trkpt lat="43.0271433" lon="13.29313"><ele>480.66666666666663</ele><time>2026-04-18T11:33:50.261Z</time></trkpt><trkpt lat="43.0272367" lon="13.293305"><ele>479.33333333333337</ele><time>2026-04-18T11:33:51.261Z</time></trkpt><trkpt lat="43.0273417" lon="13.2934717"><ele>478.0</ele><time>2026-04-18T11:33:52.261Z</time></trkpt><trkpt lat="43.0274433" lon="13.2936317"><ele>480.0</ele><time>2026-04-18T11:33:53.261Z</time></trkpt><trkpt lat="43.0275517" lon="13.293775"><ele>482.0</ele><time>2026-04-18T11:33:54.261Z</time></trkpt><trkpt lat="43.02764" lon="13.293905"><ele>484.0</ele><time>2026-04-18T11:33:55.261Z</time></trkpt><trkpt lat="43.0277283" lon="13.2940167"><ele>486.0</ele><time>2026-04-18T11:33:56.261Z</time></trkpt><trkpt lat="43.027815" lon="13.2941167"><ele>486.0</ele><time>2026-04-18T11:33:57.261Z</time></trkpt><trkpt lat="43.02791" lon="13.2942133"><ele>486.0</ele><time>2026-04-18T11:33:58.261Z</time></trkpt><trkpt lat="43.028025" lon="13.2943383"><ele>486.0</ele><time>2026-04-18T11:33:59.261Z</time></trkpt><trkpt lat="43.0281433" lon="13.2944617"><ele>486.0</ele><time>2026-04-18T11:34:00.26Z</time></trkpt><trkpt lat="43.0282683" lon="13.29459"><ele>485.75</ele><time>2026-04-18T11:34:01.261Z</time></trkpt><trkpt lat="43.02837" lon="13.2947283"><ele>485.5</ele><time>2026-04-18T11:34:02.261Z</time></trkpt><trkpt lat="43.02847" lon="13.2948583"><ele>485.25</ele><time>2026-04-18T11:34:03.261Z</time></trkpt><trkpt lat="43.0285633" lon="13.2949767"><ele>485.0</ele><time>2026-04-18T11:34:04.261Z</time></trkpt><trkpt lat="43.02866" lon="13.2950967"><ele>485.0</ele><time>2026-04-18T11:34:05.261Z</time></trkpt><trkpt lat="43.0287433" lon="13.2952233"><ele>485.0</ele><time>2026-04-18T11:34:06.261Z</time></trkpt><trkpt lat="43.0288383" lon="13.2953583"><ele>485.0</ele><time>2026-04-18T11:34:07.261Z</time></trkpt><trkpt lat="43.0289533" lon="13.29549"><ele>485.0</ele><time>2026-04-18T11:34:08.261Z</time></trkpt><trkpt lat="43.029045" lon="13.2956083"><ele>484.0</ele><time>2026-04-18T11:34:09.261Z</time></trkpt><trkpt lat="43.0291417" lon="13.2957367"><ele>483.0</ele><time>2026-04-18T11:34:10.261Z</time></trkpt><trkpt lat="43.02923" lon="13.29586"><ele>482.0</ele><time>2026-04-18T11:34:11.261Z</time></trkpt><trkpt lat="43.0293283" lon="13.2959783"><ele>481.0</ele><time>2026-04-18T11:34:12.261Z</time></trkpt><trkpt lat="43.0294233" lon="13.296105"><ele>482.25</ele><time>2026-04-18T11:34:13.261Z</time></trkpt><trkpt lat="43.029525" lon="13.2962183"><ele>483.5</ele><time>2026-04-18T11:34:14.261Z</time></trkpt><trkpt lat="43.0296467" lon="13.2963267"><ele>484.75</ele><time>2026-04-18T11:34:15.261Z</time></trkpt><trkpt lat="43.0297767" lon="13.2964167"><ele>486.0</ele><time>2026-04-18T11:34:16.261Z</time></trkpt><trkpt lat="43.0298783" lon="13.296485"><ele>487.4</ele><time>2026-04-18T11:34:17.261Z</time></trkpt><trkpt lat="43.02998" lon="13.296535"><ele>488.8</ele><time>2026-04-18T11:34:18.261Z</time></trkpt><trkpt lat="43.0300817" lon="13.2965717"><ele>490.19999999999993</ele><time>2026-04-18T11:34:19.261Z</time></trkpt><trkpt lat="43.03019" lon="13.29658"><ele>491.59999999999997</ele><time>2026-04-18T11:34:20.261Z</time></trkpt><trkpt lat="43.030295" lon="13.2965567"><ele>493.0</ele><time>2026-04-18T11:34:21.261Z</time></trkpt><trkpt lat="43.0304217" lon="13.2965083"><ele>493.0</ele><time>2026-04-18T11:34:22.261Z</time></trkpt><trkpt lat="43.0305517" lon="13.2964533"><ele>493.0</ele><time>2026-04-18T11:34:23.261Z</time></trkpt><trkpt lat="43.0306983" lon="13.2964033"><ele>493.0</ele><time>2026-04-18T11:34:24.261Z</time></trkpt><trkpt lat="43.03084" lon="13.2963833"><ele>493.0</ele><time>2026-04-18T11:34:25.261Z</time></trkpt><trkpt lat="43.0309633" lon="13.2964017"><ele>493.79999999999995</ele><time>2026-04-18T11:34:26.261Z</time></trkpt><trkpt lat="43.03106" lon="13.2964533"><ele>494.59999999999997</ele><time>2026-04-18T11:34:27.261Z</time></trkpt><trkpt lat="43.0311267" lon="13.2965367"><ele>495.40000000000003</ele><time>2026-04-18T11:34:28.261Z</time></trkpt><trkpt lat="43.0311783" lon="13.2966383"><ele>496.20000000000005</ele><time>2026-04-18T11:34:29.261Z</time></trkpt><trkpt lat="43.0312233" lon="13.2967183"><ele>497.0</ele><time>2026-04-18T11:34:30.261Z</time></trkpt><trkpt lat="43.0312933" lon="13.2968217"><ele>496.99999999999994</ele><time>2026-04-18T11:34:32.261Z</time></trkpt><trkpt lat="43.0313483" lon="13.2968717"><ele>497.0</ele><time>2026-04-18T11:34:34.261Z</time></trkpt><trkpt lat="43.0314483" lon="13.2969183"><ele>497.0</ele><time>2026-04-18T11:34:37.261Z</time></trkpt><trkpt lat="43.0315217" lon="13.2969383"><ele>497.0</ele><time>2026-04-18T11:34:38.261Z</time></trkpt><trkpt lat="43.0315967" lon="13.2969583"><ele>496.99999999999994</ele><time>2026-04-18T11:34:39.261Z</time></trkpt><trkpt lat="43.0316717" lon="13.2969833"><ele>497.0</ele><time>2026-04-18T11:34:40.261Z</time></trkpt><trkpt lat="43.0317583" lon="13.297015"><ele>498.8</ele><time>2026-04-18T11:34:41.261Z</time></trkpt><trkpt lat="43.031855" lon="13.2970517"><ele>500.6</ele><time>2026-04-18T11:34:42.261Z</time></trkpt><trkpt lat="43.0319517" lon="13.2970867"><ele>502.40000000000003</ele><time>2026-04-18T11:34:43.261Z</time></trkpt><trkpt lat="43.032055" lon="13.2971117"><ele>504.20000000000005</ele><time>2026-04-18T11:34:44.261Z</time></trkpt><trkpt lat="43.0321583" lon="13.2971333"><ele>506.0</ele><time>2026-04-18T11:34:45.261Z</time></trkpt><trkpt lat="43.0322533" lon="13.297155"><ele>505.99999999999994</ele><time>2026-04-18T11:34:46.261Z</time></trkpt><trkpt lat="43.0323467" lon="13.297185"><ele>506.0</ele><time>2026-04-18T11:34:47.261Z</time></trkpt><trkpt lat="43.0324333" lon="13.29722"><ele>506.0</ele><time>2026-04-18T11:34:48.261Z</time></trkpt><trkpt lat="43.0325083" lon="13.2972483"><ele>506.0</ele><time>2026-04-18T11:34:49.261Z</time></trkpt><trkpt lat="43.0325667" lon="13.2972833"><ele>505.99999999999994</ele><time>2026-04-18T11:34:50.261Z</time></trkpt><trkpt lat="43.0326683" lon="13.29735"><ele>506.0</ele><time>2026-04-18T11:34:52.261Z</time></trkpt><trkpt lat="43.03273" lon="13.2973817"><ele>505.20000000000005</ele><time>2026-04-18T11:34:53.261Z</time></trkpt><trkpt lat="43.03281" lon="13.2974433"><ele>504.40000000000003</ele><time>2026-04-18T11:34:54.261Z</time></trkpt><trkpt lat="43.03289" lon="13.2975117"><ele>503.6</ele><time>2026-04-18T11:34:55.261Z</time></trkpt><trkpt lat="43.0329683" lon="13.2975733"><ele>502.8</ele><time>2026-04-18T11:34:56.261Z</time></trkpt><trkpt lat="43.033055" lon="13.297645"><ele>502.0</ele><time>2026-04-18T11:34:57.261Z</time></trkpt><trkpt lat="43.0331483" lon="13.2977033"><ele>502.0</ele><time>2026-04-18T11:34:58.261Z</time></trkpt><trkpt lat="43.0332433" lon="13.297755"><ele>502.00000000000006</ele><time>2026-04-18T11:34:59.261Z</time></trkpt><trkpt lat="43.0333333" lon="13.2978183"><ele>502.00000000000006</ele><time>2026-04-18T11:35:00.261Z</time></trkpt><trkpt lat="43.033425" lon="13.297885"><ele>502.0</ele><time>2026-04-18T11:35:01.261Z</time></trkpt><trkpt lat="43.033515" lon="13.29796"><ele>502.0</ele><time>2026-04-18T11:35:02.261Z</time></trkpt><trkpt lat="43.0336183" lon="13.2980417"><ele>501.40000000000003</ele><time>2026-04-18T11:35:03.261Z</time></trkpt><trkpt lat="43.0337183" lon="13.2981233"><ele>500.80000000000007</ele><time>2026-04-18T11:35:04.261Z</time></trkpt><trkpt lat="43.033805" lon="13.2982217"><ele>500.2</ele><time>2026-04-18T11:35:05.261Z</time></trkpt><trkpt lat="43.0338883" lon="13.2983183"><ele>499.6</ele><time>2026-04-18T11:35:06.261Z</time></trkpt><trkpt lat="43.0339767" lon="13.29841"><ele>499.0</ele><time>2026-04-18T11:35:07.261Z</time></trkpt><trkpt lat="43.0340533" lon="13.2984883"><ele>499.0</ele><time>2026-04-18T11:35:08.261Z</time></trkpt><trkpt lat="43.0341317" lon="13.2985567"><ele>499.0</ele><time>2026-04-18T11:35:09.261Z</time></trkpt><trkpt lat="43.0342183" lon="13.2986117"><ele>499.0</ele><time>2026-04-18T11:35:10.261Z</time></trkpt><trkpt lat="43.034315" lon="13.2986633"><ele>499.0</ele><time>2026-04-18T11:35:11.261Z</time></trkpt><trkpt lat="43.0344217" lon="13.2987083"><ele>499.0</ele><time>2026-04-18T11:35:12.261Z</time></trkpt><trkpt lat="43.0345233" lon="13.2987633"><ele>499.00000000000006</ele><time>2026-04-18T11:35:13.261Z</time></trkpt><trkpt lat="43.0346133" lon="13.298805"><ele>499.0</ele><time>2026-04-18T11:35:14.261Z</time></trkpt><trkpt lat="43.0346733" lon="13.2988517"><ele>499.0</ele><time>2026-04-18T11:35:15.261Z</time></trkpt><trkpt lat="43.0347267" lon="13.2989217"><ele>499.0</ele><time>2026-04-18T11:35:18.261Z</time></trkpt><trkpt lat="43.0347033" lon="13.2990217"><ele>499.00000000000006</ele><time>2026-04-18T11:35:22.261Z</time></trkpt><trkpt lat="43.0346783" lon="13.2991033"><ele>499.0</ele><time>2026-04-18T11:35:27.261Z</time></trkpt><trkpt lat="43.0346467" lon="13.2992"><ele>499.0</ele><time>2026-04-18T11:35:29.261Z</time></trkpt><trkpt lat="43.0346283" lon="13.2992917"><ele>499.0</ele><time>2026-04-18T11:35:30.261Z</time></trkpt><trkpt lat="43.0346067" lon="13.2994183"><ele>499.0</ele><time>2026-04-18T11:35:31.261Z</time></trkpt><trkpt lat="43.03459" lon="13.299555"><ele>499.0</ele><time>2026-04-18T11:35:32.261Z</time></trkpt><trkpt lat="43.03456" lon="13.2997033"><ele>499.0</ele><time>2026-04-18T11:35:33.261Z</time></trkpt><trkpt lat="43.0345317" lon="13.2998517"><ele>498.0</ele><time>2026-04-18T11:35:34.261Z</time></trkpt><trkpt lat="43.0345067" lon="13.299985"><ele>497.0</ele><time>2026-04-18T11:35:35.26Z</time></trkpt><trkpt lat="43.0344867" lon="13.3001133"><ele>496.0</ele><time>2026-04-18T11:35:36.26Z</time></trkpt><trkpt lat="43.0344617" lon="13.3002483"><ele>495.0</ele><time>2026-04-18T11:35:37.26Z</time></trkpt><trkpt lat="43.034435" lon="13.3003767"><ele>494.0</ele><time>2026-04-18T11:35:38.261Z</time></trkpt><trkpt lat="43.0343933" lon="13.3005083"><ele>493.79999999999995</ele><time>2026-04-18T11:35:39.261Z</time></trkpt><trkpt lat="43.03434" lon="13.30063"><ele>493.59999999999997</ele><time>2026-04-18T11:35:40.261Z</time></trkpt><trkpt lat="43.034285" lon="13.3007533"><ele>493.4</ele><time>2026-04-18T11:35:41.261Z</time></trkpt><trkpt lat="43.03423" lon="13.300875"><ele>493.2</ele><time>2026-04-18T11:35:42.261Z</time></trkpt><trkpt lat="43.034175" lon="13.3009733"><ele>493.0</ele><time>2026-04-18T11:35:43.261Z</time></trkpt><trkpt lat="43.03411" lon="13.3010717"><ele>491.50000000000006</ele><time>2026-04-18T11:35:44.261Z</time></trkpt><trkpt lat="43.034035" lon="13.301155"><ele>490.0</ele><time>2026-04-18T11:35:45.261Z</time></trkpt><trkpt lat="43.0339567" lon="13.3012217"><ele>488.5</ele><time>2026-04-18T11:35:46.261Z</time></trkpt><trkpt lat="43.0338833" lon="13.3012633"><ele>487.0</ele><time>2026-04-18T11:35:47.26Z</time></trkpt><trkpt lat="43.033815" lon="13.3012817"><ele>485.50000000000006</ele><time>2026-04-18T11:35:48.261Z</time></trkpt><trkpt lat="43.0337283" lon="13.3012767"><ele>484.0</ele><time>2026-04-18T11:35:50.261Z</time></trkpt><trkpt lat="43.033615" lon="13.3013"><ele>484.00000000000006</ele><time>2026-04-18T11:35:53.26Z</time></trkpt><trkpt lat="43.0335567" lon="13.3013383"><ele>484.0</ele><time>2026-04-18T11:35:54.261Z</time></trkpt><trkpt lat="43.0334983" lon="13.3013817"><ele>484.0</ele><time>2026-04-18T11:35:55.261Z</time></trkpt><trkpt lat="43.0334133" lon="13.3014933"><ele>484.0</ele><time>2026-04-18T11:35:57.261Z</time></trkpt><trkpt lat="43.0333817" lon="13.3015933"><ele>484.00000000000006</ele><time>2026-04-18T11:35:59.261Z</time></trkpt><trkpt lat="43.0333733" lon="13.3017483"><ele>484.0</ele><time>2026-04-18T11:36:04.26Z</time></trkpt><trkpt lat="43.0333883" lon="13.301855"><ele>483.79999999999995</ele><time>2026-04-18T11:36:05.26Z</time></trkpt><trkpt lat="43.0334033" lon="13.301975"><ele>483.59999999999997</ele><time>2026-04-18T11:36:06.26Z</time></trkpt><trkpt lat="43.0333933" lon="13.3021167"><ele>483.4</ele><time>2026-04-18T11:36:07.26Z</time></trkpt><trkpt lat="43.0333683" lon="13.302265"><ele>483.2</ele><time>2026-04-18T11:36:08.26Z</time></trkpt><trkpt lat="43.033335" lon="13.30242"><ele>483.0</ele><time>2026-04-18T11:36:09.26Z</time></trkpt><trkpt lat="43.0333283" lon="13.3025667"><ele>483.0</ele><time>2026-04-18T11:36:10.259Z</time></trkpt><trkpt lat="43.033335" lon="13.3027133"><ele>482.99999999999994</ele><time>2026-04-18T11:36:11.26Z</time></trkpt><trkpt lat="43.03335" lon="13.302865"><ele>482.99999999999994</ele><time>2026-04-18T11:36:12.26Z</time></trkpt><trkpt lat="43.0333967" lon="13.303"><ele>483.0</ele><time>2026-04-18T11:36:13.26Z</time></trkpt><trkpt lat="43.0334467" lon="13.3031233"><ele>483.0</ele><time>2026-04-18T11:36:14.26Z</time></trkpt><trkpt lat="43.0335067" lon="13.3032283"><ele>483.0</ele><time>2026-04-18T11:36:15.259Z</time></trkpt><trkpt lat="43.0335817" lon="13.3033183"><ele>482.99999999999994</ele><time>2026-04-18T11:36:16.26Z</time></trkpt><trkpt lat="43.0336583" lon="13.3033967"><ele>482.99999999999994</ele><time>2026-04-18T11:36:17.26Z</time></trkpt><trkpt lat="43.033735" lon="13.3034667"><ele>483.0</ele><time>2026-04-18T11:36:18.26Z</time></trkpt><trkpt lat="43.03382" lon="13.3035067"><ele>483.0</ele><time>2026-04-18T11:36:19.26Z</time></trkpt><trkpt lat="43.0338967" lon="13.3035183"><ele>483.0</ele><time>2026-04-18T11:36:20.259Z</time></trkpt><trkpt lat="43.033955" lon="13.3034767"><ele>483.0</ele><time>2026-04-18T11:36:21.26Z</time></trkpt><trkpt lat="43.0340217" lon="13.3033967"><ele>483.0</ele><time>2026-04-18T11:36:22.26Z</time></trkpt><trkpt lat="43.034045" lon="13.30328"><ele>483.0</ele><time>2026-04-18T11:36:23.26Z</time></trkpt><trkpt lat="43.0340367" lon="13.3031533"><ele>483.0</ele><time>2026-04-18T11:36:24.26Z</time></trkpt><trkpt lat="43.03401" lon="13.3030167"><ele>483.0</ele><time>2026-04-18T11:36:25.26Z</time></trkpt><trkpt lat="43.0339683" lon="13.3028817"><ele>483.0</ele><time>2026-04-18T11:36:26.26Z</time></trkpt><trkpt lat="43.0339317" lon="13.3027367"><ele>482.99999999999994</ele><time>2026-04-18T11:36:27.26Z</time></trkpt><trkpt lat="43.0339133" lon="13.3025883"><ele>482.99999999999994</ele><time>2026-04-18T11:36:28.26Z</time></trkpt><trkpt lat="43.0339117" lon="13.3024467"><ele>483.0</ele><time>2026-04-18T11:36:29.26Z</time></trkpt><trkpt lat="43.033925" lon="13.3022833"><ele>483.0</ele><time>2026-04-18T11:36:30.26Z</time></trkpt><trkpt lat="43.0339933" lon="13.30211"><ele>482.75</ele><time>2026-04-18T11:36:31.26Z</time></trkpt><trkpt lat="43.0340483" lon="13.30196"><ele>482.5</ele><time>2026-04-18T11:36:32.26Z</time></trkpt><trkpt lat="43.0341317" lon="13.30182"><ele>482.25</ele><time>2026-04-18T11:36:33.26Z</time></trkpt><trkpt lat="43.0342083" lon="13.3016817"><ele>482.0</ele><time>2026-04-18T11:36:34.26Z</time></trkpt><trkpt lat="43.03428" lon="13.3015483"><ele>484.75</ele><time>2026-04-18T11:36:35.26Z</time></trkpt><trkpt lat="43.0343567" lon="13.3014083"><ele>487.5</ele><time>2026-04-18T11:36:36.26Z</time></trkpt><trkpt lat="43.0344183" lon="13.3012583"><ele>490.25</ele><time>2026-04-18T11:36:37.26Z</time></trkpt><trkpt lat="43.0344717" lon="13.301125"><ele>493.0</ele><time>2026-04-18T11:36:38.26Z</time></trkpt><trkpt lat="43.0345517" lon="13.301"><ele>493.0</ele><time>2026-04-18T11:36:39.26Z</time></trkpt><trkpt lat="43.034645" lon="13.3009"><ele>493.0</ele><time>2026-04-18T11:36:40.26Z</time></trkpt><trkpt lat="43.034735" lon="13.3008133"><ele>493.0</ele><time>2026-04-18T11:36:41.26Z</time></trkpt><trkpt lat="43.03483" lon="13.3007167"><ele>493.0</ele><time>2026-04-18T11:36:42.26Z</time></trkpt><trkpt lat="43.0349167" lon="13.3006283"><ele>495.4</ele><time>2026-04-18T11:36:43.26Z</time></trkpt><trkpt lat="43.0350017" lon="13.3005333"><ele>497.79999999999995</ele><time>2026-04-18T11:36:44.26Z</time></trkpt><trkpt lat="43.0350867" lon="13.300435"><ele>500.2</ele><time>2026-04-18T11:36:45.26Z</time></trkpt><trkpt lat="43.03516" lon="13.3003483"><ele>502.6</ele><time>2026-04-18T11:36:46.26Z</time></trkpt><trkpt lat="43.03525" lon="13.3002617"><ele>505.0</ele><time>2026-04-18T11:36:47.26Z</time></trkpt><trkpt lat="43.0353167" lon="13.3001683"><ele>505.00000000000006</ele><time>2026-04-18T11:36:48.26Z</time></trkpt><trkpt lat="43.035385" lon="13.3000817"><ele>505.0</ele><time>2026-04-18T11:36:49.26Z</time></trkpt><trkpt lat="43.0354383" lon="13.3000033"><ele>505.0</ele><time>2026-04-18T11:36:50.26Z</time></trkpt><trkpt lat="43.035485" lon="13.2999183"><ele>505.0</ele><time>2026-04-18T11:36:51.26Z</time></trkpt><trkpt lat="43.0355333" lon="13.2998333"><ele>505.00000000000006</ele><time>2026-04-18T11:36:52.26Z</time></trkpt><trkpt lat="43.035565" lon="13.2997267"><ele>505.0</ele><time>2026-04-18T11:36:53.26Z</time></trkpt><trkpt lat="43.035585" lon="13.2996217"><ele>505.33333333333337</ele><time>2026-04-18T11:36:54.26Z</time></trkpt><trkpt lat="43.035585" lon="13.2995233"><ele>505.6666666666667</ele><time>2026-04-18T11:36:55.26Z</time></trkpt><trkpt lat="43.0355917" lon="13.2994067"><ele>506.0</ele><time>2026-04-18T11:36:56.26Z</time></trkpt><trkpt lat="43.03559" lon="13.2992917"><ele>506.33333333333337</ele><time>2026-04-18T11:36:57.26Z</time></trkpt><trkpt lat="43.0356" lon="13.2991867"><ele>506.6666666666667</ele><time>2026-04-18T11:36:58.26Z</time></trkpt><trkpt lat="43.0356117" lon="13.29909"><ele>507.0</ele><time>2026-04-18T11:36:59.26Z</time></trkpt><trkpt lat="43.0356183" lon="13.2990033"><ele>508.1666666666667</ele><time>2026-04-18T11:37:00.26Z</time></trkpt><trkpt lat="43.03563" lon="13.2988567"><ele>509.33333333333337</ele><time>2026-04-18T11:37:02.26Z</time></trkpt><trkpt lat="43.0356233" lon="13.2987633"><ele>510.5</ele><time>2026-04-18T11:37:04.26Z</time></trkpt><trkpt lat="43.035575" lon="13.298685"><ele>511.6666666666667</ele><time>2026-04-18T11:37:07.26Z</time></trkpt><trkpt lat="43.035575" lon="13.2985883"><ele>512.8333333333334</ele><time>2026-04-18T11:37:10.26Z</time></trkpt><trkpt lat="43.0356167" lon="13.2985133"><ele>514.0</ele><time>2026-04-18T11:37:13.26Z</time></trkpt><trkpt lat="43.035545" lon="13.2985067"><ele>514.0</ele><time>2026-04-18T11:37:30.26Z</time></trkpt><trkpt lat="43.0355217" lon="13.2985917"><ele>514.0</ele><time>2026-04-18T11:37:32.26Z</time></trkpt><trkpt lat="43.0354617" lon="13.2986417"><ele>514.0</ele><time>2026-04-18T11:37:34.26Z</time></trkpt><trkpt lat="43.0353967" lon="13.2986417"><ele>514.0</ele><time>2026-04-18T11:37:36.26Z</time></trkpt><trkpt lat="43.0353267" lon="13.2986267"><ele>514.0</ele><time>2026-04-18T11:37:38.26Z</time></trkpt><trkpt lat="43.0352067" lon="13.2986317"><ele>514.0</ele><time>2026-04-18T11:37:42.259Z</time></trkpt><trkpt lat="43.0351667" lon="13.2985317"><ele>514.0</ele><time>2026-04-18T11:41:43.26Z</time></trkpt><trkpt lat="43.0351717" lon="13.2986517"><ele>514.0</ele><time>2026-04-18T11:47:13.26Z</time></trkpt><trkpt lat="43.0352183" lon="13.2987267"><ele>514.0</ele><time>2026-04-18T11:47:16.26Z</time></trkpt><trkpt lat="43.03527" lon="13.2987817"><ele>514.0</ele><time>2026-04-18T11:47:19.26Z</time></trkpt><trkpt lat="43.035355" lon="13.29882"><ele>514.0</ele><time>2026-04-18T11:47:21.26Z</time></trkpt><trkpt lat="43.035435" lon="13.29883"><ele>514.0</ele><time>2026-04-18T11:47:23.26Z</time></trkpt><trkpt lat="43.0355217" lon="13.2988317"><ele>514.0</ele><time>2026-04-18T11:47:25.26Z</time></trkpt><trkpt lat="43.0355833" lon="13.298865"><ele>514.0</ele><time>2026-04-18T11:47:27.26Z</time></trkpt><trkpt lat="43.0356117" lon="13.29896"><ele>514.0</ele><time>2026-04-18T11:47:29.259Z</time></trkpt><trkpt lat="43.0355933" lon="13.2991183"><ele>514.0</ele><time>2026-04-18T11:47:31.26Z</time></trkpt><trkpt lat="43.0355817" lon="13.2992083"><ele>514.0</ele><time>2026-04-18T11:47:32.26Z</time></trkpt><trkpt lat="43.0355717" lon="13.29931"><ele>514.0</ele><time>2026-04-18T11:47:33.26Z</time></trkpt><trkpt lat="43.03557" lon="13.299405"><ele>512.8333333333334</ele><time>2026-04-18T11:47:34.26Z</time></trkpt><trkpt lat="43.0355583" lon="13.29949"><ele>511.6666666666667</ele><time>2026-04-18T11:47:35.26Z</time></trkpt><trkpt lat="43.035545" lon="13.2995867"><ele>510.5</ele><time>2026-04-18T11:47:36.26Z</time></trkpt><trkpt lat="43.0355283" lon="13.2996867"><ele>509.33333333333337</ele><time>2026-04-18T11:47:37.26Z</time></trkpt><trkpt lat="43.035495" lon="13.29979"><ele>508.1666666666667</ele><time>2026-04-18T11:47:38.26Z</time></trkpt><trkpt lat="43.035445" lon="13.2998967"><ele>507.0</ele><time>2026-04-18T11:47:39.26Z</time></trkpt><trkpt lat="43.0353967" lon="13.2999967"><ele>506.6</ele><time>2026-04-18T11:47:40.26Z</time></trkpt><trkpt lat="43.0353283" lon="13.3000717"><ele>506.20000000000005</ele><time>2026-04-18T11:47:41.26Z</time></trkpt><trkpt lat="43.035265" lon="13.30016"><ele>505.8</ele><time>2026-04-18T11:47:42.26Z</time></trkpt><trkpt lat="43.035185" lon="13.3002383"><ele>505.4</ele><time>2026-04-18T11:47:43.26Z</time></trkpt><trkpt lat="43.0351133" lon="13.3003267"><ele>505.0</ele><time>2026-04-18T11:47:44.26Z</time></trkpt><trkpt lat="43.0350217" lon="13.300425"><ele>502.25</ele><time>2026-04-18T11:47:45.26Z</time></trkpt><trkpt lat="43.03494" lon="13.3005283"><ele>499.5</ele><time>2026-04-18T11:47:46.26Z</time></trkpt><trkpt lat="43.0348583" lon="13.3006417"><ele>496.75</ele><time>2026-04-18T11:47:47.26Z</time></trkpt><trkpt lat="43.034755" lon="13.3007267"><ele>494.0</ele><time>2026-04-18T11:47:48.26Z</time></trkpt><trkpt lat="43.0346633" lon="13.30084"><ele>493.75</ele><time>2026-04-18T11:47:49.26Z</time></trkpt><trkpt lat="43.03455" lon="13.3009517"><ele>493.5</ele><time>2026-04-18T11:47:50.26Z</time></trkpt><trkpt lat="43.034465" lon="13.3010767"><ele>493.25</ele><time>2026-04-18T11:47:51.26Z</time></trkpt><trkpt lat="43.0343967" lon="13.3011917"><ele>493.0</ele><time>2026-04-18T11:47:52.26Z</time></trkpt><trkpt lat="43.0343367" lon="13.30132"><ele>495.0</ele><time>2026-04-18T11:47:53.26Z</time></trkpt><trkpt lat="43.03428" lon="13.3014633"><ele>497.0</ele><time>2026-04-18T11:47:54.26Z</time></trkpt><trkpt lat="43.0342183" lon="13.301595"><ele>499.0</ele><time>2026-04-18T11:47:55.26Z</time></trkpt><trkpt lat="43.0341617" lon="13.301725"><ele>501.0</ele><time>2026-04-18T11:47:56.26Z</time></trkpt><trkpt lat="43.0341033" lon="13.3018533"><ele>497.4</ele><time>2026-04-18T11:47:57.26Z</time></trkpt><trkpt lat="43.0340383" lon="13.3019683"><ele>493.8</ele><time>2026-04-18T11:47:58.26Z</time></trkpt><trkpt lat="43.0339717" lon="13.3020867"><ele>490.19999999999993</ele><time>2026-04-18T11:47:59.26Z</time></trkpt><trkpt lat="43.03392" lon="13.302215"><ele>486.59999999999997</ele><time>2026-04-18T11:48:00.26Z</time></trkpt><trkpt lat="43.0338833" lon="13.3023683"><ele>483.0</ele><time>2026-04-18T11:48:01.26Z</time></trkpt><trkpt lat="43.0338767" lon="13.3025233"><ele>483.0</ele><time>2026-04-18T11:48:02.26Z</time></trkpt><trkpt lat="43.0338933" lon="13.302675"><ele>483.0</ele><time>2026-04-18T11:48:03.26Z</time></trkpt><trkpt lat="43.0339317" lon="13.302835"><ele>483.0</ele><time>2026-04-18T11:48:04.26Z</time></trkpt><trkpt lat="43.03397" lon="13.3029883"><ele>483.0</ele><time>2026-04-18T11:48:05.26Z</time></trkpt><trkpt lat="43.0339967" lon="13.3031233"><ele>483.0</ele><time>2026-04-18T11:48:06.26Z</time></trkpt><trkpt lat="43.0340133" lon="13.3032383"><ele>483.0</ele><time>2026-04-18T11:48:07.26Z</time></trkpt><trkpt lat="43.0339933" lon="13.3033633"><ele>483.0</ele><time>2026-04-18T11:48:08.26Z</time></trkpt><trkpt lat="43.0339233" lon="13.3034383"><ele>483.0</ele><time>2026-04-18T11:48:09.26Z</time></trkpt><trkpt lat="43.0338583" lon="13.3034933"><ele>483.0</ele><time>2026-04-18T11:48:10.26Z</time></trkpt><trkpt lat="43.033775" lon="13.30345"><ele>483.0</ele><time>2026-04-18T11:48:11.26Z</time></trkpt><trkpt lat="43.03368" lon="13.3033683"><ele>483.0</ele><time>2026-04-18T11:48:12.26Z</time></trkpt><trkpt lat="43.033585" lon="13.30325"><ele>483.0</ele><time>2026-04-18T11:48:13.26Z</time></trkpt><trkpt lat="43.0335067" lon="13.3031317"><ele>483.0</ele><time>2026-04-18T11:48:14.26Z</time></trkpt><trkpt lat="43.0334467" lon="13.3029867"><ele>483.0</ele><time>2026-04-18T11:48:15.259Z</time></trkpt><trkpt lat="43.0333933" lon="13.3028483"><ele>483.0</ele><time>2026-04-18T11:48:16.26Z</time></trkpt><trkpt lat="43.033365" lon="13.3026967"><ele>483.0</ele><time>2026-04-18T11:48:17.26Z</time></trkpt><trkpt lat="43.03336" lon="13.3025367"><ele>483.0</ele><time>2026-04-18T11:48:18.26Z</time></trkpt><trkpt lat="43.033375" lon="13.3023833"><ele>483.0</ele><time>2026-04-18T11:48:19.26Z</time></trkpt><trkpt lat="43.0334083" lon="13.30224"><ele>482.79999999999995</ele><time>2026-04-18T11:48:20.26Z</time></trkpt><trkpt lat="43.0334383" lon="13.302095"><ele>482.59999999999997</ele><time>2026-04-18T11:48:21.26Z</time></trkpt><trkpt lat="43.0334433" lon="13.3019667"><ele>482.40000000000003</ele><time>2026-04-18T11:48:22.26Z</time></trkpt><trkpt lat="43.0334367" lon="13.3018467"><ele>482.20000000000005</ele><time>2026-04-18T11:48:23.26Z</time></trkpt><trkpt lat="43.0334033" lon="13.3017383"><ele>482.0</ele><time>2026-04-18T11:48:24.26Z</time></trkpt><trkpt lat="43.03334" lon="13.3016517"><ele>480.0</ele><time>2026-04-18T11:48:25.26Z</time></trkpt><trkpt lat="43.03325" lon="13.3016033"><ele>478.0</ele><time>2026-04-18T11:48:26.26Z</time></trkpt><trkpt lat="43.0331267" lon="13.3015817"><ele>476.0</ele><time>2026-04-18T11:48:27.26Z</time></trkpt><trkpt lat="43.0329917" lon="13.301585"><ele>474.0</ele><time>2026-04-18T11:48:28.26Z</time></trkpt><trkpt lat="43.0328317" lon="13.3015883"><ele>474.0</ele><time>2026-04-18T11:48:29.26Z</time></trkpt><trkpt lat="43.03266" lon="13.3015917"><ele>474.0</ele><time>2026-04-18T11:48:30.26Z</time></trkpt><trkpt lat="43.0325033" lon="13.3015983"><ele>474.0</ele><time>2026-04-18T11:48:31.259Z</time></trkpt><trkpt lat="43.0323517" lon="13.3015917"><ele>472.75</ele><time>2026-04-18T11:48:32.26Z</time></trkpt><trkpt lat="43.0322067" lon="13.301595"><ele>471.5</ele><time>2026-04-18T11:48:33.26Z</time></trkpt><trkpt lat="43.0320817" lon="13.3016"><ele>470.25</ele><time>2026-04-18T11:48:34.26Z</time></trkpt><trkpt lat="43.0319433" lon="13.3016217"><ele>469.0</ele><time>2026-04-18T11:48:35.26Z</time></trkpt><trkpt lat="43.0317953" lon="13.3016691"><ele>467.6666666666667</ele><time>2026-04-18T11:48:36.26Z</time></trkpt><trkpt lat="43.0316381" lon="13.3017482"><ele>466.33333333333337</ele><time>2026-04-18T11:48:37.26Z</time></trkpt><trkpt lat="43.0314895" lon="13.3018563"><ele>465.0</ele><time>2026-04-18T11:48:38.26Z</time></trkpt><trkpt lat="43.0313525" lon="13.301984"><ele>465.0</ele><time>2026-04-18T11:48:39.26Z</time></trkpt><trkpt lat="43.0312328" lon="13.3021124"><ele>465.0</ele><time>2026-04-18T11:48:40.26Z</time></trkpt><trkpt lat="43.0311271" lon="13.3022368"><ele>465.0</ele><time>2026-04-18T11:48:41.26Z</time></trkpt><trkpt lat="43.0310302" lon="13.302355"><ele>465.0</ele><time>2026-04-18T11:48:42.26Z</time></trkpt><trkpt lat="43.0309541" lon="13.3024749"><ele>464.8</ele><time>2026-04-18T11:48:43.259Z</time></trkpt><trkpt lat="43.0308947" lon="13.3026024"><ele>464.6</ele><time>2026-04-18T11:48:44.26Z</time></trkpt><trkpt lat="43.0308607" lon="13.3027303"><ele>464.4</ele><time>2026-04-18T11:48:45.26Z</time></trkpt><trkpt lat="43.0308503" lon="13.3028426"><ele>464.2</ele><time>2026-04-18T11:48:46.26Z</time></trkpt><trkpt lat="43.0307728" lon="13.3029677"><ele>464.0</ele><time>2026-04-18T11:48:48.26Z</time></trkpt><trkpt lat="43.0306401" lon="13.3030137"><ele>463.99999999999994</ele><time>2026-04-18T11:48:50.26Z</time></trkpt><trkpt lat="43.0305551" lon="13.3030091"><ele>464.0</ele><time>2026-04-18T11:48:51.26Z</time></trkpt><trkpt lat="43.0304729" lon="13.3029914"><ele>464.0</ele><time>2026-04-18T11:48:52.26Z</time></trkpt><trkpt lat="43.0303941" lon="13.3029792"><ele>464.0</ele><time>2026-04-18T11:48:53.26Z</time></trkpt><trkpt lat="43.0303179" lon="13.3029692"><ele>463.99999999999994</ele><time>2026-04-18T11:48:54.26Z</time></trkpt><trkpt lat="43.0302454" lon="13.3029633"><ele>464.0</ele><time>2026-04-18T11:48:55.26Z</time></trkpt><trkpt lat="43.0301787" lon="13.3029519"><ele>464.0</ele><time>2026-04-18T11:48:56.26Z</time></trkpt><trkpt lat="43.0300709" lon="13.3029191"><ele>464.0</ele><time>2026-04-18T11:48:58.26Z</time></trkpt><trkpt lat="43.030003" lon="13.3029042"><ele>464.0</ele><time>2026-04-18T11:49:00.26Z</time></trkpt><trkpt lat="43.0299103" lon="13.3029187"><ele>464.0</ele><time>2026-04-18T11:49:03.26Z</time></trkpt><trkpt lat="43.0298038" lon="13.3029169"><ele>464.0</ele><time>2026-04-18T11:49:05.26Z</time></trkpt><trkpt lat="43.0296796" lon="13.3029347"><ele>465.0</ele><time>2026-04-18T11:49:07.26Z</time></trkpt><trkpt lat="43.0295657" lon="13.3029907"><ele>466.0</ele><time>2026-04-18T11:49:09.26Z</time></trkpt><trkpt lat="43.0294811" lon="13.3030276"><ele>467.0</ele><time>2026-04-18T11:49:11.26Z</time></trkpt><trkpt lat="43.0294162" lon="13.302996"><ele>468.0</ele><time>2026-04-18T11:49:13.26Z</time></trkpt><trkpt lat="43.0293345" lon="13.3029131"><ele>469.0</ele><time>2026-04-18T11:49:15.26Z</time></trkpt><trkpt lat="43.0292517" lon="13.3028267"><ele>469.00000000000006</ele><time>2026-04-18T11:49:17.26Z</time></trkpt><trkpt lat="43.029205" lon="13.3027567"><ele>469.0</ele><time>2026-04-18T11:49:18.26Z</time></trkpt><trkpt lat="43.029175" lon="13.3026767"><ele>469.0</ele><time>2026-04-18T11:49:19.259Z</time></trkpt><trkpt lat="43.0291467" lon="13.3025783"><ele>469.0</ele><time>2026-04-18T11:49:20.259Z</time></trkpt><trkpt lat="43.029115" lon="13.30246"><ele>469.00000000000006</ele><time>2026-04-18T11:49:21.259Z</time></trkpt><trkpt lat="43.0290833" lon="13.302345"><ele>469.0</ele><time>2026-04-18T11:49:22.259Z</time></trkpt><trkpt lat="43.0290533" lon="13.3022367"><ele>470.4</ele><time>2026-04-18T11:49:23.259Z</time></trkpt><trkpt lat="43.0290317" lon="13.3021417"><ele>471.79999999999995</ele><time>2026-04-18T11:49:24.258Z</time></trkpt><trkpt lat="43.0289933" lon="13.3019767"><ele>473.20000000000005</ele><time>2026-04-18T11:49:26.259Z</time></trkpt><trkpt lat="43.0289567" lon="13.3018517"><ele>474.6</ele><time>2026-04-18T11:49:28.259Z</time></trkpt><trkpt lat="43.0289767" lon="13.3016883"><ele>476.0</ele><time>2026-04-18T11:49:30.259Z</time></trkpt><trkpt lat="43.0289783" lon="13.3016"><ele>476.0</ele><time>2026-04-18T11:49:31.259Z</time></trkpt><trkpt lat="43.0289867" lon="13.3015033"><ele>476.0</ele><time>2026-04-18T11:49:32.259Z</time></trkpt><trkpt lat="43.028965" lon="13.30138"><ele>476.0</ele><time>2026-04-18T11:49:34.259Z</time></trkpt><trkpt lat="43.0288583" lon="13.30137"><ele>476.0</ele><time>2026-04-18T11:49:36.259Z</time></trkpt><trkpt lat="43.0287617" lon="13.3014133"><ele>476.0</ele><time>2026-04-18T11:49:38.259Z</time></trkpt><trkpt lat="43.028665" lon="13.301395"><ele>475.66666666666663</ele><time>2026-04-18T11:49:40.259Z</time></trkpt><trkpt lat="43.0285967" lon="13.301275"><ele>475.3333333333333</ele><time>2026-04-18T11:49:42.259Z</time></trkpt><trkpt lat="43.0285733" lon="13.301195"><ele>475.0</ele><time>2026-04-18T11:49:43.259Z</time></trkpt><trkpt lat="43.0285533" lon="13.3011117"><ele>474.66666666666663</ele><time>2026-04-18T11:49:44.259Z</time></trkpt><trkpt lat="43.028515" lon="13.3010333"><ele>474.3333333333333</ele><time>2026-04-18T11:49:45.259Z</time></trkpt><trkpt lat="43.0284683" lon="13.3009"><ele>474.0</ele><time>2026-04-18T11:49:47.259Z</time></trkpt><trkpt lat="43.028395" lon="13.30082"><ele>474.0</ele><time>2026-04-18T11:49:49.259Z</time></trkpt><trkpt lat="43.0283333" lon="13.3008017"><ele>474.0</ele><time>2026-04-18T11:49:50.259Z</time></trkpt><trkpt lat="43.02827" lon="13.30079"><ele>474.0</ele><time>2026-04-18T11:49:51.259Z</time></trkpt><trkpt lat="43.0281683" lon="13.300775"><ele>474.0</ele><time>2026-04-18T11:49:53.259Z</time></trkpt><trkpt lat="43.0280533" lon="13.30077"><ele>474.0</ele><time>2026-04-18T11:49:55.259Z</time></trkpt><trkpt lat="43.02798" lon="13.3007633"><ele>474.0</ele><time>2026-04-18T11:49:56.259Z</time></trkpt><trkpt lat="43.02791" lon="13.30077"><ele>474.1666666666667</ele><time>2026-04-18T11:49:57.259Z</time></trkpt><trkpt lat="43.0278267" lon="13.300775"><ele>474.33333333333337</ele><time>2026-04-18T11:49:58.259Z</time></trkpt><trkpt lat="43.0277433" lon="13.3007717"><ele>474.5</ele><time>2026-04-18T11:49:59.259Z</time></trkpt><trkpt lat="43.027675" lon="13.3007717"><ele>474.6666666666667</ele><time>2026-04-18T11:50:00.259Z</time></trkpt><trkpt lat="43.0275883" lon="13.3007517"><ele>474.83333333333337</ele><time>2026-04-18T11:50:02.259Z</time></trkpt><trkpt lat="43.027465" lon="13.3007717"><ele>475.0</ele><time>2026-04-18T11:53:17.259Z</time></trkpt><trkpt lat="43.0273983" lon="13.30077"><ele>475.0</ele><time>2026-04-18T11:53:19.259Z</time></trkpt><trkpt lat="43.0273117" lon="13.3007783"><ele>475.0</ele><time>2026-04-18T11:53:22.259Z</time></trkpt><trkpt lat="43.0273017" lon="13.300865"><ele>475.0</ele><time>2026-04-18T11:53:43.259Z</time></trkpt><trkpt lat="43.0274233" lon="13.300805"><ele>475.0</ele><time>2026-04-18T11:53:46.259Z</time></trkpt><trkpt lat="43.0274967" lon="13.3007283"><ele>475.0</ele><time>2026-04-18T11:53:48.259Z</time></trkpt><trkpt lat="43.0274933" lon="13.3006183"><ele>475.8</ele><time>2026-04-18T11:53:50.259Z</time></trkpt><trkpt lat="43.02745" lon="13.30049"><ele>476.6</ele><time>2026-04-18T11:53:52.259Z</time></trkpt><trkpt lat="43.0273533" lon="13.30038"><ele>477.4</ele><time>2026-04-18T11:53:54.259Z</time></trkpt><trkpt lat="43.0272783" lon="13.3002583"><ele>478.2</ele><time>2026-04-18T11:53:56.259Z</time></trkpt><trkpt lat="43.0272367" lon="13.3001917"><ele>479.0</ele><time>2026-04-18T11:53:57.259Z</time></trkpt><trkpt lat="43.0271717" lon="13.3001233"><ele>478.99999999999994</ele><time>2026-04-18T11:53:58.259Z</time></trkpt><trkpt lat="43.0271017" lon="13.3000717"><ele>479.0</ele><time>2026-04-18T11:53:59.259Z</time></trkpt><trkpt lat="43.027025" lon="13.3000067"><ele>479.0</ele><time>2026-04-18T11:54:00.259Z</time></trkpt><trkpt lat="43.026955" lon="13.299955"><ele>479.0</ele><time>2026-04-18T11:54:01.259Z</time></trkpt><trkpt lat="43.0268917" lon="13.29992"><ele>478.99999999999994</ele><time>2026-04-18T11:54:02.259Z</time></trkpt><trkpt lat="43.026835" lon="13.29988"><ele>479.0</ele><time>2026-04-18T11:54:03.259Z</time></trkpt><trkpt lat="43.02674" lon="13.2997867"><ele>478.99999999999994</ele><time>2026-04-18T11:54:05.259Z</time></trkpt><trkpt lat="43.0267" lon="13.299715"><ele>479.0</ele><time>2026-04-18T11:54:06.259Z</time></trkpt><trkpt lat="43.0266633" lon="13.29962"><ele>479.0</ele><time>2026-04-18T11:54:07.258Z</time></trkpt><trkpt lat="43.0266217" lon="13.2995217"><ele>479.0</ele><time>2026-04-18T11:54:08.259Z</time></trkpt><trkpt lat="43.0265767" lon="13.2994283"><ele>478.99999999999994</ele><time>2026-04-18T11:54:09.259Z</time></trkpt><trkpt lat="43.0265283" lon="13.2993433"><ele>479.0</ele><time>2026-04-18T11:54:10.259Z</time></trkpt><trkpt lat="43.026485" lon="13.29925"><ele>479.0</ele><time>2026-04-18T11:54:11.259Z</time></trkpt><trkpt lat="43.02645" lon="13.2991517"><ele>479.0</ele><time>2026-04-18T11:54:12.259Z</time></trkpt><trkpt lat="43.026405" lon="13.2990483"><ele>479.0</ele><time>2026-04-18T11:54:13.259Z</time></trkpt><trkpt lat="43.0263683" lon="13.298935"><ele>479.0</ele><time>2026-04-18T11:54:14.259Z</time></trkpt><trkpt lat="43.02633" lon="13.298795"><ele>479.0</ele><time>2026-04-18T11:54:15.258Z</time></trkpt><trkpt lat="43.02627" lon="13.2986433"><ele>479.4</ele><time>2026-04-18T11:54:16.259Z</time></trkpt><trkpt lat="43.0262217" lon="13.29851"><ele>479.79999999999995</ele><time>2026-04-18T11:54:17.259Z</time></trkpt><trkpt lat="43.0261783" lon="13.2983917"><ele>480.20000000000005</ele><time>2026-04-18T11:54:18.259Z</time></trkpt><trkpt lat="43.026145" lon="13.2982717"><ele>480.6</ele><time>2026-04-18T11:54:19.258Z</time></trkpt><trkpt lat="43.026095" lon="13.2981483"><ele>481.0</ele><time>2026-04-18T11:54:20.258Z</time></trkpt><trkpt lat="43.0260433" lon="13.2980317"><ele>481.6</ele><time>2026-04-18T11:54:21.259Z</time></trkpt><trkpt lat="43.0259917" lon="13.2979117"><ele>482.20000000000005</ele><time>2026-04-18T11:54:22.258Z</time></trkpt><trkpt lat="43.025945" lon="13.2977883"><ele>482.79999999999995</ele><time>2026-04-18T11:54:23.259Z</time></trkpt><trkpt lat="43.0258967" lon="13.2976617"><ele>483.4</ele><time>2026-04-18T11:54:24.259Z</time></trkpt><trkpt lat="43.0258567" lon="13.2975383"><ele>484.0</ele><time>2026-04-18T11:54:25.259Z</time></trkpt><trkpt lat="43.025815" lon="13.2974167"><ele>484.6</ele><time>2026-04-18T11:54:26.259Z</time></trkpt><trkpt lat="43.0257733" lon="13.2972883"><ele>485.2</ele><time>2026-04-18T11:54:27.259Z</time></trkpt><trkpt lat="43.025735" lon="13.2971567"><ele>485.80000000000007</ele><time>2026-04-18T11:54:28.259Z</time></trkpt><trkpt lat="43.0256983" lon="13.2970267"><ele>486.40000000000003</ele><time>2026-04-18T11:54:29.259Z</time></trkpt><trkpt lat="43.02568" lon="13.2969017"><ele>487.0</ele><time>2026-04-18T11:54:30.259Z</time></trkpt><trkpt lat="43.0256633" lon="13.296765"><ele>487.8</ele><time>2026-04-18T11:54:31.259Z</time></trkpt><trkpt lat="43.02566" lon="13.29664"><ele>488.6</ele><time>2026-04-18T11:54:32.259Z</time></trkpt><trkpt lat="43.025665" lon="13.2965083"><ele>489.40000000000003</ele><time>2026-04-18T11:54:33.259Z</time></trkpt><trkpt lat="43.02567" lon="13.29638"><ele>490.20000000000005</ele><time>2026-04-18T11:54:34.259Z</time></trkpt><trkpt lat="43.02567" lon="13.2962467"><ele>491.0</ele><time>2026-04-18T11:54:35.259Z</time></trkpt><trkpt lat="43.025675" lon="13.2961267"><ele>491.16666666666663</ele><time>2026-04-18T11:54:36.259Z</time></trkpt><trkpt lat="43.0256733" lon="13.296005"><ele>491.3333333333333</ele><time>2026-04-18T11:54:37.259Z</time></trkpt><trkpt lat="43.02568" lon="13.2958883"><ele>491.5</ele><time>2026-04-18T11:54:38.258Z</time></trkpt><trkpt lat="43.0256933" lon="13.2957767"><ele>491.66666666666663</ele><time>2026-04-18T11:54:39.259Z</time></trkpt><trkpt lat="43.0257133" lon="13.29567"><ele>491.8333333333333</ele><time>2026-04-18T11:54:40.259Z</time></trkpt><trkpt lat="43.02573" lon="13.2955633"><ele>492.0</ele><time>2026-04-18T11:54:41.259Z</time></trkpt><trkpt lat="43.0257333" lon="13.2954617"><ele>492.20000000000005</ele><time>2026-04-18T11:54:42.259Z</time></trkpt><trkpt lat="43.0257367" lon="13.2953683"><ele>492.40000000000003</ele><time>2026-04-18T11:54:43.259Z</time></trkpt><trkpt lat="43.02574" lon="13.29528"><ele>492.59999999999997</ele><time>2026-04-18T11:54:44.258Z</time></trkpt><trkpt lat="43.02576" lon="13.295135"><ele>492.79999999999995</ele><time>2026-04-18T11:54:46.259Z</time></trkpt><trkpt lat="43.025795" lon="13.2950083"><ele>493.0</ele><time>2026-04-18T11:54:48.259Z</time></trkpt><trkpt lat="43.02585" lon="13.29484"><ele>490.2</ele><time>2026-04-18T11:54:50.258Z</time></trkpt><trkpt lat="43.025905" lon="13.2947367"><ele>487.4</ele><time>2026-04-18T11:54:51.259Z</time></trkpt><trkpt lat="43.0259783" lon="13.29463"><ele>484.59999999999997</ele><time>2026-04-18T11:54:52.259Z</time></trkpt><trkpt lat="43.02604" lon="13.2945217"><ele>481.79999999999995</ele><time>2026-04-18T11:54:53.259Z</time></trkpt><trkpt lat="43.0261067" lon="13.2944033"><ele>479.0</ele><time>2026-04-18T11:54:54.259Z</time></trkpt><trkpt lat="43.0261417" lon="13.29429"><ele>479.0</ele><time>2026-04-18T11:54:55.259Z</time></trkpt><trkpt lat="43.0261633" lon="13.2941783"><ele>479.0</ele><time>2026-04-18T11:54:56.259Z</time></trkpt><trkpt lat="43.0261833" lon="13.294045"><ele>479.0</ele><time>2026-04-18T11:54:57.259Z</time></trkpt><trkpt lat="43.026185" lon="13.293915"><ele>479.0</ele><time>2026-04-18T11:54:58.259Z</time></trkpt><trkpt lat="43.026205" lon="13.2937833"><ele>479.0</ele><time>2026-04-18T11:54:59.259Z</time></trkpt><trkpt lat="43.0262133" lon="13.293655"><ele>479.3333333333333</ele><time>2026-04-18T11:55:00.259Z</time></trkpt><trkpt lat="43.026235" lon="13.2935367"><ele>479.66666666666663</ele><time>2026-04-18T11:55:01.259Z</time></trkpt><trkpt lat="43.0262517" lon="13.2934267"><ele>480.0</ele><time>2026-04-18T11:55:02.258Z</time></trkpt><trkpt lat="43.0262583" lon="13.2933217"><ele>480.33333333333337</ele><time>2026-04-18T11:55:03.259Z</time></trkpt><trkpt lat="43.0262517" lon="13.29323"><ele>480.6666666666667</ele><time>2026-04-18T11:55:04.259Z</time></trkpt><trkpt lat="43.0262267" lon="13.2931333"><ele>481.0</ele><time>2026-04-18T11:55:05.259Z</time></trkpt><trkpt lat="43.0261783" lon="13.2930383"><ele>481.0</ele><time>2026-04-18T11:55:06.259Z</time></trkpt><trkpt lat="43.0261267" lon="13.2929367"><ele>481.0</ele><time>2026-04-18T11:55:07.259Z</time></trkpt><trkpt lat="43.0260933" lon="13.2928183"><ele>481.0</ele><time>2026-04-18T11:55:08.259Z</time></trkpt><trkpt lat="43.0260583" lon="13.292685"><ele>481.0</ele><time>2026-04-18T11:55:09.259Z</time></trkpt><trkpt lat="43.0260233" lon="13.292545"><ele>481.0</ele><time>2026-04-18T11:55:10.259Z</time></trkpt><trkpt lat="43.0259917" lon="13.2924067"><ele>481.00000000000006</ele><time>2026-04-18T11:55:11.259Z</time></trkpt><trkpt lat="43.0259733" lon="13.2922817"><ele>481.0</ele><time>2026-04-18T11:55:12.259Z</time></trkpt><trkpt lat="43.0259767" lon="13.29216"><ele>481.0</ele><time>2026-04-18T11:55:13.259Z</time></trkpt><trkpt lat="43.025985" lon="13.2920417"><ele>481.0</ele><time>2026-04-18T11:55:14.259Z</time></trkpt><trkpt lat="43.02599" lon="13.291935"><ele>481.00000000000006</ele><time>2026-04-18T11:55:15.259Z</time></trkpt><trkpt lat="43.0259967" lon="13.2918433"><ele>481.0</ele><time>2026-04-18T11:55:16.259Z</time></trkpt><trkpt lat="43.025985" lon="13.2917383"><ele>480.6666666666667</ele><time>2026-04-18T11:55:18.259Z</time></trkpt><trkpt lat="43.0260317" lon="13.29166"><ele>480.33333333333337</ele><time>2026-04-18T11:55:48.259Z</time></trkpt><trkpt lat="43.0261383" lon="13.2917333"><ele>480.0</ele><time>2026-04-18T11:55:50.258Z</time></trkpt><trkpt lat="43.0262083" lon="13.2917833"><ele>479.66666666666663</ele><time>2026-04-18T11:55:51.259Z</time></trkpt><trkpt lat="43.026285" lon="13.2918317"><ele>479.3333333333333</ele><time>2026-04-18T11:55:52.259Z</time></trkpt><trkpt lat="43.026355" lon="13.2918983"><ele>479.0</ele><time>2026-04-18T11:55:53.259Z</time></trkpt><trkpt lat="43.02642" lon="13.2919767"><ele>478.99999999999994</ele><time>2026-04-18T11:55:54.259Z</time></trkpt><trkpt lat="43.02648" lon="13.2920517"><ele>479.0</ele><time>2026-04-18T11:55:55.259Z</time></trkpt><trkpt lat="43.0265333" lon="13.2921267"><ele>479.0</ele><time>2026-04-18T11:55:56.259Z</time></trkpt><trkpt lat="43.0265667" lon="13.2922283"><ele>479.0</ele><time>2026-04-18T11:55:57.259Z</time></trkpt><trkpt lat="43.0266017" lon="13.29233"><ele>478.99999999999994</ele><time>2026-04-18T11:55:58.259Z</time></trkpt><trkpt lat="43.0266467" lon="13.292405"><ele>479.0</ele><time>2026-04-18T11:55:59.259Z</time></trkpt><trkpt lat="43.0266933" lon="13.2924783"><ele>479.6</ele><time>2026-04-18T11:56:00.259Z</time></trkpt><trkpt lat="43.02678" lon="13.2925917"><ele>480.2</ele><time>2026-04-18T11:56:02.259Z</time></trkpt><trkpt lat="43.026835" lon="13.2926483"><ele>480.80000000000007</ele><time>2026-04-18T11:56:03.259Z</time></trkpt><trkpt lat="43.0268833" lon="13.292735"><ele>481.40000000000003</ele><time>2026-04-18T11:56:04.259Z</time></trkpt><trkpt lat="43.0269483" lon="13.29286"><ele>482.0</ele><time>2026-04-18T11:56:05.259Z</time></trkpt><trkpt lat="43.027025" lon="13.2930117"><ele>481.0</ele><time>2026-04-18T11:56:06.259Z</time></trkpt><trkpt lat="43.027105" lon="13.2931617"><ele>480.0</ele><time>2026-04-18T11:56:07.259Z</time></trkpt><trkpt lat="43.0271833" lon="13.2932983"><ele>479.0</ele><time>2026-04-18T11:56:08.259Z</time></trkpt><trkpt lat="43.0272617" lon="13.29341"><ele>478.0</ele><time>2026-04-18T11:56:09.259Z</time></trkpt><trkpt lat="43.02734" lon="13.293535"><ele>478.0</ele><time>2026-04-18T11:56:10.259Z</time></trkpt><trkpt lat="43.0274233" lon="13.293655"><ele>478.0</ele><time>2026-04-18T11:56:11.259Z</time></trkpt><trkpt lat="43.02751" lon="13.2937717"><ele>478.0</ele><time>2026-04-18T11:56:12.259Z</time></trkpt><trkpt lat="43.0275967" lon="13.29389"><ele>478.0</ele><time>2026-04-18T11:56:13.259Z</time></trkpt><trkpt lat="43.0276817" lon="13.2939917"><ele>480.0</ele><time>2026-04-18T11:56:14.259Z</time></trkpt><trkpt lat="43.0277617" lon="13.294095"><ele>482.0</ele><time>2026-04-18T11:56:15.259Z</time></trkpt><trkpt lat="43.0278433" lon="13.2941883"><ele>484.0</ele><time>2026-04-18T11:56:16.259Z</time></trkpt><trkpt lat="43.0279417" lon="13.29428"><ele>486.0</ele><time>2026-04-18T11:56:17.259Z</time></trkpt><trkpt lat="43.02804" lon="13.2943717"><ele>486.0</ele><time>2026-04-18T11:56:18.259Z</time></trkpt><trkpt lat="43.0281383" lon="13.29448"><ele>486.0</ele><time>2026-04-18T11:56:19.259Z</time></trkpt><trkpt lat="43.02823" lon="13.2945883"><ele>486.0</ele><time>2026-04-18T11:56:20.259Z</time></trkpt><trkpt lat="43.0283233" lon="13.294695"><ele>486.0</ele><time>2026-04-18T11:56:21.259Z</time></trkpt><trkpt lat="43.0284167" lon="13.2948017"><ele>485.75</ele><time>2026-04-18T11:56:22.259Z</time></trkpt><trkpt lat="43.028505" lon="13.2949233"><ele>485.5</ele><time>2026-04-18T11:56:23.259Z</time></trkpt><trkpt lat="43.028585" lon="13.29504"><ele>485.25</ele><time>2026-04-18T11:56:24.259Z</time></trkpt><trkpt lat="43.02867" lon="13.2951583"><ele>485.0</ele><time>2026-04-18T11:56:25.259Z</time></trkpt><trkpt lat="43.0287583" lon="13.295275"><ele>485.0</ele><time>2026-04-18T11:56:26.259Z</time></trkpt><trkpt lat="43.0288383" lon="13.295385"><ele>485.0</ele><time>2026-04-18T11:56:27.259Z</time></trkpt><trkpt lat="43.0289267" lon="13.2954867"><ele>485.0</ele><time>2026-04-18T11:56:28.259Z</time></trkpt><trkpt lat="43.0290083" lon="13.2955933"><ele>485.0</ele><time>2026-04-18T11:56:29.259Z</time></trkpt><trkpt lat="43.0290883" lon="13.2957067"><ele>486.4</ele><time>2026-04-18T11:56:30.259Z</time></trkpt><trkpt lat="43.029175" lon="13.2958217"><ele>487.8</ele><time>2026-04-18T11:56:31.259Z</time></trkpt><trkpt lat="43.029255" lon="13.2959283"><ele>489.20000000000005</ele><time>2026-04-18T11:56:32.259Z</time></trkpt><trkpt lat="43.029321" lon="13.2960041"><ele>490.6</ele><time>2026-04-18T11:56:33.259Z</time></trkpt><trkpt lat="43.0293721" lon="13.2960592"><ele>492.0</ele><time>2026-04-18T11:56:34.259Z</time></trkpt><trkpt lat="43.0294246" lon="13.2961259"><ele>492.0</ele><time>2026-04-18T11:56:36.259Z</time></trkpt><trkpt lat="43.029495" lon="13.2962183"><ele>492.00000000000006</ele><time>2026-04-18T11:57:31.259Z</time></trkpt><trkpt lat="43.0295983" lon="13.296305"><ele>492.00000000000006</ele><time>2026-04-18T11:57:33.259Z</time></trkpt><trkpt lat="43.0296617" lon="13.2963633"><ele>492.0</ele><time>2026-04-18T11:57:34.259Z</time></trkpt><trkpt lat="43.029745" lon="13.29642"><ele>492.0</ele><time>2026-04-18T11:57:35.259Z</time></trkpt><trkpt lat="43.0298433" lon="13.2964883"><ele>492.20000000000005</ele><time>2026-04-18T11:57:36.259Z</time></trkpt><trkpt lat="43.0299467" lon="13.2965483"><ele>492.40000000000003</ele><time>2026-04-18T11:57:37.259Z</time></trkpt><trkpt lat="43.030045" lon="13.29659"><ele>492.59999999999997</ele><time>2026-04-18T11:57:38.259Z</time></trkpt><trkpt lat="43.0301467" lon="13.2966183"><ele>492.79999999999995</ele><time>2026-04-18T11:57:39.259Z</time></trkpt><trkpt lat="43.0302467" lon="13.296615"><ele>493.0</ele><time>2026-04-18T11:57:40.259Z</time></trkpt><trkpt lat="43.0303417" lon="13.2965783"><ele>493.0</ele><time>2026-04-18T11:57:41.259Z</time></trkpt><trkpt lat="43.030445" lon="13.2965267"><ele>493.0</ele><time>2026-04-18T11:57:42.259Z</time></trkpt><trkpt lat="43.0305667" lon="13.2964717"><ele>493.0</ele><time>2026-04-18T11:57:43.259Z</time></trkpt><trkpt lat="43.0306883" lon="13.2964117"><ele>493.0</ele><time>2026-04-18T11:57:44.259Z</time></trkpt><trkpt lat="43.03082" lon="13.29639"><ele>493.79999999999995</ele><time>2026-04-18T11:57:45.259Z</time></trkpt><trkpt lat="43.03094" lon="13.29641"><ele>494.59999999999997</ele><time>2026-04-18T11:57:46.259Z</time></trkpt><trkpt lat="43.031035" lon="13.2964617"><ele>495.40000000000003</ele><time>2026-04-18T11:57:47.259Z</time></trkpt><trkpt lat="43.0311117" lon="13.2965517"><ele>496.20000000000005</ele><time>2026-04-18T11:57:48.259Z</time></trkpt><trkpt lat="43.0311633" lon="13.2966567"><ele>497.0</ele><time>2026-04-18T11:57:49.259Z</time></trkpt><trkpt lat="43.0312267" lon="13.2967583"><ele>497.0</ele><time>2026-04-18T11:57:50.259Z</time></trkpt><trkpt lat="43.0313117" lon="13.29685"><ele>497.0</ele><time>2026-04-18T11:57:51.259Z</time></trkpt><trkpt lat="43.0314067" lon="13.2969317"><ele>497.0</ele><time>2026-04-18T11:57:52.259Z</time></trkpt><trkpt lat="43.03151" lon="13.2969867"><ele>497.0</ele><time>2026-04-18T11:57:53.259Z</time></trkpt><trkpt lat="43.0316533" lon="13.297035"><ele>499.25</ele><time>2026-04-18T11:57:54.259Z</time></trkpt><trkpt lat="43.0318017" lon="13.2970683"><ele>501.5</ele><time>2026-04-18T11:57:55.259Z</time></trkpt><trkpt lat="43.031945" lon="13.2971117"><ele>503.75</ele><time>2026-04-18T11:57:56.259Z</time></trkpt><trkpt lat="43.0320733" lon="13.2971483"><ele>506.0</ele><time>2026-04-18T11:57:57.259Z</time></trkpt><trkpt lat="43.0322033" lon="13.2971833"><ele>506.0</ele><time>2026-04-18T11:57:58.259Z</time></trkpt><trkpt lat="43.0323183" lon="13.2972117"><ele>506.0</ele><time>2026-04-18T11:57:59.259Z</time></trkpt><trkpt lat="43.0324217" lon="13.2972383"><ele>506.0</ele><time>2026-04-18T11:58:00.259Z</time></trkpt><trkpt lat="43.0325183" lon="13.2972767"><ele>506.0</ele><time>2026-04-18T11:58:01.258Z</time></trkpt><trkpt lat="43.0325817" lon="13.2973217"><ele>506.0</ele><time>2026-04-18T11:58:02.259Z</time></trkpt><trkpt lat="43.0326567" lon="13.2973667"><ele>505.20000000000005</ele><time>2026-04-18T11:58:03.259Z</time></trkpt><trkpt lat="43.0327383" lon="13.2974233"><ele>504.40000000000003</ele><time>2026-04-18T11:58:04.259Z</time></trkpt><trkpt lat="43.0328233" lon="13.2974883"><ele>503.6</ele><time>2026-04-18T11:58:05.259Z</time></trkpt><trkpt lat="43.0329083" lon="13.2975717"><ele>502.8</ele><time>2026-04-18T11:58:06.259Z</time></trkpt><trkpt lat="43.0330033" lon="13.29764"><ele>502.0</ele><time>2026-04-18T11:58:07.259Z</time></trkpt><trkpt lat="43.0331" lon="13.297715"><ele>502.0</ele><time>2026-04-18T11:58:08.259Z</time></trkpt><trkpt lat="43.033195" lon="13.2977817"><ele>502.00000000000006</ele><time>2026-04-18T11:58:09.259Z</time></trkpt><trkpt lat="43.03329" lon="13.2978483"><ele>502.00000000000006</ele><time>2026-04-18T11:58:10.259Z</time></trkpt><trkpt lat="43.0333783" lon="13.297925"><ele>502.0</ele><time>2026-04-18T11:58:11.259Z</time></trkpt><trkpt lat="43.03348" lon="13.298"><ele>502.0</ele><time>2026-04-18T11:58:12.259Z</time></trkpt><trkpt lat="43.0335867" lon="13.2980767"><ele>501.40000000000003</ele><time>2026-04-18T11:58:13.259Z</time></trkpt><trkpt lat="43.033695" lon="13.2981633"><ele>500.80000000000007</ele><time>2026-04-18T11:58:14.259Z</time></trkpt><trkpt lat="43.0337967" lon="13.2982567"><ele>500.2</ele><time>2026-04-18T11:58:15.259Z</time></trkpt><trkpt lat="43.0338767" lon="13.2983317"><ele>499.6</ele><time>2026-04-18T11:58:16.258Z</time></trkpt><trkpt lat="43.03394" lon="13.2983883"><ele>499.0</ele><time>2026-04-18T11:58:17.258Z</time></trkpt><trkpt lat="43.0340217" lon="13.2984817"><ele>499.0</ele><time>2026-04-18T11:58:19.258Z</time></trkpt><trkpt lat="43.034115" lon="13.2985617"><ele>499.0</ele><time>2026-04-18T11:58:21.258Z</time></trkpt><trkpt lat="43.0341767" lon="13.2986083"><ele>499.0</ele><time>2026-04-18T11:58:22.258Z</time></trkpt><trkpt lat="43.03425" lon="13.298665"><ele>499.0</ele><time>2026-04-18T11:58:23.257Z</time></trkpt><trkpt lat="43.03434" lon="13.298715"><ele>499.0</ele><time>2026-04-18T11:58:24.258Z</time></trkpt><trkpt lat="43.0344383" lon="13.2987617"><ele>499.0</ele><time>2026-04-18T11:58:25.258Z</time></trkpt><trkpt lat="43.0345283" lon="13.2987983"><ele>499.0</ele><time>2026-04-18T11:58:26.258Z</time></trkpt><trkpt lat="43.0346033" lon="13.298835"><ele>499.0</ele><time>2026-04-18T11:58:27.258Z</time></trkpt><trkpt lat="43.034665" lon="13.298945"><ele>499.0</ele><time>2026-04-18T11:58:29.258Z</time></trkpt><trkpt lat="43.0346517" lon="13.2991033"><ele>499.0</ele><time>2026-04-18T11:58:31.258Z</time></trkpt><trkpt lat="43.0346217" lon="13.299235"><ele>499.0</ele><time>2026-04-18T11:58:32.258Z</time></trkpt><trkpt lat="43.0345967" lon="13.2993767"><ele>499.0</ele><time>2026-04-18T11:58:33.258Z</time></trkpt><trkpt lat="43.0345667" lon="13.29953"><ele>499.0</ele><time>2026-04-18T11:58:34.257Z</time></trkpt><trkpt lat="43.0345417" lon="13.2997133"><ele>499.0</ele><time>2026-04-18T11:58:35.258Z</time></trkpt><trkpt lat="43.0345133" lon="13.2998783"><ele>497.75</ele><time>2026-04-18T11:58:36.258Z</time></trkpt><trkpt lat="43.0344817" lon="13.3000333"><ele>496.5</ele><time>2026-04-18T11:58:37.258Z</time></trkpt><trkpt lat="43.03446" lon="13.300195"><ele>495.25</ele><time>2026-04-18T11:58:38.258Z</time></trkpt><trkpt lat="43.0344333" lon="13.3003583"><ele>494.0</ele><time>2026-04-18T11:58:39.258Z</time></trkpt><trkpt lat="43.0343983" lon="13.3005017"><ele>493.79999999999995</ele><time>2026-04-18T11:58:40.258Z</time></trkpt><trkpt lat="43.0343483" lon="13.3006317"><ele>493.59999999999997</ele><time>2026-04-18T11:58:41.258Z</time></trkpt><trkpt lat="43.0342933" lon="13.3007633"><ele>493.4</ele><time>2026-04-18T11:58:42.258Z</time></trkpt><trkpt lat="43.03424" lon="13.30089"><ele>493.2</ele><time>2026-04-18T11:58:43.258Z</time></trkpt><trkpt lat="43.0341817" lon="13.30101"><ele>493.0</ele><time>2026-04-18T11:58:44.258Z</time></trkpt><trkpt lat="43.03412" lon="13.3011167"><ele>491.2</ele><time>2026-04-18T11:58:45.258Z</time></trkpt><trkpt lat="43.0340217" lon="13.30119"><ele>489.4</ele><time>2026-04-18T11:58:46.258Z</time></trkpt><trkpt lat="43.0339267" lon="13.30125"><ele>487.59999999999997</ele><time>2026-04-18T11:58:47.257Z</time></trkpt><trkpt lat="43.0338483" lon="13.3012883"><ele>485.79999999999995</ele><time>2026-04-18T11:58:48.258Z</time></trkpt><trkpt lat="43.0337733" lon="13.3012983"><ele>484.0</ele><time>2026-04-18T11:58:49.258Z</time></trkpt><trkpt lat="43.03369" lon="13.3012917"><ele>484.0</ele><time>2026-04-18T11:58:51.258Z</time></trkpt><trkpt lat="43.0335683" lon="13.301315"><ele>484.0</ele><time>2026-04-18T11:58:53.258Z</time></trkpt><trkpt lat="43.0334933" lon="13.30137"><ele>484.0</ele><time>2026-04-18T11:58:54.258Z</time></trkpt><trkpt lat="43.0334117" lon="13.3014283"><ele>484.0</ele><time>2026-04-18T11:58:55.258Z</time></trkpt><trkpt lat="43.0333033" lon="13.3014883"><ele>484.0</ele><time>2026-04-18T11:58:56.258Z</time></trkpt><trkpt lat="43.0332" lon="13.30153"><ele>481.5</ele><time>2026-04-18T11:58:57.258Z</time></trkpt><trkpt lat="43.0330883" lon="13.301565"><ele>479.0</ele><time>2026-04-18T11:58:58.258Z</time></trkpt><trkpt lat="43.0329583" lon="13.3015683"><ele>476.5</ele><time>2026-04-18T11:58:59.258Z</time></trkpt><trkpt lat="43.03281" lon="13.30157"><ele>474.0</ele><time>2026-04-18T11:59:00.258Z</time></trkpt><trkpt lat="43.0326567" lon="13.30158"><ele>474.0</ele><time>2026-04-18T11:59:01.258Z</time></trkpt><trkpt lat="43.0325183" lon="13.30158"><ele>474.0</ele><time>2026-04-18T11:59:02.258Z</time></trkpt><trkpt lat="43.03239" lon="13.301575"><ele>474.0</ele><time>2026-04-18T11:59:03.258Z</time></trkpt><trkpt lat="43.0322767" lon="13.301575"><ele>474.0</ele><time>2026-04-18T11:59:04.258Z</time></trkpt><trkpt lat="43.0321683" lon="13.3015783"><ele>473.1666666666667</ele><time>2026-04-18T11:59:05.258Z</time></trkpt><trkpt lat="43.032075" lon="13.3015917"><ele>472.33333333333337</ele><time>2026-04-18T11:59:06.258Z</time></trkpt><trkpt lat="43.03198" lon="13.3015967"><ele>471.5</ele><time>2026-04-18T11:59:07.258Z</time></trkpt><trkpt lat="43.0319" lon="13.3016217"><ele>470.6666666666667</ele><time>2026-04-18T11:59:08.258Z</time></trkpt><trkpt lat="43.031835" lon="13.3016467"><ele>469.83333333333337</ele><time>2026-04-18T11:59:09.258Z</time></trkpt><trkpt lat="43.0317583" lon="13.30169"><ele>469.0</ele><time>2026-04-18T11:59:10.258Z</time></trkpt><trkpt lat="43.0316833" lon="13.301745"><ele>468.2</ele><time>2026-04-18T11:59:11.258Z</time></trkpt><trkpt lat="43.0316067" lon="13.3018017"><ele>467.4</ele><time>2026-04-18T11:59:12.258Z</time></trkpt><trkpt lat="43.0315317" lon="13.3018717"><ele>466.6</ele><time>2026-04-18T11:59:13.258Z</time></trkpt><trkpt lat="43.0314517" lon="13.3019483"><ele>465.8</ele><time>2026-04-18T11:59:14.258Z</time></trkpt><trkpt lat="43.031365" lon="13.3020267"><ele>465.0</ele><time>2026-04-18T11:59:15.258Z</time></trkpt><trkpt lat="43.0312717" lon="13.30212"><ele>465.0</ele><time>2026-04-18T11:59:16.258Z</time></trkpt><trkpt lat="43.0311867" lon="13.3022133"><ele>465.0</ele><time>2026-04-18T11:59:17.258Z</time></trkpt><trkpt lat="43.0311" lon="13.3023017"><ele>465.0</ele><time>2026-04-18T11:59:18.258Z</time></trkpt><trkpt lat="43.031015" lon="13.3023883"><ele>465.0</ele><time>2026-04-18T11:59:19.258Z</time></trkpt><trkpt lat="43.0309467" lon="13.302485"><ele>465.0</ele><time>2026-04-18T11:59:20.258Z</time></trkpt><trkpt lat="43.030905" lon="13.3025933"><ele>464.8</ele><time>2026-04-18T11:59:21.258Z</time></trkpt><trkpt lat="43.030875" lon="13.3027017"><ele>464.6</ele><time>2026-04-18T11:59:22.258Z</time></trkpt><trkpt lat="43.030855" lon="13.3027967"><ele>464.4</ele><time>2026-04-18T11:59:23.258Z</time></trkpt><trkpt lat="43.0308167" lon="13.3029217"><ele>464.2</ele><time>2026-04-18T11:59:25.258Z</time></trkpt><trkpt lat="43.03077" lon="13.303"><ele>464.0</ele><time>2026-04-18T11:59:27.257Z</time></trkpt><trkpt lat="43.0308867" lon="13.302935"><ele>464.0</ele><time>2026-04-18T12:01:02.258Z</time></trkpt><trkpt lat="43.0309067" lon="13.302725"><ele>464.0</ele><time>2026-04-18T12:01:04.258Z</time></trkpt><trkpt lat="43.030945" lon="13.3025733"><ele>464.0</ele><time>2026-04-18T12:01:05.258Z</time></trkpt><trkpt lat="43.0310083" lon="13.3024217"><ele>464.0</ele><time>2026-04-18T12:01:06.258Z</time></trkpt><trkpt lat="43.0311117" lon="13.3022783"><ele>464.25</ele><time>2026-04-18T12:01:07.258Z</time></trkpt><trkpt lat="43.0312417" lon="13.3021583"><ele>464.5</ele><time>2026-04-18T12:01:08.258Z</time></trkpt><trkpt lat="43.03136" lon="13.302045"><ele>464.75</ele><time>2026-04-18T12:01:09.257Z</time></trkpt><trkpt lat="43.0314783" lon="13.3019283"><ele>465.0</ele><time>2026-04-18T12:01:10.258Z</time></trkpt><trkpt lat="43.0315883" lon="13.3018417"><ele>465.8</ele><time>2026-04-18T12:01:11.258Z</time></trkpt><trkpt lat="43.031685" lon="13.3017667"><ele>466.6</ele><time>2026-04-18T12:01:12.258Z</time></trkpt><trkpt lat="43.03178" lon="13.3017033"><ele>467.4</ele><time>2026-04-18T12:01:13.258Z</time></trkpt><trkpt lat="43.0318867" lon="13.3016633"><ele>468.2</ele><time>2026-04-18T12:01:14.258Z</time></trkpt><trkpt lat="43.0320017" lon="13.3016417"><ele>469.0</ele><time>2026-04-18T12:01:15.258Z</time></trkpt><trkpt lat="43.0321283" lon="13.3016317"><ele>469.0</ele><time>2026-04-18T12:01:16.258Z</time></trkpt><trkpt lat="43.0322533" lon="13.301625"><ele>469.0</ele><time>2026-04-18T12:01:17.258Z</time></trkpt><trkpt lat="43.0323733" lon="13.3016183"><ele>469.0</ele><time>2026-04-18T12:01:18.258Z</time></trkpt><trkpt lat="43.0324867" lon="13.30162"><ele>469.0</ele><time>2026-04-18T12:01:19.258Z</time></trkpt><trkpt lat="43.032595" lon="13.301625"><ele>470.25</ele><time>2026-04-18T12:01:20.257Z</time></trkpt><trkpt lat="43.0328133" lon="13.301625"><ele>471.5</ele><time>2026-04-18T12:01:22.258Z</time></trkpt><trkpt lat="43.032915" lon="13.3016167"><ele>472.75</ele><time>2026-04-18T12:01:23.258Z</time></trkpt><trkpt lat="43.0330167" lon="13.3016117"><ele>474.0</ele><time>2026-04-18T12:01:24.258Z</time></trkpt><trkpt lat="43.0331183" lon="13.3016167"><ele>474.0</ele><time>2026-04-18T12:01:25.258Z</time></trkpt><trkpt lat="43.033215" lon="13.30163"><ele>474.0</ele><time>2026-04-18T12:01:26.258Z</time></trkpt><trkpt lat="43.033295" lon="13.301675"><ele>474.0</ele><time>2026-04-18T12:01:27.258Z</time></trkpt><trkpt lat="43.033375" lon="13.301755"><ele>474.0</ele><time>2026-04-18T12:01:28.258Z</time></trkpt><trkpt lat="43.033405" lon="13.30186"><ele>474.0</ele><time>2026-04-18T12:01:29.258Z</time></trkpt><trkpt lat="43.03341" lon="13.3019817"><ele>476.0</ele><time>2026-04-18T12:01:30.258Z</time></trkpt><trkpt lat="43.0333983" lon="13.3021283"><ele>478.0</ele><time>2026-04-18T12:01:31.258Z</time></trkpt><trkpt lat="43.0333667" lon="13.3022967"><ele>480.0</ele><time>2026-04-18T12:01:32.258Z</time></trkpt><trkpt lat="43.0333383" lon="13.3024867"><ele>482.0</ele><time>2026-04-18T12:01:33.258Z</time></trkpt><trkpt lat="43.033325" lon="13.3026867"><ele>482.25</ele><time>2026-04-18T12:01:34.258Z</time></trkpt><trkpt lat="43.03335" lon="13.3028667"><ele>482.5</ele><time>2026-04-18T12:01:35.258Z</time></trkpt><trkpt lat="43.033395" lon="13.3030267"><ele>482.75</ele><time>2026-04-18T12:01:36.258Z</time></trkpt><trkpt lat="43.0334533" lon="13.3031617"><ele>483.0</ele><time>2026-04-18T12:01:37.258Z</time></trkpt><trkpt lat="43.0335217" lon="13.3032733"><ele>483.0</ele><time>2026-04-18T12:01:38.258Z</time></trkpt><trkpt lat="43.0335933" lon="13.3033683"><ele>483.0</ele><time>2026-04-18T12:01:39.258Z</time></trkpt><trkpt lat="43.0336683" lon="13.3034417"><ele>483.0</ele><time>2026-04-18T12:01:40.258Z</time></trkpt><trkpt lat="43.0337517" lon="13.3034983"><ele>483.0</ele><time>2026-04-18T12:01:41.258Z</time></trkpt><trkpt lat="43.0338217" lon="13.3035283"><ele>483.0</ele><time>2026-04-18T12:01:42.258Z</time></trkpt><trkpt lat="43.0339033" lon="13.3035183"><ele>483.0</ele><time>2026-04-18T12:01:43.258Z</time></trkpt><trkpt lat="43.033965" lon="13.3034717"><ele>483.0</ele><time>2026-04-18T12:01:44.258Z</time></trkpt><trkpt lat="43.03402" lon="13.303385"><ele>483.0</ele><time>2026-04-18T12:01:45.257Z</time></trkpt><trkpt lat="43.03403" lon="13.3032767"><ele>483.0</ele><time>2026-04-18T12:01:46.258Z</time></trkpt><trkpt lat="43.03402" lon="13.3031633"><ele>483.0</ele><time>2026-04-18T12:01:47.258Z</time></trkpt><trkpt lat="43.0340033" lon="13.3030417"><ele>483.0</ele><time>2026-04-18T12:01:48.258Z</time></trkpt><trkpt lat="43.0339833" lon="13.3029267"><ele>483.0</ele><time>2026-04-18T12:01:49.257Z</time></trkpt><trkpt lat="43.03395" lon="13.3028"><ele>483.0</ele><time>2026-04-18T12:01:50.258Z</time></trkpt><trkpt lat="43.0339167" lon="13.30268"><ele>482.99999999999994</ele><time>2026-04-18T12:01:51.258Z</time></trkpt><trkpt lat="43.0339083" lon="13.3025617"><ele>482.99999999999994</ele><time>2026-04-18T12:01:52.258Z</time></trkpt><trkpt lat="43.0339167" lon="13.30243"><ele>483.0</ele><time>2026-04-18T12:01:53.258Z</time></trkpt><trkpt lat="43.0339217" lon="13.3023017"><ele>483.0</ele><time>2026-04-18T12:01:54.258Z</time></trkpt><trkpt lat="43.0339517" lon="13.3021733"><ele>482.79999999999995</ele><time>2026-04-18T12:01:55.258Z</time></trkpt><trkpt lat="43.0339983" lon="13.30205"><ele>482.59999999999997</ele><time>2026-04-18T12:01:56.258Z</time></trkpt><trkpt lat="43.034045" lon="13.3019233"><ele>482.40000000000003</ele><time>2026-04-18T12:01:57.258Z</time></trkpt><trkpt lat="43.03411" lon="13.3018133"><ele>482.20000000000005</ele><time>2026-04-18T12:01:58.258Z</time></trkpt><trkpt lat="43.0341667" lon="13.301725"><ele>482.0</ele><time>2026-04-18T12:01:59.258Z</time></trkpt><trkpt lat="43.03423" lon="13.3016317"><ele>484.20000000000005</ele><time>2026-04-18T12:02:00.258Z</time></trkpt><trkpt lat="43.0342867" lon="13.3015283"><ele>486.40000000000003</ele><time>2026-04-18T12:02:01.258Z</time></trkpt><trkpt lat="43.03434" lon="13.3014233"><ele>488.59999999999997</ele><time>2026-04-18T12:02:02.258Z</time></trkpt><trkpt lat="43.0344067" lon="13.3013433"><ele>490.79999999999995</ele><time>2026-04-18T12:02:03.258Z</time></trkpt><trkpt lat="43.0344617" lon="13.30122"><ele>493.0</ele><time>2026-04-18T12:02:04.258Z</time></trkpt><trkpt lat="43.0345167" lon="13.30111"><ele>493.0</ele><time>2026-04-18T12:02:05.257Z</time></trkpt><trkpt lat="43.034575" lon="13.30099"><ele>492.99999999999994</ele><time>2026-04-18T12:02:06.258Z</time></trkpt><trkpt lat="43.03465" lon="13.3008933"><ele>492.99999999999994</ele><time>2026-04-18T12:02:07.258Z</time></trkpt><trkpt lat="43.03473" lon="13.3008"><ele>493.0</ele><time>2026-04-18T12:02:08.258Z</time></trkpt><trkpt lat="43.0348067" lon="13.300715"><ele>493.0</ele><time>2026-04-18T12:02:09.258Z</time></trkpt><trkpt lat="43.03489" lon="13.3006317"><ele>495.4</ele><time>2026-04-18T12:02:10.258Z</time></trkpt><trkpt lat="43.0349733" lon="13.3005517"><ele>497.79999999999995</ele><time>2026-04-18T12:02:11.258Z</time></trkpt><trkpt lat="43.0350467" lon="13.3004667"><ele>500.2</ele><time>2026-04-18T12:02:12.258Z</time></trkpt><trkpt lat="43.0351267" lon="13.3003867"><ele>502.6</ele><time>2026-04-18T12:02:13.258Z</time></trkpt><trkpt lat="43.0352017" lon="13.3003183"><ele>505.0</ele><time>2026-04-18T12:02:14.258Z</time></trkpt><trkpt lat="43.03525" lon="13.3002383"><ele>505.0</ele><time>2026-04-18T12:02:15.258Z</time></trkpt><trkpt lat="43.0353067" lon="13.30015"><ele>505.0</ele><time>2026-04-18T12:02:16.258Z</time></trkpt><trkpt lat="43.0353583" lon="13.3000467"><ele>505.0</ele><time>2026-04-18T12:02:17.258Z</time></trkpt><trkpt lat="43.035415" lon="13.2999483"><ele>505.0</ele><time>2026-04-18T12:02:18.258Z</time></trkpt><trkpt lat="43.0354733" lon="13.2998433"><ele>505.0</ele><time>2026-04-18T12:02:19.258Z</time></trkpt><trkpt lat="43.0355183" lon="13.2997417"><ele>505.33333333333337</ele><time>2026-04-18T12:02:20.258Z</time></trkpt><trkpt lat="43.03555" lon="13.2996183"><ele>505.6666666666667</ele><time>2026-04-18T12:02:21.258Z</time></trkpt><trkpt lat="43.0355667" lon="13.2995033"><ele>506.0</ele><time>2026-04-18T12:02:22.258Z</time></trkpt><trkpt lat="43.0355733" lon="13.2993883"><ele>506.33333333333337</ele><time>2026-04-18T12:02:23.258Z</time></trkpt><trkpt lat="43.0355817" lon="13.2992833"><ele>506.6666666666667</ele><time>2026-04-18T12:02:24.258Z</time></trkpt><trkpt lat="43.0355933" lon="13.2991667"><ele>507.0</ele><time>2026-04-18T12:02:25.258Z</time></trkpt><trkpt lat="43.0356133" lon="13.299045"><ele>507.0</ele><time>2026-04-18T12:02:26.258Z</time></trkpt><trkpt lat="43.035625" lon="13.29894"><ele>507.0</ele><time>2026-04-18T12:02:27.258Z</time></trkpt><trkpt lat="43.0356567" lon="13.2988317"><ele>507.0</ele><time>2026-04-18T12:02:28.258Z</time></trkpt><trkpt lat="43.0356783" lon="13.2987467"><ele>507.0</ele><time>2026-04-18T12:02:29.258Z</time></trkpt><trkpt lat="43.0357017" lon="13.2986417"><ele>507.0</ele><time>2026-04-18T12:02:30.258Z</time></trkpt><trkpt lat="43.0357433" lon="13.2985217"><ele>507.0</ele><time>2026-04-18T12:02:31.258Z</time></trkpt><trkpt lat="43.0358" lon="13.298415"><ele>509.8</ele><time>2026-04-18T12:02:32.258Z</time></trkpt><trkpt lat="43.03586" lon="13.2983183"><ele>512.6</ele><time>2026-04-18T12:02:33.258Z</time></trkpt><trkpt lat="43.035935" lon="13.298235"><ele>515.4000000000001</ele><time>2026-04-18T12:02:34.258Z</time></trkpt><trkpt lat="43.0360017" lon="13.29815"><ele>518.2</ele><time>2026-04-18T12:02:35.258Z</time></trkpt><trkpt lat="43.0360733" lon="13.29806"><ele>521.0</ele><time>2026-04-18T12:02:36.258Z</time></trkpt><trkpt lat="43.0361567" lon="13.2979733"><ele>521.8</ele><time>2026-04-18T12:02:37.258Z</time></trkpt><trkpt lat="43.0362417" lon="13.2979133"><ele>522.6</ele><time>2026-04-18T12:02:38.258Z</time></trkpt><trkpt lat="43.0363283" lon="13.297885"><ele>523.4</ele><time>2026-04-18T12:02:39.258Z</time></trkpt><trkpt lat="43.0364533" lon="13.2979183"><ele>524.2</ele><time>2026-04-18T12:02:40.258Z</time></trkpt><trkpt lat="43.036565" lon="13.2979267"><ele>525.0</ele><time>2026-04-18T12:02:41.258Z</time></trkpt><trkpt lat="43.03668" lon="13.2979483"><ele>525.75</ele><time>2026-04-18T12:02:42.258Z</time></trkpt><trkpt lat="43.0367933" lon="13.29797"><ele>526.5</ele><time>2026-04-18T12:02:43.258Z</time></trkpt><trkpt lat="43.0369133" lon="13.2979833"><ele>527.25</ele><time>2026-04-18T12:02:44.258Z</time></trkpt><trkpt lat="43.0370317" lon="13.297985"><ele>528.0</ele><time>2026-04-18T12:02:45.258Z</time></trkpt><trkpt lat="43.0371383" lon="13.2979533"><ele>528.0</ele><time>2026-04-18T12:02:46.258Z</time></trkpt><trkpt lat="43.03725" lon="13.2978783"><ele>528.0</ele><time>2026-04-18T12:02:47.258Z</time></trkpt><trkpt lat="43.0373483" lon="13.2977617"><ele>528.0</ele><time>2026-04-18T12:02:48.258Z</time></trkpt><trkpt lat="43.0374417" lon="13.297625"><ele>528.0</ele><time>2026-04-18T12:02:49.258Z</time></trkpt><trkpt lat="43.037535" lon="13.297485"><ele>529.25</ele><time>2026-04-18T12:02:50.258Z</time></trkpt><trkpt lat="43.0376367" lon="13.2973383"><ele>530.5</ele><time>2026-04-18T12:02:51.258Z</time></trkpt><trkpt lat="43.03774" lon="13.2971933"><ele>531.75</ele><time>2026-04-18T12:02:52.258Z</time></trkpt><trkpt lat="43.0378367" lon="13.2970417"><ele>533.0</ele><time>2026-04-18T12:02:53.258Z</time></trkpt><trkpt lat="43.0379433" lon="13.2968933"><ele>533.0</ele><time>2026-04-18T12:02:54.258Z</time></trkpt><trkpt lat="43.0380417" lon="13.296735"><ele>533.0</ele><time>2026-04-18T12:02:55.258Z</time></trkpt><trkpt lat="43.0381433" lon="13.2965833"><ele>533.0</ele><time>2026-04-18T12:02:56.258Z</time></trkpt><trkpt lat="43.0382367" lon="13.2964283"><ele>533.0</ele><time>2026-04-18T12:02:57.258Z</time></trkpt><trkpt lat="43.0383333" lon="13.29628"><ele>530.0</ele><time>2026-04-18T12:02:58.258Z</time></trkpt><trkpt lat="43.0384483" lon="13.296135"><ele>527.0</ele><time>2026-04-18T12:02:59.258Z</time></trkpt><trkpt lat="43.0385417" lon="13.2959717"><ele>524.0</ele><time>2026-04-18T12:03:00.258Z</time></trkpt><trkpt lat="43.0386267" lon="13.2958033"><ele>524.0</ele><time>2026-04-18T12:03:01.258Z</time></trkpt><trkpt lat="43.0387033" lon="13.2956133"><ele>524.0</ele><time>2026-04-18T12:03:02.258Z</time></trkpt><trkpt lat="43.03876" lon="13.2954083"><ele>524.0</ele><time>2026-04-18T12:03:03.258Z</time></trkpt><trkpt lat="43.0388" lon="13.2951767"><ele>526.6666666666666</ele><time>2026-04-18T12:03:04.258Z</time></trkpt><trkpt lat="43.0388317" lon="13.294945"><ele>529.3333333333334</ele><time>2026-04-18T12:03:05.258Z</time></trkpt><trkpt lat="43.0388567" lon="13.2947217"><ele>532.0</ele><time>2026-04-18T12:03:06.258Z</time></trkpt><trkpt lat="43.038875" lon="13.2944983"><ele>532.0</ele><time>2026-04-18T12:03:07.258Z</time></trkpt><trkpt lat="43.0388767" lon="13.2942783"><ele>532.0</ele><time>2026-04-18T12:03:08.258Z</time></trkpt><trkpt lat="43.03887" lon="13.2940583"><ele>532.0</ele><time>2026-04-18T12:03:09.258Z</time></trkpt><trkpt lat="43.0388567" lon="13.2938533"><ele>531.0</ele><time>2026-04-18T12:03:10.258Z</time></trkpt><trkpt lat="43.03885" lon="13.2936767"><ele>530.0</ele><time>2026-04-18T12:03:11.258Z</time></trkpt><trkpt lat="43.03887" lon="13.2934967"><ele>529.0</ele><time>2026-04-18T12:03:12.258Z</time></trkpt><trkpt lat="43.038945" lon="13.2933283"><ele>528.0</ele><time>2026-04-18T12:03:13.258Z</time></trkpt><trkpt lat="43.0390294" lon="13.2931714"><ele>527.3333333333334</ele><time>2026-04-18T12:03:14.258Z</time></trkpt><trkpt lat="43.0391283" lon="13.2930151"><ele>526.6666666666667</ele><time>2026-04-18T12:03:15.258Z</time></trkpt><trkpt lat="43.0392214" lon="13.2928466"><ele>526.0</ele><time>2026-04-18T12:03:16.258Z</time></trkpt><trkpt lat="43.039297" lon="13.2926535"><ele>524.6666666666667</ele><time>2026-04-18T12:03:17.258Z</time></trkpt><trkpt lat="43.0393589" lon="13.2924483"><ele>523.3333333333334</ele><time>2026-04-18T12:03:18.258Z</time></trkpt><trkpt lat="43.0394188" lon="13.2922298"><ele>522.0</ele><time>2026-04-18T12:03:19.258Z</time></trkpt><trkpt lat="43.0394699" lon="13.2920009"><ele>522.0</ele><time>2026-04-18T12:03:20.258Z</time></trkpt><trkpt lat="43.0395171" lon="13.2917617"><ele>522.0</ele><time>2026-04-18T12:03:21.258Z</time></trkpt><trkpt lat="43.0395667" lon="13.2915145"><ele>522.0</ele><time>2026-04-18T12:03:22.258Z</time></trkpt><trkpt lat="43.0396228" lon="13.2912712"><ele>522.6666666666666</ele><time>2026-04-18T12:03:23.258Z</time></trkpt><trkpt lat="43.0396864" lon="13.291034"><ele>523.3333333333333</ele><time>2026-04-18T12:03:24.258Z</time></trkpt><trkpt lat="43.0397606" lon="13.2908003"><ele>524.0</ele><time>2026-04-18T12:03:25.258Z</time></trkpt><trkpt lat="43.0398392" lon="13.2905651"><ele>524.3333333333333</ele><time>2026-04-18T12:03:26.258Z</time></trkpt><trkpt lat="43.0399183" lon="13.2903266"><ele>524.6666666666666</ele><time>2026-04-18T12:03:27.258Z</time></trkpt><trkpt lat="43.04" lon="13.2900878"><ele>525.0</ele><time>2026-04-18T12:03:28.258Z</time></trkpt><trkpt lat="43.0400785" lon="13.2898527"><ele>517.6666666666666</ele><time>2026-04-18T12:03:29.258Z</time></trkpt><trkpt lat="43.0401598" lon="13.2896248"><ele>510.3333333333333</ele><time>2026-04-18T12:03:30.258Z</time></trkpt><trkpt lat="43.040243" lon="13.2893956"><ele>503.0</ele><time>2026-04-18T12:03:31.258Z</time></trkpt><trkpt lat="43.0403404" lon="13.2891759"><ele>503.0</ele><time>2026-04-18T12:03:32.258Z</time></trkpt><trkpt lat="43.0404564" lon="13.2889678"><ele>503.0</ele><time>2026-04-18T12:03:33.258Z</time></trkpt><trkpt lat="43.0405753" lon="13.2887573"><ele>503.0</ele><time>2026-04-18T12:03:34.258Z</time></trkpt><trkpt lat="43.04069" lon="13.2885419"><ele>502.0</ele><time>2026-04-18T12:03:35.258Z</time></trkpt><trkpt lat="43.0408" lon="13.2883267"><ele>501.0</ele><time>2026-04-18T12:03:36.258Z</time></trkpt><trkpt lat="43.0409096" lon="13.2881145"><ele>500.0</ele><time>2026-04-18T12:03:37.258Z</time></trkpt><trkpt lat="43.0410182" lon="13.2879124"><ele>500.0</ele><time>2026-04-18T12:03:38.258Z</time></trkpt><trkpt lat="43.0411211" lon="13.2877198"><ele>500.0</ele><time>2026-04-18T12:03:39.258Z</time></trkpt><trkpt lat="43.0412285" lon="13.2875288"><ele>500.0</ele><time>2026-04-18T12:03:40.258Z</time></trkpt><trkpt lat="43.0413574" lon="13.28736"><ele>501.0</ele><time>2026-04-18T12:03:41.258Z</time></trkpt><trkpt lat="43.0414966" lon="13.2872208"><ele>502.0</ele><time>2026-04-18T12:03:42.258Z</time></trkpt><trkpt lat="43.0416476" lon="13.2871096"><ele>503.0</ele><time>2026-04-18T12:03:43.258Z</time></trkpt><trkpt lat="43.041816" lon="13.2870159"><ele>503.0</ele><time>2026-04-18T12:03:44.258Z</time></trkpt><trkpt lat="43.0419986" lon="13.2869473"><ele>503.0</ele><time>2026-04-18T12:03:45.258Z</time></trkpt><trkpt lat="43.042188" lon="13.2868866"><ele>503.0</ele><time>2026-04-18T12:03:46.258Z</time></trkpt><trkpt lat="43.0423839" lon="13.2868206"><ele>500.0</ele><time>2026-04-18T12:03:47.258Z</time></trkpt><trkpt lat="43.042579" lon="13.2867156"><ele>497.0</ele><time>2026-04-18T12:03:48.258Z</time></trkpt><trkpt lat="43.0427598" lon="13.2865863"><ele>494.0</ele><time>2026-04-18T12:03:49.258Z</time></trkpt><trkpt lat="43.0429302" lon="13.2864395"><ele>494.66666666666663</ele><time>2026-04-18T12:03:50.258Z</time></trkpt><trkpt lat="43.0430781" lon="13.2862642"><ele>495.33333333333337</ele><time>2026-04-18T12:03:51.258Z</time></trkpt><trkpt lat="43.0432069" lon="13.2860708"><ele>496.0</ele><time>2026-04-18T12:03:52.258Z</time></trkpt><trkpt lat="43.043319" lon="13.2858701"><ele>496.0</ele><time>2026-04-18T12:03:53.258Z</time></trkpt><trkpt lat="43.0433854" lon="13.2856326"><ele>496.0</ele><time>2026-04-18T12:03:54.258Z</time></trkpt><trkpt lat="43.0434693" lon="13.285418"><ele>496.0</ele><time>2026-04-18T12:03:55.257Z</time></trkpt><trkpt lat="43.0435237" lon="13.2851802"><ele>499.33333333333337</ele><time>2026-04-18T12:03:56.258Z</time></trkpt><trkpt lat="43.0436121" lon="13.2849731"><ele>502.66666666666663</ele><time>2026-04-18T12:03:57.258Z</time></trkpt><trkpt lat="43.0437256" lon="13.2847977"><ele>506.0</ele><time>2026-04-18T12:03:58.258Z</time></trkpt><trkpt lat="43.0438485" lon="13.2846423"><ele>507.3333333333333</ele><time>2026-04-18T12:03:59.258Z</time></trkpt><trkpt lat="43.043989" lon="13.2844956"><ele>508.66666666666663</ele><time>2026-04-18T12:04:00.258Z</time></trkpt><trkpt lat="43.044137" lon="13.2843513"><ele>510.0</ele><time>2026-04-18T12:04:01.258Z</time></trkpt><trkpt lat="43.0442828" lon="13.2842081"><ele>510.0</ele><time>2026-04-18T12:04:02.258Z</time></trkpt><trkpt lat="43.0444271" lon="13.2840572"><ele>510.0</ele><time>2026-04-18T12:04:03.258Z</time></trkpt><trkpt lat="43.0445706" lon="13.2839039"><ele>510.0</ele><time>2026-04-18T12:04:04.258Z</time></trkpt><trkpt lat="43.0447161" lon="13.2837586"><ele>512.0</ele><time>2026-04-18T12:04:05.258Z</time></trkpt><trkpt lat="43.0448711" lon="13.2836215"><ele>514.0</ele><time>2026-04-18T12:04:06.258Z</time></trkpt><trkpt lat="43.0450375" lon="13.2834936"><ele>516.0</ele><time>2026-04-18T12:04:07.258Z</time></trkpt><trkpt lat="43.0452089" lon="13.2833823"><ele>514.0</ele><time>2026-04-18T12:04:08.257Z</time></trkpt><trkpt lat="43.0453818" lon="13.2832797"><ele>512.0</ele><time>2026-04-18T12:04:09.257Z</time></trkpt><trkpt lat="43.0455526" lon="13.2831805"><ele>510.0</ele><time>2026-04-18T12:04:10.258Z</time></trkpt><trkpt lat="43.0457167" lon="13.2830785"><ele>508.33333333333337</ele><time>2026-04-18T12:04:11.258Z</time></trkpt><trkpt lat="43.0458662" lon="13.282955"><ele>506.6666666666667</ele><time>2026-04-18T12:04:12.258Z</time></trkpt><trkpt lat="43.0460081" lon="13.2828179"><ele>505.0</ele><time>2026-04-18T12:04:13.258Z</time></trkpt><trkpt lat="43.0461287" lon="13.2826548"><ele>505.0</ele><time>2026-04-18T12:04:14.258Z</time></trkpt><trkpt lat="43.0462402" lon="13.2824878"><ele>505.0</ele><time>2026-04-18T12:04:15.258Z</time></trkpt><trkpt lat="43.0463455" lon="13.2823251"><ele>505.0</ele><time>2026-04-18T12:04:16.258Z</time></trkpt><trkpt lat="43.0464451" lon="13.2821812"><ele>504.25</ele><time>2026-04-18T12:04:17.258Z</time></trkpt><trkpt lat="43.0465639" lon="13.2820805"><ele>503.5</ele><time>2026-04-18T12:04:18.258Z</time></trkpt><trkpt lat="43.0466886" lon="13.2819954"><ele>502.75</ele><time>2026-04-18T12:04:19.258Z</time></trkpt><trkpt lat="43.0468245" lon="13.28194"><ele>502.0</ele><time>2026-04-18T12:04:20.258Z</time></trkpt><trkpt lat="43.046976" lon="13.2819039"><ele>505.0</ele><time>2026-04-18T12:04:21.257Z</time></trkpt><trkpt lat="43.0471324" lon="13.2818748"><ele>508.0</ele><time>2026-04-18T12:04:22.258Z</time></trkpt><trkpt lat="43.0472662" lon="13.2818457"><ele>511.0</ele><time>2026-04-18T12:04:23.258Z</time></trkpt><trkpt lat="43.0473849" lon="13.2818122"><ele>514.0</ele><time>2026-04-18T12:04:24.258Z</time></trkpt><trkpt lat="43.0474942" lon="13.2817828"><ele>514.75</ele><time>2026-04-18T12:04:25.258Z</time></trkpt><trkpt lat="43.047602" lon="13.2817528"><ele>515.5</ele><time>2026-04-18T12:04:26.258Z</time></trkpt><trkpt lat="43.0477133" lon="13.2817134"><ele>516.25</ele><time>2026-04-18T12:04:27.258Z</time></trkpt><trkpt lat="43.0478341" lon="13.281661"><ele>517.0</ele><time>2026-04-18T12:04:28.258Z</time></trkpt><trkpt lat="43.0479483" lon="13.2815892"><ele>517.0</ele><time>2026-04-18T12:04:29.258Z</time></trkpt><trkpt lat="43.0480598" lon="13.2815031"><ele>517.0</ele><time>2026-04-18T12:04:30.258Z</time></trkpt><trkpt lat="43.0481627" lon="13.2813942"><ele>517.0</ele><time>2026-04-18T12:04:31.258Z</time></trkpt><trkpt lat="43.0482624" lon="13.2812751"><ele>517.0</ele><time>2026-04-18T12:04:32.258Z</time></trkpt><trkpt lat="43.0483602" lon="13.2811531"><ele>518.25</ele><time>2026-04-18T12:04:33.258Z</time></trkpt><trkpt lat="43.0484524" lon="13.2810251"><ele>519.5</ele><time>2026-04-18T12:04:34.258Z</time></trkpt><trkpt lat="43.0485405" lon="13.2808954"><ele>520.75</ele><time>2026-04-18T12:04:35.258Z</time></trkpt><trkpt lat="43.0486166" lon="13.2807693"><ele>522.0</ele><time>2026-04-18T12:04:36.258Z</time></trkpt><trkpt lat="43.0486784" lon="13.2806436"><ele>522.6</ele><time>2026-04-18T12:04:37.258Z</time></trkpt><trkpt lat="43.0487244" lon="13.2805276"><ele>523.2</ele><time>2026-04-18T12:04:38.258Z</time></trkpt><trkpt lat="43.0487599" lon="13.2804416"><ele>523.8</ele><time>2026-04-18T12:04:39.258Z</time></trkpt><trkpt lat="43.0488291" lon="13.2803595"><ele>524.4</ele><time>2026-04-18T12:04:41.258Z</time></trkpt><trkpt lat="43.0489212" lon="13.2803658"><ele>525.0</ele><time>2026-04-18T12:04:43.258Z</time></trkpt><trkpt lat="43.0490347" lon="13.2803857"><ele>526.4</ele><time>2026-04-18T12:04:45.258Z</time></trkpt><trkpt lat="43.0491606" lon="13.2803823"><ele>527.8</ele><time>2026-04-18T12:04:47.258Z</time></trkpt><trkpt lat="43.0492338" lon="13.280369"><ele>529.2</ele><time>2026-04-18T12:04:48.258Z</time></trkpt><trkpt lat="43.049311" lon="13.2803417"><ele>530.6</ele><time>2026-04-18T12:04:49.258Z</time></trkpt><trkpt lat="43.0493967" lon="13.2803024"><ele>532.0</ele><time>2026-04-18T12:04:50.258Z</time></trkpt><trkpt lat="43.0494846" lon="13.2802587"><ele>532.0</ele><time>2026-04-18T12:04:51.258Z</time></trkpt><trkpt lat="43.0495767" lon="13.2802181"><ele>532.0</ele><time>2026-04-18T12:04:52.258Z</time></trkpt><trkpt lat="43.0496772" lon="13.2801805"><ele>532.0</ele><time>2026-04-18T12:04:53.258Z</time></trkpt><trkpt lat="43.0497819" lon="13.2801553"><ele>532.0</ele><time>2026-04-18T12:04:54.258Z</time></trkpt><trkpt lat="43.049883" lon="13.2801442"><ele>532.0</ele><time>2026-04-18T12:04:55.258Z</time></trkpt><trkpt lat="43.0499799" lon="13.2801494"><ele>534.25</ele><time>2026-04-18T12:04:56.258Z</time></trkpt><trkpt lat="43.0500828" lon="13.2801653"><ele>536.5</ele><time>2026-04-18T12:04:57.258Z</time></trkpt><trkpt lat="43.0501937" lon="13.2801748"><ele>538.75</ele><time>2026-04-18T12:04:58.257Z</time></trkpt><trkpt lat="43.0503154" lon="13.2801789"><ele>541.0</ele><time>2026-04-18T12:04:59.258Z</time></trkpt><trkpt lat="43.0504363" lon="13.2802007"><ele>541.0</ele><time>2026-04-18T12:05:00.258Z</time></trkpt><trkpt lat="43.050559" lon="13.2802703"><ele>541.0</ele><time>2026-04-18T12:05:01.258Z</time></trkpt><trkpt lat="43.0506749" lon="13.280357"><ele>541.0</ele><time>2026-04-18T12:05:02.258Z</time></trkpt><trkpt lat="43.0507745" lon="13.2804546"><ele>541.0</ele><time>2026-04-18T12:05:03.258Z</time></trkpt><trkpt lat="43.0508581" lon="13.2805846"><ele>542.6</ele><time>2026-04-18T12:05:04.258Z</time></trkpt><trkpt lat="43.0509274" lon="13.2807272"><ele>544.2</ele><time>2026-04-18T12:05:05.258Z</time></trkpt><trkpt lat="43.0509824" lon="13.2808629"><ele>545.8</ele><time>2026-04-18T12:05:06.258Z</time></trkpt><trkpt lat="43.0510307" lon="13.2809859"><ele>547.4</ele><time>2026-04-18T12:05:07.258Z</time></trkpt><trkpt lat="43.051082" lon="13.2810958"><ele>549.0</ele><time>2026-04-18T12:05:08.258Z</time></trkpt><trkpt lat="43.0511421" lon="13.2811998"><ele>549.0</ele><time>2026-04-18T12:05:09.258Z</time></trkpt><trkpt lat="43.0512187" lon="13.2813065"><ele>549.0</ele><time>2026-04-18T12:05:10.258Z</time></trkpt><trkpt lat="43.0513148" lon="13.281417"><ele>549.0</ele><time>2026-04-18T12:05:11.258Z</time></trkpt><trkpt lat="43.0514235" lon="13.281529"><ele>549.0</ele><time>2026-04-18T12:05:12.258Z</time></trkpt><trkpt lat="43.0515301" lon="13.281634"><ele>548.4</ele><time>2026-04-18T12:05:13.258Z</time></trkpt><trkpt lat="43.0516169" lon="13.2817203"><ele>547.8</ele><time>2026-04-18T12:05:14.258Z</time></trkpt><trkpt lat="43.0516967" lon="13.2817914"><ele>547.2</ele><time>2026-04-18T12:05:15.258Z</time></trkpt><trkpt lat="43.0517789" lon="13.2818479"><ele>546.6</ele><time>2026-04-18T12:05:16.258Z</time></trkpt><trkpt lat="43.0518805" lon="13.2818931"><ele>546.0</ele><time>2026-04-18T12:05:17.258Z</time></trkpt><trkpt lat="43.0519984" lon="13.2819335"><ele>547.75</ele><time>2026-04-18T12:05:18.258Z</time></trkpt><trkpt lat="43.0521242" lon="13.2819888"><ele>549.5</ele><time>2026-04-18T12:05:19.257Z</time></trkpt><trkpt lat="43.0522436" lon="13.2820573"><ele>551.25</ele><time>2026-04-18T12:05:20.258Z</time></trkpt><trkpt lat="43.0523479" lon="13.2821252"><ele>553.0</ele><time>2026-04-18T12:05:21.258Z</time></trkpt><trkpt lat="43.0524469" lon="13.2821937"><ele>552.0</ele><time>2026-04-18T12:05:22.258Z</time></trkpt><trkpt lat="43.0525472" lon="13.2822701"><ele>551.0</ele><time>2026-04-18T12:05:23.258Z</time></trkpt><trkpt lat="43.0526397" lon="13.282375"><ele>550.0</ele><time>2026-04-18T12:05:24.258Z</time></trkpt><trkpt lat="43.0527267" lon="13.2825267"><ele>549.0</ele><time>2026-04-18T12:05:25.258Z</time></trkpt><trkpt lat="43.0528" lon="13.2826633"><ele>549.0</ele><time>2026-04-18T12:05:26.258Z</time></trkpt><trkpt lat="43.0528733" lon="13.2828"><ele>549.0</ele><time>2026-04-18T12:05:27.258Z</time></trkpt><trkpt lat="43.05293" lon="13.2829433"><ele>549.0</ele><time>2026-04-18T12:05:28.258Z</time></trkpt><trkpt lat="43.05299" lon="13.2830883"><ele>549.0</ele><time>2026-04-18T12:05:29.258Z</time></trkpt><trkpt lat="43.0530583" lon="13.2832367"><ele>547.25</ele><time>2026-04-18T12:05:30.258Z</time></trkpt><trkpt lat="43.0531167" lon="13.28339"><ele>545.5</ele><time>2026-04-18T12:05:31.258Z</time></trkpt><trkpt lat="43.0531717" lon="13.2835433"><ele>543.75</ele><time>2026-04-18T12:05:32.258Z</time></trkpt><trkpt lat="43.053225" lon="13.2836783"><ele>542.0</ele><time>2026-04-18T12:05:33.258Z</time></trkpt><trkpt lat="43.0532833" lon="13.2838083"><ele>543.75</ele><time>2026-04-18T12:05:34.258Z</time></trkpt><trkpt lat="43.053345" lon="13.2839333"><ele>545.5</ele><time>2026-04-18T12:05:35.258Z</time></trkpt><trkpt lat="43.0534117" lon="13.28406"><ele>547.25</ele><time>2026-04-18T12:05:36.258Z</time></trkpt><trkpt lat="43.053485" lon="13.2842017"><ele>549.0</ele><time>2026-04-18T12:05:37.258Z</time></trkpt><trkpt lat="43.053575" lon="13.2843467"><ele>549.0</ele><time>2026-04-18T12:05:38.258Z</time></trkpt><trkpt lat="43.053665" lon="13.28449"><ele>549.0</ele><time>2026-04-18T12:05:39.258Z</time></trkpt><trkpt lat="43.0537633" lon="13.28463"><ele>549.0</ele><time>2026-04-18T12:05:40.258Z</time></trkpt><trkpt lat="43.053875" lon="13.28477"><ele>549.0</ele><time>2026-04-18T12:05:41.258Z</time></trkpt><trkpt lat="43.05398" lon="13.2849217"><ele>549.25</ele><time>2026-04-18T12:05:42.258Z</time></trkpt><trkpt lat="43.0540617" lon="13.2850633"><ele>549.5</ele><time>2026-04-18T12:05:43.258Z</time></trkpt><trkpt lat="43.05414" lon="13.2852"><ele>549.75</ele><time>2026-04-18T12:05:44.258Z</time></trkpt><trkpt lat="43.054205" lon="13.2853233"><ele>550.0</ele><time>2026-04-18T12:05:45.258Z</time></trkpt><trkpt lat="43.054255" lon="13.2854383"><ele>550.0</ele><time>2026-04-18T12:05:46.258Z</time></trkpt><trkpt lat="43.0542983" lon="13.2855483"><ele>550.0</ele><time>2026-04-18T12:05:47.258Z</time></trkpt><trkpt lat="43.0542983" lon="13.2856617"><ele>550.0</ele><time>2026-04-18T12:05:48.258Z</time></trkpt><trkpt lat="43.0542883" lon="13.2857983"><ele>550.0</ele><time>2026-04-18T12:05:49.258Z</time></trkpt><trkpt lat="43.0542517" lon="13.2859433"><ele>550.0</ele><time>2026-04-18T12:05:50.258Z</time></trkpt><trkpt lat="43.0542083" lon="13.2860867"><ele>549.5</ele><time>2026-04-18T12:05:51.258Z</time></trkpt><trkpt lat="43.054165" lon="13.2862167"><ele>549.0</ele><time>2026-04-18T12:05:52.258Z</time></trkpt><trkpt lat="43.0540933" lon="13.2863567"><ele>548.5</ele><time>2026-04-18T12:05:53.258Z</time></trkpt><trkpt lat="43.0540267" lon="13.2865033"><ele>548.0</ele><time>2026-04-18T12:05:54.258Z</time></trkpt><trkpt lat="43.0539367" lon="13.2866583"><ele>552.3333333333333</ele><time>2026-04-18T12:05:55.257Z</time></trkpt><trkpt lat="43.0538283" lon="13.28681"><ele>556.6666666666666</ele><time>2026-04-18T12:05:56.258Z</time></trkpt><trkpt lat="43.0537217" lon="13.2869533"><ele>561.0</ele><time>2026-04-18T12:05:57.258Z</time></trkpt><trkpt lat="43.0536017" lon="13.28709"><ele>561.0</ele><time>2026-04-18T12:05:58.258Z</time></trkpt><trkpt lat="43.0534733" lon="13.2872417"><ele>561.0</ele><time>2026-04-18T12:05:59.258Z</time></trkpt><trkpt lat="43.05335" lon="13.2873933"><ele>561.0</ele><time>2026-04-18T12:06:00.258Z</time></trkpt><trkpt lat="43.0532283" lon="13.2875467"><ele>562.75</ele><time>2026-04-18T12:06:01.258Z</time></trkpt><trkpt lat="43.0531233" lon="13.2876917"><ele>564.5</ele><time>2026-04-18T12:06:02.258Z</time></trkpt><trkpt lat="43.0530217" lon="13.2878517"><ele>566.25</ele><time>2026-04-18T12:06:03.258Z</time></trkpt><trkpt lat="43.05294" lon="13.2879917"><ele>568.0</ele><time>2026-04-18T12:06:04.258Z</time></trkpt><trkpt lat="43.0528683" lon="13.2881333"><ele>568.0</ele><time>2026-04-18T12:06:05.257Z</time></trkpt><trkpt lat="43.0527883" lon="13.2882483"><ele>568.0</ele><time>2026-04-18T12:06:06.257Z</time></trkpt><trkpt lat="43.0527133" lon="13.2883433"><ele>568.0</ele><time>2026-04-18T12:06:07.258Z</time></trkpt><trkpt lat="43.0526467" lon="13.2884267"><ele>568.0</ele><time>2026-04-18T12:06:08.258Z</time></trkpt><trkpt lat="43.0526033" lon="13.2884917"><ele>568.0</ele><time>2026-04-18T12:06:09.258Z</time></trkpt><trkpt lat="43.052545" lon="13.2886217"><ele>568.0</ele><time>2026-04-18T12:06:11.258Z</time></trkpt><trkpt lat="43.0525633" lon="13.2887917"><ele>568.0</ele><time>2026-04-18T12:06:13.258Z</time></trkpt><trkpt lat="43.052625" lon="13.2888733"><ele>568.0</ele><time>2026-04-18T12:06:14.258Z</time></trkpt><trkpt lat="43.052715" lon="13.28894"><ele>568.0</ele><time>2026-04-18T12:06:15.258Z</time></trkpt><trkpt lat="43.0528117" lon="13.28901"><ele>568.0</ele><time>2026-04-18T12:06:16.258Z</time></trkpt><trkpt lat="43.0528733" lon="13.2890767"><ele>569.8</ele><time>2026-04-18T12:06:17.258Z</time></trkpt><trkpt lat="43.0529" lon="13.2891567"><ele>571.5999999999999</ele><time>2026-04-18T12:06:18.258Z</time></trkpt><trkpt lat="43.052895" lon="13.2893133"><ele>573.4000000000001</ele><time>2026-04-18T12:06:20.258Z</time></trkpt><trkpt lat="43.0528583" lon="13.289405"><ele>575.2</ele><time>2026-04-18T12:06:21.258Z</time></trkpt><trkpt lat="43.05279" lon="13.2895033"><ele>577.0</ele><time>2026-04-18T12:06:22.258Z</time></trkpt><trkpt lat="43.0526983" lon="13.2896067"><ele>577.0</ele><time>2026-04-18T12:06:23.258Z</time></trkpt><trkpt lat="43.052605" lon="13.28972"><ele>577.0</ele><time>2026-04-18T12:06:24.258Z</time></trkpt><trkpt lat="43.05253" lon="13.289815"><ele>577.0</ele><time>2026-04-18T12:06:25.258Z</time></trkpt><trkpt lat="43.05247" lon="13.289915"><ele>577.0</ele><time>2026-04-18T12:06:26.258Z</time></trkpt><trkpt lat="43.0524283" lon="13.2900267"><ele>577.0</ele><time>2026-04-18T12:06:27.258Z</time></trkpt><trkpt lat="43.0524117" lon="13.290115"><ele>577.2</ele><time>2026-04-18T12:06:28.258Z</time></trkpt><trkpt lat="43.0524267" lon="13.2902617"><ele>577.4000000000001</ele><time>2026-04-18T12:06:30.258Z</time></trkpt><trkpt lat="43.05252" lon="13.290375"><ele>577.5999999999999</ele><time>2026-04-18T12:06:32.258Z</time></trkpt><trkpt lat="43.0526083" lon="13.2904117"><ele>577.8</ele><time>2026-04-18T12:06:33.258Z</time></trkpt><trkpt lat="43.0527117" lon="13.2904317"><ele>578.0</ele><time>2026-04-18T12:06:34.258Z</time></trkpt><trkpt lat="43.0527983" lon="13.2904333"><ele>578.0</ele><time>2026-04-18T12:06:35.258Z</time></trkpt><trkpt lat="43.0529167" lon="13.2904433"><ele>578.0</ele><time>2026-04-18T12:06:36.258Z</time></trkpt><trkpt lat="43.05303" lon="13.2904583"><ele>578.0</ele><time>2026-04-18T12:06:37.258Z</time></trkpt><trkpt lat="43.0531283" lon="13.2904783"><ele>578.0</ele><time>2026-04-18T12:06:38.258Z</time></trkpt><trkpt lat="43.0532167" lon="13.2905217"><ele>578.0</ele><time>2026-04-18T12:06:39.258Z</time></trkpt><trkpt lat="43.0532833" lon="13.2905867"><ele>578.0</ele><time>2026-04-18T12:06:40.258Z</time></trkpt><trkpt lat="43.053325" lon="13.290695"><ele>578.0</ele><time>2026-04-18T12:06:41.258Z</time></trkpt><trkpt lat="43.053345" lon="13.2908117"><ele>578.0</ele><time>2026-04-18T12:06:42.258Z</time></trkpt><trkpt lat="43.0533383" lon="13.29091"><ele>578.0</ele><time>2026-04-18T12:06:43.258Z</time></trkpt><trkpt lat="43.0533067" lon="13.2910033"><ele>578.0</ele><time>2026-04-18T12:06:44.258Z</time></trkpt><trkpt lat="43.05324" lon="13.2911"><ele>578.0</ele><time>2026-04-18T12:06:45.258Z</time></trkpt><trkpt lat="43.0531767" lon="13.291225"><ele>579.75</ele><time>2026-04-18T12:06:46.258Z</time></trkpt><trkpt lat="43.053105" lon="13.2913867"><ele>581.5</ele><time>2026-04-18T12:06:47.257Z</time></trkpt><trkpt lat="43.053045" lon="13.2915767"><ele>583.25</ele><time>2026-04-18T12:06:48.258Z</time></trkpt><trkpt lat="43.0529867" lon="13.2917283"><ele>585.0</ele><time>2026-04-18T12:06:49.257Z</time></trkpt><trkpt lat="43.0529483" lon="13.2918667"><ele>588.0</ele><time>2026-04-18T12:06:50.258Z</time></trkpt><trkpt lat="43.0529233" lon="13.291995"><ele>591.0</ele><time>2026-04-18T12:06:51.258Z</time></trkpt><trkpt lat="43.052905" lon="13.2921183"><ele>594.0</ele><time>2026-04-18T12:06:52.258Z</time></trkpt><trkpt lat="43.052895" lon="13.2922533"><ele>597.0</ele><time>2026-04-18T12:06:53.258Z</time></trkpt><trkpt lat="43.0528733" lon="13.292395"><ele>600.0</ele><time>2026-04-18T12:06:54.258Z</time></trkpt><trkpt lat="43.05286" lon="13.2925283"><ele>600.4</ele><time>2026-04-18T12:06:55.258Z</time></trkpt><trkpt lat="43.0528633" lon="13.2926733"><ele>600.8</ele><time>2026-04-18T12:06:56.258Z</time></trkpt><trkpt lat="43.0528783" lon="13.2928017"><ele>601.2</ele><time>2026-04-18T12:06:57.258Z</time></trkpt><trkpt lat="43.052905" lon="13.2929283"><ele>601.6</ele><time>2026-04-18T12:06:58.257Z</time></trkpt><trkpt lat="43.052935" lon="13.29304"><ele>602.0</ele><time>2026-04-18T12:06:59.258Z</time></trkpt><trkpt lat="43.0529633" lon="13.2931367"><ele>602.5</ele><time>2026-04-18T12:07:00.258Z</time></trkpt><trkpt lat="43.0529967" lon="13.2932367"><ele>603.0</ele><time>2026-04-18T12:07:01.258Z</time></trkpt><trkpt lat="43.0530383" lon="13.29333"><ele>603.5</ele><time>2026-04-18T12:07:02.258Z</time></trkpt><trkpt lat="43.0530767" lon="13.293425"><ele>604.0</ele><time>2026-04-18T12:07:03.258Z</time></trkpt><trkpt lat="43.0531183" lon="13.2935167"><ele>604.5</ele><time>2026-04-18T12:07:04.258Z</time></trkpt><trkpt lat="43.0531617" lon="13.293605"><ele>605.0</ele><time>2026-04-18T12:07:05.258Z</time></trkpt><trkpt lat="43.0531983" lon="13.293695"><ele>605.0</ele><time>2026-04-18T12:07:06.257Z</time></trkpt><trkpt lat="43.053255" lon="13.2938067"><ele>605.0</ele><time>2026-04-18T12:07:07.258Z</time></trkpt><trkpt lat="43.0532983" lon="13.2939583"><ele>605.0</ele><time>2026-04-18T12:07:08.258Z</time></trkpt><trkpt lat="43.0533117" lon="13.2941333"><ele>605.0</ele><time>2026-04-18T12:07:09.258Z</time></trkpt><trkpt lat="43.0533133" lon="13.294325"><ele>597.6666666666666</ele><time>2026-04-18T12:07:10.258Z</time></trkpt><trkpt lat="43.0533383" lon="13.294575"><ele>590.3333333333334</ele><time>2026-04-18T12:07:11.258Z</time></trkpt><trkpt lat="43.05336" lon="13.2948333"><ele>583.0</ele><time>2026-04-18T12:07:12.258Z</time></trkpt><trkpt lat="43.053385" lon="13.2950633"><ele>582.25</ele><time>2026-04-18T12:07:13.257Z</time></trkpt><trkpt lat="43.0534117" lon="13.2952583"><ele>581.5</ele><time>2026-04-18T12:07:14.258Z</time></trkpt><trkpt lat="43.0534467" lon="13.2954283"><ele>580.75</ele><time>2026-04-18T12:07:15.258Z</time></trkpt><trkpt lat="43.0535017" lon="13.2955633"><ele>580.0</ele><time>2026-04-18T12:07:16.258Z</time></trkpt><trkpt lat="43.053555" lon="13.2956933"><ele>579.8</ele><time>2026-04-18T12:07:17.258Z</time></trkpt><trkpt lat="43.053605" lon="13.29582"><ele>579.6</ele><time>2026-04-18T12:07:18.258Z</time></trkpt><trkpt lat="43.0536433" lon="13.2959333"><ele>579.4</ele><time>2026-04-18T12:07:19.258Z</time></trkpt><trkpt lat="43.05369" lon="13.2960583"><ele>579.2</ele><time>2026-04-18T12:07:20.258Z</time></trkpt><trkpt lat="43.0537517" lon="13.2961567"><ele>579.0</ele><time>2026-04-18T12:07:21.258Z</time></trkpt><trkpt lat="43.05383" lon="13.2962433"><ele>579.0</ele><time>2026-04-18T12:07:22.258Z</time></trkpt><trkpt lat="43.0539333" lon="13.2963133"><ele>579.0</ele><time>2026-04-18T12:07:23.258Z</time></trkpt><trkpt lat="43.05406" lon="13.29637"><ele>579.0</ele><time>2026-04-18T12:07:24.258Z</time></trkpt><trkpt lat="43.0542067" lon="13.29642"><ele>579.0</ele><time>2026-04-18T12:07:25.258Z</time></trkpt><trkpt lat="43.0543517" lon="13.29647"><ele>576.25</ele><time>2026-04-18T12:07:26.258Z</time></trkpt><trkpt lat="43.054475" lon="13.2965183"><ele>573.5</ele><time>2026-04-18T12:07:27.258Z</time></trkpt><trkpt lat="43.05459" lon="13.2965717"><ele>570.75</ele><time>2026-04-18T12:07:28.258Z</time></trkpt><trkpt lat="43.0546983" lon="13.2966167"><ele>568.0</ele><time>2026-04-18T12:07:29.258Z</time></trkpt><trkpt lat="43.0547917" lon="13.2966583"><ele>568.0</ele><time>2026-04-18T12:07:30.258Z</time></trkpt><trkpt lat="43.0548683" lon="13.296695"><ele>568.0</ele><time>2026-04-18T12:07:31.258Z</time></trkpt><trkpt lat="43.0549383" lon="13.2967467"><ele>568.0</ele><time>2026-04-18T12:07:32.258Z</time></trkpt><trkpt lat="43.05501" lon="13.2968733"><ele>568.0</ele><time>2026-04-18T12:07:34.258Z</time></trkpt><trkpt lat="43.055025" lon="13.296985"><ele>568.0</ele><time>2026-04-18T12:07:35.258Z</time></trkpt><trkpt lat="43.05503" lon="13.29712"><ele>567.5</ele><time>2026-04-18T12:07:36.258Z</time></trkpt><trkpt lat="43.05504" lon="13.2972517"><ele>567.0</ele><time>2026-04-18T12:07:37.258Z</time></trkpt><trkpt lat="43.05505" lon="13.2973517"><ele>566.5</ele><time>2026-04-18T12:07:38.258Z</time></trkpt><trkpt lat="43.05504" lon="13.2974917"><ele>566.0</ele><time>2026-04-18T12:07:40.258Z</time></trkpt><trkpt lat="43.054995" lon="13.2975717"><ele>565.5</ele><time>2026-04-18T12:07:42.258Z</time></trkpt><trkpt lat="43.0549333" lon="13.2976033"><ele>565.0</ele><time>2026-04-18T12:07:43.258Z</time></trkpt><trkpt lat="43.054865" lon="13.2976367"><ele>563.8333333333334</ele><time>2026-04-18T12:07:44.258Z</time></trkpt><trkpt lat="43.0547983" lon="13.2976817"><ele>562.6666666666667</ele><time>2026-04-18T12:07:45.258Z</time></trkpt><trkpt lat="43.054735" lon="13.2977117"><ele>561.5</ele><time>2026-04-18T12:07:46.258Z</time></trkpt><trkpt lat="43.05466" lon="13.297755"><ele>560.3333333333334</ele><time>2026-04-18T12:07:47.258Z</time></trkpt><trkpt lat="43.054585" lon="13.2977833"><ele>559.1666666666666</ele><time>2026-04-18T12:07:48.258Z</time></trkpt><trkpt lat="43.0545317" lon="13.2978583"><ele>558.0</ele><time>2026-04-18T12:07:51.258Z</time></trkpt><trkpt lat="43.0546183" lon="13.2980333"><ele>558.0</ele><time>2026-04-18T12:08:43.258Z</time></trkpt><trkpt lat="43.05469" lon="13.2980817"><ele>558.0</ele><time>2026-04-18T12:08:44.258Z</time></trkpt><trkpt lat="43.054765" lon="13.2981467"><ele>558.0</ele><time>2026-04-18T12:08:45.258Z</time></trkpt><trkpt lat="43.0548317" lon="13.2982467"><ele>558.0</ele><time>2026-04-18T12:08:46.258Z</time></trkpt><trkpt lat="43.05491" lon="13.2983817"><ele>558.0</ele><time>2026-04-18T12:08:47.258Z</time></trkpt><trkpt lat="43.0549667" lon="13.2985383"><ele>555.6666666666666</ele><time>2026-04-18T12:08:48.258Z</time></trkpt><trkpt lat="43.055015" lon="13.298725"><ele>553.3333333333333</ele><time>2026-04-18T12:08:49.258Z</time></trkpt><trkpt lat="43.055055" lon="13.2989233"><ele>551.0</ele><time>2026-04-18T12:08:50.258Z</time></trkpt><trkpt lat="43.055095" lon="13.29915"><ele>550.6666666666666</ele><time>2026-04-18T12:08:51.258Z</time></trkpt><trkpt lat="43.0551067" lon="13.2993983"><ele>550.3333333333334</ele><time>2026-04-18T12:08:52.258Z</time></trkpt><trkpt lat="43.055105" lon="13.2996267"><ele>550.0</ele><time>2026-04-18T12:08:53.258Z</time></trkpt><trkpt lat="43.0550767" lon="13.2998483"><ele>551.6666666666667</ele><time>2026-04-18T12:08:54.257Z</time></trkpt><trkpt lat="43.0550167" lon="13.3000717"><ele>553.3333333333334</ele><time>2026-04-18T12:08:55.258Z</time></trkpt><trkpt lat="43.05495" lon="13.300295"><ele>555.0</ele><time>2026-04-18T12:08:56.258Z</time></trkpt><trkpt lat="43.054885" lon="13.300505"><ele>552.3333333333334</ele><time>2026-04-18T12:08:57.258Z</time></trkpt><trkpt lat="43.0547983" lon="13.300705"><ele>549.6666666666667</ele><time>2026-04-18T12:08:58.258Z</time></trkpt><trkpt lat="43.054705" lon="13.3008933"><ele>547.0</ele><time>2026-04-18T12:08:59.258Z</time></trkpt><trkpt lat="43.05465" lon="13.3010667"><ele>547.0</ele><time>2026-04-18T12:09:00.258Z</time></trkpt><trkpt lat="43.0546" lon="13.301225"><ele>547.0</ele><time>2026-04-18T12:09:01.258Z</time></trkpt><trkpt lat="43.0545617" lon="13.3013767"><ele>547.0</ele><time>2026-04-18T12:09:02.258Z</time></trkpt><trkpt lat="43.0545483" lon="13.3015483"><ele>547.0</ele><time>2026-04-18T12:09:03.258Z</time></trkpt><trkpt lat="43.0545683" lon="13.3017283"><ele>549.5</ele><time>2026-04-18T12:09:04.258Z</time></trkpt><trkpt lat="43.0546167" lon="13.30191"><ele>552.0</ele><time>2026-04-18T12:09:05.258Z</time></trkpt><trkpt lat="43.0546883" lon="13.3020967"><ele>554.5</ele><time>2026-04-18T12:09:06.258Z</time></trkpt><trkpt lat="43.0547617" lon="13.3022783"><ele>557.0</ele><time>2026-04-18T12:09:07.257Z</time></trkpt><trkpt lat="43.0548233" lon="13.3024717"><ele>557.5</ele><time>2026-04-18T12:09:08.258Z</time></trkpt><trkpt lat="43.0548783" lon="13.3026567"><ele>558.0</ele><time>2026-04-18T12:09:09.258Z</time></trkpt><trkpt lat="43.05492" lon="13.30284"><ele>558.5</ele><time>2026-04-18T12:09:10.258Z</time></trkpt><trkpt lat="43.0549433" lon="13.303005"><ele>559.0</ele><time>2026-04-18T12:09:11.258Z</time></trkpt><trkpt lat="43.0549117" lon="13.3031683"><ele>561.5</ele><time>2026-04-18T12:09:12.258Z</time></trkpt><trkpt lat="43.0548567" lon="13.3033083"><ele>564.0</ele><time>2026-04-18T12:09:13.258Z</time></trkpt><trkpt lat="43.0547767" lon="13.3034267"><ele>566.5</ele><time>2026-04-18T12:09:14.258Z</time></trkpt><trkpt lat="43.0546767" lon="13.3035417"><ele>569.0</ele><time>2026-04-18T12:09:15.258Z</time></trkpt><trkpt lat="43.0545833" lon="13.3036433"><ele>569.0</ele><time>2026-04-18T12:09:16.258Z</time></trkpt><trkpt lat="43.0545167" lon="13.3037717"><ele>569.0</ele><time>2026-04-18T12:09:17.258Z</time></trkpt><trkpt lat="43.0544633" lon="13.3039233"><ele>569.0</ele><time>2026-04-18T12:09:18.258Z</time></trkpt><trkpt lat="43.0544367" lon="13.3040933"><ele>569.0</ele><time>2026-04-18T12:09:19.258Z</time></trkpt><trkpt lat="43.0544317" lon="13.3042717"><ele>570.25</ele><time>2026-04-18T12:09:20.258Z</time></trkpt><trkpt lat="43.054425" lon="13.30447"><ele>571.5</ele><time>2026-04-18T12:09:21.258Z</time></trkpt><trkpt lat="43.05442" lon="13.3046817"><ele>572.75</ele><time>2026-04-18T12:09:22.258Z</time></trkpt><trkpt lat="43.0544383" lon="13.3048833"><ele>574.0</ele><time>2026-04-18T12:09:23.258Z</time></trkpt><trkpt lat="43.0544783" lon="13.305075"><ele>575.0</ele><time>2026-04-18T12:09:24.258Z</time></trkpt><trkpt lat="43.054505" lon="13.3052583"><ele>576.0</ele><time>2026-04-18T12:09:25.258Z</time></trkpt><trkpt lat="43.0545283" lon="13.305445"><ele>577.0</ele><time>2026-04-18T12:09:26.258Z</time></trkpt><trkpt lat="43.0545333" lon="13.3056267"><ele>578.0</ele><time>2026-04-18T12:09:27.258Z</time></trkpt><trkpt lat="43.054525" lon="13.30581"><ele>579.0</ele><time>2026-04-18T12:09:28.258Z</time></trkpt><trkpt lat="43.0545117" lon="13.3060067"><ele>580.0</ele><time>2026-04-18T12:09:29.258Z</time></trkpt><trkpt lat="43.054495" lon="13.3061867"><ele>581.0</ele><time>2026-04-18T12:09:30.258Z</time></trkpt><trkpt lat="43.0545033" lon="13.3063683"><ele>582.0</ele><time>2026-04-18T12:09:31.258Z</time></trkpt><trkpt lat="43.0545283" lon="13.3065383"><ele>583.5</ele><time>2026-04-18T12:09:32.258Z</time></trkpt><trkpt lat="43.054605" lon="13.3066883"><ele>585.0</ele><time>2026-04-18T12:09:33.257Z</time></trkpt><trkpt lat="43.05469" lon="13.3067883"><ele>586.5</ele><time>2026-04-18T12:09:34.258Z</time></trkpt><trkpt lat="43.0548033" lon="13.3068533"><ele>588.0</ele><time>2026-04-18T12:09:35.258Z</time></trkpt><trkpt lat="43.054935" lon="13.3068733"><ele>592.0</ele><time>2026-04-18T12:09:36.258Z</time></trkpt><trkpt lat="43.0550733" lon="13.3068467"><ele>596.0</ele><time>2026-04-18T12:09:37.258Z</time></trkpt><trkpt lat="43.0552" lon="13.306775"><ele>600.0</ele><time>2026-04-18T12:09:38.258Z</time></trkpt><trkpt lat="43.0553633" lon="13.3066983"><ele>604.0</ele><time>2026-04-18T12:09:39.257Z</time></trkpt><trkpt lat="43.0555167" lon="13.3066267"><ele>604.0</ele><time>2026-04-18T12:09:40.258Z</time></trkpt><trkpt lat="43.05565" lon="13.306575"><ele>604.0</ele><time>2026-04-18T12:09:41.258Z</time></trkpt><trkpt lat="43.0557533" lon="13.30656"><ele>604.0</ele><time>2026-04-18T12:09:42.258Z</time></trkpt><trkpt lat="43.0558733" lon="13.3065833"><ele>604.0</ele><time>2026-04-18T12:09:43.258Z</time></trkpt><trkpt lat="43.0559533" lon="13.3066483"><ele>607.0</ele><time>2026-04-18T12:09:44.258Z</time></trkpt><trkpt lat="43.05602" lon="13.30676"><ele>610.0</ele><time>2026-04-18T12:09:45.258Z</time></trkpt><trkpt lat="43.056095" lon="13.306865"><ele>613.0</ele><time>2026-04-18T12:09:46.258Z</time></trkpt><trkpt lat="43.0562067" lon="13.3069483"><ele>616.0</ele><time>2026-04-18T12:09:47.258Z</time></trkpt><trkpt lat="43.0563267" lon="13.3070183"><ele>616.0</ele><time>2026-04-18T12:09:48.258Z</time></trkpt><trkpt lat="43.0564533" lon="13.3070967"><ele>616.0</ele><time>2026-04-18T12:09:49.258Z</time></trkpt><trkpt lat="43.0565783" lon="13.3071967"><ele>616.0</ele><time>2026-04-18T12:09:50.258Z</time></trkpt><trkpt lat="43.0567267" lon="13.3073167"><ele>615.3333333333334</ele><time>2026-04-18T12:09:51.258Z</time></trkpt><trkpt lat="43.05686" lon="13.30744"><ele>614.6666666666666</ele><time>2026-04-18T12:09:52.258Z</time></trkpt><trkpt lat="43.0569867" lon="13.3075667"><ele>614.0</ele><time>2026-04-18T12:09:53.258Z</time></trkpt><trkpt lat="43.0571217" lon="13.307695"><ele>614.0</ele><time>2026-04-18T12:09:54.258Z</time></trkpt><trkpt lat="43.0572667" lon="13.30782"><ele>614.0</ele><time>2026-04-18T12:09:55.258Z</time></trkpt><trkpt lat="43.057415" lon="13.3079533"><ele>614.0</ele><time>2026-04-18T12:09:56.258Z</time></trkpt><trkpt lat="43.0575617" lon="13.30809"><ele>614.3333333333333</ele><time>2026-04-18T12:09:57.258Z</time></trkpt><trkpt lat="43.0577267" lon="13.308225"><ele>614.6666666666666</ele><time>2026-04-18T12:09:58.258Z</time></trkpt><trkpt lat="43.05789" lon="13.308355"><ele>615.0</ele><time>2026-04-18T12:09:59.258Z</time></trkpt><trkpt lat="43.0580533" lon="13.3084983"><ele>615.0</ele><time>2026-04-18T12:10:00.258Z</time></trkpt><trkpt lat="43.0581883" lon="13.3086367"><ele>615.0</ele><time>2026-04-18T12:10:01.258Z</time></trkpt><trkpt lat="43.0583267" lon="13.3087967"><ele>615.0</ele><time>2026-04-18T12:10:02.258Z</time></trkpt><trkpt lat="43.0584267" lon="13.3089783"><ele>619.0</ele><time>2026-04-18T12:10:03.258Z</time></trkpt><trkpt lat="43.0584933" lon="13.309175"><ele>623.0</ele><time>2026-04-18T12:10:04.258Z</time></trkpt><trkpt lat="43.05854" lon="13.30939"><ele>627.0</ele><time>2026-04-18T12:10:05.258Z</time></trkpt><trkpt lat="43.0585767" lon="13.30961"><ele>628.6666666666666</ele><time>2026-04-18T12:10:06.258Z</time></trkpt><trkpt lat="43.0585867" lon="13.30982"><ele>630.3333333333333</ele><time>2026-04-18T12:10:07.258Z</time></trkpt><trkpt lat="43.0586017" lon="13.310035"><ele>632.0</ele><time>2026-04-18T12:10:08.258Z</time></trkpt><trkpt lat="43.0586017" lon="13.3102533"><ele>632.0</ele><time>2026-04-18T12:10:09.258Z</time></trkpt><trkpt lat="43.0586133" lon="13.310465"><ele>632.0</ele><time>2026-04-18T12:10:10.258Z</time></trkpt><trkpt lat="43.0586083" lon="13.3106783"><ele>632.0</ele><time>2026-04-18T12:10:11.258Z</time></trkpt><trkpt lat="43.0585583" lon="13.3108683"><ele>631.3333333333333</ele><time>2026-04-18T12:10:12.258Z</time></trkpt><trkpt lat="43.05848" lon="13.311035"><ele>630.6666666666666</ele><time>2026-04-18T12:10:13.258Z</time></trkpt><trkpt lat="43.0583617" lon="13.311165"><ele>630.0</ele><time>2026-04-18T12:10:14.258Z</time></trkpt><trkpt lat="43.0582167" lon="13.3112533"><ele>630.0</ele><time>2026-04-18T12:10:15.257Z</time></trkpt><trkpt lat="43.0580833" lon="13.3113233"><ele>630.0</ele><time>2026-04-18T12:10:16.258Z</time></trkpt><trkpt lat="43.0579483" lon="13.3114"><ele>630.0</ele><time>2026-04-18T12:10:17.258Z</time></trkpt><trkpt lat="43.05781" lon="13.3114983"><ele>630.0</ele><time>2026-04-18T12:10:18.258Z</time></trkpt><trkpt lat="43.05768" lon="13.3116017"><ele>629.25</ele><time>2026-04-18T12:10:19.258Z</time></trkpt><trkpt lat="43.0575733" lon="13.3117217"><ele>628.5</ele><time>2026-04-18T12:10:20.258Z</time></trkpt><trkpt lat="43.0574533" lon="13.3118233"><ele>627.75</ele><time>2026-04-18T12:10:21.258Z</time></trkpt><trkpt lat="43.0573433" lon="13.3119333"><ele>627.0</ele><time>2026-04-18T12:10:22.257Z</time></trkpt><trkpt lat="43.0572317" lon="13.3120467"><ele>627.0</ele><time>2026-04-18T12:10:23.258Z</time></trkpt><trkpt lat="43.0571167" lon="13.3121667"><ele>627.0</ele><time>2026-04-18T12:10:24.258Z</time></trkpt><trkpt lat="43.0570167" lon="13.3123133"><ele>627.0</ele><time>2026-04-18T12:10:25.258Z</time></trkpt><trkpt lat="43.0569" lon="13.3124483"><ele>627.0</ele><time>2026-04-18T12:10:26.258Z</time></trkpt><trkpt lat="43.0567817" lon="13.3125867"><ele>626.6666666666666</ele><time>2026-04-18T12:10:27.258Z</time></trkpt><trkpt lat="43.0566783" lon="13.3127283"><ele>626.3333333333333</ele><time>2026-04-18T12:10:28.258Z</time></trkpt><trkpt lat="43.0565633" lon="13.3128767"><ele>626.0</ele><time>2026-04-18T12:10:29.258Z</time></trkpt><trkpt lat="43.0564567" lon="13.3130283"><ele>627.3333333333333</ele><time>2026-04-18T12:10:30.258Z</time></trkpt><trkpt lat="43.0563533" lon="13.313185"><ele>628.6666666666666</ele><time>2026-04-18T12:10:31.258Z</time></trkpt><trkpt lat="43.0562533" lon="13.3133467"><ele>630.0</ele><time>2026-04-18T12:10:32.258Z</time></trkpt><trkpt lat="43.0561717" lon="13.3135117"><ele>630.0</ele><time>2026-04-18T12:10:33.258Z</time></trkpt><trkpt lat="43.056115" lon="13.3136983"><ele>630.0</ele><time>2026-04-18T12:10:34.258Z</time></trkpt><trkpt lat="43.0560917" lon="13.3138917"><ele>630.0</ele><time>2026-04-18T12:10:35.258Z</time></trkpt><trkpt lat="43.0560667" lon="13.3140683"><ele>630.0</ele><time>2026-04-18T12:10:36.258Z</time></trkpt><trkpt lat="43.0560433" lon="13.31424"><ele>631.0</ele><time>2026-04-18T12:10:37.258Z</time></trkpt><trkpt lat="43.0560317" lon="13.314415"><ele>632.0</ele><time>2026-04-18T12:10:38.258Z</time></trkpt><trkpt lat="43.0560083" lon="13.3145783"><ele>633.0</ele><time>2026-04-18T12:10:39.258Z</time></trkpt><trkpt lat="43.0560017" lon="13.3147383"><ele>634.0</ele><time>2026-04-18T12:10:40.257Z</time></trkpt><trkpt lat="43.05602" lon="13.3149"><ele>634.0</ele><time>2026-04-18T12:10:41.258Z</time></trkpt><trkpt lat="43.0560767" lon="13.31508"><ele>634.0</ele><time>2026-04-18T12:10:42.258Z</time></trkpt><trkpt lat="43.0561533" lon="13.3152583"><ele>634.0</ele><time>2026-04-18T12:10:43.258Z</time></trkpt><trkpt lat="43.056225" lon="13.315425"><ele>634.0</ele><time>2026-04-18T12:10:44.258Z</time></trkpt><trkpt lat="43.056295" lon="13.31558"><ele>631.75</ele><time>2026-04-18T12:10:45.258Z</time></trkpt><trkpt lat="43.0563733" lon="13.3157133"><ele>629.5</ele><time>2026-04-18T12:10:46.258Z</time></trkpt><trkpt lat="43.0564967" lon="13.3158067"><ele>627.25</ele><time>2026-04-18T12:10:47.258Z</time></trkpt><trkpt lat="43.0566117" lon="13.31585"><ele>625.0</ele><time>2026-04-18T12:10:48.258Z</time></trkpt><trkpt lat="43.05674" lon="13.3158733"><ele>625.0</ele><time>2026-04-18T12:10:49.258Z</time></trkpt><trkpt lat="43.0568767" lon="13.3159033"><ele>625.0</ele><time>2026-04-18T12:10:50.258Z</time></trkpt><trkpt lat="43.0569633" lon="13.3159767"><ele>625.0</ele><time>2026-04-18T12:10:51.258Z</time></trkpt><trkpt lat="43.0570483" lon="13.3160983"><ele>625.0</ele><time>2026-04-18T12:10:52.258Z</time></trkpt><trkpt lat="43.0570817" lon="13.3162567"><ele>622.75</ele><time>2026-04-18T12:10:53.258Z</time></trkpt><trkpt lat="43.0570833" lon="13.3164433"><ele>620.5</ele><time>2026-04-18T12:10:54.258Z</time></trkpt><trkpt lat="43.057065" lon="13.3166167"><ele>618.25</ele><time>2026-04-18T12:10:55.258Z</time></trkpt><trkpt lat="43.05706" lon="13.3167967"><ele>616.0</ele><time>2026-04-18T12:10:56.258Z</time></trkpt><trkpt lat="43.0570383" lon="13.3169683"><ele>616.0</ele><time>2026-04-18T12:10:57.257Z</time></trkpt><trkpt lat="43.0570133" lon="13.3171467"><ele>616.0</ele><time>2026-04-18T12:10:58.258Z</time></trkpt><trkpt lat="43.0569733" lon="13.3173233"><ele>616.0</ele><time>2026-04-18T12:10:59.258Z</time></trkpt><trkpt lat="43.056935" lon="13.3174933"><ele>616.0</ele><time>2026-04-18T12:11:00.258Z</time></trkpt><trkpt lat="43.05689" lon="13.317665"><ele>613.25</ele><time>2026-04-18T12:11:01.258Z</time></trkpt><trkpt lat="43.056845" lon="13.3178333"><ele>610.5</ele><time>2026-04-18T12:11:02.258Z</time></trkpt><trkpt lat="43.0567967" lon="13.317995"><ele>607.75</ele><time>2026-04-18T12:11:03.258Z</time></trkpt><trkpt lat="43.0567567" lon="13.3181517"><ele>605.0</ele><time>2026-04-18T12:11:04.258Z</time></trkpt><trkpt lat="43.0567233" lon="13.3183033"><ele>602.75</ele><time>2026-04-18T12:11:05.258Z</time></trkpt><trkpt lat="43.05669" lon="13.3184567"><ele>600.5</ele><time>2026-04-18T12:11:06.258Z</time></trkpt><trkpt lat="43.05668" lon="13.3185967"><ele>598.25</ele><time>2026-04-18T12:11:07.258Z</time></trkpt><trkpt lat="43.0567233" lon="13.3187433"><ele>596.0</ele><time>2026-04-18T12:11:08.258Z</time></trkpt><trkpt lat="43.0567983" lon="13.3188767"><ele>594.25</ele><time>2026-04-18T12:11:09.258Z</time></trkpt><trkpt lat="43.0569083" lon="13.318975"><ele>592.5</ele><time>2026-04-18T12:11:10.258Z</time></trkpt><trkpt lat="43.0570333" lon="13.3190667"><ele>590.75</ele><time>2026-04-18T12:11:11.258Z</time></trkpt><trkpt lat="43.0571767" lon="13.3191367"><ele>589.0</ele><time>2026-04-18T12:11:12.258Z</time></trkpt><trkpt lat="43.0573383" lon="13.31917"><ele>588.0</ele><time>2026-04-18T12:11:13.258Z</time></trkpt><trkpt lat="43.0575017" lon="13.3191833"><ele>587.0</ele><time>2026-04-18T12:11:14.258Z</time></trkpt><trkpt lat="43.0576533" lon="13.3191933"><ele>586.0</ele><time>2026-04-18T12:11:15.258Z</time></trkpt><trkpt lat="43.0578" lon="13.3191933"><ele>586.0</ele><time>2026-04-18T12:11:16.257Z</time></trkpt><trkpt lat="43.05795" lon="13.3192083"><ele>586.0</ele><time>2026-04-18T12:11:17.258Z</time></trkpt><trkpt lat="43.0580783" lon="13.31921"><ele>586.0</ele><time>2026-04-18T12:11:18.258Z</time></trkpt><trkpt lat="43.0582033" lon="13.319265"><ele>586.0</ele><time>2026-04-18T12:11:19.258Z</time></trkpt><trkpt lat="43.0583167" lon="13.3193617"><ele>585.0</ele><time>2026-04-18T12:11:20.258Z</time></trkpt><trkpt lat="43.0584017" lon="13.319525"><ele>584.0</ele><time>2026-04-18T12:11:21.258Z</time></trkpt><trkpt lat="43.05847" lon="13.3197133"><ele>583.0</ele><time>2026-04-18T12:11:22.258Z</time></trkpt><trkpt lat="43.0585283" lon="13.3199067"><ele>579.6666666666667</ele><time>2026-04-18T12:11:23.258Z</time></trkpt><trkpt lat="43.058585" lon="13.32011"><ele>576.3333333333334</ele><time>2026-04-18T12:11:24.258Z</time></trkpt><trkpt lat="43.0586533" lon="13.3203017"><ele>573.0</ele><time>2026-04-18T12:11:25.258Z</time></trkpt><trkpt lat="43.0587167" lon="13.3204967"><ele>569.0</ele><time>2026-04-18T12:11:26.258Z</time></trkpt><trkpt lat="43.058785" lon="13.320695"><ele>565.0</ele><time>2026-04-18T12:11:27.258Z</time></trkpt><trkpt lat="43.05885" lon="13.3209117"><ele>561.0</ele><time>2026-04-18T12:11:28.258Z</time></trkpt><trkpt lat="43.0589217" lon="13.3211233"><ele>561.0</ele><time>2026-04-18T12:11:29.258Z</time></trkpt><trkpt lat="43.059005" lon="13.32133"><ele>561.0</ele><time>2026-04-18T12:11:30.258Z</time></trkpt><trkpt lat="43.0590817" lon="13.321545"><ele>561.0</ele><time>2026-04-18T12:11:31.258Z</time></trkpt><trkpt lat="43.0591617" lon="13.3217633"><ele>559.3333333333334</ele><time>2026-04-18T12:11:32.258Z</time></trkpt><trkpt lat="43.059245" lon="13.32198"><ele>557.6666666666667</ele><time>2026-04-18T12:11:33.258Z</time></trkpt><trkpt lat="43.0593267" lon="13.3221983"><ele>556.0</ele><time>2026-04-18T12:11:34.257Z</time></trkpt><trkpt lat="43.0593967" lon="13.32241"><ele>555.0</ele><time>2026-04-18T12:11:35.258Z</time></trkpt><trkpt lat="43.059465" lon="13.3226133"><ele>554.0</ele><time>2026-04-18T12:11:36.258Z</time></trkpt><trkpt lat="43.059515" lon="13.32283"><ele>553.0</ele><time>2026-04-18T12:11:37.258Z</time></trkpt><trkpt lat="43.0595667" lon="13.3230517"><ele>553.3333333333334</ele><time>2026-04-18T12:11:38.258Z</time></trkpt><trkpt lat="43.0595783" lon="13.3232817"><ele>553.6666666666666</ele><time>2026-04-18T12:11:39.257Z</time></trkpt><trkpt lat="43.0595817" lon="13.3235317"><ele>554.0</ele><time>2026-04-18T12:11:40.258Z</time></trkpt><trkpt lat="43.059565" lon="13.3237533"><ele>556.0</ele><time>2026-04-18T12:11:41.258Z</time></trkpt><trkpt lat="43.05953" lon="13.3239833"><ele>558.0</ele><time>2026-04-18T12:11:42.258Z</time></trkpt><trkpt lat="43.0594783" lon="13.32422"><ele>560.0</ele><time>2026-04-18T12:11:43.258Z</time></trkpt><trkpt lat="43.059435" lon="13.3244567"><ele>560.0</ele><time>2026-04-18T12:11:44.258Z</time></trkpt><trkpt lat="43.05937" lon="13.3246783"><ele>560.0</ele><time>2026-04-18T12:11:45.258Z</time></trkpt><trkpt lat="43.0592767" lon="13.3248683"><ele>560.0</ele><time>2026-04-18T12:11:46.258Z</time></trkpt><trkpt lat="43.0591867" lon="13.32503"><ele>557.8</ele><time>2026-04-18T12:11:47.258Z</time></trkpt><trkpt lat="43.0591" lon="13.325165"><ele>555.6</ele><time>2026-04-18T12:11:48.258Z</time></trkpt><trkpt lat="43.0590267" lon="13.3252883"><ele>553.4</ele><time>2026-04-18T12:11:49.258Z</time></trkpt><trkpt lat="43.0589867" lon="13.3254167"><ele>551.2</ele><time>2026-04-18T12:11:50.258Z</time></trkpt><trkpt lat="43.0589867" lon="13.32554"><ele>549.0</ele><time>2026-04-18T12:11:51.258Z</time></trkpt><trkpt lat="43.05903" lon="13.3256667"><ele>549.0</ele><time>2026-04-18T12:11:52.258Z</time></trkpt><trkpt lat="43.0591083" lon="13.32579"><ele>549.0</ele><time>2026-04-18T12:11:53.258Z</time></trkpt><trkpt lat="43.0592217" lon="13.3259183"><ele>549.0</ele><time>2026-04-18T12:11:54.258Z</time></trkpt><trkpt lat="43.05937" lon="13.3260617"><ele>549.0</ele><time>2026-04-18T12:11:55.258Z</time></trkpt><trkpt lat="43.059495" lon="13.32621"><ele>554.0</ele><time>2026-04-18T12:11:56.258Z</time></trkpt><trkpt lat="43.0595917" lon="13.3263733"><ele>559.0</ele><time>2026-04-18T12:11:57.258Z</time></trkpt><trkpt lat="43.059665" lon="13.3265433"><ele>564.0</ele><time>2026-04-18T12:11:58.258Z</time></trkpt><trkpt lat="43.0597117" lon="13.3267167"><ele>569.0</ele><time>2026-04-18T12:11:59.258Z</time></trkpt><trkpt lat="43.0597183" lon="13.3268933"><ele>569.0</ele><time>2026-04-18T12:12:00.258Z</time></trkpt><trkpt lat="43.0596833" lon="13.3270533"><ele>569.0</ele><time>2026-04-18T12:12:01.258Z</time></trkpt><trkpt lat="43.0596533" lon="13.327225"><ele>569.0</ele><time>2026-04-18T12:12:02.258Z</time></trkpt><trkpt lat="43.0596433" lon="13.3273967"><ele>569.0</ele><time>2026-04-18T12:12:03.257Z</time></trkpt><trkpt lat="43.0596683" lon="13.3275733"><ele>568.75</ele><time>2026-04-18T12:12:04.258Z</time></trkpt><trkpt lat="43.0596967" lon="13.3277367"><ele>568.5</ele><time>2026-04-18T12:12:05.258Z</time></trkpt><trkpt lat="43.059695" lon="13.3279217"><ele>568.25</ele><time>2026-04-18T12:12:06.258Z</time></trkpt><trkpt lat="43.0596567" lon="13.3280833"><ele>568.0</ele><time>2026-04-18T12:12:07.258Z</time></trkpt><trkpt lat="43.05962" lon="13.328235"><ele>569.0</ele><time>2026-04-18T12:12:08.258Z</time></trkpt><trkpt lat="43.0595883" lon="13.3283983"><ele>570.0</ele><time>2026-04-18T12:12:09.258Z</time></trkpt><trkpt lat="43.05959" lon="13.328565"><ele>571.0</ele><time>2026-04-18T12:12:10.258Z</time></trkpt><trkpt lat="43.05963" lon="13.32872"><ele>572.0</ele><time>2026-04-18T12:12:11.258Z</time></trkpt><trkpt lat="43.0597033" lon="13.3288833"><ele>571.75</ele><time>2026-04-18T12:12:12.258Z</time></trkpt><trkpt lat="43.059795" lon="13.3290517"><ele>571.5</ele><time>2026-04-18T12:12:13.258Z</time></trkpt><trkpt lat="43.0598983" lon="13.3292083"><ele>571.25</ele><time>2026-04-18T12:12:14.258Z</time></trkpt><trkpt lat="43.05999" lon="13.3293533"><ele>571.0</ele><time>2026-04-18T12:12:15.258Z</time></trkpt><trkpt lat="43.0600933" lon="13.3295"><ele>574.0</ele><time>2026-04-18T12:12:16.258Z</time></trkpt><trkpt lat="43.0602" lon="13.3296567"><ele>577.0</ele><time>2026-04-18T12:12:17.258Z</time></trkpt><trkpt lat="43.06031" lon="13.3298117"><ele>580.0</ele><time>2026-04-18T12:12:18.258Z</time></trkpt><trkpt lat="43.0604183" lon="13.3299767"><ele>580.0</ele><time>2026-04-18T12:12:19.258Z</time></trkpt><trkpt lat="43.0605317" lon="13.330155"><ele>580.0</ele><time>2026-04-18T12:12:20.258Z</time></trkpt><trkpt lat="43.06064" lon="13.3303333"><ele>580.0</ele><time>2026-04-18T12:12:21.258Z</time></trkpt><trkpt lat="43.06074" lon="13.3304933"><ele>580.0</ele><time>2026-04-18T12:12:22.258Z</time></trkpt><trkpt lat="43.060825" lon="13.3306183"><ele>580.0</ele><time>2026-04-18T12:12:23.258Z</time></trkpt><trkpt lat="43.0609017" lon="13.3307283"><ele>580.0</ele><time>2026-04-18T12:12:24.258Z</time></trkpt><trkpt lat="43.0609667" lon="13.3308267"><ele>580.0</ele><time>2026-04-18T12:12:25.258Z</time></trkpt><trkpt lat="43.061015" lon="13.3309217"><ele>580.0</ele><time>2026-04-18T12:12:26.258Z</time></trkpt><trkpt lat="43.0610517" lon="13.3310133"><ele>580.0</ele><time>2026-04-18T12:12:27.258Z</time></trkpt><trkpt lat="43.0610717" lon="13.33111"><ele>580.0</ele><time>2026-04-18T12:12:28.258Z</time></trkpt><trkpt lat="43.06109" lon="13.33121"><ele>580.0</ele><time>2026-04-18T12:12:29.258Z</time></trkpt><trkpt lat="43.061115" lon="13.3313167"><ele>580.0</ele><time>2026-04-18T12:12:30.258Z</time></trkpt><trkpt lat="43.06115" lon="13.3314367"><ele>580.0</ele><time>2026-04-18T12:12:31.258Z</time></trkpt><trkpt lat="43.061185" lon="13.331555"><ele>580.0</ele><time>2026-04-18T12:12:32.258Z</time></trkpt><trkpt lat="43.06122" lon="13.3316683"><ele>577.4</ele><time>2026-04-18T12:12:33.258Z</time></trkpt><trkpt lat="43.0612483" lon="13.331785"><ele>574.8</ele><time>2026-04-18T12:12:34.257Z</time></trkpt><trkpt lat="43.0612667" lon="13.3318967"><ele>572.2</ele><time>2026-04-18T12:12:35.258Z</time></trkpt><trkpt lat="43.0612783" lon="13.3319917"><ele>569.6</ele><time>2026-04-18T12:12:36.258Z</time></trkpt><trkpt lat="43.0612733" lon="13.3321383"><ele>567.0</ele><time>2026-04-18T12:12:38.257Z</time></trkpt><trkpt lat="43.061195" lon="13.33222"><ele>567.0</ele><time>2026-04-18T12:12:40.258Z</time></trkpt><trkpt lat="43.0611233" lon="13.3322233"><ele>567.0</ele><time>2026-04-18T12:12:41.258Z</time></trkpt><trkpt lat="43.0610433" lon="13.332215"><ele>567.0</ele><time>2026-04-18T12:12:42.258Z</time></trkpt><trkpt lat="43.0609583" lon="13.332205"><ele>567.0</ele><time>2026-04-18T12:12:43.258Z</time></trkpt><trkpt lat="43.060875" lon="13.3321933"><ele>567.0</ele><time>2026-04-18T12:12:44.258Z</time></trkpt><trkpt lat="43.0607917" lon="13.332175"><ele>567.0</ele><time>2026-04-18T12:12:45.258Z</time></trkpt><trkpt lat="43.0607067" lon="13.332145"><ele>564.0</ele><time>2026-04-18T12:12:46.258Z</time></trkpt><trkpt lat="43.06062" lon="13.3321"><ele>561.0</ele><time>2026-04-18T12:12:47.258Z</time></trkpt><trkpt lat="43.0605333" lon="13.3320533"><ele>558.0</ele><time>2026-04-18T12:12:48.258Z</time></trkpt><trkpt lat="43.0604467" lon="13.3320017"><ele>555.0</ele><time>2026-04-18T12:12:49.258Z</time></trkpt><trkpt lat="43.0603633" lon="13.3319433"><ele>552.0</ele><time>2026-04-18T12:12:50.258Z</time></trkpt><trkpt lat="43.0602767" lon="13.3318783"><ele>552.0</ele><time>2026-04-18T12:12:51.258Z</time></trkpt><trkpt lat="43.0601917" lon="13.3318167"><ele>552.0</ele><time>2026-04-18T12:12:52.258Z</time></trkpt><trkpt lat="43.0601117" lon="13.331765"><ele>552.0</ele><time>2026-04-18T12:12:53.258Z</time></trkpt><trkpt lat="43.0600217" lon="13.3317233"><ele>552.0</ele><time>2026-04-18T12:12:54.258Z</time></trkpt><trkpt lat="43.0599383" lon="13.3317033"><ele>552.0</ele><time>2026-04-18T12:12:55.258Z</time></trkpt><trkpt lat="43.0598417" lon="13.3317067"><ele>549.6</ele><time>2026-04-18T12:12:56.258Z</time></trkpt><trkpt lat="43.0597417" lon="13.3317233"><ele>547.2</ele><time>2026-04-18T12:12:57.258Z</time></trkpt><trkpt lat="43.05965" lon="13.33172"><ele>544.8</ele><time>2026-04-18T12:12:58.258Z</time></trkpt><trkpt lat="43.0595583" lon="13.3316867"><ele>542.4</ele><time>2026-04-18T12:12:59.258Z</time></trkpt><trkpt lat="43.05945" lon="13.3316217"><ele>540.0</ele><time>2026-04-18T12:13:00.258Z</time></trkpt><trkpt lat="43.05933" lon="13.3315333"><ele>540.0</ele><time>2026-04-18T12:13:01.258Z</time></trkpt><trkpt lat="43.05919" lon="13.3314167"><ele>540.0</ele><time>2026-04-18T12:13:02.258Z</time></trkpt><trkpt lat="43.059065" lon="13.3313083"><ele>540.0</ele><time>2026-04-18T12:13:03.258Z</time></trkpt><trkpt lat="43.058955" lon="13.3312083"><ele>540.0</ele><time>2026-04-18T12:13:04.258Z</time></trkpt><trkpt lat="43.0588533" lon="13.3311133"><ele>539.8</ele><time>2026-04-18T12:13:05.258Z</time></trkpt><trkpt lat="43.058765" lon="13.33103"><ele>539.6</ele><time>2026-04-18T12:13:06.258Z</time></trkpt><trkpt lat="43.058685" lon="13.33095"><ele>539.4</ele><time>2026-04-18T12:13:07.258Z</time></trkpt><trkpt lat="43.0586083" lon="13.33084"><ele>539.2</ele><time>2026-04-18T12:13:08.258Z</time></trkpt><trkpt lat="43.0585417" lon="13.3307"><ele>539.0</ele><time>2026-04-18T12:13:09.258Z</time></trkpt><trkpt lat="43.058475" lon="13.3305583"><ele>541.2</ele><time>2026-04-18T12:13:10.258Z</time></trkpt><trkpt lat="43.0584083" lon="13.3304233"><ele>543.4</ele><time>2026-04-18T12:13:11.258Z</time></trkpt><trkpt lat="43.0583417" lon="13.3303"><ele>545.6</ele><time>2026-04-18T12:13:12.258Z</time></trkpt><trkpt lat="43.05828" lon="13.3301917"><ele>547.8</ele><time>2026-04-18T12:13:13.258Z</time></trkpt><trkpt lat="43.0582267" lon="13.3300683"><ele>550.0</ele><time>2026-04-18T12:13:14.258Z</time></trkpt><trkpt lat="43.0581667" lon="13.3299383"><ele>545.4</ele><time>2026-04-18T12:13:15.258Z</time></trkpt><trkpt lat="43.0581217" lon="13.329795"><ele>540.8</ele><time>2026-04-18T12:13:16.258Z</time></trkpt><trkpt lat="43.0580767" lon="13.3296467"><ele>536.2</ele><time>2026-04-18T12:13:17.258Z</time></trkpt><trkpt lat="43.058025" lon="13.3295117"><ele>531.6</ele><time>2026-04-18T12:13:18.258Z</time></trkpt><trkpt lat="43.0579767" lon="13.329385"><ele>527.0</ele><time>2026-04-18T12:13:19.258Z</time></trkpt><trkpt lat="43.0579483" lon="13.32928"><ele>527.0</ele><time>2026-04-18T12:13:20.258Z</time></trkpt><trkpt lat="43.0579267" lon="13.32918"><ele>527.0</ele><time>2026-04-18T12:13:21.258Z</time></trkpt><trkpt lat="43.05791" lon="13.3290883"><ele>527.0</ele><time>2026-04-18T12:13:22.258Z</time></trkpt><trkpt lat="43.0578733" lon="13.3289533"><ele>527.0</ele><time>2026-04-18T12:13:24.258Z</time></trkpt><trkpt lat="43.0577967" lon="13.3289317"><ele>527.0</ele><time>2026-04-18T12:13:26.258Z</time></trkpt><trkpt lat="43.0577433" lon="13.3289933"><ele>527.0</ele><time>2026-04-18T12:13:28.258Z</time></trkpt><trkpt lat="43.0577267" lon="13.329155"><ele>527.0</ele><time>2026-04-18T12:13:30.258Z</time></trkpt><trkpt lat="43.0577283" lon="13.329265"><ele>527.0</ele><time>2026-04-18T12:13:31.258Z</time></trkpt><trkpt lat="43.0577433" lon="13.3294033"><ele>527.0</ele><time>2026-04-18T12:13:32.258Z</time></trkpt><trkpt lat="43.057755" lon="13.32953"><ele>527.0</ele><time>2026-04-18T12:13:33.258Z</time></trkpt><trkpt lat="43.0577617" lon="13.3296583"><ele>527.0</ele><time>2026-04-18T12:13:34.258Z</time></trkpt><trkpt lat="43.057745" lon="13.3297833"><ele>526.1666666666666</ele><time>2026-04-18T12:13:35.258Z</time></trkpt><trkpt lat="43.057715" lon="13.3299117"><ele>525.3333333333333</ele><time>2026-04-18T12:13:36.258Z</time></trkpt><trkpt lat="43.0576833" lon="13.3300267"><ele>524.5</ele><time>2026-04-18T12:13:37.258Z</time></trkpt><trkpt lat="43.05765" lon="13.3301267"><ele>523.6666666666666</ele><time>2026-04-18T12:13:38.258Z</time></trkpt><trkpt lat="43.0576117" lon="13.33021"><ele>522.8333333333334</ele><time>2026-04-18T12:13:39.258Z</time></trkpt><trkpt lat="43.0575617" lon="13.3302783"><ele>522.0</ele><time>2026-04-18T12:13:40.258Z</time></trkpt><trkpt lat="43.05749" lon="13.33032"><ele>517.4</ele><time>2026-04-18T12:13:41.258Z</time></trkpt><trkpt lat="43.0574167" lon="13.3303317"><ele>512.8000000000001</ele><time>2026-04-18T12:13:42.258Z</time></trkpt><trkpt lat="43.057335" lon="13.330285"><ele>508.2</ele><time>2026-04-18T12:13:43.258Z</time></trkpt><trkpt lat="43.05725" lon="13.3302067"><ele>503.6</ele><time>2026-04-18T12:13:44.258Z</time></trkpt><trkpt lat="43.0571767" lon="13.3301217"><ele>499.0</ele><time>2026-04-18T12:13:45.258Z</time></trkpt><trkpt lat="43.0570917" lon="13.3300367"><ele>499.0</ele><time>2026-04-18T12:13:46.258Z</time></trkpt><trkpt lat="43.0570167" lon="13.3299517"><ele>499.0</ele><time>2026-04-18T12:13:47.258Z</time></trkpt><trkpt lat="43.0569483" lon="13.329855"><ele>499.0</ele><time>2026-04-18T12:13:48.258Z</time></trkpt><trkpt lat="43.0568867" lon="13.3297667"><ele>499.0</ele><time>2026-04-18T12:13:49.258Z</time></trkpt><trkpt lat="43.0568283" lon="13.32967"><ele>499.0</ele><time>2026-04-18T12:13:50.258Z</time></trkpt><trkpt lat="43.056755" lon="13.3295783"><ele>500.4</ele><time>2026-04-18T12:13:51.258Z</time></trkpt><trkpt lat="43.0566633" lon="13.329485"><ele>501.79999999999995</ele><time>2026-04-18T12:13:52.257Z</time></trkpt><trkpt lat="43.056575" lon="13.3294033"><ele>503.20000000000005</ele><time>2026-04-18T12:13:53.258Z</time></trkpt><trkpt lat="43.0564767" lon="13.3293433"><ele>504.6</ele><time>2026-04-18T12:13:54.258Z</time></trkpt><trkpt lat="43.0563917" lon="13.3293067"><ele>506.0</ele><time>2026-04-18T12:13:55.258Z</time></trkpt><trkpt lat="43.0563217" lon="13.32928"><ele>503.20000000000005</ele><time>2026-04-18T12:13:56.258Z</time></trkpt><trkpt lat="43.0562567" lon="13.32926"><ele>500.40000000000003</ele><time>2026-04-18T12:13:57.258Z</time></trkpt><trkpt lat="43.0561617" lon="13.3292167"><ele>497.6</ele><time>2026-04-18T12:13:59.258Z</time></trkpt><trkpt lat="43.0560917" lon="13.329195"><ele>494.8</ele><time>2026-04-18T12:14:01.258Z</time></trkpt><trkpt lat="43.056" lon="13.32914"><ele>492.0</ele><time>2026-04-18T12:14:17.258Z</time></trkpt><trkpt lat="43.055885" lon="13.3290767"><ele>490.3333333333333</ele><time>2026-04-18T12:14:19.258Z</time></trkpt><trkpt lat="43.0557583" lon="13.3290283"><ele>488.66666666666663</ele><time>2026-04-18T12:14:21.258Z</time></trkpt><trkpt lat="43.0556833" lon="13.329"><ele>487.0</ele><time>2026-04-18T12:14:22.258Z</time></trkpt><trkpt lat="43.0556067" lon="13.3289683"><ele>485.3333333333333</ele><time>2026-04-18T12:14:23.258Z</time></trkpt><trkpt lat="43.0555233" lon="13.3289433"><ele>483.66666666666663</ele><time>2026-04-18T12:14:24.258Z</time></trkpt><trkpt lat="43.0554517" lon="13.3289333"><ele>482.0</ele><time>2026-04-18T12:14:25.258Z</time></trkpt><trkpt lat="43.0553683" lon="13.3289417"><ele>482.0</ele><time>2026-04-18T12:14:26.258Z</time></trkpt><trkpt lat="43.0552717" lon="13.3289717"><ele>482.0</ele><time>2026-04-18T12:14:27.258Z</time></trkpt><trkpt lat="43.055175" lon="13.3290267"><ele>482.0</ele><time>2026-04-18T12:14:28.258Z</time></trkpt><trkpt lat="43.0550617" lon="13.3291117"><ele>482.0</ele><time>2026-04-18T12:14:29.258Z</time></trkpt><trkpt lat="43.0549367" lon="13.3292133"><ele>477.75</ele><time>2026-04-18T12:14:30.258Z</time></trkpt><trkpt lat="43.0548083" lon="13.3293067"><ele>473.5</ele><time>2026-04-18T12:14:31.258Z</time></trkpt><trkpt lat="43.05468" lon="13.329415"><ele>469.25</ele><time>2026-04-18T12:14:32.258Z</time></trkpt><trkpt lat="43.0545483" lon="13.32952"><ele>465.0</ele><time>2026-04-18T12:14:33.258Z</time></trkpt><trkpt lat="43.054425" lon="13.32961"><ele>465.0</ele><time>2026-04-18T12:14:34.258Z</time></trkpt><trkpt lat="43.0543217" lon="13.3296917"><ele>465.0</ele><time>2026-04-18T12:14:35.258Z</time></trkpt><trkpt lat="43.0542233" lon="13.329765"><ele>465.0</ele><time>2026-04-18T12:14:36.258Z</time></trkpt><trkpt lat="43.054115" lon="13.329845"><ele>465.0</ele><time>2026-04-18T12:14:37.258Z</time></trkpt><trkpt lat="43.05402" lon="13.3299217"><ele>463.8</ele><time>2026-04-18T12:14:38.258Z</time></trkpt><trkpt lat="43.0539283" lon="13.3299967"><ele>462.6</ele><time>2026-04-18T12:14:39.258Z</time></trkpt><trkpt lat="43.0538367" lon="13.3300783"><ele>461.4</ele><time>2026-04-18T12:14:40.258Z</time></trkpt><trkpt lat="43.05374" lon="13.3301567"><ele>460.2</ele><time>2026-04-18T12:14:41.258Z</time></trkpt><trkpt lat="43.0536383" lon="13.330225"><ele>459.0</ele><time>2026-04-18T12:14:42.258Z</time></trkpt><trkpt lat="43.0535417" lon="13.33028"><ele>459.0</ele><time>2026-04-18T12:14:43.258Z</time></trkpt><trkpt lat="43.05345" lon="13.3303317"><ele>459.0</ele><time>2026-04-18T12:14:44.258Z</time></trkpt><trkpt lat="43.0533633" lon="13.3303817"><ele>459.0</ele><time>2026-04-18T12:14:45.258Z</time></trkpt><trkpt lat="43.053275" lon="13.33043"><ele>459.0</ele><time>2026-04-18T12:14:46.258Z</time></trkpt><trkpt lat="43.0531967" lon="13.3304783"><ele>459.0</ele><time>2026-04-18T12:14:47.258Z</time></trkpt><trkpt lat="43.0531133" lon="13.330525"><ele>456.0</ele><time>2026-04-18T12:14:48.258Z</time></trkpt><trkpt lat="43.0530217" lon="13.330565"><ele>453.0</ele><time>2026-04-18T12:14:49.258Z</time></trkpt><trkpt lat="43.05293" lon="13.3306117"><ele>450.0</ele><time>2026-04-18T12:14:50.258Z</time></trkpt><trkpt lat="43.0528433" lon="13.330685"><ele>447.0</ele><time>2026-04-18T12:14:51.257Z</time></trkpt><trkpt lat="43.052755" lon="13.3307767"><ele>444.0</ele><time>2026-04-18T12:14:52.258Z</time></trkpt><trkpt lat="43.0526733" lon="13.3308717"><ele>444.0</ele><time>2026-04-18T12:14:53.257Z</time></trkpt><trkpt lat="43.0525917" lon="13.33097"><ele>444.0</ele><time>2026-04-18T12:14:54.258Z</time></trkpt><trkpt lat="43.0525083" lon="13.3310667"><ele>444.0</ele><time>2026-04-18T12:14:55.258Z</time></trkpt><trkpt lat="43.05242" lon="13.33117"><ele>444.0</ele><time>2026-04-18T12:14:56.258Z</time></trkpt><trkpt lat="43.0523167" lon="13.3312733"><ele>442.75</ele><time>2026-04-18T12:14:57.258Z</time></trkpt><trkpt lat="43.0522033" lon="13.331365"><ele>441.5</ele><time>2026-04-18T12:14:58.258Z</time></trkpt><trkpt lat="43.0520917" lon="13.3314433"><ele>440.25</ele><time>2026-04-18T12:14:59.258Z</time></trkpt><trkpt lat="43.0519817" lon="13.3315233"><ele>439.0</ele><time>2026-04-18T12:15:00.258Z</time></trkpt><trkpt lat="43.0518683" lon="13.331605"><ele>439.0</ele><time>2026-04-18T12:15:01.258Z</time></trkpt><trkpt lat="43.0517533" lon="13.3316933"><ele>439.0</ele><time>2026-04-18T12:15:02.258Z</time></trkpt><trkpt lat="43.0516417" lon="13.331795"><ele>439.0</ele><time>2026-04-18T12:15:03.258Z</time></trkpt><trkpt lat="43.0515333" lon="13.331905"><ele>439.0</ele><time>2026-04-18T12:15:04.258Z</time></trkpt><trkpt lat="43.051435" lon="13.331995"><ele>437.25</ele><time>2026-04-18T12:15:05.258Z</time></trkpt><trkpt lat="43.05134" lon="13.3321017"><ele>435.5</ele><time>2026-04-18T12:15:06.257Z</time></trkpt><trkpt lat="43.0512367" lon="13.3322117"><ele>433.75</ele><time>2026-04-18T12:15:07.258Z</time></trkpt><trkpt lat="43.0511267" lon="13.33234"><ele>432.0</ele><time>2026-04-18T12:15:08.258Z</time></trkpt><trkpt lat="43.0510083" lon="13.3324717"><ele>430.0</ele><time>2026-04-18T12:15:09.258Z</time></trkpt><trkpt lat="43.0508867" lon="13.3325867"><ele>428.0</ele><time>2026-04-18T12:15:10.258Z</time></trkpt><trkpt lat="43.0507667" lon="13.3327067"><ele>426.0</ele><time>2026-04-18T12:15:11.257Z</time></trkpt><trkpt lat="43.0506467" lon="13.3328133"><ele>424.0</ele><time>2026-04-18T12:15:12.258Z</time></trkpt><trkpt lat="43.0505233" lon="13.3329217"><ele>422.5</ele><time>2026-04-18T12:15:13.257Z</time></trkpt><trkpt lat="43.0504167" lon="13.3330217"><ele>421.0</ele><time>2026-04-18T12:15:14.258Z</time></trkpt><trkpt lat="43.05031" lon="13.3331217"><ele>419.5</ele><time>2026-04-18T12:15:15.258Z</time></trkpt><trkpt lat="43.0501967" lon="13.3332167"><ele>418.0</ele><time>2026-04-18T12:15:16.258Z</time></trkpt><trkpt lat="43.05008" lon="13.3333133"><ele>417.0</ele><time>2026-04-18T12:15:17.257Z</time></trkpt><trkpt lat="43.0499583" lon="13.33342"><ele>416.0</ele><time>2026-04-18T12:15:18.258Z</time></trkpt><trkpt lat="43.049825" lon="13.333525"><ele>415.0</ele><time>2026-04-18T12:15:19.258Z</time></trkpt><trkpt lat="43.04969" lon="13.33361"><ele>414.0</ele><time>2026-04-18T12:15:20.258Z</time></trkpt><trkpt lat="43.0495517" lon="13.3336817"><ele>414.0</ele><time>2026-04-18T12:15:21.258Z</time></trkpt><trkpt lat="43.049425" lon="13.3337467"><ele>414.0</ele><time>2026-04-18T12:15:22.258Z</time></trkpt><trkpt lat="43.0492933" lon="13.3338267"><ele>414.0</ele><time>2026-04-18T12:15:23.257Z</time></trkpt><trkpt lat="43.0491733" lon="13.3338967"><ele>414.0</ele><time>2026-04-18T12:15:24.258Z</time></trkpt><trkpt lat="43.0490667" lon="13.33396"><ele>411.5</ele><time>2026-04-18T12:15:25.258Z</time></trkpt><trkpt lat="43.04897" lon="13.3340133"><ele>409.0</ele><time>2026-04-18T12:15:26.258Z</time></trkpt><trkpt lat="43.0488833" lon="13.33405"><ele>406.5</ele><time>2026-04-18T12:15:27.258Z</time></trkpt><trkpt lat="43.0488117" lon="13.3340983"><ele>404.0</ele><time>2026-04-18T12:15:28.258Z</time></trkpt><trkpt lat="43.0487667" lon="13.3341783"><ele>401.5</ele><time>2026-04-18T12:15:29.258Z</time></trkpt><trkpt lat="43.0487433" lon="13.33427"><ele>399.0</ele><time>2026-04-18T12:15:30.258Z</time></trkpt><trkpt lat="43.04874" lon="13.3343933"><ele>399.0</ele><time>2026-04-18T12:15:31.258Z</time></trkpt><trkpt lat="43.0487567" lon="13.334575"><ele>399.0</ele><time>2026-04-18T12:15:32.258Z</time></trkpt><trkpt lat="43.0487667" lon="13.33479"><ele>399.0</ele><time>2026-04-18T12:15:33.258Z</time></trkpt><trkpt lat="43.0487667" lon="13.33504"><ele>398.66666666666663</ele><time>2026-04-18T12:15:34.258Z</time></trkpt><trkpt lat="43.0487633" lon="13.33527"><ele>398.3333333333333</ele><time>2026-04-18T12:15:35.258Z</time></trkpt><trkpt lat="43.0487567" lon="13.3354833"><ele>398.0</ele><time>2026-04-18T12:15:36.258Z</time></trkpt><trkpt lat="43.0487517" lon="13.335685"><ele>399.0</ele><time>2026-04-18T12:15:37.258Z</time></trkpt><trkpt lat="43.04875" lon="13.335875"><ele>400.0</ele><time>2026-04-18T12:15:38.258Z</time></trkpt><trkpt lat="43.0487483" lon="13.3360517"><ele>401.0</ele><time>2026-04-18T12:15:39.258Z</time></trkpt><trkpt lat="43.0487533" lon="13.336205"><ele>402.0</ele><time>2026-04-18T12:15:40.258Z</time></trkpt><trkpt lat="43.0487567" lon="13.33635"><ele>401.6</ele><time>2026-04-18T12:15:41.258Z</time></trkpt><trkpt lat="43.0487417" lon="13.3364883"><ele>401.20000000000005</ele><time>2026-04-18T12:15:42.258Z</time></trkpt><trkpt lat="43.0487067" lon="13.3366233"><ele>400.8</ele><time>2026-04-18T12:15:43.258Z</time></trkpt><trkpt lat="43.04865" lon="13.33674"><ele>400.4</ele><time>2026-04-18T12:15:44.257Z</time></trkpt><trkpt lat="43.0485883" lon="13.3368267"><ele>400.0</ele><time>2026-04-18T12:15:45.258Z</time></trkpt><trkpt lat="43.0485283" lon="13.3369117"><ele>400.00000000000006</ele><time>2026-04-18T12:15:46.258Z</time></trkpt><trkpt lat="43.048465" lon="13.33701"><ele>400.0</ele><time>2026-04-18T12:15:47.258Z</time></trkpt><trkpt lat="43.0484083" lon="13.3371033"><ele>400.0</ele><time>2026-04-18T12:15:48.258Z</time></trkpt><trkpt lat="43.0483533" lon="13.33721"><ele>400.0</ele><time>2026-04-18T12:15:49.258Z</time></trkpt><trkpt lat="43.048305" lon="13.3372983"><ele>400.00000000000006</ele><time>2026-04-18T12:15:50.258Z</time></trkpt><trkpt lat="43.04827" lon="13.3373833"><ele>400.0</ele><time>2026-04-18T12:15:51.258Z</time></trkpt><trkpt lat="43.0482383" lon="13.3374883"><ele>398.4</ele><time>2026-04-18T12:15:52.258Z</time></trkpt><trkpt lat="43.0482167" lon="13.3376133"><ele>396.8</ele><time>2026-04-18T12:15:53.258Z</time></trkpt><trkpt lat="43.04822" lon="13.3377467"><ele>395.20000000000005</ele><time>2026-04-18T12:15:54.258Z</time></trkpt><trkpt lat="43.0482417" lon="13.3378867"><ele>393.6</ele><time>2026-04-18T12:15:55.257Z</time></trkpt><trkpt lat="43.0482733" lon="13.3379983"><ele>392.0</ele><time>2026-04-18T12:15:56.258Z</time></trkpt><trkpt lat="43.048325" lon="13.338165"><ele>392.0</ele><time>2026-04-18T12:15:58.258Z</time></trkpt><trkpt lat="43.0483167" lon="13.3382783"><ele>392.0</ele><time>2026-04-18T12:15:59.258Z</time></trkpt><trkpt lat="43.048285" lon="13.338425"><ele>392.0</ele><time>2026-04-18T12:16:00.258Z</time></trkpt><trkpt lat="43.0482283" lon="13.3386017"><ele>392.0</ele><time>2026-04-18T12:16:01.258Z</time></trkpt><trkpt lat="43.0481717" lon="13.3387867"><ele>388.0</ele><time>2026-04-18T12:16:02.258Z</time></trkpt><trkpt lat="43.0481367" lon="13.3389733"><ele>384.0</ele><time>2026-04-18T12:16:03.258Z</time></trkpt><trkpt lat="43.0481117" lon="13.33917"><ele>380.0</ele><time>2026-04-18T12:16:04.258Z</time></trkpt><trkpt lat="43.0480967" lon="13.3393317"><ele>376.0</ele><time>2026-04-18T12:16:05.258Z</time></trkpt><trkpt lat="43.0480917" lon="13.3394733"><ele>376.0</ele><time>2026-04-18T12:16:06.258Z</time></trkpt><trkpt lat="43.04808" lon="13.339625"><ele>376.0</ele><time>2026-04-18T12:16:07.258Z</time></trkpt><trkpt lat="43.0480483" lon="13.3397633"><ele>376.0</ele><time>2026-04-18T12:16:08.258Z</time></trkpt><trkpt lat="43.048" lon="13.3399083"><ele>376.0</ele><time>2026-04-18T12:16:09.258Z</time></trkpt><trkpt lat="43.047945" lon="13.34006"><ele>375.4</ele><time>2026-04-18T12:16:10.258Z</time></trkpt><trkpt lat="43.0478833" lon="13.3402033"><ele>374.8</ele><time>2026-04-18T12:16:11.258Z</time></trkpt><trkpt lat="43.047825" lon="13.3403167"><ele>374.2</ele><time>2026-04-18T12:16:12.258Z</time></trkpt><trkpt lat="43.0477883" lon="13.34042"><ele>373.59999999999997</ele><time>2026-04-18T12:16:13.258Z</time></trkpt><trkpt lat="43.0477483" lon="13.34052"><ele>373.0</ele><time>2026-04-18T12:16:14.258Z</time></trkpt><trkpt lat="43.04771" lon="13.3406067"><ele>372.57142857142856</ele><time>2026-04-18T12:16:15.258Z</time></trkpt><trkpt lat="43.047675" lon="13.3406817"><ele>372.14285714285717</ele><time>2026-04-18T12:16:16.258Z</time></trkpt><trkpt lat="43.0476467" lon="13.34077"><ele>371.71428571428567</ele><time>2026-04-18T12:16:17.257Z</time></trkpt><trkpt lat="43.0476083" lon="13.3408533"><ele>371.2857142857143</ele><time>2026-04-18T12:16:18.258Z</time></trkpt><trkpt lat="43.047575" lon="13.34094"><ele>370.85714285714283</ele><time>2026-04-18T12:16:19.258Z</time></trkpt><trkpt lat="43.04755" lon="13.34103"><ele>370.4285714285714</ele><time>2026-04-18T12:16:20.258Z</time></trkpt><trkpt lat="43.0475233" lon="13.341135"><ele>370.0</ele><time>2026-04-18T12:16:21.258Z</time></trkpt><trkpt lat="43.04749" lon="13.3412433"><ele>367.0</ele><time>2026-04-18T12:16:22.258Z</time></trkpt><trkpt lat="43.047455" lon="13.3413517"><ele>364.0</ele><time>2026-04-18T12:16:23.258Z</time></trkpt><trkpt lat="43.0474233" lon="13.34148"><ele>361.0</ele><time>2026-04-18T12:16:24.258Z</time></trkpt><trkpt lat="43.0474" lon="13.341615"><ele>358.0</ele><time>2026-04-18T12:16:25.258Z</time></trkpt><trkpt lat="43.0473517" lon="13.3417483"><ele>355.0</ele><time>2026-04-18T12:16:26.258Z</time></trkpt><trkpt lat="43.0472983" lon="13.3418783"><ele>355.0</ele><time>2026-04-18T12:16:27.258Z</time></trkpt><trkpt lat="43.047225" lon="13.3420033"><ele>355.0</ele><time>2026-04-18T12:16:28.258Z</time></trkpt><trkpt lat="43.0471333" lon="13.3421133"><ele>355.0</ele><time>2026-04-18T12:16:29.258Z</time></trkpt><trkpt lat="43.0470267" lon="13.3422317"><ele>355.0</ele><time>2026-04-18T12:16:30.258Z</time></trkpt><trkpt lat="43.0469283" lon="13.3423317"><ele>354.8</ele><time>2026-04-18T12:16:31.258Z</time></trkpt><trkpt lat="43.0468367" lon="13.3424217"><ele>354.6</ele><time>2026-04-18T12:16:32.258Z</time></trkpt><trkpt lat="43.0467567" lon="13.3424967"><ele>354.4</ele><time>2026-04-18T12:16:33.258Z</time></trkpt><trkpt lat="43.0466917" lon="13.3425783"><ele>354.2</ele><time>2026-04-18T12:16:34.258Z</time></trkpt><trkpt lat="43.04663" lon="13.3426517"><ele>354.0</ele><time>2026-04-18T12:16:35.258Z</time></trkpt><trkpt lat="43.0465683" lon="13.3427367"><ele>354.0</ele><time>2026-04-18T12:16:36.258Z</time></trkpt><trkpt lat="43.046495" lon="13.3428467"><ele>354.0</ele><time>2026-04-18T12:16:37.258Z</time></trkpt><trkpt lat="43.0464383" lon="13.3429983"><ele>354.0</ele><time>2026-04-18T12:16:38.258Z</time></trkpt><trkpt lat="43.04639" lon="13.3431617"><ele>354.0</ele><time>2026-04-18T12:16:39.258Z</time></trkpt><trkpt lat="43.0463483" lon="13.3433217"><ele>354.0</ele><time>2026-04-18T12:16:40.257Z</time></trkpt><trkpt lat="43.0463067" lon="13.343455"><ele>354.0</ele><time>2026-04-18T12:16:41.258Z</time></trkpt><trkpt lat="43.0462517" lon="13.34356"><ele>354.0</ele><time>2026-04-18T12:16:42.258Z</time></trkpt><trkpt lat="43.0461767" lon="13.3436417"><ele>354.0</ele><time>2026-04-18T12:16:43.258Z</time></trkpt><trkpt lat="43.0460933" lon="13.34371"><ele>354.0</ele><time>2026-04-18T12:16:44.258Z</time></trkpt><trkpt lat="43.0460283" lon="13.3437717"><ele>353.79999999999995</ele><time>2026-04-18T12:16:45.258Z</time></trkpt><trkpt lat="43.04593" lon="13.3438883"><ele>353.59999999999997</ele><time>2026-04-18T12:16:47.258Z</time></trkpt><trkpt lat="43.0458483" lon="13.3440317"><ele>353.4</ele><time>2026-04-18T12:16:49.258Z</time></trkpt><trkpt lat="43.04582" lon="13.3441167"><ele>353.2</ele><time>2026-04-18T12:16:50.258Z</time></trkpt><trkpt lat="43.0458133" lon="13.3442117"><ele>353.0</ele><time>2026-04-18T12:16:51.258Z</time></trkpt><trkpt lat="43.0458183" lon="13.3443017"><ele>353.0</ele><time>2026-04-18T12:16:52.258Z</time></trkpt><trkpt lat="43.0458233" lon="13.344395"><ele>353.0</ele><time>2026-04-18T12:16:53.258Z</time></trkpt><trkpt lat="43.045835" lon="13.3445033"><ele>353.0</ele><time>2026-04-18T12:16:54.258Z</time></trkpt><trkpt lat="43.0458517" lon="13.3446033"><ele>353.0</ele><time>2026-04-18T12:16:55.258Z</time></trkpt><trkpt lat="43.0458733" lon="13.3447167"><ele>353.0</ele><time>2026-04-18T12:16:56.258Z</time></trkpt><trkpt lat="43.04588" lon="13.3448483"><ele>353.0</ele><time>2026-04-18T12:16:57.258Z</time></trkpt><trkpt lat="43.0458617" lon="13.3450033"><ele>352.79999999999995</ele><time>2026-04-18T12:16:58.258Z</time></trkpt><trkpt lat="43.0458517" lon="13.3451683"><ele>352.6</ele><time>2026-04-18T12:16:59.258Z</time></trkpt><trkpt lat="43.0458283" lon="13.3453333"><ele>352.4</ele><time>2026-04-18T12:17:00.258Z</time></trkpt><trkpt lat="43.0457933" lon="13.3454733"><ele>352.20000000000005</ele><time>2026-04-18T12:17:01.258Z</time></trkpt><trkpt lat="43.0457567" lon="13.3455867"><ele>352.0</ele><time>2026-04-18T12:17:02.258Z</time></trkpt><trkpt lat="43.0457383" lon="13.345685"><ele>351.6</ele><time>2026-04-18T12:17:03.258Z</time></trkpt><trkpt lat="43.04574" lon="13.3457917"><ele>351.20000000000005</ele><time>2026-04-18T12:17:04.258Z</time></trkpt><trkpt lat="43.04578" lon="13.345875"><ele>350.8</ele><time>2026-04-18T12:17:05.258Z</time></trkpt><trkpt lat="43.0458467" lon="13.3459483"><ele>350.4</ele><time>2026-04-18T12:17:06.258Z</time></trkpt><trkpt lat="43.04594" lon="13.3460167"><ele>350.0</ele><time>2026-04-18T12:17:07.258Z</time></trkpt><trkpt lat="43.0460583" lon="13.34609"><ele>351.0</ele><time>2026-04-18T12:17:08.258Z</time></trkpt><trkpt lat="43.0461567" lon="13.3461517"><ele>352.0</ele><time>2026-04-18T12:17:09.258Z</time></trkpt><trkpt lat="43.0462283" lon="13.3461883"><ele>353.0</ele><time>2026-04-18T12:17:10.258Z</time></trkpt><trkpt lat="43.0463233" lon="13.346175"><ele>354.0</ele><time>2026-04-18T12:17:12.258Z</time></trkpt><trkpt lat="43.0463633" lon="13.3460567"><ele>355.0</ele><time>2026-04-18T12:17:14.258Z</time></trkpt><trkpt lat="43.04636" lon="13.3459617"><ele>356.0</ele><time>2026-04-18T12:17:15.258Z</time></trkpt><trkpt lat="43.0463467" lon="13.3458633"><ele>356.0</ele><time>2026-04-18T12:17:16.258Z</time></trkpt><trkpt lat="43.0463683" lon="13.3457283"><ele>356.0</ele><time>2026-04-18T12:17:18.258Z</time></trkpt><trkpt lat="43.0464433" lon="13.3457283"><ele>356.0</ele><time>2026-04-18T12:17:20.258Z</time></trkpt><trkpt lat="43.046515" lon="13.345825"><ele>356.0</ele><time>2026-04-18T12:17:22.257Z</time></trkpt><trkpt lat="43.04655" lon="13.3458983"><ele>356.0</ele><time>2026-04-18T12:17:23.258Z</time></trkpt><trkpt lat="43.04659" lon="13.345995"><ele>356.0</ele><time>2026-04-18T12:17:24.258Z</time></trkpt><trkpt lat="43.0466317" lon="13.346125"><ele>358.20000000000005</ele><time>2026-04-18T12:17:25.257Z</time></trkpt><trkpt lat="43.0466667" lon="13.3462333"><ele>360.40000000000003</ele><time>2026-04-18T12:17:26.258Z</time></trkpt><trkpt lat="43.04671" lon="13.3463117"><ele>362.6</ele><time>2026-04-18T12:17:27.258Z</time></trkpt><trkpt lat="43.0467567" lon="13.3463767"><ele>364.8</ele><time>2026-04-18T12:17:28.258Z</time></trkpt><trkpt lat="43.046885" lon="13.3464233"><ele>367.0</ele><time>2026-04-18T12:17:30.258Z</time></trkpt><trkpt lat="43.046985" lon="13.3464117"><ele>369.0</ele><time>2026-04-18T12:17:31.258Z</time></trkpt><trkpt lat="43.04714" lon="13.3463683"><ele>371.0</ele><time>2026-04-18T12:17:32.258Z</time></trkpt><trkpt lat="43.0472983" lon="13.3463167"><ele>373.0</ele><time>2026-04-18T12:17:33.258Z</time></trkpt><trkpt lat="43.0474383" lon="13.3462583"><ele>376.25</ele><time>2026-04-18T12:17:34.258Z</time></trkpt><trkpt lat="43.047565" lon="13.3462117"><ele>379.5</ele><time>2026-04-18T12:17:35.258Z</time></trkpt><trkpt lat="43.0476833" lon="13.346165"><ele>382.75</ele><time>2026-04-18T12:17:36.258Z</time></trkpt><trkpt lat="43.0478" lon="13.3461267"><ele>386.0</ele><time>2026-04-18T12:17:37.258Z</time></trkpt><trkpt lat="43.0479117" lon="13.346085"><ele>386.0</ele><time>2026-04-18T12:17:38.258Z</time></trkpt><trkpt lat="43.0480233" lon="13.3460483"><ele>386.0</ele><time>2026-04-18T12:17:39.258Z</time></trkpt><trkpt lat="43.0481267" lon="13.3460533"><ele>386.0</ele><time>2026-04-18T12:17:40.258Z</time></trkpt><trkpt lat="43.048225" lon="13.3460767"><ele>386.0</ele><time>2026-04-18T12:17:41.258Z</time></trkpt><trkpt lat="43.048335" lon="13.346115"><ele>386.0</ele><time>2026-04-18T12:17:42.258Z</time></trkpt><trkpt lat="43.0484467" lon="13.346145"><ele>388.8</ele><time>2026-04-18T12:17:43.258Z</time></trkpt><trkpt lat="43.0485567" lon="13.3461833"><ele>391.6</ele><time>2026-04-18T12:17:44.258Z</time></trkpt><trkpt lat="43.048665" lon="13.3462167"><ele>394.4</ele><time>2026-04-18T12:17:45.258Z</time></trkpt><trkpt lat="43.0487667" lon="13.34625"><ele>397.2</ele><time>2026-04-18T12:17:46.258Z</time></trkpt><trkpt lat="43.0488717" lon="13.3462817"><ele>400.0</ele><time>2026-04-18T12:17:47.258Z</time></trkpt><trkpt lat="43.0489733" lon="13.3463067"><ele>400.00000000000006</ele><time>2026-04-18T12:17:48.258Z</time></trkpt><trkpt lat="43.0490583" lon="13.3463133"><ele>400.0</ele><time>2026-04-18T12:17:49.258Z</time></trkpt><trkpt lat="43.049135" lon="13.3462983"><ele>400.0</ele><time>2026-04-18T12:17:50.258Z</time></trkpt><trkpt lat="43.049205" lon="13.3462617"><ele>400.0</ele><time>2026-04-18T12:17:51.258Z</time></trkpt><trkpt lat="43.0492733" lon="13.3461917"><ele>400.00000000000006</ele><time>2026-04-18T12:17:52.258Z</time></trkpt><trkpt lat="43.049325" lon="13.3461"><ele>400.0</ele><time>2026-04-18T12:17:53.258Z</time></trkpt><trkpt lat="43.04935" lon="13.3459867"><ele>402.4</ele><time>2026-04-18T12:17:54.258Z</time></trkpt><trkpt lat="43.0493617" lon="13.345865"><ele>404.8</ele><time>2026-04-18T12:17:55.257Z</time></trkpt><trkpt lat="43.04936" lon="13.3457267"><ele>407.20000000000005</ele><time>2026-04-18T12:17:56.258Z</time></trkpt><trkpt lat="43.04937" lon="13.3456033"><ele>409.6</ele><time>2026-04-18T12:17:57.258Z</time></trkpt><trkpt lat="43.0493967" lon="13.3455117"><ele>412.0</ele><time>2026-04-18T12:17:58.258Z</time></trkpt><trkpt lat="43.0494783" lon="13.345405"><ele>412.00000000000006</ele><time>2026-04-18T12:18:00.258Z</time></trkpt><trkpt lat="43.0495417" lon="13.345415"><ele>412.0</ele><time>2026-04-18T12:18:01.258Z</time></trkpt><trkpt lat="43.0496017" lon="13.34546"><ele>412.0</ele><time>2026-04-18T12:18:02.257Z</time></trkpt><trkpt lat="43.0496483" lon="13.3455217"><ele>412.0</ele><time>2026-04-18T12:18:03.258Z</time></trkpt><trkpt lat="43.04969" lon="13.3456133"><ele>412.00000000000006</ele><time>2026-04-18T12:18:04.258Z</time></trkpt><trkpt lat="43.04973" lon="13.345715"><ele>412.0</ele><time>2026-04-18T12:18:05.258Z</time></trkpt><trkpt lat="43.0497667" lon="13.3458367"><ele>412.33333333333337</ele><time>2026-04-18T12:18:06.258Z</time></trkpt><trkpt lat="43.0497967" lon="13.3459567"><ele>412.6666666666667</ele><time>2026-04-18T12:18:07.258Z</time></trkpt><trkpt lat="43.0498333" lon="13.3460717"><ele>413.0</ele><time>2026-04-18T12:18:08.258Z</time></trkpt><trkpt lat="43.0498667" lon="13.3461883"><ele>413.33333333333337</ele><time>2026-04-18T12:18:09.258Z</time></trkpt><trkpt lat="43.0498983" lon="13.3462983"><ele>413.6666666666667</ele><time>2026-04-18T12:18:10.258Z</time></trkpt><trkpt lat="43.0499267" lon="13.34639"><ele>414.0</ele><time>2026-04-18T12:18:11.258Z</time></trkpt><trkpt lat="43.0499567" lon="13.34655"><ele>415.5</ele><time>2026-04-18T12:18:13.258Z</time></trkpt><trkpt lat="43.0499983" lon="13.346685"><ele>417.0</ele><time>2026-04-18T12:18:15.258Z</time></trkpt><trkpt lat="43.05005" lon="13.3467483"><ele>418.5</ele><time>2026-04-18T12:18:16.258Z</time></trkpt><trkpt lat="43.050115" lon="13.3467917"><ele>420.0</ele><time>2026-04-18T12:18:17.258Z</time></trkpt><trkpt lat="43.050185" lon="13.34684"><ele>421.5</ele><time>2026-04-18T12:18:18.258Z</time></trkpt><trkpt lat="43.0502583" lon="13.3468867"><ele>423.0</ele><time>2026-04-18T12:18:19.258Z</time></trkpt><trkpt lat="43.0503167" lon="13.3469283"><ele>423.0</ele><time>2026-04-18T12:18:20.258Z</time></trkpt><trkpt lat="43.0503633" lon="13.3470233"><ele>423.0</ele><time>2026-04-18T12:18:22.258Z</time></trkpt><trkpt lat="43.0503367" lon="13.3471333"><ele>423.0</ele><time>2026-04-18T12:18:24.258Z</time></trkpt><trkpt lat="43.0502967" lon="13.347205"><ele>423.0</ele><time>2026-04-18T12:18:25.258Z</time></trkpt><trkpt lat="43.05024" lon="13.3472733"><ele>423.0</ele><time>2026-04-18T12:18:26.258Z</time></trkpt><trkpt lat="43.0501817" lon="13.3473433"><ele>423.0</ele><time>2026-04-18T12:18:27.258Z</time></trkpt><trkpt lat="43.0501217" lon="13.3474183"><ele>422.59999999999997</ele><time>2026-04-18T12:18:28.258Z</time></trkpt><trkpt lat="43.0500417" lon="13.3474967"><ele>422.2</ele><time>2026-04-18T12:18:29.258Z</time></trkpt><trkpt lat="43.04996" lon="13.3475833"><ele>421.8</ele><time>2026-04-18T12:18:30.258Z</time></trkpt><trkpt lat="43.0498783" lon="13.3476717"><ele>421.4</ele><time>2026-04-18T12:18:31.258Z</time></trkpt><trkpt lat="43.0497967" lon="13.34774"><ele>421.0</ele><time>2026-04-18T12:18:32.258Z</time></trkpt><trkpt lat="43.0497083" lon="13.3478017"><ele>420.50000000000006</ele><time>2026-04-18T12:18:33.258Z</time></trkpt><trkpt lat="43.049615" lon="13.3478417"><ele>420.0</ele><time>2026-04-18T12:18:34.258Z</time></trkpt><trkpt lat="43.0495283" lon="13.3478667"><ele>419.5</ele><time>2026-04-18T12:18:35.258Z</time></trkpt><trkpt lat="43.04946" lon="13.3479017"><ele>419.0</ele><time>2026-04-18T12:18:36.258Z</time></trkpt><trkpt lat="43.0494033" lon="13.34796"><ele>418.50000000000006</ele><time>2026-04-18T12:18:37.258Z</time></trkpt><trkpt lat="43.0493567" lon="13.3480433"><ele>418.0</ele><time>2026-04-18T12:18:38.258Z</time></trkpt><trkpt lat="43.0493283" lon="13.34815"><ele>418.0</ele><time>2026-04-18T12:18:39.258Z</time></trkpt><trkpt lat="43.0493017" lon="13.3482567"><ele>418.0</ele><time>2026-04-18T12:18:40.258Z</time></trkpt><trkpt lat="43.0492883" lon="13.3483717"><ele>418.0</ele><time>2026-04-18T12:18:41.258Z</time></trkpt><trkpt lat="43.049285" lon="13.348495"><ele>418.0</ele><time>2026-04-18T12:18:42.258Z</time></trkpt><trkpt lat="43.049275" lon="13.3486217"><ele>418.0</ele><time>2026-04-18T12:18:43.258Z</time></trkpt><trkpt lat="43.0492617" lon="13.34876"><ele>419.0</ele><time>2026-04-18T12:18:44.258Z</time></trkpt><trkpt lat="43.0492317" lon="13.3489117"><ele>420.0</ele><time>2026-04-18T12:18:45.258Z</time></trkpt><trkpt lat="43.0492083" lon="13.3490617"><ele>421.0</ele><time>2026-04-18T12:18:46.258Z</time></trkpt><trkpt lat="43.04919" lon="13.3491967"><ele>422.0</ele><time>2026-04-18T12:18:47.258Z</time></trkpt><trkpt lat="43.0491833" lon="13.349325"><ele>423.0</ele><time>2026-04-18T12:18:48.258Z</time></trkpt><trkpt lat="43.0491733" lon="13.349455"><ele>423.0</ele><time>2026-04-18T12:18:49.258Z</time></trkpt><trkpt lat="43.049165" lon="13.3495883"><ele>423.0</ele><time>2026-04-18T12:18:50.258Z</time></trkpt><trkpt lat="43.0491583" lon="13.3497267"><ele>423.0</ele><time>2026-04-18T12:18:51.258Z</time></trkpt><trkpt lat="43.049145" lon="13.3498533"><ele>423.0</ele><time>2026-04-18T12:18:52.258Z</time></trkpt><trkpt lat="43.04913" lon="13.349975"><ele>423.0</ele><time>2026-04-18T12:18:53.257Z</time></trkpt><trkpt lat="43.0491133" lon="13.3501033"><ele>424.4</ele><time>2026-04-18T12:18:54.258Z</time></trkpt><trkpt lat="43.0491183" lon="13.3502267"><ele>425.79999999999995</ele><time>2026-04-18T12:18:55.258Z</time></trkpt><trkpt lat="43.04914" lon="13.3503483"><ele>427.2</ele><time>2026-04-18T12:18:56.258Z</time></trkpt><trkpt lat="43.049185" lon="13.3505017"><ele>428.6</ele><time>2026-04-18T12:18:57.258Z</time></trkpt><trkpt lat="43.0492333" lon="13.350655"><ele>430.0</ele><time>2026-04-18T12:18:58.257Z</time></trkpt><trkpt lat="43.0492667" lon="13.3508017"><ele>430.0</ele><time>2026-04-18T12:18:59.258Z</time></trkpt><trkpt lat="43.04929" lon="13.3509417"><ele>430.0</ele><time>2026-04-18T12:19:00.258Z</time></trkpt><trkpt lat="43.0493117" lon="13.3510783"><ele>430.0</ele><time>2026-04-18T12:19:01.258Z</time></trkpt><trkpt lat="43.0493417" lon="13.35123"><ele>430.0</ele><time>2026-04-18T12:19:02.258Z</time></trkpt><trkpt lat="43.049395" lon="13.351375"><ele>430.0</ele><time>2026-04-18T12:19:03.258Z</time></trkpt><trkpt lat="43.049465" lon="13.3514933"><ele>428.8</ele><time>2026-04-18T12:19:04.258Z</time></trkpt><trkpt lat="43.0495417" lon="13.3515633"><ele>427.6</ele><time>2026-04-18T12:19:05.258Z</time></trkpt><trkpt lat="43.0495967" lon="13.35167"><ele>426.4</ele><time>2026-04-18T12:19:06.258Z</time></trkpt><trkpt lat="43.0496467" lon="13.3517767"><ele>425.2</ele><time>2026-04-18T12:19:07.258Z</time></trkpt><trkpt lat="43.0496717" lon="13.3518883"><ele>424.0</ele><time>2026-04-18T12:19:08.258Z</time></trkpt><trkpt lat="43.0496867" lon="13.3520283"><ele>424.0</ele><time>2026-04-18T12:19:09.258Z</time></trkpt><trkpt lat="43.049685" lon="13.3521683"><ele>424.0</ele><time>2026-04-18T12:19:10.258Z</time></trkpt><trkpt lat="43.0496783" lon="13.352315"><ele>424.0</ele><time>2026-04-18T12:19:11.258Z</time></trkpt><trkpt lat="43.0496533" lon="13.35245"><ele>424.0</ele><time>2026-04-18T12:19:12.258Z</time></trkpt><trkpt lat="43.0496317" lon="13.3525883"><ele>424.0</ele><time>2026-04-18T12:19:13.258Z</time></trkpt><trkpt lat="43.0496217" lon="13.3527117"><ele>421.79999999999995</ele><time>2026-04-18T12:19:14.258Z</time></trkpt><trkpt lat="43.04961" lon="13.352835"><ele>419.59999999999997</ele><time>2026-04-18T12:19:15.258Z</time></trkpt><trkpt lat="43.0496033" lon="13.3529567"><ele>417.4</ele><time>2026-04-18T12:19:16.258Z</time></trkpt><trkpt lat="43.0496" lon="13.353085"><ele>415.2</ele><time>2026-04-18T12:19:17.258Z</time></trkpt><trkpt lat="43.0496083" lon="13.3532283"><ele>413.0</ele><time>2026-04-18T12:19:18.258Z</time></trkpt><trkpt lat="43.0496217" lon="13.3533683"><ele>411.4</ele><time>2026-04-18T12:19:19.258Z</time></trkpt><trkpt lat="43.0496367" lon="13.35351"><ele>409.79999999999995</ele><time>2026-04-18T12:19:20.258Z</time></trkpt><trkpt lat="43.0496383" lon="13.35365"><ele>408.2</ele><time>2026-04-18T12:19:21.258Z</time></trkpt><trkpt lat="43.04964" lon="13.3537733"><ele>406.6</ele><time>2026-04-18T12:19:22.258Z</time></trkpt><trkpt lat="43.049645" lon="13.3539033"><ele>405.0</ele><time>2026-04-18T12:19:23.258Z</time></trkpt><trkpt lat="43.0496483" lon="13.354035"><ele>404.6</ele><time>2026-04-18T12:19:24.258Z</time></trkpt><trkpt lat="43.04965" lon="13.3541717"><ele>404.2</ele><time>2026-04-18T12:19:25.258Z</time></trkpt><trkpt lat="43.0496567" lon="13.3543233"><ele>403.79999999999995</ele><time>2026-04-18T12:19:26.258Z</time></trkpt><trkpt lat="43.0496633" lon="13.35447"><ele>403.4</ele><time>2026-04-18T12:19:27.258Z</time></trkpt><trkpt lat="43.0496633" lon="13.3546067"><ele>403.0</ele><time>2026-04-18T12:19:28.258Z</time></trkpt><trkpt lat="43.04966" lon="13.354725"><ele>404.79999999999995</ele><time>2026-04-18T12:19:29.258Z</time></trkpt><trkpt lat="43.0496517" lon="13.3548183"><ele>406.6</ele><time>2026-04-18T12:19:30.258Z</time></trkpt><trkpt lat="43.04962" lon="13.3549317"><ele>408.4</ele><time>2026-04-18T12:19:32.258Z</time></trkpt><trkpt lat="43.04954" lon="13.3549683"><ele>410.20000000000005</ele><time>2026-04-18T12:19:34.258Z</time></trkpt><trkpt lat="43.0494583" lon="13.35495"><ele>412.0</ele><time>2026-04-18T12:19:36.258Z</time></trkpt><trkpt lat="43.0493333" lon="13.3549467"><ele>412.00000000000006</ele><time>2026-04-18T12:19:38.258Z</time></trkpt><trkpt lat="43.0492617" lon="13.3549583"><ele>412.0</ele><time>2026-04-18T12:19:39.258Z</time></trkpt><trkpt lat="43.0491883" lon="13.35498"><ele>412.0</ele><time>2026-04-18T12:19:40.258Z</time></trkpt><trkpt lat="43.049115" lon="13.3550067"><ele>412.0</ele><time>2026-04-18T12:19:41.258Z</time></trkpt><trkpt lat="43.0490267" lon="13.35503"><ele>412.00000000000006</ele><time>2026-04-18T12:19:42.258Z</time></trkpt><trkpt lat="43.048945" lon="13.35504"><ele>412.0</ele><time>2026-04-18T12:19:43.258Z</time></trkpt><trkpt lat="43.0488717" lon="13.3550367"><ele>412.8</ele><time>2026-04-18T12:19:44.258Z</time></trkpt><trkpt lat="43.0487783" lon="13.3550283"><ele>413.6</ele><time>2026-04-18T12:19:45.258Z</time></trkpt><trkpt lat="43.0486767" lon="13.355025"><ele>414.40000000000003</ele><time>2026-04-18T12:19:46.258Z</time></trkpt><trkpt lat="43.0485733" lon="13.35503"><ele>415.20000000000005</ele><time>2026-04-18T12:19:47.258Z</time></trkpt><trkpt lat="43.04848" lon="13.3550483"><ele>416.0</ele><time>2026-04-18T12:19:48.258Z</time></trkpt><trkpt lat="43.0483933" lon="13.3550883"><ele>415.99999999999994</ele><time>2026-04-18T12:19:49.258Z</time></trkpt><trkpt lat="43.0482983" lon="13.355145"><ele>416.0</ele><time>2026-04-18T12:19:50.258Z</time></trkpt><trkpt lat="43.0482233" lon="13.3552017"><ele>416.0</ele><time>2026-04-18T12:19:51.257Z</time></trkpt><trkpt lat="43.0481667" lon="13.355245"><ele>416.0</ele><time>2026-04-18T12:19:52.258Z</time></trkpt><trkpt lat="43.0481317" lon="13.3553483"><ele>415.99999999999994</ele><time>2026-04-18T12:19:54.258Z</time></trkpt><trkpt lat="43.0481429" lon="13.3554976"><ele>416.0</ele><time>2026-04-18T12:19:56.258Z</time></trkpt><trkpt lat="43.0481697" lon="13.3556013"><ele>417.49999999999994</ele><time>2026-04-18T12:19:57.258Z</time></trkpt><trkpt lat="43.0482088" lon="13.3557133"><ele>419.0</ele><time>2026-04-18T12:19:58.258Z</time></trkpt><trkpt lat="43.0482509" lon="13.3558226"><ele>420.5</ele><time>2026-04-18T12:19:59.258Z</time></trkpt><trkpt lat="43.0482945" lon="13.3559267"><ele>422.0</ele><time>2026-04-18T12:20:00.258Z</time></trkpt><trkpt lat="43.0483379" lon="13.3560352"><ele>423.49999999999994</ele><time>2026-04-18T12:20:01.258Z</time></trkpt><trkpt lat="43.0483777" lon="13.3561446"><ele>425.0</ele><time>2026-04-18T12:20:02.258Z</time></trkpt><trkpt lat="43.0484015" lon="13.3562476"><ele>426.3333333333333</ele><time>2026-04-18T12:20:03.258Z</time></trkpt><trkpt lat="43.0484049" lon="13.356351"><ele>427.66666666666663</ele><time>2026-04-18T12:20:04.258Z</time></trkpt><trkpt lat="43.0483902" lon="13.3564387"><ele>429.0</ele><time>2026-04-18T12:20:05.258Z</time></trkpt><trkpt lat="43.0483662" lon="13.3565494"><ele>430.33333333333337</ele><time>2026-04-18T12:20:07.258Z</time></trkpt><trkpt lat="43.04842" lon="13.3566317"><ele>431.6666666666667</ele><time>2026-04-18T12:20:10.258Z</time></trkpt><trkpt lat="43.04853" lon="13.3566467"><ele>433.0</ele><time>2026-04-18T12:20:12.257Z</time></trkpt><trkpt lat="43.0485933" lon="13.356675"><ele>433.1666666666667</ele><time>2026-04-18T12:20:13.258Z</time></trkpt><trkpt lat="43.0486567" lon="13.356725"><ele>433.33333333333337</ele><time>2026-04-18T12:20:14.258Z</time></trkpt><trkpt lat="43.0487133" lon="13.3567883"><ele>433.5</ele><time>2026-04-18T12:20:15.257Z</time></trkpt><trkpt lat="43.048775" lon="13.3568667"><ele>433.66666666666663</ele><time>2026-04-18T12:20:16.258Z</time></trkpt><trkpt lat="43.0488367" lon="13.35695"><ele>433.8333333333333</ele><time>2026-04-18T12:20:17.258Z</time></trkpt><trkpt lat="43.0489017" lon="13.3570367"><ele>434.0</ele><time>2026-04-18T12:20:18.258Z</time></trkpt><trkpt lat="43.0489583" lon="13.3571217"><ele>433.4</ele><time>2026-04-18T12:20:19.258Z</time></trkpt><trkpt lat="43.0490033" lon="13.3572267"><ele>432.79999999999995</ele><time>2026-04-18T12:20:20.258Z</time></trkpt><trkpt lat="43.0490317" lon="13.35735"><ele>432.20000000000005</ele><time>2026-04-18T12:20:21.258Z</time></trkpt><trkpt lat="43.0490317" lon="13.35749"><ele>431.6</ele><time>2026-04-18T12:20:22.258Z</time></trkpt><trkpt lat="43.0490133" lon="13.357635"><ele>431.0</ele><time>2026-04-18T12:20:23.257Z</time></trkpt><trkpt lat="43.0489817" lon="13.357785"><ele>430.99999999999994</ele><time>2026-04-18T12:20:24.258Z</time></trkpt><trkpt lat="43.0489433" lon="13.3579117"><ele>431.0</ele><time>2026-04-18T12:20:25.258Z</time></trkpt><trkpt lat="43.0489" lon="13.3580133"><ele>431.0</ele><time>2026-04-18T12:20:26.258Z</time></trkpt><trkpt lat="43.0488583" lon="13.35812"><ele>431.0</ele><time>2026-04-18T12:20:27.258Z</time></trkpt><trkpt lat="43.04882" lon="13.3582283"><ele>430.99999999999994</ele><time>2026-04-18T12:20:28.258Z</time></trkpt><trkpt lat="43.0487917" lon="13.3583383"><ele>431.0</ele><time>2026-04-18T12:20:29.257Z</time></trkpt><trkpt lat="43.04877" lon="13.35847"><ele>430.4</ele><time>2026-04-18T12:20:30.258Z</time></trkpt><trkpt lat="43.0487617" lon="13.35859"><ele>429.8</ele><time>2026-04-18T12:20:31.257Z</time></trkpt><trkpt lat="43.0487583" lon="13.3587083"><ele>429.19999999999993</ele><time>2026-04-18T12:20:32.258Z</time></trkpt><trkpt lat="43.0487583" lon="13.3588217"><ele>428.59999999999997</ele><time>2026-04-18T12:20:33.258Z</time></trkpt><trkpt lat="43.0487617" lon="13.3589183"><ele>428.0</ele><time>2026-04-18T12:20:34.258Z</time></trkpt><trkpt lat="43.0488317" lon="13.3590567"><ele>427.79999999999995</ele><time>2026-04-18T12:20:36.258Z</time></trkpt><trkpt lat="43.048895" lon="13.3591183"><ele>427.59999999999997</ele><time>2026-04-18T12:20:37.258Z</time></trkpt><trkpt lat="43.0489833" lon="13.3591917"><ele>427.40000000000003</ele><time>2026-04-18T12:20:38.258Z</time></trkpt><trkpt lat="43.04908" lon="13.359285"><ele>427.20000000000005</ele><time>2026-04-18T12:20:39.258Z</time></trkpt><trkpt lat="43.049175" lon="13.3593733"><ele>427.0</ele><time>2026-04-18T12:20:40.258Z</time></trkpt><trkpt lat="43.04927" lon="13.3594417"><ele>429.00000000000006</ele><time>2026-04-18T12:20:41.258Z</time></trkpt><trkpt lat="43.04936" lon="13.3594933"><ele>431.0</ele><time>2026-04-18T12:20:42.258Z</time></trkpt><trkpt lat="43.04943" lon="13.3595367"><ele>433.0</ele><time>2026-04-18T12:20:43.258Z</time></trkpt><trkpt lat="43.049495" lon="13.3595733"><ele>435.0</ele><time>2026-04-18T12:20:44.258Z</time></trkpt><trkpt lat="43.0495583" lon="13.3596"><ele>437.00000000000006</ele><time>2026-04-18T12:20:45.258Z</time></trkpt><trkpt lat="43.049675" lon="13.3595583"><ele>439.0</ele><time>2026-04-18T12:20:47.258Z</time></trkpt><trkpt lat="43.0497283" lon="13.359505"><ele>439.00000000000006</ele><time>2026-04-18T12:20:48.258Z</time></trkpt><trkpt lat="43.0497717" lon="13.3594233"><ele>439.0</ele><time>2026-04-18T12:20:49.258Z</time></trkpt><trkpt lat="43.049805" lon="13.3593283"><ele>439.0</ele><time>2026-04-18T12:20:50.258Z</time></trkpt><trkpt lat="43.0498267" lon="13.3592133"><ele>439.0</ele><time>2026-04-18T12:20:51.258Z</time></trkpt><trkpt lat="43.04985" lon="13.3590767"><ele>439.00000000000006</ele><time>2026-04-18T12:20:52.258Z</time></trkpt><trkpt lat="43.049875" lon="13.3589517"><ele>439.0</ele><time>2026-04-18T12:20:53.258Z</time></trkpt><trkpt lat="43.0498967" lon="13.358855"><ele>439.1666666666667</ele><time>2026-04-18T12:20:54.258Z</time></trkpt><trkpt lat="43.0499417" lon="13.3587283"><ele>439.33333333333337</ele><time>2026-04-18T12:20:56.258Z</time></trkpt><trkpt lat="43.0500117" lon="13.3586667"><ele>439.5</ele><time>2026-04-18T12:20:58.258Z</time></trkpt><trkpt lat="43.0501083" lon="13.3587317"><ele>439.66666666666663</ele><time>2026-04-18T12:21:00.258Z</time></trkpt><trkpt lat="43.0501617" lon="13.3587933"><ele>439.8333333333333</ele><time>2026-04-18T12:21:01.258Z</time></trkpt><trkpt lat="43.0502267" lon="13.35887"><ele>440.0</ele><time>2026-04-18T12:21:02.258Z</time></trkpt><trkpt lat="43.05029" lon="13.35895"><ele>442.66666666666663</ele><time>2026-04-18T12:21:03.258Z</time></trkpt><trkpt lat="43.0503483" lon="13.3590367"><ele>445.3333333333333</ele><time>2026-04-18T12:21:04.258Z</time></trkpt><trkpt lat="43.050395" lon="13.3591467"><ele>448.0</ele><time>2026-04-18T12:21:05.258Z</time></trkpt><trkpt lat="43.0504317" lon="13.35925"><ele>450.66666666666663</ele><time>2026-04-18T12:21:06.258Z</time></trkpt><trkpt lat="43.05047" lon="13.3593383"><ele>453.3333333333333</ele><time>2026-04-18T12:21:07.258Z</time></trkpt><trkpt lat="43.0505083" lon="13.3594083"><ele>456.0</ele><time>2026-04-18T12:21:08.258Z</time></trkpt><trkpt lat="43.050565" lon="13.3594467"><ele>456.0</ele><time>2026-04-18T12:21:09.258Z</time></trkpt><trkpt lat="43.0506333" lon="13.3594617"><ele>456.0</ele><time>2026-04-18T12:21:10.258Z</time></trkpt><trkpt lat="43.0507067" lon="13.35945"><ele>456.0</ele><time>2026-04-18T12:21:11.258Z</time></trkpt><trkpt lat="43.0507867" lon="13.35943"><ele>456.0</ele><time>2026-04-18T12:21:12.258Z</time></trkpt><trkpt lat="43.0508783" lon="13.3594233"><ele>456.0</ele><time>2026-04-18T12:21:13.258Z</time></trkpt><trkpt lat="43.0509783" lon="13.3594467"><ele>456.0</ele><time>2026-04-18T12:21:14.258Z</time></trkpt><trkpt lat="43.051095" lon="13.3594767"><ele>460.5</ele><time>2026-04-18T12:21:15.258Z</time></trkpt><trkpt lat="43.0512233" lon="13.3594983"><ele>465.0</ele><time>2026-04-18T12:21:16.258Z</time></trkpt><trkpt lat="43.0513633" lon="13.35952"><ele>469.5</ele><time>2026-04-18T12:21:17.258Z</time></trkpt><trkpt lat="43.0514983" lon="13.359555"><ele>474.0</ele><time>2026-04-18T12:21:18.257Z</time></trkpt><trkpt lat="43.051625" lon="13.3596033"><ele>476.5</ele><time>2026-04-18T12:21:19.258Z</time></trkpt><trkpt lat="43.051765" lon="13.359665"><ele>479.0</ele><time>2026-04-18T12:21:20.258Z</time></trkpt><trkpt lat="43.05188" lon="13.359725"><ele>481.5</ele><time>2026-04-18T12:21:21.258Z</time></trkpt><trkpt lat="43.0519767" lon="13.359795"><ele>484.0</ele><time>2026-04-18T12:21:22.258Z</time></trkpt><trkpt lat="43.0520517" lon="13.359875"><ele>484.0</ele><time>2026-04-18T12:21:23.258Z</time></trkpt><trkpt lat="43.052115" lon="13.359975"><ele>484.0</ele><time>2026-04-18T12:21:24.258Z</time></trkpt><trkpt lat="43.0521633" lon="13.3600633"><ele>484.0</ele><time>2026-04-18T12:21:25.258Z</time></trkpt><trkpt lat="43.052205" lon="13.3601383"><ele>484.0</ele><time>2026-04-18T12:21:26.258Z</time></trkpt><trkpt lat="43.052295" lon="13.3602067"><ele>484.0</ele><time>2026-04-18T12:21:28.258Z</time></trkpt><trkpt lat="43.0524" lon="13.36014"><ele>484.0</ele><time>2026-04-18T12:21:30.258Z</time></trkpt><trkpt lat="43.0524467" lon="13.3600617"><ele>484.0</ele><time>2026-04-18T12:21:31.258Z</time></trkpt><trkpt lat="43.0524917" lon="13.3599617"><ele>484.0</ele><time>2026-04-18T12:21:32.258Z</time></trkpt><trkpt lat="43.0525317" lon="13.3598433"><ele>484.0</ele><time>2026-04-18T12:21:33.258Z</time></trkpt><trkpt lat="43.0525567" lon="13.3596967"><ele>484.0</ele><time>2026-04-18T12:21:34.258Z</time></trkpt><trkpt lat="43.0525767" lon="13.3595667"><ele>485.1666666666667</ele><time>2026-04-18T12:21:35.258Z</time></trkpt><trkpt lat="43.0525833" lon="13.359465"><ele>486.33333333333337</ele><time>2026-04-18T12:21:36.258Z</time></trkpt><trkpt lat="43.0525733" lon="13.359375"><ele>487.5</ele><time>2026-04-18T12:21:37.258Z</time></trkpt><trkpt lat="43.0525333" lon="13.3593067"><ele>488.66666666666663</ele><time>2026-04-18T12:21:38.258Z</time></trkpt><trkpt lat="43.05243" lon="13.3592233"><ele>489.8333333333333</ele><time>2026-04-18T12:21:40.258Z</time></trkpt><trkpt lat="43.0523783" lon="13.359125"><ele>491.0</ele><time>2026-04-18T12:21:42.258Z</time></trkpt><trkpt lat="43.0524467" lon="13.3590217"><ele>494.8</ele><time>2026-04-18T12:21:45.258Z</time></trkpt><trkpt lat="43.0525517" lon="13.358935"><ele>498.6</ele><time>2026-04-18T12:21:47.258Z</time></trkpt><trkpt lat="43.0526167" lon="13.3588767"><ele>502.4</ele><time>2026-04-18T12:21:48.258Z</time></trkpt><trkpt lat="43.052675" lon="13.3588067"><ele>506.2</ele><time>2026-04-18T12:21:49.258Z</time></trkpt><trkpt lat="43.0527483" lon="13.358725"><ele>510.0</ele><time>2026-04-18T12:21:50.258Z</time></trkpt><trkpt lat="43.0528267" lon="13.35863"><ele>510.8</ele><time>2026-04-18T12:21:51.258Z</time></trkpt><trkpt lat="43.0529083" lon="13.358535"><ele>511.6</ele><time>2026-04-18T12:21:52.258Z</time></trkpt><trkpt lat="43.05298" lon="13.3584417"><ele>512.4</ele><time>2026-04-18T12:21:53.258Z</time></trkpt><trkpt lat="43.053055" lon="13.3583467"><ele>513.2</ele><time>2026-04-18T12:21:54.258Z</time></trkpt><trkpt lat="43.0531367" lon="13.358255"><ele>514.0</ele><time>2026-04-18T12:21:55.258Z</time></trkpt><trkpt lat="43.0532117" lon="13.3581883"><ele>514.0</ele><time>2026-04-18T12:21:56.258Z</time></trkpt><trkpt lat="43.05328" lon="13.3581433"><ele>514.0</ele><time>2026-04-18T12:21:57.258Z</time></trkpt><trkpt lat="43.0533367" lon="13.358105"><ele>514.0</ele><time>2026-04-18T12:21:58.258Z</time></trkpt><trkpt lat="43.0534533" lon="13.358065"><ele>514.0</ele><time>2026-04-18T12:22:00.258Z</time></trkpt><trkpt lat="43.053575" lon="13.3580717"><ele>514.0</ele><time>2026-04-18T12:22:02.258Z</time></trkpt><trkpt lat="43.0536517" lon="13.35814"><ele>517.1666666666667</ele><time>2026-04-18T12:22:04.257Z</time></trkpt><trkpt lat="43.053655" lon="13.3582717"><ele>520.3333333333334</ele><time>2026-04-18T12:22:06.258Z</time></trkpt><trkpt lat="43.0536417" lon="13.3583617"><ele>523.5</ele><time>2026-04-18T12:22:07.258Z</time></trkpt><trkpt lat="43.0536267" lon="13.3584733"><ele>526.6666666666666</ele><time>2026-04-18T12:22:08.258Z</time></trkpt><trkpt lat="43.05362" lon="13.358585"><ele>529.8333333333333</ele><time>2026-04-18T12:22:09.258Z</time></trkpt><trkpt lat="43.0536267" lon="13.3586767"><ele>533.0</ele><time>2026-04-18T12:22:10.258Z</time></trkpt><trkpt lat="43.053675" lon="13.3587833"><ele>533.0</ele><time>2026-04-18T12:22:12.258Z</time></trkpt><trkpt lat="43.0537417" lon="13.3588667"><ele>533.0</ele><time>2026-04-18T12:22:14.258Z</time></trkpt><trkpt lat="43.05385" lon="13.3588567"><ele>533.0</ele><time>2026-04-18T12:22:16.258Z</time></trkpt><trkpt lat="43.05391" lon="13.3588183"><ele>533.0</ele><time>2026-04-18T12:22:17.258Z</time></trkpt><trkpt lat="43.0539767" lon="13.3587617"><ele>533.0</ele><time>2026-04-18T12:22:18.258Z</time></trkpt><trkpt lat="43.0540367" lon="13.3586967"><ele>533.0</ele><time>2026-04-18T12:22:19.258Z</time></trkpt><trkpt lat="43.0540983" lon="13.3586333"><ele>535.5</ele><time>2026-04-18T12:22:20.258Z</time></trkpt><trkpt lat="43.0541583" lon="13.3585883"><ele>538.0</ele><time>2026-04-18T12:22:21.258Z</time></trkpt><trkpt lat="43.054225" lon="13.358575"><ele>540.5</ele><time>2026-04-18T12:22:22.258Z</time></trkpt><trkpt lat="43.0542883" lon="13.3585867"><ele>543.0</ele><time>2026-04-18T12:22:23.258Z</time></trkpt><trkpt lat="43.0543533" lon="13.3586367"><ele>545.5</ele><time>2026-04-18T12:22:24.258Z</time></trkpt><trkpt lat="43.05442" lon="13.3587117"><ele>548.0</ele><time>2026-04-18T12:22:25.258Z</time></trkpt><trkpt lat="43.054485" lon="13.3588083"><ele>549.1999999999999</ele><time>2026-04-18T12:22:26.258Z</time></trkpt><trkpt lat="43.05455" lon="13.35892"><ele>550.4</ele><time>2026-04-18T12:22:27.258Z</time></trkpt><trkpt lat="43.0545917" lon="13.3590367"><ele>551.5999999999999</ele><time>2026-04-18T12:22:28.258Z</time></trkpt><trkpt lat="43.054625" lon="13.3591267"><ele>552.8</ele><time>2026-04-18T12:22:29.257Z</time></trkpt><trkpt lat="43.05474" lon="13.3591583"><ele>554.0</ele><time>2026-04-18T12:22:31.258Z</time></trkpt><trkpt lat="43.0548067" lon="13.3591417"><ele>554.0</ele><time>2026-04-18T12:22:32.258Z</time></trkpt><trkpt lat="43.0548883" lon="13.359125"><ele>554.0</ele><time>2026-04-18T12:22:33.258Z</time></trkpt><trkpt lat="43.0549683" lon="13.3591167"><ele>554.0</ele><time>2026-04-18T12:22:34.258Z</time></trkpt><trkpt lat="43.055045" lon="13.3591533"><ele>554.0</ele><time>2026-04-18T12:22:35.257Z</time></trkpt><trkpt lat="43.05511" lon="13.3591983"><ele>554.0</ele><time>2026-04-18T12:22:36.258Z</time></trkpt><trkpt lat="43.055165" lon="13.3592767"><ele>554.0</ele><time>2026-04-18T12:22:37.258Z</time></trkpt><trkpt lat="43.0551933" lon="13.3593883"><ele>558.5</ele><time>2026-04-18T12:22:38.258Z</time></trkpt><trkpt lat="43.0552117" lon="13.3595267"><ele>563.0</ele><time>2026-04-18T12:22:39.258Z</time></trkpt><trkpt lat="43.055225" lon="13.3596833"><ele>567.5</ele><time>2026-04-18T12:22:40.258Z</time></trkpt><trkpt lat="43.0552417" lon="13.3598583"><ele>572.0</ele><time>2026-04-18T12:22:41.258Z</time></trkpt><trkpt lat="43.0552567" lon="13.3600367"><ele>574.0</ele><time>2026-04-18T12:22:42.258Z</time></trkpt><trkpt lat="43.0552817" lon="13.3602133"><ele>576.0</ele><time>2026-04-18T12:22:43.258Z</time></trkpt><trkpt lat="43.05531" lon="13.3603767"><ele>578.0</ele><time>2026-04-18T12:22:44.258Z</time></trkpt><trkpt lat="43.0553467" lon="13.3605317"><ele>580.0</ele><time>2026-04-18T12:22:45.258Z</time></trkpt><trkpt lat="43.0553917" lon="13.3606833"><ele>580.6666666666667</ele><time>2026-04-18T12:22:46.258Z</time></trkpt><trkpt lat="43.055425" lon="13.3608217"><ele>581.3333333333334</ele><time>2026-04-18T12:22:47.258Z</time></trkpt><trkpt lat="43.0554633" lon="13.3609267"><ele>582.0</ele><time>2026-04-18T12:22:48.258Z</time></trkpt><trkpt lat="43.055495" lon="13.3610183"><ele>582.6666666666666</ele><time>2026-04-18T12:22:49.258Z</time></trkpt><trkpt lat="43.055555" lon="13.3611467"><ele>583.3333333333333</ele><time>2026-04-18T12:22:51.258Z</time></trkpt><trkpt lat="43.0555933" lon="13.3612233"><ele>584.0</ele><time>2026-04-18T12:22:53.257Z</time></trkpt><trkpt lat="43.055635" lon="13.36131"><ele>584.0</ele><time>2026-04-18T12:22:56.258Z</time></trkpt><trkpt lat="43.0557267" lon="13.36121"><ele>584.0</ele><time>2026-04-18T12:29:45.256Z</time></trkpt><trkpt lat="43.055795" lon="13.3611333"><ele>584.0</ele><time>2026-04-18T12:29:47.257Z</time></trkpt><trkpt lat="43.05583" lon="13.3612117"><ele>584.0</ele><time>2026-04-18T12:29:52.257Z</time></trkpt><trkpt lat="43.0557983" lon="13.3612883"><ele>584.0</ele><time>2026-04-18T12:29:53.257Z</time></trkpt><trkpt lat="43.0557633" lon="13.361405"><ele>584.0</ele><time>2026-04-18T12:29:54.257Z</time></trkpt><trkpt lat="43.0557333" lon="13.3615517"><ele>585.25</ele><time>2026-04-18T12:29:55.257Z</time></trkpt><trkpt lat="43.0557133" lon="13.361705"><ele>586.5</ele><time>2026-04-18T12:29:56.257Z</time></trkpt><trkpt lat="43.055725" lon="13.361855"><ele>587.75</ele><time>2026-04-18T12:29:57.257Z</time></trkpt><trkpt lat="43.0557667" lon="13.3619967"><ele>589.0</ele><time>2026-04-18T12:29:58.257Z</time></trkpt><trkpt lat="43.0558567" lon="13.36214"><ele>594.6666666666667</ele><time>2026-04-18T12:29:59.257Z</time></trkpt><trkpt lat="43.05598" lon="13.36226"><ele>600.3333333333334</ele><time>2026-04-18T12:30:00.257Z</time></trkpt><trkpt lat="43.0561317" lon="13.3623667"><ele>606.0</ele><time>2026-04-18T12:30:01.257Z</time></trkpt><trkpt lat="43.056305" lon="13.362475"><ele>606.0</ele><time>2026-04-18T12:30:02.257Z</time></trkpt><trkpt lat="43.056475" lon="13.3625833"><ele>606.0</ele><time>2026-04-18T12:30:03.257Z</time></trkpt><trkpt lat="43.0566467" lon="13.3626883"><ele>606.0</ele><time>2026-04-18T12:30:04.257Z</time></trkpt><trkpt lat="43.0567933" lon="13.3627983"><ele>606.25</ele><time>2026-04-18T12:30:05.257Z</time></trkpt><trkpt lat="43.05692" lon="13.3629"><ele>606.5</ele><time>2026-04-18T12:30:06.257Z</time></trkpt><trkpt lat="43.05704" lon="13.36301"><ele>606.75</ele><time>2026-04-18T12:30:07.257Z</time></trkpt><trkpt lat="43.0571433" lon="13.3631367"><ele>607.0</ele><time>2026-04-18T12:30:08.257Z</time></trkpt><trkpt lat="43.05723" lon="13.3632983"><ele>607.0</ele><time>2026-04-18T12:30:09.257Z</time></trkpt><trkpt lat="43.05729" lon="13.36349"><ele>607.0</ele><time>2026-04-18T12:30:10.257Z</time></trkpt><trkpt lat="43.0573217" lon="13.363705"><ele>607.0</ele><time>2026-04-18T12:30:11.257Z</time></trkpt><trkpt lat="43.05736" lon="13.3638967"><ele>606.25</ele><time>2026-04-18T12:30:12.257Z</time></trkpt><trkpt lat="43.0574033" lon="13.364065"><ele>605.5</ele><time>2026-04-18T12:30:13.257Z</time></trkpt><trkpt lat="43.0574783" lon="13.364225"><ele>604.75</ele><time>2026-04-18T12:30:14.257Z</time></trkpt><trkpt lat="43.0576017" lon="13.3643633"><ele>604.0</ele><time>2026-04-18T12:30:15.257Z</time></trkpt><trkpt lat="43.0577317" lon="13.3644783"><ele>610.3333333333334</ele><time>2026-04-18T12:30:16.257Z</time></trkpt><trkpt lat="43.0578967" lon="13.3645633"><ele>616.6666666666666</ele><time>2026-04-18T12:30:17.257Z</time></trkpt><trkpt lat="43.05808" lon="13.364625"><ele>623.0</ele><time>2026-04-18T12:30:18.257Z</time></trkpt><trkpt lat="43.0582467" lon="13.3646633"><ele>622.25</ele><time>2026-04-18T12:30:19.257Z</time></trkpt><trkpt lat="43.058405" lon="13.364695"><ele>621.5</ele><time>2026-04-18T12:30:20.257Z</time></trkpt><trkpt lat="43.0585417" lon="13.364725"><ele>620.75</ele><time>2026-04-18T12:30:21.257Z</time></trkpt><trkpt lat="43.058675" lon="13.3647517"><ele>620.0</ele><time>2026-04-18T12:30:22.257Z</time></trkpt><trkpt lat="43.058815" lon="13.364785"><ele>620.0</ele><time>2026-04-18T12:30:23.257Z</time></trkpt><trkpt lat="43.058945" lon="13.3648333"><ele>620.0</ele><time>2026-04-18T12:30:24.257Z</time></trkpt><trkpt lat="43.0590633" lon="13.3649133"><ele>620.0</ele><time>2026-04-18T12:30:25.257Z</time></trkpt><trkpt lat="43.05916" lon="13.3650217"><ele>620.0</ele><time>2026-04-18T12:30:26.257Z</time></trkpt><trkpt lat="43.0592333" lon="13.3651533"><ele>622.0</ele><time>2026-04-18T12:30:27.257Z</time></trkpt><trkpt lat="43.05928" lon="13.3653017"><ele>624.0</ele><time>2026-04-18T12:30:28.257Z</time></trkpt><trkpt lat="43.0593017" lon="13.3654583"><ele>626.0</ele><time>2026-04-18T12:30:29.257Z</time></trkpt><trkpt lat="43.0593033" lon="13.365625"><ele>628.0</ele><time>2026-04-18T12:30:30.257Z</time></trkpt><trkpt lat="43.0592833" lon="13.36579"><ele>628.0</ele><time>2026-04-18T12:30:31.257Z</time></trkpt><trkpt lat="43.0592617" lon="13.3659467"><ele>628.0</ele><time>2026-04-18T12:30:32.257Z</time></trkpt><trkpt lat="43.0592367" lon="13.3661033"><ele>628.0</ele><time>2026-04-18T12:30:33.257Z</time></trkpt><trkpt lat="43.0592233" lon="13.3662583"><ele>628.0</ele><time>2026-04-18T12:30:34.257Z</time></trkpt><trkpt lat="43.059215" lon="13.3664183"><ele>627.5</ele><time>2026-04-18T12:30:35.257Z</time></trkpt><trkpt lat="43.0592133" lon="13.36658"><ele>627.0</ele><time>2026-04-18T12:30:36.257Z</time></trkpt><trkpt lat="43.0592183" lon="13.3667517"><ele>626.5</ele><time>2026-04-18T12:30:37.257Z</time></trkpt><trkpt lat="43.05923" lon="13.36693"><ele>626.0</ele><time>2026-04-18T12:30:38.257Z</time></trkpt><trkpt lat="43.0592567" lon="13.367115"><ele>626.0</ele><time>2026-04-18T12:30:39.257Z</time></trkpt><trkpt lat="43.0593" lon="13.3672933"><ele>626.0</ele><time>2026-04-18T12:30:40.257Z</time></trkpt><trkpt lat="43.05936" lon="13.3674633"><ele>626.0</ele><time>2026-04-18T12:30:41.256Z</time></trkpt><trkpt lat="43.0594217" lon="13.3676317"><ele>626.0</ele><time>2026-04-18T12:30:42.257Z</time></trkpt><trkpt lat="43.0594967" lon="13.367795"><ele>626.0</ele><time>2026-04-18T12:30:43.257Z</time></trkpt><trkpt lat="43.0595833" lon="13.3679417"><ele>626.0</ele><time>2026-04-18T12:30:44.257Z</time></trkpt><trkpt lat="43.0596717" lon="13.36807"><ele>626.0</ele><time>2026-04-18T12:30:45.257Z</time></trkpt><trkpt lat="43.0597567" lon="13.36818"><ele>626.0</ele><time>2026-04-18T12:30:46.256Z</time></trkpt><trkpt lat="43.0598467" lon="13.3682883"><ele>626.75</ele><time>2026-04-18T12:30:47.257Z</time></trkpt><trkpt lat="43.05994" lon="13.368395"><ele>627.5</ele><time>2026-04-18T12:30:48.257Z</time></trkpt><trkpt lat="43.060025" lon="13.36851"><ele>628.25</ele><time>2026-04-18T12:30:49.257Z</time></trkpt><trkpt lat="43.060105" lon="13.3686317"><ele>629.0</ele><time>2026-04-18T12:30:50.257Z</time></trkpt><trkpt lat="43.0601633" lon="13.36876"><ele>630.25</ele><time>2026-04-18T12:30:51.257Z</time></trkpt><trkpt lat="43.0601867" lon="13.368905"><ele>631.5</ele><time>2026-04-18T12:30:52.257Z</time></trkpt><trkpt lat="43.0601833" lon="13.369065"><ele>632.75</ele><time>2026-04-18T12:30:53.257Z</time></trkpt><trkpt lat="43.06017" lon="13.3692317"><ele>634.0</ele><time>2026-04-18T12:30:54.257Z</time></trkpt><trkpt lat="43.0601483" lon="13.3693967"><ele>634.0</ele><time>2026-04-18T12:30:55.257Z</time></trkpt><trkpt lat="43.0601267" lon="13.3695567"><ele>634.0</ele><time>2026-04-18T12:30:56.257Z</time></trkpt><trkpt lat="43.06011" lon="13.36971"><ele>634.0</ele><time>2026-04-18T12:30:57.257Z</time></trkpt><trkpt lat="43.0600883" lon="13.3698633"><ele>634.0</ele><time>2026-04-18T12:30:58.257Z</time></trkpt><trkpt lat="43.0600667" lon="13.3700083"><ele>633.25</ele><time>2026-04-18T12:30:59.257Z</time></trkpt><trkpt lat="43.0600633" lon="13.3701667"><ele>632.5</ele><time>2026-04-18T12:31:00.256Z</time></trkpt><trkpt lat="43.06007" lon="13.3703183"><ele>631.75</ele><time>2026-04-18T12:31:01.257Z</time></trkpt><trkpt lat="43.0601067" lon="13.3704617"><ele>631.0</ele><time>2026-04-18T12:31:02.257Z</time></trkpt><trkpt lat="43.06018" lon="13.3706183"><ele>631.0</ele><time>2026-04-18T12:31:03.257Z</time></trkpt><trkpt lat="43.06026" lon="13.3707833"><ele>631.0</ele><time>2026-04-18T12:31:04.256Z</time></trkpt><trkpt lat="43.0603383" lon="13.37095"><ele>631.0</ele><time>2026-04-18T12:31:05.257Z</time></trkpt><trkpt lat="43.06042" lon="13.3711117"><ele>631.0</ele><time>2026-04-18T12:31:06.257Z</time></trkpt><trkpt lat="43.06049" lon="13.3712583"><ele>631.0</ele><time>2026-04-18T12:31:07.257Z</time></trkpt><trkpt lat="43.0605467" lon="13.37138"><ele>631.0</ele><time>2026-04-18T12:31:08.257Z</time></trkpt><trkpt lat="43.0605883" lon="13.3714883"><ele>631.0</ele><time>2026-04-18T12:31:09.257Z</time></trkpt><trkpt lat="43.06062" lon="13.3715833"><ele>631.0</ele><time>2026-04-18T12:31:10.257Z</time></trkpt><trkpt lat="43.06065" lon="13.3717033"><ele>631.0</ele><time>2026-04-18T12:31:12.257Z</time></trkpt><trkpt lat="43.0607433" lon="13.371745"><ele>628.2</ele><time>2026-04-18T12:31:16.257Z</time></trkpt><trkpt lat="43.06081" lon="13.3717217"><ele>625.4000000000001</ele><time>2026-04-18T12:31:17.257Z</time></trkpt><trkpt lat="43.0609033" lon="13.3716933"><ele>622.6</ele><time>2026-04-18T12:31:18.257Z</time></trkpt><trkpt lat="43.0610217" lon="13.371655"><ele>619.8000000000001</ele><time>2026-04-18T12:31:19.257Z</time></trkpt><trkpt lat="43.061155" lon="13.3716133"><ele>617.0</ele><time>2026-04-18T12:31:20.257Z</time></trkpt><trkpt lat="43.06129" lon="13.3715633"><ele>617.0</ele><time>2026-04-18T12:31:21.257Z</time></trkpt><trkpt lat="43.06141" lon="13.3715183"><ele>617.0</ele><time>2026-04-18T12:31:22.257Z</time></trkpt><trkpt lat="43.0615333" lon="13.3714767"><ele>617.0</ele><time>2026-04-18T12:31:23.257Z</time></trkpt><trkpt lat="43.0616583" lon="13.3714417"><ele>617.0</ele><time>2026-04-18T12:31:24.257Z</time></trkpt><trkpt lat="43.0617883" lon="13.3714133"><ele>613.25</ele><time>2026-04-18T12:31:25.257Z</time></trkpt><trkpt lat="43.061915" lon="13.3713783"><ele>609.5</ele><time>2026-04-18T12:31:26.257Z</time></trkpt><trkpt lat="43.0620417" lon="13.3713467"><ele>605.75</ele><time>2026-04-18T12:31:27.256Z</time></trkpt><trkpt lat="43.062165" lon="13.37133"><ele>602.0</ele><time>2026-04-18T12:31:28.257Z</time></trkpt><trkpt lat="43.0623017" lon="13.371315"><ele>601.75</ele><time>2026-04-18T12:31:29.257Z</time></trkpt><trkpt lat="43.0624267" lon="13.3713017"><ele>601.5</ele><time>2026-04-18T12:31:30.257Z</time></trkpt><trkpt lat="43.06255" lon="13.3712933"><ele>601.25</ele><time>2026-04-18T12:31:31.257Z</time></trkpt><trkpt lat="43.0626717" lon="13.3712867"><ele>601.0</ele><time>2026-04-18T12:31:32.257Z</time></trkpt><trkpt lat="43.0627917" lon="13.3712833"><ele>598.2</ele><time>2026-04-18T12:31:33.257Z</time></trkpt><trkpt lat="43.0629083" lon="13.37128"><ele>595.4000000000001</ele><time>2026-04-18T12:31:34.257Z</time></trkpt><trkpt lat="43.063025" lon="13.3712833"><ele>592.6</ele><time>2026-04-18T12:31:35.257Z</time></trkpt><trkpt lat="43.0631317" lon="13.3712833"><ele>589.8000000000001</ele><time>2026-04-18T12:31:36.257Z</time></trkpt><trkpt lat="43.0632293" lon="13.3712708"><ele>587.0</ele><time>2026-04-18T12:31:37.257Z</time></trkpt><trkpt lat="43.063309" lon="13.3712418"><ele>585.3333333333333</ele><time>2026-04-18T12:31:38.256Z</time></trkpt><trkpt lat="43.0633813" lon="13.3711881"><ele>583.6666666666666</ele><time>2026-04-18T12:31:39.256Z</time></trkpt><trkpt lat="43.0634511" lon="13.3711183"><ele>582.0</ele><time>2026-04-18T12:31:40.256Z</time></trkpt><trkpt lat="43.0635163" lon="13.3710325"><ele>580.3333333333334</ele><time>2026-04-18T12:31:41.256Z</time></trkpt><trkpt lat="43.0635832" lon="13.3709409"><ele>578.6666666666667</ele><time>2026-04-18T12:31:42.256Z</time></trkpt><trkpt lat="43.0636472" lon="13.3708462"><ele>577.0</ele><time>2026-04-18T12:31:43.256Z</time></trkpt><trkpt lat="43.0637144" lon="13.3707586"><ele>577.0</ele><time>2026-04-18T12:31:44.256Z</time></trkpt><trkpt lat="43.0637791" lon="13.3706786"><ele>577.0</ele><time>2026-04-18T12:31:45.256Z</time></trkpt><trkpt lat="43.0638452" lon="13.3706033"><ele>577.0</ele><time>2026-04-18T12:31:46.256Z</time></trkpt><trkpt lat="43.0639106" lon="13.3705323"><ele>577.0</ele><time>2026-04-18T12:31:47.256Z</time></trkpt><trkpt lat="43.0639791" lon="13.3704587"><ele>577.0</ele><time>2026-04-18T12:31:48.256Z</time></trkpt><trkpt lat="43.0640466" lon="13.3703803"><ele>577.0</ele><time>2026-04-18T12:31:49.256Z</time></trkpt><trkpt lat="43.0641164" lon="13.370296"><ele>572.6</ele><time>2026-04-18T12:31:50.255Z</time></trkpt><trkpt lat="43.0641895" lon="13.3702046"><ele>568.2</ele><time>2026-04-18T12:31:51.255Z</time></trkpt><trkpt lat="43.064268" lon="13.3701137"><ele>563.8</ele><time>2026-04-18T12:31:52.256Z</time></trkpt><trkpt lat="43.0643533" lon="13.3700256"><ele>559.4</ele><time>2026-04-18T12:31:53.256Z</time></trkpt><trkpt lat="43.0644532" lon="13.369951"><ele>555.0</ele><time>2026-04-18T12:31:54.256Z</time></trkpt><trkpt lat="43.0645652" lon="13.3698895"><ele>555.0</ele><time>2026-04-18T12:31:55.256Z</time></trkpt><trkpt lat="43.0646821" lon="13.369831"><ele>555.0</ele><time>2026-04-18T12:31:56.255Z</time></trkpt><trkpt lat="43.0647993" lon="13.3697697"><ele>555.0</ele><time>2026-04-18T12:31:57.256Z</time></trkpt><trkpt lat="43.0649101" lon="13.3697092"><ele>555.0</ele><time>2026-04-18T12:31:58.256Z</time></trkpt><trkpt lat="43.0650229" lon="13.3696458"><ele>547.75</ele><time>2026-04-18T12:31:59.256Z</time></trkpt><trkpt lat="43.0651341" lon="13.3695883"><ele>540.5</ele><time>2026-04-18T12:32:00.256Z</time></trkpt><trkpt lat="43.065245" lon="13.3695385"><ele>533.25</ele><time>2026-04-18T12:32:01.256Z</time></trkpt><trkpt lat="43.0653554" lon="13.3694945"><ele>526.0</ele><time>2026-04-18T12:32:02.256Z</time></trkpt><trkpt lat="43.0654741" lon="13.3694675"><ele>526.0</ele><time>2026-04-18T12:32:03.256Z</time></trkpt><trkpt lat="43.0656012" lon="13.3694474"><ele>526.0</ele><time>2026-04-18T12:32:04.256Z</time></trkpt><trkpt lat="43.0657249" lon="13.3694218"><ele>526.0</ele><time>2026-04-18T12:32:05.256Z</time></trkpt><trkpt lat="43.0658487" lon="13.3693965"><ele>526.0</ele><time>2026-04-18T12:32:06.256Z</time></trkpt><trkpt lat="43.0659643" lon="13.3693724"><ele>524.8</ele><time>2026-04-18T12:32:07.256Z</time></trkpt><trkpt lat="43.0660767" lon="13.3693586"><ele>523.6</ele><time>2026-04-18T12:32:08.255Z</time></trkpt><trkpt lat="43.0661786" lon="13.3693439"><ele>522.4</ele><time>2026-04-18T12:32:09.256Z</time></trkpt><trkpt lat="43.066275" lon="13.3693217"><ele>521.2</ele><time>2026-04-18T12:32:10.256Z</time></trkpt><trkpt lat="43.06637" lon="13.3692933"><ele>520.0</ele><time>2026-04-18T12:32:11.256Z</time></trkpt><trkpt lat="43.0664533" lon="13.3692683"><ele>520.0</ele><time>2026-04-18T12:32:12.256Z</time></trkpt><trkpt lat="43.0665267" lon="13.3692417"><ele>520.0</ele><time>2026-04-18T12:32:13.256Z</time></trkpt><trkpt lat="43.0666067" lon="13.3691817"><ele>520.0</ele><time>2026-04-18T12:32:14.256Z</time></trkpt><trkpt lat="43.0666833" lon="13.3690983"><ele>520.0</ele><time>2026-04-18T12:32:15.256Z</time></trkpt><trkpt lat="43.0667533" lon="13.369005"><ele>520.0</ele><time>2026-04-18T12:32:16.256Z</time></trkpt><trkpt lat="43.0668183" lon="13.3689333"><ele>520.0</ele><time>2026-04-18T12:32:17.256Z</time></trkpt><trkpt lat="43.0668733" lon="13.36887"><ele>518.3333333333334</ele><time>2026-04-18T12:32:18.256Z</time></trkpt><trkpt lat="43.066935" lon="13.3687617"><ele>516.6666666666667</ele><time>2026-04-18T12:32:20.256Z</time></trkpt><trkpt lat="43.067" lon="13.3687183"><ele>515.0</ele><time>2026-04-18T12:32:22.256Z</time></trkpt><trkpt lat="43.0670533" lon="13.368785"><ele>513.3333333333334</ele><time>2026-04-18T12:32:24.256Z</time></trkpt><trkpt lat="43.0670417" lon="13.3689467"><ele>511.6666666666667</ele><time>2026-04-18T12:32:26.256Z</time></trkpt><trkpt lat="43.0670217" lon="13.3690533"><ele>510.0</ele><time>2026-04-18T12:32:27.256Z</time></trkpt><trkpt lat="43.0670028" lon="13.3691596"><ele>510.0</ele><time>2026-04-18T12:32:28.256Z</time></trkpt><trkpt lat="43.0669902" lon="13.3692769"><ele>510.0</ele><time>2026-04-18T12:32:29.256Z</time></trkpt><trkpt lat="43.0669971" lon="13.3693865"><ele>510.0</ele><time>2026-04-18T12:32:30.256Z</time></trkpt><trkpt lat="43.0670161" lon="13.369508"><ele>510.0</ele><time>2026-04-18T12:32:31.256Z</time></trkpt><trkpt lat="43.0670518" lon="13.3696526"><ele>510.0</ele><time>2026-04-18T12:32:32.256Z</time></trkpt><trkpt lat="43.0670994" lon="13.3697978"><ele>510.8</ele><time>2026-04-18T12:32:33.256Z</time></trkpt><trkpt lat="43.0671521" lon="13.3699224"><ele>511.6</ele><time>2026-04-18T12:32:34.256Z</time></trkpt><trkpt lat="43.0672137" lon="13.3700285"><ele>512.4</ele><time>2026-04-18T12:32:35.256Z</time></trkpt><trkpt lat="43.0672795" lon="13.3701184"><ele>513.2</ele><time>2026-04-18T12:32:36.256Z</time></trkpt><trkpt lat="43.0673466" lon="13.3701804"><ele>514.0</ele><time>2026-04-18T12:32:37.255Z</time></trkpt><trkpt lat="43.0674291" lon="13.3702153"><ele>508.79999999999995</ele><time>2026-04-18T12:32:38.256Z</time></trkpt><trkpt lat="43.0675217" lon="13.3702267"><ele>503.59999999999997</ele><time>2026-04-18T12:32:39.256Z</time></trkpt><trkpt lat="43.0676312" lon="13.3702154"><ele>498.4</ele><time>2026-04-18T12:32:40.256Z</time></trkpt><trkpt lat="43.0677478" lon="13.3701988"><ele>493.2</ele><time>2026-04-18T12:32:41.256Z</time></trkpt><trkpt lat="43.0678591" lon="13.370181"><ele>488.0</ele><time>2026-04-18T12:32:42.256Z</time></trkpt><trkpt lat="43.0679613" lon="13.3701692"><ele>487.99999999999994</ele><time>2026-04-18T12:32:43.256Z</time></trkpt><trkpt lat="43.0680643" lon="13.3701721"><ele>488.0</ele><time>2026-04-18T12:32:44.256Z</time></trkpt><trkpt lat="43.0681592" lon="13.3701912"><ele>488.0</ele><time>2026-04-18T12:32:45.256Z</time></trkpt><trkpt lat="43.0682529" lon="13.3702202"><ele>488.0</ele><time>2026-04-18T12:32:46.256Z</time></trkpt><trkpt lat="43.0683309" lon="13.3702548"><ele>487.99999999999994</ele><time>2026-04-18T12:32:47.256Z</time></trkpt><trkpt lat="43.0683972" lon="13.3702904"><ele>488.0</ele><time>2026-04-18T12:32:48.256Z</time></trkpt><trkpt lat="43.0685111" lon="13.3703485"><ele>484.2</ele><time>2026-04-18T12:32:50.256Z</time></trkpt><trkpt lat="43.0685982" lon="13.3704627"><ele>480.4</ele><time>2026-04-18T12:32:52.256Z</time></trkpt><trkpt lat="43.0686716" lon="13.3705863"><ele>476.59999999999997</ele><time>2026-04-18T12:32:54.256Z</time></trkpt><trkpt lat="43.0687814" lon="13.3706037"><ele>472.79999999999995</ele><time>2026-04-18T12:32:56.256Z</time></trkpt><trkpt lat="43.0688513" lon="13.3705903"><ele>469.0</ele><time>2026-04-18T12:32:57.256Z</time></trkpt><trkpt lat="43.0689274" lon="13.3705705"><ele>468.4</ele><time>2026-04-18T12:32:58.256Z</time></trkpt><trkpt lat="43.0690148" lon="13.370554"><ele>467.79999999999995</ele><time>2026-04-18T12:32:59.256Z</time></trkpt><trkpt lat="43.0691092" lon="13.3705438"><ele>467.20000000000005</ele><time>2026-04-18T12:33:00.256Z</time></trkpt><trkpt lat="43.069225" lon="13.3705367"><ele>466.6</ele><time>2026-04-18T12:33:01.256Z</time></trkpt><trkpt lat="43.0693467" lon="13.3705217"><ele>466.0</ele><time>2026-04-18T12:33:02.256Z</time></trkpt><trkpt lat="43.0694833" lon="13.3705"><ele>463.20000000000005</ele><time>2026-04-18T12:33:03.256Z</time></trkpt><trkpt lat="43.06961" lon="13.3704867"><ele>460.40000000000003</ele><time>2026-04-18T12:33:04.256Z</time></trkpt><trkpt lat="43.0697183" lon="13.3704783"><ele>457.6</ele><time>2026-04-18T12:33:05.256Z</time></trkpt><trkpt lat="43.0698167" lon="13.3704783"><ele>454.8</ele><time>2026-04-18T12:33:06.256Z</time></trkpt><trkpt lat="43.06991" lon="13.3704667"><ele>452.0</ele><time>2026-04-18T12:33:07.256Z</time></trkpt><trkpt lat="43.0699967" lon="13.370465"><ele>449.40000000000003</ele><time>2026-04-18T12:33:08.256Z</time></trkpt><trkpt lat="43.0700783" lon="13.370435"><ele>446.80000000000007</ele><time>2026-04-18T12:33:09.256Z</time></trkpt><trkpt lat="43.070165" lon="13.3704"><ele>444.2</ele><time>2026-04-18T12:33:10.256Z</time></trkpt><trkpt lat="43.0702533" lon="13.3703533"><ele>441.6</ele><time>2026-04-18T12:33:11.256Z</time></trkpt><trkpt lat="43.07034" lon="13.370305"><ele>439.0</ele><time>2026-04-18T12:33:12.256Z</time></trkpt><trkpt lat="43.0704333" lon="13.3702583"><ele>439.0</ele><time>2026-04-18T12:33:13.256Z</time></trkpt><trkpt lat="43.070525" lon="13.3702217"><ele>439.0</ele><time>2026-04-18T12:33:14.256Z</time></trkpt><trkpt lat="43.070625" lon="13.370185"><ele>439.0</ele><time>2026-04-18T12:33:15.256Z</time></trkpt><trkpt lat="43.0707167" lon="13.3701583"><ele>439.0</ele><time>2026-04-18T12:33:16.256Z</time></trkpt><trkpt lat="43.07081" lon="13.37013"><ele>439.0</ele><time>2026-04-18T12:33:17.256Z</time></trkpt><trkpt lat="43.0709017" lon="13.3701033"><ele>436.33333333333337</ele><time>2026-04-18T12:33:18.256Z</time></trkpt><trkpt lat="43.0709967" lon="13.3700767"><ele>433.6666666666667</ele><time>2026-04-18T12:33:19.256Z</time></trkpt><trkpt lat="43.0710833" lon="13.3700483"><ele>431.0</ele><time>2026-04-18T12:33:20.256Z</time></trkpt><trkpt lat="43.0711667" lon="13.3700283"><ele>428.33333333333337</ele><time>2026-04-18T12:33:21.256Z</time></trkpt><trkpt lat="43.0712467" lon="13.3700133"><ele>425.6666666666667</ele><time>2026-04-18T12:33:22.256Z</time></trkpt><trkpt lat="43.071325" lon="13.36999"><ele>423.0</ele><time>2026-04-18T12:33:23.256Z</time></trkpt><trkpt lat="43.0713883" lon="13.369965"><ele>423.0</ele><time>2026-04-18T12:33:24.256Z</time></trkpt><trkpt lat="43.0714733" lon="13.3699083"><ele>423.0</ele><time>2026-04-18T12:33:26.256Z</time></trkpt><trkpt lat="43.0714933" lon="13.3697683"><ele>423.0</ele><time>2026-04-18T12:33:28.256Z</time></trkpt><trkpt lat="43.07147" lon="13.36963"><ele>423.0</ele><time>2026-04-18T12:33:30.256Z</time></trkpt><trkpt lat="43.0714783" lon="13.369525"><ele>423.0</ele><time>2026-04-18T12:33:32.256Z</time></trkpt><trkpt lat="43.0715521" lon="13.3694522"><ele>419.2</ele><time>2026-04-18T12:33:34.256Z</time></trkpt><trkpt lat="43.0716612" lon="13.3694128"><ele>415.4</ele><time>2026-04-18T12:33:36.255Z</time></trkpt><trkpt lat="43.0717884" lon="13.3693762"><ele>411.59999999999997</ele><time>2026-04-18T12:33:38.256Z</time></trkpt><trkpt lat="43.0718622" lon="13.3693643"><ele>407.79999999999995</ele><time>2026-04-18T12:33:39.256Z</time></trkpt><trkpt lat="43.0719373" lon="13.3693403"><ele>404.0</ele><time>2026-04-18T12:33:40.256Z</time></trkpt><trkpt lat="43.072011" lon="13.3692992"><ele>403.99999999999994</ele><time>2026-04-18T12:33:41.256Z</time></trkpt><trkpt lat="43.0720868" lon="13.3692512"><ele>404.0</ele><time>2026-04-18T12:33:42.256Z</time></trkpt><trkpt lat="43.072157" lon="13.3691995"><ele>404.0</ele><time>2026-04-18T12:33:43.256Z</time></trkpt><trkpt lat="43.0722268" lon="13.3691385"><ele>404.0</ele><time>2026-04-18T12:33:44.256Z</time></trkpt><trkpt lat="43.0722987" lon="13.369067"><ele>403.99999999999994</ele><time>2026-04-18T12:33:45.256Z</time></trkpt><trkpt lat="43.0723613" lon="13.3689918"><ele>404.0</ele><time>2026-04-18T12:33:46.256Z</time></trkpt><trkpt lat="43.0724186" lon="13.3689147"><ele>401.16666666666663</ele><time>2026-04-18T12:33:47.256Z</time></trkpt><trkpt lat="43.0724813" lon="13.368837"><ele>398.3333333333333</ele><time>2026-04-18T12:33:48.256Z</time></trkpt><trkpt lat="43.0725474" lon="13.368772"><ele>395.5</ele><time>2026-04-18T12:33:49.256Z</time></trkpt><trkpt lat="43.0726079" lon="13.3687094"><ele>392.66666666666663</ele><time>2026-04-18T12:33:50.255Z</time></trkpt><trkpt lat="43.0726809" lon="13.3686437"><ele>389.8333333333333</ele><time>2026-04-18T12:33:51.256Z</time></trkpt><trkpt lat="43.0727607" lon="13.3685754"><ele>387.0</ele><time>2026-04-18T12:33:52.256Z</time></trkpt><trkpt lat="43.0728435" lon="13.3685121"><ele>387.0</ele><time>2026-04-18T12:33:53.256Z</time></trkpt><trkpt lat="43.0729316" lon="13.3684562"><ele>387.0</ele><time>2026-04-18T12:33:54.256Z</time></trkpt><trkpt lat="43.0730166" lon="13.3684093"><ele>387.0</ele><time>2026-04-18T12:33:55.256Z</time></trkpt><trkpt lat="43.0730936" lon="13.368368"><ele>387.0</ele><time>2026-04-18T12:33:56.256Z</time></trkpt><trkpt lat="43.0731723" lon="13.3683207"><ele>387.0</ele><time>2026-04-18T12:33:57.256Z</time></trkpt><trkpt lat="43.0732516" lon="13.3682836"><ele>387.0</ele><time>2026-04-18T12:33:58.256Z</time></trkpt><trkpt lat="43.0733337" lon="13.3682443"><ele>384.6</ele><time>2026-04-18T12:33:59.256Z</time></trkpt><trkpt lat="43.0734223" lon="13.3682173"><ele>382.20000000000005</ele><time>2026-04-18T12:34:00.256Z</time></trkpt><trkpt lat="43.0735111" lon="13.3681979"><ele>379.8</ele><time>2026-04-18T12:34:01.256Z</time></trkpt><trkpt lat="43.073606" lon="13.3681923"><ele>377.4</ele><time>2026-04-18T12:34:02.256Z</time></trkpt><trkpt lat="43.0737042" lon="13.3682045"><ele>375.0</ele><time>2026-04-18T12:34:03.256Z</time></trkpt><trkpt lat="43.0737992" lon="13.3682369"><ele>375.0</ele><time>2026-04-18T12:34:04.256Z</time></trkpt><trkpt lat="43.0738898" lon="13.3682887"><ele>375.0</ele><time>2026-04-18T12:34:05.256Z</time></trkpt><trkpt lat="43.07397" lon="13.36835"><ele>375.0</ele><time>2026-04-18T12:34:06.256Z</time></trkpt><trkpt lat="43.07405" lon="13.3684117"><ele>375.0</ele><time>2026-04-18T12:34:07.256Z</time></trkpt><trkpt lat="43.0741117" lon="13.3684767"><ele>375.0</ele><time>2026-04-18T12:34:08.256Z</time></trkpt><trkpt lat="43.0741717" lon="13.368545"><ele>375.0</ele><time>2026-04-18T12:34:09.256Z</time></trkpt><trkpt lat="43.074225" lon="13.36862"><ele>371.5</ele><time>2026-04-18T12:34:10.256Z</time></trkpt><trkpt lat="43.074265" lon="13.3687117"><ele>368.0</ele><time>2026-04-18T12:34:11.256Z</time></trkpt><trkpt lat="43.074295" lon="13.3688283"><ele>364.5</ele><time>2026-04-18T12:34:12.256Z</time></trkpt><trkpt lat="43.0743083" lon="13.3689483"><ele>361.0</ele><time>2026-04-18T12:34:13.256Z</time></trkpt><trkpt lat="43.07431" lon="13.36906"><ele>357.5</ele><time>2026-04-18T12:34:14.256Z</time></trkpt><trkpt lat="43.0742933" lon="13.3691717"><ele>354.0</ele><time>2026-04-18T12:34:15.256Z</time></trkpt><trkpt lat="43.074275" lon="13.3692717"><ele>353.6</ele><time>2026-04-18T12:34:16.256Z</time></trkpt><trkpt lat="43.07427" lon="13.369405"><ele>353.2</ele><time>2026-04-18T12:34:18.256Z</time></trkpt><trkpt lat="43.0743317" lon="13.3694517"><ele>352.8</ele><time>2026-04-18T12:34:20.256Z</time></trkpt><trkpt lat="43.074445" lon="13.3693967"><ele>352.40000000000003</ele><time>2026-04-18T12:34:22.256Z</time></trkpt><trkpt lat="43.0745033" lon="13.369325"><ele>352.0</ele><time>2026-04-18T12:34:23.256Z</time></trkpt><trkpt lat="43.0745633" lon="13.3692283"><ele>352.0</ele><time>2026-04-18T12:34:24.256Z</time></trkpt><trkpt lat="43.0746333" lon="13.3691133"><ele>352.0</ele><time>2026-04-18T12:34:25.256Z</time></trkpt><trkpt lat="43.074705" lon="13.369005"><ele>352.0</ele><time>2026-04-18T12:34:26.256Z</time></trkpt><trkpt lat="43.0747717" lon="13.3688817"><ele>352.0</ele><time>2026-04-18T12:34:27.256Z</time></trkpt><trkpt lat="43.0748183" lon="13.36878"><ele>352.0</ele><time>2026-04-18T12:34:28.256Z</time></trkpt><trkpt lat="43.0748667" lon="13.3686883"><ele>352.3333333333333</ele><time>2026-04-18T12:34:29.256Z</time></trkpt><trkpt lat="43.0749333" lon="13.3686233"><ele>352.66666666666663</ele><time>2026-04-18T12:34:30.256Z</time></trkpt><trkpt lat="43.075005" lon="13.3685883"><ele>353.0</ele><time>2026-04-18T12:34:31.256Z</time></trkpt><trkpt lat="43.07509" lon="13.3685767"><ele>353.3333333333333</ele><time>2026-04-18T12:34:32.256Z</time></trkpt><trkpt lat="43.0751717" lon="13.3685833"><ele>353.6666666666667</ele><time>2026-04-18T12:34:33.256Z</time></trkpt><trkpt lat="43.0752617" lon="13.368615"><ele>354.0</ele><time>2026-04-18T12:34:34.256Z</time></trkpt><trkpt lat="43.075345" lon="13.3686517"><ele>353.8333333333333</ele><time>2026-04-18T12:34:35.256Z</time></trkpt><trkpt lat="43.0754183" lon="13.3686933"><ele>353.6666666666667</ele><time>2026-04-18T12:34:36.256Z</time></trkpt><trkpt lat="43.0754867" lon="13.3687067"><ele>353.5</ele><time>2026-04-18T12:34:37.256Z</time></trkpt><trkpt lat="43.0755517" lon="13.3686983"><ele>353.33333333333337</ele><time>2026-04-18T12:34:38.256Z</time></trkpt><trkpt lat="43.0756267" lon="13.3686683"><ele>353.1666666666667</ele><time>2026-04-18T12:34:39.256Z</time></trkpt><trkpt lat="43.0757117" lon="13.3686083"><ele>353.0</ele><time>2026-04-18T12:34:40.256Z</time></trkpt><trkpt lat="43.0758133" lon="13.3685317"><ele>353.0</ele><time>2026-04-18T12:34:41.256Z</time></trkpt><trkpt lat="43.0759267" lon="13.36844"><ele>353.0</ele><time>2026-04-18T12:34:42.256Z</time></trkpt><trkpt lat="43.07603" lon="13.368365"><ele>353.0</ele><time>2026-04-18T12:34:43.256Z</time></trkpt><trkpt lat="43.0761317" lon="13.3683233"><ele>353.0</ele><time>2026-04-18T12:34:44.256Z</time></trkpt><trkpt lat="43.0762367" lon="13.3682983"><ele>353.0</ele><time>2026-04-18T12:34:45.256Z</time></trkpt><trkpt lat="43.0763383" lon="13.3682767"><ele>353.0</ele><time>2026-04-18T12:34:46.256Z</time></trkpt><trkpt lat="43.07644" lon="13.36825"><ele>353.0</ele><time>2026-04-18T12:34:47.256Z</time></trkpt><trkpt lat="43.0765333" lon="13.3682083"><ele>353.0</ele><time>2026-04-18T12:34:48.256Z</time></trkpt><trkpt lat="43.0766133" lon="13.368155"><ele>353.0</ele><time>2026-04-18T12:34:49.256Z</time></trkpt><trkpt lat="43.0766817" lon="13.3680983"><ele>353.79999999999995</ele><time>2026-04-18T12:34:50.255Z</time></trkpt><trkpt lat="43.076735" lon="13.3680383"><ele>354.6</ele><time>2026-04-18T12:34:51.256Z</time></trkpt><trkpt lat="43.0767967" lon="13.3679183"><ele>355.4</ele><time>2026-04-18T12:34:53.256Z</time></trkpt><trkpt lat="43.0767783" lon="13.3677717"><ele>356.20000000000005</ele><time>2026-04-18T12:34:55.256Z</time></trkpt><trkpt lat="43.0767067" lon="13.3676"><ele>357.0</ele><time>2026-04-18T12:34:57.256Z</time></trkpt><trkpt lat="43.0766617" lon="13.3674667"><ele>359.5</ele><time>2026-04-18T12:34:58.256Z</time></trkpt><trkpt lat="43.0766317" lon="13.3673217"><ele>362.0</ele><time>2026-04-18T12:34:59.256Z</time></trkpt><trkpt lat="43.0766117" lon="13.3671583"><ele>364.5</ele><time>2026-04-18T12:35:00.256Z</time></trkpt><trkpt lat="43.0766017" lon="13.3669817"><ele>367.0</ele><time>2026-04-18T12:35:01.256Z</time></trkpt><trkpt lat="43.076615" lon="13.366805"><ele>370.25</ele><time>2026-04-18T12:35:02.256Z</time></trkpt><trkpt lat="43.0766367" lon="13.3666233"><ele>373.5</ele><time>2026-04-18T12:35:03.256Z</time></trkpt><trkpt lat="43.0766617" lon="13.3664433"><ele>376.75</ele><time>2026-04-18T12:35:04.256Z</time></trkpt><trkpt lat="43.076685" lon="13.3662917"><ele>380.0</ele><time>2026-04-18T12:35:05.256Z</time></trkpt><trkpt lat="43.0767" lon="13.3661517"><ele>382.6</ele><time>2026-04-18T12:35:06.256Z</time></trkpt><trkpt lat="43.0767083" lon="13.3660067"><ele>385.2</ele><time>2026-04-18T12:35:07.256Z</time></trkpt><trkpt lat="43.0767033" lon="13.3658617"><ele>387.79999999999995</ele><time>2026-04-18T12:35:08.256Z</time></trkpt><trkpt lat="43.07669" lon="13.36573"><ele>390.4</ele><time>2026-04-18T12:35:09.256Z</time></trkpt><trkpt lat="43.0766833" lon="13.365615"><ele>393.0</ele><time>2026-04-18T12:35:10.256Z</time></trkpt><trkpt lat="43.0766483" lon="13.3655283"><ele>394.3333333333333</ele><time>2026-04-18T12:35:11.256Z</time></trkpt><trkpt lat="43.0766017" lon="13.36545"><ele>395.66666666666663</ele><time>2026-04-18T12:35:12.256Z</time></trkpt><trkpt lat="43.0765267" lon="13.365365"><ele>397.0</ele><time>2026-04-18T12:35:13.256Z</time></trkpt><trkpt lat="43.0764517" lon="13.36528"><ele>398.3333333333333</ele><time>2026-04-18T12:35:14.256Z</time></trkpt><trkpt lat="43.07638" lon="13.3651933"><ele>399.66666666666663</ele><time>2026-04-18T12:35:15.256Z</time></trkpt><trkpt lat="43.0763267" lon="13.365115"><ele>401.0</ele><time>2026-04-18T12:35:16.256Z</time></trkpt><trkpt lat="43.0763" lon="13.3650167"><ele>400.99999999999994</ele><time>2026-04-18T12:35:17.256Z</time></trkpt><trkpt lat="43.0762817" lon="13.3649017"><ele>401.0</ele><time>2026-04-18T12:35:18.256Z</time></trkpt><trkpt lat="43.0762667" lon="13.3647767"><ele>401.0</ele><time>2026-04-18T12:35:19.256Z</time></trkpt><trkpt lat="43.0762367" lon="13.36465"><ele>401.0</ele><time>2026-04-18T12:35:20.256Z</time></trkpt><trkpt lat="43.0761917" lon="13.364535"><ele>400.99999999999994</ele><time>2026-04-18T12:35:21.256Z</time></trkpt><trkpt lat="43.0761533" lon="13.3644433"><ele>401.0</ele><time>2026-04-18T12:35:22.255Z</time></trkpt><trkpt lat="43.076125" lon="13.3642983"><ele>402.66666666666663</ele><time>2026-04-18T12:35:24.256Z</time></trkpt><trkpt lat="43.076165" lon="13.3642083"><ele>404.3333333333333</ele><time>2026-04-18T12:35:26.256Z</time></trkpt><trkpt lat="43.0762617" lon="13.364225"><ele>406.0</ele><time>2026-04-18T12:35:28.256Z</time></trkpt><trkpt lat="43.07633" lon="13.364245"><ele>407.66666666666663</ele><time>2026-04-18T12:35:29.256Z</time></trkpt><trkpt lat="43.0764067" lon="13.3642567"><ele>409.3333333333333</ele><time>2026-04-18T12:35:30.256Z</time></trkpt><trkpt lat="43.0764817" lon="13.36427"><ele>411.0</ele><time>2026-04-18T12:35:31.255Z</time></trkpt><trkpt lat="43.0765517" lon="13.364275"><ele>413.3333333333333</ele><time>2026-04-18T12:35:32.255Z</time></trkpt><trkpt lat="43.0766183" lon="13.3642767"><ele>415.66666666666663</ele><time>2026-04-18T12:35:33.256Z</time></trkpt><trkpt lat="43.0767033" lon="13.3642333"><ele>418.0</ele><time>2026-04-18T12:35:35.256Z</time></trkpt><trkpt lat="43.0767383" lon="13.3641183"><ele>420.3333333333333</ele><time>2026-04-18T12:35:37.256Z</time></trkpt><trkpt lat="43.07673" lon="13.36402"><ele>422.66666666666663</ele><time>2026-04-18T12:35:39.256Z</time></trkpt><trkpt lat="43.0767683" lon="13.3639467"><ele>425.0</ele><time>2026-04-18T12:35:42.256Z</time></trkpt><trkpt lat="43.0768267" lon="13.3639967"><ele>425.0</ele><time>2026-04-18T12:35:44.256Z</time></trkpt><trkpt lat="43.076955" lon="13.3640783"><ele>425.0</ele><time>2026-04-18T12:35:46.256Z</time></trkpt><trkpt lat="43.0770667" lon="13.3640667"><ele>425.0</ele><time>2026-04-18T12:35:47.256Z</time></trkpt><trkpt lat="43.0771933" lon="13.3640067"><ele>425.0</ele><time>2026-04-18T12:35:48.256Z</time></trkpt><trkpt lat="43.0773417" lon="13.363915"><ele>426.0</ele><time>2026-04-18T12:35:49.256Z</time></trkpt><trkpt lat="43.077485" lon="13.3638267"><ele>427.0</ele><time>2026-04-18T12:35:50.256Z</time></trkpt><trkpt lat="43.0776217" lon="13.3637483"><ele>428.0</ele><time>2026-04-18T12:35:51.256Z</time></trkpt><trkpt lat="43.07776" lon="13.363675"><ele>428.0</ele><time>2026-04-18T12:35:52.256Z</time></trkpt><trkpt lat="43.0778983" lon="13.3636033"><ele>428.0</ele><time>2026-04-18T12:35:53.256Z</time></trkpt><trkpt lat="43.0780167" lon="13.363525"><ele>428.0</ele><time>2026-04-18T12:35:54.256Z</time></trkpt><trkpt lat="43.0781467" lon="13.3634533"><ele>428.0</ele><time>2026-04-18T12:35:55.256Z</time></trkpt><trkpt lat="43.078275" lon="13.363385"><ele>424.5</ele><time>2026-04-18T12:35:56.256Z</time></trkpt><trkpt lat="43.078405" lon="13.3633317"><ele>421.0</ele><time>2026-04-18T12:35:57.256Z</time></trkpt><trkpt lat="43.0785383" lon="13.3632833"><ele>417.5</ele><time>2026-04-18T12:35:58.256Z</time></trkpt><trkpt lat="43.0786583" lon="13.363245"><ele>414.0</ele><time>2026-04-18T12:35:59.256Z</time></trkpt><trkpt lat="43.078785" lon="13.363205"><ele>414.0</ele><time>2026-04-18T12:36:00.256Z</time></trkpt><trkpt lat="43.07891" lon="13.3631683"><ele>414.0</ele><time>2026-04-18T12:36:01.256Z</time></trkpt><trkpt lat="43.0790383" lon="13.36311"><ele>414.0</ele><time>2026-04-18T12:36:02.256Z</time></trkpt><trkpt lat="43.079195" lon="13.3630067"><ele>414.0</ele><time>2026-04-18T12:36:03.256Z</time></trkpt><trkpt lat="43.07937" lon="13.3628583"><ele>414.33333333333337</ele><time>2026-04-18T12:36:04.256Z</time></trkpt><trkpt lat="43.0795483" lon="13.3626967"><ele>414.6666666666667</ele><time>2026-04-18T12:36:05.256Z</time></trkpt><trkpt lat="43.0797083" lon="13.36254"><ele>415.0</ele><time>2026-04-18T12:36:06.256Z</time></trkpt><trkpt lat="43.07987" lon="13.3623983"><ele>412.0</ele><time>2026-04-18T12:36:07.256Z</time></trkpt><trkpt lat="43.0800133" lon="13.3622583"><ele>409.0</ele><time>2026-04-18T12:36:08.256Z</time></trkpt><trkpt lat="43.0801633" lon="13.3621233"><ele>406.0</ele><time>2026-04-18T12:36:09.256Z</time></trkpt><trkpt lat="43.0803217" lon="13.3620033"><ele>406.0</ele><time>2026-04-18T12:36:10.256Z</time></trkpt><trkpt lat="43.0804817" lon="13.3618817"><ele>406.0</ele><time>2026-04-18T12:36:11.256Z</time></trkpt><trkpt lat="43.0806283" lon="13.36177"><ele>406.0</ele><time>2026-04-18T12:36:12.256Z</time></trkpt><trkpt lat="43.0807883" lon="13.36166"><ele>405.33333333333337</ele><time>2026-04-18T12:36:13.256Z</time></trkpt><trkpt lat="43.08095" lon="13.361545"><ele>404.66666666666663</ele><time>2026-04-18T12:36:14.256Z</time></trkpt><trkpt lat="43.0811133" lon="13.361435"><ele>404.0</ele><time>2026-04-18T12:36:15.256Z</time></trkpt><trkpt lat="43.08129" lon="13.361325"><ele>404.0</ele><time>2026-04-18T12:36:16.256Z</time></trkpt><trkpt lat="43.081455" lon="13.3612217"><ele>404.0</ele><time>2026-04-18T12:36:17.256Z</time></trkpt><trkpt lat="43.081615" lon="13.3611167"><ele>404.0</ele><time>2026-04-18T12:36:18.256Z</time></trkpt><trkpt lat="43.08177" lon="13.3610133"><ele>398.0</ele><time>2026-04-18T12:36:19.256Z</time></trkpt><trkpt lat="43.0819217" lon="13.36093"><ele>392.0</ele><time>2026-04-18T12:36:20.256Z</time></trkpt><trkpt lat="43.08208" lon="13.36086"><ele>386.0</ele><time>2026-04-18T12:36:21.256Z</time></trkpt><trkpt lat="43.0822333" lon="13.3608017"><ele>386.0</ele><time>2026-04-18T12:36:22.256Z</time></trkpt><trkpt lat="43.082365" lon="13.3607733"><ele>386.0</ele><time>2026-04-18T12:36:23.256Z</time></trkpt><trkpt lat="43.0824817" lon="13.36077"><ele>386.0</ele><time>2026-04-18T12:36:24.256Z</time></trkpt><trkpt lat="43.082585" lon="13.3607833"><ele>386.0</ele><time>2026-04-18T12:36:25.256Z</time></trkpt><trkpt lat="43.0826567" lon="13.3608267"><ele>386.0</ele><time>2026-04-18T12:36:26.255Z</time></trkpt><trkpt lat="43.082705" lon="13.3609183"><ele>383.0</ele><time>2026-04-18T12:36:27.256Z</time></trkpt><trkpt lat="43.0827083" lon="13.3610533"><ele>380.0</ele><time>2026-04-18T12:36:28.256Z</time></trkpt><trkpt lat="43.0826733" lon="13.3612217"><ele>377.0</ele><time>2026-04-18T12:36:29.256Z</time></trkpt><trkpt lat="43.0826117" lon="13.3614033"><ele>374.0</ele><time>2026-04-18T12:36:30.256Z</time></trkpt><trkpt lat="43.082555" lon="13.36157"><ele>373.0</ele><time>2026-04-18T12:36:31.256Z</time></trkpt><trkpt lat="43.082515" lon="13.36172"><ele>372.0</ele><time>2026-04-18T12:36:32.256Z</time></trkpt><trkpt lat="43.08251" lon="13.3618633"><ele>371.0</ele><time>2026-04-18T12:36:33.256Z</time></trkpt><trkpt lat="43.0825367" lon="13.3619867"><ele>370.0</ele><time>2026-04-18T12:36:34.256Z</time></trkpt><trkpt lat="43.082595" lon="13.362085"><ele>369.0</ele><time>2026-04-18T12:36:35.256Z</time></trkpt><trkpt lat="43.0827017" lon="13.3621333"><ele>369.0</ele><time>2026-04-18T12:36:36.256Z</time></trkpt><trkpt lat="43.0828417" lon="13.362125"><ele>369.0</ele><time>2026-04-18T12:36:37.256Z</time></trkpt><trkpt lat="43.0829917" lon="13.3620783"><ele>369.0</ele><time>2026-04-18T12:36:38.256Z</time></trkpt><trkpt lat="43.0831717" lon="13.3619867"><ele>369.0</ele><time>2026-04-18T12:36:39.256Z</time></trkpt><trkpt lat="43.0833533" lon="13.36188"><ele>369.0</ele><time>2026-04-18T12:36:40.256Z</time></trkpt><trkpt lat="43.08354" lon="13.36178"><ele>369.0</ele><time>2026-04-18T12:36:41.256Z</time></trkpt><trkpt lat="43.0837167" lon="13.3616917"><ele>369.0</ele><time>2026-04-18T12:36:42.256Z</time></trkpt><trkpt lat="43.0838717" lon="13.3616117"><ele>369.0</ele><time>2026-04-18T12:36:43.255Z</time></trkpt><trkpt lat="43.0839917" lon="13.361535"><ele>369.0</ele><time>2026-04-18T12:36:44.256Z</time></trkpt><trkpt lat="43.0840983" lon="13.3614433"><ele>369.0</ele><time>2026-04-18T12:36:45.255Z</time></trkpt><trkpt lat="43.08419" lon="13.361315"><ele>365.5</ele><time>2026-04-18T12:36:46.256Z</time></trkpt><trkpt lat="43.0842567" lon="13.36115"><ele>362.0</ele><time>2026-04-18T12:36:47.256Z</time></trkpt><trkpt lat="43.08429" lon="13.3609717"><ele>358.5</ele><time>2026-04-18T12:36:48.256Z</time></trkpt><trkpt lat="43.08432" lon="13.3608217"><ele>355.0</ele><time>2026-04-18T12:36:49.256Z</time></trkpt><trkpt lat="43.0843683" lon="13.3607067"><ele>355.0</ele><time>2026-04-18T12:36:50.256Z</time></trkpt><trkpt lat="43.0844367" lon="13.36063"><ele>355.0</ele><time>2026-04-18T12:36:51.256Z</time></trkpt><trkpt lat="43.084525" lon="13.3605983"><ele>355.0</ele><time>2026-04-18T12:36:52.256Z</time></trkpt><trkpt lat="43.08464" lon="13.3606267"><ele>355.0</ele><time>2026-04-18T12:36:53.256Z</time></trkpt><trkpt lat="43.0847633" lon="13.3606733"><ele>355.0</ele><time>2026-04-18T12:36:54.256Z</time></trkpt><trkpt lat="43.0848817" lon="13.36072"><ele>350.75</ele><time>2026-04-18T12:36:55.256Z</time></trkpt><trkpt lat="43.0850017" lon="13.360765"><ele>346.5</ele><time>2026-04-18T12:36:56.256Z</time></trkpt><trkpt lat="43.0851183" lon="13.3608117"><ele>342.25</ele><time>2026-04-18T12:36:57.256Z</time></trkpt><trkpt lat="43.08523" lon="13.3608567"><ele>338.0</ele><time>2026-04-18T12:36:58.256Z</time></trkpt><trkpt lat="43.0853383" lon="13.3609217"><ele>338.0</ele><time>2026-04-18T12:36:59.256Z</time></trkpt><trkpt lat="43.0854533" lon="13.3610167"><ele>338.0</ele><time>2026-04-18T12:37:00.256Z</time></trkpt><trkpt lat="43.085555" lon="13.3611433"><ele>338.0</ele><time>2026-04-18T12:37:01.256Z</time></trkpt><trkpt lat="43.0856517" lon="13.3613017"><ele>338.0</ele><time>2026-04-18T12:37:02.256Z</time></trkpt><trkpt lat="43.0857317" lon="13.3614967"><ele>341.33333333333337</ele><time>2026-04-18T12:37:03.256Z</time></trkpt><trkpt lat="43.085775" lon="13.36171"><ele>344.6666666666667</ele><time>2026-04-18T12:37:04.256Z</time></trkpt><trkpt lat="43.085785" lon="13.3619583"><ele>348.0</ele><time>2026-04-18T12:37:05.256Z</time></trkpt><trkpt lat="43.085765" lon="13.362195"><ele>347.5</ele><time>2026-04-18T12:37:06.256Z</time></trkpt><trkpt lat="43.0857433" lon="13.3624167"><ele>347.0</ele><time>2026-04-18T12:37:07.256Z</time></trkpt><trkpt lat="43.08572" lon="13.362605"><ele>346.5</ele><time>2026-04-18T12:37:08.256Z</time></trkpt><trkpt lat="43.0857267" lon="13.36278"><ele>346.0</ele><time>2026-04-18T12:37:09.256Z</time></trkpt><trkpt lat="43.08578" lon="13.362945"><ele>346.0</ele><time>2026-04-18T12:37:10.256Z</time></trkpt><trkpt lat="43.0858667" lon="13.3630933"><ele>346.0</ele><time>2026-04-18T12:37:11.256Z</time></trkpt><trkpt lat="43.0859883" lon="13.3632217"><ele>346.0</ele><time>2026-04-18T12:37:12.256Z</time></trkpt><trkpt lat="43.0861383" lon="13.3633583"><ele>346.0</ele><time>2026-04-18T12:37:13.256Z</time></trkpt><trkpt lat="43.0862983" lon="13.3635067"><ele>346.0</ele><time>2026-04-18T12:37:14.256Z</time></trkpt><trkpt lat="43.08647" lon="13.3636633"><ele>346.0</ele><time>2026-04-18T12:37:15.256Z</time></trkpt><trkpt lat="43.0866467" lon="13.3638033"><ele>349.3333333333333</ele><time>2026-04-18T12:37:16.256Z</time></trkpt><trkpt lat="43.0868283" lon="13.3639283"><ele>352.6666666666667</ele><time>2026-04-18T12:37:17.256Z</time></trkpt><trkpt lat="43.0870267" lon="13.3640517"><ele>356.0</ele><time>2026-04-18T12:37:18.256Z</time></trkpt><trkpt lat="43.08723" lon="13.36418"><ele>356.0</ele><time>2026-04-18T12:37:19.256Z</time></trkpt><trkpt lat="43.0874167" lon="13.364305"><ele>356.0</ele><time>2026-04-18T12:37:20.255Z</time></trkpt><trkpt lat="43.0875817" lon="13.36445"><ele>356.0</ele><time>2026-04-18T12:37:21.256Z</time></trkpt><trkpt lat="43.0877167" lon="13.3645833"><ele>359.5</ele><time>2026-04-18T12:37:22.256Z</time></trkpt><trkpt lat="43.087835" lon="13.364705"><ele>363.0</ele><time>2026-04-18T12:37:23.256Z</time></trkpt><trkpt lat="43.0879233" lon="13.36481"><ele>366.5</ele><time>2026-04-18T12:37:24.256Z</time></trkpt><trkpt lat="43.0879967" lon="13.3649067"><ele>370.0</ele><time>2026-04-18T12:37:25.256Z</time></trkpt><trkpt lat="43.0880417" lon="13.3650167"><ele>370.0</ele><time>2026-04-18T12:37:26.256Z</time></trkpt><trkpt lat="43.08803" lon="13.3651333"><ele>370.0</ele><time>2026-04-18T12:37:27.256Z</time></trkpt><trkpt lat="43.0879683" lon="13.365215"><ele>370.0</ele><time>2026-04-18T12:37:28.256Z</time></trkpt><trkpt lat="43.087865" lon="13.3652267"><ele>370.0</ele><time>2026-04-18T12:37:29.256Z</time></trkpt><trkpt lat="43.08777" lon="13.3651767"><ele>370.0</ele><time>2026-04-18T12:37:30.256Z</time></trkpt><trkpt lat="43.0876467" lon="13.3651017"><ele>370.0</ele><time>2026-04-18T12:37:31.256Z</time></trkpt><trkpt lat="43.08752" lon="13.3650317"><ele>370.0</ele><time>2026-04-18T12:37:32.256Z</time></trkpt><trkpt lat="43.087405" lon="13.3649883"><ele>370.0</ele><time>2026-04-18T12:37:33.256Z</time></trkpt><trkpt lat="43.0872833" lon="13.3649667"><ele>370.0</ele><time>2026-04-18T12:37:34.256Z</time></trkpt><trkpt lat="43.0871467" lon="13.3649833"><ele>370.3333333333333</ele><time>2026-04-18T12:37:35.256Z</time></trkpt><trkpt lat="43.087" lon="13.3650483"><ele>370.6666666666667</ele><time>2026-04-18T12:37:36.256Z</time></trkpt><trkpt lat="43.08686" lon="13.365145"><ele>371.0</ele><time>2026-04-18T12:37:37.256Z</time></trkpt><trkpt lat="43.0867183" lon="13.3652733"><ele>369.6666666666667</ele><time>2026-04-18T12:37:38.256Z</time></trkpt><trkpt lat="43.0865833" lon="13.365415"><ele>368.3333333333333</ele><time>2026-04-18T12:37:39.256Z</time></trkpt><trkpt lat="43.08647" lon="13.365545"><ele>367.0</ele><time>2026-04-18T12:37:40.256Z</time></trkpt><trkpt lat="43.086365" lon="13.3656633"><ele>370.0</ele><time>2026-04-18T12:37:41.256Z</time></trkpt><trkpt lat="43.0862533" lon="13.3657967"><ele>373.0</ele><time>2026-04-18T12:37:42.256Z</time></trkpt><trkpt lat="43.08614" lon="13.3659417"><ele>376.0</ele><time>2026-04-18T12:37:43.256Z</time></trkpt><trkpt lat="43.0860217" lon="13.3661"><ele>376.0</ele><time>2026-04-18T12:37:44.256Z</time></trkpt><trkpt lat="43.085905" lon="13.366285"><ele>376.0</ele><time>2026-04-18T12:37:45.256Z</time></trkpt><trkpt lat="43.08579" lon="13.3664683"><ele>376.0</ele><time>2026-04-18T12:37:46.256Z</time></trkpt><trkpt lat="43.0856933" lon="13.3666367"><ele>377.0</ele><time>2026-04-18T12:37:47.256Z</time></trkpt><trkpt lat="43.085595" lon="13.3668017"><ele>378.0</ele><time>2026-04-18T12:37:48.256Z</time></trkpt><trkpt lat="43.0854883" lon="13.3669667"><ele>379.0</ele><time>2026-04-18T12:37:49.256Z</time></trkpt><trkpt lat="43.0853683" lon="13.36715"><ele>378.3333333333333</ele><time>2026-04-18T12:37:50.256Z</time></trkpt><trkpt lat="43.0852317" lon="13.3673433"><ele>377.6666666666667</ele><time>2026-04-18T12:37:51.256Z</time></trkpt><trkpt lat="43.0850767" lon="13.3675367"><ele>377.0</ele><time>2026-04-18T12:37:52.256Z</time></trkpt><trkpt lat="43.0849183" lon="13.3677183"><ele>377.0</ele><time>2026-04-18T12:37:53.256Z</time></trkpt><trkpt lat="43.0847683" lon="13.367875"><ele>377.0</ele><time>2026-04-18T12:37:54.255Z</time></trkpt><trkpt lat="43.0846233" lon="13.3680367"><ele>377.0</ele><time>2026-04-18T12:37:55.256Z</time></trkpt><trkpt lat="43.08448" lon="13.3681917"><ele>381.0</ele><time>2026-04-18T12:37:56.256Z</time></trkpt><trkpt lat="43.0843417" lon="13.368345"><ele>385.0</ele><time>2026-04-18T12:37:57.256Z</time></trkpt><trkpt lat="43.0842167" lon="13.3684933"><ele>389.0</ele><time>2026-04-18T12:37:58.256Z</time></trkpt><trkpt lat="43.0841033" lon="13.3686317"><ele>387.5</ele><time>2026-04-18T12:37:59.256Z</time></trkpt><trkpt lat="43.0839983" lon="13.368755"><ele>386.0</ele><time>2026-04-18T12:38:00.256Z</time></trkpt><trkpt lat="43.0839017" lon="13.3688667"><ele>384.5</ele><time>2026-04-18T12:38:01.256Z</time></trkpt><trkpt lat="43.0838067" lon="13.368995"><ele>383.0</ele><time>2026-04-18T12:38:02.256Z</time></trkpt><trkpt lat="43.08374" lon="13.3691483"><ele>383.0</ele><time>2026-04-18T12:38:03.256Z</time></trkpt><trkpt lat="43.083703" lon="13.3693125"><ele>383.0</ele><time>2026-04-18T12:38:04.256Z</time></trkpt><trkpt lat="43.0837174" lon="13.369489"><ele>383.0</ele><time>2026-04-18T12:38:05.256Z</time></trkpt><trkpt lat="43.0837737" lon="13.3696788"><ele>383.0</ele><time>2026-04-18T12:38:06.256Z</time></trkpt><trkpt lat="43.0838519" lon="13.3698913"><ele>383.33333333333337</ele><time>2026-04-18T12:38:07.256Z</time></trkpt><trkpt lat="43.083943" lon="13.3701146"><ele>383.6666666666667</ele><time>2026-04-18T12:38:08.256Z</time></trkpt><trkpt lat="43.0840152" lon="13.3703488"><ele>384.0</ele><time>2026-04-18T12:38:09.256Z</time></trkpt><trkpt lat="43.0840684" lon="13.3705895"><ele>392.33333333333337</ele><time>2026-04-18T12:38:10.256Z</time></trkpt><trkpt lat="43.0841028" lon="13.3708208"><ele>400.6666666666667</ele><time>2026-04-18T12:38:11.256Z</time></trkpt><trkpt lat="43.0841317" lon="13.3710472"><ele>409.0</ele><time>2026-04-18T12:38:12.256Z</time></trkpt><trkpt lat="43.0841634" lon="13.3712651"><ele>410.5</ele><time>2026-04-18T12:38:13.256Z</time></trkpt><trkpt lat="43.0841879" lon="13.3714663"><ele>412.0</ele><time>2026-04-18T12:38:14.256Z</time></trkpt><trkpt lat="43.0842192" lon="13.3716477"><ele>413.5</ele><time>2026-04-18T12:38:15.256Z</time></trkpt><trkpt lat="43.0842322" lon="13.371806"><ele>415.0</ele><time>2026-04-18T12:38:16.256Z</time></trkpt><trkpt lat="43.0842146" lon="13.3719389"><ele>415.0</ele><time>2026-04-18T12:38:17.256Z</time></trkpt><trkpt lat="43.0841642" lon="13.3720487"><ele>415.0</ele><time>2026-04-18T12:38:18.256Z</time></trkpt><trkpt lat="43.0840805" lon="13.3721153"><ele>415.0</ele><time>2026-04-18T12:38:19.256Z</time></trkpt><trkpt lat="43.0839708" lon="13.3721227"><ele>415.0</ele><time>2026-04-18T12:38:20.256Z</time></trkpt><trkpt lat="43.0838549" lon="13.3720911"><ele>415.0</ele><time>2026-04-18T12:38:21.256Z</time></trkpt><trkpt lat="43.0837327" lon="13.3720555"><ele>412.5</ele><time>2026-04-18T12:38:22.256Z</time></trkpt><trkpt lat="43.0836064" lon="13.372036"><ele>410.0</ele><time>2026-04-18T12:38:23.256Z</time></trkpt><trkpt lat="43.0834843" lon="13.3720423"><ele>407.5</ele><time>2026-04-18T12:38:24.256Z</time></trkpt><trkpt lat="43.0833759" lon="13.3720817"><ele>405.0</ele><time>2026-04-18T12:38:25.256Z</time></trkpt><trkpt lat="43.0832848" lon="13.3721609"><ele>405.25</ele><time>2026-04-18T12:38:26.256Z</time></trkpt><trkpt lat="43.0832143" lon="13.3722763"><ele>405.5</ele><time>2026-04-18T12:38:27.256Z</time></trkpt><trkpt lat="43.0831681" lon="13.3724353"><ele>405.75</ele><time>2026-04-18T12:38:28.256Z</time></trkpt><trkpt lat="43.0831528" lon="13.3726313"><ele>406.0</ele><time>2026-04-18T12:38:29.256Z</time></trkpt><trkpt lat="43.0831545" lon="13.3728542"><ele>405.6666666666667</ele><time>2026-04-18T12:38:30.256Z</time></trkpt><trkpt lat="43.083158" lon="13.3730869"><ele>405.33333333333337</ele><time>2026-04-18T12:38:31.256Z</time></trkpt><trkpt lat="43.083171" lon="13.3732987"><ele>405.0</ele><time>2026-04-18T12:38:32.256Z</time></trkpt><trkpt lat="43.0832188" lon="13.3734947"><ele>411.33333333333337</ele><time>2026-04-18T12:38:33.256Z</time></trkpt><trkpt lat="43.0833047" lon="13.3736786"><ele>417.6666666666667</ele><time>2026-04-18T12:38:34.256Z</time></trkpt><trkpt lat="43.0834215" lon="13.3738489"><ele>424.0</ele><time>2026-04-18T12:38:35.256Z</time></trkpt><trkpt lat="43.083534" lon="13.3740043"><ele>424.0</ele><time>2026-04-18T12:38:36.256Z</time></trkpt><trkpt lat="43.0836333" lon="13.3741433"><ele>424.0</ele><time>2026-04-18T12:38:37.256Z</time></trkpt><trkpt lat="43.0837283" lon="13.3742617"><ele>424.0</ele><time>2026-04-18T12:38:38.256Z</time></trkpt><trkpt lat="43.083825" lon="13.3743417"><ele>424.0</ele><time>2026-04-18T12:38:39.256Z</time></trkpt><trkpt lat="43.0839433" lon="13.37437"><ele>424.0</ele><time>2026-04-18T12:38:40.256Z</time></trkpt><trkpt lat="43.084065" lon="13.374345"><ele>424.0</ele><time>2026-04-18T12:38:41.256Z</time></trkpt><trkpt lat="43.0841783" lon="13.3742483"><ele>424.0</ele><time>2026-04-18T12:38:42.256Z</time></trkpt><trkpt lat="43.084285" lon="13.3741117"><ele>424.0</ele><time>2026-04-18T12:38:43.256Z</time></trkpt><trkpt lat="43.0843917" lon="13.3739383"><ele>426.33333333333337</ele><time>2026-04-18T12:38:44.256Z</time></trkpt><trkpt lat="43.0845083" lon="13.3737517"><ele>428.66666666666663</ele><time>2026-04-18T12:38:45.256Z</time></trkpt><trkpt lat="43.0846217" lon="13.3735633"><ele>431.0</ele><time>2026-04-18T12:38:46.256Z</time></trkpt><trkpt lat="43.0847417" lon="13.373375"><ele>431.0</ele><time>2026-04-18T12:38:47.256Z</time></trkpt><trkpt lat="43.0848567" lon="13.3731633"><ele>431.0</ele><time>2026-04-18T12:38:48.256Z</time></trkpt><trkpt lat="43.0849483" lon="13.3729283"><ele>431.0</ele><time>2026-04-18T12:38:49.256Z</time></trkpt><trkpt lat="43.0850233" lon="13.3726767"><ele>433.66666666666663</ele><time>2026-04-18T12:38:50.256Z</time></trkpt><trkpt lat="43.08508" lon="13.37242"><ele>436.33333333333337</ele><time>2026-04-18T12:38:51.256Z</time></trkpt><trkpt lat="43.0851267" lon="13.3721583"><ele>439.0</ele><time>2026-04-18T12:38:52.256Z</time></trkpt><trkpt lat="43.08517" lon="13.3718967"><ele>439.33333333333337</ele><time>2026-04-18T12:38:53.256Z</time></trkpt><trkpt lat="43.0851983" lon="13.3716467"><ele>439.66666666666663</ele><time>2026-04-18T12:38:54.256Z</time></trkpt><trkpt lat="43.08522" lon="13.37142"><ele>440.0</ele><time>2026-04-18T12:38:55.256Z</time></trkpt><trkpt lat="43.0852267" lon="13.3712117"><ele>439.5</ele><time>2026-04-18T12:38:56.256Z</time></trkpt><trkpt lat="43.0852567" lon="13.3710233"><ele>439.0</ele><time>2026-04-18T12:38:57.256Z</time></trkpt><trkpt lat="43.0853133" lon="13.3708617"><ele>438.5</ele><time>2026-04-18T12:38:58.256Z</time></trkpt><trkpt lat="43.0854" lon="13.370745"><ele>438.0</ele><time>2026-04-18T12:38:59.256Z</time></trkpt><trkpt lat="43.0855183" lon="13.370685"><ele>438.0</ele><time>2026-04-18T12:39:00.256Z</time></trkpt><trkpt lat="43.085655" lon="13.3706917"><ele>438.0</ele><time>2026-04-18T12:39:01.256Z</time></trkpt><trkpt lat="43.08576" lon="13.3707367"><ele>438.0</ele><time>2026-04-18T12:39:02.255Z</time></trkpt><trkpt lat="43.0858667" lon="13.3708483"><ele>438.0</ele><time>2026-04-18T12:39:03.256Z</time></trkpt><trkpt lat="43.0859683" lon="13.3710183"><ele>442.0</ele><time>2026-04-18T12:39:04.255Z</time></trkpt><trkpt lat="43.0860483" lon="13.371195"><ele>446.0</ele><time>2026-04-18T12:39:05.256Z</time></trkpt><trkpt lat="43.0861083" lon="13.3713483"><ele>450.0</ele><time>2026-04-18T12:39:06.256Z</time></trkpt><trkpt lat="43.086175" lon="13.37145"><ele>454.0</ele><time>2026-04-18T12:39:07.256Z</time></trkpt><trkpt lat="43.086255" lon="13.3715"><ele>454.0</ele><time>2026-04-18T12:39:08.256Z</time></trkpt><trkpt lat="43.08635" lon="13.3715"><ele>454.0</ele><time>2026-04-18T12:39:09.256Z</time></trkpt><trkpt lat="43.0864383" lon="13.3714517"><ele>454.0</ele><time>2026-04-18T12:39:10.256Z</time></trkpt><trkpt lat="43.08651" lon="13.371345"><ele>454.0</ele><time>2026-04-18T12:39:11.256Z</time></trkpt><trkpt lat="43.0866033" lon="13.3711867"><ele>454.0</ele><time>2026-04-18T12:39:12.256Z</time></trkpt><trkpt lat="43.086685" lon="13.3709517"><ele>452.0</ele><time>2026-04-18T12:39:13.256Z</time></trkpt><trkpt lat="43.0867533" lon="13.3707317"><ele>450.0</ele><time>2026-04-18T12:39:14.256Z</time></trkpt><trkpt lat="43.0868483" lon="13.3705867"><ele>448.0</ele><time>2026-04-18T12:39:15.256Z</time></trkpt><trkpt lat="43.086945" lon="13.3704983"><ele>446.0</ele><time>2026-04-18T12:39:16.256Z</time></trkpt><trkpt lat="43.0870333" lon="13.3704733"><ele>446.0</ele><time>2026-04-18T12:39:17.256Z</time></trkpt><trkpt lat="43.087115" lon="13.3704933"><ele>446.0</ele><time>2026-04-18T12:39:18.256Z</time></trkpt><trkpt lat="43.087165" lon="13.37058"><ele>446.0</ele><time>2026-04-18T12:39:19.256Z</time></trkpt><trkpt lat="43.0871317" lon="13.3707117"><ele>446.0</ele><time>2026-04-18T12:39:20.256Z</time></trkpt><trkpt lat="43.0870817" lon="13.37083"><ele>446.0</ele><time>2026-04-18T12:39:21.256Z</time></trkpt><trkpt lat="43.0870083" lon="13.370945"><ele>450.5</ele><time>2026-04-18T12:39:22.256Z</time></trkpt><trkpt lat="43.0869183" lon="13.3710717"><ele>455.0</ele><time>2026-04-18T12:39:23.256Z</time></trkpt><trkpt lat="43.08683" lon="13.37123"><ele>459.5</ele><time>2026-04-18T12:39:24.256Z</time></trkpt><trkpt lat="43.08675" lon="13.37144"><ele>464.0</ele><time>2026-04-18T12:39:25.256Z</time></trkpt><trkpt lat="43.0866767" lon="13.371645"><ele>464.0</ele><time>2026-04-18T12:39:26.256Z</time></trkpt><trkpt lat="43.0866283" lon="13.3718533"><ele>464.0</ele><time>2026-04-18T12:39:27.256Z</time></trkpt><trkpt lat="43.0865817" lon="13.3720567"><ele>464.0</ele><time>2026-04-18T12:39:28.256Z</time></trkpt><trkpt lat="43.0865383" lon="13.3722417"><ele>464.0</ele><time>2026-04-18T12:39:29.256Z</time></trkpt><trkpt lat="43.08648" lon="13.3724333"><ele>464.0</ele><time>2026-04-18T12:39:30.256Z</time></trkpt><trkpt lat="43.0864283" lon="13.3726167"><ele>464.0</ele><time>2026-04-18T12:39:31.256Z</time></trkpt><trkpt lat="43.0863817" lon="13.3727933"><ele>464.0</ele><time>2026-04-18T12:39:32.256Z</time></trkpt><trkpt lat="43.08634" lon="13.3729833"><ele>464.0</ele><time>2026-04-18T12:39:33.256Z</time></trkpt><trkpt lat="43.0863283" lon="13.373195"><ele>464.0</ele><time>2026-04-18T12:39:34.256Z</time></trkpt><trkpt lat="43.0863333" lon="13.37341"><ele>464.0</ele><time>2026-04-18T12:39:35.256Z</time></trkpt><trkpt lat="43.0863583" lon="13.373615"><ele>464.0</ele><time>2026-04-18T12:39:36.256Z</time></trkpt><trkpt lat="43.0864067" lon="13.37382"><ele>464.0</ele><time>2026-04-18T12:39:37.255Z</time></trkpt><trkpt lat="43.0864667" lon="13.3740317"><ele>464.0</ele><time>2026-04-18T12:39:38.256Z</time></trkpt><trkpt lat="43.0865433" lon="13.3742267"><ele>470.25</ele><time>2026-04-18T12:39:39.256Z</time></trkpt><trkpt lat="43.08662" lon="13.3744"><ele>476.5</ele><time>2026-04-18T12:39:40.256Z</time></trkpt><trkpt lat="43.0867017" lon="13.3745683"><ele>482.75</ele><time>2026-04-18T12:39:41.256Z</time></trkpt><trkpt lat="43.0867867" lon="13.37472"><ele>489.0</ele><time>2026-04-18T12:39:42.256Z</time></trkpt><trkpt lat="43.086885" lon="13.374845"><ele>489.0</ele><time>2026-04-18T12:39:43.256Z</time></trkpt><trkpt lat="43.0869983" lon="13.37496"><ele>489.0</ele><time>2026-04-18T12:39:44.256Z</time></trkpt><trkpt lat="43.0871383" lon="13.3750633"><ele>489.0</ele><time>2026-04-18T12:39:45.256Z</time></trkpt><trkpt lat="43.0872817" lon="13.3751567"><ele>489.0</ele><time>2026-04-18T12:39:46.256Z</time></trkpt><trkpt lat="43.0874233" lon="13.3752583"><ele>489.0</ele><time>2026-04-18T12:39:47.256Z</time></trkpt><trkpt lat="43.08757" lon="13.3753583"><ele>489.0</ele><time>2026-04-18T12:39:48.256Z</time></trkpt><trkpt lat="43.0877083" lon="13.375455"><ele>488.75</ele><time>2026-04-18T12:39:49.256Z</time></trkpt><trkpt lat="43.0878433" lon="13.375525"><ele>488.5</ele><time>2026-04-18T12:39:50.256Z</time></trkpt><trkpt lat="43.0879917" lon="13.3755767"><ele>488.25</ele><time>2026-04-18T12:39:51.256Z</time></trkpt><trkpt lat="43.0881383" lon="13.3755983"><ele>488.0</ele><time>2026-04-18T12:39:52.256Z</time></trkpt><trkpt lat="43.0883017" lon="13.3756133"><ele>492.3333333333333</ele><time>2026-04-18T12:39:53.256Z</time></trkpt><trkpt lat="43.0884633" lon="13.3756283"><ele>496.66666666666663</ele><time>2026-04-18T12:39:54.256Z</time></trkpt><trkpt lat="43.0886167" lon="13.37567"><ele>501.0</ele><time>2026-04-18T12:39:55.255Z</time></trkpt><trkpt lat="43.088765" lon="13.3757433"><ele>501.0</ele><time>2026-04-18T12:39:56.255Z</time></trkpt><trkpt lat="43.0889" lon="13.3758717"><ele>501.0</ele><time>2026-04-18T12:39:57.255Z</time></trkpt><trkpt lat="43.0890033" lon="13.37604"><ele>501.0</ele><time>2026-04-18T12:39:58.254Z</time></trkpt><trkpt lat="43.0890883" lon="13.3762033"><ele>502.0</ele><time>2026-04-18T12:39:59.255Z</time></trkpt><trkpt lat="43.08919" lon="13.37635"><ele>503.0</ele><time>2026-04-18T12:40:00.255Z</time></trkpt><trkpt lat="43.0893267" lon="13.3764617"><ele>504.0</ele><time>2026-04-18T12:40:01.255Z</time></trkpt><trkpt lat="43.0894783" lon="13.3765867"><ele>504.0</ele><time>2026-04-18T12:40:02.255Z</time></trkpt><trkpt lat="43.0896367" lon="13.3767"><ele>504.0</ele><time>2026-04-18T12:40:03.255Z</time></trkpt><trkpt lat="43.08979" lon="13.3768117"><ele>504.0</ele><time>2026-04-18T12:40:04.255Z</time></trkpt><trkpt lat="43.0899317" lon="13.3769017"><ele>506.25</ele><time>2026-04-18T12:40:05.255Z</time></trkpt><trkpt lat="43.0900583" lon="13.3769783"><ele>508.5</ele><time>2026-04-18T12:40:06.255Z</time></trkpt><trkpt lat="43.0901617" lon="13.3770717"><ele>510.75</ele><time>2026-04-18T12:40:07.255Z</time></trkpt><trkpt lat="43.0902317" lon="13.3771983"><ele>513.0</ele><time>2026-04-18T12:40:08.255Z</time></trkpt><trkpt lat="43.09025" lon="13.3773617"><ele>513.0</ele><time>2026-04-18T12:40:09.255Z</time></trkpt><trkpt lat="43.0902283" lon="13.377545"><ele>513.0</ele><time>2026-04-18T12:40:10.255Z</time></trkpt><trkpt lat="43.0901817" lon="13.3777333"><ele>513.0</ele><time>2026-04-18T12:40:11.255Z</time></trkpt><trkpt lat="43.0901383" lon="13.3779333"><ele>513.0</ele><time>2026-04-18T12:40:12.255Z</time></trkpt><trkpt lat="43.0901067" lon="13.378145"><ele>513.25</ele><time>2026-04-18T12:40:13.255Z</time></trkpt><trkpt lat="43.0900767" lon="13.3783467"><ele>513.5</ele><time>2026-04-18T12:40:14.255Z</time></trkpt><trkpt lat="43.09005" lon="13.37853"><ele>513.75</ele><time>2026-04-18T12:40:15.255Z</time></trkpt><trkpt lat="43.09002" lon="13.3786917"><ele>514.0</ele><time>2026-04-18T12:40:16.255Z</time></trkpt><trkpt lat="43.0900133" lon="13.3788333"><ele>514.8333333333334</ele><time>2026-04-18T12:40:17.255Z</time></trkpt><trkpt lat="43.0900033" lon="13.3789617"><ele>515.6666666666667</ele><time>2026-04-18T12:40:18.255Z</time></trkpt><trkpt lat="43.0900083" lon="13.3790867"><ele>516.5</ele><time>2026-04-18T12:40:19.255Z</time></trkpt><trkpt lat="43.090025" lon="13.3792083"><ele>517.3333333333334</ele><time>2026-04-18T12:40:20.255Z</time></trkpt><trkpt lat="43.090035" lon="13.3793033"><ele>518.1666666666666</ele><time>2026-04-18T12:40:21.255Z</time></trkpt><trkpt lat="43.0900583" lon="13.379405"><ele>519.0</ele><time>2026-04-18T12:40:23.255Z</time></trkpt><trkpt lat="43.090135" lon="13.379415"><ele>519.0</ele><time>2026-04-18T12:40:25.254Z</time></trkpt><trkpt lat="43.0902783" lon="13.3793583"><ele>519.0</ele><time>2026-04-18T12:40:27.255Z</time></trkpt><trkpt lat="43.0903733" lon="13.37932"><ele>519.0</ele><time>2026-04-18T12:40:28.255Z</time></trkpt><trkpt lat="43.0904717" lon="13.3792717"><ele>519.0</ele><time>2026-04-18T12:40:29.255Z</time></trkpt><trkpt lat="43.090595" lon="13.3792167"><ele>519.0</ele><time>2026-04-18T12:40:30.255Z</time></trkpt><trkpt lat="43.0907383" lon="13.37915"><ele>519.0</ele><time>2026-04-18T12:40:31.255Z</time></trkpt><trkpt lat="43.09088" lon="13.379095"><ele>519.0</ele><time>2026-04-18T12:40:32.255Z</time></trkpt><trkpt lat="43.091015" lon="13.37904"><ele>519.0</ele><time>2026-04-18T12:40:33.255Z</time></trkpt><trkpt lat="43.0911417" lon="13.3790033"><ele>521.8333333333334</ele><time>2026-04-18T12:40:34.255Z</time></trkpt><trkpt lat="43.0912533" lon="13.3789783"><ele>524.6666666666666</ele><time>2026-04-18T12:40:35.255Z</time></trkpt><trkpt lat="43.09134" lon="13.378965"><ele>527.5</ele><time>2026-04-18T12:40:36.255Z</time></trkpt><trkpt lat="43.091405" lon="13.3789717"><ele>530.3333333333333</ele><time>2026-04-18T12:40:37.255Z</time></trkpt><trkpt lat="43.091485" lon="13.3790717"><ele>533.1666666666666</ele><time>2026-04-18T12:40:39.255Z</time></trkpt><trkpt lat="43.091495" lon="13.37917"><ele>536.0</ele><time>2026-04-18T12:40:40.255Z</time></trkpt><trkpt lat="43.0915017" lon="13.379295"><ele>536.0</ele><time>2026-04-18T12:40:41.255Z</time></trkpt><trkpt lat="43.0915" lon="13.379425"><ele>536.0</ele><time>2026-04-18T12:40:42.255Z</time></trkpt><trkpt lat="43.0914967" lon="13.3795417"><ele>536.0</ele><time>2026-04-18T12:40:43.255Z</time></trkpt><trkpt lat="43.0915367" lon="13.379665"><ele>536.0</ele><time>2026-04-18T12:40:45.255Z</time></trkpt><trkpt lat="43.09164" lon="13.3797083"><ele>536.0</ele><time>2026-04-18T12:40:47.255Z</time></trkpt><trkpt lat="43.09173" lon="13.3796917"><ele>539.8</ele><time>2026-04-18T12:40:48.255Z</time></trkpt><trkpt lat="43.0918233" lon="13.3796583"><ele>543.6</ele><time>2026-04-18T12:40:49.255Z</time></trkpt><trkpt lat="43.09193" lon="13.3796183"><ele>547.4</ele><time>2026-04-18T12:40:50.255Z</time></trkpt><trkpt lat="43.092045" lon="13.379555"><ele>551.2</ele><time>2026-04-18T12:40:51.255Z</time></trkpt><trkpt lat="43.0921517" lon="13.3794917"><ele>555.0</ele><time>2026-04-18T12:40:52.255Z</time></trkpt><trkpt lat="43.0922333" lon="13.3794367"><ele>555.0</ele><time>2026-04-18T12:40:53.255Z</time></trkpt><trkpt lat="43.0922917" lon="13.3793983"><ele>555.0</ele><time>2026-04-18T12:40:54.255Z</time></trkpt><trkpt lat="43.092365" lon="13.379365"><ele>555.0</ele><time>2026-04-18T12:40:56.254Z</time></trkpt><trkpt lat="43.092425" lon="13.3792967"><ele>555.0</ele><time>2026-04-18T12:40:58.255Z</time></trkpt><trkpt lat="43.0924633" lon="13.379225"><ele>555.0</ele><time>2026-04-18T12:40:59.255Z</time></trkpt><trkpt lat="43.0925033" lon="13.3791267"><ele>555.0</ele><time>2026-04-18T12:41:00.255Z</time></trkpt><trkpt lat="43.092535" lon="13.3790133"><ele>557.2</ele><time>2026-04-18T12:41:01.255Z</time></trkpt><trkpt lat="43.0925783" lon="13.3788867"><ele>559.4</ele><time>2026-04-18T12:41:02.255Z</time></trkpt><trkpt lat="43.09263" lon="13.378745"><ele>561.6</ele><time>2026-04-18T12:41:03.255Z</time></trkpt><trkpt lat="43.0926633" lon="13.3785967"><ele>563.8</ele><time>2026-04-18T12:41:04.255Z</time></trkpt><trkpt lat="43.0926767" lon="13.37845"><ele>566.0</ele><time>2026-04-18T12:41:05.255Z</time></trkpt><trkpt lat="43.09266" lon="13.3783"><ele>567.5</ele><time>2026-04-18T12:41:06.255Z</time></trkpt><trkpt lat="43.092615" lon="13.3781583"><ele>569.0</ele><time>2026-04-18T12:41:07.255Z</time></trkpt><trkpt lat="43.0925617" lon="13.3780183"><ele>570.5</ele><time>2026-04-18T12:41:08.255Z</time></trkpt><trkpt lat="43.0925267" lon="13.3778767"><ele>572.0</ele><time>2026-04-18T12:41:09.255Z</time></trkpt><trkpt lat="43.0925067" lon="13.3777083"><ele>572.6</ele><time>2026-04-18T12:41:10.255Z</time></trkpt><trkpt lat="43.0925183" lon="13.3775417"><ele>573.2</ele><time>2026-04-18T12:41:11.255Z</time></trkpt><trkpt lat="43.09253" lon="13.3773917"><ele>573.8</ele><time>2026-04-18T12:41:12.255Z</time></trkpt><trkpt lat="43.09254" lon="13.3772683"><ele>574.4</ele><time>2026-04-18T12:41:13.255Z</time></trkpt><trkpt lat="43.0925567" lon="13.3771717"><ele>575.0</ele><time>2026-04-18T12:41:14.255Z</time></trkpt><trkpt lat="43.0925767" lon="13.3770083"><ele>575.0</ele><time>2026-04-18T12:41:16.255Z</time></trkpt><trkpt lat="43.0926267" lon="13.3768833"><ele>575.0</ele><time>2026-04-18T12:41:18.255Z</time></trkpt><trkpt lat="43.092735" lon="13.3767833"><ele>575.0</ele><time>2026-04-18T12:41:20.255Z</time></trkpt><trkpt lat="43.0928067" lon="13.37673"><ele>575.0</ele><time>2026-04-18T12:41:21.255Z</time></trkpt><trkpt lat="43.09288" lon="13.376685"><ele>575.0</ele><time>2026-04-18T12:41:22.255Z</time></trkpt><trkpt lat="43.092975" lon="13.37666"><ele>575.0</ele><time>2026-04-18T12:41:23.255Z</time></trkpt><trkpt lat="43.0931" lon="13.3766567"><ele>575.0</ele><time>2026-04-18T12:41:24.255Z</time></trkpt><trkpt lat="43.093245" lon="13.3766683"><ele>575.0</ele><time>2026-04-18T12:41:25.255Z</time></trkpt><trkpt lat="43.0933983" lon="13.3766833"><ele>575.0</ele><time>2026-04-18T12:41:26.255Z</time></trkpt><trkpt lat="43.0935467" lon="13.3766967"><ele>572.5</ele><time>2026-04-18T12:41:27.255Z</time></trkpt><trkpt lat="43.0936867" lon="13.3767067"><ele>570.0</ele><time>2026-04-18T12:41:28.255Z</time></trkpt><trkpt lat="43.0938217" lon="13.37671"><ele>567.5</ele><time>2026-04-18T12:41:29.255Z</time></trkpt><trkpt lat="43.0939483" lon="13.3767167"><ele>565.0</ele><time>2026-04-18T12:41:30.255Z</time></trkpt><trkpt lat="43.0940667" lon="13.3767233"><ele>562.6</ele><time>2026-04-18T12:41:31.255Z</time></trkpt><trkpt lat="43.0941717" lon="13.3767217"><ele>560.2</ele><time>2026-04-18T12:41:32.255Z</time></trkpt><trkpt lat="43.0942733" lon="13.3766883"><ele>557.8</ele><time>2026-04-18T12:41:33.255Z</time></trkpt><trkpt lat="43.0943667" lon="13.376635"><ele>555.4</ele><time>2026-04-18T12:41:34.255Z</time></trkpt><trkpt lat="43.09445" lon="13.3765533"><ele>553.0</ele><time>2026-04-18T12:41:35.255Z</time></trkpt><trkpt lat="43.0945267" lon="13.37646"><ele>553.0</ele><time>2026-04-18T12:41:36.255Z</time></trkpt><trkpt lat="43.094605" lon="13.3763567"><ele>553.0</ele><time>2026-04-18T12:41:37.255Z</time></trkpt><trkpt lat="43.0946783" lon="13.37625"><ele>553.0</ele><time>2026-04-18T12:41:38.255Z</time></trkpt><trkpt lat="43.094745" lon="13.3761483"><ele>553.0</ele><time>2026-04-18T12:41:39.255Z</time></trkpt><trkpt lat="43.094815" lon="13.3760333"><ele>553.0</ele><time>2026-04-18T12:41:40.255Z</time></trkpt><trkpt lat="43.094895" lon="13.3759267"><ele>551.25</ele><time>2026-04-18T12:41:41.255Z</time></trkpt><trkpt lat="43.0949933" lon="13.375815"><ele>549.5</ele><time>2026-04-18T12:41:42.255Z</time></trkpt><trkpt lat="43.095115" lon="13.3757183"><ele>547.75</ele><time>2026-04-18T12:41:43.255Z</time></trkpt><trkpt lat="43.0952517" lon="13.3756333"><ele>546.0</ele><time>2026-04-18T12:41:44.255Z</time></trkpt><trkpt lat="43.0953917" lon="13.3755567"><ele>543.25</ele><time>2026-04-18T12:41:45.255Z</time></trkpt><trkpt lat="43.0955267" lon="13.3754917"><ele>540.5</ele><time>2026-04-18T12:41:46.255Z</time></trkpt><trkpt lat="43.0956567" lon="13.3754217"><ele>537.75</ele><time>2026-04-18T12:41:47.255Z</time></trkpt><trkpt lat="43.09579" lon="13.3753483"><ele>535.0</ele><time>2026-04-18T12:41:48.255Z</time></trkpt><trkpt lat="43.09594" lon="13.3752717"><ele>535.0</ele><time>2026-04-18T12:41:49.255Z</time></trkpt><trkpt lat="43.0960917" lon="13.37519"><ele>535.0</ele><time>2026-04-18T12:41:50.255Z</time></trkpt><trkpt lat="43.0962417" lon="13.375115"><ele>535.0</ele><time>2026-04-18T12:41:51.255Z</time></trkpt><trkpt lat="43.096395" lon="13.3750417"><ele>535.0</ele><time>2026-04-18T12:41:52.255Z</time></trkpt><trkpt lat="43.0965533" lon="13.3749667"><ele>535.0</ele><time>2026-04-18T12:41:53.255Z</time></trkpt><trkpt lat="43.096715" lon="13.3748817"><ele>535.0</ele><time>2026-04-18T12:41:54.255Z</time></trkpt><trkpt lat="43.096885" lon="13.374795"><ele>532.3333333333334</ele><time>2026-04-18T12:41:55.255Z</time></trkpt><trkpt lat="43.0970517" lon="13.37471"><ele>529.6666666666666</ele><time>2026-04-18T12:41:56.255Z</time></trkpt><trkpt lat="43.0972233" lon="13.3746217"><ele>527.0</ele><time>2026-04-18T12:41:57.255Z</time></trkpt><trkpt lat="43.0974083" lon="13.3745267"><ele>523.6666666666666</ele><time>2026-04-18T12:41:58.255Z</time></trkpt><trkpt lat="43.0975833" lon="13.3744317"><ele>520.3333333333334</ele><time>2026-04-18T12:41:59.255Z</time></trkpt><trkpt lat="43.097745" lon="13.3743317"><ele>517.0</ele><time>2026-04-18T12:42:00.255Z</time></trkpt><trkpt lat="43.0979067" lon="13.3742217"><ele>517.0</ele><time>2026-04-18T12:42:01.255Z</time></trkpt><trkpt lat="43.0980683" lon="13.3741233"><ele>517.0</ele><time>2026-04-18T12:42:02.255Z</time></trkpt><trkpt lat="43.09822" lon="13.3740233"><ele>517.0</ele><time>2026-04-18T12:42:03.255Z</time></trkpt><trkpt lat="43.0983683" lon="13.3739283"><ele>514.6666666666667</ele><time>2026-04-18T12:42:04.255Z</time></trkpt><trkpt lat="43.0985133" lon="13.3738383"><ele>512.3333333333334</ele><time>2026-04-18T12:42:05.255Z</time></trkpt><trkpt lat="43.0986533" lon="13.373745"><ele>510.0</ele><time>2026-04-18T12:42:06.255Z</time></trkpt><trkpt lat="43.0987883" lon="13.3736583"><ele>510.0</ele><time>2026-04-18T12:42:07.255Z</time></trkpt><trkpt lat="43.0989267" lon="13.373565"><ele>510.0</ele><time>2026-04-18T12:42:08.255Z</time></trkpt><trkpt lat="43.099055" lon="13.3734583"><ele>510.0</ele><time>2026-04-18T12:42:09.255Z</time></trkpt><trkpt lat="43.0991867" lon="13.3733567"><ele>509.0</ele><time>2026-04-18T12:42:10.255Z</time></trkpt><trkpt lat="43.0993" lon="13.3732583"><ele>508.0</ele><time>2026-04-18T12:42:11.255Z</time></trkpt><trkpt lat="43.0994083" lon="13.3731667"><ele>507.0</ele><time>2026-04-18T12:42:12.255Z</time></trkpt><trkpt lat="43.099495" lon="13.37308"><ele>506.0</ele><time>2026-04-18T12:42:13.255Z</time></trkpt><trkpt lat="43.0995783" lon="13.3729817"><ele>504.0</ele><time>2026-04-18T12:42:14.255Z</time></trkpt><trkpt lat="43.0996467" lon="13.3728583"><ele>502.0</ele><time>2026-04-18T12:42:15.255Z</time></trkpt><trkpt lat="43.0996883" lon="13.3727167"><ele>500.0</ele><time>2026-04-18T12:42:16.255Z</time></trkpt><trkpt lat="43.0997117" lon="13.372575"><ele>498.0</ele><time>2026-04-18T12:42:17.255Z</time></trkpt><trkpt lat="43.09973" lon="13.3724583"><ele>496.0</ele><time>2026-04-18T12:42:18.255Z</time></trkpt><trkpt lat="43.09975" lon="13.3723583"><ele>496.00000000000006</ele><time>2026-04-18T12:42:19.255Z</time></trkpt><trkpt lat="43.0997817" lon="13.3722617"><ele>496.0</ele><time>2026-04-18T12:42:20.254Z</time></trkpt><trkpt lat="43.0998433" lon="13.372195"><ele>496.0</ele><time>2026-04-18T12:42:21.255Z</time></trkpt><trkpt lat="43.0999317" lon="13.3722"><ele>496.0</ele><time>2026-04-18T12:42:22.255Z</time></trkpt><trkpt lat="43.1000117" lon="13.372245"><ele>496.00000000000006</ele><time>2026-04-18T12:42:23.254Z</time></trkpt><trkpt lat="43.1000883" lon="13.3722883"><ele>496.0</ele><time>2026-04-18T12:42:24.255Z</time></trkpt><trkpt lat="43.1001733" lon="13.372295"><ele>494.83333333333337</ele><time>2026-04-18T12:42:25.255Z</time></trkpt><trkpt lat="43.1002617" lon="13.3722733"><ele>493.6666666666667</ele><time>2026-04-18T12:42:26.255Z</time></trkpt><trkpt lat="43.100335" lon="13.372255"><ele>492.5</ele><time>2026-04-18T12:42:27.255Z</time></trkpt><trkpt lat="43.10041" lon="13.3722633"><ele>491.33333333333337</ele><time>2026-04-18T12:42:28.255Z</time></trkpt><trkpt lat="43.1004833" lon="13.3723317"><ele>490.1666666666667</ele><time>2026-04-18T12:42:29.255Z</time></trkpt><trkpt lat="43.1005533" lon="13.3724417"><ele>489.0</ele><time>2026-04-18T12:42:30.255Z</time></trkpt><trkpt lat="43.100615" lon="13.3725833"><ele>489.0</ele><time>2026-04-18T12:42:31.255Z</time></trkpt><trkpt lat="43.1006583" lon="13.3727417"><ele>489.0</ele><time>2026-04-18T12:42:32.255Z</time></trkpt><trkpt lat="43.10068" lon="13.372925"><ele>489.0</ele><time>2026-04-18T12:42:33.255Z</time></trkpt><trkpt lat="43.1006917" lon="13.3731117"><ele>489.0</ele><time>2026-04-18T12:42:34.255Z</time></trkpt><trkpt lat="43.100715" lon="13.3733033"><ele>489.0</ele><time>2026-04-18T12:42:35.255Z</time></trkpt><trkpt lat="43.1007383" lon="13.37348"><ele>489.0</ele><time>2026-04-18T12:42:36.255Z</time></trkpt><trkpt lat="43.1007817" lon="13.3736383"><ele>489.0</ele><time>2026-04-18T12:42:37.255Z</time></trkpt><trkpt lat="43.10084" lon="13.3737767"><ele>489.0</ele><time>2026-04-18T12:42:38.255Z</time></trkpt><trkpt lat="43.1009133" lon="13.3738767"><ele>485.2</ele><time>2026-04-18T12:42:39.254Z</time></trkpt><trkpt lat="43.101" lon="13.373945"><ele>481.4</ele><time>2026-04-18T12:42:40.255Z</time></trkpt><trkpt lat="43.1011033" lon="13.37398"><ele>477.6</ele><time>2026-04-18T12:42:41.255Z</time></trkpt><trkpt lat="43.1012117" lon="13.3739633"><ele>473.8</ele><time>2026-04-18T12:42:42.255Z</time></trkpt><trkpt lat="43.101335" lon="13.3739083"><ele>470.0</ele><time>2026-04-18T12:42:43.255Z</time></trkpt><trkpt lat="43.10146" lon="13.3738267"><ele>465.3333333333333</ele><time>2026-04-18T12:42:44.255Z</time></trkpt><trkpt lat="43.1015917" lon="13.3737367"><ele>460.66666666666663</ele><time>2026-04-18T12:42:45.255Z</time></trkpt><trkpt lat="43.1017367" lon="13.37365"><ele>456.0</ele><time>2026-04-18T12:42:46.255Z</time></trkpt><trkpt lat="43.1018817" lon="13.3735717"><ele>456.0</ele><time>2026-04-18T12:42:47.255Z</time></trkpt><trkpt lat="43.10201" lon="13.3735033"><ele>456.0</ele><time>2026-04-18T12:42:48.255Z</time></trkpt><trkpt lat="43.1021367" lon="13.3734417"><ele>456.0</ele><time>2026-04-18T12:42:49.255Z</time></trkpt><trkpt lat="43.10226" lon="13.3733717"><ele>456.0</ele><time>2026-04-18T12:42:50.255Z</time></trkpt><trkpt lat="43.1023833" lon="13.3732783"><ele>454.25</ele><time>2026-04-18T12:42:51.255Z</time></trkpt><trkpt lat="43.102495" lon="13.3731783"><ele>452.5</ele><time>2026-04-18T12:42:52.254Z</time></trkpt><trkpt lat="43.1025933" lon="13.3730767"><ele>450.75</ele><time>2026-04-18T12:42:53.255Z</time></trkpt><trkpt lat="43.102695" lon="13.3729817"><ele>449.0</ele><time>2026-04-18T12:42:54.255Z</time></trkpt><trkpt lat="43.102805" lon="13.3728817"><ele>447.75</ele><time>2026-04-18T12:42:55.255Z</time></trkpt><trkpt lat="43.1029083" lon="13.3727817"><ele>446.5</ele><time>2026-04-18T12:42:56.255Z</time></trkpt><trkpt lat="43.1030183" lon="13.37268"><ele>445.25</ele><time>2026-04-18T12:42:57.255Z</time></trkpt><trkpt lat="43.103135" lon="13.3725867"><ele>444.0</ele><time>2026-04-18T12:42:58.254Z</time></trkpt><trkpt lat="43.1032417" lon="13.372505"><ele>442.79999999999995</ele><time>2026-04-18T12:42:59.255Z</time></trkpt><trkpt lat="43.10335" lon="13.3724433"><ele>441.59999999999997</ele><time>2026-04-18T12:43:00.255Z</time></trkpt><trkpt lat="43.1034633" lon="13.37241"><ele>440.4</ele><time>2026-04-18T12:43:01.255Z</time></trkpt><trkpt lat="43.103565" lon="13.3724033"><ele>439.2</ele><time>2026-04-18T12:43:02.255Z</time></trkpt><trkpt lat="43.1036517" lon="13.3724367"><ele>438.0</ele><time>2026-04-18T12:43:03.255Z</time></trkpt><trkpt lat="43.1037167" lon="13.3725067"><ele>438.0</ele><time>2026-04-18T12:43:04.255Z</time></trkpt><trkpt lat="43.1037583" lon="13.37261"><ele>438.0</ele><time>2026-04-18T12:43:05.255Z</time></trkpt><trkpt lat="43.1037833" lon="13.37272"><ele>438.0</ele><time>2026-04-18T12:43:06.255Z</time></trkpt><trkpt lat="43.1037933" lon="13.372825"><ele>438.0</ele><time>2026-04-18T12:43:07.255Z</time></trkpt><trkpt lat="43.1038083" lon="13.3729317"><ele>438.0</ele><time>2026-04-18T12:43:08.254Z</time></trkpt><trkpt lat="43.10382" lon="13.3730533"><ele>438.0</ele><time>2026-04-18T12:43:09.255Z</time></trkpt><trkpt lat="43.1038317" lon="13.373165"><ele>437.79999999999995</ele><time>2026-04-18T12:43:10.255Z</time></trkpt><trkpt lat="43.1038517" lon="13.3732833"><ele>437.59999999999997</ele><time>2026-04-18T12:43:11.255Z</time></trkpt><trkpt lat="43.103885" lon="13.3733833"><ele>437.40000000000003</ele><time>2026-04-18T12:43:12.255Z</time></trkpt><trkpt lat="43.103975" lon="13.373485"><ele>437.20000000000005</ele><time>2026-04-18T12:43:14.255Z</time></trkpt><trkpt lat="43.1040783" lon="13.3734667"><ele>437.0</ele><time>2026-04-18T12:43:16.255Z</time></trkpt><trkpt lat="43.10417" lon="13.37337"><ele>434.66666666666663</ele><time>2026-04-18T12:43:18.255Z</time></trkpt><trkpt lat="43.1042333" lon="13.3733267"><ele>432.3333333333333</ele><time>2026-04-18T12:43:19.255Z</time></trkpt><trkpt lat="43.1043067" lon="13.3732967"><ele>430.0</ele><time>2026-04-18T12:43:20.255Z</time></trkpt><trkpt lat="43.1043817" lon="13.3732967"><ele>427.66666666666663</ele><time>2026-04-18T12:43:21.255Z</time></trkpt><trkpt lat="43.1044483" lon="13.373335"><ele>425.3333333333333</ele><time>2026-04-18T12:43:22.255Z</time></trkpt><trkpt lat="43.1045033" lon="13.373405"><ele>423.0</ele><time>2026-04-18T12:43:23.255Z</time></trkpt><trkpt lat="43.1045467" lon="13.3735167"><ele>423.0</ele><time>2026-04-18T12:43:24.255Z</time></trkpt><trkpt lat="43.1045733" lon="13.3736633"><ele>423.0</ele><time>2026-04-18T12:43:25.255Z</time></trkpt><trkpt lat="43.1046067" lon="13.37381"><ele>423.0</ele><time>2026-04-18T12:43:26.255Z</time></trkpt><trkpt lat="43.10467" lon="13.3739383"><ele>423.0</ele><time>2026-04-18T12:43:27.255Z</time></trkpt><trkpt lat="43.104785" lon="13.3740533"><ele>415.66666666666663</ele><time>2026-04-18T12:43:28.254Z</time></trkpt><trkpt lat="43.1049367" lon="13.374165"><ele>408.3333333333333</ele><time>2026-04-18T12:43:29.255Z</time></trkpt><trkpt lat="43.105095" lon="13.3742683"><ele>401.0</ele><time>2026-04-18T12:43:30.255Z</time></trkpt><trkpt lat="43.1052633" lon="13.37439"><ele>401.0</ele><time>2026-04-18T12:43:31.255Z</time></trkpt><trkpt lat="43.1054483" lon="13.374545"><ele>401.0</ele><time>2026-04-18T12:43:32.255Z</time></trkpt><trkpt lat="43.1056217" lon="13.3747133"><ele>401.0</ele><time>2026-04-18T12:43:33.255Z</time></trkpt><trkpt lat="43.1057917" lon="13.3748717"><ele>395.3333333333333</ele><time>2026-04-18T12:43:34.255Z</time></trkpt><trkpt lat="43.105955" lon="13.3750217"><ele>389.66666666666663</ele><time>2026-04-18T12:43:35.255Z</time></trkpt><trkpt lat="43.106115" lon="13.375165"><ele>384.0</ele><time>2026-04-18T12:43:36.255Z</time></trkpt><trkpt lat="43.10626" lon="13.3753017"><ele>384.0</ele><time>2026-04-18T12:43:37.255Z</time></trkpt><trkpt lat="43.1063883" lon="13.3754283"><ele>384.0</ele><time>2026-04-18T12:43:38.254Z</time></trkpt><trkpt lat="43.1065067" lon="13.3755383"><ele>384.0</ele><time>2026-04-18T12:43:39.255Z</time></trkpt><trkpt lat="43.106615" lon="13.3756283"><ele>384.0</ele><time>2026-04-18T12:43:40.255Z</time></trkpt><trkpt lat="43.1067333" lon="13.3756667"><ele>380.3333333333333</ele><time>2026-04-18T12:43:41.255Z</time></trkpt><trkpt lat="43.10688" lon="13.375655"><ele>376.66666666666663</ele><time>2026-04-18T12:43:42.255Z</time></trkpt><trkpt lat="43.1070333" lon="13.37562"><ele>373.0</ele><time>2026-04-18T12:43:43.255Z</time></trkpt><trkpt lat="43.1071883" lon="13.3755733"><ele>373.0</ele><time>2026-04-18T12:43:44.255Z</time></trkpt><trkpt lat="43.1073383" lon="13.375535"><ele>373.0</ele><time>2026-04-18T12:43:45.255Z</time></trkpt><trkpt lat="43.10748" lon="13.3755017"><ele>373.0</ele><time>2026-04-18T12:43:46.255Z</time></trkpt><trkpt lat="43.1076133" lon="13.3754683"><ele>373.0</ele><time>2026-04-18T12:43:47.255Z</time></trkpt><trkpt lat="43.1077467" lon="13.3754467"><ele>369.0</ele><time>2026-04-18T12:43:48.255Z</time></trkpt><trkpt lat="43.1078867" lon="13.3754283"><ele>365.0</ele><time>2026-04-18T12:43:49.255Z</time></trkpt><trkpt lat="43.1080367" lon="13.3754133"><ele>361.0</ele><time>2026-04-18T12:43:50.255Z</time></trkpt><trkpt lat="43.1081983" lon="13.37539"><ele>359.0</ele><time>2026-04-18T12:43:51.254Z</time></trkpt><trkpt lat="43.1083583" lon="13.37537"><ele>357.0</ele><time>2026-04-18T12:43:52.255Z</time></trkpt><trkpt lat="43.1085183" lon="13.3753517"><ele>355.0</ele><time>2026-04-18T12:43:53.255Z</time></trkpt><trkpt lat="43.10868" lon="13.3753217"><ele>355.0</ele><time>2026-04-18T12:43:54.255Z</time></trkpt><trkpt lat="43.1088267" lon="13.3752717"><ele>355.0</ele><time>2026-04-18T12:43:55.255Z</time></trkpt><trkpt lat="43.1089767" lon="13.3751717"><ele>355.0</ele><time>2026-04-18T12:43:56.255Z</time></trkpt><trkpt lat="43.10911" lon="13.3750367"><ele>352.5</ele><time>2026-04-18T12:43:57.255Z</time></trkpt><trkpt lat="43.10923" lon="13.3748867"><ele>350.0</ele><time>2026-04-18T12:43:58.255Z</time></trkpt><trkpt lat="43.109325" lon="13.3747433"><ele>347.5</ele><time>2026-04-18T12:43:59.255Z</time></trkpt><trkpt lat="43.1094083" lon="13.3746217"><ele>345.0</ele><time>2026-04-18T12:44:00.255Z</time></trkpt><trkpt lat="43.10949" lon="13.374515"><ele>344.2</ele><time>2026-04-18T12:44:01.255Z</time></trkpt><trkpt lat="43.1095717" lon="13.3744483"><ele>343.4</ele><time>2026-04-18T12:44:02.255Z</time></trkpt><trkpt lat="43.1096617" lon="13.3744233"><ele>342.6</ele><time>2026-04-18T12:44:03.255Z</time></trkpt><trkpt lat="43.10976" lon="13.37446"><ele>341.8</ele><time>2026-04-18T12:44:04.255Z</time></trkpt><trkpt lat="43.10988" lon="13.374535"><ele>341.0</ele><time>2026-04-18T12:44:05.255Z</time></trkpt><trkpt lat="43.110015" lon="13.3746067"><ele>339.6666666666667</ele><time>2026-04-18T12:44:06.255Z</time></trkpt><trkpt lat="43.1101683" lon="13.374675"><ele>338.3333333333333</ele><time>2026-04-18T12:44:07.255Z</time></trkpt><trkpt lat="43.11032" lon="13.3747317"><ele>337.0</ele><time>2026-04-18T12:44:08.255Z</time></trkpt><trkpt lat="43.1104717" lon="13.3747917"><ele>337.0</ele><time>2026-04-18T12:44:09.255Z</time></trkpt><trkpt lat="43.1106167" lon="13.374845"><ele>337.0</ele><time>2026-04-18T12:44:10.255Z</time></trkpt><trkpt lat="43.1107467" lon="13.3749"><ele>337.0</ele><time>2026-04-18T12:44:11.255Z</time></trkpt><trkpt lat="43.1108683" lon="13.3749517"><ele>337.0</ele><time>2026-04-18T12:44:12.255Z</time></trkpt><trkpt lat="43.1109833" lon="13.374995"><ele>337.0</ele><time>2026-04-18T12:44:13.255Z</time></trkpt><trkpt lat="43.111085" lon="13.3750283"><ele>337.0</ele><time>2026-04-18T12:44:14.255Z</time></trkpt><trkpt lat="43.1111683" lon="13.3750383"><ele>337.0</ele><time>2026-04-18T12:44:15.255Z</time></trkpt><trkpt lat="43.1112417" lon="13.3750267"><ele>337.0</ele><time>2026-04-18T12:44:16.255Z</time></trkpt><trkpt lat="43.1113083" lon="13.3749983"><ele>337.0</ele><time>2026-04-18T12:44:17.255Z</time></trkpt><trkpt lat="43.1113817" lon="13.374975"><ele>337.0</ele><time>2026-04-18T12:44:18.255Z</time></trkpt><trkpt lat="43.1114617" lon="13.3749717"><ele>337.0</ele><time>2026-04-18T12:44:19.255Z</time></trkpt><trkpt lat="43.11155" lon="13.374995"><ele>337.0</ele><time>2026-04-18T12:44:20.255Z</time></trkpt><trkpt lat="43.1116467" lon="13.3750633"><ele>337.0</ele><time>2026-04-18T12:44:21.255Z</time></trkpt><trkpt lat="43.1117433" lon="13.3751717"><ele>337.0</ele><time>2026-04-18T12:44:22.255Z</time></trkpt><trkpt lat="43.11184" lon="13.3752967"><ele>337.20000000000005</ele><time>2026-04-18T12:44:23.255Z</time></trkpt><trkpt lat="43.11193" lon="13.3754033"><ele>337.4</ele><time>2026-04-18T12:44:24.255Z</time></trkpt><trkpt lat="43.1120117" lon="13.3755033"><ele>337.6</ele><time>2026-04-18T12:44:25.255Z</time></trkpt><trkpt lat="43.1121017" lon="13.375605"><ele>337.79999999999995</ele><time>2026-04-18T12:44:26.255Z</time></trkpt><trkpt lat="43.112175" lon="13.3756983"><ele>338.0</ele><time>2026-04-18T12:44:27.255Z</time></trkpt><trkpt lat="43.1122533" lon="13.3757833"><ele>338.0</ele><time>2026-04-18T12:44:28.255Z</time></trkpt><trkpt lat="43.1123267" lon="13.3758483"><ele>338.0</ele><time>2026-04-18T12:44:29.255Z</time></trkpt><trkpt lat="43.1123983" lon="13.3759183"><ele>338.0</ele><time>2026-04-18T12:44:30.255Z</time></trkpt><trkpt lat="43.1124467" lon="13.3759983"><ele>338.0</ele><time>2026-04-18T12:44:31.255Z</time></trkpt><trkpt lat="43.1124667" lon="13.3760817"><ele>338.0</ele><time>2026-04-18T12:44:32.255Z</time></trkpt><trkpt lat="43.1124617" lon="13.3761767"><ele>338.0</ele><time>2026-04-18T12:44:33.255Z</time></trkpt><trkpt lat="43.1124383" lon="13.376275"><ele>338.75</ele><time>2026-04-18T12:44:34.255Z</time></trkpt><trkpt lat="43.11239" lon="13.376365"><ele>339.5</ele><time>2026-04-18T12:44:35.255Z</time></trkpt><trkpt lat="43.1123233" lon="13.3764783"><ele>340.25</ele><time>2026-04-18T12:44:36.255Z</time></trkpt><trkpt lat="43.1122433" lon="13.3766133"><ele>341.0</ele><time>2026-04-18T12:44:37.255Z</time></trkpt><trkpt lat="43.1121483" lon="13.3767933"><ele>341.0</ele><time>2026-04-18T12:44:38.255Z</time></trkpt><trkpt lat="43.1120433" lon="13.3769783"><ele>341.0</ele><time>2026-04-18T12:44:39.255Z</time></trkpt><trkpt lat="43.1119217" lon="13.3771733"><ele>341.0</ele><time>2026-04-18T12:44:40.255Z</time></trkpt><trkpt lat="43.11181" lon="13.37738"><ele>341.33333333333337</ele><time>2026-04-18T12:44:41.255Z</time></trkpt><trkpt lat="43.11171" lon="13.3775733"><ele>341.6666666666667</ele><time>2026-04-18T12:44:42.255Z</time></trkpt><trkpt lat="43.1116217" lon="13.37774"><ele>342.0</ele><time>2026-04-18T12:44:43.255Z</time></trkpt><trkpt lat="43.11153" lon="13.3778933"><ele>344.0</ele><time>2026-04-18T12:44:44.255Z</time></trkpt><trkpt lat="43.11146" lon="13.37802"><ele>346.0</ele><time>2026-04-18T12:44:45.255Z</time></trkpt><trkpt lat="43.11138" lon="13.378105"><ele>348.0</ele><time>2026-04-18T12:44:46.255Z</time></trkpt><trkpt lat="43.1113033" lon="13.37815"><ele>350.0</ele><time>2026-04-18T12:44:47.255Z</time></trkpt><trkpt lat="43.1112333" lon="13.3781767"><ele>352.0</ele><time>2026-04-18T12:44:48.255Z</time></trkpt><trkpt lat="43.1111517" lon="13.3782833"><ele>352.0</ele><time>2026-04-18T12:44:50.254Z</time></trkpt><trkpt lat="43.1111417" lon="13.3783867"><ele>352.0</ele><time>2026-04-18T12:44:51.255Z</time></trkpt><trkpt lat="43.1111483" lon="13.3785233"><ele>352.0</ele><time>2026-04-18T12:44:52.255Z</time></trkpt><trkpt lat="43.111175" lon="13.37868"><ele>352.0</ele><time>2026-04-18T12:44:53.255Z</time></trkpt><trkpt lat="43.1112117" lon="13.37886"><ele>352.0</ele><time>2026-04-18T12:44:54.255Z</time></trkpt><trkpt lat="43.1112317" lon="13.379065"><ele>352.75</ele><time>2026-04-18T12:44:55.255Z</time></trkpt><trkpt lat="43.1112567" lon="13.379265"><ele>353.5</ele><time>2026-04-18T12:44:56.255Z</time></trkpt><trkpt lat="43.1112767" lon="13.3794567"><ele>354.25</ele><time>2026-04-18T12:44:57.255Z</time></trkpt><trkpt lat="43.1112883" lon="13.3796267"><ele>355.0</ele><time>2026-04-18T12:44:58.255Z</time></trkpt><trkpt lat="43.1113017" lon="13.3797867"><ele>354.6</ele><time>2026-04-18T12:44:59.255Z</time></trkpt><trkpt lat="43.1113133" lon="13.3799267"><ele>354.2</ele><time>2026-04-18T12:45:00.255Z</time></trkpt><trkpt lat="43.111345" lon="13.38004"><ele>353.79999999999995</ele><time>2026-04-18T12:45:01.255Z</time></trkpt><trkpt lat="43.1113917" lon="13.3801133"><ele>353.4</ele><time>2026-04-18T12:45:02.255Z</time></trkpt><trkpt lat="43.111525" lon="13.38013"><ele>353.0</ele><time>2026-04-18T12:45:04.255Z</time></trkpt><trkpt lat="43.11162" lon="13.38011"><ele>353.0</ele><time>2026-04-18T12:45:05.255Z</time></trkpt><trkpt lat="43.1117283" lon="13.3800883"><ele>353.0</ele><time>2026-04-18T12:45:06.255Z</time></trkpt><trkpt lat="43.1118433" lon="13.3800833"><ele>353.0</ele><time>2026-04-18T12:45:07.255Z</time></trkpt><trkpt lat="43.1119833" lon="13.3801"><ele>353.0</ele><time>2026-04-18T12:45:08.255Z</time></trkpt><trkpt lat="43.1121117" lon="13.3801333"><ele>353.0</ele><time>2026-04-18T12:45:09.255Z</time></trkpt><trkpt lat="43.1122317" lon="13.3801883"><ele>353.0</ele><time>2026-04-18T12:45:10.255Z</time></trkpt><trkpt lat="43.11236" lon="13.3802533"><ele>353.0</ele><time>2026-04-18T12:45:11.255Z</time></trkpt><trkpt lat="43.112485" lon="13.3803283"><ele>353.0</ele><time>2026-04-18T12:45:12.255Z</time></trkpt><trkpt lat="43.11262" lon="13.380405"><ele>352.75</ele><time>2026-04-18T12:45:13.255Z</time></trkpt><trkpt lat="43.112755" lon="13.3804517"><ele>352.5</ele><time>2026-04-18T12:45:14.255Z</time></trkpt><trkpt lat="43.11288" lon="13.3804767"><ele>352.25</ele><time>2026-04-18T12:45:15.255Z</time></trkpt><trkpt lat="43.11299" lon="13.3805017"><ele>352.0</ele><time>2026-04-18T12:45:16.255Z</time></trkpt><trkpt lat="43.1131083" lon="13.380545"><ele>352.0</ele><time>2026-04-18T12:45:17.255Z</time></trkpt><trkpt lat="43.113235" lon="13.380605"><ele>352.0</ele><time>2026-04-18T12:45:18.255Z</time></trkpt><trkpt lat="43.1133733" lon="13.3806917"><ele>352.0</ele><time>2026-04-18T12:45:19.255Z</time></trkpt><trkpt lat="43.1134967" lon="13.3808117"><ele>352.0</ele><time>2026-04-18T12:45:20.255Z</time></trkpt><trkpt lat="43.113605" lon="13.3809617"><ele>352.0</ele><time>2026-04-18T12:45:21.255Z</time></trkpt><trkpt lat="43.1137117" lon="13.3811183"><ele>352.0</ele><time>2026-04-18T12:45:22.255Z</time></trkpt><trkpt lat="43.1138183" lon="13.3812683"><ele>352.0</ele><time>2026-04-18T12:45:23.255Z</time></trkpt><trkpt lat="43.1139217" lon="13.381425"><ele>352.0</ele><time>2026-04-18T12:45:24.255Z</time></trkpt><trkpt lat="43.1140167" lon="13.381565"><ele>352.0</ele><time>2026-04-18T12:45:25.255Z</time></trkpt><trkpt lat="43.1140983" lon="13.3817017"><ele>352.0</ele><time>2026-04-18T12:45:26.255Z</time></trkpt><trkpt lat="43.1141617" lon="13.3818417"><ele>352.0</ele><time>2026-04-18T12:45:27.255Z</time></trkpt><trkpt lat="43.1142217" lon="13.3819917"><ele>349.8</ele><time>2026-04-18T12:45:28.255Z</time></trkpt><trkpt lat="43.1142767" lon="13.3821383"><ele>347.6</ele><time>2026-04-18T12:45:29.255Z</time></trkpt><trkpt lat="43.1143417" lon="13.3822583"><ele>345.40000000000003</ele><time>2026-04-18T12:45:30.255Z</time></trkpt><trkpt lat="43.114415" lon="13.3823433"><ele>343.20000000000005</ele><time>2026-04-18T12:45:31.255Z</time></trkpt><trkpt lat="43.114515" lon="13.3823817"><ele>341.0</ele><time>2026-04-18T12:45:32.255Z</time></trkpt><trkpt lat="43.1146333" lon="13.3823767"><ele>341.0</ele><time>2026-04-18T12:45:33.255Z</time></trkpt><trkpt lat="43.1147483" lon="13.3823367"><ele>341.0</ele><time>2026-04-18T12:45:34.255Z</time></trkpt><trkpt lat="43.1148767" lon="13.3822567"><ele>341.0</ele><time>2026-04-18T12:45:35.255Z</time></trkpt><trkpt lat="43.1150133" lon="13.38217"><ele>341.0</ele><time>2026-04-18T12:45:36.255Z</time></trkpt><trkpt lat="43.1151517" lon="13.3820833"><ele>337.0</ele><time>2026-04-18T12:45:37.255Z</time></trkpt><trkpt lat="43.11529" lon="13.3819983"><ele>333.0</ele><time>2026-04-18T12:45:38.255Z</time></trkpt><trkpt lat="43.115435" lon="13.38191"><ele>329.0</ele><time>2026-04-18T12:45:39.255Z</time></trkpt><trkpt lat="43.1155683" lon="13.38182"><ele>329.0</ele><time>2026-04-18T12:45:40.255Z</time></trkpt><trkpt lat="43.1157" lon="13.381735"><ele>329.0</ele><time>2026-04-18T12:45:41.255Z</time></trkpt><trkpt lat="43.1158233" lon="13.3816583"><ele>329.0</ele><time>2026-04-18T12:45:42.255Z</time></trkpt><trkpt lat="43.1159383" lon="13.3815883"><ele>329.0</ele><time>2026-04-18T12:45:43.255Z</time></trkpt><trkpt lat="43.1160583" lon="13.381515"><ele>328.75</ele><time>2026-04-18T12:45:44.255Z</time></trkpt><trkpt lat="43.1161833" lon="13.3814417"><ele>328.5</ele><time>2026-04-18T12:45:45.255Z</time></trkpt><trkpt lat="43.1162983" lon="13.3813683"><ele>328.25</ele><time>2026-04-18T12:45:46.255Z</time></trkpt><trkpt lat="43.1163983" lon="13.3812983"><ele>328.0</ele><time>2026-04-18T12:45:47.255Z</time></trkpt><trkpt lat="43.1165067" lon="13.3812283"><ele>327.5</ele><time>2026-04-18T12:45:48.255Z</time></trkpt><trkpt lat="43.1166183" lon="13.3811533"><ele>327.0</ele><time>2026-04-18T12:45:49.255Z</time></trkpt><trkpt lat="43.11672" lon="13.3810833"><ele>326.5</ele><time>2026-04-18T12:45:50.255Z</time></trkpt><trkpt lat="43.1168183" lon="13.3810167"><ele>326.0</ele><time>2026-04-18T12:45:51.255Z</time></trkpt><trkpt lat="43.1169117" lon="13.3809567"><ele>326.0</ele><time>2026-04-18T12:45:52.255Z</time></trkpt><trkpt lat="43.117005" lon="13.380905"><ele>326.0</ele><time>2026-04-18T12:45:53.255Z</time></trkpt><trkpt lat="43.1170817" lon="13.380845"><ele>326.0</ele><time>2026-04-18T12:45:54.255Z</time></trkpt><trkpt lat="43.11716" lon="13.3807767"><ele>326.0</ele><time>2026-04-18T12:45:55.255Z</time></trkpt><trkpt lat="43.11723" lon="13.3806817"><ele>326.0</ele><time>2026-04-18T12:45:56.255Z</time></trkpt><trkpt lat="43.1172867" lon="13.38056"><ele>325.75</ele><time>2026-04-18T12:45:57.255Z</time></trkpt><trkpt lat="43.1173233" lon="13.380395"><ele>325.5</ele><time>2026-04-18T12:45:58.255Z</time></trkpt><trkpt lat="43.1173583" lon="13.380225"><ele>325.25</ele><time>2026-04-18T12:45:59.255Z</time></trkpt><trkpt lat="43.1173883" lon="13.38006"><ele>325.0</ele><time>2026-04-18T12:46:00.255Z</time></trkpt><trkpt lat="43.1174183" lon="13.37991"><ele>325.0</ele><time>2026-04-18T12:46:01.255Z</time></trkpt><trkpt lat="43.1174467" lon="13.3797733"><ele>325.0</ele><time>2026-04-18T12:46:02.255Z</time></trkpt><trkpt lat="43.1174733" lon="13.3796483"><ele>325.0</ele><time>2026-04-18T12:46:03.254Z</time></trkpt><trkpt lat="43.1174983" lon="13.3795367"><ele>325.0</ele><time>2026-04-18T12:46:04.254Z</time></trkpt><trkpt lat="43.11752" lon="13.3794217"><ele>325.0</ele><time>2026-04-18T12:46:05.255Z</time></trkpt><trkpt lat="43.117545" lon="13.3793083"><ele>324.25</ele><time>2026-04-18T12:46:06.255Z</time></trkpt><trkpt lat="43.11759" lon="13.37919"><ele>323.5</ele><time>2026-04-18T12:46:07.255Z</time></trkpt><trkpt lat="43.1176583" lon="13.3790683"><ele>322.75</ele><time>2026-04-18T12:46:08.255Z</time></trkpt><trkpt lat="43.1177583" lon="13.3789683"><ele>322.0</ele><time>2026-04-18T12:46:09.255Z</time></trkpt><trkpt lat="43.1178733" lon="13.3789067"><ele>322.0</ele><time>2026-04-18T12:46:10.255Z</time></trkpt><trkpt lat="43.117995" lon="13.3788717"><ele>322.0</ele><time>2026-04-18T12:46:11.254Z</time></trkpt><trkpt lat="43.1181067" lon="13.3788717"><ele>322.0</ele><time>2026-04-18T12:46:12.255Z</time></trkpt><trkpt lat="43.1182117" lon="13.3788967"><ele>322.0</ele><time>2026-04-18T12:46:13.255Z</time></trkpt><trkpt lat="43.1183067" lon="13.3789467"><ele>322.0</ele><time>2026-04-18T12:46:14.255Z</time></trkpt><trkpt lat="43.1184117" lon="13.379025"><ele>321.5</ele><time>2026-04-18T12:46:15.255Z</time></trkpt><trkpt lat="43.1185" lon="13.3791367"><ele>321.0</ele><time>2026-04-18T12:46:16.255Z</time></trkpt><trkpt lat="43.11859" lon="13.3792583"><ele>320.5</ele><time>2026-04-18T12:46:17.255Z</time></trkpt><trkpt lat="43.118685" lon="13.3793817"><ele>320.0</ele><time>2026-04-18T12:46:18.255Z</time></trkpt><trkpt lat="43.1187717" lon="13.3794983"><ele>320.0</ele><time>2026-04-18T12:46:19.255Z</time></trkpt><trkpt lat="43.118845" lon="13.3795983"><ele>320.0</ele><time>2026-04-18T12:46:20.255Z</time></trkpt><trkpt lat="43.1189117" lon="13.3796917"><ele>320.0</ele><time>2026-04-18T12:46:21.255Z</time></trkpt><trkpt lat="43.118975" lon="13.37977"><ele>320.0</ele><time>2026-04-18T12:46:22.255Z</time></trkpt><trkpt lat="43.1190217" lon="13.3798567"><ele>320.0</ele><time>2026-04-18T12:46:23.255Z</time></trkpt><trkpt lat="43.1190617" lon="13.3799367"><ele>320.0</ele><time>2026-04-18T12:46:24.255Z</time></trkpt><trkpt lat="43.1191133" lon="13.38"><ele>319.1666666666667</ele><time>2026-04-18T12:46:25.255Z</time></trkpt><trkpt lat="43.1191633" lon="13.3800583"><ele>318.33333333333337</ele><time>2026-04-18T12:46:26.255Z</time></trkpt><trkpt lat="43.11923" lon="13.3800967"><ele>317.5</ele><time>2026-04-18T12:46:27.255Z</time></trkpt><trkpt lat="43.1192933" lon="13.3801133"><ele>316.6666666666667</ele><time>2026-04-18T12:46:28.255Z</time></trkpt><trkpt lat="43.1193567" lon="13.3801183"><ele>315.8333333333333</ele><time>2026-04-18T12:46:29.255Z</time></trkpt><trkpt lat="43.11946" lon="13.3800783"><ele>315.0</ele><time>2026-04-18T12:46:31.255Z</time></trkpt><trkpt lat="43.1195533" lon="13.3800683"><ele>315.0</ele><time>2026-04-18T12:46:33.255Z</time></trkpt><trkpt lat="43.1196217" lon="13.38013"><ele>315.0</ele><time>2026-04-18T12:46:35.255Z</time></trkpt><trkpt lat="43.1196167" lon="13.3802483"><ele>315.0</ele><time>2026-04-18T12:46:38.255Z</time></trkpt><trkpt lat="43.1195733" lon="13.3803767"><ele>315.0</ele><time>2026-04-18T12:46:40.255Z</time></trkpt><trkpt lat="43.1195333" lon="13.3804467"><ele>315.0</ele><time>2026-04-18T12:46:41.255Z</time></trkpt><trkpt lat="43.1194883" lon="13.3805183"><ele>315.0</ele><time>2026-04-18T12:46:42.255Z</time></trkpt><trkpt lat="43.1194217" lon="13.3806383"><ele>314.6</ele><time>2026-04-18T12:46:44.255Z</time></trkpt><trkpt lat="43.1193633" lon="13.38077"><ele>314.2</ele><time>2026-04-18T12:46:46.255Z</time></trkpt><trkpt lat="43.1193283" lon="13.38094"><ele>313.8</ele><time>2026-04-18T12:46:48.255Z</time></trkpt><trkpt lat="43.11933" lon="13.3810367"><ele>313.4</ele><time>2026-04-18T12:46:49.255Z</time></trkpt><trkpt lat="43.1193367" lon="13.381125"><ele>313.0</ele><time>2026-04-18T12:46:50.255Z</time></trkpt><trkpt lat="43.1193917" lon="13.3812817"><ele>313.0</ele><time>2026-04-18T12:46:52.255Z</time></trkpt><trkpt lat="43.1194417" lon="13.3813383"><ele>313.0</ele><time>2026-04-18T12:46:53.255Z</time></trkpt><trkpt lat="43.11951" lon="13.3813883"><ele>313.0</ele><time>2026-04-18T12:46:54.255Z</time></trkpt><trkpt lat="43.1195867" lon="13.38144"><ele>313.0</ele><time>2026-04-18T12:46:55.255Z</time></trkpt><trkpt lat="43.119665" lon="13.3814833"><ele>313.0</ele><time>2026-04-18T12:46:56.255Z</time></trkpt><trkpt lat="43.1197633" lon="13.3815267"><ele>313.0</ele><time>2026-04-18T12:46:57.255Z</time></trkpt><trkpt lat="43.1198483" lon="13.3815667"><ele>312.66666666666663</ele><time>2026-04-18T12:46:58.255Z</time></trkpt><trkpt lat="43.11992" lon="13.3815983"><ele>312.3333333333333</ele><time>2026-04-18T12:46:59.255Z</time></trkpt><trkpt lat="43.119995" lon="13.38163"><ele>312.0</ele><time>2026-04-18T12:47:00.254Z</time></trkpt><trkpt lat="43.1200617" lon="13.3816533"><ele>311.6666666666667</ele><time>2026-04-18T12:47:01.254Z</time></trkpt><trkpt lat="43.1201267" lon="13.38165"><ele>311.33333333333337</ele><time>2026-04-18T12:47:02.255Z</time></trkpt><trkpt lat="43.1202317" lon="13.3815767"><ele>311.0</ele><time>2026-04-18T12:47:04.255Z</time></trkpt><trkpt lat="43.1203" lon="13.3814483"><ele>311.0</ele><time>2026-04-18T12:47:06.254Z</time></trkpt><trkpt lat="43.1203467" lon="13.381305"><ele>311.0</ele><time>2026-04-18T12:47:08.255Z</time></trkpt><trkpt lat="43.1203667" lon="13.38122"><ele>311.0</ele><time>2026-04-18T12:47:09.255Z</time></trkpt><trkpt lat="43.1203817" lon="13.381135"><ele>311.0</ele><time>2026-04-18T12:47:10.255Z</time></trkpt><trkpt lat="43.1204117" lon="13.3810017"><ele>311.0</ele><time>2026-04-18T12:47:12.255Z</time></trkpt><trkpt lat="43.1204233" lon="13.3809133"><ele>311.0</ele><time>2026-04-18T12:47:14.255Z</time></trkpt><trkpt lat="43.1205167" lon="13.380945"><ele>311.0</ele><time>2026-04-18T12:47:18.255Z</time></trkpt><trkpt lat="43.120605" lon="13.3810017"><ele>311.0</ele><time>2026-04-18T12:47:19.255Z</time></trkpt><trkpt lat="43.1207283" lon="13.38107"><ele>311.0</ele><time>2026-04-18T12:47:20.254Z</time></trkpt><trkpt lat="43.1208883" lon="13.3811383"><ele>311.0</ele><time>2026-04-18T12:47:21.255Z</time></trkpt><trkpt lat="43.1210617" lon="13.3811983"><ele>310.33333333333337</ele><time>2026-04-18T12:47:22.254Z</time></trkpt><trkpt lat="43.1212167" lon="13.3812483"><ele>309.6666666666667</ele><time>2026-04-18T12:47:23.255Z</time></trkpt><trkpt lat="43.12136" lon="13.3812817"><ele>309.0</ele><time>2026-04-18T12:47:24.255Z</time></trkpt><trkpt lat="43.1215067" lon="13.381305"><ele>309.25</ele><time>2026-04-18T12:47:25.255Z</time></trkpt><trkpt lat="43.1216533" lon="13.3813133"><ele>309.5</ele><time>2026-04-18T12:47:26.255Z</time></trkpt><trkpt lat="43.121795" lon="13.3813233"><ele>309.75</ele><time>2026-04-18T12:47:27.255Z</time></trkpt><trkpt lat="43.1219417" lon="13.3813217"><ele>310.0</ele><time>2026-04-18T12:47:28.255Z</time></trkpt><trkpt lat="43.122085" lon="13.3813"><ele>310.0</ele><time>2026-04-18T12:47:29.255Z</time></trkpt><trkpt lat="43.1222217" lon="13.38126"><ele>310.0</ele><time>2026-04-18T12:47:30.255Z</time></trkpt><trkpt lat="43.1223667" lon="13.3812167"><ele>310.0</ele><time>2026-04-18T12:47:31.255Z</time></trkpt><trkpt lat="43.122505" lon="13.381185"><ele>310.0</ele><time>2026-04-18T12:47:32.255Z</time></trkpt><trkpt lat="43.1226333" lon="13.3811683"><ele>309.66666666666663</ele><time>2026-04-18T12:47:33.255Z</time></trkpt><trkpt lat="43.1227783" lon="13.381175"><ele>309.3333333333333</ele><time>2026-04-18T12:47:34.255Z</time></trkpt><trkpt lat="43.1229383" lon="13.38119"><ele>309.0</ele><time>2026-04-18T12:47:35.255Z</time></trkpt><trkpt lat="43.12309" lon="13.3812117"><ele>309.0</ele><time>2026-04-18T12:47:36.255Z</time></trkpt><trkpt lat="43.1232233" lon="13.3812517"><ele>309.0</ele><time>2026-04-18T12:47:37.255Z</time></trkpt><trkpt lat="43.1233417" lon="13.3812983"><ele>309.0</ele><time>2026-04-18T12:47:38.254Z</time></trkpt><trkpt lat="43.1234567" lon="13.3813583"><ele>309.0</ele><time>2026-04-18T12:47:39.255Z</time></trkpt><trkpt lat="43.1235467" lon="13.3814317"><ele>308.4</ele><time>2026-04-18T12:47:40.255Z</time></trkpt><trkpt lat="43.1236283" lon="13.3815183"><ele>307.79999999999995</ele><time>2026-04-18T12:47:41.255Z</time></trkpt><trkpt lat="43.1236967" lon="13.3816033"><ele>307.20000000000005</ele><time>2026-04-18T12:47:42.255Z</time></trkpt><trkpt lat="43.1237417" lon="13.381705"><ele>306.6</ele><time>2026-04-18T12:47:43.255Z</time></trkpt><trkpt lat="43.123765" lon="13.3818167"><ele>306.0</ele><time>2026-04-18T12:47:44.255Z</time></trkpt><trkpt lat="43.1237683" lon="13.3819533"><ele>306.0</ele><time>2026-04-18T12:47:45.255Z</time></trkpt><trkpt lat="43.1237617" lon="13.38211"><ele>306.0</ele><time>2026-04-18T12:47:46.255Z</time></trkpt><trkpt lat="43.1237517" lon="13.3822833"><ele>306.0</ele><time>2026-04-18T12:47:47.255Z</time></trkpt><trkpt lat="43.1237467" lon="13.382455"><ele>306.0</ele><time>2026-04-18T12:47:48.255Z</time></trkpt><trkpt lat="43.1237583" lon="13.3826083"><ele>306.0</ele><time>2026-04-18T12:47:49.255Z</time></trkpt><trkpt lat="43.123795" lon="13.3827483"><ele>306.0</ele><time>2026-04-18T12:47:50.255Z</time></trkpt><trkpt lat="43.123845" lon="13.382875"><ele>306.0</ele><time>2026-04-18T12:47:51.255Z</time></trkpt><trkpt lat="43.1239033" lon="13.382995"><ele>306.0</ele><time>2026-04-18T12:47:52.255Z</time></trkpt><trkpt lat="43.12397" lon="13.383115"><ele>306.0</ele><time>2026-04-18T12:47:53.255Z</time></trkpt><trkpt lat="43.1240483" lon="13.3832067"><ele>306.0</ele><time>2026-04-18T12:47:54.255Z</time></trkpt><trkpt lat="43.1241133" lon="13.3832817"><ele>306.0</ele><time>2026-04-18T12:47:55.255Z</time></trkpt><trkpt lat="43.1242117" lon="13.3833517"><ele>306.0</ele><time>2026-04-18T12:47:56.255Z</time></trkpt><trkpt lat="43.1243283" lon="13.3833983"><ele>306.0</ele><time>2026-04-18T12:47:57.255Z</time></trkpt><trkpt lat="43.12446" lon="13.3834467"><ele>306.0</ele><time>2026-04-18T12:47:58.255Z</time></trkpt><trkpt lat="43.1245817" lon="13.3835033"><ele>306.0</ele><time>2026-04-18T12:47:59.255Z</time></trkpt><trkpt lat="43.1247017" lon="13.383575"><ele>306.0</ele><time>2026-04-18T12:48:00.255Z</time></trkpt><trkpt lat="43.1248083" lon="13.3836717"><ele>306.0</ele><time>2026-04-18T12:48:01.255Z</time></trkpt><trkpt lat="43.124895" lon="13.3837767"><ele>305.6</ele><time>2026-04-18T12:48:02.255Z</time></trkpt><trkpt lat="43.1249817" lon="13.38388"><ele>305.20000000000005</ele><time>2026-04-18T12:48:03.255Z</time></trkpt><trkpt lat="43.125055" lon="13.3839717"><ele>304.79999999999995</ele><time>2026-04-18T12:48:04.255Z</time></trkpt><trkpt lat="43.1251317" lon="13.3840483"><ele>304.4</ele><time>2026-04-18T12:48:05.255Z</time></trkpt><trkpt lat="43.1252167" lon="13.3841083"><ele>304.0</ele><time>2026-04-18T12:48:06.255Z</time></trkpt><trkpt lat="43.12529" lon="13.3841467"><ele>304.0</ele><time>2026-04-18T12:48:07.255Z</time></trkpt><trkpt lat="43.1253583" lon="13.384165"><ele>304.0</ele><time>2026-04-18T12:48:08.255Z</time></trkpt><trkpt lat="43.1254617" lon="13.3841133"><ele>304.0</ele><time>2026-04-18T12:48:10.255Z</time></trkpt><trkpt lat="43.1255033" lon="13.3840433"><ele>304.0</ele><time>2026-04-18T12:48:11.255Z</time></trkpt><trkpt lat="43.12557" lon="13.3839033"><ele>304.0</ele><time>2026-04-18T12:48:13.255Z</time></trkpt><trkpt lat="43.12563" lon="13.3838733"><ele>304.0</ele><time>2026-04-18T12:48:14.255Z</time></trkpt><trkpt lat="43.125695" lon="13.3838633"><ele>303.4</ele><time>2026-04-18T12:48:15.255Z</time></trkpt><trkpt lat="43.1257733" lon="13.3838867"><ele>302.79999999999995</ele><time>2026-04-18T12:48:16.255Z</time></trkpt><trkpt lat="43.125865" lon="13.3839383"><ele>302.20000000000005</ele><time>2026-04-18T12:48:17.255Z</time></trkpt><trkpt lat="43.1259617" lon="13.3840017"><ele>301.6</ele><time>2026-04-18T12:48:18.255Z</time></trkpt><trkpt lat="43.1260567" lon="13.3840633"><ele>301.0</ele><time>2026-04-18T12:48:19.255Z</time></trkpt><trkpt lat="43.1261667" lon="13.3841233"><ele>301.0</ele><time>2026-04-18T12:48:20.255Z</time></trkpt><trkpt lat="43.1262867" lon="13.3841817"><ele>301.0</ele><time>2026-04-18T12:48:21.255Z</time></trkpt><trkpt lat="43.1264283" lon="13.3842283"><ele>301.0</ele><time>2026-04-18T12:48:22.255Z</time></trkpt><trkpt lat="43.126575" lon="13.384255"><ele>301.0</ele><time>2026-04-18T12:48:23.255Z</time></trkpt><trkpt lat="43.1267183" lon="13.3842717"><ele>301.0</ele><time>2026-04-18T12:48:24.255Z</time></trkpt><trkpt lat="43.1268733" lon="13.3842717"><ele>301.0</ele><time>2026-04-18T12:48:25.255Z</time></trkpt><trkpt lat="43.12702" lon="13.3842717"><ele>301.0</ele><time>2026-04-18T12:48:26.255Z</time></trkpt><trkpt lat="43.127155" lon="13.3842517"><ele>301.0</ele><time>2026-04-18T12:48:27.255Z</time></trkpt><trkpt lat="43.1272817" lon="13.38422"><ele>301.0</ele><time>2026-04-18T12:48:28.255Z</time></trkpt><trkpt lat="43.1273933" lon="13.3841983"><ele>301.0</ele><time>2026-04-18T12:48:29.254Z</time></trkpt><trkpt lat="43.1275" lon="13.3841683"><ele>301.0</ele><time>2026-04-18T12:48:30.255Z</time></trkpt><trkpt lat="43.1276" lon="13.3841167"><ele>301.0</ele><time>2026-04-18T12:48:31.255Z</time></trkpt><trkpt lat="43.12769" lon="13.3840367"><ele>301.0</ele><time>2026-04-18T12:48:32.255Z</time></trkpt><trkpt lat="43.1277683" lon="13.3839167"><ele>301.25</ele><time>2026-04-18T12:48:33.255Z</time></trkpt><trkpt lat="43.127835" lon="13.383755"><ele>301.5</ele><time>2026-04-18T12:48:34.255Z</time></trkpt><trkpt lat="43.1278833" lon="13.383565"><ele>301.75</ele><time>2026-04-18T12:48:35.255Z</time></trkpt><trkpt lat="43.1279233" lon="13.383375"><ele>302.0</ele><time>2026-04-18T12:48:36.255Z</time></trkpt><trkpt lat="43.1279733" lon="13.3831733"><ele>303.6666666666667</ele><time>2026-04-18T12:48:37.255Z</time></trkpt><trkpt lat="43.1280133" lon="13.3829633"><ele>305.3333333333333</ele><time>2026-04-18T12:48:38.255Z</time></trkpt><trkpt lat="43.12805" lon="13.3827583"><ele>307.0</ele><time>2026-04-18T12:48:39.254Z</time></trkpt><trkpt lat="43.1280867" lon="13.3825667"><ele>307.0</ele><time>2026-04-18T12:48:40.255Z</time></trkpt><trkpt lat="43.1281117" lon="13.3823883"><ele>307.0</ele><time>2026-04-18T12:48:41.255Z</time></trkpt><trkpt lat="43.1281367" lon="13.3822333"><ele>307.0</ele><time>2026-04-18T12:48:42.255Z</time></trkpt><trkpt lat="43.1281567" lon="13.38211"><ele>307.0</ele><time>2026-04-18T12:48:43.255Z</time></trkpt><trkpt lat="43.1281917" lon="13.3820183"><ele>307.0</ele><time>2026-04-18T12:48:44.254Z</time></trkpt><trkpt lat="43.1282433" lon="13.3819483"><ele>307.66666666666663</ele><time>2026-04-18T12:48:45.255Z</time></trkpt><trkpt lat="43.12831" lon="13.381895"><ele>308.3333333333333</ele><time>2026-04-18T12:48:46.255Z</time></trkpt><trkpt lat="43.1283783" lon="13.3818717"><ele>309.0</ele><time>2026-04-18T12:48:47.255Z</time></trkpt><trkpt lat="43.1284467" lon="13.38188"><ele>309.6666666666667</ele><time>2026-04-18T12:48:48.255Z</time></trkpt><trkpt lat="43.128545" lon="13.3818933"><ele>310.33333333333337</ele><time>2026-04-18T12:48:50.255Z</time></trkpt><trkpt lat="43.1286367" lon="13.3818933"><ele>311.0</ele><time>2026-04-18T12:48:52.255Z</time></trkpt><trkpt lat="43.12875" lon="13.381915"><ele>311.0</ele><time>2026-04-18T12:48:54.255Z</time></trkpt><trkpt lat="43.1288383" lon="13.3819433"><ele>311.0</ele><time>2026-04-18T12:48:55.255Z</time></trkpt><trkpt lat="43.1289633" lon="13.3819917"><ele>311.0</ele><time>2026-04-18T12:48:56.255Z</time></trkpt><trkpt lat="43.1291083" lon="13.3820333"><ele>311.0</ele><time>2026-04-18T12:48:57.255Z</time></trkpt><trkpt lat="43.1292383" lon="13.3820433"><ele>310.33333333333337</ele><time>2026-04-18T12:48:58.255Z</time></trkpt><trkpt lat="43.129365" lon="13.3820367"><ele>309.6666666666667</ele><time>2026-04-18T12:48:59.255Z</time></trkpt><trkpt lat="43.129515" lon="13.3820083"><ele>309.0</ele><time>2026-04-18T12:49:00.255Z</time></trkpt><trkpt lat="43.1296883" lon="13.381935"><ele>309.0</ele><time>2026-04-18T12:49:01.255Z</time></trkpt><trkpt lat="43.129885" lon="13.38184"><ele>309.0</ele><time>2026-04-18T12:49:02.255Z</time></trkpt><trkpt lat="43.1300583" lon="13.381745"><ele>309.0</ele><time>2026-04-18T12:49:03.255Z</time></trkpt><trkpt lat="43.130225" lon="13.3816483"><ele>306.3333333333333</ele><time>2026-04-18T12:49:04.255Z</time></trkpt><trkpt lat="43.1303967" lon="13.3815533"><ele>303.66666666666663</ele><time>2026-04-18T12:49:05.255Z</time></trkpt><trkpt lat="43.13057" lon="13.3814483"><ele>301.0</ele><time>2026-04-18T12:49:06.255Z</time></trkpt><trkpt lat="43.1307417" lon="13.3813383"><ele>301.0</ele><time>2026-04-18T12:49:07.255Z</time></trkpt><trkpt lat="43.13091" lon="13.381235"><ele>301.0</ele><time>2026-04-18T12:49:08.255Z</time></trkpt><trkpt lat="43.1310817" lon="13.3811283"><ele>301.0</ele><time>2026-04-18T12:49:09.255Z</time></trkpt><trkpt lat="43.13126" lon="13.381025"><ele>301.0</ele><time>2026-04-18T12:49:10.255Z</time></trkpt><trkpt lat="43.1314433" lon="13.380915"><ele>301.0</ele><time>2026-04-18T12:49:11.255Z</time></trkpt><trkpt lat="43.1316283" lon="13.380805"><ele>301.0</ele><time>2026-04-18T12:49:12.255Z</time></trkpt><trkpt lat="43.1318167" lon="13.3806983"><ele>301.66666666666663</ele><time>2026-04-18T12:49:13.255Z</time></trkpt><trkpt lat="43.1320017" lon="13.3805883"><ele>302.3333333333333</ele><time>2026-04-18T12:49:14.255Z</time></trkpt><trkpt lat="43.1321833" lon="13.380485"><ele>303.0</ele><time>2026-04-18T12:49:15.255Z</time></trkpt><trkpt lat="43.13237" lon="13.3803817"><ele>303.0</ele><time>2026-04-18T12:49:16.255Z</time></trkpt><trkpt lat="43.13256" lon="13.3802917"><ele>301.0</ele><time>2026-04-18T12:49:17.255Z</time></trkpt><trkpt lat="43.1327617" lon="13.3802167"><ele>301.0</ele><time>2026-04-18T12:49:18.255Z</time></trkpt></trkseg></trk></gpx>